<?xml version="1.0" encoding="UTF-8" standalone="no" ?>
<gpx xmlns="http://www.topografix.com/GPX/1/1" xmlns:xsi="http://www.w3.org/2001/XMLSchema-instance" xsi:schemaLocation="http://www.topografix.com/GPX/1/1 http://www.topografix.com/GPX/1/1/gpx.xsd" version="1.1" creator="VisuGPX - https://www.visugpx.com">
  <metadata>
    <name>Cachy 2020-10-21 13:56:20 [Strava]</name>
  </metadata>
  <trk>
    <name><![CDATA[Cachy 2020-10-21 13:56:20 [Strava]_1]]></name>
    <trkseg>
      <trkpt lat="49.85264" lon="2.48027">
        <ele>100.9</ele>
        <time>2020-10-21T11:56:20Z</time>
      </trkpt>
      <trkpt lat="49.85255" lon="2.48052">
        <ele>100.8</ele>
        <time>2020-10-21T11:56:22Z</time>
      </trkpt>
      <trkpt lat="49.85254" lon="2.48069">
        <ele>100.8</ele>
        <time>2020-10-21T11:56:24Z</time>
      </trkpt>
      <trkpt lat="49.85258" lon="2.48073">
        <ele>100.8</ele>
        <time>2020-10-21T11:56:25Z</time>
      </trkpt>
      <trkpt lat="49.85259" lon="2.48071">
        <ele>100.8</ele>
        <time>2020-10-21T11:56:27Z</time>
      </trkpt>
      <trkpt lat="49.8526" lon="2.4807">
        <ele>100.8</ele>
        <time>2020-10-21T11:56:29Z</time>
      </trkpt>
      <trkpt lat="49.8526" lon="2.4807">
        <ele>100.8</ele>
        <time>2020-10-21T11:56:31Z</time>
      </trkpt>
      <trkpt lat="49.8526" lon="2.4807">
        <ele>100.8</ele>
        <time>2020-10-21T11:56:32Z</time>
      </trkpt>
      <trkpt lat="49.8526" lon="2.4807">
        <ele>100.8</ele>
        <time>2020-10-21T11:56:33Z</time>
      </trkpt>
      <trkpt lat="49.8526" lon="2.4807">
        <ele>100.8</ele>
        <time>2020-10-21T11:56:34Z</time>
      </trkpt>
      <trkpt lat="49.8526" lon="2.4807">
        <ele>100.8</ele>
        <time>2020-10-21T11:56:36Z</time>
      </trkpt>
      <trkpt lat="49.8526" lon="2.4807">
        <ele>100.8</ele>
        <time>2020-10-21T11:56:37Z</time>
      </trkpt>
      <trkpt lat="49.8526" lon="2.4807">
        <ele>100.8</ele>
        <time>2020-10-21T11:56:38Z</time>
      </trkpt>
      <trkpt lat="49.8526" lon="2.4807">
        <ele>100.8</ele>
        <time>2020-10-21T11:56:40Z</time>
      </trkpt>
      <trkpt lat="49.8526" lon="2.4807">
        <ele>100.8</ele>
        <time>2020-10-21T11:56:41Z</time>
      </trkpt>
      <trkpt lat="49.8526" lon="2.4807">
        <ele>100.8</ele>
        <time>2020-10-21T11:56:43Z</time>
      </trkpt>
      <trkpt lat="49.8526" lon="2.4807">
        <ele>100.8</ele>
        <time>2020-10-21T11:56:44Z</time>
      </trkpt>
      <trkpt lat="49.8526" lon="2.4807">
        <ele>100.8</ele>
        <time>2020-10-21T11:56:45Z</time>
      </trkpt>
      <trkpt lat="49.8526" lon="2.4807">
        <ele>100.8</ele>
        <time>2020-10-21T11:56:47Z</time>
      </trkpt>
      <trkpt lat="49.8526" lon="2.4807">
        <ele>100.8</ele>
        <time>2020-10-21T11:56:48Z</time>
      </trkpt>
      <trkpt lat="49.8526" lon="2.4807">
        <ele>100.8</ele>
        <time>2020-10-21T11:56:50Z</time>
      </trkpt>
      <trkpt lat="49.8526" lon="2.4807">
        <ele>100.8</ele>
        <time>2020-10-21T11:56:52Z</time>
      </trkpt>
      <trkpt lat="49.8526" lon="2.4807">
        <ele>100.8</ele>
        <time>2020-10-21T11:56:54Z</time>
      </trkpt>
      <trkpt lat="49.8526" lon="2.4807">
        <ele>100.8</ele>
        <time>2020-10-21T11:56:56Z</time>
      </trkpt>
      <trkpt lat="49.8526" lon="2.4807">
        <ele>100.8</ele>
        <time>2020-10-21T11:56:57Z</time>
      </trkpt>
      <trkpt lat="49.8526" lon="2.4807">
        <ele>100.8</ele>
        <time>2020-10-21T11:56:59Z</time>
      </trkpt>
      <trkpt lat="49.8526" lon="2.4807">
        <ele>100.8</ele>
        <time>2020-10-21T11:57:01Z</time>
      </trkpt>
      <trkpt lat="49.8526" lon="2.4807">
        <ele>100.8</ele>
        <time>2020-10-21T11:57:03Z</time>
      </trkpt>
      <trkpt lat="49.8526" lon="2.4807">
        <ele>100.8</ele>
        <time>2020-10-21T11:57:04Z</time>
      </trkpt>
      <trkpt lat="49.8526" lon="2.4807">
        <ele>100.8</ele>
        <time>2020-10-21T11:57:06Z</time>
      </trkpt>
      <trkpt lat="49.8526" lon="2.4807">
        <ele>100.8</ele>
        <time>2020-10-21T11:57:07Z</time>
      </trkpt>
      <trkpt lat="49.8526" lon="2.4807">
        <ele>100.8</ele>
        <time>2020-10-21T11:57:09Z</time>
      </trkpt>
      <trkpt lat="49.8526" lon="2.4807">
        <ele>100.8</ele>
        <time>2020-10-21T11:57:11Z</time>
      </trkpt>
      <trkpt lat="49.8526" lon="2.4807">
        <ele>100.8</ele>
        <time>2020-10-21T11:57:12Z</time>
      </trkpt>
      <trkpt lat="49.8526" lon="2.4807">
        <ele>100.8</ele>
        <time>2020-10-21T11:57:14Z</time>
      </trkpt>
      <trkpt lat="49.8526" lon="2.4807">
        <ele>100.8</ele>
        <time>2020-10-21T11:57:16Z</time>
      </trkpt>
      <trkpt lat="49.8526" lon="2.4807">
        <ele>100.8</ele>
        <time>2020-10-21T11:57:17Z</time>
      </trkpt>
      <trkpt lat="49.8526" lon="2.4807">
        <ele>100.8</ele>
        <time>2020-10-21T11:57:19Z</time>
      </trkpt>
      <trkpt lat="49.8526" lon="2.4807">
        <ele>100.8</ele>
        <time>2020-10-21T11:57:20Z</time>
      </trkpt>
      <trkpt lat="49.8526" lon="2.4807">
        <ele>100.8</ele>
        <time>2020-10-21T11:57:22Z</time>
      </trkpt>
      <trkpt lat="49.8526" lon="2.4807">
        <ele>100.8</ele>
        <time>2020-10-21T11:57:24Z</time>
      </trkpt>
      <trkpt lat="49.8526" lon="2.4807">
        <ele>100.8</ele>
        <time>2020-10-21T11:57:25Z</time>
      </trkpt>
      <trkpt lat="49.8526" lon="2.4807">
        <ele>100.8</ele>
        <time>2020-10-21T11:57:27Z</time>
      </trkpt>
      <trkpt lat="49.8526" lon="2.4807">
        <ele>100.8</ele>
        <time>2020-10-21T11:57:28Z</time>
      </trkpt>
      <trkpt lat="49.8526" lon="2.4807">
        <ele>100.8</ele>
        <time>2020-10-21T11:57:29Z</time>
      </trkpt>
      <trkpt lat="49.8526" lon="2.4807">
        <ele>100.8</ele>
        <time>2020-10-21T11:57:30Z</time>
      </trkpt>
      <trkpt lat="49.8526" lon="2.48066">
        <ele>100.8</ele>
        <time>2020-10-21T11:57:32Z</time>
      </trkpt>
      <trkpt lat="49.8526" lon="2.48066">
        <ele>100.8</ele>
        <time>2020-10-21T11:57:33Z</time>
      </trkpt>
      <trkpt lat="49.85259" lon="2.48065">
        <ele>100.8</ele>
        <time>2020-10-21T11:57:35Z</time>
      </trkpt>
      <trkpt lat="49.85259" lon="2.48065">
        <ele>100.8</ele>
        <time>2020-10-21T11:57:37Z</time>
      </trkpt>
      <trkpt lat="49.85259" lon="2.48065">
        <ele>100.8</ele>
        <time>2020-10-21T11:57:40Z</time>
      </trkpt>
      <trkpt lat="49.85259" lon="2.48065">
        <ele>100.8</ele>
        <time>2020-10-21T11:57:42Z</time>
      </trkpt>
      <trkpt lat="49.85259" lon="2.48065">
        <ele>100.8</ele>
        <time>2020-10-21T11:57:43Z</time>
      </trkpt>
      <trkpt lat="49.85259" lon="2.48065">
        <ele>100.8</ele>
        <time>2020-10-21T11:57:44Z</time>
      </trkpt>
      <trkpt lat="49.85259" lon="2.48065">
        <ele>100.8</ele>
        <time>2020-10-21T11:57:46Z</time>
      </trkpt>
      <trkpt lat="49.85259" lon="2.48065">
        <ele>100.8</ele>
        <time>2020-10-21T11:57:47Z</time>
      </trkpt>
      <trkpt lat="49.85259" lon="2.48065">
        <ele>100.8</ele>
        <time>2020-10-21T11:57:49Z</time>
      </trkpt>
      <trkpt lat="49.85259" lon="2.48065">
        <ele>100.8</ele>
        <time>2020-10-21T11:57:50Z</time>
      </trkpt>
      <trkpt lat="49.85259" lon="2.48065">
        <ele>100.8</ele>
        <time>2020-10-21T11:57:52Z</time>
      </trkpt>
      <trkpt lat="49.85257" lon="2.48064">
        <ele>100.8</ele>
        <time>2020-10-21T11:57:54Z</time>
      </trkpt>
      <trkpt lat="49.85257" lon="2.48064">
        <ele>100.8</ele>
        <time>2020-10-21T11:57:55Z</time>
      </trkpt>
      <trkpt lat="49.85257" lon="2.48064">
        <ele>100.8</ele>
        <time>2020-10-21T11:57:57Z</time>
      </trkpt>
      <trkpt lat="49.85257" lon="2.48064">
        <ele>100.8</ele>
        <time>2020-10-21T11:57:58Z</time>
      </trkpt>
      <trkpt lat="49.85257" lon="2.48064">
        <ele>100.8</ele>
        <time>2020-10-21T11:58:00Z</time>
      </trkpt>
      <trkpt lat="49.85257" lon="2.48064">
        <ele>100.8</ele>
        <time>2020-10-21T11:58:02Z</time>
      </trkpt>
      <trkpt lat="49.85257" lon="2.48064">
        <ele>100.8</ele>
        <time>2020-10-21T11:58:03Z</time>
      </trkpt>
      <trkpt lat="49.85257" lon="2.48064">
        <ele>100.8</ele>
        <time>2020-10-21T11:58:05Z</time>
      </trkpt>
      <trkpt lat="49.85257" lon="2.48064">
        <ele>100.8</ele>
        <time>2020-10-21T11:58:06Z</time>
      </trkpt>
      <trkpt lat="49.85257" lon="2.48064">
        <ele>100.7</ele>
        <time>2020-10-21T11:58:08Z</time>
      </trkpt>
      <trkpt lat="49.85257" lon="2.48064">
        <ele>100.7</ele>
        <time>2020-10-21T11:58:09Z</time>
      </trkpt>
      <trkpt lat="49.85257" lon="2.48064">
        <ele>100.7</ele>
        <time>2020-10-21T11:58:10Z</time>
      </trkpt>
      <trkpt lat="49.85257" lon="2.48064">
        <ele>100.7</ele>
        <time>2020-10-21T11:58:11Z</time>
      </trkpt>
      <trkpt lat="49.85257" lon="2.48065">
        <ele>100.7</ele>
        <time>2020-10-21T11:58:13Z</time>
      </trkpt>
      <trkpt lat="49.85256" lon="2.48064">
        <ele>100.7</ele>
        <time>2020-10-21T11:58:15Z</time>
      </trkpt>
      <trkpt lat="49.85256" lon="2.48064">
        <ele>100.7</ele>
        <time>2020-10-21T11:58:17Z</time>
      </trkpt>
      <trkpt lat="49.85256" lon="2.48064">
        <ele>100.7</ele>
        <time>2020-10-21T11:58:18Z</time>
      </trkpt>
      <trkpt lat="49.85257" lon="2.48064">
        <ele>100.7</ele>
        <time>2020-10-21T11:58:19Z</time>
      </trkpt>
      <trkpt lat="49.85256" lon="2.48064">
        <ele>100.7</ele>
        <time>2020-10-21T11:58:21Z</time>
      </trkpt>
      <trkpt lat="49.85257" lon="2.48064">
        <ele>100.7</ele>
        <time>2020-10-21T11:58:22Z</time>
      </trkpt>
      <trkpt lat="49.85257" lon="2.48064">
        <ele>100.7</ele>
        <time>2020-10-21T11:58:23Z</time>
      </trkpt>
      <trkpt lat="49.85257" lon="2.48064">
        <ele>100.7</ele>
        <time>2020-10-21T11:58:25Z</time>
      </trkpt>
      <trkpt lat="49.85257" lon="2.48064">
        <ele>100.7</ele>
        <time>2020-10-21T11:58:26Z</time>
      </trkpt>
      <trkpt lat="49.85256" lon="2.48065">
        <ele>100.7</ele>
        <time>2020-10-21T11:58:28Z</time>
      </trkpt>
      <trkpt lat="49.85256" lon="2.48066">
        <ele>100.7</ele>
        <time>2020-10-21T11:58:30Z</time>
      </trkpt>
      <trkpt lat="49.85256" lon="2.48066">
        <ele>100.7</ele>
        <time>2020-10-21T11:58:31Z</time>
      </trkpt>
      <trkpt lat="49.85256" lon="2.48066">
        <ele>100.7</ele>
        <time>2020-10-21T11:58:33Z</time>
      </trkpt>
      <trkpt lat="49.85255" lon="2.48063">
        <ele>100.7</ele>
        <time>2020-10-21T11:58:35Z</time>
      </trkpt>
      <trkpt lat="49.85255" lon="2.48063">
        <ele>100.7</ele>
        <time>2020-10-21T11:58:36Z</time>
      </trkpt>
      <trkpt lat="49.85254" lon="2.48062">
        <ele>100.7</ele>
        <time>2020-10-21T11:58:38Z</time>
      </trkpt>
      <trkpt lat="49.85254" lon="2.48062">
        <ele>100.7</ele>
        <time>2020-10-21T11:58:39Z</time>
      </trkpt>
      <trkpt lat="49.85254" lon="2.48062">
        <ele>100.7</ele>
        <time>2020-10-21T11:58:40Z</time>
      </trkpt>
      <trkpt lat="49.85254" lon="2.4806">
        <ele>100.7</ele>
        <time>2020-10-21T11:58:41Z</time>
      </trkpt>
      <trkpt lat="49.85254" lon="2.4806">
        <ele>100.7</ele>
        <time>2020-10-21T11:58:42Z</time>
      </trkpt>
      <trkpt lat="49.85254" lon="2.48059">
        <ele>100.7</ele>
        <time>2020-10-21T11:58:43Z</time>
      </trkpt>
      <trkpt lat="49.85254" lon="2.48057">
        <ele>100.7</ele>
        <time>2020-10-21T11:58:45Z</time>
      </trkpt>
      <trkpt lat="49.85254" lon="2.48057">
        <ele>100.7</ele>
        <time>2020-10-21T11:58:47Z</time>
      </trkpt>
      <trkpt lat="49.85254" lon="2.48057">
        <ele>100.7</ele>
        <time>2020-10-21T11:58:49Z</time>
      </trkpt>
      <trkpt lat="49.85254" lon="2.48057">
        <ele>100.7</ele>
        <time>2020-10-21T11:58:50Z</time>
      </trkpt>
      <trkpt lat="49.85254" lon="2.48057">
        <ele>100.7</ele>
        <time>2020-10-21T11:58:51Z</time>
      </trkpt>
      <trkpt lat="49.85254" lon="2.48057">
        <ele>100.7</ele>
        <time>2020-10-21T11:58:53Z</time>
      </trkpt>
      <trkpt lat="49.85254" lon="2.48057">
        <ele>100.7</ele>
        <time>2020-10-21T11:58:55Z</time>
      </trkpt>
      <trkpt lat="49.85254" lon="2.48057">
        <ele>100.7</ele>
        <time>2020-10-21T11:58:57Z</time>
      </trkpt>
      <trkpt lat="49.85254" lon="2.48057">
        <ele>100.7</ele>
        <time>2020-10-21T11:58:59Z</time>
      </trkpt>
      <trkpt lat="49.85254" lon="2.48057">
        <ele>100.7</ele>
        <time>2020-10-21T11:59:00Z</time>
      </trkpt>
      <trkpt lat="49.85254" lon="2.48057">
        <ele>100.7</ele>
        <time>2020-10-21T11:59:02Z</time>
      </trkpt>
      <trkpt lat="49.85254" lon="2.48057">
        <ele>100.7</ele>
        <time>2020-10-21T11:59:04Z</time>
      </trkpt>
      <trkpt lat="49.85254" lon="2.48057">
        <ele>100.7</ele>
        <time>2020-10-21T11:59:05Z</time>
      </trkpt>
      <trkpt lat="49.85254" lon="2.48057">
        <ele>100.7</ele>
        <time>2020-10-21T11:59:07Z</time>
      </trkpt>
      <trkpt lat="49.85254" lon="2.48057">
        <ele>100.7</ele>
        <time>2020-10-21T11:59:09Z</time>
      </trkpt>
      <trkpt lat="49.85254" lon="2.48057">
        <ele>100.7</ele>
        <time>2020-10-21T11:59:10Z</time>
      </trkpt>
      <trkpt lat="49.85254" lon="2.48057">
        <ele>100.7</ele>
        <time>2020-10-21T11:59:11Z</time>
      </trkpt>
      <trkpt lat="49.85254" lon="2.48057">
        <ele>100.7</ele>
        <time>2020-10-21T11:59:13Z</time>
      </trkpt>
      <trkpt lat="49.85254" lon="2.48057">
        <ele>100.7</ele>
        <time>2020-10-21T11:59:14Z</time>
      </trkpt>
      <trkpt lat="49.85254" lon="2.48058">
        <ele>100.7</ele>
        <time>2020-10-21T11:59:16Z</time>
      </trkpt>
      <trkpt lat="49.85254" lon="2.48059">
        <ele>100.7</ele>
        <time>2020-10-21T11:59:17Z</time>
      </trkpt>
      <trkpt lat="49.85254" lon="2.48058">
        <ele>100.7</ele>
        <time>2020-10-21T11:59:18Z</time>
      </trkpt>
      <trkpt lat="49.85254" lon="2.48059">
        <ele>100.7</ele>
        <time>2020-10-21T11:59:19Z</time>
      </trkpt>
      <trkpt lat="49.85254" lon="2.48059">
        <ele>100.7</ele>
        <time>2020-10-21T11:59:21Z</time>
      </trkpt>
      <trkpt lat="49.85254" lon="2.48059">
        <ele>100.7</ele>
        <time>2020-10-21T11:59:22Z</time>
      </trkpt>
      <trkpt lat="49.85254" lon="2.48058">
        <ele>100.7</ele>
        <time>2020-10-21T11:59:24Z</time>
      </trkpt>
      <trkpt lat="49.85254" lon="2.48058">
        <ele>100.7</ele>
        <time>2020-10-21T11:59:25Z</time>
      </trkpt>
      <trkpt lat="49.85254" lon="2.48058">
        <ele>100.7</ele>
        <time>2020-10-21T11:59:26Z</time>
      </trkpt>
      <trkpt lat="49.85254" lon="2.48058">
        <ele>100.7</ele>
        <time>2020-10-21T11:59:28Z</time>
      </trkpt>
      <trkpt lat="49.85254" lon="2.48058">
        <ele>100.7</ele>
        <time>2020-10-21T11:59:29Z</time>
      </trkpt>
      <trkpt lat="49.85254" lon="2.48058">
        <ele>100.7</ele>
        <time>2020-10-21T11:59:30Z</time>
      </trkpt>
      <trkpt lat="49.85254" lon="2.48058">
        <ele>100.7</ele>
        <time>2020-10-21T11:59:32Z</time>
      </trkpt>
      <trkpt lat="49.85254" lon="2.48058">
        <ele>100.7</ele>
        <time>2020-10-21T11:59:33Z</time>
      </trkpt>
      <trkpt lat="49.85254" lon="2.48059">
        <ele>100.7</ele>
        <time>2020-10-21T11:59:34Z</time>
      </trkpt>
      <trkpt lat="49.85254" lon="2.48059">
        <ele>100.7</ele>
        <time>2020-10-21T11:59:36Z</time>
      </trkpt>
      <trkpt lat="49.85253" lon="2.48059">
        <ele>100.7</ele>
        <time>2020-10-21T11:59:37Z</time>
      </trkpt>
      <trkpt lat="49.85254" lon="2.48059">
        <ele>100.7</ele>
        <time>2020-10-21T11:59:39Z</time>
      </trkpt>
      <trkpt lat="49.85254" lon="2.48059">
        <ele>100.7</ele>
        <time>2020-10-21T11:59:40Z</time>
      </trkpt>
      <trkpt lat="49.85253" lon="2.48059">
        <ele>100.7</ele>
        <time>2020-10-21T11:59:41Z</time>
      </trkpt>
      <trkpt lat="49.85253" lon="2.48059">
        <ele>100.7</ele>
        <time>2020-10-21T11:59:43Z</time>
      </trkpt>
      <trkpt lat="49.85253" lon="2.48059">
        <ele>100.7</ele>
        <time>2020-10-21T11:59:44Z</time>
      </trkpt>
      <trkpt lat="49.85253" lon="2.48059">
        <ele>100.7</ele>
        <time>2020-10-21T11:59:45Z</time>
      </trkpt>
      <trkpt lat="49.85253" lon="2.48059">
        <ele>100.7</ele>
        <time>2020-10-21T11:59:47Z</time>
      </trkpt>
      <trkpt lat="49.85254" lon="2.48058">
        <ele>100.7</ele>
        <time>2020-10-21T11:59:48Z</time>
      </trkpt>
      <trkpt lat="49.85254" lon="2.48059">
        <ele>100.7</ele>
        <time>2020-10-21T11:59:49Z</time>
      </trkpt>
      <trkpt lat="49.85254" lon="2.48059">
        <ele>100.7</ele>
        <time>2020-10-21T11:59:51Z</time>
      </trkpt>
      <trkpt lat="49.85254" lon="2.48059">
        <ele>100.7</ele>
        <time>2020-10-21T11:59:52Z</time>
      </trkpt>
      <trkpt lat="49.85254" lon="2.48058">
        <ele>100.7</ele>
        <time>2020-10-21T11:59:53Z</time>
      </trkpt>
      <trkpt lat="49.85254" lon="2.48059">
        <ele>100.7</ele>
        <time>2020-10-21T11:59:55Z</time>
      </trkpt>
      <trkpt lat="49.85254" lon="2.48059">
        <ele>100.7</ele>
        <time>2020-10-21T11:59:56Z</time>
      </trkpt>
      <trkpt lat="49.85254" lon="2.48059">
        <ele>100.7</ele>
        <time>2020-10-21T11:59:57Z</time>
      </trkpt>
      <trkpt lat="49.85254" lon="2.48059">
        <ele>100.7</ele>
        <time>2020-10-21T11:59:59Z</time>
      </trkpt>
      <trkpt lat="49.85254" lon="2.48059">
        <ele>100.7</ele>
        <time>2020-10-21T12:00:00Z</time>
      </trkpt>
      <trkpt lat="49.85254" lon="2.48059">
        <ele>100.7</ele>
        <time>2020-10-21T12:00:01Z</time>
      </trkpt>
      <trkpt lat="49.85254" lon="2.48059">
        <ele>100.7</ele>
        <time>2020-10-21T12:00:02Z</time>
      </trkpt>
      <trkpt lat="49.85254" lon="2.48058">
        <ele>100.7</ele>
        <time>2020-10-21T12:00:04Z</time>
      </trkpt>
      <trkpt lat="49.85253" lon="2.48058">
        <ele>100.7</ele>
        <time>2020-10-21T12:00:05Z</time>
      </trkpt>
      <trkpt lat="49.85253" lon="2.48058">
        <ele>100.7</ele>
        <time>2020-10-21T12:00:07Z</time>
      </trkpt>
      <trkpt lat="49.85252" lon="2.48057">
        <ele>100.7</ele>
        <time>2020-10-21T12:00:09Z</time>
      </trkpt>
      <trkpt lat="49.85252" lon="2.48057">
        <ele>100.7</ele>
        <time>2020-10-21T12:00:11Z</time>
      </trkpt>
      <trkpt lat="49.85252" lon="2.48057">
        <ele>100.7</ele>
        <time>2020-10-21T12:00:12Z</time>
      </trkpt>
      <trkpt lat="49.85252" lon="2.48057">
        <ele>100.7</ele>
        <time>2020-10-21T12:00:13Z</time>
      </trkpt>
      <trkpt lat="49.85252" lon="2.48057">
        <ele>100.7</ele>
        <time>2020-10-21T12:00:15Z</time>
      </trkpt>
      <trkpt lat="49.85252" lon="2.48057">
        <ele>100.7</ele>
        <time>2020-10-21T12:00:17Z</time>
      </trkpt>
      <trkpt lat="49.85252" lon="2.48057">
        <ele>100.7</ele>
        <time>2020-10-21T12:00:18Z</time>
      </trkpt>
      <trkpt lat="49.85252" lon="2.48057">
        <ele>100.7</ele>
        <time>2020-10-21T12:00:20Z</time>
      </trkpt>
      <trkpt lat="49.85252" lon="2.48057">
        <ele>100.7</ele>
        <time>2020-10-21T12:00:21Z</time>
      </trkpt>
      <trkpt lat="49.85252" lon="2.48057">
        <ele>100.7</ele>
        <time>2020-10-21T12:00:22Z</time>
      </trkpt>
      <trkpt lat="49.85252" lon="2.48057">
        <ele>100.7</ele>
        <time>2020-10-21T12:00:24Z</time>
      </trkpt>
      <trkpt lat="49.85252" lon="2.48057">
        <ele>100.7</ele>
        <time>2020-10-21T12:00:26Z</time>
      </trkpt>
      <trkpt lat="49.85252" lon="2.48057">
        <ele>100.7</ele>
        <time>2020-10-21T12:00:27Z</time>
      </trkpt>
      <trkpt lat="49.85252" lon="2.48057">
        <ele>100.7</ele>
        <time>2020-10-21T12:00:28Z</time>
      </trkpt>
      <trkpt lat="49.85252" lon="2.48057">
        <ele>100.7</ele>
        <time>2020-10-21T12:00:30Z</time>
      </trkpt>
      <trkpt lat="49.85252" lon="2.48057">
        <ele>100.7</ele>
        <time>2020-10-21T12:00:31Z</time>
      </trkpt>
      <trkpt lat="49.85252" lon="2.48057">
        <ele>100.7</ele>
        <time>2020-10-21T12:00:32Z</time>
      </trkpt>
      <trkpt lat="49.85252" lon="2.48057">
        <ele>100.7</ele>
        <time>2020-10-21T12:00:34Z</time>
      </trkpt>
      <trkpt lat="49.85252" lon="2.48057">
        <ele>100.7</ele>
        <time>2020-10-21T12:00:35Z</time>
      </trkpt>
      <trkpt lat="49.85252" lon="2.48057">
        <ele>100.7</ele>
        <time>2020-10-21T12:00:37Z</time>
      </trkpt>
      <trkpt lat="49.85252" lon="2.48057">
        <ele>100.7</ele>
        <time>2020-10-21T12:00:39Z</time>
      </trkpt>
      <trkpt lat="49.85252" lon="2.48057">
        <ele>100.7</ele>
        <time>2020-10-21T12:00:41Z</time>
      </trkpt>
      <trkpt lat="49.85252" lon="2.48057">
        <ele>100.7</ele>
        <time>2020-10-21T12:00:42Z</time>
      </trkpt>
      <trkpt lat="49.85252" lon="2.48057">
        <ele>100.7</ele>
        <time>2020-10-21T12:00:44Z</time>
      </trkpt>
      <trkpt lat="49.85252" lon="2.48057">
        <ele>100.7</ele>
        <time>2020-10-21T12:00:45Z</time>
      </trkpt>
      <trkpt lat="49.85252" lon="2.48057">
        <ele>100.7</ele>
        <time>2020-10-21T12:00:46Z</time>
      </trkpt>
      <trkpt lat="49.85252" lon="2.48057">
        <ele>100.7</ele>
        <time>2020-10-21T12:00:48Z</time>
      </trkpt>
      <trkpt lat="49.85252" lon="2.48057">
        <ele>100.7</ele>
        <time>2020-10-21T12:00:49Z</time>
      </trkpt>
      <trkpt lat="49.85252" lon="2.48057">
        <ele>100.7</ele>
        <time>2020-10-21T12:00:50Z</time>
      </trkpt>
      <trkpt lat="49.85252" lon="2.48057">
        <ele>100.7</ele>
        <time>2020-10-21T12:00:52Z</time>
      </trkpt>
      <trkpt lat="49.85252" lon="2.48057">
        <ele>100.7</ele>
        <time>2020-10-21T12:00:53Z</time>
      </trkpt>
      <trkpt lat="49.85252" lon="2.48057">
        <ele>100.7</ele>
        <time>2020-10-21T12:00:54Z</time>
      </trkpt>
      <trkpt lat="49.85252" lon="2.48057">
        <ele>100.7</ele>
        <time>2020-10-21T12:00:56Z</time>
      </trkpt>
      <trkpt lat="49.85252" lon="2.48057">
        <ele>100.7</ele>
        <time>2020-10-21T12:00:58Z</time>
      </trkpt>
      <trkpt lat="49.85252" lon="2.48057">
        <ele>100.7</ele>
        <time>2020-10-21T12:01:00Z</time>
      </trkpt>
      <trkpt lat="49.85252" lon="2.48057">
        <ele>100.7</ele>
        <time>2020-10-21T12:01:01Z</time>
      </trkpt>
      <trkpt lat="49.85252" lon="2.48057">
        <ele>100.7</ele>
        <time>2020-10-21T12:01:03Z</time>
      </trkpt>
      <trkpt lat="49.85252" lon="2.48057">
        <ele>100.7</ele>
        <time>2020-10-21T12:01:04Z</time>
      </trkpt>
      <trkpt lat="49.85252" lon="2.48057">
        <ele>100.7</ele>
        <time>2020-10-21T12:01:06Z</time>
      </trkpt>
      <trkpt lat="49.85252" lon="2.48057">
        <ele>100.7</ele>
        <time>2020-10-21T12:01:07Z</time>
      </trkpt>
      <trkpt lat="49.85252" lon="2.48057">
        <ele>100.7</ele>
        <time>2020-10-21T12:01:08Z</time>
      </trkpt>
      <trkpt lat="49.85252" lon="2.48057">
        <ele>100.7</ele>
        <time>2020-10-21T12:01:09Z</time>
      </trkpt>
      <trkpt lat="49.85252" lon="2.48057">
        <ele>100.7</ele>
        <time>2020-10-21T12:01:11Z</time>
      </trkpt>
      <trkpt lat="49.85252" lon="2.48057">
        <ele>100.7</ele>
        <time>2020-10-21T12:01:12Z</time>
      </trkpt>
      <trkpt lat="49.85252" lon="2.48057">
        <ele>100.7</ele>
        <time>2020-10-21T12:01:13Z</time>
      </trkpt>
      <trkpt lat="49.85252" lon="2.48057">
        <ele>100.7</ele>
        <time>2020-10-21T12:01:14Z</time>
      </trkpt>
      <trkpt lat="49.85252" lon="2.48057">
        <ele>100.7</ele>
        <time>2020-10-21T12:01:16Z</time>
      </trkpt>
      <trkpt lat="49.85252" lon="2.48057">
        <ele>100.7</ele>
        <time>2020-10-21T12:01:18Z</time>
      </trkpt>
      <trkpt lat="49.85252" lon="2.48057">
        <ele>100.7</ele>
        <time>2020-10-21T12:01:19Z</time>
      </trkpt>
      <trkpt lat="49.85252" lon="2.48057">
        <ele>100.7</ele>
        <time>2020-10-21T12:01:20Z</time>
      </trkpt>
      <trkpt lat="49.85252" lon="2.48057">
        <ele>100.7</ele>
        <time>2020-10-21T12:01:21Z</time>
      </trkpt>
      <trkpt lat="49.85252" lon="2.48057">
        <ele>100.7</ele>
        <time>2020-10-21T12:01:22Z</time>
      </trkpt>
      <trkpt lat="49.85252" lon="2.48057">
        <ele>100.7</ele>
        <time>2020-10-21T12:01:24Z</time>
      </trkpt>
      <trkpt lat="49.85252" lon="2.48057">
        <ele>100.7</ele>
        <time>2020-10-21T12:01:25Z</time>
      </trkpt>
      <trkpt lat="49.85252" lon="2.48057">
        <ele>100.7</ele>
        <time>2020-10-21T12:01:26Z</time>
      </trkpt>
      <trkpt lat="49.85252" lon="2.48057">
        <ele>100.7</ele>
        <time>2020-10-21T12:01:28Z</time>
      </trkpt>
      <trkpt lat="49.85252" lon="2.48057">
        <ele>100.7</ele>
        <time>2020-10-21T12:01:29Z</time>
      </trkpt>
      <trkpt lat="49.85252" lon="2.48057">
        <ele>100.7</ele>
        <time>2020-10-21T12:01:31Z</time>
      </trkpt>
      <trkpt lat="49.85252" lon="2.48057">
        <ele>100.7</ele>
        <time>2020-10-21T12:01:32Z</time>
      </trkpt>
      <trkpt lat="49.85252" lon="2.48057">
        <ele>100.7</ele>
        <time>2020-10-21T12:01:34Z</time>
      </trkpt>
      <trkpt lat="49.85252" lon="2.48057">
        <ele>100.7</ele>
        <time>2020-10-21T12:01:35Z</time>
      </trkpt>
      <trkpt lat="49.85252" lon="2.48057">
        <ele>100.7</ele>
        <time>2020-10-21T12:01:36Z</time>
      </trkpt>
      <trkpt lat="49.85252" lon="2.48057">
        <ele>100.7</ele>
        <time>2020-10-21T12:01:38Z</time>
      </trkpt>
      <trkpt lat="49.85252" lon="2.48057">
        <ele>100.7</ele>
        <time>2020-10-21T12:01:39Z</time>
      </trkpt>
      <trkpt lat="49.85252" lon="2.48057">
        <ele>100.7</ele>
        <time>2020-10-21T12:01:40Z</time>
      </trkpt>
      <trkpt lat="49.85252" lon="2.48057">
        <ele>100.7</ele>
        <time>2020-10-21T12:01:41Z</time>
      </trkpt>
      <trkpt lat="49.85252" lon="2.48057">
        <ele>100.7</ele>
        <time>2020-10-21T12:01:43Z</time>
      </trkpt>
      <trkpt lat="49.85252" lon="2.48057">
        <ele>100.7</ele>
        <time>2020-10-21T12:01:44Z</time>
      </trkpt>
      <trkpt lat="49.85251" lon="2.48057">
        <ele>100.7</ele>
        <time>2020-10-21T12:01:46Z</time>
      </trkpt>
      <trkpt lat="49.85251" lon="2.48058">
        <ele>100.7</ele>
        <time>2020-10-21T12:01:48Z</time>
      </trkpt>
      <trkpt lat="49.85251" lon="2.48057">
        <ele>100.7</ele>
        <time>2020-10-21T12:01:49Z</time>
      </trkpt>
      <trkpt lat="49.85251" lon="2.48057">
        <ele>100.7</ele>
        <time>2020-10-21T12:01:50Z</time>
      </trkpt>
      <trkpt lat="49.8525" lon="2.48058">
        <ele>100.7</ele>
        <time>2020-10-21T12:01:52Z</time>
      </trkpt>
      <trkpt lat="49.85251" lon="2.48058">
        <ele>100.7</ele>
        <time>2020-10-21T12:01:54Z</time>
      </trkpt>
      <trkpt lat="49.8525" lon="2.48058">
        <ele>100.7</ele>
        <time>2020-10-21T12:01:55Z</time>
      </trkpt>
      <trkpt lat="49.8525" lon="2.48058">
        <ele>100.7</ele>
        <time>2020-10-21T12:01:56Z</time>
      </trkpt>
      <trkpt lat="49.8525" lon="2.48058">
        <ele>100.7</ele>
        <time>2020-10-21T12:01:58Z</time>
      </trkpt>
      <trkpt lat="49.85251" lon="2.48058">
        <ele>100.7</ele>
        <time>2020-10-21T12:02:00Z</time>
      </trkpt>
      <trkpt lat="49.85251" lon="2.48058">
        <ele>100.7</ele>
        <time>2020-10-21T12:02:01Z</time>
      </trkpt>
      <trkpt lat="49.85251" lon="2.48058">
        <ele>100.7</ele>
        <time>2020-10-21T12:02:03Z</time>
      </trkpt>
      <trkpt lat="49.85251" lon="2.48058">
        <ele>100.7</ele>
        <time>2020-10-21T12:02:04Z</time>
      </trkpt>
      <trkpt lat="49.85251" lon="2.48058">
        <ele>100.7</ele>
        <time>2020-10-21T12:02:06Z</time>
      </trkpt>
      <trkpt lat="49.85251" lon="2.48058">
        <ele>100.7</ele>
        <time>2020-10-21T12:02:07Z</time>
      </trkpt>
      <trkpt lat="49.85251" lon="2.48059">
        <ele>100.7</ele>
        <time>2020-10-21T12:02:08Z</time>
      </trkpt>
      <trkpt lat="49.85249" lon="2.48062">
        <ele>100.7</ele>
        <time>2020-10-21T12:02:10Z</time>
      </trkpt>
      <trkpt lat="49.85247" lon="2.48065">
        <ele>100.7</ele>
        <time>2020-10-21T12:02:12Z</time>
      </trkpt>
      <trkpt lat="49.85245" lon="2.48067">
        <ele>100.7</ele>
        <time>2020-10-21T12:02:14Z</time>
      </trkpt>
      <trkpt lat="49.85245" lon="2.48068">
        <ele>100.7</ele>
        <time>2020-10-21T12:02:15Z</time>
      </trkpt>
      <trkpt lat="49.85244" lon="2.48069">
        <ele>100.7</ele>
        <time>2020-10-21T12:02:17Z</time>
      </trkpt>
      <trkpt lat="49.85244" lon="2.4807">
        <ele>100.7</ele>
        <time>2020-10-21T12:02:18Z</time>
      </trkpt>
      <trkpt lat="49.85244" lon="2.48071">
        <ele>100.7</ele>
        <time>2020-10-21T12:02:19Z</time>
      </trkpt>
      <trkpt lat="49.85244" lon="2.48072">
        <ele>100.6</ele>
        <time>2020-10-21T12:02:21Z</time>
      </trkpt>
      <trkpt lat="49.85244" lon="2.48072">
        <ele>100.6</ele>
        <time>2020-10-21T12:02:23Z</time>
      </trkpt>
      <trkpt lat="49.85244" lon="2.48072">
        <ele>100.6</ele>
        <time>2020-10-21T12:02:25Z</time>
      </trkpt>
      <trkpt lat="49.85244" lon="2.48072">
        <ele>100.6</ele>
        <time>2020-10-21T12:02:26Z</time>
      </trkpt>
      <trkpt lat="49.85244" lon="2.48072">
        <ele>100.6</ele>
        <time>2020-10-21T12:02:27Z</time>
      </trkpt>
      <trkpt lat="49.85244" lon="2.48072">
        <ele>100.6</ele>
        <time>2020-10-21T12:02:29Z</time>
      </trkpt>
      <trkpt lat="49.85245" lon="2.48071">
        <ele>100.6</ele>
        <time>2020-10-21T12:02:30Z</time>
      </trkpt>
      <trkpt lat="49.85245" lon="2.48071">
        <ele>100.6</ele>
        <time>2020-10-21T12:02:32Z</time>
      </trkpt>
      <trkpt lat="49.85245" lon="2.48071">
        <ele>100.6</ele>
        <time>2020-10-21T12:02:33Z</time>
      </trkpt>
      <trkpt lat="49.85245" lon="2.48072">
        <ele>100.6</ele>
        <time>2020-10-21T12:02:34Z</time>
      </trkpt>
      <trkpt lat="49.85245" lon="2.48072">
        <ele>100.6</ele>
        <time>2020-10-21T12:02:36Z</time>
      </trkpt>
      <trkpt lat="49.85245" lon="2.48073">
        <ele>100.6</ele>
        <time>2020-10-21T12:02:37Z</time>
      </trkpt>
      <trkpt lat="49.85245" lon="2.48074">
        <ele>100.6</ele>
        <time>2020-10-21T12:02:38Z</time>
      </trkpt>
      <trkpt lat="49.85245" lon="2.48074">
        <ele>100.6</ele>
        <time>2020-10-21T12:02:39Z</time>
      </trkpt>
      <trkpt lat="49.85245" lon="2.48075">
        <ele>100.6</ele>
        <time>2020-10-21T12:02:41Z</time>
      </trkpt>
      <trkpt lat="49.85245" lon="2.48077">
        <ele>100.6</ele>
        <time>2020-10-21T12:02:42Z</time>
      </trkpt>
      <trkpt lat="49.85247" lon="2.48079">
        <ele>100.6</ele>
        <time>2020-10-21T12:02:43Z</time>
      </trkpt>
      <trkpt lat="49.85247" lon="2.4808">
        <ele>100.6</ele>
        <time>2020-10-21T12:02:44Z</time>
      </trkpt>
      <trkpt lat="49.85248" lon="2.4808">
        <ele>100.6</ele>
        <time>2020-10-21T12:02:46Z</time>
      </trkpt>
      <trkpt lat="49.85249" lon="2.48081">
        <ele>100.6</ele>
        <time>2020-10-21T12:02:47Z</time>
      </trkpt>
      <trkpt lat="49.8525" lon="2.48082">
        <ele>100.6</ele>
        <time>2020-10-21T12:02:48Z</time>
      </trkpt>
      <trkpt lat="49.8525" lon="2.48083">
        <ele>100.6</ele>
        <time>2020-10-21T12:02:49Z</time>
      </trkpt>
      <trkpt lat="49.85253" lon="2.48086">
        <ele>100.6</ele>
        <time>2020-10-21T12:02:51Z</time>
      </trkpt>
      <trkpt lat="49.85254" lon="2.48086">
        <ele>100.6</ele>
        <time>2020-10-21T12:02:52Z</time>
      </trkpt>
      <trkpt lat="49.85255" lon="2.48088">
        <ele>100.6</ele>
        <time>2020-10-21T12:02:53Z</time>
      </trkpt>
      <trkpt lat="49.85256" lon="2.48088">
        <ele>100.6</ele>
        <time>2020-10-21T12:02:54Z</time>
      </trkpt>
      <trkpt lat="49.85258" lon="2.48089">
        <ele>100.6</ele>
        <time>2020-10-21T12:02:56Z</time>
      </trkpt>
      <trkpt lat="49.85259" lon="2.48089">
        <ele>100.6</ele>
        <time>2020-10-21T12:02:57Z</time>
      </trkpt>
      <trkpt lat="49.85261" lon="2.48089">
        <ele>100.6</ele>
        <time>2020-10-21T12:02:58Z</time>
      </trkpt>
      <trkpt lat="49.85262" lon="2.48089">
        <ele>100.6</ele>
        <time>2020-10-21T12:02:59Z</time>
      </trkpt>
      <trkpt lat="49.85263" lon="2.48089">
        <ele>100.6</ele>
        <time>2020-10-21T12:03:00Z</time>
      </trkpt>
      <trkpt lat="49.85264" lon="2.48089">
        <ele>100.6</ele>
        <time>2020-10-21T12:03:01Z</time>
      </trkpt>
      <trkpt lat="49.85265" lon="2.48088">
        <ele>100.6</ele>
        <time>2020-10-21T12:03:03Z</time>
      </trkpt>
      <trkpt lat="49.85267" lon="2.48088">
        <ele>100.6</ele>
        <time>2020-10-21T12:03:04Z</time>
      </trkpt>
      <trkpt lat="49.85268" lon="2.48087">
        <ele>100.5</ele>
        <time>2020-10-21T12:03:05Z</time>
      </trkpt>
      <trkpt lat="49.8527" lon="2.48087">
        <ele>100.5</ele>
        <time>2020-10-21T12:03:06Z</time>
      </trkpt>
      <trkpt lat="49.85271" lon="2.48087">
        <ele>100.5</ele>
        <time>2020-10-21T12:03:07Z</time>
      </trkpt>
      <trkpt lat="49.85274" lon="2.48086">
        <ele>100.5</ele>
        <time>2020-10-21T12:03:09Z</time>
      </trkpt>
      <trkpt lat="49.85275" lon="2.48085">
        <ele>100.5</ele>
        <time>2020-10-21T12:03:10Z</time>
      </trkpt>
      <trkpt lat="49.85276" lon="2.48085">
        <ele>100.5</ele>
        <time>2020-10-21T12:03:11Z</time>
      </trkpt>
      <trkpt lat="49.85278" lon="2.48084">
        <ele>100.5</ele>
        <time>2020-10-21T12:03:13Z</time>
      </trkpt>
      <trkpt lat="49.8528" lon="2.48084">
        <ele>100.5</ele>
        <time>2020-10-21T12:03:14Z</time>
      </trkpt>
      <trkpt lat="49.85281" lon="2.48084">
        <ele>100.5</ele>
        <time>2020-10-21T12:03:15Z</time>
      </trkpt>
      <trkpt lat="49.85283" lon="2.48083">
        <ele>100.5</ele>
        <time>2020-10-21T12:03:16Z</time>
      </trkpt>
      <trkpt lat="49.85284" lon="2.48083">
        <ele>100.5</ele>
        <time>2020-10-21T12:03:17Z</time>
      </trkpt>
      <trkpt lat="49.85285" lon="2.48083">
        <ele>100.5</ele>
        <time>2020-10-21T12:03:18Z</time>
      </trkpt>
      <trkpt lat="49.85287" lon="2.48083">
        <ele>100.5</ele>
        <time>2020-10-21T12:03:19Z</time>
      </trkpt>
      <trkpt lat="49.85288" lon="2.48082">
        <ele>100.5</ele>
        <time>2020-10-21T12:03:21Z</time>
      </trkpt>
      <trkpt lat="49.85289" lon="2.48082">
        <ele>100.5</ele>
        <time>2020-10-21T12:03:22Z</time>
      </trkpt>
      <trkpt lat="49.85291" lon="2.48082">
        <ele>100.5</ele>
        <time>2020-10-21T12:03:23Z</time>
      </trkpt>
      <trkpt lat="49.85291" lon="2.48081">
        <ele>100.5</ele>
        <time>2020-10-21T12:03:24Z</time>
      </trkpt>
      <trkpt lat="49.85292" lon="2.4808">
        <ele>100.5</ele>
        <time>2020-10-21T12:03:25Z</time>
      </trkpt>
      <trkpt lat="49.85293" lon="2.48079">
        <ele>100.5</ele>
        <time>2020-10-21T12:03:26Z</time>
      </trkpt>
      <trkpt lat="49.85294" lon="2.48079">
        <ele>100.5</ele>
        <time>2020-10-21T12:03:28Z</time>
      </trkpt>
      <trkpt lat="49.85296" lon="2.48078">
        <ele>100.5</ele>
        <time>2020-10-21T12:03:29Z</time>
      </trkpt>
      <trkpt lat="49.85297" lon="2.48077">
        <ele>100.4</ele>
        <time>2020-10-21T12:03:30Z</time>
      </trkpt>
      <trkpt lat="49.85297" lon="2.48076">
        <ele>100.4</ele>
        <time>2020-10-21T12:03:31Z</time>
      </trkpt>
      <trkpt lat="49.85298" lon="2.48076">
        <ele>100.4</ele>
        <time>2020-10-21T12:03:32Z</time>
      </trkpt>
      <trkpt lat="49.853" lon="2.48075">
        <ele>100.4</ele>
        <time>2020-10-21T12:03:33Z</time>
      </trkpt>
      <trkpt lat="49.853" lon="2.48075">
        <ele>100.4</ele>
        <time>2020-10-21T12:03:34Z</time>
      </trkpt>
      <trkpt lat="49.85302" lon="2.48075">
        <ele>100.4</ele>
        <time>2020-10-21T12:03:36Z</time>
      </trkpt>
      <trkpt lat="49.85302" lon="2.48074">
        <ele>100.4</ele>
        <time>2020-10-21T12:03:37Z</time>
      </trkpt>
      <trkpt lat="49.85303" lon="2.48074">
        <ele>100.4</ele>
        <time>2020-10-21T12:03:38Z</time>
      </trkpt>
      <trkpt lat="49.85304" lon="2.48073">
        <ele>100.4</ele>
        <time>2020-10-21T12:03:39Z</time>
      </trkpt>
      <trkpt lat="49.85305" lon="2.48073">
        <ele>100.4</ele>
        <time>2020-10-21T12:03:40Z</time>
      </trkpt>
      <trkpt lat="49.85306" lon="2.48072">
        <ele>100.4</ele>
        <time>2020-10-21T12:03:41Z</time>
      </trkpt>
      <trkpt lat="49.85307" lon="2.48072">
        <ele>100.4</ele>
        <time>2020-10-21T12:03:42Z</time>
      </trkpt>
      <trkpt lat="49.85308" lon="2.48072">
        <ele>100.4</ele>
        <time>2020-10-21T12:03:44Z</time>
      </trkpt>
      <trkpt lat="49.85309" lon="2.48072">
        <ele>100.4</ele>
        <time>2020-10-21T12:03:45Z</time>
      </trkpt>
      <trkpt lat="49.8531" lon="2.48072">
        <ele>100.4</ele>
        <time>2020-10-21T12:03:46Z</time>
      </trkpt>
      <trkpt lat="49.85312" lon="2.48073">
        <ele>100.4</ele>
        <time>2020-10-21T12:03:47Z</time>
      </trkpt>
      <trkpt lat="49.85313" lon="2.48073">
        <ele>100.4</ele>
        <time>2020-10-21T12:03:48Z</time>
      </trkpt>
      <trkpt lat="49.85315" lon="2.48073">
        <ele>100.4</ele>
        <time>2020-10-21T12:03:49Z</time>
      </trkpt>
      <trkpt lat="49.85316" lon="2.48073">
        <ele>100.3</ele>
        <time>2020-10-21T12:03:50Z</time>
      </trkpt>
      <trkpt lat="49.85317" lon="2.48074">
        <ele>100.3</ele>
        <time>2020-10-21T12:03:51Z</time>
      </trkpt>
      <trkpt lat="49.85318" lon="2.48074">
        <ele>100.3</ele>
        <time>2020-10-21T12:03:53Z</time>
      </trkpt>
      <trkpt lat="49.8532" lon="2.48074">
        <ele>100.3</ele>
        <time>2020-10-21T12:03:54Z</time>
      </trkpt>
      <trkpt lat="49.85322" lon="2.48074">
        <ele>100.3</ele>
        <time>2020-10-21T12:03:55Z</time>
      </trkpt>
      <trkpt lat="49.85323" lon="2.48073">
        <ele>100.3</ele>
        <time>2020-10-21T12:03:56Z</time>
      </trkpt>
      <trkpt lat="49.85324" lon="2.48073">
        <ele>100.3</ele>
        <time>2020-10-21T12:03:57Z</time>
      </trkpt>
      <trkpt lat="49.85325" lon="2.48073">
        <ele>100.3</ele>
        <time>2020-10-21T12:03:58Z</time>
      </trkpt>
      <trkpt lat="49.85326" lon="2.48073">
        <ele>100.3</ele>
        <time>2020-10-21T12:03:59Z</time>
      </trkpt>
      <trkpt lat="49.85327" lon="2.48073">
        <ele>100.3</ele>
        <time>2020-10-21T12:04:00Z</time>
      </trkpt>
      <trkpt lat="49.8533" lon="2.48074">
        <ele>100.3</ele>
        <time>2020-10-21T12:04:02Z</time>
      </trkpt>
      <trkpt lat="49.85331" lon="2.48074">
        <ele>100.3</ele>
        <time>2020-10-21T12:04:03Z</time>
      </trkpt>
      <trkpt lat="49.85333" lon="2.48074">
        <ele>100.3</ele>
        <time>2020-10-21T12:04:04Z</time>
      </trkpt>
      <trkpt lat="49.85334" lon="2.48074">
        <ele>100.3</ele>
        <time>2020-10-21T12:04:05Z</time>
      </trkpt>
      <trkpt lat="49.85335" lon="2.48074">
        <ele>100.3</ele>
        <time>2020-10-21T12:04:06Z</time>
      </trkpt>
      <trkpt lat="49.85337" lon="2.48073">
        <ele>100.3</ele>
        <time>2020-10-21T12:04:07Z</time>
      </trkpt>
      <trkpt lat="49.85338" lon="2.48073">
        <ele>100.3</ele>
        <time>2020-10-21T12:04:08Z</time>
      </trkpt>
      <trkpt lat="49.85339" lon="2.48072">
        <ele>100.3</ele>
        <time>2020-10-21T12:04:09Z</time>
      </trkpt>
      <trkpt lat="49.85341" lon="2.48072">
        <ele>100.3</ele>
        <time>2020-10-21T12:04:11Z</time>
      </trkpt>
      <trkpt lat="49.85342" lon="2.48072">
        <ele>100.3</ele>
        <time>2020-10-21T12:04:12Z</time>
      </trkpt>
      <trkpt lat="49.85344" lon="2.48072">
        <ele>100.3</ele>
        <time>2020-10-21T12:04:13Z</time>
      </trkpt>
      <trkpt lat="49.85345" lon="2.48072">
        <ele>100.3</ele>
        <time>2020-10-21T12:04:14Z</time>
      </trkpt>
      <trkpt lat="49.85347" lon="2.48071">
        <ele>100.3</ele>
        <time>2020-10-21T12:04:15Z</time>
      </trkpt>
      <trkpt lat="49.85348" lon="2.48071">
        <ele>100.3</ele>
        <time>2020-10-21T12:04:16Z</time>
      </trkpt>
      <trkpt lat="49.85348" lon="2.48072">
        <ele>100.3</ele>
        <time>2020-10-21T12:04:17Z</time>
      </trkpt>
      <trkpt lat="49.85351" lon="2.48072">
        <ele>100.3</ele>
        <time>2020-10-21T12:04:19Z</time>
      </trkpt>
      <trkpt lat="49.85351" lon="2.48072">
        <ele>100.3</ele>
        <time>2020-10-21T12:04:20Z</time>
      </trkpt>
      <trkpt lat="49.85352" lon="2.48073">
        <ele>100.3</ele>
        <time>2020-10-21T12:04:21Z</time>
      </trkpt>
      <trkpt lat="49.85354" lon="2.48075">
        <ele>100.3</ele>
        <time>2020-10-21T12:04:22Z</time>
      </trkpt>
      <trkpt lat="49.85355" lon="2.48076">
        <ele>100.3</ele>
        <time>2020-10-21T12:04:23Z</time>
      </trkpt>
      <trkpt lat="49.85356" lon="2.48076">
        <ele>100.3</ele>
        <time>2020-10-21T12:04:24Z</time>
      </trkpt>
      <trkpt lat="49.85357" lon="2.48076">
        <ele>100.3</ele>
        <time>2020-10-21T12:04:25Z</time>
      </trkpt>
      <trkpt lat="49.85358" lon="2.48076">
        <ele>100.3</ele>
        <time>2020-10-21T12:04:27Z</time>
      </trkpt>
      <trkpt lat="49.85359" lon="2.48079">
        <ele>100.3</ele>
        <time>2020-10-21T12:04:28Z</time>
      </trkpt>
      <trkpt lat="49.8536" lon="2.48079">
        <ele>100.3</ele>
        <time>2020-10-21T12:04:29Z</time>
      </trkpt>
      <trkpt lat="49.85361" lon="2.4808">
        <ele>100.3</ele>
        <time>2020-10-21T12:04:30Z</time>
      </trkpt>
      <trkpt lat="49.85362" lon="2.48081">
        <ele>100.3</ele>
        <time>2020-10-21T12:04:31Z</time>
      </trkpt>
      <trkpt lat="49.85363" lon="2.48084">
        <ele>100.3</ele>
        <time>2020-10-21T12:04:32Z</time>
      </trkpt>
      <trkpt lat="49.85364" lon="2.48085">
        <ele>100.3</ele>
        <time>2020-10-21T12:04:33Z</time>
      </trkpt>
      <trkpt lat="49.85365" lon="2.48086">
        <ele>100.4</ele>
        <time>2020-10-21T12:04:34Z</time>
      </trkpt>
      <trkpt lat="49.85366" lon="2.48086">
        <ele>100.4</ele>
        <time>2020-10-21T12:04:36Z</time>
      </trkpt>
      <trkpt lat="49.85367" lon="2.48086">
        <ele>100.4</ele>
        <time>2020-10-21T12:04:37Z</time>
      </trkpt>
      <trkpt lat="49.85368" lon="2.48087">
        <ele>100.4</ele>
        <time>2020-10-21T12:04:38Z</time>
      </trkpt>
      <trkpt lat="49.85369" lon="2.48087">
        <ele>100.4</ele>
        <time>2020-10-21T12:04:39Z</time>
      </trkpt>
      <trkpt lat="49.85371" lon="2.48087">
        <ele>100.4</ele>
        <time>2020-10-21T12:04:40Z</time>
      </trkpt>
      <trkpt lat="49.85372" lon="2.48087">
        <ele>100.4</ele>
        <time>2020-10-21T12:04:41Z</time>
      </trkpt>
      <trkpt lat="49.85373" lon="2.48086">
        <ele>100.4</ele>
        <time>2020-10-21T12:04:42Z</time>
      </trkpt>
      <trkpt lat="49.85374" lon="2.48086">
        <ele>100.4</ele>
        <time>2020-10-21T12:04:43Z</time>
      </trkpt>
      <trkpt lat="49.85375" lon="2.48087">
        <ele>100.4</ele>
        <time>2020-10-21T12:04:45Z</time>
      </trkpt>
      <trkpt lat="49.85376" lon="2.48087">
        <ele>100.4</ele>
        <time>2020-10-21T12:04:46Z</time>
      </trkpt>
      <trkpt lat="49.85379" lon="2.48082">
        <ele>100.5</ele>
        <time>2020-10-21T12:04:47Z</time>
      </trkpt>
      <trkpt lat="49.8538" lon="2.48082">
        <ele>100.5</ele>
        <time>2020-10-21T12:04:48Z</time>
      </trkpt>
      <trkpt lat="49.85381" lon="2.48082">
        <ele>100.5</ele>
        <time>2020-10-21T12:04:49Z</time>
      </trkpt>
      <trkpt lat="49.85382" lon="2.48083">
        <ele>100.5</ele>
        <time>2020-10-21T12:04:50Z</time>
      </trkpt>
      <trkpt lat="49.85383" lon="2.48084">
        <ele>100.5</ele>
        <time>2020-10-21T12:04:51Z</time>
      </trkpt>
      <trkpt lat="49.85384" lon="2.48089">
        <ele>100.5</ele>
        <time>2020-10-21T12:04:53Z</time>
      </trkpt>
      <trkpt lat="49.85385" lon="2.4809">
        <ele>100.5</ele>
        <time>2020-10-21T12:04:54Z</time>
      </trkpt>
      <trkpt lat="49.85386" lon="2.48092">
        <ele>100.5</ele>
        <time>2020-10-21T12:04:55Z</time>
      </trkpt>
      <trkpt lat="49.85387" lon="2.48093">
        <ele>100.5</ele>
        <time>2020-10-21T12:04:56Z</time>
      </trkpt>
      <trkpt lat="49.85388" lon="2.48091">
        <ele>100.6</ele>
        <time>2020-10-21T12:04:58Z</time>
      </trkpt>
      <trkpt lat="49.8539" lon="2.48092">
        <ele>100.6</ele>
        <time>2020-10-21T12:04:59Z</time>
      </trkpt>
      <trkpt lat="49.85391" lon="2.48093">
        <ele>100.6</ele>
        <time>2020-10-21T12:05:00Z</time>
      </trkpt>
      <trkpt lat="49.85392" lon="2.48094">
        <ele>100.6</ele>
        <time>2020-10-21T12:05:02Z</time>
      </trkpt>
      <trkpt lat="49.85393" lon="2.48095">
        <ele>100.6</ele>
        <time>2020-10-21T12:05:03Z</time>
      </trkpt>
      <trkpt lat="49.85392" lon="2.48099">
        <ele>100.6</ele>
        <time>2020-10-21T12:05:04Z</time>
      </trkpt>
      <trkpt lat="49.85393" lon="2.481">
        <ele>100.6</ele>
        <time>2020-10-21T12:05:05Z</time>
      </trkpt>
      <trkpt lat="49.85393" lon="2.48102">
        <ele>100.6</ele>
        <time>2020-10-21T12:05:06Z</time>
      </trkpt>
      <trkpt lat="49.85394" lon="2.48103">
        <ele>100.6</ele>
        <time>2020-10-21T12:05:07Z</time>
      </trkpt>
      <trkpt lat="49.85395" lon="2.48105">
        <ele>100.6</ele>
        <time>2020-10-21T12:05:09Z</time>
      </trkpt>
      <trkpt lat="49.85396" lon="2.48107">
        <ele>100.6</ele>
        <time>2020-10-21T12:05:10Z</time>
      </trkpt>
      <trkpt lat="49.85396" lon="2.48109">
        <ele>100.7</ele>
        <time>2020-10-21T12:05:12Z</time>
      </trkpt>
      <trkpt lat="49.85397" lon="2.4811">
        <ele>100.7</ele>
        <time>2020-10-21T12:05:13Z</time>
      </trkpt>
      <trkpt lat="49.85398" lon="2.48109">
        <ele>100.7</ele>
        <time>2020-10-21T12:05:14Z</time>
      </trkpt>
      <trkpt lat="49.85399" lon="2.4811">
        <ele>100.7</ele>
        <time>2020-10-21T12:05:15Z</time>
      </trkpt>
      <trkpt lat="49.854" lon="2.48111">
        <ele>100.7</ele>
        <time>2020-10-21T12:05:16Z</time>
      </trkpt>
      <trkpt lat="49.85401" lon="2.48111">
        <ele>100.7</ele>
        <time>2020-10-21T12:05:17Z</time>
      </trkpt>
      <trkpt lat="49.85402" lon="2.48111">
        <ele>100.7</ele>
        <time>2020-10-21T12:05:19Z</time>
      </trkpt>
      <trkpt lat="49.85402" lon="2.48112">
        <ele>100.6</ele>
        <time>2020-10-21T12:05:20Z</time>
      </trkpt>
      <trkpt lat="49.85403" lon="2.48114">
        <ele>100.6</ele>
        <time>2020-10-21T12:05:21Z</time>
      </trkpt>
      <trkpt lat="49.85404" lon="2.48115">
        <ele>100.6</ele>
        <time>2020-10-21T12:05:22Z</time>
      </trkpt>
      <trkpt lat="49.85406" lon="2.48118">
        <ele>100.5</ele>
        <time>2020-10-21T12:05:23Z</time>
      </trkpt>
      <trkpt lat="49.85406" lon="2.48119">
        <ele>100.5</ele>
        <time>2020-10-21T12:05:24Z</time>
      </trkpt>
      <trkpt lat="49.85407" lon="2.48121">
        <ele>100.5</ele>
        <time>2020-10-21T12:05:25Z</time>
      </trkpt>
      <trkpt lat="49.85408" lon="2.48123">
        <ele>100.5</ele>
        <time>2020-10-21T12:05:27Z</time>
      </trkpt>
      <trkpt lat="49.8541" lon="2.48125">
        <ele>100.5</ele>
        <time>2020-10-21T12:05:28Z</time>
      </trkpt>
      <trkpt lat="49.85411" lon="2.48128">
        <ele>100.4</ele>
        <time>2020-10-21T12:05:29Z</time>
      </trkpt>
      <trkpt lat="49.85411" lon="2.48129">
        <ele>100.4</ele>
        <time>2020-10-21T12:05:30Z</time>
      </trkpt>
      <trkpt lat="49.85412" lon="2.4813">
        <ele>100.4</ele>
        <time>2020-10-21T12:05:31Z</time>
      </trkpt>
      <trkpt lat="49.85413" lon="2.48132">
        <ele>100.4</ele>
        <time>2020-10-21T12:05:32Z</time>
      </trkpt>
      <trkpt lat="49.85414" lon="2.48134">
        <ele>100.4</ele>
        <time>2020-10-21T12:05:33Z</time>
      </trkpt>
      <trkpt lat="49.85414" lon="2.48136">
        <ele>100.4</ele>
        <time>2020-10-21T12:05:34Z</time>
      </trkpt>
      <trkpt lat="49.85415" lon="2.48138">
        <ele>100.3</ele>
        <time>2020-10-21T12:05:35Z</time>
      </trkpt>
      <trkpt lat="49.85415" lon="2.4814">
        <ele>100.3</ele>
        <time>2020-10-21T12:05:37Z</time>
      </trkpt>
      <trkpt lat="49.85417" lon="2.48144">
        <ele>100.3</ele>
        <time>2020-10-21T12:05:38Z</time>
      </trkpt>
      <trkpt lat="49.85417" lon="2.48145">
        <ele>100.3</ele>
        <time>2020-10-21T12:05:39Z</time>
      </trkpt>
      <trkpt lat="49.85417" lon="2.48147">
        <ele>100.3</ele>
        <time>2020-10-21T12:05:40Z</time>
      </trkpt>
      <trkpt lat="49.85417" lon="2.48149">
        <ele>100.2</ele>
        <time>2020-10-21T12:05:41Z</time>
      </trkpt>
      <trkpt lat="49.8542" lon="2.48152">
        <ele>100.2</ele>
        <time>2020-10-21T12:05:42Z</time>
      </trkpt>
      <trkpt lat="49.8542" lon="2.48154">
        <ele>100.2</ele>
        <time>2020-10-21T12:05:43Z</time>
      </trkpt>
      <trkpt lat="49.8542" lon="2.48156">
        <ele>100.2</ele>
        <time>2020-10-21T12:05:44Z</time>
      </trkpt>
      <trkpt lat="49.85419" lon="2.4816">
        <ele>100.1</ele>
        <time>2020-10-21T12:05:46Z</time>
      </trkpt>
      <trkpt lat="49.85419" lon="2.48161">
        <ele>100.1</ele>
        <time>2020-10-21T12:05:47Z</time>
      </trkpt>
      <trkpt lat="49.85419" lon="2.48163">
        <ele>100.1</ele>
        <time>2020-10-21T12:05:48Z</time>
      </trkpt>
      <trkpt lat="49.85419" lon="2.48164">
        <ele>100.1</ele>
        <time>2020-10-21T12:05:49Z</time>
      </trkpt>
      <trkpt lat="49.85419" lon="2.48166">
        <ele>100.1</ele>
        <time>2020-10-21T12:05:51Z</time>
      </trkpt>
      <trkpt lat="49.8542" lon="2.48168">
        <ele>100</ele>
        <time>2020-10-21T12:05:52Z</time>
      </trkpt>
      <trkpt lat="49.8542" lon="2.48171">
        <ele>100</ele>
        <time>2020-10-21T12:05:53Z</time>
      </trkpt>
      <trkpt lat="49.85421" lon="2.48173">
        <ele>100</ele>
        <time>2020-10-21T12:05:54Z</time>
      </trkpt>
      <trkpt lat="49.85421" lon="2.48174">
        <ele>100</ele>
        <time>2020-10-21T12:05:55Z</time>
      </trkpt>
      <trkpt lat="49.85422" lon="2.48176">
        <ele>100</ele>
        <time>2020-10-21T12:05:56Z</time>
      </trkpt>
      <trkpt lat="49.85422" lon="2.48178">
        <ele>99.9</ele>
        <time>2020-10-21T12:05:57Z</time>
      </trkpt>
      <trkpt lat="49.85422" lon="2.48181">
        <ele>99.9</ele>
        <time>2020-10-21T12:05:58Z</time>
      </trkpt>
      <trkpt lat="49.85423" lon="2.48183">
        <ele>99.9</ele>
        <time>2020-10-21T12:06:00Z</time>
      </trkpt>
      <trkpt lat="49.85423" lon="2.48184">
        <ele>99.9</ele>
        <time>2020-10-21T12:06:01Z</time>
      </trkpt>
      <trkpt lat="49.85423" lon="2.48186">
        <ele>99.9</ele>
        <time>2020-10-21T12:06:02Z</time>
      </trkpt>
      <trkpt lat="49.85423" lon="2.48188">
        <ele>99.8</ele>
        <time>2020-10-21T12:06:03Z</time>
      </trkpt>
      <trkpt lat="49.85425" lon="2.48188">
        <ele>99.8</ele>
        <time>2020-10-21T12:06:04Z</time>
      </trkpt>
      <trkpt lat="49.85426" lon="2.4819">
        <ele>99.8</ele>
        <time>2020-10-21T12:06:05Z</time>
      </trkpt>
      <trkpt lat="49.85426" lon="2.48193">
        <ele>99.8</ele>
        <time>2020-10-21T12:06:06Z</time>
      </trkpt>
      <trkpt lat="49.85426" lon="2.48195">
        <ele>99.7</ele>
        <time>2020-10-21T12:06:07Z</time>
      </trkpt>
      <trkpt lat="49.85426" lon="2.48197">
        <ele>99.7</ele>
        <time>2020-10-21T12:06:08Z</time>
      </trkpt>
      <trkpt lat="49.85425" lon="2.48199">
        <ele>99.7</ele>
        <time>2020-10-21T12:06:10Z</time>
      </trkpt>
      <trkpt lat="49.85425" lon="2.48201">
        <ele>99.7</ele>
        <time>2020-10-21T12:06:11Z</time>
      </trkpt>
      <trkpt lat="49.85425" lon="2.48202">
        <ele>99.7</ele>
        <time>2020-10-21T12:06:12Z</time>
      </trkpt>
      <trkpt lat="49.85425" lon="2.48204">
        <ele>99.6</ele>
        <time>2020-10-21T12:06:13Z</time>
      </trkpt>
      <trkpt lat="49.85427" lon="2.48206">
        <ele>99.6</ele>
        <time>2020-10-21T12:06:14Z</time>
      </trkpt>
      <trkpt lat="49.85427" lon="2.48207">
        <ele>99.6</ele>
        <time>2020-10-21T12:06:15Z</time>
      </trkpt>
      <trkpt lat="49.85428" lon="2.48209">
        <ele>99.6</ele>
        <time>2020-10-21T12:06:17Z</time>
      </trkpt>
      <trkpt lat="49.85429" lon="2.4821">
        <ele>99.6</ele>
        <time>2020-10-21T12:06:18Z</time>
      </trkpt>
      <trkpt lat="49.85429" lon="2.48211">
        <ele>99.5</ele>
        <time>2020-10-21T12:06:19Z</time>
      </trkpt>
      <trkpt lat="49.8543" lon="2.48212">
        <ele>99.5</ele>
        <time>2020-10-21T12:06:20Z</time>
      </trkpt>
      <trkpt lat="49.85431" lon="2.48214">
        <ele>99.5</ele>
        <time>2020-10-21T12:06:21Z</time>
      </trkpt>
      <trkpt lat="49.85431" lon="2.48216">
        <ele>99.5</ele>
        <time>2020-10-21T12:06:23Z</time>
      </trkpt>
      <trkpt lat="49.85432" lon="2.48218">
        <ele>99.4</ele>
        <time>2020-10-21T12:06:24Z</time>
      </trkpt>
      <trkpt lat="49.85434" lon="2.48218">
        <ele>99.4</ele>
        <time>2020-10-21T12:06:25Z</time>
      </trkpt>
      <trkpt lat="49.85435" lon="2.4822">
        <ele>99.4</ele>
        <time>2020-10-21T12:06:26Z</time>
      </trkpt>
      <trkpt lat="49.85435" lon="2.48222">
        <ele>99.4</ele>
        <time>2020-10-21T12:06:27Z</time>
      </trkpt>
      <trkpt lat="49.85435" lon="2.48224">
        <ele>99.3</ele>
        <time>2020-10-21T12:06:28Z</time>
      </trkpt>
      <trkpt lat="49.85435" lon="2.48227">
        <ele>99.3</ele>
        <time>2020-10-21T12:06:29Z</time>
      </trkpt>
      <trkpt lat="49.85435" lon="2.48229">
        <ele>99.3</ele>
        <time>2020-10-21T12:06:30Z</time>
      </trkpt>
      <trkpt lat="49.85436" lon="2.48231">
        <ele>99.3</ele>
        <time>2020-10-21T12:06:31Z</time>
      </trkpt>
      <trkpt lat="49.85436" lon="2.48232">
        <ele>99.2</ele>
        <time>2020-10-21T12:06:32Z</time>
      </trkpt>
      <trkpt lat="49.85436" lon="2.48234">
        <ele>99.2</ele>
        <time>2020-10-21T12:06:34Z</time>
      </trkpt>
      <trkpt lat="49.85437" lon="2.48237">
        <ele>99.2</ele>
        <time>2020-10-21T12:06:35Z</time>
      </trkpt>
      <trkpt lat="49.85438" lon="2.48239">
        <ele>99.2</ele>
        <time>2020-10-21T12:06:36Z</time>
      </trkpt>
      <trkpt lat="49.85438" lon="2.48241">
        <ele>99.2</ele>
        <time>2020-10-21T12:06:37Z</time>
      </trkpt>
      <trkpt lat="49.85438" lon="2.48243">
        <ele>99.1</ele>
        <time>2020-10-21T12:06:38Z</time>
      </trkpt>
      <trkpt lat="49.85438" lon="2.48247">
        <ele>99.1</ele>
        <time>2020-10-21T12:06:39Z</time>
      </trkpt>
      <trkpt lat="49.85439" lon="2.4825">
        <ele>99.1</ele>
        <time>2020-10-21T12:06:40Z</time>
      </trkpt>
      <trkpt lat="49.85439" lon="2.48251">
        <ele>99.1</ele>
        <time>2020-10-21T12:06:42Z</time>
      </trkpt>
      <trkpt lat="49.8544" lon="2.48252">
        <ele>99.1</ele>
        <time>2020-10-21T12:06:43Z</time>
      </trkpt>
      <trkpt lat="49.8544" lon="2.48254">
        <ele>99</ele>
        <time>2020-10-21T12:06:44Z</time>
      </trkpt>
      <trkpt lat="49.85442" lon="2.48255">
        <ele>99</ele>
        <time>2020-10-21T12:06:45Z</time>
      </trkpt>
      <trkpt lat="49.85443" lon="2.48256">
        <ele>99</ele>
        <time>2020-10-21T12:06:46Z</time>
      </trkpt>
      <trkpt lat="49.85444" lon="2.48257">
        <ele>99</ele>
        <time>2020-10-21T12:06:47Z</time>
      </trkpt>
      <trkpt lat="49.85445" lon="2.48258">
        <ele>99</ele>
        <time>2020-10-21T12:06:48Z</time>
      </trkpt>
      <trkpt lat="49.85445" lon="2.4826">
        <ele>98.9</ele>
        <time>2020-10-21T12:06:49Z</time>
      </trkpt>
      <trkpt lat="49.85446" lon="2.48263">
        <ele>98.9</ele>
        <time>2020-10-21T12:06:51Z</time>
      </trkpt>
      <trkpt lat="49.85447" lon="2.48265">
        <ele>98.9</ele>
        <time>2020-10-21T12:06:52Z</time>
      </trkpt>
      <trkpt lat="49.85448" lon="2.48267">
        <ele>98.9</ele>
        <time>2020-10-21T12:06:53Z</time>
      </trkpt>
      <trkpt lat="49.85448" lon="2.4827">
        <ele>98.8</ele>
        <time>2020-10-21T12:06:55Z</time>
      </trkpt>
      <trkpt lat="49.85449" lon="2.48272">
        <ele>98.8</ele>
        <time>2020-10-21T12:06:56Z</time>
      </trkpt>
      <trkpt lat="49.85449" lon="2.48274">
        <ele>98.8</ele>
        <time>2020-10-21T12:06:57Z</time>
      </trkpt>
      <trkpt lat="49.8545" lon="2.48276">
        <ele>98.7</ele>
        <time>2020-10-21T12:06:58Z</time>
      </trkpt>
      <trkpt lat="49.85451" lon="2.48278">
        <ele>98.7</ele>
        <time>2020-10-21T12:07:00Z</time>
      </trkpt>
      <trkpt lat="49.85451" lon="2.4828">
        <ele>98.7</ele>
        <time>2020-10-21T12:07:01Z</time>
      </trkpt>
      <trkpt lat="49.85452" lon="2.48282">
        <ele>98.6</ele>
        <time>2020-10-21T12:07:02Z</time>
      </trkpt>
      <trkpt lat="49.85452" lon="2.48283">
        <ele>98.6</ele>
        <time>2020-10-21T12:07:03Z</time>
      </trkpt>
      <trkpt lat="49.85453" lon="2.48285">
        <ele>98.6</ele>
        <time>2020-10-21T12:07:04Z</time>
      </trkpt>
      <trkpt lat="49.85453" lon="2.48285">
        <ele>98.6</ele>
        <time>2020-10-21T12:07:05Z</time>
      </trkpt>
      <trkpt lat="49.85454" lon="2.48286">
        <ele>98.6</ele>
        <time>2020-10-21T12:07:06Z</time>
      </trkpt>
      <trkpt lat="49.85454" lon="2.48288">
        <ele>98.6</ele>
        <time>2020-10-21T12:07:07Z</time>
      </trkpt>
      <trkpt lat="49.85455" lon="2.48289">
        <ele>98.6</ele>
        <time>2020-10-21T12:07:09Z</time>
      </trkpt>
      <trkpt lat="49.85455" lon="2.48291">
        <ele>98.6</ele>
        <time>2020-10-21T12:07:10Z</time>
      </trkpt>
      <trkpt lat="49.85456" lon="2.48293">
        <ele>98.6</ele>
        <time>2020-10-21T12:07:11Z</time>
      </trkpt>
      <trkpt lat="49.85456" lon="2.48295">
        <ele>98.6</ele>
        <time>2020-10-21T12:07:12Z</time>
      </trkpt>
      <trkpt lat="49.85457" lon="2.48297">
        <ele>98.6</ele>
        <time>2020-10-21T12:07:13Z</time>
      </trkpt>
      <trkpt lat="49.85458" lon="2.483">
        <ele>98.6</ele>
        <time>2020-10-21T12:07:15Z</time>
      </trkpt>
      <trkpt lat="49.85459" lon="2.48302">
        <ele>98.5</ele>
        <time>2020-10-21T12:07:16Z</time>
      </trkpt>
      <trkpt lat="49.85459" lon="2.48303">
        <ele>98.5</ele>
        <time>2020-10-21T12:07:17Z</time>
      </trkpt>
      <trkpt lat="49.8546" lon="2.48306">
        <ele>98.5</ele>
        <time>2020-10-21T12:07:18Z</time>
      </trkpt>
      <trkpt lat="49.85462" lon="2.48307">
        <ele>98.5</ele>
        <time>2020-10-21T12:07:19Z</time>
      </trkpt>
      <trkpt lat="49.85462" lon="2.4831">
        <ele>98.5</ele>
        <time>2020-10-21T12:07:20Z</time>
      </trkpt>
      <trkpt lat="49.85462" lon="2.48312">
        <ele>98.5</ele>
        <time>2020-10-21T12:07:22Z</time>
      </trkpt>
      <trkpt lat="49.85463" lon="2.48313">
        <ele>98.5</ele>
        <time>2020-10-21T12:07:23Z</time>
      </trkpt>
      <trkpt lat="49.85463" lon="2.48315">
        <ele>98.5</ele>
        <time>2020-10-21T12:07:24Z</time>
      </trkpt>
      <trkpt lat="49.85464" lon="2.48317">
        <ele>98.5</ele>
        <time>2020-10-21T12:07:25Z</time>
      </trkpt>
      <trkpt lat="49.85464" lon="2.48319">
        <ele>98.4</ele>
        <time>2020-10-21T12:07:26Z</time>
      </trkpt>
      <trkpt lat="49.85465" lon="2.48322">
        <ele>98.4</ele>
        <time>2020-10-21T12:07:27Z</time>
      </trkpt>
      <trkpt lat="49.85465" lon="2.48324">
        <ele>98.4</ele>
        <time>2020-10-21T12:07:28Z</time>
      </trkpt>
      <trkpt lat="49.85466" lon="2.48325">
        <ele>98.4</ele>
        <time>2020-10-21T12:07:30Z</time>
      </trkpt>
      <trkpt lat="49.85467" lon="2.48326">
        <ele>98.4</ele>
        <time>2020-10-21T12:07:31Z</time>
      </trkpt>
      <trkpt lat="49.85467" lon="2.4833">
        <ele>98.4</ele>
        <time>2020-10-21T12:07:32Z</time>
      </trkpt>
      <trkpt lat="49.85468" lon="2.48331">
        <ele>98.4</ele>
        <time>2020-10-21T12:07:33Z</time>
      </trkpt>
      <trkpt lat="49.85468" lon="2.48332">
        <ele>98.3</ele>
        <time>2020-10-21T12:07:34Z</time>
      </trkpt>
      <trkpt lat="49.85468" lon="2.48333">
        <ele>98.3</ele>
        <time>2020-10-21T12:07:35Z</time>
      </trkpt>
      <trkpt lat="49.85468" lon="2.48335">
        <ele>98.3</ele>
        <time>2020-10-21T12:07:36Z</time>
      </trkpt>
      <trkpt lat="49.85469" lon="2.48337">
        <ele>98.3</ele>
        <time>2020-10-21T12:07:37Z</time>
      </trkpt>
      <trkpt lat="49.85469" lon="2.48339">
        <ele>98.3</ele>
        <time>2020-10-21T12:07:38Z</time>
      </trkpt>
      <trkpt lat="49.85469" lon="2.4834">
        <ele>98.3</ele>
        <time>2020-10-21T12:07:39Z</time>
      </trkpt>
      <trkpt lat="49.8547" lon="2.48341">
        <ele>98.3</ele>
        <time>2020-10-21T12:07:40Z</time>
      </trkpt>
      <trkpt lat="49.8547" lon="2.48345">
        <ele>98.3</ele>
        <time>2020-10-21T12:07:42Z</time>
      </trkpt>
      <trkpt lat="49.8547" lon="2.48346">
        <ele>98.3</ele>
        <time>2020-10-21T12:07:43Z</time>
      </trkpt>
      <trkpt lat="49.85471" lon="2.48347">
        <ele>98.2</ele>
        <time>2020-10-21T12:07:44Z</time>
      </trkpt>
      <trkpt lat="49.85471" lon="2.48349">
        <ele>98.2</ele>
        <time>2020-10-21T12:07:45Z</time>
      </trkpt>
      <trkpt lat="49.85471" lon="2.48352">
        <ele>98.2</ele>
        <time>2020-10-21T12:07:46Z</time>
      </trkpt>
      <trkpt lat="49.85471" lon="2.48354">
        <ele>98.2</ele>
        <time>2020-10-21T12:07:47Z</time>
      </trkpt>
      <trkpt lat="49.85472" lon="2.48356">
        <ele>98.2</ele>
        <time>2020-10-21T12:07:48Z</time>
      </trkpt>
      <trkpt lat="49.85472" lon="2.48358">
        <ele>98.2</ele>
        <time>2020-10-21T12:07:49Z</time>
      </trkpt>
      <trkpt lat="49.85472" lon="2.48357">
        <ele>98.2</ele>
        <time>2020-10-21T12:07:50Z</time>
      </trkpt>
      <trkpt lat="49.85472" lon="2.48359">
        <ele>98.2</ele>
        <time>2020-10-21T12:07:51Z</time>
      </trkpt>
      <trkpt lat="49.85472" lon="2.48361">
        <ele>98.2</ele>
        <time>2020-10-21T12:07:53Z</time>
      </trkpt>
      <trkpt lat="49.85472" lon="2.48363">
        <ele>98.2</ele>
        <time>2020-10-21T12:07:54Z</time>
      </trkpt>
      <trkpt lat="49.85472" lon="2.48365">
        <ele>98.2</ele>
        <time>2020-10-21T12:07:55Z</time>
      </trkpt>
      <trkpt lat="49.85473" lon="2.48367">
        <ele>98.2</ele>
        <time>2020-10-21T12:07:56Z</time>
      </trkpt>
      <trkpt lat="49.85473" lon="2.48368">
        <ele>98.2</ele>
        <time>2020-10-21T12:07:58Z</time>
      </trkpt>
      <trkpt lat="49.85473" lon="2.4837">
        <ele>98.2</ele>
        <time>2020-10-21T12:07:59Z</time>
      </trkpt>
      <trkpt lat="49.85475" lon="2.48369">
        <ele>98.2</ele>
        <time>2020-10-21T12:08:00Z</time>
      </trkpt>
      <trkpt lat="49.85475" lon="2.48371">
        <ele>98.2</ele>
        <time>2020-10-21T12:08:01Z</time>
      </trkpt>
      <trkpt lat="49.85475" lon="2.48373">
        <ele>98.2</ele>
        <time>2020-10-21T12:08:02Z</time>
      </trkpt>
      <trkpt lat="49.85475" lon="2.48376">
        <ele>98.2</ele>
        <time>2020-10-21T12:08:04Z</time>
      </trkpt>
      <trkpt lat="49.85476" lon="2.48378">
        <ele>98.2</ele>
        <time>2020-10-21T12:08:05Z</time>
      </trkpt>
      <trkpt lat="49.85476" lon="2.48381">
        <ele>98.2</ele>
        <time>2020-10-21T12:08:06Z</time>
      </trkpt>
      <trkpt lat="49.85476" lon="2.48382">
        <ele>98.2</ele>
        <time>2020-10-21T12:08:07Z</time>
      </trkpt>
      <trkpt lat="49.85477" lon="2.48383">
        <ele>98.2</ele>
        <time>2020-10-21T12:08:08Z</time>
      </trkpt>
      <trkpt lat="49.85477" lon="2.48385">
        <ele>98.2</ele>
        <time>2020-10-21T12:08:09Z</time>
      </trkpt>
      <trkpt lat="49.85477" lon="2.48387">
        <ele>98.2</ele>
        <time>2020-10-21T12:08:10Z</time>
      </trkpt>
      <trkpt lat="49.85478" lon="2.48389">
        <ele>98.2</ele>
        <time>2020-10-21T12:08:12Z</time>
      </trkpt>
      <trkpt lat="49.85478" lon="2.48391">
        <ele>98.2</ele>
        <time>2020-10-21T12:08:13Z</time>
      </trkpt>
      <trkpt lat="49.85478" lon="2.48393">
        <ele>98.2</ele>
        <time>2020-10-21T12:08:14Z</time>
      </trkpt>
      <trkpt lat="49.85479" lon="2.48398">
        <ele>98.2</ele>
        <time>2020-10-21T12:08:15Z</time>
      </trkpt>
      <trkpt lat="49.85479" lon="2.48399">
        <ele>98.2</ele>
        <time>2020-10-21T12:08:17Z</time>
      </trkpt>
      <trkpt lat="49.8548" lon="2.48401">
        <ele>98.2</ele>
        <time>2020-10-21T12:08:18Z</time>
      </trkpt>
      <trkpt lat="49.8548" lon="2.48402">
        <ele>98.2</ele>
        <time>2020-10-21T12:08:19Z</time>
      </trkpt>
      <trkpt lat="49.8548" lon="2.48404">
        <ele>98.2</ele>
        <time>2020-10-21T12:08:20Z</time>
      </trkpt>
      <trkpt lat="49.8548" lon="2.48407">
        <ele>98.2</ele>
        <time>2020-10-21T12:08:22Z</time>
      </trkpt>
      <trkpt lat="49.8548" lon="2.48408">
        <ele>98.2</ele>
        <time>2020-10-21T12:08:23Z</time>
      </trkpt>
      <trkpt lat="49.8548" lon="2.4841">
        <ele>98.2</ele>
        <time>2020-10-21T12:08:24Z</time>
      </trkpt>
      <trkpt lat="49.85479" lon="2.48412">
        <ele>98.2</ele>
        <time>2020-10-21T12:08:25Z</time>
      </trkpt>
      <trkpt lat="49.85479" lon="2.48413">
        <ele>98.2</ele>
        <time>2020-10-21T12:08:26Z</time>
      </trkpt>
      <trkpt lat="49.85478" lon="2.48415">
        <ele>98.2</ele>
        <time>2020-10-21T12:08:27Z</time>
      </trkpt>
      <trkpt lat="49.85478" lon="2.48416">
        <ele>98.2</ele>
        <time>2020-10-21T12:08:28Z</time>
      </trkpt>
      <trkpt lat="49.85477" lon="2.48418">
        <ele>98.2</ele>
        <time>2020-10-21T12:08:29Z</time>
      </trkpt>
      <trkpt lat="49.85476" lon="2.48419">
        <ele>98.2</ele>
        <time>2020-10-21T12:08:30Z</time>
      </trkpt>
      <trkpt lat="49.85475" lon="2.48421">
        <ele>98.2</ele>
        <time>2020-10-21T12:08:31Z</time>
      </trkpt>
      <trkpt lat="49.85475" lon="2.48422">
        <ele>98.2</ele>
        <time>2020-10-21T12:08:32Z</time>
      </trkpt>
      <trkpt lat="49.85474" lon="2.48425">
        <ele>98.2</ele>
        <time>2020-10-21T12:08:34Z</time>
      </trkpt>
      <trkpt lat="49.85474" lon="2.48426">
        <ele>98.2</ele>
        <time>2020-10-21T12:08:35Z</time>
      </trkpt>
      <trkpt lat="49.85473" lon="2.48428">
        <ele>98.2</ele>
        <time>2020-10-21T12:08:36Z</time>
      </trkpt>
      <trkpt lat="49.85473" lon="2.48429">
        <ele>98.2</ele>
        <time>2020-10-21T12:08:37Z</time>
      </trkpt>
      <trkpt lat="49.85472" lon="2.48431">
        <ele>98.2</ele>
        <time>2020-10-21T12:08:38Z</time>
      </trkpt>
      <trkpt lat="49.85472" lon="2.48433">
        <ele>98.2</ele>
        <time>2020-10-21T12:08:39Z</time>
      </trkpt>
      <trkpt lat="49.85471" lon="2.48434">
        <ele>98.2</ele>
        <time>2020-10-21T12:08:41Z</time>
      </trkpt>
      <trkpt lat="49.85471" lon="2.48435">
        <ele>98.2</ele>
        <time>2020-10-21T12:08:42Z</time>
      </trkpt>
      <trkpt lat="49.85471" lon="2.48436">
        <ele>98.2</ele>
        <time>2020-10-21T12:08:43Z</time>
      </trkpt>
      <trkpt lat="49.8547" lon="2.48437">
        <ele>98.2</ele>
        <time>2020-10-21T12:08:44Z</time>
      </trkpt>
      <trkpt lat="49.8547" lon="2.48438">
        <ele>98.2</ele>
        <time>2020-10-21T12:08:45Z</time>
      </trkpt>
      <trkpt lat="49.85469" lon="2.48441">
        <ele>98.2</ele>
        <time>2020-10-21T12:08:46Z</time>
      </trkpt>
      <trkpt lat="49.85469" lon="2.48442">
        <ele>98.2</ele>
        <time>2020-10-21T12:08:47Z</time>
      </trkpt>
      <trkpt lat="49.85469" lon="2.48443">
        <ele>98.2</ele>
        <time>2020-10-21T12:08:48Z</time>
      </trkpt>
      <trkpt lat="49.85468" lon="2.48447">
        <ele>98.2</ele>
        <time>2020-10-21T12:08:50Z</time>
      </trkpt>
      <trkpt lat="49.85468" lon="2.48448">
        <ele>98.2</ele>
        <time>2020-10-21T12:08:51Z</time>
      </trkpt>
      <trkpt lat="49.85468" lon="2.48449">
        <ele>98.2</ele>
        <time>2020-10-21T12:08:52Z</time>
      </trkpt>
      <trkpt lat="49.85468" lon="2.48451">
        <ele>98.2</ele>
        <time>2020-10-21T12:08:53Z</time>
      </trkpt>
      <trkpt lat="49.85467" lon="2.48453">
        <ele>98.2</ele>
        <time>2020-10-21T12:08:54Z</time>
      </trkpt>
      <trkpt lat="49.85467" lon="2.48455">
        <ele>98.2</ele>
        <time>2020-10-21T12:08:55Z</time>
      </trkpt>
      <trkpt lat="49.85467" lon="2.48456">
        <ele>98.2</ele>
        <time>2020-10-21T12:08:56Z</time>
      </trkpt>
      <trkpt lat="49.85466" lon="2.48458">
        <ele>98.1</ele>
        <time>2020-10-21T12:08:58Z</time>
      </trkpt>
      <trkpt lat="49.85466" lon="2.4846">
        <ele>98.1</ele>
        <time>2020-10-21T12:08:59Z</time>
      </trkpt>
      <trkpt lat="49.85466" lon="2.48462">
        <ele>98.1</ele>
        <time>2020-10-21T12:09:00Z</time>
      </trkpt>
      <trkpt lat="49.85466" lon="2.48464">
        <ele>98.1</ele>
        <time>2020-10-21T12:09:01Z</time>
      </trkpt>
      <trkpt lat="49.85465" lon="2.48465">
        <ele>98.1</ele>
        <time>2020-10-21T12:09:02Z</time>
      </trkpt>
      <trkpt lat="49.85465" lon="2.48467">
        <ele>98.1</ele>
        <time>2020-10-21T12:09:03Z</time>
      </trkpt>
      <trkpt lat="49.85464" lon="2.48468">
        <ele>98.1</ele>
        <time>2020-10-21T12:09:04Z</time>
      </trkpt>
      <trkpt lat="49.85463" lon="2.48472">
        <ele>98.1</ele>
        <time>2020-10-21T12:09:05Z</time>
      </trkpt>
      <trkpt lat="49.85463" lon="2.48473">
        <ele>98.1</ele>
        <time>2020-10-21T12:09:07Z</time>
      </trkpt>
      <trkpt lat="49.85462" lon="2.48474">
        <ele>98.1</ele>
        <time>2020-10-21T12:09:08Z</time>
      </trkpt>
      <trkpt lat="49.85462" lon="2.48476">
        <ele>98.1</ele>
        <time>2020-10-21T12:09:09Z</time>
      </trkpt>
      <trkpt lat="49.85461" lon="2.48478">
        <ele>98.1</ele>
        <time>2020-10-21T12:09:10Z</time>
      </trkpt>
      <trkpt lat="49.85461" lon="2.4848">
        <ele>98.1</ele>
        <time>2020-10-21T12:09:11Z</time>
      </trkpt>
      <trkpt lat="49.8546" lon="2.48482">
        <ele>98.1</ele>
        <time>2020-10-21T12:09:12Z</time>
      </trkpt>
      <trkpt lat="49.85459" lon="2.48484">
        <ele>98.1</ele>
        <time>2020-10-21T12:09:13Z</time>
      </trkpt>
      <trkpt lat="49.85459" lon="2.48486">
        <ele>98.1</ele>
        <time>2020-10-21T12:09:14Z</time>
      </trkpt>
      <trkpt lat="49.85458" lon="2.48488">
        <ele>98.1</ele>
        <time>2020-10-21T12:09:15Z</time>
      </trkpt>
      <trkpt lat="49.85457" lon="2.4849">
        <ele>98.1</ele>
        <time>2020-10-21T12:09:16Z</time>
      </trkpt>
      <trkpt lat="49.85456" lon="2.48492">
        <ele>98.1</ele>
        <time>2020-10-21T12:09:17Z</time>
      </trkpt>
      <trkpt lat="49.85456" lon="2.48493">
        <ele>98.1</ele>
        <time>2020-10-21T12:09:19Z</time>
      </trkpt>
      <trkpt lat="49.85455" lon="2.48495">
        <ele>98.1</ele>
        <time>2020-10-21T12:09:20Z</time>
      </trkpt>
      <trkpt lat="49.85455" lon="2.48496">
        <ele>98</ele>
        <time>2020-10-21T12:09:21Z</time>
      </trkpt>
      <trkpt lat="49.85454" lon="2.48499">
        <ele>98</ele>
        <time>2020-10-21T12:09:23Z</time>
      </trkpt>
      <trkpt lat="49.85453" lon="2.48501">
        <ele>98</ele>
        <time>2020-10-21T12:09:24Z</time>
      </trkpt>
      <trkpt lat="49.85453" lon="2.48503">
        <ele>98</ele>
        <time>2020-10-21T12:09:26Z</time>
      </trkpt>
      <trkpt lat="49.85452" lon="2.48505">
        <ele>98</ele>
        <time>2020-10-21T12:09:27Z</time>
      </trkpt>
      <trkpt lat="49.85452" lon="2.48507">
        <ele>98</ele>
        <time>2020-10-21T12:09:28Z</time>
      </trkpt>
      <trkpt lat="49.85451" lon="2.48508">
        <ele>98</ele>
        <time>2020-10-21T12:09:29Z</time>
      </trkpt>
      <trkpt lat="49.85451" lon="2.4851">
        <ele>98</ele>
        <time>2020-10-21T12:09:30Z</time>
      </trkpt>
      <trkpt lat="49.85451" lon="2.48512">
        <ele>98</ele>
        <time>2020-10-21T12:09:31Z</time>
      </trkpt>
      <trkpt lat="49.85451" lon="2.48513">
        <ele>98</ele>
        <time>2020-10-21T12:09:32Z</time>
      </trkpt>
      <trkpt lat="49.8545" lon="2.48516">
        <ele>98</ele>
        <time>2020-10-21T12:09:34Z</time>
      </trkpt>
      <trkpt lat="49.8545" lon="2.48518">
        <ele>98</ele>
        <time>2020-10-21T12:09:35Z</time>
      </trkpt>
      <trkpt lat="49.85449" lon="2.48519">
        <ele>98</ele>
        <time>2020-10-21T12:09:36Z</time>
      </trkpt>
      <trkpt lat="49.85449" lon="2.4852">
        <ele>98</ele>
        <time>2020-10-21T12:09:37Z</time>
      </trkpt>
      <trkpt lat="49.85448" lon="2.48522">
        <ele>98</ele>
        <time>2020-10-21T12:09:38Z</time>
      </trkpt>
      <trkpt lat="49.85448" lon="2.48524">
        <ele>98</ele>
        <time>2020-10-21T12:09:39Z</time>
      </trkpt>
      <trkpt lat="49.85447" lon="2.48526">
        <ele>98</ele>
        <time>2020-10-21T12:09:40Z</time>
      </trkpt>
      <trkpt lat="49.85447" lon="2.48527">
        <ele>98</ele>
        <time>2020-10-21T12:09:41Z</time>
      </trkpt>
      <trkpt lat="49.85446" lon="2.48529">
        <ele>98</ele>
        <time>2020-10-21T12:09:42Z</time>
      </trkpt>
      <trkpt lat="49.85446" lon="2.4853">
        <ele>98</ele>
        <time>2020-10-21T12:09:43Z</time>
      </trkpt>
      <trkpt lat="49.85445" lon="2.48532">
        <ele>98</ele>
        <time>2020-10-21T12:09:45Z</time>
      </trkpt>
      <trkpt lat="49.85444" lon="2.48535">
        <ele>98</ele>
        <time>2020-10-21T12:09:46Z</time>
      </trkpt>
      <trkpt lat="49.85444" lon="2.48536">
        <ele>98</ele>
        <time>2020-10-21T12:09:47Z</time>
      </trkpt>
      <trkpt lat="49.85443" lon="2.48539">
        <ele>98</ele>
        <time>2020-10-21T12:09:48Z</time>
      </trkpt>
      <trkpt lat="49.85442" lon="2.4854">
        <ele>98</ele>
        <time>2020-10-21T12:09:49Z</time>
      </trkpt>
      <trkpt lat="49.85442" lon="2.48541">
        <ele>98</ele>
        <time>2020-10-21T12:09:50Z</time>
      </trkpt>
      <trkpt lat="49.85441" lon="2.48543">
        <ele>98</ele>
        <time>2020-10-21T12:09:51Z</time>
      </trkpt>
      <trkpt lat="49.8544" lon="2.48545">
        <ele>98</ele>
        <time>2020-10-21T12:09:52Z</time>
      </trkpt>
      <trkpt lat="49.8544" lon="2.48547">
        <ele>98</ele>
        <time>2020-10-21T12:09:53Z</time>
      </trkpt>
      <trkpt lat="49.85439" lon="2.48549">
        <ele>98</ele>
        <time>2020-10-21T12:09:54Z</time>
      </trkpt>
      <trkpt lat="49.85438" lon="2.48551">
        <ele>98</ele>
        <time>2020-10-21T12:09:55Z</time>
      </trkpt>
      <trkpt lat="49.85438" lon="2.48553">
        <ele>98</ele>
        <time>2020-10-21T12:09:57Z</time>
      </trkpt>
      <trkpt lat="49.85437" lon="2.48555">
        <ele>98</ele>
        <time>2020-10-21T12:09:58Z</time>
      </trkpt>
      <trkpt lat="49.85436" lon="2.48556">
        <ele>98</ele>
        <time>2020-10-21T12:09:59Z</time>
      </trkpt>
      <trkpt lat="49.85436" lon="2.48557">
        <ele>98</ele>
        <time>2020-10-21T12:10:00Z</time>
      </trkpt>
      <trkpt lat="49.85435" lon="2.48558">
        <ele>98</ele>
        <time>2020-10-21T12:10:01Z</time>
      </trkpt>
      <trkpt lat="49.85434" lon="2.48559">
        <ele>98</ele>
        <time>2020-10-21T12:10:03Z</time>
      </trkpt>
      <trkpt lat="49.85433" lon="2.48561">
        <ele>98</ele>
        <time>2020-10-21T12:10:04Z</time>
      </trkpt>
      <trkpt lat="49.85433" lon="2.48564">
        <ele>98</ele>
        <time>2020-10-21T12:10:05Z</time>
      </trkpt>
      <trkpt lat="49.85433" lon="2.48565">
        <ele>97.9</ele>
        <time>2020-10-21T12:10:06Z</time>
      </trkpt>
      <trkpt lat="49.85432" lon="2.48566">
        <ele>97.9</ele>
        <time>2020-10-21T12:10:07Z</time>
      </trkpt>
      <trkpt lat="49.85432" lon="2.48568">
        <ele>97.9</ele>
        <time>2020-10-21T12:10:08Z</time>
      </trkpt>
      <trkpt lat="49.85431" lon="2.48569">
        <ele>97.9</ele>
        <time>2020-10-21T12:10:09Z</time>
      </trkpt>
      <trkpt lat="49.8543" lon="2.4857">
        <ele>97.9</ele>
        <time>2020-10-21T12:10:10Z</time>
      </trkpt>
      <trkpt lat="49.8543" lon="2.48574">
        <ele>97.9</ele>
        <time>2020-10-21T12:10:12Z</time>
      </trkpt>
      <trkpt lat="49.85429" lon="2.48575">
        <ele>97.9</ele>
        <time>2020-10-21T12:10:13Z</time>
      </trkpt>
      <trkpt lat="49.85429" lon="2.48576">
        <ele>97.9</ele>
        <time>2020-10-21T12:10:14Z</time>
      </trkpt>
      <trkpt lat="49.85429" lon="2.48577">
        <ele>97.9</ele>
        <time>2020-10-21T12:10:15Z</time>
      </trkpt>
      <trkpt lat="49.85429" lon="2.4858">
        <ele>97.9</ele>
        <time>2020-10-21T12:10:16Z</time>
      </trkpt>
      <trkpt lat="49.85429" lon="2.48581">
        <ele>97.9</ele>
        <time>2020-10-21T12:10:17Z</time>
      </trkpt>
      <trkpt lat="49.85429" lon="2.48583">
        <ele>97.8</ele>
        <time>2020-10-21T12:10:18Z</time>
      </trkpt>
      <trkpt lat="49.85428" lon="2.48586">
        <ele>97.8</ele>
        <time>2020-10-21T12:10:20Z</time>
      </trkpt>
      <trkpt lat="49.85427" lon="2.48589">
        <ele>97.8</ele>
        <time>2020-10-21T12:10:21Z</time>
      </trkpt>
      <trkpt lat="49.85426" lon="2.48591">
        <ele>97.8</ele>
        <time>2020-10-21T12:10:22Z</time>
      </trkpt>
      <trkpt lat="49.85426" lon="2.48593">
        <ele>97.8</ele>
        <time>2020-10-21T12:10:24Z</time>
      </trkpt>
      <trkpt lat="49.85425" lon="2.48596">
        <ele>97.8</ele>
        <time>2020-10-21T12:10:25Z</time>
      </trkpt>
      <trkpt lat="49.85424" lon="2.48599">
        <ele>97.7</ele>
        <time>2020-10-21T12:10:26Z</time>
      </trkpt>
      <trkpt lat="49.85424" lon="2.486">
        <ele>97.7</ele>
        <time>2020-10-21T12:10:27Z</time>
      </trkpt>
      <trkpt lat="49.85422" lon="2.48603">
        <ele>97.7</ele>
        <time>2020-10-21T12:10:28Z</time>
      </trkpt>
      <trkpt lat="49.85422" lon="2.48604">
        <ele>97.7</ele>
        <time>2020-10-21T12:10:29Z</time>
      </trkpt>
      <trkpt lat="49.85421" lon="2.48605">
        <ele>97.7</ele>
        <time>2020-10-21T12:10:30Z</time>
      </trkpt>
      <trkpt lat="49.85421" lon="2.48607">
        <ele>97.7</ele>
        <time>2020-10-21T12:10:31Z</time>
      </trkpt>
      <trkpt lat="49.8542" lon="2.48608">
        <ele>97.7</ele>
        <time>2020-10-21T12:10:32Z</time>
      </trkpt>
      <trkpt lat="49.85419" lon="2.48609">
        <ele>97.7</ele>
        <time>2020-10-21T12:10:33Z</time>
      </trkpt>
      <trkpt lat="49.85418" lon="2.48611">
        <ele>97.7</ele>
        <time>2020-10-21T12:10:35Z</time>
      </trkpt>
      <trkpt lat="49.85418" lon="2.48614">
        <ele>97.7</ele>
        <time>2020-10-21T12:10:36Z</time>
      </trkpt>
      <trkpt lat="49.85417" lon="2.48615">
        <ele>97.7</ele>
        <time>2020-10-21T12:10:37Z</time>
      </trkpt>
      <trkpt lat="49.85417" lon="2.48617">
        <ele>97.7</ele>
        <time>2020-10-21T12:10:38Z</time>
      </trkpt>
      <trkpt lat="49.85416" lon="2.48618">
        <ele>97.7</ele>
        <time>2020-10-21T12:10:39Z</time>
      </trkpt>
      <trkpt lat="49.85416" lon="2.4862">
        <ele>97.7</ele>
        <time>2020-10-21T12:10:40Z</time>
      </trkpt>
      <trkpt lat="49.85416" lon="2.48623">
        <ele>97.7</ele>
        <time>2020-10-21T12:10:41Z</time>
      </trkpt>
      <trkpt lat="49.85415" lon="2.48624">
        <ele>97.7</ele>
        <time>2020-10-21T12:10:42Z</time>
      </trkpt>
      <trkpt lat="49.85415" lon="2.48626">
        <ele>97.7</ele>
        <time>2020-10-21T12:10:43Z</time>
      </trkpt>
      <trkpt lat="49.85414" lon="2.48629">
        <ele>97.7</ele>
        <time>2020-10-21T12:10:45Z</time>
      </trkpt>
      <trkpt lat="49.85413" lon="2.48631">
        <ele>97.7</ele>
        <time>2020-10-21T12:10:46Z</time>
      </trkpt>
      <trkpt lat="49.85413" lon="2.48632">
        <ele>97.7</ele>
        <time>2020-10-21T12:10:47Z</time>
      </trkpt>
      <trkpt lat="49.85412" lon="2.48635">
        <ele>97.7</ele>
        <time>2020-10-21T12:10:48Z</time>
      </trkpt>
      <trkpt lat="49.85411" lon="2.48637">
        <ele>97.7</ele>
        <time>2020-10-21T12:10:50Z</time>
      </trkpt>
      <trkpt lat="49.85411" lon="2.48638">
        <ele>97.7</ele>
        <time>2020-10-21T12:10:51Z</time>
      </trkpt>
      <trkpt lat="49.8541" lon="2.48639">
        <ele>97.7</ele>
        <time>2020-10-21T12:10:52Z</time>
      </trkpt>
      <trkpt lat="49.8541" lon="2.48641">
        <ele>97.7</ele>
        <time>2020-10-21T12:10:53Z</time>
      </trkpt>
      <trkpt lat="49.8541" lon="2.48642">
        <ele>97.7</ele>
        <time>2020-10-21T12:10:54Z</time>
      </trkpt>
      <trkpt lat="49.85409" lon="2.48644">
        <ele>97.7</ele>
        <time>2020-10-21T12:10:55Z</time>
      </trkpt>
      <trkpt lat="49.85409" lon="2.48647">
        <ele>97.7</ele>
        <time>2020-10-21T12:10:56Z</time>
      </trkpt>
      <trkpt lat="49.85409" lon="2.48648">
        <ele>97.7</ele>
        <time>2020-10-21T12:10:58Z</time>
      </trkpt>
      <trkpt lat="49.85408" lon="2.4865">
        <ele>97.7</ele>
        <time>2020-10-21T12:10:59Z</time>
      </trkpt>
      <trkpt lat="49.85408" lon="2.48651">
        <ele>97.7</ele>
        <time>2020-10-21T12:11:00Z</time>
      </trkpt>
      <trkpt lat="49.85407" lon="2.48654">
        <ele>97.7</ele>
        <time>2020-10-21T12:11:01Z</time>
      </trkpt>
      <trkpt lat="49.85408" lon="2.48654">
        <ele>97.7</ele>
        <time>2020-10-21T12:11:02Z</time>
      </trkpt>
      <trkpt lat="49.85407" lon="2.48656">
        <ele>97.7</ele>
        <time>2020-10-21T12:11:03Z</time>
      </trkpt>
      <trkpt lat="49.85407" lon="2.48658">
        <ele>97.7</ele>
        <time>2020-10-21T12:11:04Z</time>
      </trkpt>
      <trkpt lat="49.85407" lon="2.48659">
        <ele>97.7</ele>
        <time>2020-10-21T12:11:05Z</time>
      </trkpt>
      <trkpt lat="49.85407" lon="2.48661">
        <ele>97.7</ele>
        <time>2020-10-21T12:11:07Z</time>
      </trkpt>
      <trkpt lat="49.85407" lon="2.48663">
        <ele>97.7</ele>
        <time>2020-10-21T12:11:08Z</time>
      </trkpt>
      <trkpt lat="49.85406" lon="2.48664">
        <ele>97.7</ele>
        <time>2020-10-21T12:11:09Z</time>
      </trkpt>
      <trkpt lat="49.85406" lon="2.48666">
        <ele>97.7</ele>
        <time>2020-10-21T12:11:10Z</time>
      </trkpt>
      <trkpt lat="49.85405" lon="2.48668">
        <ele>97.7</ele>
        <time>2020-10-21T12:11:11Z</time>
      </trkpt>
      <trkpt lat="49.85405" lon="2.48669">
        <ele>97.7</ele>
        <time>2020-10-21T12:11:12Z</time>
      </trkpt>
      <trkpt lat="49.85405" lon="2.48671">
        <ele>97.7</ele>
        <time>2020-10-21T12:11:14Z</time>
      </trkpt>
      <trkpt lat="49.85404" lon="2.48673">
        <ele>97.7</ele>
        <time>2020-10-21T12:11:15Z</time>
      </trkpt>
      <trkpt lat="49.85404" lon="2.48676">
        <ele>97.7</ele>
        <time>2020-10-21T12:11:16Z</time>
      </trkpt>
      <trkpt lat="49.85403" lon="2.48678">
        <ele>97.7</ele>
        <time>2020-10-21T12:11:17Z</time>
      </trkpt>
      <trkpt lat="49.85402" lon="2.48679">
        <ele>97.7</ele>
        <time>2020-10-21T12:11:18Z</time>
      </trkpt>
      <trkpt lat="49.85402" lon="2.48681">
        <ele>97.7</ele>
        <time>2020-10-21T12:11:19Z</time>
      </trkpt>
      <trkpt lat="49.85401" lon="2.48682">
        <ele>97.6</ele>
        <time>2020-10-21T12:11:21Z</time>
      </trkpt>
      <trkpt lat="49.854" lon="2.48685">
        <ele>97.6</ele>
        <time>2020-10-21T12:11:22Z</time>
      </trkpt>
      <trkpt lat="49.85399" lon="2.48688">
        <ele>97.6</ele>
        <time>2020-10-21T12:11:23Z</time>
      </trkpt>
      <trkpt lat="49.85399" lon="2.48689">
        <ele>97.6</ele>
        <time>2020-10-21T12:11:24Z</time>
      </trkpt>
      <trkpt lat="49.85398" lon="2.4869">
        <ele>97.6</ele>
        <time>2020-10-21T12:11:25Z</time>
      </trkpt>
      <trkpt lat="49.85397" lon="2.48693">
        <ele>97.6</ele>
        <time>2020-10-21T12:11:26Z</time>
      </trkpt>
      <trkpt lat="49.85396" lon="2.48694">
        <ele>97.6</ele>
        <time>2020-10-21T12:11:27Z</time>
      </trkpt>
      <trkpt lat="49.85395" lon="2.48696">
        <ele>97.6</ele>
        <time>2020-10-21T12:11:29Z</time>
      </trkpt>
      <trkpt lat="49.85395" lon="2.48697">
        <ele>97.6</ele>
        <time>2020-10-21T12:11:30Z</time>
      </trkpt>
      <trkpt lat="49.85394" lon="2.48698">
        <ele>97.6</ele>
        <time>2020-10-21T12:11:31Z</time>
      </trkpt>
      <trkpt lat="49.85393" lon="2.487">
        <ele>97.6</ele>
        <time>2020-10-21T12:11:32Z</time>
      </trkpt>
      <trkpt lat="49.85393" lon="2.48702">
        <ele>97.6</ele>
        <time>2020-10-21T12:11:33Z</time>
      </trkpt>
      <trkpt lat="49.85392" lon="2.48705">
        <ele>97.6</ele>
        <time>2020-10-21T12:11:34Z</time>
      </trkpt>
      <trkpt lat="49.85391" lon="2.48707">
        <ele>97.5</ele>
        <time>2020-10-21T12:11:35Z</time>
      </trkpt>
      <trkpt lat="49.85391" lon="2.48708">
        <ele>97.5</ele>
        <time>2020-10-21T12:11:36Z</time>
      </trkpt>
      <trkpt lat="49.8539" lon="2.4871">
        <ele>97.5</ele>
        <time>2020-10-21T12:11:37Z</time>
      </trkpt>
      <trkpt lat="49.8539" lon="2.48711">
        <ele>97.5</ele>
        <time>2020-10-21T12:11:39Z</time>
      </trkpt>
      <trkpt lat="49.85389" lon="2.48712">
        <ele>97.5</ele>
        <time>2020-10-21T12:11:40Z</time>
      </trkpt>
      <trkpt lat="49.85389" lon="2.48713">
        <ele>97.5</ele>
        <time>2020-10-21T12:11:41Z</time>
      </trkpt>
      <trkpt lat="49.85388" lon="2.48716">
        <ele>97.5</ele>
        <time>2020-10-21T12:11:42Z</time>
      </trkpt>
      <trkpt lat="49.85388" lon="2.48718">
        <ele>97.5</ele>
        <time>2020-10-21T12:11:43Z</time>
      </trkpt>
      <trkpt lat="49.85387" lon="2.48719">
        <ele>97.5</ele>
        <time>2020-10-21T12:11:44Z</time>
      </trkpt>
      <trkpt lat="49.85386" lon="2.48721">
        <ele>97.5</ele>
        <time>2020-10-21T12:11:46Z</time>
      </trkpt>
      <trkpt lat="49.85386" lon="2.48722">
        <ele>97.5</ele>
        <time>2020-10-21T12:11:47Z</time>
      </trkpt>
      <trkpt lat="49.85385" lon="2.48724">
        <ele>97.5</ele>
        <time>2020-10-21T12:11:48Z</time>
      </trkpt>
      <trkpt lat="49.85385" lon="2.48726">
        <ele>97.5</ele>
        <time>2020-10-21T12:11:49Z</time>
      </trkpt>
      <trkpt lat="49.85384" lon="2.48727">
        <ele>97.5</ele>
        <time>2020-10-21T12:11:51Z</time>
      </trkpt>
      <trkpt lat="49.85384" lon="2.4873">
        <ele>97.5</ele>
        <time>2020-10-21T12:11:52Z</time>
      </trkpt>
      <trkpt lat="49.85383" lon="2.48731">
        <ele>97.5</ele>
        <time>2020-10-21T12:11:53Z</time>
      </trkpt>
      <trkpt lat="49.85382" lon="2.48734">
        <ele>97.5</ele>
        <time>2020-10-21T12:11:54Z</time>
      </trkpt>
      <trkpt lat="49.85382" lon="2.48736">
        <ele>97.5</ele>
        <time>2020-10-21T12:11:55Z</time>
      </trkpt>
      <trkpt lat="49.85382" lon="2.48737">
        <ele>97.5</ele>
        <time>2020-10-21T12:11:56Z</time>
      </trkpt>
      <trkpt lat="49.85381" lon="2.48738">
        <ele>97.5</ele>
        <time>2020-10-21T12:11:57Z</time>
      </trkpt>
      <trkpt lat="49.85381" lon="2.4874">
        <ele>97.5</ele>
        <time>2020-10-21T12:11:58Z</time>
      </trkpt>
      <trkpt lat="49.8538" lon="2.48742">
        <ele>97.5</ele>
        <time>2020-10-21T12:12:00Z</time>
      </trkpt>
      <trkpt lat="49.8538" lon="2.48744">
        <ele>97.5</ele>
        <time>2020-10-21T12:12:01Z</time>
      </trkpt>
      <trkpt lat="49.85379" lon="2.48746">
        <ele>97.5</ele>
        <time>2020-10-21T12:12:02Z</time>
      </trkpt>
      <trkpt lat="49.85379" lon="2.48747">
        <ele>97.5</ele>
        <time>2020-10-21T12:12:03Z</time>
      </trkpt>
      <trkpt lat="49.85379" lon="2.48749">
        <ele>97.5</ele>
        <time>2020-10-21T12:12:04Z</time>
      </trkpt>
      <trkpt lat="49.85378" lon="2.48751">
        <ele>97.5</ele>
        <time>2020-10-21T12:12:05Z</time>
      </trkpt>
      <trkpt lat="49.85377" lon="2.48754">
        <ele>97.5</ele>
        <time>2020-10-21T12:12:06Z</time>
      </trkpt>
      <trkpt lat="49.85377" lon="2.48755">
        <ele>97.5</ele>
        <time>2020-10-21T12:12:07Z</time>
      </trkpt>
      <trkpt lat="49.85376" lon="2.48758">
        <ele>97.5</ele>
        <time>2020-10-21T12:12:08Z</time>
      </trkpt>
      <trkpt lat="49.85375" lon="2.48759">
        <ele>97.5</ele>
        <time>2020-10-21T12:12:10Z</time>
      </trkpt>
      <trkpt lat="49.85375" lon="2.4876">
        <ele>97.5</ele>
        <time>2020-10-21T12:12:11Z</time>
      </trkpt>
      <trkpt lat="49.85374" lon="2.48762">
        <ele>97.5</ele>
        <time>2020-10-21T12:12:12Z</time>
      </trkpt>
      <trkpt lat="49.85374" lon="2.48763">
        <ele>97.5</ele>
        <time>2020-10-21T12:12:13Z</time>
      </trkpt>
      <trkpt lat="49.85373" lon="2.48765">
        <ele>97.5</ele>
        <time>2020-10-21T12:12:14Z</time>
      </trkpt>
      <trkpt lat="49.85373" lon="2.48766">
        <ele>97.5</ele>
        <time>2020-10-21T12:12:15Z</time>
      </trkpt>
      <trkpt lat="49.85372" lon="2.48769">
        <ele>97.5</ele>
        <time>2020-10-21T12:12:16Z</time>
      </trkpt>
      <trkpt lat="49.85372" lon="2.4877">
        <ele>97.5</ele>
        <time>2020-10-21T12:12:17Z</time>
      </trkpt>
      <trkpt lat="49.85371" lon="2.48772">
        <ele>97.5</ele>
        <time>2020-10-21T12:12:19Z</time>
      </trkpt>
      <trkpt lat="49.8537" lon="2.48774">
        <ele>97.5</ele>
        <time>2020-10-21T12:12:20Z</time>
      </trkpt>
      <trkpt lat="49.85369" lon="2.48777">
        <ele>97.5</ele>
        <time>2020-10-21T12:12:21Z</time>
      </trkpt>
      <trkpt lat="49.85369" lon="2.48778">
        <ele>97.5</ele>
        <time>2020-10-21T12:12:22Z</time>
      </trkpt>
      <trkpt lat="49.85369" lon="2.48779">
        <ele>97.5</ele>
        <time>2020-10-21T12:12:23Z</time>
      </trkpt>
      <trkpt lat="49.85368" lon="2.48783">
        <ele>97.5</ele>
        <time>2020-10-21T12:12:24Z</time>
      </trkpt>
      <trkpt lat="49.85367" lon="2.48784">
        <ele>97.5</ele>
        <time>2020-10-21T12:12:25Z</time>
      </trkpt>
      <trkpt lat="49.85367" lon="2.48786">
        <ele>97.5</ele>
        <time>2020-10-21T12:12:26Z</time>
      </trkpt>
      <trkpt lat="49.85366" lon="2.48787">
        <ele>97.5</ele>
        <time>2020-10-21T12:12:27Z</time>
      </trkpt>
      <trkpt lat="49.85366" lon="2.48789">
        <ele>97.5</ele>
        <time>2020-10-21T12:12:29Z</time>
      </trkpt>
      <trkpt lat="49.85365" lon="2.48791">
        <ele>97.4</ele>
        <time>2020-10-21T12:12:30Z</time>
      </trkpt>
      <trkpt lat="49.85364" lon="2.48792">
        <ele>97.4</ele>
        <time>2020-10-21T12:12:31Z</time>
      </trkpt>
      <trkpt lat="49.85364" lon="2.48794">
        <ele>97.4</ele>
        <time>2020-10-21T12:12:32Z</time>
      </trkpt>
      <trkpt lat="49.85363" lon="2.48796">
        <ele>97.4</ele>
        <time>2020-10-21T12:12:34Z</time>
      </trkpt>
      <trkpt lat="49.85362" lon="2.48799">
        <ele>97.4</ele>
        <time>2020-10-21T12:12:35Z</time>
      </trkpt>
      <trkpt lat="49.85361" lon="2.488">
        <ele>97.4</ele>
        <time>2020-10-21T12:12:36Z</time>
      </trkpt>
      <trkpt lat="49.85361" lon="2.48802">
        <ele>97.4</ele>
        <time>2020-10-21T12:12:37Z</time>
      </trkpt>
      <trkpt lat="49.85361" lon="2.48803">
        <ele>97.3</ele>
        <time>2020-10-21T12:12:38Z</time>
      </trkpt>
      <trkpt lat="49.8536" lon="2.48805">
        <ele>97.3</ele>
        <time>2020-10-21T12:12:39Z</time>
      </trkpt>
      <trkpt lat="49.8536" lon="2.48807">
        <ele>97.3</ele>
        <time>2020-10-21T12:12:40Z</time>
      </trkpt>
      <trkpt lat="49.85358" lon="2.4881">
        <ele>97.3</ele>
        <time>2020-10-21T12:12:41Z</time>
      </trkpt>
      <trkpt lat="49.85358" lon="2.48812">
        <ele>97.3</ele>
        <time>2020-10-21T12:12:42Z</time>
      </trkpt>
      <trkpt lat="49.85358" lon="2.48813">
        <ele>97.2</ele>
        <time>2020-10-21T12:12:44Z</time>
      </trkpt>
      <trkpt lat="49.85357" lon="2.48814">
        <ele>97.2</ele>
        <time>2020-10-21T12:12:45Z</time>
      </trkpt>
      <trkpt lat="49.85357" lon="2.48815">
        <ele>97.2</ele>
        <time>2020-10-21T12:12:46Z</time>
      </trkpt>
      <trkpt lat="49.85356" lon="2.48817">
        <ele>97.2</ele>
        <time>2020-10-21T12:12:47Z</time>
      </trkpt>
      <trkpt lat="49.85356" lon="2.48818">
        <ele>97.2</ele>
        <time>2020-10-21T12:12:48Z</time>
      </trkpt>
      <trkpt lat="49.85356" lon="2.48819">
        <ele>97.2</ele>
        <time>2020-10-21T12:12:49Z</time>
      </trkpt>
      <trkpt lat="49.85355" lon="2.48821">
        <ele>97.2</ele>
        <time>2020-10-21T12:12:50Z</time>
      </trkpt>
      <trkpt lat="49.85355" lon="2.48824">
        <ele>97.1</ele>
        <time>2020-10-21T12:12:52Z</time>
      </trkpt>
      <trkpt lat="49.85354" lon="2.48825">
        <ele>97.1</ele>
        <time>2020-10-21T12:12:53Z</time>
      </trkpt>
      <trkpt lat="49.85354" lon="2.48827">
        <ele>97.1</ele>
        <time>2020-10-21T12:12:54Z</time>
      </trkpt>
      <trkpt lat="49.85353" lon="2.48829">
        <ele>97.1</ele>
        <time>2020-10-21T12:12:56Z</time>
      </trkpt>
      <trkpt lat="49.85353" lon="2.48832">
        <ele>97.1</ele>
        <time>2020-10-21T12:12:57Z</time>
      </trkpt>
      <trkpt lat="49.85353" lon="2.48834">
        <ele>97</ele>
        <time>2020-10-21T12:12:58Z</time>
      </trkpt>
      <trkpt lat="49.85352" lon="2.48836">
        <ele>97</ele>
        <time>2020-10-21T12:12:59Z</time>
      </trkpt>
      <trkpt lat="49.85352" lon="2.48838">
        <ele>97</ele>
        <time>2020-10-21T12:13:00Z</time>
      </trkpt>
      <trkpt lat="49.85351" lon="2.48841">
        <ele>97</ele>
        <time>2020-10-21T12:13:02Z</time>
      </trkpt>
      <trkpt lat="49.8535" lon="2.48845">
        <ele>96.9</ele>
        <time>2020-10-21T12:13:03Z</time>
      </trkpt>
      <trkpt lat="49.8535" lon="2.48846">
        <ele>96.9</ele>
        <time>2020-10-21T12:13:04Z</time>
      </trkpt>
      <trkpt lat="49.8535" lon="2.48847">
        <ele>96.9</ele>
        <time>2020-10-21T12:13:05Z</time>
      </trkpt>
      <trkpt lat="49.85349" lon="2.48849">
        <ele>96.9</ele>
        <time>2020-10-21T12:13:06Z</time>
      </trkpt>
      <trkpt lat="49.85349" lon="2.4885">
        <ele>96.9</ele>
        <time>2020-10-21T12:13:08Z</time>
      </trkpt>
      <trkpt lat="49.85348" lon="2.48852">
        <ele>96.9</ele>
        <time>2020-10-21T12:13:09Z</time>
      </trkpt>
      <trkpt lat="49.85347" lon="2.48853">
        <ele>96.8</ele>
        <time>2020-10-21T12:13:10Z</time>
      </trkpt>
      <trkpt lat="49.85346" lon="2.48855">
        <ele>96.8</ele>
        <time>2020-10-21T12:13:11Z</time>
      </trkpt>
      <trkpt lat="49.85346" lon="2.48858">
        <ele>96.8</ele>
        <time>2020-10-21T12:13:12Z</time>
      </trkpt>
      <trkpt lat="49.85345" lon="2.48859">
        <ele>96.8</ele>
        <time>2020-10-21T12:13:13Z</time>
      </trkpt>
      <trkpt lat="49.85344" lon="2.4886">
        <ele>96.8</ele>
        <time>2020-10-21T12:13:14Z</time>
      </trkpt>
      <trkpt lat="49.85343" lon="2.48862">
        <ele>96.7</ele>
        <time>2020-10-21T12:13:15Z</time>
      </trkpt>
      <trkpt lat="49.85342" lon="2.48864">
        <ele>96.7</ele>
        <time>2020-10-21T12:13:16Z</time>
      </trkpt>
      <trkpt lat="49.85341" lon="2.48866">
        <ele>96.7</ele>
        <time>2020-10-21T12:13:17Z</time>
      </trkpt>
      <trkpt lat="49.85341" lon="2.48867">
        <ele>96.7</ele>
        <time>2020-10-21T12:13:18Z</time>
      </trkpt>
      <trkpt lat="49.8534" lon="2.48868">
        <ele>96.7</ele>
        <time>2020-10-21T12:13:20Z</time>
      </trkpt>
      <trkpt lat="49.85339" lon="2.4887">
        <ele>96.6</ele>
        <time>2020-10-21T12:13:21Z</time>
      </trkpt>
      <trkpt lat="49.85338" lon="2.48872">
        <ele>96.6</ele>
        <time>2020-10-21T12:13:22Z</time>
      </trkpt>
      <trkpt lat="49.85338" lon="2.48874">
        <ele>96.6</ele>
        <time>2020-10-21T12:13:23Z</time>
      </trkpt>
      <trkpt lat="49.85336" lon="2.48876">
        <ele>96.5</ele>
        <time>2020-10-21T12:13:24Z</time>
      </trkpt>
      <trkpt lat="49.85336" lon="2.48878">
        <ele>96.5</ele>
        <time>2020-10-21T12:13:25Z</time>
      </trkpt>
      <trkpt lat="49.85336" lon="2.48879">
        <ele>96.5</ele>
        <time>2020-10-21T12:13:26Z</time>
      </trkpt>
      <trkpt lat="49.85335" lon="2.48882">
        <ele>96.5</ele>
        <time>2020-10-21T12:13:27Z</time>
      </trkpt>
      <trkpt lat="49.85334" lon="2.48883">
        <ele>96.5</ele>
        <time>2020-10-21T12:13:28Z</time>
      </trkpt>
      <trkpt lat="49.85334" lon="2.48887">
        <ele>96.5</ele>
        <time>2020-10-21T12:13:29Z</time>
      </trkpt>
      <trkpt lat="49.85333" lon="2.48888">
        <ele>96.4</ele>
        <time>2020-10-21T12:13:30Z</time>
      </trkpt>
      <trkpt lat="49.85333" lon="2.48889">
        <ele>96.4</ele>
        <time>2020-10-21T12:13:31Z</time>
      </trkpt>
      <trkpt lat="49.85332" lon="2.48891">
        <ele>96.4</ele>
        <time>2020-10-21T12:13:32Z</time>
      </trkpt>
      <trkpt lat="49.85332" lon="2.48892">
        <ele>96.4</ele>
        <time>2020-10-21T12:13:33Z</time>
      </trkpt>
      <trkpt lat="49.85332" lon="2.48894">
        <ele>96.4</ele>
        <time>2020-10-21T12:13:35Z</time>
      </trkpt>
      <trkpt lat="49.85331" lon="2.48896">
        <ele>96.4</ele>
        <time>2020-10-21T12:13:36Z</time>
      </trkpt>
      <trkpt lat="49.8533" lon="2.48899">
        <ele>96.3</ele>
        <time>2020-10-21T12:13:37Z</time>
      </trkpt>
      <trkpt lat="49.8533" lon="2.48901">
        <ele>96.3</ele>
        <time>2020-10-21T12:13:38Z</time>
      </trkpt>
      <trkpt lat="49.8533" lon="2.48902">
        <ele>96.3</ele>
        <time>2020-10-21T12:13:39Z</time>
      </trkpt>
      <trkpt lat="49.85329" lon="2.48904">
        <ele>96.3</ele>
        <time>2020-10-21T12:13:40Z</time>
      </trkpt>
      <trkpt lat="49.85328" lon="2.48908">
        <ele>96.3</ele>
        <time>2020-10-21T12:13:41Z</time>
      </trkpt>
      <trkpt lat="49.85328" lon="2.48909">
        <ele>96.3</ele>
        <time>2020-10-21T12:13:43Z</time>
      </trkpt>
      <trkpt lat="49.85328" lon="2.48911">
        <ele>96.3</ele>
        <time>2020-10-21T12:13:44Z</time>
      </trkpt>
      <trkpt lat="49.85327" lon="2.48913">
        <ele>96.2</ele>
        <time>2020-10-21T12:13:45Z</time>
      </trkpt>
      <trkpt lat="49.85327" lon="2.48914">
        <ele>96.2</ele>
        <time>2020-10-21T12:13:46Z</time>
      </trkpt>
      <trkpt lat="49.85326" lon="2.48918">
        <ele>96.2</ele>
        <time>2020-10-21T12:13:47Z</time>
      </trkpt>
      <trkpt lat="49.85326" lon="2.48919">
        <ele>96.2</ele>
        <time>2020-10-21T12:13:48Z</time>
      </trkpt>
      <trkpt lat="49.85326" lon="2.48921">
        <ele>96.2</ele>
        <time>2020-10-21T12:13:50Z</time>
      </trkpt>
      <trkpt lat="49.85326" lon="2.48923">
        <ele>96.1</ele>
        <time>2020-10-21T12:13:51Z</time>
      </trkpt>
      <trkpt lat="49.85325" lon="2.48925">
        <ele>96.1</ele>
        <time>2020-10-21T12:13:52Z</time>
      </trkpt>
      <trkpt lat="49.85325" lon="2.48927">
        <ele>96.1</ele>
        <time>2020-10-21T12:13:53Z</time>
      </trkpt>
      <trkpt lat="49.85325" lon="2.48928">
        <ele>96.1</ele>
        <time>2020-10-21T12:13:54Z</time>
      </trkpt>
      <trkpt lat="49.85324" lon="2.4893">
        <ele>96.1</ele>
        <time>2020-10-21T12:13:55Z</time>
      </trkpt>
      <trkpt lat="49.85324" lon="2.48933">
        <ele>96.1</ele>
        <time>2020-10-21T12:13:57Z</time>
      </trkpt>
      <trkpt lat="49.85323" lon="2.48934">
        <ele>96.1</ele>
        <time>2020-10-21T12:13:58Z</time>
      </trkpt>
      <trkpt lat="49.85323" lon="2.48935">
        <ele>96</ele>
        <time>2020-10-21T12:13:59Z</time>
      </trkpt>
      <trkpt lat="49.85322" lon="2.48937">
        <ele>96</ele>
        <time>2020-10-21T12:14:00Z</time>
      </trkpt>
      <trkpt lat="49.85322" lon="2.48939">
        <ele>96</ele>
        <time>2020-10-21T12:14:01Z</time>
      </trkpt>
      <trkpt lat="49.85321" lon="2.48941">
        <ele>96</ele>
        <time>2020-10-21T12:14:02Z</time>
      </trkpt>
      <trkpt lat="49.8532" lon="2.48944">
        <ele>96</ele>
        <time>2020-10-21T12:14:04Z</time>
      </trkpt>
      <trkpt lat="49.8532" lon="2.48945">
        <ele>95.9</ele>
        <time>2020-10-21T12:14:05Z</time>
      </trkpt>
      <trkpt lat="49.85319" lon="2.48947">
        <ele>95.9</ele>
        <time>2020-10-21T12:14:06Z</time>
      </trkpt>
      <trkpt lat="49.85318" lon="2.4895">
        <ele>95.9</ele>
        <time>2020-10-21T12:14:07Z</time>
      </trkpt>
      <trkpt lat="49.85318" lon="2.48951">
        <ele>95.9</ele>
        <time>2020-10-21T12:14:08Z</time>
      </trkpt>
      <trkpt lat="49.85317" lon="2.48952">
        <ele>95.9</ele>
        <time>2020-10-21T12:14:09Z</time>
      </trkpt>
      <trkpt lat="49.85317" lon="2.48954">
        <ele>95.9</ele>
        <time>2020-10-21T12:14:10Z</time>
      </trkpt>
      <trkpt lat="49.85316" lon="2.48955">
        <ele>95.9</ele>
        <time>2020-10-21T12:14:11Z</time>
      </trkpt>
      <trkpt lat="49.85315" lon="2.48958">
        <ele>95.9</ele>
        <time>2020-10-21T12:14:12Z</time>
      </trkpt>
      <trkpt lat="49.85314" lon="2.4896">
        <ele>95.9</ele>
        <time>2020-10-21T12:14:13Z</time>
      </trkpt>
      <trkpt lat="49.85313" lon="2.48961">
        <ele>95.8</ele>
        <time>2020-10-21T12:14:14Z</time>
      </trkpt>
      <trkpt lat="49.85313" lon="2.48962">
        <ele>95.8</ele>
        <time>2020-10-21T12:14:15Z</time>
      </trkpt>
      <trkpt lat="49.85312" lon="2.48965">
        <ele>95.8</ele>
        <time>2020-10-21T12:14:17Z</time>
      </trkpt>
      <trkpt lat="49.85311" lon="2.48967">
        <ele>95.8</ele>
        <time>2020-10-21T12:14:18Z</time>
      </trkpt>
      <trkpt lat="49.8531" lon="2.48968">
        <ele>95.8</ele>
        <time>2020-10-21T12:14:19Z</time>
      </trkpt>
      <trkpt lat="49.85309" lon="2.48971">
        <ele>95.8</ele>
        <time>2020-10-21T12:14:20Z</time>
      </trkpt>
      <trkpt lat="49.85308" lon="2.48972">
        <ele>95.8</ele>
        <time>2020-10-21T12:14:21Z</time>
      </trkpt>
      <trkpt lat="49.85308" lon="2.48974">
        <ele>95.8</ele>
        <time>2020-10-21T12:14:22Z</time>
      </trkpt>
      <trkpt lat="49.85307" lon="2.48975">
        <ele>95.8</ele>
        <time>2020-10-21T12:14:23Z</time>
      </trkpt>
      <trkpt lat="49.85307" lon="2.48976">
        <ele>95.8</ele>
        <time>2020-10-21T12:14:24Z</time>
      </trkpt>
      <trkpt lat="49.85306" lon="2.48978">
        <ele>95.8</ele>
        <time>2020-10-21T12:14:25Z</time>
      </trkpt>
      <trkpt lat="49.85306" lon="2.4898">
        <ele>95.8</ele>
        <time>2020-10-21T12:14:26Z</time>
      </trkpt>
      <trkpt lat="49.85305" lon="2.48982">
        <ele>95.8</ele>
        <time>2020-10-21T12:14:27Z</time>
      </trkpt>
      <trkpt lat="49.85305" lon="2.48984">
        <ele>95.8</ele>
        <time>2020-10-21T12:14:29Z</time>
      </trkpt>
      <trkpt lat="49.85304" lon="2.48987">
        <ele>95.8</ele>
        <time>2020-10-21T12:14:30Z</time>
      </trkpt>
      <trkpt lat="49.85303" lon="2.48988">
        <ele>95.8</ele>
        <time>2020-10-21T12:14:31Z</time>
      </trkpt>
      <trkpt lat="49.85303" lon="2.4899">
        <ele>95.9</ele>
        <time>2020-10-21T12:14:32Z</time>
      </trkpt>
      <trkpt lat="49.85303" lon="2.48992">
        <ele>95.9</ele>
        <time>2020-10-21T12:14:33Z</time>
      </trkpt>
      <trkpt lat="49.85302" lon="2.48993">
        <ele>95.9</ele>
        <time>2020-10-21T12:14:34Z</time>
      </trkpt>
      <trkpt lat="49.85302" lon="2.48995">
        <ele>95.9</ele>
        <time>2020-10-21T12:14:35Z</time>
      </trkpt>
      <trkpt lat="49.85301" lon="2.48998">
        <ele>95.9</ele>
        <time>2020-10-21T12:14:36Z</time>
      </trkpt>
      <trkpt lat="49.85301" lon="2.48999">
        <ele>95.9</ele>
        <time>2020-10-21T12:14:37Z</time>
      </trkpt>
      <trkpt lat="49.853" lon="2.49">
        <ele>95.9</ele>
        <time>2020-10-21T12:14:38Z</time>
      </trkpt>
      <trkpt lat="49.853" lon="2.49002">
        <ele>95.9</ele>
        <time>2020-10-21T12:14:39Z</time>
      </trkpt>
      <trkpt lat="49.853" lon="2.49004">
        <ele>95.9</ele>
        <time>2020-10-21T12:14:41Z</time>
      </trkpt>
      <trkpt lat="49.85299" lon="2.49005">
        <ele>95.9</ele>
        <time>2020-10-21T12:14:42Z</time>
      </trkpt>
      <trkpt lat="49.85298" lon="2.49008">
        <ele>95.9</ele>
        <time>2020-10-21T12:14:43Z</time>
      </trkpt>
      <trkpt lat="49.85298" lon="2.49009">
        <ele>95.9</ele>
        <time>2020-10-21T12:14:44Z</time>
      </trkpt>
      <trkpt lat="49.85297" lon="2.4901">
        <ele>95.9</ele>
        <time>2020-10-21T12:14:45Z</time>
      </trkpt>
      <trkpt lat="49.85296" lon="2.49013">
        <ele>95.9</ele>
        <time>2020-10-21T12:14:46Z</time>
      </trkpt>
      <trkpt lat="49.85296" lon="2.49014">
        <ele>95.9</ele>
        <time>2020-10-21T12:14:47Z</time>
      </trkpt>
      <trkpt lat="49.85295" lon="2.49015">
        <ele>95.9</ele>
        <time>2020-10-21T12:14:48Z</time>
      </trkpt>
      <trkpt lat="49.85294" lon="2.49018">
        <ele>95.9</ele>
        <time>2020-10-21T12:14:49Z</time>
      </trkpt>
      <trkpt lat="49.85294" lon="2.49019">
        <ele>95.9</ele>
        <time>2020-10-21T12:14:50Z</time>
      </trkpt>
      <trkpt lat="49.85294" lon="2.4902">
        <ele>95.9</ele>
        <time>2020-10-21T12:14:51Z</time>
      </trkpt>
      <trkpt lat="49.85293" lon="2.49022">
        <ele>95.9</ele>
        <time>2020-10-21T12:14:52Z</time>
      </trkpt>
      <trkpt lat="49.85292" lon="2.49025">
        <ele>95.9</ele>
        <time>2020-10-21T12:14:53Z</time>
      </trkpt>
      <trkpt lat="49.85292" lon="2.49026">
        <ele>95.9</ele>
        <time>2020-10-21T12:14:54Z</time>
      </trkpt>
      <trkpt lat="49.85291" lon="2.49028">
        <ele>95.9</ele>
        <time>2020-10-21T12:14:56Z</time>
      </trkpt>
      <trkpt lat="49.85291" lon="2.4903">
        <ele>95.9</ele>
        <time>2020-10-21T12:14:57Z</time>
      </trkpt>
      <trkpt lat="49.8529" lon="2.49033">
        <ele>95.9</ele>
        <time>2020-10-21T12:14:58Z</time>
      </trkpt>
      <trkpt lat="49.8529" lon="2.49034">
        <ele>95.9</ele>
        <time>2020-10-21T12:14:59Z</time>
      </trkpt>
      <trkpt lat="49.8529" lon="2.49035">
        <ele>95.9</ele>
        <time>2020-10-21T12:15:00Z</time>
      </trkpt>
      <trkpt lat="49.8529" lon="2.49036">
        <ele>95.9</ele>
        <time>2020-10-21T12:15:01Z</time>
      </trkpt>
      <trkpt lat="49.85289" lon="2.49038">
        <ele>95.9</ele>
        <time>2020-10-21T12:15:02Z</time>
      </trkpt>
      <trkpt lat="49.85289" lon="2.4904">
        <ele>95.9</ele>
        <time>2020-10-21T12:15:03Z</time>
      </trkpt>
      <trkpt lat="49.85288" lon="2.49042">
        <ele>95.9</ele>
        <time>2020-10-21T12:15:04Z</time>
      </trkpt>
      <trkpt lat="49.85288" lon="2.49043">
        <ele>95.9</ele>
        <time>2020-10-21T12:15:05Z</time>
      </trkpt>
      <trkpt lat="49.85288" lon="2.49044">
        <ele>95.9</ele>
        <time>2020-10-21T12:15:06Z</time>
      </trkpt>
      <trkpt lat="49.85287" lon="2.49048">
        <ele>95.9</ele>
        <time>2020-10-21T12:15:07Z</time>
      </trkpt>
      <trkpt lat="49.85286" lon="2.49049">
        <ele>95.9</ele>
        <time>2020-10-21T12:15:09Z</time>
      </trkpt>
      <trkpt lat="49.85286" lon="2.49051">
        <ele>95.9</ele>
        <time>2020-10-21T12:15:10Z</time>
      </trkpt>
      <trkpt lat="49.85285" lon="2.49053">
        <ele>95.9</ele>
        <time>2020-10-21T12:15:11Z</time>
      </trkpt>
      <trkpt lat="49.85285" lon="2.49054">
        <ele>95.9</ele>
        <time>2020-10-21T12:15:12Z</time>
      </trkpt>
      <trkpt lat="49.85284" lon="2.49057">
        <ele>95.9</ele>
        <time>2020-10-21T12:15:13Z</time>
      </trkpt>
      <trkpt lat="49.85284" lon="2.49057">
        <ele>95.9</ele>
        <time>2020-10-21T12:15:14Z</time>
      </trkpt>
      <trkpt lat="49.85283" lon="2.49059">
        <ele>95.9</ele>
        <time>2020-10-21T12:15:15Z</time>
      </trkpt>
      <trkpt lat="49.85282" lon="2.49061">
        <ele>95.9</ele>
        <time>2020-10-21T12:15:16Z</time>
      </trkpt>
      <trkpt lat="49.85282" lon="2.49063">
        <ele>95.9</ele>
        <time>2020-10-21T12:15:17Z</time>
      </trkpt>
      <trkpt lat="49.8528" lon="2.49067">
        <ele>95.9</ele>
        <time>2020-10-21T12:15:18Z</time>
      </trkpt>
      <trkpt lat="49.8528" lon="2.49069">
        <ele>95.9</ele>
        <time>2020-10-21T12:15:20Z</time>
      </trkpt>
      <trkpt lat="49.85279" lon="2.4907">
        <ele>95.9</ele>
        <time>2020-10-21T12:15:21Z</time>
      </trkpt>
      <trkpt lat="49.85279" lon="2.49072">
        <ele>95.9</ele>
        <time>2020-10-21T12:15:22Z</time>
      </trkpt>
      <trkpt lat="49.85278" lon="2.49073">
        <ele>95.9</ele>
        <time>2020-10-21T12:15:23Z</time>
      </trkpt>
      <trkpt lat="49.85278" lon="2.49074">
        <ele>95.9</ele>
        <time>2020-10-21T12:15:24Z</time>
      </trkpt>
      <trkpt lat="49.85277" lon="2.49076">
        <ele>95.9</ele>
        <time>2020-10-21T12:15:25Z</time>
      </trkpt>
      <trkpt lat="49.85276" lon="2.49077">
        <ele>95.9</ele>
        <time>2020-10-21T12:15:26Z</time>
      </trkpt>
      <trkpt lat="49.85276" lon="2.49079">
        <ele>95.9</ele>
        <time>2020-10-21T12:15:27Z</time>
      </trkpt>
      <trkpt lat="49.85275" lon="2.49081">
        <ele>95.9</ele>
        <time>2020-10-21T12:15:28Z</time>
      </trkpt>
      <trkpt lat="49.85274" lon="2.49082">
        <ele>95.9</ele>
        <time>2020-10-21T12:15:30Z</time>
      </trkpt>
      <trkpt lat="49.85273" lon="2.49085">
        <ele>95.9</ele>
        <time>2020-10-21T12:15:31Z</time>
      </trkpt>
      <trkpt lat="49.85273" lon="2.49086">
        <ele>95.9</ele>
        <time>2020-10-21T12:15:32Z</time>
      </trkpt>
      <trkpt lat="49.85273" lon="2.49088">
        <ele>95.9</ele>
        <time>2020-10-21T12:15:33Z</time>
      </trkpt>
      <trkpt lat="49.85272" lon="2.49089">
        <ele>95.9</ele>
        <time>2020-10-21T12:15:35Z</time>
      </trkpt>
      <trkpt lat="49.85272" lon="2.49091">
        <ele>96</ele>
        <time>2020-10-21T12:15:36Z</time>
      </trkpt>
      <trkpt lat="49.85271" lon="2.49093">
        <ele>96</ele>
        <time>2020-10-21T12:15:37Z</time>
      </trkpt>
      <trkpt lat="49.8527" lon="2.49096">
        <ele>96</ele>
        <time>2020-10-21T12:15:38Z</time>
      </trkpt>
      <trkpt lat="49.8527" lon="2.49097">
        <ele>96</ele>
        <time>2020-10-21T12:15:39Z</time>
      </trkpt>
      <trkpt lat="49.8527" lon="2.49098">
        <ele>96</ele>
        <time>2020-10-21T12:15:40Z</time>
      </trkpt>
      <trkpt lat="49.85269" lon="2.49102">
        <ele>96</ele>
        <time>2020-10-21T12:15:41Z</time>
      </trkpt>
      <trkpt lat="49.85269" lon="2.49103">
        <ele>96</ele>
        <time>2020-10-21T12:15:42Z</time>
      </trkpt>
      <trkpt lat="49.85268" lon="2.49104">
        <ele>96</ele>
        <time>2020-10-21T12:15:44Z</time>
      </trkpt>
      <trkpt lat="49.85268" lon="2.49106">
        <ele>96</ele>
        <time>2020-10-21T12:15:45Z</time>
      </trkpt>
      <trkpt lat="49.85268" lon="2.49107">
        <ele>96</ele>
        <time>2020-10-21T12:15:46Z</time>
      </trkpt>
      <trkpt lat="49.85267" lon="2.49109">
        <ele>96</ele>
        <time>2020-10-21T12:15:47Z</time>
      </trkpt>
      <trkpt lat="49.85267" lon="2.49112">
        <ele>96</ele>
        <time>2020-10-21T12:15:48Z</time>
      </trkpt>
      <trkpt lat="49.85266" lon="2.49113">
        <ele>96</ele>
        <time>2020-10-21T12:15:49Z</time>
      </trkpt>
      <trkpt lat="49.85266" lon="2.49115">
        <ele>96</ele>
        <time>2020-10-21T12:15:50Z</time>
      </trkpt>
      <trkpt lat="49.85265" lon="2.49116">
        <ele>96</ele>
        <time>2020-10-21T12:15:51Z</time>
      </trkpt>
      <trkpt lat="49.85265" lon="2.49118">
        <ele>96</ele>
        <time>2020-10-21T12:15:52Z</time>
      </trkpt>
      <trkpt lat="49.85265" lon="2.49121">
        <ele>96</ele>
        <time>2020-10-21T12:15:53Z</time>
      </trkpt>
      <trkpt lat="49.85264" lon="2.49122">
        <ele>96</ele>
        <time>2020-10-21T12:15:55Z</time>
      </trkpt>
      <trkpt lat="49.85264" lon="2.49124">
        <ele>96</ele>
        <time>2020-10-21T12:15:56Z</time>
      </trkpt>
      <trkpt lat="49.85264" lon="2.49126">
        <ele>96</ele>
        <time>2020-10-21T12:15:57Z</time>
      </trkpt>
      <trkpt lat="49.85263" lon="2.49128">
        <ele>96</ele>
        <time>2020-10-21T12:15:58Z</time>
      </trkpt>
      <trkpt lat="49.85263" lon="2.4913">
        <ele>96.1</ele>
        <time>2020-10-21T12:15:59Z</time>
      </trkpt>
      <trkpt lat="49.85263" lon="2.49132">
        <ele>96.1</ele>
        <time>2020-10-21T12:16:00Z</time>
      </trkpt>
      <trkpt lat="49.85263" lon="2.49134">
        <ele>96.1</ele>
        <time>2020-10-21T12:16:01Z</time>
      </trkpt>
      <trkpt lat="49.85262" lon="2.49136">
        <ele>96.1</ele>
        <time>2020-10-21T12:16:02Z</time>
      </trkpt>
      <trkpt lat="49.85261" lon="2.49139">
        <ele>96.1</ele>
        <time>2020-10-21T12:16:04Z</time>
      </trkpt>
      <trkpt lat="49.85261" lon="2.4914">
        <ele>96.1</ele>
        <time>2020-10-21T12:16:05Z</time>
      </trkpt>
      <trkpt lat="49.85261" lon="2.49142">
        <ele>96.1</ele>
        <time>2020-10-21T12:16:06Z</time>
      </trkpt>
      <trkpt lat="49.8526" lon="2.49143">
        <ele>96.1</ele>
        <time>2020-10-21T12:16:07Z</time>
      </trkpt>
      <trkpt lat="49.85259" lon="2.49146">
        <ele>96.1</ele>
        <time>2020-10-21T12:16:08Z</time>
      </trkpt>
      <trkpt lat="49.85259" lon="2.49147">
        <ele>96.1</ele>
        <time>2020-10-21T12:16:09Z</time>
      </trkpt>
      <trkpt lat="49.85259" lon="2.49148">
        <ele>96.1</ele>
        <time>2020-10-21T12:16:10Z</time>
      </trkpt>
      <trkpt lat="49.85258" lon="2.49149">
        <ele>96.1</ele>
        <time>2020-10-21T12:16:11Z</time>
      </trkpt>
      <trkpt lat="49.85257" lon="2.49151">
        <ele>96.1</ele>
        <time>2020-10-21T12:16:13Z</time>
      </trkpt>
      <trkpt lat="49.85257" lon="2.49154">
        <ele>96.1</ele>
        <time>2020-10-21T12:16:14Z</time>
      </trkpt>
      <trkpt lat="49.85256" lon="2.49155">
        <ele>96.1</ele>
        <time>2020-10-21T12:16:15Z</time>
      </trkpt>
      <trkpt lat="49.85255" lon="2.49157">
        <ele>96.1</ele>
        <time>2020-10-21T12:16:16Z</time>
      </trkpt>
      <trkpt lat="49.85255" lon="2.49159">
        <ele>96.1</ele>
        <time>2020-10-21T12:16:17Z</time>
      </trkpt>
      <trkpt lat="49.85254" lon="2.49162">
        <ele>96.1</ele>
        <time>2020-10-21T12:16:18Z</time>
      </trkpt>
      <trkpt lat="49.85253" lon="2.49163">
        <ele>96.1</ele>
        <time>2020-10-21T12:16:19Z</time>
      </trkpt>
      <trkpt lat="49.85252" lon="2.49165">
        <ele>96.1</ele>
        <time>2020-10-21T12:16:20Z</time>
      </trkpt>
      <trkpt lat="49.85252" lon="2.49167">
        <ele>96.1</ele>
        <time>2020-10-21T12:16:21Z</time>
      </trkpt>
      <trkpt lat="49.85251" lon="2.49168">
        <ele>96.1</ele>
        <time>2020-10-21T12:16:22Z</time>
      </trkpt>
      <trkpt lat="49.8525" lon="2.4917">
        <ele>96.1</ele>
        <time>2020-10-21T12:16:23Z</time>
      </trkpt>
      <trkpt lat="49.8525" lon="2.49172">
        <ele>96.1</ele>
        <time>2020-10-21T12:16:25Z</time>
      </trkpt>
      <trkpt lat="49.85249" lon="2.49174">
        <ele>96.1</ele>
        <time>2020-10-21T12:16:26Z</time>
      </trkpt>
      <trkpt lat="49.85248" lon="2.49176">
        <ele>96.1</ele>
        <time>2020-10-21T12:16:27Z</time>
      </trkpt>
      <trkpt lat="49.85248" lon="2.49178">
        <ele>96.1</ele>
        <time>2020-10-21T12:16:28Z</time>
      </trkpt>
      <trkpt lat="49.85247" lon="2.4918">
        <ele>96.1</ele>
        <time>2020-10-21T12:16:29Z</time>
      </trkpt>
      <trkpt lat="49.85246" lon="2.49182">
        <ele>96.1</ele>
        <time>2020-10-21T12:16:30Z</time>
      </trkpt>
      <trkpt lat="49.85246" lon="2.49184">
        <ele>96.1</ele>
        <time>2020-10-21T12:16:31Z</time>
      </trkpt>
      <trkpt lat="49.85245" lon="2.49186">
        <ele>96.1</ele>
        <time>2020-10-21T12:16:33Z</time>
      </trkpt>
      <trkpt lat="49.85244" lon="2.49188">
        <ele>96.1</ele>
        <time>2020-10-21T12:16:34Z</time>
      </trkpt>
      <trkpt lat="49.85244" lon="2.4919">
        <ele>96.1</ele>
        <time>2020-10-21T12:16:35Z</time>
      </trkpt>
      <trkpt lat="49.85243" lon="2.49192">
        <ele>96.1</ele>
        <time>2020-10-21T12:16:36Z</time>
      </trkpt>
      <trkpt lat="49.85242" lon="2.49194">
        <ele>96.1</ele>
        <time>2020-10-21T12:16:37Z</time>
      </trkpt>
      <trkpt lat="49.85241" lon="2.49196">
        <ele>96.1</ele>
        <time>2020-10-21T12:16:38Z</time>
      </trkpt>
      <trkpt lat="49.85241" lon="2.49197">
        <ele>96.1</ele>
        <time>2020-10-21T12:16:39Z</time>
      </trkpt>
      <trkpt lat="49.8524" lon="2.49199">
        <ele>96.1</ele>
        <time>2020-10-21T12:16:41Z</time>
      </trkpt>
      <trkpt lat="49.85239" lon="2.49201">
        <ele>96.1</ele>
        <time>2020-10-21T12:16:42Z</time>
      </trkpt>
      <trkpt lat="49.85239" lon="2.49203">
        <ele>96.1</ele>
        <time>2020-10-21T12:16:43Z</time>
      </trkpt>
      <trkpt lat="49.85238" lon="2.49205">
        <ele>96.1</ele>
        <time>2020-10-21T12:16:44Z</time>
      </trkpt>
      <trkpt lat="49.85238" lon="2.49206">
        <ele>96.1</ele>
        <time>2020-10-21T12:16:45Z</time>
      </trkpt>
      <trkpt lat="49.85237" lon="2.49208">
        <ele>96.1</ele>
        <time>2020-10-21T12:16:46Z</time>
      </trkpt>
      <trkpt lat="49.85237" lon="2.4921">
        <ele>96.1</ele>
        <time>2020-10-21T12:16:47Z</time>
      </trkpt>
      <trkpt lat="49.85236" lon="2.49212">
        <ele>96.1</ele>
        <time>2020-10-21T12:16:48Z</time>
      </trkpt>
      <trkpt lat="49.85236" lon="2.49214">
        <ele>96.1</ele>
        <time>2020-10-21T12:16:49Z</time>
      </trkpt>
      <trkpt lat="49.85235" lon="2.49217">
        <ele>96.1</ele>
        <time>2020-10-21T12:16:51Z</time>
      </trkpt>
      <trkpt lat="49.85234" lon="2.49219">
        <ele>96.1</ele>
        <time>2020-10-21T12:16:52Z</time>
      </trkpt>
      <trkpt lat="49.85233" lon="2.49221">
        <ele>96.1</ele>
        <time>2020-10-21T12:16:53Z</time>
      </trkpt>
      <trkpt lat="49.85232" lon="2.49223">
        <ele>96.1</ele>
        <time>2020-10-21T12:16:54Z</time>
      </trkpt>
      <trkpt lat="49.85232" lon="2.49224">
        <ele>96.1</ele>
        <time>2020-10-21T12:16:55Z</time>
      </trkpt>
      <trkpt lat="49.85231" lon="2.49226">
        <ele>96.1</ele>
        <time>2020-10-21T12:16:56Z</time>
      </trkpt>
      <trkpt lat="49.85231" lon="2.49227">
        <ele>96.1</ele>
        <time>2020-10-21T12:16:57Z</time>
      </trkpt>
      <trkpt lat="49.8523" lon="2.4923">
        <ele>96.1</ele>
        <time>2020-10-21T12:16:59Z</time>
      </trkpt>
      <trkpt lat="49.85229" lon="2.49231">
        <ele>96.1</ele>
        <time>2020-10-21T12:17:00Z</time>
      </trkpt>
      <trkpt lat="49.85229" lon="2.49234">
        <ele>96</ele>
        <time>2020-10-21T12:17:01Z</time>
      </trkpt>
      <trkpt lat="49.85228" lon="2.49236">
        <ele>96</ele>
        <time>2020-10-21T12:17:02Z</time>
      </trkpt>
      <trkpt lat="49.85228" lon="2.49237">
        <ele>96</ele>
        <time>2020-10-21T12:17:03Z</time>
      </trkpt>
      <trkpt lat="49.85228" lon="2.4924">
        <ele>96</ele>
        <time>2020-10-21T12:17:04Z</time>
      </trkpt>
      <trkpt lat="49.85227" lon="2.49241">
        <ele>96</ele>
        <time>2020-10-21T12:17:05Z</time>
      </trkpt>
      <trkpt lat="49.85227" lon="2.49243">
        <ele>96</ele>
        <time>2020-10-21T12:17:06Z</time>
      </trkpt>
      <trkpt lat="49.85227" lon="2.49244">
        <ele>95.9</ele>
        <time>2020-10-21T12:17:07Z</time>
      </trkpt>
      <trkpt lat="49.85226" lon="2.49246">
        <ele>95.9</ele>
        <time>2020-10-21T12:17:08Z</time>
      </trkpt>
      <trkpt lat="49.85225" lon="2.49248">
        <ele>95.9</ele>
        <time>2020-10-21T12:17:09Z</time>
      </trkpt>
      <trkpt lat="49.85224" lon="2.4925">
        <ele>95.9</ele>
        <time>2020-10-21T12:17:10Z</time>
      </trkpt>
      <trkpt lat="49.85223" lon="2.49252">
        <ele>95.8</ele>
        <time>2020-10-21T12:17:11Z</time>
      </trkpt>
      <trkpt lat="49.85223" lon="2.49254">
        <ele>95.8</ele>
        <time>2020-10-21T12:17:12Z</time>
      </trkpt>
      <trkpt lat="49.85222" lon="2.49255">
        <ele>95.8</ele>
        <time>2020-10-21T12:17:13Z</time>
      </trkpt>
      <trkpt lat="49.85222" lon="2.49257">
        <ele>95.8</ele>
        <time>2020-10-21T12:17:14Z</time>
      </trkpt>
      <trkpt lat="49.85222" lon="2.49258">
        <ele>95.8</ele>
        <time>2020-10-21T12:17:15Z</time>
      </trkpt>
      <trkpt lat="49.85222" lon="2.4926">
        <ele>95.8</ele>
        <time>2020-10-21T12:17:16Z</time>
      </trkpt>
      <trkpt lat="49.85221" lon="2.49261">
        <ele>95.8</ele>
        <time>2020-10-21T12:17:17Z</time>
      </trkpt>
      <trkpt lat="49.85221" lon="2.49264">
        <ele>95.7</ele>
        <time>2020-10-21T12:17:18Z</time>
      </trkpt>
      <trkpt lat="49.8522" lon="2.49265">
        <ele>95.7</ele>
        <time>2020-10-21T12:17:19Z</time>
      </trkpt>
      <trkpt lat="49.85219" lon="2.49268">
        <ele>95.7</ele>
        <time>2020-10-21T12:17:21Z</time>
      </trkpt>
      <trkpt lat="49.85219" lon="2.49271">
        <ele>95.7</ele>
        <time>2020-10-21T12:17:22Z</time>
      </trkpt>
      <trkpt lat="49.85218" lon="2.49273">
        <ele>95.7</ele>
        <time>2020-10-21T12:17:23Z</time>
      </trkpt>
      <trkpt lat="49.85217" lon="2.49275">
        <ele>95.7</ele>
        <time>2020-10-21T12:17:24Z</time>
      </trkpt>
      <trkpt lat="49.85216" lon="2.49277">
        <ele>95.7</ele>
        <time>2020-10-21T12:17:25Z</time>
      </trkpt>
      <trkpt lat="49.85216" lon="2.49279">
        <ele>95.7</ele>
        <time>2020-10-21T12:17:26Z</time>
      </trkpt>
      <trkpt lat="49.85215" lon="2.49281">
        <ele>95.7</ele>
        <time>2020-10-21T12:17:28Z</time>
      </trkpt>
      <trkpt lat="49.85214" lon="2.49284">
        <ele>95.6</ele>
        <time>2020-10-21T12:17:29Z</time>
      </trkpt>
      <trkpt lat="49.85213" lon="2.49285">
        <ele>95.6</ele>
        <time>2020-10-21T12:17:30Z</time>
      </trkpt>
      <trkpt lat="49.85212" lon="2.49288">
        <ele>95.6</ele>
        <time>2020-10-21T12:17:31Z</time>
      </trkpt>
      <trkpt lat="49.85212" lon="2.49289">
        <ele>95.6</ele>
        <time>2020-10-21T12:17:32Z</time>
      </trkpt>
      <trkpt lat="49.85212" lon="2.49291">
        <ele>95.6</ele>
        <time>2020-10-21T12:17:33Z</time>
      </trkpt>
      <trkpt lat="49.85211" lon="2.49293">
        <ele>95.6</ele>
        <time>2020-10-21T12:17:34Z</time>
      </trkpt>
      <trkpt lat="49.85211" lon="2.49294">
        <ele>95.6</ele>
        <time>2020-10-21T12:17:35Z</time>
      </trkpt>
      <trkpt lat="49.8521" lon="2.49296">
        <ele>95.6</ele>
        <time>2020-10-21T12:17:37Z</time>
      </trkpt>
      <trkpt lat="49.85209" lon="2.49298">
        <ele>95.6</ele>
        <time>2020-10-21T12:17:38Z</time>
      </trkpt>
      <trkpt lat="49.85209" lon="2.493">
        <ele>95.6</ele>
        <time>2020-10-21T12:17:39Z</time>
      </trkpt>
      <trkpt lat="49.85208" lon="2.49302">
        <ele>95.6</ele>
        <time>2020-10-21T12:17:40Z</time>
      </trkpt>
      <trkpt lat="49.85208" lon="2.49305">
        <ele>95.6</ele>
        <time>2020-10-21T12:17:42Z</time>
      </trkpt>
      <trkpt lat="49.85207" lon="2.49307">
        <ele>95.6</ele>
        <time>2020-10-21T12:17:43Z</time>
      </trkpt>
      <trkpt lat="49.85206" lon="2.4931">
        <ele>95.6</ele>
        <time>2020-10-21T12:17:44Z</time>
      </trkpt>
      <trkpt lat="49.85206" lon="2.49311">
        <ele>95.6</ele>
        <time>2020-10-21T12:17:45Z</time>
      </trkpt>
      <trkpt lat="49.85205" lon="2.49313">
        <ele>95.6</ele>
        <time>2020-10-21T12:17:47Z</time>
      </trkpt>
      <trkpt lat="49.85204" lon="2.49315">
        <ele>95.6</ele>
        <time>2020-10-21T12:17:48Z</time>
      </trkpt>
      <trkpt lat="49.85203" lon="2.49318">
        <ele>95.6</ele>
        <time>2020-10-21T12:17:49Z</time>
      </trkpt>
      <trkpt lat="49.85202" lon="2.49321">
        <ele>95.6</ele>
        <time>2020-10-21T12:17:50Z</time>
      </trkpt>
      <trkpt lat="49.85202" lon="2.49322">
        <ele>95.6</ele>
        <time>2020-10-21T12:17:51Z</time>
      </trkpt>
      <trkpt lat="49.85202" lon="2.49323">
        <ele>95.6</ele>
        <time>2020-10-21T12:17:52Z</time>
      </trkpt>
      <trkpt lat="49.85201" lon="2.49325">
        <ele>95.6</ele>
        <time>2020-10-21T12:17:53Z</time>
      </trkpt>
      <trkpt lat="49.852" lon="2.49327">
        <ele>95.6</ele>
        <time>2020-10-21T12:17:54Z</time>
      </trkpt>
      <trkpt lat="49.85199" lon="2.4933">
        <ele>95.6</ele>
        <time>2020-10-21T12:17:56Z</time>
      </trkpt>
      <trkpt lat="49.85199" lon="2.49332">
        <ele>95.5</ele>
        <time>2020-10-21T12:17:57Z</time>
      </trkpt>
      <trkpt lat="49.85198" lon="2.49334">
        <ele>95.5</ele>
        <time>2020-10-21T12:17:58Z</time>
      </trkpt>
      <trkpt lat="49.85197" lon="2.49337">
        <ele>95.5</ele>
        <time>2020-10-21T12:17:59Z</time>
      </trkpt>
      <trkpt lat="49.85197" lon="2.49339">
        <ele>95.5</ele>
        <time>2020-10-21T12:18:00Z</time>
      </trkpt>
      <trkpt lat="49.85196" lon="2.49341">
        <ele>95.5</ele>
        <time>2020-10-21T12:18:01Z</time>
      </trkpt>
      <trkpt lat="49.85196" lon="2.49342">
        <ele>95.5</ele>
        <time>2020-10-21T12:18:02Z</time>
      </trkpt>
      <trkpt lat="49.85195" lon="2.49344">
        <ele>95.4</ele>
        <time>2020-10-21T12:18:03Z</time>
      </trkpt>
      <trkpt lat="49.85195" lon="2.49346">
        <ele>95.4</ele>
        <time>2020-10-21T12:18:04Z</time>
      </trkpt>
      <trkpt lat="49.85194" lon="2.49347">
        <ele>95.4</ele>
        <time>2020-10-21T12:18:05Z</time>
      </trkpt>
      <trkpt lat="49.85194" lon="2.49349">
        <ele>95.4</ele>
        <time>2020-10-21T12:18:06Z</time>
      </trkpt>
      <trkpt lat="49.85194" lon="2.49351">
        <ele>95.4</ele>
        <time>2020-10-21T12:18:07Z</time>
      </trkpt>
      <trkpt lat="49.85193" lon="2.49354">
        <ele>95.3</ele>
        <time>2020-10-21T12:18:09Z</time>
      </trkpt>
      <trkpt lat="49.85193" lon="2.49355">
        <ele>95.3</ele>
        <time>2020-10-21T12:18:10Z</time>
      </trkpt>
      <trkpt lat="49.85192" lon="2.49357">
        <ele>95.3</ele>
        <time>2020-10-21T12:18:11Z</time>
      </trkpt>
      <trkpt lat="49.85192" lon="2.49359">
        <ele>95.3</ele>
        <time>2020-10-21T12:18:12Z</time>
      </trkpt>
      <trkpt lat="49.85192" lon="2.4936">
        <ele>95.2</ele>
        <time>2020-10-21T12:18:13Z</time>
      </trkpt>
      <trkpt lat="49.85191" lon="2.49364">
        <ele>95.2</ele>
        <time>2020-10-21T12:18:14Z</time>
      </trkpt>
      <trkpt lat="49.85191" lon="2.49365">
        <ele>95.2</ele>
        <time>2020-10-21T12:18:15Z</time>
      </trkpt>
      <trkpt lat="49.85191" lon="2.49366">
        <ele>95.2</ele>
        <time>2020-10-21T12:18:16Z</time>
      </trkpt>
      <trkpt lat="49.8519" lon="2.49367">
        <ele>95.2</ele>
        <time>2020-10-21T12:18:17Z</time>
      </trkpt>
      <trkpt lat="49.8519" lon="2.49369">
        <ele>95.2</ele>
        <time>2020-10-21T12:18:18Z</time>
      </trkpt>
      <trkpt lat="49.8519" lon="2.49371">
        <ele>95.2</ele>
        <time>2020-10-21T12:18:20Z</time>
      </trkpt>
      <trkpt lat="49.85189" lon="2.49373">
        <ele>95.2</ele>
        <time>2020-10-21T12:18:21Z</time>
      </trkpt>
      <trkpt lat="49.85189" lon="2.49375">
        <ele>95.2</ele>
        <time>2020-10-21T12:18:22Z</time>
      </trkpt>
      <trkpt lat="49.85188" lon="2.49376">
        <ele>95.2</ele>
        <time>2020-10-21T12:18:23Z</time>
      </trkpt>
      <trkpt lat="49.85187" lon="2.49379">
        <ele>95.2</ele>
        <time>2020-10-21T12:18:24Z</time>
      </trkpt>
      <trkpt lat="49.85187" lon="2.49381">
        <ele>95.2</ele>
        <time>2020-10-21T12:18:25Z</time>
      </trkpt>
      <trkpt lat="49.85186" lon="2.49382">
        <ele>95.2</ele>
        <time>2020-10-21T12:18:26Z</time>
      </trkpt>
      <trkpt lat="49.85186" lon="2.49384">
        <ele>95.2</ele>
        <time>2020-10-21T12:18:28Z</time>
      </trkpt>
      <trkpt lat="49.85185" lon="2.49387">
        <ele>95.2</ele>
        <time>2020-10-21T12:18:29Z</time>
      </trkpt>
      <trkpt lat="49.85184" lon="2.49389">
        <ele>95.2</ele>
        <time>2020-10-21T12:18:30Z</time>
      </trkpt>
      <trkpt lat="49.85184" lon="2.49391">
        <ele>95.1</ele>
        <time>2020-10-21T12:18:31Z</time>
      </trkpt>
      <trkpt lat="49.85184" lon="2.49392">
        <ele>95.1</ele>
        <time>2020-10-21T12:18:32Z</time>
      </trkpt>
      <trkpt lat="49.85183" lon="2.49394">
        <ele>95.1</ele>
        <time>2020-10-21T12:18:33Z</time>
      </trkpt>
      <trkpt lat="49.85183" lon="2.49396">
        <ele>95.1</ele>
        <time>2020-10-21T12:18:34Z</time>
      </trkpt>
      <trkpt lat="49.85182" lon="2.49397">
        <ele>95.1</ele>
        <time>2020-10-21T12:18:35Z</time>
      </trkpt>
      <trkpt lat="49.85182" lon="2.49399">
        <ele>95.1</ele>
        <time>2020-10-21T12:18:36Z</time>
      </trkpt>
      <trkpt lat="49.85181" lon="2.494">
        <ele>95.1</ele>
        <time>2020-10-21T12:18:37Z</time>
      </trkpt>
      <trkpt lat="49.85181" lon="2.49403">
        <ele>95.1</ele>
        <time>2020-10-21T12:18:39Z</time>
      </trkpt>
      <trkpt lat="49.8518" lon="2.49405">
        <ele>95.1</ele>
        <time>2020-10-21T12:18:40Z</time>
      </trkpt>
      <trkpt lat="49.85179" lon="2.49407">
        <ele>95.1</ele>
        <time>2020-10-21T12:18:41Z</time>
      </trkpt>
      <trkpt lat="49.85179" lon="2.49408">
        <ele>95.1</ele>
        <time>2020-10-21T12:18:42Z</time>
      </trkpt>
      <trkpt lat="49.85178" lon="2.4941">
        <ele>95.1</ele>
        <time>2020-10-21T12:18:43Z</time>
      </trkpt>
      <trkpt lat="49.85177" lon="2.49412">
        <ele>95.1</ele>
        <time>2020-10-21T12:18:44Z</time>
      </trkpt>
      <trkpt lat="49.85176" lon="2.49414">
        <ele>95.1</ele>
        <time>2020-10-21T12:18:45Z</time>
      </trkpt>
      <trkpt lat="49.85176" lon="2.49415">
        <ele>95.1</ele>
        <time>2020-10-21T12:18:46Z</time>
      </trkpt>
      <trkpt lat="49.85175" lon="2.49416">
        <ele>95.1</ele>
        <time>2020-10-21T12:18:48Z</time>
      </trkpt>
      <trkpt lat="49.85174" lon="2.49419">
        <ele>95.1</ele>
        <time>2020-10-21T12:18:49Z</time>
      </trkpt>
      <trkpt lat="49.85173" lon="2.4942">
        <ele>95.1</ele>
        <time>2020-10-21T12:18:50Z</time>
      </trkpt>
      <trkpt lat="49.85172" lon="2.49422">
        <ele>95.1</ele>
        <time>2020-10-21T12:18:51Z</time>
      </trkpt>
      <trkpt lat="49.85172" lon="2.49424">
        <ele>95.1</ele>
        <time>2020-10-21T12:18:52Z</time>
      </trkpt>
      <trkpt lat="49.85171" lon="2.49428">
        <ele>95.1</ele>
        <time>2020-10-21T12:18:53Z</time>
      </trkpt>
      <trkpt lat="49.8517" lon="2.49429">
        <ele>95.1</ele>
        <time>2020-10-21T12:18:55Z</time>
      </trkpt>
      <trkpt lat="49.8517" lon="2.49431">
        <ele>95.1</ele>
        <time>2020-10-21T12:18:56Z</time>
      </trkpt>
      <trkpt lat="49.85169" lon="2.49432">
        <ele>95.1</ele>
        <time>2020-10-21T12:18:57Z</time>
      </trkpt>
      <trkpt lat="49.85169" lon="2.49434">
        <ele>95.1</ele>
        <time>2020-10-21T12:18:58Z</time>
      </trkpt>
      <trkpt lat="49.85169" lon="2.49436">
        <ele>95.1</ele>
        <time>2020-10-21T12:18:59Z</time>
      </trkpt>
      <trkpt lat="49.85168" lon="2.49437">
        <ele>95.1</ele>
        <time>2020-10-21T12:19:00Z</time>
      </trkpt>
      <trkpt lat="49.85168" lon="2.49439">
        <ele>95.1</ele>
        <time>2020-10-21T12:19:01Z</time>
      </trkpt>
      <trkpt lat="49.85167" lon="2.49442">
        <ele>95.1</ele>
        <time>2020-10-21T12:19:02Z</time>
      </trkpt>
      <trkpt lat="49.85166" lon="2.49443">
        <ele>95.1</ele>
        <time>2020-10-21T12:19:03Z</time>
      </trkpt>
      <trkpt lat="49.85166" lon="2.49444">
        <ele>95.1</ele>
        <time>2020-10-21T12:19:04Z</time>
      </trkpt>
      <trkpt lat="49.85165" lon="2.49447">
        <ele>95.2</ele>
        <time>2020-10-21T12:19:06Z</time>
      </trkpt>
      <trkpt lat="49.85165" lon="2.49449">
        <ele>95.2</ele>
        <time>2020-10-21T12:19:07Z</time>
      </trkpt>
      <trkpt lat="49.85164" lon="2.4945">
        <ele>95.2</ele>
        <time>2020-10-21T12:19:08Z</time>
      </trkpt>
      <trkpt lat="49.85163" lon="2.49454">
        <ele>95.2</ele>
        <time>2020-10-21T12:19:09Z</time>
      </trkpt>
      <trkpt lat="49.85162" lon="2.49455">
        <ele>95.2</ele>
        <time>2020-10-21T12:19:11Z</time>
      </trkpt>
      <trkpt lat="49.85162" lon="2.49457">
        <ele>95.2</ele>
        <time>2020-10-21T12:19:12Z</time>
      </trkpt>
      <trkpt lat="49.85161" lon="2.49459">
        <ele>95.3</ele>
        <time>2020-10-21T12:19:13Z</time>
      </trkpt>
      <trkpt lat="49.8516" lon="2.4946">
        <ele>95.3</ele>
        <time>2020-10-21T12:19:14Z</time>
      </trkpt>
      <trkpt lat="49.8516" lon="2.49463">
        <ele>95.3</ele>
        <time>2020-10-21T12:19:15Z</time>
      </trkpt>
      <trkpt lat="49.85159" lon="2.49465">
        <ele>95.3</ele>
        <time>2020-10-21T12:19:17Z</time>
      </trkpt>
      <trkpt lat="49.85159" lon="2.49466">
        <ele>95.3</ele>
        <time>2020-10-21T12:19:18Z</time>
      </trkpt>
      <trkpt lat="49.85158" lon="2.4947">
        <ele>95.4</ele>
        <time>2020-10-21T12:19:19Z</time>
      </trkpt>
      <trkpt lat="49.85157" lon="2.49471">
        <ele>95.4</ele>
        <time>2020-10-21T12:19:20Z</time>
      </trkpt>
      <trkpt lat="49.85157" lon="2.49473">
        <ele>95.4</ele>
        <time>2020-10-21T12:19:21Z</time>
      </trkpt>
      <trkpt lat="49.85156" lon="2.49475">
        <ele>95.5</ele>
        <time>2020-10-21T12:19:23Z</time>
      </trkpt>
      <trkpt lat="49.85156" lon="2.49477">
        <ele>95.5</ele>
        <time>2020-10-21T12:19:24Z</time>
      </trkpt>
      <trkpt lat="49.85155" lon="2.49479">
        <ele>95.5</ele>
        <time>2020-10-21T12:19:25Z</time>
      </trkpt>
      <trkpt lat="49.85154" lon="2.49482">
        <ele>95.6</ele>
        <time>2020-10-21T12:19:26Z</time>
      </trkpt>
      <trkpt lat="49.85154" lon="2.49484">
        <ele>95.6</ele>
        <time>2020-10-21T12:19:27Z</time>
      </trkpt>
      <trkpt lat="49.85153" lon="2.49485">
        <ele>95.6</ele>
        <time>2020-10-21T12:19:28Z</time>
      </trkpt>
      <trkpt lat="49.85153" lon="2.49488">
        <ele>95.7</ele>
        <time>2020-10-21T12:19:30Z</time>
      </trkpt>
      <trkpt lat="49.85152" lon="2.4949">
        <ele>95.7</ele>
        <time>2020-10-21T12:19:31Z</time>
      </trkpt>
      <trkpt lat="49.85152" lon="2.49491">
        <ele>95.7</ele>
        <time>2020-10-21T12:19:32Z</time>
      </trkpt>
      <trkpt lat="49.85151" lon="2.49493">
        <ele>95.7</ele>
        <time>2020-10-21T12:19:33Z</time>
      </trkpt>
      <trkpt lat="49.8515" lon="2.49496">
        <ele>95.8</ele>
        <time>2020-10-21T12:19:35Z</time>
      </trkpt>
      <trkpt lat="49.8515" lon="2.49498">
        <ele>95.8</ele>
        <time>2020-10-21T12:19:36Z</time>
      </trkpt>
      <trkpt lat="49.8515" lon="2.495">
        <ele>95.8</ele>
        <time>2020-10-21T12:19:37Z</time>
      </trkpt>
      <trkpt lat="49.85149" lon="2.49502">
        <ele>95.8</ele>
        <time>2020-10-21T12:19:38Z</time>
      </trkpt>
      <trkpt lat="49.85149" lon="2.49504">
        <ele>95.8</ele>
        <time>2020-10-21T12:19:39Z</time>
      </trkpt>
      <trkpt lat="49.85149" lon="2.49506">
        <ele>95.8</ele>
        <time>2020-10-21T12:19:40Z</time>
      </trkpt>
      <trkpt lat="49.85149" lon="2.49508">
        <ele>95.9</ele>
        <time>2020-10-21T12:19:41Z</time>
      </trkpt>
      <trkpt lat="49.85149" lon="2.49509">
        <ele>95.9</ele>
        <time>2020-10-21T12:19:42Z</time>
      </trkpt>
      <trkpt lat="49.85148" lon="2.49512">
        <ele>95.9</ele>
        <time>2020-10-21T12:19:44Z</time>
      </trkpt>
      <trkpt lat="49.85148" lon="2.49513">
        <ele>95.9</ele>
        <time>2020-10-21T12:19:45Z</time>
      </trkpt>
      <trkpt lat="49.85148" lon="2.49515">
        <ele>95.9</ele>
        <time>2020-10-21T12:19:46Z</time>
      </trkpt>
      <trkpt lat="49.85149" lon="2.49517">
        <ele>95.9</ele>
        <time>2020-10-21T12:19:47Z</time>
      </trkpt>
      <trkpt lat="49.85149" lon="2.4952">
        <ele>95.9</ele>
        <time>2020-10-21T12:19:48Z</time>
      </trkpt>
      <trkpt lat="49.85149" lon="2.49522">
        <ele>95.9</ele>
        <time>2020-10-21T12:19:49Z</time>
      </trkpt>
      <trkpt lat="49.85149" lon="2.49524">
        <ele>95.9</ele>
        <time>2020-10-21T12:19:50Z</time>
      </trkpt>
      <trkpt lat="49.85149" lon="2.49527">
        <ele>95.9</ele>
        <time>2020-10-21T12:19:52Z</time>
      </trkpt>
      <trkpt lat="49.85149" lon="2.49529">
        <ele>95.9</ele>
        <time>2020-10-21T12:19:53Z</time>
      </trkpt>
      <trkpt lat="49.85149" lon="2.49532">
        <ele>95.9</ele>
        <time>2020-10-21T12:19:54Z</time>
      </trkpt>
      <trkpt lat="49.85149" lon="2.49534">
        <ele>95.9</ele>
        <time>2020-10-21T12:19:55Z</time>
      </trkpt>
      <trkpt lat="49.85148" lon="2.49535">
        <ele>95.9</ele>
        <time>2020-10-21T12:19:56Z</time>
      </trkpt>
      <trkpt lat="49.85148" lon="2.49537">
        <ele>95.9</ele>
        <time>2020-10-21T12:19:57Z</time>
      </trkpt>
      <trkpt lat="49.85148" lon="2.4954">
        <ele>95.9</ele>
        <time>2020-10-21T12:19:58Z</time>
      </trkpt>
      <trkpt lat="49.85148" lon="2.49542">
        <ele>95.9</ele>
        <time>2020-10-21T12:20:00Z</time>
      </trkpt>
      <trkpt lat="49.85148" lon="2.49544">
        <ele>95.9</ele>
        <time>2020-10-21T12:20:01Z</time>
      </trkpt>
      <trkpt lat="49.85148" lon="2.49546">
        <ele>95.9</ele>
        <time>2020-10-21T12:20:02Z</time>
      </trkpt>
      <trkpt lat="49.85148" lon="2.49548">
        <ele>95.9</ele>
        <time>2020-10-21T12:20:03Z</time>
      </trkpt>
      <trkpt lat="49.85148" lon="2.49551">
        <ele>95.9</ele>
        <time>2020-10-21T12:20:04Z</time>
      </trkpt>
      <trkpt lat="49.85148" lon="2.49552">
        <ele>95.9</ele>
        <time>2020-10-21T12:20:05Z</time>
      </trkpt>
      <trkpt lat="49.85148" lon="2.49556">
        <ele>95.9</ele>
        <time>2020-10-21T12:20:06Z</time>
      </trkpt>
      <trkpt lat="49.85148" lon="2.49557">
        <ele>95.9</ele>
        <time>2020-10-21T12:20:07Z</time>
      </trkpt>
      <trkpt lat="49.85148" lon="2.49558">
        <ele>95.9</ele>
        <time>2020-10-21T12:20:08Z</time>
      </trkpt>
      <trkpt lat="49.85148" lon="2.49561">
        <ele>95.9</ele>
        <time>2020-10-21T12:20:10Z</time>
      </trkpt>
      <trkpt lat="49.85147" lon="2.49564">
        <ele>95.9</ele>
        <time>2020-10-21T12:20:11Z</time>
      </trkpt>
      <trkpt lat="49.85147" lon="2.49567">
        <ele>95.9</ele>
        <time>2020-10-21T12:20:12Z</time>
      </trkpt>
      <trkpt lat="49.85147" lon="2.49569">
        <ele>95.9</ele>
        <time>2020-10-21T12:20:13Z</time>
      </trkpt>
      <trkpt lat="49.85147" lon="2.4957">
        <ele>95.9</ele>
        <time>2020-10-21T12:20:14Z</time>
      </trkpt>
      <trkpt lat="49.85147" lon="2.49572">
        <ele>95.9</ele>
        <time>2020-10-21T12:20:15Z</time>
      </trkpt>
      <trkpt lat="49.85147" lon="2.49573">
        <ele>95.9</ele>
        <time>2020-10-21T12:20:17Z</time>
      </trkpt>
      <trkpt lat="49.85147" lon="2.49576">
        <ele>95.9</ele>
        <time>2020-10-21T12:20:18Z</time>
      </trkpt>
      <trkpt lat="49.85147" lon="2.49578">
        <ele>95.8</ele>
        <time>2020-10-21T12:20:19Z</time>
      </trkpt>
      <trkpt lat="49.85147" lon="2.49581">
        <ele>95.8</ele>
        <time>2020-10-21T12:20:20Z</time>
      </trkpt>
      <trkpt lat="49.85148" lon="2.49583">
        <ele>95.8</ele>
        <time>2020-10-21T12:20:21Z</time>
      </trkpt>
      <trkpt lat="49.85148" lon="2.49585">
        <ele>95.8</ele>
        <time>2020-10-21T12:20:22Z</time>
      </trkpt>
      <trkpt lat="49.85148" lon="2.49587">
        <ele>95.8</ele>
        <time>2020-10-21T12:20:23Z</time>
      </trkpt>
      <trkpt lat="49.85149" lon="2.4959">
        <ele>95.8</ele>
        <time>2020-10-21T12:20:24Z</time>
      </trkpt>
      <trkpt lat="49.85149" lon="2.49593">
        <ele>95.8</ele>
        <time>2020-10-21T12:20:26Z</time>
      </trkpt>
      <trkpt lat="49.85149" lon="2.49595">
        <ele>95.8</ele>
        <time>2020-10-21T12:20:27Z</time>
      </trkpt>
      <trkpt lat="49.8515" lon="2.49597">
        <ele>95.8</ele>
        <time>2020-10-21T12:20:28Z</time>
      </trkpt>
      <trkpt lat="49.8515" lon="2.496">
        <ele>95.8</ele>
        <time>2020-10-21T12:20:29Z</time>
      </trkpt>
      <trkpt lat="49.8515" lon="2.49602">
        <ele>95.8</ele>
        <time>2020-10-21T12:20:30Z</time>
      </trkpt>
      <trkpt lat="49.85151" lon="2.49603">
        <ele>95.8</ele>
        <time>2020-10-21T12:20:31Z</time>
      </trkpt>
      <trkpt lat="49.85151" lon="2.49604">
        <ele>95.8</ele>
        <time>2020-10-21T12:20:32Z</time>
      </trkpt>
      <trkpt lat="49.85151" lon="2.49606">
        <ele>95.8</ele>
        <time>2020-10-21T12:20:34Z</time>
      </trkpt>
      <trkpt lat="49.85151" lon="2.49609">
        <ele>95.8</ele>
        <time>2020-10-21T12:20:35Z</time>
      </trkpt>
      <trkpt lat="49.85151" lon="2.49612">
        <ele>95.8</ele>
        <time>2020-10-21T12:20:36Z</time>
      </trkpt>
      <trkpt lat="49.85151" lon="2.49613">
        <ele>95.8</ele>
        <time>2020-10-21T12:20:37Z</time>
      </trkpt>
      <trkpt lat="49.85151" lon="2.49615">
        <ele>95.8</ele>
        <time>2020-10-21T12:20:38Z</time>
      </trkpt>
      <trkpt lat="49.85151" lon="2.49619">
        <ele>95.9</ele>
        <time>2020-10-21T12:20:39Z</time>
      </trkpt>
      <trkpt lat="49.85151" lon="2.4962">
        <ele>95.9</ele>
        <time>2020-10-21T12:20:41Z</time>
      </trkpt>
      <trkpt lat="49.85151" lon="2.49621">
        <ele>95.9</ele>
        <time>2020-10-21T12:20:42Z</time>
      </trkpt>
      <trkpt lat="49.85151" lon="2.49625">
        <ele>95.9</ele>
        <time>2020-10-21T12:20:43Z</time>
      </trkpt>
      <trkpt lat="49.85151" lon="2.49626">
        <ele>95.9</ele>
        <time>2020-10-21T12:20:44Z</time>
      </trkpt>
      <trkpt lat="49.85151" lon="2.49627">
        <ele>95.9</ele>
        <time>2020-10-21T12:20:45Z</time>
      </trkpt>
      <trkpt lat="49.8515" lon="2.4963">
        <ele>95.9</ele>
        <time>2020-10-21T12:20:47Z</time>
      </trkpt>
      <trkpt lat="49.8515" lon="2.49632">
        <ele>95.9</ele>
        <time>2020-10-21T12:20:48Z</time>
      </trkpt>
      <trkpt lat="49.85149" lon="2.49634">
        <ele>95.9</ele>
        <time>2020-10-21T12:20:49Z</time>
      </trkpt>
      <trkpt lat="49.85149" lon="2.49636">
        <ele>95.9</ele>
        <time>2020-10-21T12:20:50Z</time>
      </trkpt>
      <trkpt lat="49.85149" lon="2.49639">
        <ele>95.9</ele>
        <time>2020-10-21T12:20:51Z</time>
      </trkpt>
      <trkpt lat="49.85148" lon="2.49641">
        <ele>95.9</ele>
        <time>2020-10-21T12:20:52Z</time>
      </trkpt>
      <trkpt lat="49.85148" lon="2.49642">
        <ele>95.9</ele>
        <time>2020-10-21T12:20:53Z</time>
      </trkpt>
      <trkpt lat="49.85148" lon="2.49644">
        <ele>95.9</ele>
        <time>2020-10-21T12:20:54Z</time>
      </trkpt>
      <trkpt lat="49.85148" lon="2.49646">
        <ele>95.9</ele>
        <time>2020-10-21T12:20:55Z</time>
      </trkpt>
      <trkpt lat="49.85148" lon="2.49648">
        <ele>95.9</ele>
        <time>2020-10-21T12:20:57Z</time>
      </trkpt>
      <trkpt lat="49.85148" lon="2.4965">
        <ele>95.9</ele>
        <time>2020-10-21T12:20:58Z</time>
      </trkpt>
      <trkpt lat="49.85148" lon="2.49652">
        <ele>95.9</ele>
        <time>2020-10-21T12:20:59Z</time>
      </trkpt>
      <trkpt lat="49.85148" lon="2.49654">
        <ele>95.9</ele>
        <time>2020-10-21T12:21:00Z</time>
      </trkpt>
      <trkpt lat="49.85149" lon="2.49656">
        <ele>95.9</ele>
        <time>2020-10-21T12:21:02Z</time>
      </trkpt>
      <trkpt lat="49.8515" lon="2.49657">
        <ele>95.9</ele>
        <time>2020-10-21T12:21:03Z</time>
      </trkpt>
      <trkpt lat="49.8515" lon="2.49658">
        <ele>95.9</ele>
        <time>2020-10-21T12:21:04Z</time>
      </trkpt>
      <trkpt lat="49.8515" lon="2.4966">
        <ele>95.9</ele>
        <time>2020-10-21T12:21:05Z</time>
      </trkpt>
      <trkpt lat="49.8515" lon="2.49661">
        <ele>96</ele>
        <time>2020-10-21T12:21:06Z</time>
      </trkpt>
      <trkpt lat="49.8515" lon="2.49663">
        <ele>96</ele>
        <time>2020-10-21T12:21:07Z</time>
      </trkpt>
      <trkpt lat="49.8515" lon="2.49664">
        <ele>96</ele>
        <time>2020-10-21T12:21:08Z</time>
      </trkpt>
      <trkpt lat="49.8515" lon="2.49665">
        <ele>96</ele>
        <time>2020-10-21T12:21:09Z</time>
      </trkpt>
      <trkpt lat="49.8515" lon="2.49667">
        <ele>96</ele>
        <time>2020-10-21T12:21:11Z</time>
      </trkpt>
      <trkpt lat="49.85149" lon="2.49668">
        <ele>96</ele>
        <time>2020-10-21T12:21:12Z</time>
      </trkpt>
      <trkpt lat="49.85149" lon="2.49669">
        <ele>96</ele>
        <time>2020-10-21T12:21:13Z</time>
      </trkpt>
      <trkpt lat="49.85148" lon="2.4967">
        <ele>96</ele>
        <time>2020-10-21T12:21:14Z</time>
      </trkpt>
      <trkpt lat="49.85147" lon="2.49671">
        <ele>96</ele>
        <time>2020-10-21T12:21:15Z</time>
      </trkpt>
      <trkpt lat="49.85146" lon="2.49673">
        <ele>96</ele>
        <time>2020-10-21T12:21:17Z</time>
      </trkpt>
      <trkpt lat="49.85146" lon="2.49675">
        <ele>96</ele>
        <time>2020-10-21T12:21:18Z</time>
      </trkpt>
      <trkpt lat="49.85146" lon="2.49679">
        <ele>96</ele>
        <time>2020-10-21T12:21:19Z</time>
      </trkpt>
      <trkpt lat="49.85146" lon="2.4968">
        <ele>96</ele>
        <time>2020-10-21T12:21:20Z</time>
      </trkpt>
      <trkpt lat="49.85146" lon="2.49681">
        <ele>96</ele>
        <time>2020-10-21T12:21:21Z</time>
      </trkpt>
      <trkpt lat="49.85146" lon="2.49684">
        <ele>96</ele>
        <time>2020-10-21T12:21:23Z</time>
      </trkpt>
      <trkpt lat="49.85146" lon="2.49686">
        <ele>96</ele>
        <time>2020-10-21T12:21:24Z</time>
      </trkpt>
      <trkpt lat="49.85145" lon="2.49688">
        <ele>96</ele>
        <time>2020-10-21T12:21:25Z</time>
      </trkpt>
      <trkpt lat="49.85145" lon="2.4969">
        <ele>96</ele>
        <time>2020-10-21T12:21:26Z</time>
      </trkpt>
      <trkpt lat="49.85145" lon="2.49694">
        <ele>96</ele>
        <time>2020-10-21T12:21:27Z</time>
      </trkpt>
      <trkpt lat="49.85145" lon="2.49695">
        <ele>96</ele>
        <time>2020-10-21T12:21:28Z</time>
      </trkpt>
      <trkpt lat="49.85145" lon="2.49697">
        <ele>96</ele>
        <time>2020-10-21T12:21:29Z</time>
      </trkpt>
      <trkpt lat="49.85145" lon="2.497">
        <ele>96</ele>
        <time>2020-10-21T12:21:30Z</time>
      </trkpt>
      <trkpt lat="49.85145" lon="2.49701">
        <ele>96</ele>
        <time>2020-10-21T12:21:31Z</time>
      </trkpt>
      <trkpt lat="49.85145" lon="2.49703">
        <ele>96</ele>
        <time>2020-10-21T12:21:32Z</time>
      </trkpt>
      <trkpt lat="49.85145" lon="2.49704">
        <ele>96</ele>
        <time>2020-10-21T12:21:33Z</time>
      </trkpt>
      <trkpt lat="49.85145" lon="2.49706">
        <ele>96</ele>
        <time>2020-10-21T12:21:34Z</time>
      </trkpt>
      <trkpt lat="49.85146" lon="2.49709">
        <ele>96.1</ele>
        <time>2020-10-21T12:21:36Z</time>
      </trkpt>
      <trkpt lat="49.85145" lon="2.49713">
        <ele>96.1</ele>
        <time>2020-10-21T12:21:37Z</time>
      </trkpt>
      <trkpt lat="49.85145" lon="2.49714">
        <ele>96.1</ele>
        <time>2020-10-21T12:21:38Z</time>
      </trkpt>
      <trkpt lat="49.85146" lon="2.49719">
        <ele>96.1</ele>
        <time>2020-10-21T12:21:39Z</time>
      </trkpt>
      <trkpt lat="49.85146" lon="2.4972">
        <ele>96.1</ele>
        <time>2020-10-21T12:21:40Z</time>
      </trkpt>
      <trkpt lat="49.85146" lon="2.49723">
        <ele>96.1</ele>
        <time>2020-10-21T12:21:41Z</time>
      </trkpt>
      <trkpt lat="49.85146" lon="2.49726">
        <ele>96.1</ele>
        <time>2020-10-21T12:21:42Z</time>
      </trkpt>
      <trkpt lat="49.85146" lon="2.49728">
        <ele>96.1</ele>
        <time>2020-10-21T12:21:43Z</time>
      </trkpt>
      <trkpt lat="49.85146" lon="2.4973">
        <ele>96.1</ele>
        <time>2020-10-21T12:21:44Z</time>
      </trkpt>
      <trkpt lat="49.85146" lon="2.49733">
        <ele>96.1</ele>
        <time>2020-10-21T12:21:45Z</time>
      </trkpt>
      <trkpt lat="49.85146" lon="2.49735">
        <ele>96.2</ele>
        <time>2020-10-21T12:21:46Z</time>
      </trkpt>
      <trkpt lat="49.85147" lon="2.49738">
        <ele>96.2</ele>
        <time>2020-10-21T12:21:47Z</time>
      </trkpt>
      <trkpt lat="49.85147" lon="2.49739">
        <ele>96.2</ele>
        <time>2020-10-21T12:21:48Z</time>
      </trkpt>
      <trkpt lat="49.85147" lon="2.49741">
        <ele>96.2</ele>
        <time>2020-10-21T12:21:49Z</time>
      </trkpt>
      <trkpt lat="49.85147" lon="2.49745">
        <ele>96.2</ele>
        <time>2020-10-21T12:21:51Z</time>
      </trkpt>
      <trkpt lat="49.85147" lon="2.49747">
        <ele>96.2</ele>
        <time>2020-10-21T12:21:52Z</time>
      </trkpt>
      <trkpt lat="49.85146" lon="2.4975">
        <ele>96.2</ele>
        <time>2020-10-21T12:21:53Z</time>
      </trkpt>
      <trkpt lat="49.85146" lon="2.49753">
        <ele>96.2</ele>
        <time>2020-10-21T12:21:54Z</time>
      </trkpt>
      <trkpt lat="49.85146" lon="2.49755">
        <ele>96.2</ele>
        <time>2020-10-21T12:21:55Z</time>
      </trkpt>
      <trkpt lat="49.85146" lon="2.49756">
        <ele>96.2</ele>
        <time>2020-10-21T12:21:56Z</time>
      </trkpt>
      <trkpt lat="49.85145" lon="2.49759">
        <ele>96.2</ele>
        <time>2020-10-21T12:21:58Z</time>
      </trkpt>
      <trkpt lat="49.85145" lon="2.49761">
        <ele>96.2</ele>
        <time>2020-10-21T12:21:59Z</time>
      </trkpt>
      <trkpt lat="49.85145" lon="2.49764">
        <ele>96.2</ele>
        <time>2020-10-21T12:22:00Z</time>
      </trkpt>
      <trkpt lat="49.85145" lon="2.49767">
        <ele>96.3</ele>
        <time>2020-10-21T12:22:02Z</time>
      </trkpt>
      <trkpt lat="49.85145" lon="2.49769">
        <ele>96.3</ele>
        <time>2020-10-21T12:22:03Z</time>
      </trkpt>
      <trkpt lat="49.85145" lon="2.49772">
        <ele>96.3</ele>
        <time>2020-10-21T12:22:04Z</time>
      </trkpt>
      <trkpt lat="49.85145" lon="2.49773">
        <ele>96.3</ele>
        <time>2020-10-21T12:22:05Z</time>
      </trkpt>
      <trkpt lat="49.85145" lon="2.49776">
        <ele>96.3</ele>
        <time>2020-10-21T12:22:07Z</time>
      </trkpt>
      <trkpt lat="49.85145" lon="2.49777">
        <ele>96.3</ele>
        <time>2020-10-21T12:22:08Z</time>
      </trkpt>
      <trkpt lat="49.85144" lon="2.49779">
        <ele>96.3</ele>
        <time>2020-10-21T12:22:09Z</time>
      </trkpt>
      <trkpt lat="49.85144" lon="2.49781">
        <ele>96.3</ele>
        <time>2020-10-21T12:22:10Z</time>
      </trkpt>
      <trkpt lat="49.85144" lon="2.49785">
        <ele>96.3</ele>
        <time>2020-10-21T12:22:11Z</time>
      </trkpt>
      <trkpt lat="49.85143" lon="2.49785">
        <ele>96.3</ele>
        <time>2020-10-21T12:22:12Z</time>
      </trkpt>
      <trkpt lat="49.85143" lon="2.49789">
        <ele>96.3</ele>
        <time>2020-10-21T12:22:13Z</time>
      </trkpt>
      <trkpt lat="49.85143" lon="2.4979">
        <ele>96.3</ele>
        <time>2020-10-21T12:22:14Z</time>
      </trkpt>
      <trkpt lat="49.85143" lon="2.49791">
        <ele>96.3</ele>
        <time>2020-10-21T12:22:15Z</time>
      </trkpt>
      <trkpt lat="49.85143" lon="2.49795">
        <ele>96.3</ele>
        <time>2020-10-21T12:22:16Z</time>
      </trkpt>
      <trkpt lat="49.85143" lon="2.49796">
        <ele>96.3</ele>
        <time>2020-10-21T12:22:17Z</time>
      </trkpt>
      <trkpt lat="49.85142" lon="2.49799">
        <ele>96.3</ele>
        <time>2020-10-21T12:22:18Z</time>
      </trkpt>
      <trkpt lat="49.85142" lon="2.49801">
        <ele>96.3</ele>
        <time>2020-10-21T12:22:19Z</time>
      </trkpt>
      <trkpt lat="49.85142" lon="2.49802">
        <ele>96.3</ele>
        <time>2020-10-21T12:22:20Z</time>
      </trkpt>
      <trkpt lat="49.85141" lon="2.49805">
        <ele>96.3</ele>
        <time>2020-10-21T12:22:22Z</time>
      </trkpt>
      <trkpt lat="49.85141" lon="2.49807">
        <ele>96.3</ele>
        <time>2020-10-21T12:22:23Z</time>
      </trkpt>
      <trkpt lat="49.85141" lon="2.4981">
        <ele>96.3</ele>
        <time>2020-10-21T12:22:24Z</time>
      </trkpt>
      <trkpt lat="49.85141" lon="2.49812">
        <ele>96.3</ele>
        <time>2020-10-21T12:22:25Z</time>
      </trkpt>
      <trkpt lat="49.8514" lon="2.49815">
        <ele>96.3</ele>
        <time>2020-10-21T12:22:26Z</time>
      </trkpt>
      <trkpt lat="49.8514" lon="2.49817">
        <ele>96.3</ele>
        <time>2020-10-21T12:22:27Z</time>
      </trkpt>
      <trkpt lat="49.8514" lon="2.4982">
        <ele>96.3</ele>
        <time>2020-10-21T12:22:29Z</time>
      </trkpt>
      <trkpt lat="49.8514" lon="2.49822">
        <ele>96.3</ele>
        <time>2020-10-21T12:22:30Z</time>
      </trkpt>
      <trkpt lat="49.8514" lon="2.49826">
        <ele>96.3</ele>
        <time>2020-10-21T12:22:31Z</time>
      </trkpt>
      <trkpt lat="49.85141" lon="2.49828">
        <ele>96.3</ele>
        <time>2020-10-21T12:22:32Z</time>
      </trkpt>
      <trkpt lat="49.85141" lon="2.49831">
        <ele>96.3</ele>
        <time>2020-10-21T12:22:33Z</time>
      </trkpt>
      <trkpt lat="49.85141" lon="2.49832">
        <ele>96.3</ele>
        <time>2020-10-21T12:22:34Z</time>
      </trkpt>
      <trkpt lat="49.85141" lon="2.49833">
        <ele>96.3</ele>
        <time>2020-10-21T12:22:35Z</time>
      </trkpt>
      <trkpt lat="49.85141" lon="2.49838">
        <ele>96.3</ele>
        <time>2020-10-21T12:22:36Z</time>
      </trkpt>
      <trkpt lat="49.85141" lon="2.49839">
        <ele>96.3</ele>
        <time>2020-10-21T12:22:38Z</time>
      </trkpt>
      <trkpt lat="49.85142" lon="2.49841">
        <ele>96.3</ele>
        <time>2020-10-21T12:22:39Z</time>
      </trkpt>
      <trkpt lat="49.85142" lon="2.49843">
        <ele>96.3</ele>
        <time>2020-10-21T12:22:40Z</time>
      </trkpt>
      <trkpt lat="49.85142" lon="2.49845">
        <ele>96.3</ele>
        <time>2020-10-21T12:22:41Z</time>
      </trkpt>
      <trkpt lat="49.85142" lon="2.49847">
        <ele>96.3</ele>
        <time>2020-10-21T12:22:42Z</time>
      </trkpt>
      <trkpt lat="49.85141" lon="2.49848">
        <ele>96.3</ele>
        <time>2020-10-21T12:22:43Z</time>
      </trkpt>
      <trkpt lat="49.85141" lon="2.4985">
        <ele>96.3</ele>
        <time>2020-10-21T12:22:45Z</time>
      </trkpt>
      <trkpt lat="49.85141" lon="2.49852">
        <ele>96.3</ele>
        <time>2020-10-21T12:22:46Z</time>
      </trkpt>
      <trkpt lat="49.85141" lon="2.49855">
        <ele>96.4</ele>
        <time>2020-10-21T12:22:47Z</time>
      </trkpt>
      <trkpt lat="49.85141" lon="2.49856">
        <ele>96.4</ele>
        <time>2020-10-21T12:22:48Z</time>
      </trkpt>
      <trkpt lat="49.85141" lon="2.49858">
        <ele>96.4</ele>
        <time>2020-10-21T12:22:49Z</time>
      </trkpt>
      <trkpt lat="49.85141" lon="2.4986">
        <ele>96.4</ele>
        <time>2020-10-21T12:22:50Z</time>
      </trkpt>
      <trkpt lat="49.85141" lon="2.49862">
        <ele>96.4</ele>
        <time>2020-10-21T12:22:51Z</time>
      </trkpt>
      <trkpt lat="49.8514" lon="2.49864">
        <ele>96.4</ele>
        <time>2020-10-21T12:22:52Z</time>
      </trkpt>
      <trkpt lat="49.8514" lon="2.49869">
        <ele>96.4</ele>
        <time>2020-10-21T12:22:54Z</time>
      </trkpt>
      <trkpt lat="49.8514" lon="2.4987">
        <ele>96.4</ele>
        <time>2020-10-21T12:22:55Z</time>
      </trkpt>
      <trkpt lat="49.85139" lon="2.49873">
        <ele>96.4</ele>
        <time>2020-10-21T12:22:56Z</time>
      </trkpt>
      <trkpt lat="49.85139" lon="2.49875">
        <ele>96.4</ele>
        <time>2020-10-21T12:22:57Z</time>
      </trkpt>
      <trkpt lat="49.85139" lon="2.49876">
        <ele>96.4</ele>
        <time>2020-10-21T12:22:58Z</time>
      </trkpt>
      <trkpt lat="49.85139" lon="2.49878">
        <ele>96.4</ele>
        <time>2020-10-21T12:22:59Z</time>
      </trkpt>
      <trkpt lat="49.85138" lon="2.49883">
        <ele>96.4</ele>
        <time>2020-10-21T12:23:01Z</time>
      </trkpt>
      <trkpt lat="49.85138" lon="2.49884">
        <ele>96.4</ele>
        <time>2020-10-21T12:23:02Z</time>
      </trkpt>
      <trkpt lat="49.85138" lon="2.49886">
        <ele>96.4</ele>
        <time>2020-10-21T12:23:03Z</time>
      </trkpt>
      <trkpt lat="49.85138" lon="2.49888">
        <ele>96.4</ele>
        <time>2020-10-21T12:23:04Z</time>
      </trkpt>
      <trkpt lat="49.85137" lon="2.49889">
        <ele>96.4</ele>
        <time>2020-10-21T12:23:05Z</time>
      </trkpt>
      <trkpt lat="49.85137" lon="2.49891">
        <ele>96.4</ele>
        <time>2020-10-21T12:23:06Z</time>
      </trkpt>
      <trkpt lat="49.85137" lon="2.49893">
        <ele>96.4</ele>
        <time>2020-10-21T12:23:07Z</time>
      </trkpt>
      <trkpt lat="49.85137" lon="2.49897">
        <ele>96.4</ele>
        <time>2020-10-21T12:23:09Z</time>
      </trkpt>
      <trkpt lat="49.85137" lon="2.49898">
        <ele>96.4</ele>
        <time>2020-10-21T12:23:10Z</time>
      </trkpt>
      <trkpt lat="49.85136" lon="2.499">
        <ele>96.4</ele>
        <time>2020-10-21T12:23:11Z</time>
      </trkpt>
      <trkpt lat="49.85137" lon="2.49902">
        <ele>96.4</ele>
        <time>2020-10-21T12:23:12Z</time>
      </trkpt>
      <trkpt lat="49.85137" lon="2.49903">
        <ele>96.4</ele>
        <time>2020-10-21T12:23:13Z</time>
      </trkpt>
      <trkpt lat="49.85136" lon="2.49907">
        <ele>96.4</ele>
        <time>2020-10-21T12:23:15Z</time>
      </trkpt>
      <trkpt lat="49.85136" lon="2.4991">
        <ele>96.4</ele>
        <time>2020-10-21T12:23:16Z</time>
      </trkpt>
      <trkpt lat="49.85136" lon="2.49912">
        <ele>96.5</ele>
        <time>2020-10-21T12:23:17Z</time>
      </trkpt>
      <trkpt lat="49.85136" lon="2.49913">
        <ele>96.5</ele>
        <time>2020-10-21T12:23:18Z</time>
      </trkpt>
      <trkpt lat="49.85136" lon="2.49915">
        <ele>96.5</ele>
        <time>2020-10-21T12:23:19Z</time>
      </trkpt>
      <trkpt lat="49.85136" lon="2.49917">
        <ele>96.5</ele>
        <time>2020-10-21T12:23:20Z</time>
      </trkpt>
      <trkpt lat="49.85136" lon="2.4992">
        <ele>96.5</ele>
        <time>2020-10-21T12:23:21Z</time>
      </trkpt>
      <trkpt lat="49.85136" lon="2.49921">
        <ele>96.5</ele>
        <time>2020-10-21T12:23:23Z</time>
      </trkpt>
      <trkpt lat="49.85136" lon="2.49923">
        <ele>96.5</ele>
        <time>2020-10-21T12:23:24Z</time>
      </trkpt>
      <trkpt lat="49.85136" lon="2.49925">
        <ele>96.5</ele>
        <time>2020-10-21T12:23:25Z</time>
      </trkpt>
      <trkpt lat="49.85137" lon="2.49929">
        <ele>96.5</ele>
        <time>2020-10-21T12:23:27Z</time>
      </trkpt>
      <trkpt lat="49.85137" lon="2.49931">
        <ele>96.5</ele>
        <time>2020-10-21T12:23:28Z</time>
      </trkpt>
      <trkpt lat="49.85137" lon="2.49933">
        <ele>96.5</ele>
        <time>2020-10-21T12:23:29Z</time>
      </trkpt>
      <trkpt lat="49.85137" lon="2.49936">
        <ele>96.5</ele>
        <time>2020-10-21T12:23:31Z</time>
      </trkpt>
      <trkpt lat="49.85137" lon="2.49939">
        <ele>96.5</ele>
        <time>2020-10-21T12:23:32Z</time>
      </trkpt>
      <trkpt lat="49.85137" lon="2.49941">
        <ele>96.5</ele>
        <time>2020-10-21T12:23:33Z</time>
      </trkpt>
      <trkpt lat="49.85137" lon="2.49943">
        <ele>96.5</ele>
        <time>2020-10-21T12:23:34Z</time>
      </trkpt>
      <trkpt lat="49.85137" lon="2.49945">
        <ele>96.5</ele>
        <time>2020-10-21T12:23:35Z</time>
      </trkpt>
      <trkpt lat="49.85138" lon="2.49948">
        <ele>96.5</ele>
        <time>2020-10-21T12:23:36Z</time>
      </trkpt>
      <trkpt lat="49.85138" lon="2.49949">
        <ele>96.5</ele>
        <time>2020-10-21T12:23:37Z</time>
      </trkpt>
      <trkpt lat="49.85138" lon="2.49951">
        <ele>96.5</ele>
        <time>2020-10-21T12:23:38Z</time>
      </trkpt>
      <trkpt lat="49.85138" lon="2.49953">
        <ele>96.6</ele>
        <time>2020-10-21T12:23:39Z</time>
      </trkpt>
      <trkpt lat="49.85138" lon="2.49955">
        <ele>96.6</ele>
        <time>2020-10-21T12:23:40Z</time>
      </trkpt>
      <trkpt lat="49.85138" lon="2.49958">
        <ele>96.6</ele>
        <time>2020-10-21T12:23:41Z</time>
      </trkpt>
      <trkpt lat="49.85138" lon="2.4996">
        <ele>96.6</ele>
        <time>2020-10-21T12:23:43Z</time>
      </trkpt>
      <trkpt lat="49.85138" lon="2.49962">
        <ele>96.6</ele>
        <time>2020-10-21T12:23:44Z</time>
      </trkpt>
      <trkpt lat="49.85138" lon="2.49967">
        <ele>96.6</ele>
        <time>2020-10-21T12:23:46Z</time>
      </trkpt>
      <trkpt lat="49.85138" lon="2.49969">
        <ele>96.6</ele>
        <time>2020-10-21T12:23:48Z</time>
      </trkpt>
      <trkpt lat="49.85138" lon="2.49971">
        <ele>96.7</ele>
        <time>2020-10-21T12:23:49Z</time>
      </trkpt>
      <trkpt lat="49.85138" lon="2.49976">
        <ele>96.7</ele>
        <time>2020-10-21T12:23:50Z</time>
      </trkpt>
      <trkpt lat="49.85138" lon="2.49978">
        <ele>96.7</ele>
        <time>2020-10-21T12:23:51Z</time>
      </trkpt>
      <trkpt lat="49.85138" lon="2.49979">
        <ele>96.7</ele>
        <time>2020-10-21T12:23:52Z</time>
      </trkpt>
      <trkpt lat="49.85138" lon="2.49982">
        <ele>96.7</ele>
        <time>2020-10-21T12:23:54Z</time>
      </trkpt>
      <trkpt lat="49.85138" lon="2.49984">
        <ele>96.7</ele>
        <time>2020-10-21T12:23:55Z</time>
      </trkpt>
      <trkpt lat="49.85137" lon="2.49987">
        <ele>96.7</ele>
        <time>2020-10-21T12:23:56Z</time>
      </trkpt>
      <trkpt lat="49.85137" lon="2.49988">
        <ele>96.7</ele>
        <time>2020-10-21T12:23:57Z</time>
      </trkpt>
      <trkpt lat="49.85137" lon="2.4999">
        <ele>96.7</ele>
        <time>2020-10-21T12:23:58Z</time>
      </trkpt>
      <trkpt lat="49.85137" lon="2.49992">
        <ele>96.7</ele>
        <time>2020-10-21T12:23:59Z</time>
      </trkpt>
      <trkpt lat="49.85137" lon="2.49994">
        <ele>96.8</ele>
        <time>2020-10-21T12:24:00Z</time>
      </trkpt>
      <trkpt lat="49.85136" lon="2.49997">
        <ele>96.8</ele>
        <time>2020-10-21T12:24:01Z</time>
      </trkpt>
      <trkpt lat="49.85136" lon="2.49998">
        <ele>96.8</ele>
        <time>2020-10-21T12:24:02Z</time>
      </trkpt>
      <trkpt lat="49.85136" lon="2.5">
        <ele>96.8</ele>
        <time>2020-10-21T12:24:04Z</time>
      </trkpt>
      <trkpt lat="49.85136" lon="2.50002">
        <ele>96.8</ele>
        <time>2020-10-21T12:24:05Z</time>
      </trkpt>
      <trkpt lat="49.85136" lon="2.50004">
        <ele>96.8</ele>
        <time>2020-10-21T12:24:06Z</time>
      </trkpt>
      <trkpt lat="49.85137" lon="2.50007">
        <ele>96.8</ele>
        <time>2020-10-21T12:24:07Z</time>
      </trkpt>
      <trkpt lat="49.85137" lon="2.5001">
        <ele>96.8</ele>
        <time>2020-10-21T12:24:08Z</time>
      </trkpt>
      <trkpt lat="49.85137" lon="2.50011">
        <ele>96.8</ele>
        <time>2020-10-21T12:24:09Z</time>
      </trkpt>
      <trkpt lat="49.85137" lon="2.50013">
        <ele>96.8</ele>
        <time>2020-10-21T12:24:10Z</time>
      </trkpt>
      <trkpt lat="49.85137" lon="2.50016">
        <ele>96.8</ele>
        <time>2020-10-21T12:24:11Z</time>
      </trkpt>
      <trkpt lat="49.85136" lon="2.50018">
        <ele>96.8</ele>
        <time>2020-10-21T12:24:13Z</time>
      </trkpt>
      <trkpt lat="49.85136" lon="2.5002">
        <ele>96.8</ele>
        <time>2020-10-21T12:24:14Z</time>
      </trkpt>
      <trkpt lat="49.85136" lon="2.50022">
        <ele>96.8</ele>
        <time>2020-10-21T12:24:15Z</time>
      </trkpt>
      <trkpt lat="49.85136" lon="2.50025">
        <ele>96.8</ele>
        <time>2020-10-21T12:24:16Z</time>
      </trkpt>
      <trkpt lat="49.85136" lon="2.50027">
        <ele>96.8</ele>
        <time>2020-10-21T12:24:17Z</time>
      </trkpt>
      <trkpt lat="49.85136" lon="2.50028">
        <ele>96.8</ele>
        <time>2020-10-21T12:24:18Z</time>
      </trkpt>
      <trkpt lat="49.85136" lon="2.5003">
        <ele>96.8</ele>
        <time>2020-10-21T12:24:19Z</time>
      </trkpt>
      <trkpt lat="49.85136" lon="2.50032">
        <ele>96.8</ele>
        <time>2020-10-21T12:24:20Z</time>
      </trkpt>
      <trkpt lat="49.85136" lon="2.50035">
        <ele>96.8</ele>
        <time>2020-10-21T12:24:21Z</time>
      </trkpt>
      <trkpt lat="49.85136" lon="2.50036">
        <ele>96.8</ele>
        <time>2020-10-21T12:24:22Z</time>
      </trkpt>
      <trkpt lat="49.85136" lon="2.50037">
        <ele>96.8</ele>
        <time>2020-10-21T12:24:23Z</time>
      </trkpt>
      <trkpt lat="49.85136" lon="2.50041">
        <ele>96.8</ele>
        <time>2020-10-21T12:24:24Z</time>
      </trkpt>
      <trkpt lat="49.85136" lon="2.50042">
        <ele>96.8</ele>
        <time>2020-10-21T12:24:25Z</time>
      </trkpt>
      <trkpt lat="49.85137" lon="2.50044">
        <ele>96.8</ele>
        <time>2020-10-21T12:24:26Z</time>
      </trkpt>
      <trkpt lat="49.85137" lon="2.50047">
        <ele>96.8</ele>
        <time>2020-10-21T12:24:27Z</time>
      </trkpt>
      <trkpt lat="49.85137" lon="2.50048">
        <ele>96.8</ele>
        <time>2020-10-21T12:24:29Z</time>
      </trkpt>
      <trkpt lat="49.85137" lon="2.5005">
        <ele>96.8</ele>
        <time>2020-10-21T12:24:30Z</time>
      </trkpt>
      <trkpt lat="49.85137" lon="2.50052">
        <ele>96.7</ele>
        <time>2020-10-21T12:24:31Z</time>
      </trkpt>
      <trkpt lat="49.85137" lon="2.50055">
        <ele>96.7</ele>
        <time>2020-10-21T12:24:32Z</time>
      </trkpt>
      <trkpt lat="49.85137" lon="2.50058">
        <ele>96.7</ele>
        <time>2020-10-21T12:24:33Z</time>
      </trkpt>
      <trkpt lat="49.85137" lon="2.5006">
        <ele>96.7</ele>
        <time>2020-10-21T12:24:34Z</time>
      </trkpt>
      <trkpt lat="49.85137" lon="2.50061">
        <ele>96.7</ele>
        <time>2020-10-21T12:24:35Z</time>
      </trkpt>
      <trkpt lat="49.85137" lon="2.50063">
        <ele>96.7</ele>
        <time>2020-10-21T12:24:36Z</time>
      </trkpt>
      <trkpt lat="49.85137" lon="2.50065">
        <ele>96.7</ele>
        <time>2020-10-21T12:24:38Z</time>
      </trkpt>
      <trkpt lat="49.85137" lon="2.50067">
        <ele>96.7</ele>
        <time>2020-10-21T12:24:39Z</time>
      </trkpt>
      <trkpt lat="49.85137" lon="2.5007">
        <ele>96.7</ele>
        <time>2020-10-21T12:24:40Z</time>
      </trkpt>
      <trkpt lat="49.85137" lon="2.50074">
        <ele>96.7</ele>
        <time>2020-10-21T12:24:41Z</time>
      </trkpt>
      <trkpt lat="49.85137" lon="2.50075">
        <ele>96.7</ele>
        <time>2020-10-21T12:24:42Z</time>
      </trkpt>
      <trkpt lat="49.85137" lon="2.50076">
        <ele>96.7</ele>
        <time>2020-10-21T12:24:43Z</time>
      </trkpt>
      <trkpt lat="49.85136" lon="2.50079">
        <ele>96.7</ele>
        <time>2020-10-21T12:24:44Z</time>
      </trkpt>
      <trkpt lat="49.85136" lon="2.50081">
        <ele>96.7</ele>
        <time>2020-10-21T12:24:45Z</time>
      </trkpt>
      <trkpt lat="49.85136" lon="2.50083">
        <ele>96.7</ele>
        <time>2020-10-21T12:24:46Z</time>
      </trkpt>
      <trkpt lat="49.85136" lon="2.50085">
        <ele>96.7</ele>
        <time>2020-10-21T12:24:47Z</time>
      </trkpt>
      <trkpt lat="49.85136" lon="2.50087">
        <ele>96.7</ele>
        <time>2020-10-21T12:24:48Z</time>
      </trkpt>
      <trkpt lat="49.85136" lon="2.50088">
        <ele>96.7</ele>
        <time>2020-10-21T12:24:49Z</time>
      </trkpt>
      <trkpt lat="49.85136" lon="2.50091">
        <ele>96.7</ele>
        <time>2020-10-21T12:24:51Z</time>
      </trkpt>
      <trkpt lat="49.85136" lon="2.50093">
        <ele>96.7</ele>
        <time>2020-10-21T12:24:52Z</time>
      </trkpt>
      <trkpt lat="49.85136" lon="2.50094">
        <ele>96.7</ele>
        <time>2020-10-21T12:24:53Z</time>
      </trkpt>
      <trkpt lat="49.85136" lon="2.50096">
        <ele>96.7</ele>
        <time>2020-10-21T12:24:54Z</time>
      </trkpt>
      <trkpt lat="49.85137" lon="2.50099">
        <ele>96.7</ele>
        <time>2020-10-21T12:24:55Z</time>
      </trkpt>
      <trkpt lat="49.85137" lon="2.50101">
        <ele>96.6</ele>
        <time>2020-10-21T12:24:56Z</time>
      </trkpt>
      <trkpt lat="49.85137" lon="2.50104">
        <ele>96.6</ele>
        <time>2020-10-21T12:24:57Z</time>
      </trkpt>
      <trkpt lat="49.85137" lon="2.50105">
        <ele>96.6</ele>
        <time>2020-10-21T12:24:58Z</time>
      </trkpt>
      <trkpt lat="49.85137" lon="2.50106">
        <ele>96.6</ele>
        <time>2020-10-21T12:24:59Z</time>
      </trkpt>
      <trkpt lat="49.85137" lon="2.50109">
        <ele>96.6</ele>
        <time>2020-10-21T12:25:00Z</time>
      </trkpt>
      <trkpt lat="49.85137" lon="2.5011">
        <ele>96.6</ele>
        <time>2020-10-21T12:25:01Z</time>
      </trkpt>
      <trkpt lat="49.85138" lon="2.50112">
        <ele>96.6</ele>
        <time>2020-10-21T12:25:02Z</time>
      </trkpt>
      <trkpt lat="49.85137" lon="2.50115">
        <ele>96.6</ele>
        <time>2020-10-21T12:25:03Z</time>
      </trkpt>
      <trkpt lat="49.85137" lon="2.50117">
        <ele>96.6</ele>
        <time>2020-10-21T12:25:05Z</time>
      </trkpt>
      <trkpt lat="49.85137" lon="2.50119">
        <ele>96.6</ele>
        <time>2020-10-21T12:25:06Z</time>
      </trkpt>
      <trkpt lat="49.85137" lon="2.50121">
        <ele>96.6</ele>
        <time>2020-10-21T12:25:07Z</time>
      </trkpt>
      <trkpt lat="49.85137" lon="2.50123">
        <ele>96.7</ele>
        <time>2020-10-21T12:25:08Z</time>
      </trkpt>
      <trkpt lat="49.85137" lon="2.50125">
        <ele>96.7</ele>
        <time>2020-10-21T12:25:09Z</time>
      </trkpt>
      <trkpt lat="49.85137" lon="2.50129">
        <ele>96.7</ele>
        <time>2020-10-21T12:25:10Z</time>
      </trkpt>
      <trkpt lat="49.85137" lon="2.50132">
        <ele>96.7</ele>
        <time>2020-10-21T12:25:11Z</time>
      </trkpt>
      <trkpt lat="49.85137" lon="2.50133">
        <ele>96.7</ele>
        <time>2020-10-21T12:25:12Z</time>
      </trkpt>
      <trkpt lat="49.85137" lon="2.50135">
        <ele>96.7</ele>
        <time>2020-10-21T12:25:13Z</time>
      </trkpt>
      <trkpt lat="49.85137" lon="2.50137">
        <ele>96.7</ele>
        <time>2020-10-21T12:25:14Z</time>
      </trkpt>
      <trkpt lat="49.85138" lon="2.50139">
        <ele>96.7</ele>
        <time>2020-10-21T12:25:15Z</time>
      </trkpt>
      <trkpt lat="49.85138" lon="2.50141">
        <ele>96.7</ele>
        <time>2020-10-21T12:25:17Z</time>
      </trkpt>
      <trkpt lat="49.85138" lon="2.50143">
        <ele>96.7</ele>
        <time>2020-10-21T12:25:18Z</time>
      </trkpt>
      <trkpt lat="49.85139" lon="2.50147">
        <ele>96.7</ele>
        <time>2020-10-21T12:25:19Z</time>
      </trkpt>
      <trkpt lat="49.8514" lon="2.50149">
        <ele>96.7</ele>
        <time>2020-10-21T12:25:20Z</time>
      </trkpt>
      <trkpt lat="49.85141" lon="2.5015">
        <ele>96.7</ele>
        <time>2020-10-21T12:25:21Z</time>
      </trkpt>
      <trkpt lat="49.85142" lon="2.50152">
        <ele>96.7</ele>
        <time>2020-10-21T12:25:22Z</time>
      </trkpt>
      <trkpt lat="49.85142" lon="2.50153">
        <ele>96.7</ele>
        <time>2020-10-21T12:25:23Z</time>
      </trkpt>
      <trkpt lat="49.85144" lon="2.50156">
        <ele>96.7</ele>
        <time>2020-10-21T12:25:25Z</time>
      </trkpt>
      <trkpt lat="49.85145" lon="2.50157">
        <ele>96.7</ele>
        <time>2020-10-21T12:25:26Z</time>
      </trkpt>
      <trkpt lat="49.85146" lon="2.50158">
        <ele>96.7</ele>
        <time>2020-10-21T12:25:27Z</time>
      </trkpt>
      <trkpt lat="49.85147" lon="2.5016">
        <ele>96.7</ele>
        <time>2020-10-21T12:25:28Z</time>
      </trkpt>
      <trkpt lat="49.8515" lon="2.50164">
        <ele>96.7</ele>
        <time>2020-10-21T12:25:30Z</time>
      </trkpt>
      <trkpt lat="49.85151" lon="2.50164">
        <ele>96.7</ele>
        <time>2020-10-21T12:25:31Z</time>
      </trkpt>
      <trkpt lat="49.85152" lon="2.50165">
        <ele>96.7</ele>
        <time>2020-10-21T12:25:32Z</time>
      </trkpt>
      <trkpt lat="49.85153" lon="2.50166">
        <ele>96.7</ele>
        <time>2020-10-21T12:25:33Z</time>
      </trkpt>
      <trkpt lat="49.85157" lon="2.50168">
        <ele>96.7</ele>
        <time>2020-10-21T12:25:35Z</time>
      </trkpt>
      <trkpt lat="49.85158" lon="2.50169">
        <ele>96.7</ele>
        <time>2020-10-21T12:25:37Z</time>
      </trkpt>
      <trkpt lat="49.85159" lon="2.50169">
        <ele>96.7</ele>
        <time>2020-10-21T12:25:38Z</time>
      </trkpt>
      <trkpt lat="49.85161" lon="2.5017">
        <ele>96.6</ele>
        <time>2020-10-21T12:25:39Z</time>
      </trkpt>
      <trkpt lat="49.85163" lon="2.50171">
        <ele>96.6</ele>
        <time>2020-10-21T12:25:40Z</time>
      </trkpt>
      <trkpt lat="49.85164" lon="2.50171">
        <ele>96.6</ele>
        <time>2020-10-21T12:25:41Z</time>
      </trkpt>
      <trkpt lat="49.85165" lon="2.50171">
        <ele>96.6</ele>
        <time>2020-10-21T12:25:42Z</time>
      </trkpt>
      <trkpt lat="49.85166" lon="2.50172">
        <ele>96.6</ele>
        <time>2020-10-21T12:25:43Z</time>
      </trkpt>
      <trkpt lat="49.85167" lon="2.50173">
        <ele>96.6</ele>
        <time>2020-10-21T12:25:44Z</time>
      </trkpt>
      <trkpt lat="49.85169" lon="2.50174">
        <ele>96.6</ele>
        <time>2020-10-21T12:25:46Z</time>
      </trkpt>
      <trkpt lat="49.8517" lon="2.50174">
        <ele>96.6</ele>
        <time>2020-10-21T12:25:47Z</time>
      </trkpt>
      <trkpt lat="49.85171" lon="2.50175">
        <ele>96.6</ele>
        <time>2020-10-21T12:25:48Z</time>
      </trkpt>
      <trkpt lat="49.85174" lon="2.50176">
        <ele>96.6</ele>
        <time>2020-10-21T12:25:50Z</time>
      </trkpt>
      <trkpt lat="49.85176" lon="2.50176">
        <ele>96.6</ele>
        <time>2020-10-21T12:25:51Z</time>
      </trkpt>
      <trkpt lat="49.85177" lon="2.50177">
        <ele>96.6</ele>
        <time>2020-10-21T12:25:53Z</time>
      </trkpt>
      <trkpt lat="49.85178" lon="2.50177">
        <ele>96.6</ele>
        <time>2020-10-21T12:25:54Z</time>
      </trkpt>
      <trkpt lat="49.85179" lon="2.50178">
        <ele>96.6</ele>
        <time>2020-10-21T12:25:55Z</time>
      </trkpt>
      <trkpt lat="49.8518" lon="2.50179">
        <ele>96.5</ele>
        <time>2020-10-21T12:25:56Z</time>
      </trkpt>
      <trkpt lat="49.85181" lon="2.5018">
        <ele>96.5</ele>
        <time>2020-10-21T12:25:57Z</time>
      </trkpt>
      <trkpt lat="49.85182" lon="2.50181">
        <ele>96.5</ele>
        <time>2020-10-21T12:25:58Z</time>
      </trkpt>
      <trkpt lat="49.85183" lon="2.50182">
        <ele>96.5</ele>
        <time>2020-10-21T12:25:59Z</time>
      </trkpt>
      <trkpt lat="49.85185" lon="2.50184">
        <ele>96.5</ele>
        <time>2020-10-21T12:26:01Z</time>
      </trkpt>
      <trkpt lat="49.85186" lon="2.50186">
        <ele>96.5</ele>
        <time>2020-10-21T12:26:02Z</time>
      </trkpt>
      <trkpt lat="49.85188" lon="2.50188">
        <ele>96.5</ele>
        <time>2020-10-21T12:26:03Z</time>
      </trkpt>
      <trkpt lat="49.85188" lon="2.50189">
        <ele>96.5</ele>
        <time>2020-10-21T12:26:04Z</time>
      </trkpt>
      <trkpt lat="49.85189" lon="2.5019">
        <ele>96.5</ele>
        <time>2020-10-21T12:26:05Z</time>
      </trkpt>
      <trkpt lat="49.8519" lon="2.50191">
        <ele>96.5</ele>
        <time>2020-10-21T12:26:07Z</time>
      </trkpt>
      <trkpt lat="49.8519" lon="2.50193">
        <ele>96.5</ele>
        <time>2020-10-21T12:26:08Z</time>
      </trkpt>
      <trkpt lat="49.85191" lon="2.50194">
        <ele>96.5</ele>
        <time>2020-10-21T12:26:09Z</time>
      </trkpt>
      <trkpt lat="49.85193" lon="2.50196">
        <ele>96.4</ele>
        <time>2020-10-21T12:26:10Z</time>
      </trkpt>
      <trkpt lat="49.85193" lon="2.50197">
        <ele>96.4</ele>
        <time>2020-10-21T12:26:11Z</time>
      </trkpt>
      <trkpt lat="49.85195" lon="2.50199">
        <ele>96.4</ele>
        <time>2020-10-21T12:26:13Z</time>
      </trkpt>
      <trkpt lat="49.85196" lon="2.502">
        <ele>96.4</ele>
        <time>2020-10-21T12:26:14Z</time>
      </trkpt>
      <trkpt lat="49.85198" lon="2.50202">
        <ele>96.4</ele>
        <time>2020-10-21T12:26:15Z</time>
      </trkpt>
      <trkpt lat="49.85199" lon="2.50203">
        <ele>96.4</ele>
        <time>2020-10-21T12:26:16Z</time>
      </trkpt>
      <trkpt lat="49.852" lon="2.50204">
        <ele>96.4</ele>
        <time>2020-10-21T12:26:18Z</time>
      </trkpt>
      <trkpt lat="49.85202" lon="2.50206">
        <ele>96.4</ele>
        <time>2020-10-21T12:26:19Z</time>
      </trkpt>
      <trkpt lat="49.85203" lon="2.50207">
        <ele>96.4</ele>
        <time>2020-10-21T12:26:20Z</time>
      </trkpt>
      <trkpt lat="49.85204" lon="2.50209">
        <ele>96.4</ele>
        <time>2020-10-21T12:26:21Z</time>
      </trkpt>
      <trkpt lat="49.85205" lon="2.5021">
        <ele>96.4</ele>
        <time>2020-10-21T12:26:22Z</time>
      </trkpt>
      <trkpt lat="49.85206" lon="2.50211">
        <ele>96.4</ele>
        <time>2020-10-21T12:26:23Z</time>
      </trkpt>
      <trkpt lat="49.85207" lon="2.50213">
        <ele>96.4</ele>
        <time>2020-10-21T12:26:24Z</time>
      </trkpt>
      <trkpt lat="49.85208" lon="2.50215">
        <ele>96.4</ele>
        <time>2020-10-21T12:26:25Z</time>
      </trkpt>
      <trkpt lat="49.85209" lon="2.50216">
        <ele>96.4</ele>
        <time>2020-10-21T12:26:26Z</time>
      </trkpt>
      <trkpt lat="49.8521" lon="2.50217">
        <ele>96.4</ele>
        <time>2020-10-21T12:26:27Z</time>
      </trkpt>
      <trkpt lat="49.85211" lon="2.50218">
        <ele>96.4</ele>
        <time>2020-10-21T12:26:28Z</time>
      </trkpt>
      <trkpt lat="49.85211" lon="2.5022">
        <ele>96.4</ele>
        <time>2020-10-21T12:26:29Z</time>
      </trkpt>
      <trkpt lat="49.85213" lon="2.50222">
        <ele>96.4</ele>
        <time>2020-10-21T12:26:30Z</time>
      </trkpt>
      <trkpt lat="49.85213" lon="2.50223">
        <ele>96.4</ele>
        <time>2020-10-21T12:26:31Z</time>
      </trkpt>
      <trkpt lat="49.85214" lon="2.50225">
        <ele>96.4</ele>
        <time>2020-10-21T12:26:33Z</time>
      </trkpt>
      <trkpt lat="49.85216" lon="2.50228">
        <ele>96.4</ele>
        <time>2020-10-21T12:26:34Z</time>
      </trkpt>
      <trkpt lat="49.85217" lon="2.50229">
        <ele>96.4</ele>
        <time>2020-10-21T12:26:35Z</time>
      </trkpt>
      <trkpt lat="49.85218" lon="2.5023">
        <ele>96.4</ele>
        <time>2020-10-21T12:26:37Z</time>
      </trkpt>
      <trkpt lat="49.8522" lon="2.50231">
        <ele>96.4</ele>
        <time>2020-10-21T12:26:39Z</time>
      </trkpt>
      <trkpt lat="49.85222" lon="2.50233">
        <ele>96.4</ele>
        <time>2020-10-21T12:26:40Z</time>
      </trkpt>
      <trkpt lat="49.85223" lon="2.50233">
        <ele>96.4</ele>
        <time>2020-10-21T12:26:41Z</time>
      </trkpt>
      <trkpt lat="49.85224" lon="2.50234">
        <ele>96.4</ele>
        <time>2020-10-21T12:26:42Z</time>
      </trkpt>
      <trkpt lat="49.85226" lon="2.50235">
        <ele>96.4</ele>
        <time>2020-10-21T12:26:43Z</time>
      </trkpt>
      <trkpt lat="49.85227" lon="2.50236">
        <ele>96.4</ele>
        <time>2020-10-21T12:26:44Z</time>
      </trkpt>
      <trkpt lat="49.85228" lon="2.50238">
        <ele>96.4</ele>
        <time>2020-10-21T12:26:46Z</time>
      </trkpt>
      <trkpt lat="49.8523" lon="2.5024">
        <ele>96.4</ele>
        <time>2020-10-21T12:26:47Z</time>
      </trkpt>
      <trkpt lat="49.85231" lon="2.50242">
        <ele>96.4</ele>
        <time>2020-10-21T12:26:48Z</time>
      </trkpt>
      <trkpt lat="49.85232" lon="2.50243">
        <ele>96.3</ele>
        <time>2020-10-21T12:26:49Z</time>
      </trkpt>
      <trkpt lat="49.85233" lon="2.50245">
        <ele>96.3</ele>
        <time>2020-10-21T12:26:50Z</time>
      </trkpt>
      <trkpt lat="49.85234" lon="2.50247">
        <ele>96.3</ele>
        <time>2020-10-21T12:26:51Z</time>
      </trkpt>
      <trkpt lat="49.85235" lon="2.50249">
        <ele>96.3</ele>
        <time>2020-10-21T12:26:53Z</time>
      </trkpt>
      <trkpt lat="49.85236" lon="2.5025">
        <ele>96.3</ele>
        <time>2020-10-21T12:26:54Z</time>
      </trkpt>
      <trkpt lat="49.85237" lon="2.50251">
        <ele>96.3</ele>
        <time>2020-10-21T12:26:55Z</time>
      </trkpt>
      <trkpt lat="49.85238" lon="2.50253">
        <ele>96.3</ele>
        <time>2020-10-21T12:26:56Z</time>
      </trkpt>
      <trkpt lat="49.85239" lon="2.50254">
        <ele>96.2</ele>
        <time>2020-10-21T12:26:57Z</time>
      </trkpt>
      <trkpt lat="49.8524" lon="2.50256">
        <ele>96.2</ele>
        <time>2020-10-21T12:26:58Z</time>
      </trkpt>
      <trkpt lat="49.85241" lon="2.50258">
        <ele>96.2</ele>
        <time>2020-10-21T12:26:59Z</time>
      </trkpt>
      <trkpt lat="49.85242" lon="2.50259">
        <ele>96.2</ele>
        <time>2020-10-21T12:27:00Z</time>
      </trkpt>
      <trkpt lat="49.85243" lon="2.5026">
        <ele>96.2</ele>
        <time>2020-10-21T12:27:01Z</time>
      </trkpt>
      <trkpt lat="49.85245" lon="2.50263">
        <ele>96.2</ele>
        <time>2020-10-21T12:27:03Z</time>
      </trkpt>
      <trkpt lat="49.85246" lon="2.50264">
        <ele>96.1</ele>
        <time>2020-10-21T12:27:04Z</time>
      </trkpt>
      <trkpt lat="49.85247" lon="2.50266">
        <ele>96.1</ele>
        <time>2020-10-21T12:27:05Z</time>
      </trkpt>
      <trkpt lat="49.85249" lon="2.50268">
        <ele>96.1</ele>
        <time>2020-10-21T12:27:06Z</time>
      </trkpt>
      <trkpt lat="49.85249" lon="2.50269">
        <ele>96.1</ele>
        <time>2020-10-21T12:27:07Z</time>
      </trkpt>
      <trkpt lat="49.8525" lon="2.5027">
        <ele>96.1</ele>
        <time>2020-10-21T12:27:08Z</time>
      </trkpt>
      <trkpt lat="49.85251" lon="2.5027">
        <ele>96.1</ele>
        <time>2020-10-21T12:27:09Z</time>
      </trkpt>
      <trkpt lat="49.85252" lon="2.50271">
        <ele>96.1</ele>
        <time>2020-10-21T12:27:10Z</time>
      </trkpt>
      <trkpt lat="49.85253" lon="2.50272">
        <ele>96.1</ele>
        <time>2020-10-21T12:27:12Z</time>
      </trkpt>
      <trkpt lat="49.85254" lon="2.50274">
        <ele>96</ele>
        <time>2020-10-21T12:27:13Z</time>
      </trkpt>
      <trkpt lat="49.85255" lon="2.50275">
        <ele>96</ele>
        <time>2020-10-21T12:27:14Z</time>
      </trkpt>
      <trkpt lat="49.85257" lon="2.50276">
        <ele>96</ele>
        <time>2020-10-21T12:27:15Z</time>
      </trkpt>
      <trkpt lat="49.85258" lon="2.50277">
        <ele>96</ele>
        <time>2020-10-21T12:27:16Z</time>
      </trkpt>
      <trkpt lat="49.85259" lon="2.50277">
        <ele>96</ele>
        <time>2020-10-21T12:27:17Z</time>
      </trkpt>
      <trkpt lat="49.8526" lon="2.50278">
        <ele>96</ele>
        <time>2020-10-21T12:27:18Z</time>
      </trkpt>
      <trkpt lat="49.85262" lon="2.5028">
        <ele>96</ele>
        <time>2020-10-21T12:27:20Z</time>
      </trkpt>
      <trkpt lat="49.85264" lon="2.50282">
        <ele>96</ele>
        <time>2020-10-21T12:27:21Z</time>
      </trkpt>
      <trkpt lat="49.85265" lon="2.50283">
        <ele>96</ele>
        <time>2020-10-21T12:27:22Z</time>
      </trkpt>
      <trkpt lat="49.85266" lon="2.50283">
        <ele>96</ele>
        <time>2020-10-21T12:27:23Z</time>
      </trkpt>
      <trkpt lat="49.85267" lon="2.50285">
        <ele>96</ele>
        <time>2020-10-21T12:27:25Z</time>
      </trkpt>
      <trkpt lat="49.85269" lon="2.50286">
        <ele>96</ele>
        <time>2020-10-21T12:27:26Z</time>
      </trkpt>
      <trkpt lat="49.8527" lon="2.50288">
        <ele>96</ele>
        <time>2020-10-21T12:27:27Z</time>
      </trkpt>
      <trkpt lat="49.85271" lon="2.50289">
        <ele>96</ele>
        <time>2020-10-21T12:27:28Z</time>
      </trkpt>
      <trkpt lat="49.85273" lon="2.50291">
        <ele>96</ele>
        <time>2020-10-21T12:27:29Z</time>
      </trkpt>
      <trkpt lat="49.85274" lon="2.50292">
        <ele>96</ele>
        <time>2020-10-21T12:27:31Z</time>
      </trkpt>
      <trkpt lat="49.85275" lon="2.50293">
        <ele>96</ele>
        <time>2020-10-21T12:27:32Z</time>
      </trkpt>
      <trkpt lat="49.85276" lon="2.50294">
        <ele>96</ele>
        <time>2020-10-21T12:27:33Z</time>
      </trkpt>
      <trkpt lat="49.85277" lon="2.50295">
        <ele>96</ele>
        <time>2020-10-21T12:27:34Z</time>
      </trkpt>
      <trkpt lat="49.85278" lon="2.50296">
        <ele>96</ele>
        <time>2020-10-21T12:27:35Z</time>
      </trkpt>
      <trkpt lat="49.85279" lon="2.50297">
        <ele>96</ele>
        <time>2020-10-21T12:27:36Z</time>
      </trkpt>
      <trkpt lat="49.8528" lon="2.50299">
        <ele>96</ele>
        <time>2020-10-21T12:27:37Z</time>
      </trkpt>
      <trkpt lat="49.85281" lon="2.503">
        <ele>96</ele>
        <time>2020-10-21T12:27:38Z</time>
      </trkpt>
      <trkpt lat="49.85282" lon="2.50301">
        <ele>95.9</ele>
        <time>2020-10-21T12:27:39Z</time>
      </trkpt>
      <trkpt lat="49.85283" lon="2.50302">
        <ele>95.9</ele>
        <time>2020-10-21T12:27:40Z</time>
      </trkpt>
      <trkpt lat="49.85284" lon="2.50303">
        <ele>95.9</ele>
        <time>2020-10-21T12:27:41Z</time>
      </trkpt>
      <trkpt lat="49.85285" lon="2.50305">
        <ele>95.9</ele>
        <time>2020-10-21T12:27:42Z</time>
      </trkpt>
      <trkpt lat="49.85286" lon="2.50306">
        <ele>95.9</ele>
        <time>2020-10-21T12:27:43Z</time>
      </trkpt>
      <trkpt lat="49.85287" lon="2.50307">
        <ele>95.9</ele>
        <time>2020-10-21T12:27:44Z</time>
      </trkpt>
      <trkpt lat="49.85288" lon="2.50309">
        <ele>95.9</ele>
        <time>2020-10-21T12:27:45Z</time>
      </trkpt>
      <trkpt lat="49.85289" lon="2.50311">
        <ele>95.9</ele>
        <time>2020-10-21T12:27:47Z</time>
      </trkpt>
      <trkpt lat="49.8529" lon="2.50312">
        <ele>95.9</ele>
        <time>2020-10-21T12:27:48Z</time>
      </trkpt>
      <trkpt lat="49.85292" lon="2.50314">
        <ele>95.9</ele>
        <time>2020-10-21T12:27:49Z</time>
      </trkpt>
      <trkpt lat="49.85292" lon="2.50315">
        <ele>95.9</ele>
        <time>2020-10-21T12:27:50Z</time>
      </trkpt>
      <trkpt lat="49.85293" lon="2.50316">
        <ele>95.9</ele>
        <time>2020-10-21T12:27:51Z</time>
      </trkpt>
      <trkpt lat="49.85295" lon="2.50317">
        <ele>95.9</ele>
        <time>2020-10-21T12:27:52Z</time>
      </trkpt>
      <trkpt lat="49.85296" lon="2.50319">
        <ele>95.9</ele>
        <time>2020-10-21T12:27:54Z</time>
      </trkpt>
      <trkpt lat="49.85298" lon="2.5032">
        <ele>95.9</ele>
        <time>2020-10-21T12:27:56Z</time>
      </trkpt>
      <trkpt lat="49.853" lon="2.50321">
        <ele>95.9</ele>
        <time>2020-10-21T12:27:57Z</time>
      </trkpt>
      <trkpt lat="49.853" lon="2.50322">
        <ele>95.9</ele>
        <time>2020-10-21T12:27:58Z</time>
      </trkpt>
      <trkpt lat="49.85302" lon="2.50323">
        <ele>95.9</ele>
        <time>2020-10-21T12:27:59Z</time>
      </trkpt>
      <trkpt lat="49.85304" lon="2.50325">
        <ele>95.9</ele>
        <time>2020-10-21T12:28:01Z</time>
      </trkpt>
      <trkpt lat="49.85306" lon="2.50327">
        <ele>95.9</ele>
        <time>2020-10-21T12:28:02Z</time>
      </trkpt>
      <trkpt lat="49.85307" lon="2.50328">
        <ele>95.9</ele>
        <time>2020-10-21T12:28:03Z</time>
      </trkpt>
      <trkpt lat="49.85308" lon="2.50329">
        <ele>95.9</ele>
        <time>2020-10-21T12:28:05Z</time>
      </trkpt>
      <trkpt lat="49.85309" lon="2.5033">
        <ele>95.9</ele>
        <time>2020-10-21T12:28:06Z</time>
      </trkpt>
      <trkpt lat="49.8531" lon="2.50332">
        <ele>95.9</ele>
        <time>2020-10-21T12:28:07Z</time>
      </trkpt>
      <trkpt lat="49.85312" lon="2.50333">
        <ele>95.8</ele>
        <time>2020-10-21T12:28:08Z</time>
      </trkpt>
      <trkpt lat="49.85313" lon="2.50334">
        <ele>95.8</ele>
        <time>2020-10-21T12:28:09Z</time>
      </trkpt>
      <trkpt lat="49.85314" lon="2.50335">
        <ele>95.8</ele>
        <time>2020-10-21T12:28:10Z</time>
      </trkpt>
      <trkpt lat="49.85315" lon="2.50336">
        <ele>95.8</ele>
        <time>2020-10-21T12:28:11Z</time>
      </trkpt>
      <trkpt lat="49.85316" lon="2.50337">
        <ele>95.8</ele>
        <time>2020-10-21T12:28:12Z</time>
      </trkpt>
      <trkpt lat="49.85318" lon="2.50339">
        <ele>95.8</ele>
        <time>2020-10-21T12:28:13Z</time>
      </trkpt>
      <trkpt lat="49.85319" lon="2.5034">
        <ele>95.8</ele>
        <time>2020-10-21T12:28:14Z</time>
      </trkpt>
      <trkpt lat="49.8532" lon="2.50341">
        <ele>95.8</ele>
        <time>2020-10-21T12:28:15Z</time>
      </trkpt>
      <trkpt lat="49.85322" lon="2.50344">
        <ele>95.8</ele>
        <time>2020-10-21T12:28:17Z</time>
      </trkpt>
      <trkpt lat="49.85323" lon="2.50346">
        <ele>95.7</ele>
        <time>2020-10-21T12:28:18Z</time>
      </trkpt>
      <trkpt lat="49.85324" lon="2.50347">
        <ele>95.7</ele>
        <time>2020-10-21T12:28:19Z</time>
      </trkpt>
      <trkpt lat="49.85325" lon="2.5035">
        <ele>95.7</ele>
        <time>2020-10-21T12:28:21Z</time>
      </trkpt>
      <trkpt lat="49.85326" lon="2.50352">
        <ele>95.7</ele>
        <time>2020-10-21T12:28:22Z</time>
      </trkpt>
      <trkpt lat="49.85327" lon="2.50353">
        <ele>95.7</ele>
        <time>2020-10-21T12:28:23Z</time>
      </trkpt>
      <trkpt lat="49.85328" lon="2.50355">
        <ele>95.7</ele>
        <time>2020-10-21T12:28:24Z</time>
      </trkpt>
      <trkpt lat="49.85329" lon="2.50357">
        <ele>95.7</ele>
        <time>2020-10-21T12:28:26Z</time>
      </trkpt>
      <trkpt lat="49.8533" lon="2.50358">
        <ele>95.7</ele>
        <time>2020-10-21T12:28:27Z</time>
      </trkpt>
      <trkpt lat="49.85331" lon="2.50359">
        <ele>95.7</ele>
        <time>2020-10-21T12:28:28Z</time>
      </trkpt>
      <trkpt lat="49.85333" lon="2.50361">
        <ele>95.7</ele>
        <time>2020-10-21T12:28:30Z</time>
      </trkpt>
      <trkpt lat="49.85333" lon="2.50363">
        <ele>95.7</ele>
        <time>2020-10-21T12:28:31Z</time>
      </trkpt>
      <trkpt lat="49.85335" lon="2.50365">
        <ele>95.7</ele>
        <time>2020-10-21T12:28:32Z</time>
      </trkpt>
      <trkpt lat="49.85335" lon="2.50366">
        <ele>95.7</ele>
        <time>2020-10-21T12:28:33Z</time>
      </trkpt>
      <trkpt lat="49.85337" lon="2.50367">
        <ele>95.7</ele>
        <time>2020-10-21T12:28:34Z</time>
      </trkpt>
      <trkpt lat="49.85338" lon="2.50368">
        <ele>95.7</ele>
        <time>2020-10-21T12:28:35Z</time>
      </trkpt>
      <trkpt lat="49.85339" lon="2.50369">
        <ele>95.7</ele>
        <time>2020-10-21T12:28:36Z</time>
      </trkpt>
      <trkpt lat="49.85341" lon="2.5037">
        <ele>95.7</ele>
        <time>2020-10-21T12:28:37Z</time>
      </trkpt>
      <trkpt lat="49.85341" lon="2.50371">
        <ele>95.8</ele>
        <time>2020-10-21T12:28:38Z</time>
      </trkpt>
      <trkpt lat="49.85342" lon="2.50372">
        <ele>95.8</ele>
        <time>2020-10-21T12:28:39Z</time>
      </trkpt>
      <trkpt lat="49.85343" lon="2.50373">
        <ele>95.8</ele>
        <time>2020-10-21T12:28:40Z</time>
      </trkpt>
      <trkpt lat="49.85344" lon="2.50375">
        <ele>95.8</ele>
        <time>2020-10-21T12:28:41Z</time>
      </trkpt>
      <trkpt lat="49.85346" lon="2.50377">
        <ele>95.8</ele>
        <time>2020-10-21T12:28:42Z</time>
      </trkpt>
      <trkpt lat="49.85347" lon="2.50379">
        <ele>95.8</ele>
        <time>2020-10-21T12:28:43Z</time>
      </trkpt>
      <trkpt lat="49.85348" lon="2.5038">
        <ele>95.8</ele>
        <time>2020-10-21T12:28:44Z</time>
      </trkpt>
      <trkpt lat="49.85349" lon="2.50381">
        <ele>95.8</ele>
        <time>2020-10-21T12:28:46Z</time>
      </trkpt>
      <trkpt lat="49.8535" lon="2.50382">
        <ele>95.8</ele>
        <time>2020-10-21T12:28:47Z</time>
      </trkpt>
      <trkpt lat="49.85351" lon="2.50383">
        <ele>95.8</ele>
        <time>2020-10-21T12:28:48Z</time>
      </trkpt>
      <trkpt lat="49.85352" lon="2.50384">
        <ele>95.8</ele>
        <time>2020-10-21T12:28:49Z</time>
      </trkpt>
      <trkpt lat="49.85353" lon="2.50386">
        <ele>95.8</ele>
        <time>2020-10-21T12:28:50Z</time>
      </trkpt>
      <trkpt lat="49.85354" lon="2.50387">
        <ele>95.8</ele>
        <time>2020-10-21T12:28:51Z</time>
      </trkpt>
      <trkpt lat="49.85355" lon="2.50388">
        <ele>95.8</ele>
        <time>2020-10-21T12:28:52Z</time>
      </trkpt>
      <trkpt lat="49.85356" lon="2.5039">
        <ele>95.8</ele>
        <time>2020-10-21T12:28:53Z</time>
      </trkpt>
      <trkpt lat="49.85357" lon="2.50391">
        <ele>95.8</ele>
        <time>2020-10-21T12:28:54Z</time>
      </trkpt>
      <trkpt lat="49.85357" lon="2.50392">
        <ele>95.8</ele>
        <time>2020-10-21T12:28:55Z</time>
      </trkpt>
      <trkpt lat="49.8536" lon="2.50396">
        <ele>95.8</ele>
        <time>2020-10-21T12:28:57Z</time>
      </trkpt>
      <trkpt lat="49.8536" lon="2.50396">
        <ele>95.8</ele>
        <time>2020-10-21T12:28:58Z</time>
      </trkpt>
      <trkpt lat="49.85361" lon="2.50398">
        <ele>95.8</ele>
        <time>2020-10-21T12:28:59Z</time>
      </trkpt>
      <trkpt lat="49.85363" lon="2.50399">
        <ele>95.8</ele>
        <time>2020-10-21T12:29:00Z</time>
      </trkpt>
      <trkpt lat="49.85364" lon="2.50401">
        <ele>95.8</ele>
        <time>2020-10-21T12:29:01Z</time>
      </trkpt>
      <trkpt lat="49.85365" lon="2.50402">
        <ele>95.8</ele>
        <time>2020-10-21T12:29:02Z</time>
      </trkpt>
      <trkpt lat="49.85366" lon="2.50403">
        <ele>95.8</ele>
        <time>2020-10-21T12:29:03Z</time>
      </trkpt>
      <trkpt lat="49.85367" lon="2.50405">
        <ele>95.8</ele>
        <time>2020-10-21T12:29:04Z</time>
      </trkpt>
      <trkpt lat="49.85368" lon="2.50406">
        <ele>95.8</ele>
        <time>2020-10-21T12:29:05Z</time>
      </trkpt>
      <trkpt lat="49.85369" lon="2.50408">
        <ele>95.8</ele>
        <time>2020-10-21T12:29:06Z</time>
      </trkpt>
      <trkpt lat="49.8537" lon="2.50409">
        <ele>95.8</ele>
        <time>2020-10-21T12:29:08Z</time>
      </trkpt>
      <trkpt lat="49.85371" lon="2.5041">
        <ele>95.8</ele>
        <time>2020-10-21T12:29:09Z</time>
      </trkpt>
      <trkpt lat="49.85372" lon="2.50412">
        <ele>95.8</ele>
        <time>2020-10-21T12:29:10Z</time>
      </trkpt>
      <trkpt lat="49.85373" lon="2.50414">
        <ele>95.8</ele>
        <time>2020-10-21T12:29:11Z</time>
      </trkpt>
      <trkpt lat="49.85374" lon="2.50415">
        <ele>95.8</ele>
        <time>2020-10-21T12:29:12Z</time>
      </trkpt>
      <trkpt lat="49.85375" lon="2.50416">
        <ele>95.8</ele>
        <time>2020-10-21T12:29:13Z</time>
      </trkpt>
      <trkpt lat="49.85376" lon="2.50417">
        <ele>95.8</ele>
        <time>2020-10-21T12:29:14Z</time>
      </trkpt>
      <trkpt lat="49.85376" lon="2.50419">
        <ele>95.8</ele>
        <time>2020-10-21T12:29:15Z</time>
      </trkpt>
      <trkpt lat="49.85377" lon="2.50421">
        <ele>95.8</ele>
        <time>2020-10-21T12:29:17Z</time>
      </trkpt>
      <trkpt lat="49.85378" lon="2.50422">
        <ele>95.8</ele>
        <time>2020-10-21T12:29:18Z</time>
      </trkpt>
      <trkpt lat="49.85379" lon="2.50425">
        <ele>95.8</ele>
        <time>2020-10-21T12:29:19Z</time>
      </trkpt>
      <trkpt lat="49.85379" lon="2.50426">
        <ele>95.8</ele>
        <time>2020-10-21T12:29:20Z</time>
      </trkpt>
      <trkpt lat="49.8538" lon="2.50429">
        <ele>95.8</ele>
        <time>2020-10-21T12:29:21Z</time>
      </trkpt>
      <trkpt lat="49.85381" lon="2.50431">
        <ele>95.8</ele>
        <time>2020-10-21T12:29:22Z</time>
      </trkpt>
      <trkpt lat="49.85382" lon="2.50434">
        <ele>95.8</ele>
        <time>2020-10-21T12:29:23Z</time>
      </trkpt>
      <trkpt lat="49.85383" lon="2.50435">
        <ele>95.8</ele>
        <time>2020-10-21T12:29:25Z</time>
      </trkpt>
      <trkpt lat="49.85383" lon="2.50437">
        <ele>95.8</ele>
        <time>2020-10-21T12:29:26Z</time>
      </trkpt>
      <trkpt lat="49.85384" lon="2.50439">
        <ele>95.9</ele>
        <time>2020-10-21T12:29:27Z</time>
      </trkpt>
      <trkpt lat="49.85384" lon="2.50441">
        <ele>95.9</ele>
        <time>2020-10-21T12:29:28Z</time>
      </trkpt>
      <trkpt lat="49.85384" lon="2.50442">
        <ele>95.9</ele>
        <time>2020-10-21T12:29:29Z</time>
      </trkpt>
      <trkpt lat="49.85385" lon="2.50444">
        <ele>95.9</ele>
        <time>2020-10-21T12:29:30Z</time>
      </trkpt>
      <trkpt lat="49.85385" lon="2.50447">
        <ele>95.9</ele>
        <time>2020-10-21T12:29:32Z</time>
      </trkpt>
      <trkpt lat="49.85385" lon="2.50449">
        <ele>95.9</ele>
        <time>2020-10-21T12:29:33Z</time>
      </trkpt>
      <trkpt lat="49.85386" lon="2.50452">
        <ele>95.9</ele>
        <time>2020-10-21T12:29:34Z</time>
      </trkpt>
      <trkpt lat="49.85386" lon="2.50454">
        <ele>95.9</ele>
        <time>2020-10-21T12:29:35Z</time>
      </trkpt>
      <trkpt lat="49.85387" lon="2.50457">
        <ele>95.9</ele>
        <time>2020-10-21T12:29:37Z</time>
      </trkpt>
      <trkpt lat="49.85387" lon="2.50459">
        <ele>95.9</ele>
        <time>2020-10-21T12:29:38Z</time>
      </trkpt>
      <trkpt lat="49.85388" lon="2.50462">
        <ele>95.9</ele>
        <time>2020-10-21T12:29:39Z</time>
      </trkpt>
      <trkpt lat="49.85388" lon="2.50464">
        <ele>95.9</ele>
        <time>2020-10-21T12:29:40Z</time>
      </trkpt>
      <trkpt lat="49.85389" lon="2.50466">
        <ele>95.9</ele>
        <time>2020-10-21T12:29:41Z</time>
      </trkpt>
      <trkpt lat="49.8539" lon="2.50469">
        <ele>95.9</ele>
        <time>2020-10-21T12:29:42Z</time>
      </trkpt>
      <trkpt lat="49.85391" lon="2.50471">
        <ele>95.9</ele>
        <time>2020-10-21T12:29:43Z</time>
      </trkpt>
      <trkpt lat="49.85392" lon="2.50474">
        <ele>95.9</ele>
        <time>2020-10-21T12:29:45Z</time>
      </trkpt>
      <trkpt lat="49.85392" lon="2.50475">
        <ele>95.9</ele>
        <time>2020-10-21T12:29:46Z</time>
      </trkpt>
      <trkpt lat="49.85394" lon="2.50479">
        <ele>95.9</ele>
        <time>2020-10-21T12:29:48Z</time>
      </trkpt>
      <trkpt lat="49.85394" lon="2.5048">
        <ele>95.9</ele>
        <time>2020-10-21T12:29:49Z</time>
      </trkpt>
      <trkpt lat="49.85396" lon="2.50483">
        <ele>95.9</ele>
        <time>2020-10-21T12:29:50Z</time>
      </trkpt>
      <trkpt lat="49.85397" lon="2.50483">
        <ele>95.9</ele>
        <time>2020-10-21T12:29:51Z</time>
      </trkpt>
      <trkpt lat="49.85397" lon="2.50484">
        <ele>95.9</ele>
        <time>2020-10-21T12:29:52Z</time>
      </trkpt>
      <trkpt lat="49.85399" lon="2.50486">
        <ele>95.9</ele>
        <time>2020-10-21T12:29:53Z</time>
      </trkpt>
      <trkpt lat="49.854" lon="2.50488">
        <ele>95.9</ele>
        <time>2020-10-21T12:29:55Z</time>
      </trkpt>
      <trkpt lat="49.85401" lon="2.5049">
        <ele>95.9</ele>
        <time>2020-10-21T12:29:56Z</time>
      </trkpt>
      <trkpt lat="49.85402" lon="2.50492">
        <ele>95.9</ele>
        <time>2020-10-21T12:29:57Z</time>
      </trkpt>
      <trkpt lat="49.85403" lon="2.50494">
        <ele>95.9</ele>
        <time>2020-10-21T12:29:58Z</time>
      </trkpt>
      <trkpt lat="49.85404" lon="2.50496">
        <ele>95.9</ele>
        <time>2020-10-21T12:29:59Z</time>
      </trkpt>
      <trkpt lat="49.85406" lon="2.50498">
        <ele>95.9</ele>
        <time>2020-10-21T12:30:01Z</time>
      </trkpt>
      <trkpt lat="49.85407" lon="2.50499">
        <ele>95.9</ele>
        <time>2020-10-21T12:30:02Z</time>
      </trkpt>
      <trkpt lat="49.85408" lon="2.505">
        <ele>95.9</ele>
        <time>2020-10-21T12:30:03Z</time>
      </trkpt>
      <trkpt lat="49.8541" lon="2.50501">
        <ele>95.9</ele>
        <time>2020-10-21T12:30:04Z</time>
      </trkpt>
      <trkpt lat="49.85411" lon="2.50501">
        <ele>95.9</ele>
        <time>2020-10-21T12:30:05Z</time>
      </trkpt>
      <trkpt lat="49.85412" lon="2.50502">
        <ele>96</ele>
        <time>2020-10-21T12:30:06Z</time>
      </trkpt>
      <trkpt lat="49.85412" lon="2.50504">
        <ele>96</ele>
        <time>2020-10-21T12:30:07Z</time>
      </trkpt>
      <trkpt lat="49.85413" lon="2.50505">
        <ele>96</ele>
        <time>2020-10-21T12:30:08Z</time>
      </trkpt>
      <trkpt lat="49.85414" lon="2.50507">
        <ele>96</ele>
        <time>2020-10-21T12:30:10Z</time>
      </trkpt>
      <trkpt lat="49.85415" lon="2.50509">
        <ele>96</ele>
        <time>2020-10-21T12:30:11Z</time>
      </trkpt>
      <trkpt lat="49.85416" lon="2.50511">
        <ele>96</ele>
        <time>2020-10-21T12:30:12Z</time>
      </trkpt>
      <trkpt lat="49.85417" lon="2.50513">
        <ele>96</ele>
        <time>2020-10-21T12:30:13Z</time>
      </trkpt>
      <trkpt lat="49.85418" lon="2.50515">
        <ele>96</ele>
        <time>2020-10-21T12:30:14Z</time>
      </trkpt>
      <trkpt lat="49.85418" lon="2.50516">
        <ele>96</ele>
        <time>2020-10-21T12:30:15Z</time>
      </trkpt>
      <trkpt lat="49.85419" lon="2.50518">
        <ele>96</ele>
        <time>2020-10-21T12:30:16Z</time>
      </trkpt>
      <trkpt lat="49.85419" lon="2.5052">
        <ele>96</ele>
        <time>2020-10-21T12:30:17Z</time>
      </trkpt>
      <trkpt lat="49.8542" lon="2.50521">
        <ele>96</ele>
        <time>2020-10-21T12:30:18Z</time>
      </trkpt>
      <trkpt lat="49.85421" lon="2.50523">
        <ele>96</ele>
        <time>2020-10-21T12:30:19Z</time>
      </trkpt>
      <trkpt lat="49.85422" lon="2.50524">
        <ele>96</ele>
        <time>2020-10-21T12:30:20Z</time>
      </trkpt>
      <trkpt lat="49.85423" lon="2.50526">
        <ele>96</ele>
        <time>2020-10-21T12:30:21Z</time>
      </trkpt>
      <trkpt lat="49.85424" lon="2.50527">
        <ele>96</ele>
        <time>2020-10-21T12:30:22Z</time>
      </trkpt>
      <trkpt lat="49.85424" lon="2.50528">
        <ele>96</ele>
        <time>2020-10-21T12:30:23Z</time>
      </trkpt>
      <trkpt lat="49.85425" lon="2.5053">
        <ele>96</ele>
        <time>2020-10-21T12:30:24Z</time>
      </trkpt>
      <trkpt lat="49.85425" lon="2.50534">
        <ele>95.9</ele>
        <time>2020-10-21T12:30:26Z</time>
      </trkpt>
      <trkpt lat="49.85426" lon="2.50536">
        <ele>95.9</ele>
        <time>2020-10-21T12:30:27Z</time>
      </trkpt>
      <trkpt lat="49.85426" lon="2.50538">
        <ele>95.9</ele>
        <time>2020-10-21T12:30:28Z</time>
      </trkpt>
      <trkpt lat="49.85427" lon="2.5054">
        <ele>95.9</ele>
        <time>2020-10-21T12:30:29Z</time>
      </trkpt>
      <trkpt lat="49.85427" lon="2.50542">
        <ele>95.9</ele>
        <time>2020-10-21T12:30:30Z</time>
      </trkpt>
      <trkpt lat="49.85427" lon="2.50545">
        <ele>95.9</ele>
        <time>2020-10-21T12:30:31Z</time>
      </trkpt>
      <trkpt lat="49.85427" lon="2.50547">
        <ele>95.8</ele>
        <time>2020-10-21T12:30:32Z</time>
      </trkpt>
      <trkpt lat="49.85427" lon="2.50549">
        <ele>95.8</ele>
        <time>2020-10-21T12:30:33Z</time>
      </trkpt>
      <trkpt lat="49.85426" lon="2.50551">
        <ele>95.8</ele>
        <time>2020-10-21T12:30:34Z</time>
      </trkpt>
      <trkpt lat="49.85426" lon="2.50555">
        <ele>95.8</ele>
        <time>2020-10-21T12:30:36Z</time>
      </trkpt>
      <trkpt lat="49.85425" lon="2.50557">
        <ele>95.8</ele>
        <time>2020-10-21T12:30:37Z</time>
      </trkpt>
      <trkpt lat="49.85425" lon="2.50559">
        <ele>95.8</ele>
        <time>2020-10-21T12:30:38Z</time>
      </trkpt>
      <trkpt lat="49.85425" lon="2.50561">
        <ele>95.8</ele>
        <time>2020-10-21T12:30:39Z</time>
      </trkpt>
      <trkpt lat="49.85424" lon="2.50563">
        <ele>95.8</ele>
        <time>2020-10-21T12:30:40Z</time>
      </trkpt>
      <trkpt lat="49.85424" lon="2.50566">
        <ele>95.8</ele>
        <time>2020-10-21T12:30:41Z</time>
      </trkpt>
      <trkpt lat="49.85424" lon="2.50568">
        <ele>95.8</ele>
        <time>2020-10-21T12:30:42Z</time>
      </trkpt>
      <trkpt lat="49.85423" lon="2.5057">
        <ele>95.8</ele>
        <time>2020-10-21T12:30:43Z</time>
      </trkpt>
      <trkpt lat="49.85423" lon="2.50573">
        <ele>95.8</ele>
        <time>2020-10-21T12:30:45Z</time>
      </trkpt>
      <trkpt lat="49.85422" lon="2.50575">
        <ele>95.8</ele>
        <time>2020-10-21T12:30:46Z</time>
      </trkpt>
      <trkpt lat="49.85422" lon="2.50578">
        <ele>95.8</ele>
        <time>2020-10-21T12:30:47Z</time>
      </trkpt>
      <trkpt lat="49.85421" lon="2.50579">
        <ele>95.8</ele>
        <time>2020-10-21T12:30:48Z</time>
      </trkpt>
      <trkpt lat="49.85421" lon="2.50581">
        <ele>95.8</ele>
        <time>2020-10-21T12:30:49Z</time>
      </trkpt>
      <trkpt lat="49.85421" lon="2.50583">
        <ele>95.8</ele>
        <time>2020-10-21T12:30:50Z</time>
      </trkpt>
      <trkpt lat="49.8542" lon="2.50584">
        <ele>95.8</ele>
        <time>2020-10-21T12:30:51Z</time>
      </trkpt>
      <trkpt lat="49.8542" lon="2.50587">
        <ele>95.9</ele>
        <time>2020-10-21T12:30:52Z</time>
      </trkpt>
      <trkpt lat="49.85419" lon="2.50589">
        <ele>95.9</ele>
        <time>2020-10-21T12:30:54Z</time>
      </trkpt>
      <trkpt lat="49.85419" lon="2.50592">
        <ele>95.9</ele>
        <time>2020-10-21T12:30:55Z</time>
      </trkpt>
      <trkpt lat="49.85419" lon="2.50594">
        <ele>95.9</ele>
        <time>2020-10-21T12:30:56Z</time>
      </trkpt>
      <trkpt lat="49.85418" lon="2.50597">
        <ele>95.9</ele>
        <time>2020-10-21T12:30:57Z</time>
      </trkpt>
      <trkpt lat="49.85418" lon="2.50598">
        <ele>95.9</ele>
        <time>2020-10-21T12:30:58Z</time>
      </trkpt>
      <trkpt lat="49.85418" lon="2.506">
        <ele>95.9</ele>
        <time>2020-10-21T12:30:59Z</time>
      </trkpt>
      <trkpt lat="49.85417" lon="2.50602">
        <ele>95.9</ele>
        <time>2020-10-21T12:31:00Z</time>
      </trkpt>
      <trkpt lat="49.85417" lon="2.50604">
        <ele>95.9</ele>
        <time>2020-10-21T12:31:01Z</time>
      </trkpt>
      <trkpt lat="49.85417" lon="2.50607">
        <ele>95.9</ele>
        <time>2020-10-21T12:31:02Z</time>
      </trkpt>
      <trkpt lat="49.85417" lon="2.50609">
        <ele>95.9</ele>
        <time>2020-10-21T12:31:03Z</time>
      </trkpt>
      <trkpt lat="49.85417" lon="2.5061">
        <ele>95.9</ele>
        <time>2020-10-21T12:31:04Z</time>
      </trkpt>
      <trkpt lat="49.85417" lon="2.50612">
        <ele>95.9</ele>
        <time>2020-10-21T12:31:05Z</time>
      </trkpt>
      <trkpt lat="49.85417" lon="2.50615">
        <ele>95.9</ele>
        <time>2020-10-21T12:31:06Z</time>
      </trkpt>
      <trkpt lat="49.85417" lon="2.50617">
        <ele>95.9</ele>
        <time>2020-10-21T12:31:08Z</time>
      </trkpt>
      <trkpt lat="49.85417" lon="2.50619">
        <ele>95.8</ele>
        <time>2020-10-21T12:31:09Z</time>
      </trkpt>
      <trkpt lat="49.85416" lon="2.50623">
        <ele>95.8</ele>
        <time>2020-10-21T12:31:10Z</time>
      </trkpt>
      <trkpt lat="49.85416" lon="2.50624">
        <ele>95.8</ele>
        <time>2020-10-21T12:31:11Z</time>
      </trkpt>
      <trkpt lat="49.85416" lon="2.50626">
        <ele>95.8</ele>
        <time>2020-10-21T12:31:12Z</time>
      </trkpt>
      <trkpt lat="49.85416" lon="2.50627">
        <ele>95.8</ele>
        <time>2020-10-21T12:31:13Z</time>
      </trkpt>
      <trkpt lat="49.85415" lon="2.50629">
        <ele>95.8</ele>
        <time>2020-10-21T12:31:14Z</time>
      </trkpt>
      <trkpt lat="49.85415" lon="2.5063">
        <ele>95.8</ele>
        <time>2020-10-21T12:31:15Z</time>
      </trkpt>
      <trkpt lat="49.85414" lon="2.50633">
        <ele>95.8</ele>
        <time>2020-10-21T12:31:16Z</time>
      </trkpt>
      <trkpt lat="49.85414" lon="2.50636">
        <ele>95.7</ele>
        <time>2020-10-21T12:31:17Z</time>
      </trkpt>
      <trkpt lat="49.85413" lon="2.50637">
        <ele>95.7</ele>
        <time>2020-10-21T12:31:18Z</time>
      </trkpt>
      <trkpt lat="49.85413" lon="2.50639">
        <ele>95.7</ele>
        <time>2020-10-21T12:31:19Z</time>
      </trkpt>
      <trkpt lat="49.85413" lon="2.50641">
        <ele>95.7</ele>
        <time>2020-10-21T12:31:20Z</time>
      </trkpt>
      <trkpt lat="49.85412" lon="2.50644">
        <ele>95.7</ele>
        <time>2020-10-21T12:31:22Z</time>
      </trkpt>
      <trkpt lat="49.85412" lon="2.50646">
        <ele>95.7</ele>
        <time>2020-10-21T12:31:23Z</time>
      </trkpt>
      <trkpt lat="49.85412" lon="2.50648">
        <ele>95.7</ele>
        <time>2020-10-21T12:31:24Z</time>
      </trkpt>
      <trkpt lat="49.85411" lon="2.5065">
        <ele>95.7</ele>
        <time>2020-10-21T12:31:25Z</time>
      </trkpt>
      <trkpt lat="49.8541" lon="2.50654">
        <ele>95.7</ele>
        <time>2020-10-21T12:31:27Z</time>
      </trkpt>
      <trkpt lat="49.85409" lon="2.50655">
        <ele>95.7</ele>
        <time>2020-10-21T12:31:28Z</time>
      </trkpt>
      <trkpt lat="49.85409" lon="2.50657">
        <ele>95.7</ele>
        <time>2020-10-21T12:31:29Z</time>
      </trkpt>
      <trkpt lat="49.85409" lon="2.50659">
        <ele>95.7</ele>
        <time>2020-10-21T12:31:30Z</time>
      </trkpt>
      <trkpt lat="49.85409" lon="2.50661">
        <ele>95.7</ele>
        <time>2020-10-21T12:31:31Z</time>
      </trkpt>
      <trkpt lat="49.85408" lon="2.50664">
        <ele>95.7</ele>
        <time>2020-10-21T12:31:32Z</time>
      </trkpt>
      <trkpt lat="49.85408" lon="2.50667">
        <ele>95.7</ele>
        <time>2020-10-21T12:31:34Z</time>
      </trkpt>
      <trkpt lat="49.85408" lon="2.50668">
        <ele>95.7</ele>
        <time>2020-10-21T12:31:35Z</time>
      </trkpt>
      <trkpt lat="49.85408" lon="2.5067">
        <ele>95.7</ele>
        <time>2020-10-21T12:31:36Z</time>
      </trkpt>
      <trkpt lat="49.85407" lon="2.50672">
        <ele>95.7</ele>
        <time>2020-10-21T12:31:37Z</time>
      </trkpt>
      <trkpt lat="49.85407" lon="2.50674">
        <ele>95.7</ele>
        <time>2020-10-21T12:31:38Z</time>
      </trkpt>
      <trkpt lat="49.85407" lon="2.50675">
        <ele>95.7</ele>
        <time>2020-10-21T12:31:39Z</time>
      </trkpt>
      <trkpt lat="49.85407" lon="2.50678">
        <ele>95.7</ele>
        <time>2020-10-21T12:31:40Z</time>
      </trkpt>
      <trkpt lat="49.85406" lon="2.5068">
        <ele>95.7</ele>
        <time>2020-10-21T12:31:42Z</time>
      </trkpt>
      <trkpt lat="49.85406" lon="2.50683">
        <ele>95.7</ele>
        <time>2020-10-21T12:31:43Z</time>
      </trkpt>
      <trkpt lat="49.85406" lon="2.50686">
        <ele>95.7</ele>
        <time>2020-10-21T12:31:44Z</time>
      </trkpt>
      <trkpt lat="49.85406" lon="2.50687">
        <ele>95.7</ele>
        <time>2020-10-21T12:31:45Z</time>
      </trkpt>
      <trkpt lat="49.85405" lon="2.50689">
        <ele>95.7</ele>
        <time>2020-10-21T12:31:46Z</time>
      </trkpt>
      <trkpt lat="49.85404" lon="2.50692">
        <ele>95.6</ele>
        <time>2020-10-21T12:31:47Z</time>
      </trkpt>
      <trkpt lat="49.85404" lon="2.50695">
        <ele>95.6</ele>
        <time>2020-10-21T12:31:48Z</time>
      </trkpt>
      <trkpt lat="49.85404" lon="2.50696">
        <ele>95.6</ele>
        <time>2020-10-21T12:31:50Z</time>
      </trkpt>
      <trkpt lat="49.85403" lon="2.50697">
        <ele>95.6</ele>
        <time>2020-10-21T12:31:51Z</time>
      </trkpt>
      <trkpt lat="49.85403" lon="2.50699">
        <ele>95.6</ele>
        <time>2020-10-21T12:31:52Z</time>
      </trkpt>
      <trkpt lat="49.85403" lon="2.50702">
        <ele>95.6</ele>
        <time>2020-10-21T12:31:53Z</time>
      </trkpt>
      <trkpt lat="49.85403" lon="2.50703">
        <ele>95.6</ele>
        <time>2020-10-21T12:31:54Z</time>
      </trkpt>
      <trkpt lat="49.85404" lon="2.50705">
        <ele>95.6</ele>
        <time>2020-10-21T12:31:55Z</time>
      </trkpt>
      <trkpt lat="49.85404" lon="2.50707">
        <ele>95.6</ele>
        <time>2020-10-21T12:31:56Z</time>
      </trkpt>
      <trkpt lat="49.85404" lon="2.5071">
        <ele>95.6</ele>
        <time>2020-10-21T12:31:57Z</time>
      </trkpt>
      <trkpt lat="49.85404" lon="2.50712">
        <ele>95.6</ele>
        <time>2020-10-21T12:31:58Z</time>
      </trkpt>
      <trkpt lat="49.85404" lon="2.50714">
        <ele>95.6</ele>
        <time>2020-10-21T12:31:59Z</time>
      </trkpt>
      <trkpt lat="49.85404" lon="2.50716">
        <ele>95.6</ele>
        <time>2020-10-21T12:32:01Z</time>
      </trkpt>
      <trkpt lat="49.85404" lon="2.5072">
        <ele>95.6</ele>
        <time>2020-10-21T12:32:02Z</time>
      </trkpt>
      <trkpt lat="49.85404" lon="2.50722">
        <ele>95.6</ele>
        <time>2020-10-21T12:32:04Z</time>
      </trkpt>
      <trkpt lat="49.85404" lon="2.50724">
        <ele>95.6</ele>
        <time>2020-10-21T12:32:05Z</time>
      </trkpt>
      <trkpt lat="49.85404" lon="2.50727">
        <ele>95.6</ele>
        <time>2020-10-21T12:32:06Z</time>
      </trkpt>
      <trkpt lat="49.85404" lon="2.5073">
        <ele>95.6</ele>
        <time>2020-10-21T12:32:07Z</time>
      </trkpt>
      <trkpt lat="49.85404" lon="2.50731">
        <ele>95.6</ele>
        <time>2020-10-21T12:32:08Z</time>
      </trkpt>
      <trkpt lat="49.85403" lon="2.50734">
        <ele>95.6</ele>
        <time>2020-10-21T12:32:09Z</time>
      </trkpt>
      <trkpt lat="49.85403" lon="2.50736">
        <ele>95.6</ele>
        <time>2020-10-21T12:32:11Z</time>
      </trkpt>
      <trkpt lat="49.85402" lon="2.50737">
        <ele>95.6</ele>
        <time>2020-10-21T12:32:12Z</time>
      </trkpt>
      <trkpt lat="49.85402" lon="2.5074">
        <ele>95.7</ele>
        <time>2020-10-21T12:32:13Z</time>
      </trkpt>
      <trkpt lat="49.85401" lon="2.50741">
        <ele>95.7</ele>
        <time>2020-10-21T12:32:14Z</time>
      </trkpt>
      <trkpt lat="49.85401" lon="2.50744">
        <ele>95.7</ele>
        <time>2020-10-21T12:32:15Z</time>
      </trkpt>
      <trkpt lat="49.85401" lon="2.50746">
        <ele>95.7</ele>
        <time>2020-10-21T12:32:16Z</time>
      </trkpt>
      <trkpt lat="49.854" lon="2.50747">
        <ele>95.7</ele>
        <time>2020-10-21T12:32:17Z</time>
      </trkpt>
      <trkpt lat="49.854" lon="2.50748">
        <ele>95.7</ele>
        <time>2020-10-21T12:32:18Z</time>
      </trkpt>
      <trkpt lat="49.854" lon="2.5075">
        <ele>95.7</ele>
        <time>2020-10-21T12:32:20Z</time>
      </trkpt>
      <trkpt lat="49.854" lon="2.50753">
        <ele>95.8</ele>
        <time>2020-10-21T12:32:21Z</time>
      </trkpt>
      <trkpt lat="49.854" lon="2.50756">
        <ele>95.8</ele>
        <time>2020-10-21T12:32:22Z</time>
      </trkpt>
      <trkpt lat="49.85399" lon="2.50758">
        <ele>95.8</ele>
        <time>2020-10-21T12:32:24Z</time>
      </trkpt>
      <trkpt lat="49.85399" lon="2.5076">
        <ele>95.8</ele>
        <time>2020-10-21T12:32:25Z</time>
      </trkpt>
      <trkpt lat="49.85399" lon="2.50763">
        <ele>95.8</ele>
        <time>2020-10-21T12:32:26Z</time>
      </trkpt>
      <trkpt lat="49.85399" lon="2.50766">
        <ele>95.8</ele>
        <time>2020-10-21T12:32:27Z</time>
      </trkpt>
      <trkpt lat="49.85399" lon="2.50768">
        <ele>95.8</ele>
        <time>2020-10-21T12:32:29Z</time>
      </trkpt>
      <trkpt lat="49.85399" lon="2.5077">
        <ele>95.8</ele>
        <time>2020-10-21T12:32:30Z</time>
      </trkpt>
      <trkpt lat="49.85399" lon="2.50773">
        <ele>95.8</ele>
        <time>2020-10-21T12:32:31Z</time>
      </trkpt>
      <trkpt lat="49.85399" lon="2.50774">
        <ele>95.8</ele>
        <time>2020-10-21T12:32:32Z</time>
      </trkpt>
      <trkpt lat="49.85398" lon="2.50777">
        <ele>95.7</ele>
        <time>2020-10-21T12:32:33Z</time>
      </trkpt>
      <trkpt lat="49.85398" lon="2.50779">
        <ele>95.7</ele>
        <time>2020-10-21T12:32:34Z</time>
      </trkpt>
      <trkpt lat="49.85398" lon="2.50781">
        <ele>95.7</ele>
        <time>2020-10-21T12:32:35Z</time>
      </trkpt>
      <trkpt lat="49.85398" lon="2.50784">
        <ele>95.7</ele>
        <time>2020-10-21T12:32:36Z</time>
      </trkpt>
      <trkpt lat="49.85397" lon="2.50787">
        <ele>95.6</ele>
        <time>2020-10-21T12:32:38Z</time>
      </trkpt>
      <trkpt lat="49.85397" lon="2.50789">
        <ele>95.6</ele>
        <time>2020-10-21T12:32:39Z</time>
      </trkpt>
      <trkpt lat="49.85397" lon="2.50791">
        <ele>95.6</ele>
        <time>2020-10-21T12:32:40Z</time>
      </trkpt>
      <trkpt lat="49.85396" lon="2.50795">
        <ele>95.6</ele>
        <time>2020-10-21T12:32:41Z</time>
      </trkpt>
      <trkpt lat="49.85396" lon="2.50797">
        <ele>95.6</ele>
        <time>2020-10-21T12:32:42Z</time>
      </trkpt>
      <trkpt lat="49.85395" lon="2.508">
        <ele>95.5</ele>
        <time>2020-10-21T12:32:43Z</time>
      </trkpt>
      <trkpt lat="49.85395" lon="2.50801">
        <ele>95.5</ele>
        <time>2020-10-21T12:32:44Z</time>
      </trkpt>
      <trkpt lat="49.85395" lon="2.50802">
        <ele>95.5</ele>
        <time>2020-10-21T12:32:45Z</time>
      </trkpt>
      <trkpt lat="49.85394" lon="2.50805">
        <ele>95.5</ele>
        <time>2020-10-21T12:32:47Z</time>
      </trkpt>
      <trkpt lat="49.85394" lon="2.50808">
        <ele>95.5</ele>
        <time>2020-10-21T12:32:48Z</time>
      </trkpt>
      <trkpt lat="49.85393" lon="2.50809">
        <ele>95.5</ele>
        <time>2020-10-21T12:32:49Z</time>
      </trkpt>
      <trkpt lat="49.85393" lon="2.50811">
        <ele>95.5</ele>
        <time>2020-10-21T12:32:50Z</time>
      </trkpt>
      <trkpt lat="49.85393" lon="2.50813">
        <ele>95.5</ele>
        <time>2020-10-21T12:32:51Z</time>
      </trkpt>
      <trkpt lat="49.85393" lon="2.50815">
        <ele>95.4</ele>
        <time>2020-10-21T12:32:52Z</time>
      </trkpt>
      <trkpt lat="49.85393" lon="2.50817">
        <ele>95.4</ele>
        <time>2020-10-21T12:32:54Z</time>
      </trkpt>
      <trkpt lat="49.85393" lon="2.50819">
        <ele>95.4</ele>
        <time>2020-10-21T12:32:55Z</time>
      </trkpt>
      <trkpt lat="49.85392" lon="2.50822">
        <ele>95.4</ele>
        <time>2020-10-21T12:32:56Z</time>
      </trkpt>
      <trkpt lat="49.85392" lon="2.50823">
        <ele>95.4</ele>
        <time>2020-10-21T12:32:57Z</time>
      </trkpt>
      <trkpt lat="49.85392" lon="2.50824">
        <ele>95.4</ele>
        <time>2020-10-21T12:32:58Z</time>
      </trkpt>
      <trkpt lat="49.85392" lon="2.50828">
        <ele>95.4</ele>
        <time>2020-10-21T12:32:59Z</time>
      </trkpt>
      <trkpt lat="49.85392" lon="2.50829">
        <ele>95.4</ele>
        <time>2020-10-21T12:33:00Z</time>
      </trkpt>
      <trkpt lat="49.85392" lon="2.5083">
        <ele>95.4</ele>
        <time>2020-10-21T12:33:01Z</time>
      </trkpt>
      <trkpt lat="49.85392" lon="2.50835">
        <ele>95.4</ele>
        <time>2020-10-21T12:33:03Z</time>
      </trkpt>
      <trkpt lat="49.85392" lon="2.50836">
        <ele>95.4</ele>
        <time>2020-10-21T12:33:04Z</time>
      </trkpt>
      <trkpt lat="49.85392" lon="2.50838">
        <ele>95.5</ele>
        <time>2020-10-21T12:33:05Z</time>
      </trkpt>
      <trkpt lat="49.85392" lon="2.50839">
        <ele>95.5</ele>
        <time>2020-10-21T12:33:06Z</time>
      </trkpt>
      <trkpt lat="49.85392" lon="2.50842">
        <ele>95.5</ele>
        <time>2020-10-21T12:33:08Z</time>
      </trkpt>
      <trkpt lat="49.85392" lon="2.50845">
        <ele>95.5</ele>
        <time>2020-10-21T12:33:09Z</time>
      </trkpt>
      <trkpt lat="49.85392" lon="2.50847">
        <ele>95.5</ele>
        <time>2020-10-21T12:33:10Z</time>
      </trkpt>
      <trkpt lat="49.85392" lon="2.50848">
        <ele>95.5</ele>
        <time>2020-10-21T12:33:11Z</time>
      </trkpt>
      <trkpt lat="49.85392" lon="2.5085">
        <ele>95.5</ele>
        <time>2020-10-21T12:33:12Z</time>
      </trkpt>
      <trkpt lat="49.85392" lon="2.50852">
        <ele>95.5</ele>
        <time>2020-10-21T12:33:13Z</time>
      </trkpt>
      <trkpt lat="49.85392" lon="2.50853">
        <ele>95.5</ele>
        <time>2020-10-21T12:33:14Z</time>
      </trkpt>
      <trkpt lat="49.85392" lon="2.50855">
        <ele>95.5</ele>
        <time>2020-10-21T12:33:15Z</time>
      </trkpt>
      <trkpt lat="49.85392" lon="2.50857">
        <ele>95.6</ele>
        <time>2020-10-21T12:33:16Z</time>
      </trkpt>
      <trkpt lat="49.85392" lon="2.50858">
        <ele>95.6</ele>
        <time>2020-10-21T12:33:17Z</time>
      </trkpt>
      <trkpt lat="49.85392" lon="2.50861">
        <ele>95.6</ele>
        <time>2020-10-21T12:33:18Z</time>
      </trkpt>
      <trkpt lat="49.85391" lon="2.50863">
        <ele>95.6</ele>
        <time>2020-10-21T12:33:19Z</time>
      </trkpt>
      <trkpt lat="49.85391" lon="2.50865">
        <ele>95.6</ele>
        <time>2020-10-21T12:33:20Z</time>
      </trkpt>
      <trkpt lat="49.85391" lon="2.50867">
        <ele>95.6</ele>
        <time>2020-10-21T12:33:21Z</time>
      </trkpt>
      <trkpt lat="49.85392" lon="2.50871">
        <ele>95.6</ele>
        <time>2020-10-21T12:33:22Z</time>
      </trkpt>
      <trkpt lat="49.85392" lon="2.50872">
        <ele>95.6</ele>
        <time>2020-10-21T12:33:23Z</time>
      </trkpt>
      <trkpt lat="49.85392" lon="2.50873">
        <ele>95.6</ele>
        <time>2020-10-21T12:33:24Z</time>
      </trkpt>
      <trkpt lat="49.85392" lon="2.50877">
        <ele>95.6</ele>
        <time>2020-10-21T12:33:25Z</time>
      </trkpt>
      <trkpt lat="49.85392" lon="2.50879">
        <ele>95.6</ele>
        <time>2020-10-21T12:33:27Z</time>
      </trkpt>
      <trkpt lat="49.85392" lon="2.5088">
        <ele>95.6</ele>
        <time>2020-10-21T12:33:28Z</time>
      </trkpt>
      <trkpt lat="49.85392" lon="2.50883">
        <ele>95.6</ele>
        <time>2020-10-21T12:33:29Z</time>
      </trkpt>
      <trkpt lat="49.85392" lon="2.50885">
        <ele>95.6</ele>
        <time>2020-10-21T12:33:30Z</time>
      </trkpt>
      <trkpt lat="49.85392" lon="2.50886">
        <ele>95.6</ele>
        <time>2020-10-21T12:33:31Z</time>
      </trkpt>
      <trkpt lat="49.85392" lon="2.50888">
        <ele>95.7</ele>
        <time>2020-10-21T12:33:32Z</time>
      </trkpt>
      <trkpt lat="49.85392" lon="2.50891">
        <ele>95.7</ele>
        <time>2020-10-21T12:33:33Z</time>
      </trkpt>
      <trkpt lat="49.85391" lon="2.50892">
        <ele>95.7</ele>
        <time>2020-10-21T12:33:34Z</time>
      </trkpt>
      <trkpt lat="49.85391" lon="2.50894">
        <ele>95.7</ele>
        <time>2020-10-21T12:33:35Z</time>
      </trkpt>
      <trkpt lat="49.85391" lon="2.50897">
        <ele>95.7</ele>
        <time>2020-10-21T12:33:37Z</time>
      </trkpt>
      <trkpt lat="49.85391" lon="2.50899">
        <ele>95.7</ele>
        <time>2020-10-21T12:33:38Z</time>
      </trkpt>
      <trkpt lat="49.8539" lon="2.50901">
        <ele>95.7</ele>
        <time>2020-10-21T12:33:39Z</time>
      </trkpt>
      <trkpt lat="49.8539" lon="2.50904">
        <ele>95.7</ele>
        <time>2020-10-21T12:33:40Z</time>
      </trkpt>
      <trkpt lat="49.8539" lon="2.50906">
        <ele>95.7</ele>
        <time>2020-10-21T12:33:41Z</time>
      </trkpt>
      <trkpt lat="49.8539" lon="2.5091">
        <ele>95.6</ele>
        <time>2020-10-21T12:33:43Z</time>
      </trkpt>
      <trkpt lat="49.8539" lon="2.50912">
        <ele>95.6</ele>
        <time>2020-10-21T12:33:44Z</time>
      </trkpt>
      <trkpt lat="49.8539" lon="2.50914">
        <ele>95.6</ele>
        <time>2020-10-21T12:33:45Z</time>
      </trkpt>
      <trkpt lat="49.85389" lon="2.50918">
        <ele>95.6</ele>
        <time>2020-10-21T12:33:47Z</time>
      </trkpt>
      <trkpt lat="49.85389" lon="2.50921">
        <ele>95.6</ele>
        <time>2020-10-21T12:33:48Z</time>
      </trkpt>
      <trkpt lat="49.85389" lon="2.50923">
        <ele>95.6</ele>
        <time>2020-10-21T12:33:49Z</time>
      </trkpt>
      <trkpt lat="49.85389" lon="2.50926">
        <ele>95.5</ele>
        <time>2020-10-21T12:33:51Z</time>
      </trkpt>
      <trkpt lat="49.85389" lon="2.50928">
        <ele>95.5</ele>
        <time>2020-10-21T12:33:52Z</time>
      </trkpt>
      <trkpt lat="49.85389" lon="2.50931">
        <ele>95.5</ele>
        <time>2020-10-21T12:33:53Z</time>
      </trkpt>
      <trkpt lat="49.85389" lon="2.50932">
        <ele>95.5</ele>
        <time>2020-10-21T12:33:54Z</time>
      </trkpt>
      <trkpt lat="49.85389" lon="2.50934">
        <ele>95.5</ele>
        <time>2020-10-21T12:33:55Z</time>
      </trkpt>
      <trkpt lat="49.85388" lon="2.50935">
        <ele>95.5</ele>
        <time>2020-10-21T12:33:56Z</time>
      </trkpt>
      <trkpt lat="49.85388" lon="2.50937">
        <ele>95.4</ele>
        <time>2020-10-21T12:33:57Z</time>
      </trkpt>
      <trkpt lat="49.85388" lon="2.50939">
        <ele>95.4</ele>
        <time>2020-10-21T12:33:58Z</time>
      </trkpt>
      <trkpt lat="49.85388" lon="2.50942">
        <ele>95.4</ele>
        <time>2020-10-21T12:33:59Z</time>
      </trkpt>
      <trkpt lat="49.85387" lon="2.50944">
        <ele>95.4</ele>
        <time>2020-10-21T12:34:01Z</time>
      </trkpt>
      <trkpt lat="49.85387" lon="2.50945">
        <ele>95.4</ele>
        <time>2020-10-21T12:34:02Z</time>
      </trkpt>
      <trkpt lat="49.85387" lon="2.50949">
        <ele>95.4</ele>
        <time>2020-10-21T12:34:03Z</time>
      </trkpt>
      <trkpt lat="49.85387" lon="2.5095">
        <ele>95.4</ele>
        <time>2020-10-21T12:34:04Z</time>
      </trkpt>
      <trkpt lat="49.85387" lon="2.50952">
        <ele>95.4</ele>
        <time>2020-10-21T12:34:05Z</time>
      </trkpt>
      <trkpt lat="49.85387" lon="2.50955">
        <ele>95.4</ele>
        <time>2020-10-21T12:34:06Z</time>
      </trkpt>
      <trkpt lat="49.85387" lon="2.50957">
        <ele>95.4</ele>
        <time>2020-10-21T12:34:07Z</time>
      </trkpt>
      <trkpt lat="49.85387" lon="2.5096">
        <ele>95.3</ele>
        <time>2020-10-21T12:34:08Z</time>
      </trkpt>
      <trkpt lat="49.85387" lon="2.50963">
        <ele>95.3</ele>
        <time>2020-10-21T12:34:10Z</time>
      </trkpt>
      <trkpt lat="49.85387" lon="2.50965">
        <ele>95.3</ele>
        <time>2020-10-21T12:34:11Z</time>
      </trkpt>
      <trkpt lat="49.85387" lon="2.50967">
        <ele>95.3</ele>
        <time>2020-10-21T12:34:12Z</time>
      </trkpt>
      <trkpt lat="49.85386" lon="2.5097">
        <ele>95.3</ele>
        <time>2020-10-21T12:34:14Z</time>
      </trkpt>
      <trkpt lat="49.85385" lon="2.50973">
        <ele>95.3</ele>
        <time>2020-10-21T12:34:15Z</time>
      </trkpt>
      <trkpt lat="49.85385" lon="2.50974">
        <ele>95.3</ele>
        <time>2020-10-21T12:34:16Z</time>
      </trkpt>
      <trkpt lat="49.85385" lon="2.50977">
        <ele>95.3</ele>
        <time>2020-10-21T12:34:17Z</time>
      </trkpt>
      <trkpt lat="49.85384" lon="2.5098">
        <ele>95.3</ele>
        <time>2020-10-21T12:34:19Z</time>
      </trkpt>
      <trkpt lat="49.85384" lon="2.50982">
        <ele>95.3</ele>
        <time>2020-10-21T12:34:20Z</time>
      </trkpt>
      <trkpt lat="49.85383" lon="2.50984">
        <ele>95.3</ele>
        <time>2020-10-21T12:34:21Z</time>
      </trkpt>
      <trkpt lat="49.85383" lon="2.50986">
        <ele>95.3</ele>
        <time>2020-10-21T12:34:23Z</time>
      </trkpt>
      <trkpt lat="49.85383" lon="2.50989">
        <ele>95.3</ele>
        <time>2020-10-21T12:34:24Z</time>
      </trkpt>
      <trkpt lat="49.85382" lon="2.50992">
        <ele>95.3</ele>
        <time>2020-10-21T12:34:25Z</time>
      </trkpt>
      <trkpt lat="49.85382" lon="2.50994">
        <ele>95.3</ele>
        <time>2020-10-21T12:34:26Z</time>
      </trkpt>
      <trkpt lat="49.85381" lon="2.50995">
        <ele>95.3</ele>
        <time>2020-10-21T12:34:27Z</time>
      </trkpt>
      <trkpt lat="49.85381" lon="2.50996">
        <ele>95.3</ele>
        <time>2020-10-21T12:34:28Z</time>
      </trkpt>
      <trkpt lat="49.85381" lon="2.50998">
        <ele>95.3</ele>
        <time>2020-10-21T12:34:29Z</time>
      </trkpt>
      <trkpt lat="49.85381" lon="2.51">
        <ele>95.3</ele>
        <time>2020-10-21T12:34:30Z</time>
      </trkpt>
      <trkpt lat="49.85381" lon="2.51002">
        <ele>95.2</ele>
        <time>2020-10-21T12:34:31Z</time>
      </trkpt>
      <trkpt lat="49.85381" lon="2.51005">
        <ele>95.2</ele>
        <time>2020-10-21T12:34:32Z</time>
      </trkpt>
      <trkpt lat="49.85381" lon="2.51007">
        <ele>95.2</ele>
        <time>2020-10-21T12:34:33Z</time>
      </trkpt>
      <trkpt lat="49.85382" lon="2.51009">
        <ele>95.2</ele>
        <time>2020-10-21T12:34:34Z</time>
      </trkpt>
      <trkpt lat="49.85382" lon="2.5101">
        <ele>95.2</ele>
        <time>2020-10-21T12:34:35Z</time>
      </trkpt>
      <trkpt lat="49.85382" lon="2.51014">
        <ele>95.2</ele>
        <time>2020-10-21T12:34:36Z</time>
      </trkpt>
      <trkpt lat="49.85382" lon="2.51015">
        <ele>95.2</ele>
        <time>2020-10-21T12:34:38Z</time>
      </trkpt>
      <trkpt lat="49.85382" lon="2.51017">
        <ele>95.2</ele>
        <time>2020-10-21T12:34:39Z</time>
      </trkpt>
      <trkpt lat="49.85382" lon="2.51019">
        <ele>95.2</ele>
        <time>2020-10-21T12:34:40Z</time>
      </trkpt>
      <trkpt lat="49.85382" lon="2.51021">
        <ele>95.2</ele>
        <time>2020-10-21T12:34:41Z</time>
      </trkpt>
      <trkpt lat="49.85382" lon="2.51024">
        <ele>95.2</ele>
        <time>2020-10-21T12:34:42Z</time>
      </trkpt>
      <trkpt lat="49.85382" lon="2.51025">
        <ele>95.2</ele>
        <time>2020-10-21T12:34:43Z</time>
      </trkpt>
      <trkpt lat="49.85382" lon="2.51026">
        <ele>95.2</ele>
        <time>2020-10-21T12:34:44Z</time>
      </trkpt>
      <trkpt lat="49.85382" lon="2.51028">
        <ele>95.2</ele>
        <time>2020-10-21T12:34:45Z</time>
      </trkpt>
      <trkpt lat="49.85381" lon="2.51029">
        <ele>95.2</ele>
        <time>2020-10-21T12:34:47Z</time>
      </trkpt>
      <trkpt lat="49.85381" lon="2.51032">
        <ele>95.2</ele>
        <time>2020-10-21T12:34:48Z</time>
      </trkpt>
      <trkpt lat="49.85381" lon="2.51033">
        <ele>95.2</ele>
        <time>2020-10-21T12:34:49Z</time>
      </trkpt>
      <trkpt lat="49.85381" lon="2.51036">
        <ele>95.2</ele>
        <time>2020-10-21T12:34:50Z</time>
      </trkpt>
      <trkpt lat="49.85381" lon="2.51037">
        <ele>95.2</ele>
        <time>2020-10-21T12:34:51Z</time>
      </trkpt>
      <trkpt lat="49.85381" lon="2.5104">
        <ele>95.2</ele>
        <time>2020-10-21T12:34:53Z</time>
      </trkpt>
      <trkpt lat="49.85381" lon="2.51042">
        <ele>95.2</ele>
        <time>2020-10-21T12:34:54Z</time>
      </trkpt>
      <trkpt lat="49.85381" lon="2.51045">
        <ele>95.2</ele>
        <time>2020-10-21T12:34:55Z</time>
      </trkpt>
      <trkpt lat="49.85381" lon="2.51047">
        <ele>95.2</ele>
        <time>2020-10-21T12:34:56Z</time>
      </trkpt>
      <trkpt lat="49.85381" lon="2.51048">
        <ele>95.2</ele>
        <time>2020-10-21T12:34:57Z</time>
      </trkpt>
      <trkpt lat="49.85381" lon="2.51051">
        <ele>95.2</ele>
        <time>2020-10-21T12:34:58Z</time>
      </trkpt>
      <trkpt lat="49.85381" lon="2.51052">
        <ele>95.2</ele>
        <time>2020-10-21T12:34:59Z</time>
      </trkpt>
      <trkpt lat="49.85381" lon="2.51053">
        <ele>95.2</ele>
        <time>2020-10-21T12:35:00Z</time>
      </trkpt>
      <trkpt lat="49.85381" lon="2.51054">
        <ele>95.2</ele>
        <time>2020-10-21T12:35:01Z</time>
      </trkpt>
      <trkpt lat="49.85381" lon="2.51057">
        <ele>95.3</ele>
        <time>2020-10-21T12:35:02Z</time>
      </trkpt>
      <trkpt lat="49.85381" lon="2.51059">
        <ele>95.3</ele>
        <time>2020-10-21T12:35:03Z</time>
      </trkpt>
      <trkpt lat="49.8538" lon="2.51062">
        <ele>95.3</ele>
        <time>2020-10-21T12:35:04Z</time>
      </trkpt>
      <trkpt lat="49.8538" lon="2.51064">
        <ele>95.3</ele>
        <time>2020-10-21T12:35:05Z</time>
      </trkpt>
      <trkpt lat="49.8538" lon="2.51065">
        <ele>95.3</ele>
        <time>2020-10-21T12:35:06Z</time>
      </trkpt>
      <trkpt lat="49.8538" lon="2.51068">
        <ele>95.3</ele>
        <time>2020-10-21T12:35:08Z</time>
      </trkpt>
      <trkpt lat="49.8538" lon="2.5107">
        <ele>95.3</ele>
        <time>2020-10-21T12:35:09Z</time>
      </trkpt>
      <trkpt lat="49.8538" lon="2.51074">
        <ele>95.4</ele>
        <time>2020-10-21T12:35:10Z</time>
      </trkpt>
      <trkpt lat="49.8538" lon="2.51075">
        <ele>95.4</ele>
        <time>2020-10-21T12:35:11Z</time>
      </trkpt>
      <trkpt lat="49.8538" lon="2.51076">
        <ele>95.4</ele>
        <time>2020-10-21T12:35:12Z</time>
      </trkpt>
      <trkpt lat="49.8538" lon="2.51077">
        <ele>95.4</ele>
        <time>2020-10-21T12:35:13Z</time>
      </trkpt>
      <trkpt lat="49.8538" lon="2.51079">
        <ele>95.4</ele>
        <time>2020-10-21T12:35:15Z</time>
      </trkpt>
      <trkpt lat="49.8538" lon="2.51081">
        <ele>95.4</ele>
        <time>2020-10-21T12:35:16Z</time>
      </trkpt>
      <trkpt lat="49.8538" lon="2.51085">
        <ele>95.4</ele>
        <time>2020-10-21T12:35:17Z</time>
      </trkpt>
      <trkpt lat="49.8538" lon="2.51086">
        <ele>95.4</ele>
        <time>2020-10-21T12:35:18Z</time>
      </trkpt>
      <trkpt lat="49.8538" lon="2.51089">
        <ele>95.4</ele>
        <time>2020-10-21T12:35:20Z</time>
      </trkpt>
      <trkpt lat="49.8538" lon="2.5109">
        <ele>95.4</ele>
        <time>2020-10-21T12:35:21Z</time>
      </trkpt>
      <trkpt lat="49.8538" lon="2.51092">
        <ele>95.4</ele>
        <time>2020-10-21T12:35:22Z</time>
      </trkpt>
      <trkpt lat="49.8538" lon="2.51093">
        <ele>95.4</ele>
        <time>2020-10-21T12:35:23Z</time>
      </trkpt>
      <trkpt lat="49.85379" lon="2.51094">
        <ele>95.4</ele>
        <time>2020-10-21T12:35:24Z</time>
      </trkpt>
      <trkpt lat="49.85379" lon="2.51097">
        <ele>95.4</ele>
        <time>2020-10-21T12:35:26Z</time>
      </trkpt>
      <trkpt lat="49.85379" lon="2.51099">
        <ele>95.4</ele>
        <time>2020-10-21T12:35:28Z</time>
      </trkpt>
      <trkpt lat="49.85379" lon="2.511">
        <ele>95.5</ele>
        <time>2020-10-21T12:35:29Z</time>
      </trkpt>
      <trkpt lat="49.85378" lon="2.51101">
        <ele>95.5</ele>
        <time>2020-10-21T12:35:30Z</time>
      </trkpt>
      <trkpt lat="49.85378" lon="2.51102">
        <ele>95.5</ele>
        <time>2020-10-21T12:35:32Z</time>
      </trkpt>
      <trkpt lat="49.85378" lon="2.51102">
        <ele>95.5</ele>
        <time>2020-10-21T12:35:33Z</time>
      </trkpt>
      <trkpt lat="49.85378" lon="2.51102">
        <ele>95.5</ele>
        <time>2020-10-21T12:35:34Z</time>
      </trkpt>
      <trkpt lat="49.85378" lon="2.51102">
        <ele>95.5</ele>
        <time>2020-10-21T12:35:36Z</time>
      </trkpt>
      <trkpt lat="49.85378" lon="2.51101">
        <ele>95.5</ele>
        <time>2020-10-21T12:35:38Z</time>
      </trkpt>
      <trkpt lat="49.85378" lon="2.51101">
        <ele>95.5</ele>
        <time>2020-10-21T12:35:39Z</time>
      </trkpt>
      <trkpt lat="49.85378" lon="2.51101">
        <ele>95.5</ele>
        <time>2020-10-21T12:35:41Z</time>
      </trkpt>
      <trkpt lat="49.85378" lon="2.51101">
        <ele>95.5</ele>
        <time>2020-10-21T12:35:43Z</time>
      </trkpt>
      <trkpt lat="49.85378" lon="2.51101">
        <ele>95.5</ele>
        <time>2020-10-21T12:35:44Z</time>
      </trkpt>
      <trkpt lat="49.85378" lon="2.51101">
        <ele>95.5</ele>
        <time>2020-10-21T12:35:45Z</time>
      </trkpt>
      <trkpt lat="49.85378" lon="2.51101">
        <ele>95.5</ele>
        <time>2020-10-21T12:35:46Z</time>
      </trkpt>
      <trkpt lat="49.85378" lon="2.51101">
        <ele>95.5</ele>
        <time>2020-10-21T12:35:47Z</time>
      </trkpt>
      <trkpt lat="49.85378" lon="2.511">
        <ele>95.5</ele>
        <time>2020-10-21T12:35:49Z</time>
      </trkpt>
      <trkpt lat="49.85378" lon="2.511">
        <ele>95.5</ele>
        <time>2020-10-21T12:35:51Z</time>
      </trkpt>
      <trkpt lat="49.85378" lon="2.511">
        <ele>95.5</ele>
        <time>2020-10-21T12:35:52Z</time>
      </trkpt>
      <trkpt lat="49.85378" lon="2.511">
        <ele>95.5</ele>
        <time>2020-10-21T12:35:54Z</time>
      </trkpt>
      <trkpt lat="49.85378" lon="2.511">
        <ele>95.5</ele>
        <time>2020-10-21T12:35:56Z</time>
      </trkpt>
      <trkpt lat="49.85378" lon="2.511">
        <ele>95.5</ele>
        <time>2020-10-21T12:35:58Z</time>
      </trkpt>
      <trkpt lat="49.85378" lon="2.511">
        <ele>95.5</ele>
        <time>2020-10-21T12:36:00Z</time>
      </trkpt>
      <trkpt lat="49.85378" lon="2.511">
        <ele>95.5</ele>
        <time>2020-10-21T12:36:02Z</time>
      </trkpt>
      <trkpt lat="49.85378" lon="2.511">
        <ele>95.5</ele>
        <time>2020-10-21T12:36:04Z</time>
      </trkpt>
      <trkpt lat="49.85378" lon="2.511">
        <ele>95.5</ele>
        <time>2020-10-21T12:36:05Z</time>
      </trkpt>
      <trkpt lat="49.85378" lon="2.511">
        <ele>95.5</ele>
        <time>2020-10-21T12:36:07Z</time>
      </trkpt>
      <trkpt lat="49.85378" lon="2.511">
        <ele>95.5</ele>
        <time>2020-10-21T12:36:09Z</time>
      </trkpt>
      <trkpt lat="49.85378" lon="2.511">
        <ele>95.5</ele>
        <time>2020-10-21T12:36:10Z</time>
      </trkpt>
      <trkpt lat="49.85378" lon="2.511">
        <ele>95.5</ele>
        <time>2020-10-21T12:36:12Z</time>
      </trkpt>
      <trkpt lat="49.85378" lon="2.511">
        <ele>95.5</ele>
        <time>2020-10-21T12:36:14Z</time>
      </trkpt>
      <trkpt lat="49.85378" lon="2.511">
        <ele>95.5</ele>
        <time>2020-10-21T12:36:15Z</time>
      </trkpt>
      <trkpt lat="49.85378" lon="2.511">
        <ele>95.5</ele>
        <time>2020-10-21T12:36:16Z</time>
      </trkpt>
      <trkpt lat="49.85378" lon="2.511">
        <ele>95.5</ele>
        <time>2020-10-21T12:36:18Z</time>
      </trkpt>
      <trkpt lat="49.85378" lon="2.511">
        <ele>95.5</ele>
        <time>2020-10-21T12:36:19Z</time>
      </trkpt>
      <trkpt lat="49.85378" lon="2.511">
        <ele>95.5</ele>
        <time>2020-10-21T12:36:20Z</time>
      </trkpt>
      <trkpt lat="49.85378" lon="2.51097">
        <ele>95.5</ele>
        <time>2020-10-21T12:36:22Z</time>
      </trkpt>
      <trkpt lat="49.85378" lon="2.51095">
        <ele>95.5</ele>
        <time>2020-10-21T12:36:24Z</time>
      </trkpt>
      <trkpt lat="49.85378" lon="2.51095">
        <ele>95.5</ele>
        <time>2020-10-21T12:36:25Z</time>
      </trkpt>
      <trkpt lat="49.85378" lon="2.51095">
        <ele>95.5</ele>
        <time>2020-10-21T12:36:27Z</time>
      </trkpt>
      <trkpt lat="49.85378" lon="2.51095">
        <ele>95.5</ele>
        <time>2020-10-21T12:36:28Z</time>
      </trkpt>
      <trkpt lat="49.85378" lon="2.51095">
        <ele>95.5</ele>
        <time>2020-10-21T12:36:29Z</time>
      </trkpt>
      <trkpt lat="49.85378" lon="2.51095">
        <ele>95.5</ele>
        <time>2020-10-21T12:36:30Z</time>
      </trkpt>
      <trkpt lat="49.85378" lon="2.51095">
        <ele>95.5</ele>
        <time>2020-10-21T12:36:32Z</time>
      </trkpt>
      <trkpt lat="49.85378" lon="2.51095">
        <ele>95.5</ele>
        <time>2020-10-21T12:36:34Z</time>
      </trkpt>
      <trkpt lat="49.85378" lon="2.51095">
        <ele>95.5</ele>
        <time>2020-10-21T12:36:35Z</time>
      </trkpt>
      <trkpt lat="49.85378" lon="2.51095">
        <ele>95.5</ele>
        <time>2020-10-21T12:36:36Z</time>
      </trkpt>
      <trkpt lat="49.85378" lon="2.51095">
        <ele>95.5</ele>
        <time>2020-10-21T12:36:38Z</time>
      </trkpt>
      <trkpt lat="49.85378" lon="2.51095">
        <ele>95.5</ele>
        <time>2020-10-21T12:36:40Z</time>
      </trkpt>
      <trkpt lat="49.85378" lon="2.51095">
        <ele>95.5</ele>
        <time>2020-10-21T12:36:41Z</time>
      </trkpt>
      <trkpt lat="49.85378" lon="2.51095">
        <ele>95.5</ele>
        <time>2020-10-21T12:36:42Z</time>
      </trkpt>
      <trkpt lat="49.85378" lon="2.51095">
        <ele>95.5</ele>
        <time>2020-10-21T12:36:44Z</time>
      </trkpt>
      <trkpt lat="49.85378" lon="2.51095">
        <ele>95.5</ele>
        <time>2020-10-21T12:36:45Z</time>
      </trkpt>
      <trkpt lat="49.85378" lon="2.51095">
        <ele>95.5</ele>
        <time>2020-10-21T12:36:47Z</time>
      </trkpt>
      <trkpt lat="49.85378" lon="2.51095">
        <ele>95.5</ele>
        <time>2020-10-21T12:36:49Z</time>
      </trkpt>
      <trkpt lat="49.85378" lon="2.51095">
        <ele>95.5</ele>
        <time>2020-10-21T12:36:50Z</time>
      </trkpt>
      <trkpt lat="49.85378" lon="2.51095">
        <ele>95.5</ele>
        <time>2020-10-21T12:36:52Z</time>
      </trkpt>
      <trkpt lat="49.85378" lon="2.51095">
        <ele>95.5</ele>
        <time>2020-10-21T12:36:53Z</time>
      </trkpt>
      <trkpt lat="49.85378" lon="2.51095">
        <ele>95.5</ele>
        <time>2020-10-21T12:36:54Z</time>
      </trkpt>
      <trkpt lat="49.85378" lon="2.51095">
        <ele>95.5</ele>
        <time>2020-10-21T12:36:55Z</time>
      </trkpt>
      <trkpt lat="49.85378" lon="2.51095">
        <ele>95.5</ele>
        <time>2020-10-21T12:36:57Z</time>
      </trkpt>
      <trkpt lat="49.85378" lon="2.51095">
        <ele>95.5</ele>
        <time>2020-10-21T12:36:58Z</time>
      </trkpt>
      <trkpt lat="49.85378" lon="2.51095">
        <ele>95.5</ele>
        <time>2020-10-21T12:36:59Z</time>
      </trkpt>
      <trkpt lat="49.85378" lon="2.51095">
        <ele>95.5</ele>
        <time>2020-10-21T12:37:00Z</time>
      </trkpt>
      <trkpt lat="49.85378" lon="2.51095">
        <ele>95.5</ele>
        <time>2020-10-21T12:37:01Z</time>
      </trkpt>
      <trkpt lat="49.85378" lon="2.51095">
        <ele>95.5</ele>
        <time>2020-10-21T12:37:03Z</time>
      </trkpt>
      <trkpt lat="49.85378" lon="2.51096">
        <ele>95.5</ele>
        <time>2020-10-21T12:37:05Z</time>
      </trkpt>
      <trkpt lat="49.85378" lon="2.51097">
        <ele>95.5</ele>
        <time>2020-10-21T12:37:06Z</time>
      </trkpt>
      <trkpt lat="49.85378" lon="2.51097">
        <ele>95.5</ele>
        <time>2020-10-21T12:37:08Z</time>
      </trkpt>
      <trkpt lat="49.85378" lon="2.51097">
        <ele>95.5</ele>
        <time>2020-10-21T12:37:10Z</time>
      </trkpt>
      <trkpt lat="49.85378" lon="2.51097">
        <ele>95.5</ele>
        <time>2020-10-21T12:37:11Z</time>
      </trkpt>
      <trkpt lat="49.85378" lon="2.51097">
        <ele>95.5</ele>
        <time>2020-10-21T12:37:12Z</time>
      </trkpt>
      <trkpt lat="49.85378" lon="2.51097">
        <ele>95.5</ele>
        <time>2020-10-21T12:37:13Z</time>
      </trkpt>
      <trkpt lat="49.85378" lon="2.51097">
        <ele>95.5</ele>
        <time>2020-10-21T12:37:14Z</time>
      </trkpt>
      <trkpt lat="49.85378" lon="2.51097">
        <ele>95.5</ele>
        <time>2020-10-21T12:37:15Z</time>
      </trkpt>
      <trkpt lat="49.85378" lon="2.51097">
        <ele>95.5</ele>
        <time>2020-10-21T12:37:17Z</time>
      </trkpt>
      <trkpt lat="49.85378" lon="2.51099">
        <ele>95.5</ele>
        <time>2020-10-21T12:37:19Z</time>
      </trkpt>
      <trkpt lat="49.85378" lon="2.511">
        <ele>95.5</ele>
        <time>2020-10-21T12:37:20Z</time>
      </trkpt>
      <trkpt lat="49.85378" lon="2.51102">
        <ele>95.5</ele>
        <time>2020-10-21T12:37:21Z</time>
      </trkpt>
      <trkpt lat="49.85377" lon="2.51105">
        <ele>95.5</ele>
        <time>2020-10-21T12:37:22Z</time>
      </trkpt>
      <trkpt lat="49.85377" lon="2.51108">
        <ele>95.5</ele>
        <time>2020-10-21T12:37:24Z</time>
      </trkpt>
      <trkpt lat="49.85377" lon="2.5111">
        <ele>95.5</ele>
        <time>2020-10-21T12:37:25Z</time>
      </trkpt>
      <trkpt lat="49.85376" lon="2.51114">
        <ele>95.5</ele>
        <time>2020-10-21T12:37:27Z</time>
      </trkpt>
      <trkpt lat="49.85376" lon="2.51117">
        <ele>95.5</ele>
        <time>2020-10-21T12:37:29Z</time>
      </trkpt>
      <trkpt lat="49.85376" lon="2.51119">
        <ele>95.5</ele>
        <time>2020-10-21T12:37:30Z</time>
      </trkpt>
      <trkpt lat="49.85376" lon="2.5112">
        <ele>95.5</ele>
        <time>2020-10-21T12:37:31Z</time>
      </trkpt>
      <trkpt lat="49.85376" lon="2.51122">
        <ele>95.5</ele>
        <time>2020-10-21T12:37:32Z</time>
      </trkpt>
      <trkpt lat="49.85376" lon="2.51125">
        <ele>95.5</ele>
        <time>2020-10-21T12:37:34Z</time>
      </trkpt>
      <trkpt lat="49.85374" lon="2.51129">
        <ele>95.5</ele>
        <time>2020-10-21T12:37:36Z</time>
      </trkpt>
      <trkpt lat="49.85372" lon="2.51131">
        <ele>95.5</ele>
        <time>2020-10-21T12:37:38Z</time>
      </trkpt>
      <trkpt lat="49.85371" lon="2.51131">
        <ele>95.5</ele>
        <time>2020-10-21T12:37:39Z</time>
      </trkpt>
      <trkpt lat="49.85369" lon="2.5113">
        <ele>95.5</ele>
        <time>2020-10-21T12:37:40Z</time>
      </trkpt>
      <trkpt lat="49.85368" lon="2.51129">
        <ele>95.3</ele>
        <time>2020-10-21T12:37:42Z</time>
      </trkpt>
      <trkpt lat="49.85367" lon="2.51128">
        <ele>95.3</ele>
        <time>2020-10-21T12:37:43Z</time>
      </trkpt>
      <trkpt lat="49.85366" lon="2.51128">
        <ele>95.3</ele>
        <time>2020-10-21T12:37:44Z</time>
      </trkpt>
      <trkpt lat="49.85365" lon="2.51127">
        <ele>95.3</ele>
        <time>2020-10-21T12:37:46Z</time>
      </trkpt>
      <trkpt lat="49.85364" lon="2.51127">
        <ele>95.2</ele>
        <time>2020-10-21T12:37:47Z</time>
      </trkpt>
      <trkpt lat="49.85363" lon="2.51126">
        <ele>95.2</ele>
        <time>2020-10-21T12:37:48Z</time>
      </trkpt>
      <trkpt lat="49.85362" lon="2.51125">
        <ele>95.2</ele>
        <time>2020-10-21T12:37:49Z</time>
      </trkpt>
      <trkpt lat="49.85361" lon="2.51124">
        <ele>95.1</ele>
        <time>2020-10-21T12:37:50Z</time>
      </trkpt>
      <trkpt lat="49.8536" lon="2.51123">
        <ele>95.1</ele>
        <time>2020-10-21T12:37:51Z</time>
      </trkpt>
      <trkpt lat="49.85359" lon="2.51122">
        <ele>95</ele>
        <time>2020-10-21T12:37:53Z</time>
      </trkpt>
      <trkpt lat="49.85357" lon="2.51121">
        <ele>95</ele>
        <time>2020-10-21T12:37:54Z</time>
      </trkpt>
      <trkpt lat="49.85356" lon="2.5112">
        <ele>94.9</ele>
        <time>2020-10-21T12:37:55Z</time>
      </trkpt>
      <trkpt lat="49.85354" lon="2.51118">
        <ele>94.9</ele>
        <time>2020-10-21T12:37:56Z</time>
      </trkpt>
      <trkpt lat="49.85354" lon="2.51118">
        <ele>94.9</ele>
        <time>2020-10-21T12:37:57Z</time>
      </trkpt>
      <trkpt lat="49.85353" lon="2.51117">
        <ele>94.8</ele>
        <time>2020-10-21T12:37:58Z</time>
      </trkpt>
      <trkpt lat="49.85352" lon="2.51116">
        <ele>94.8</ele>
        <time>2020-10-21T12:37:59Z</time>
      </trkpt>
      <trkpt lat="49.85351" lon="2.51116">
        <ele>94.8</ele>
        <time>2020-10-21T12:38:00Z</time>
      </trkpt>
      <trkpt lat="49.85351" lon="2.51116">
        <ele>94.7</ele>
        <time>2020-10-21T12:38:01Z</time>
      </trkpt>
      <trkpt lat="49.8535" lon="2.51115">
        <ele>94.7</ele>
        <time>2020-10-21T12:38:02Z</time>
      </trkpt>
      <trkpt lat="49.85349" lon="2.51115">
        <ele>94.7</ele>
        <time>2020-10-21T12:38:03Z</time>
      </trkpt>
      <trkpt lat="49.85349" lon="2.51114">
        <ele>94.7</ele>
        <time>2020-10-21T12:38:05Z</time>
      </trkpt>
      <trkpt lat="49.85348" lon="2.51113">
        <ele>94.6</ele>
        <time>2020-10-21T12:38:06Z</time>
      </trkpt>
      <trkpt lat="49.85347" lon="2.51112">
        <ele>94.6</ele>
        <time>2020-10-21T12:38:07Z</time>
      </trkpt>
      <trkpt lat="49.85346" lon="2.51111">
        <ele>94.6</ele>
        <time>2020-10-21T12:38:08Z</time>
      </trkpt>
      <trkpt lat="49.85344" lon="2.5111">
        <ele>94.5</ele>
        <time>2020-10-21T12:38:09Z</time>
      </trkpt>
      <trkpt lat="49.85343" lon="2.51108">
        <ele>94.5</ele>
        <time>2020-10-21T12:38:11Z</time>
      </trkpt>
      <trkpt lat="49.85342" lon="2.51107">
        <ele>94.4</ele>
        <time>2020-10-21T12:38:12Z</time>
      </trkpt>
      <trkpt lat="49.8534" lon="2.51106">
        <ele>94.4</ele>
        <time>2020-10-21T12:38:13Z</time>
      </trkpt>
      <trkpt lat="49.85339" lon="2.51105">
        <ele>94.3</ele>
        <time>2020-10-21T12:38:14Z</time>
      </trkpt>
      <trkpt lat="49.85337" lon="2.51103">
        <ele>94.3</ele>
        <time>2020-10-21T12:38:15Z</time>
      </trkpt>
      <trkpt lat="49.85336" lon="2.51102">
        <ele>94.3</ele>
        <time>2020-10-21T12:38:16Z</time>
      </trkpt>
      <trkpt lat="49.85336" lon="2.51101">
        <ele>94.2</ele>
        <time>2020-10-21T12:38:17Z</time>
      </trkpt>
      <trkpt lat="49.85335" lon="2.51101">
        <ele>94.2</ele>
        <time>2020-10-21T12:38:18Z</time>
      </trkpt>
      <trkpt lat="49.85334" lon="2.511">
        <ele>94.2</ele>
        <time>2020-10-21T12:38:19Z</time>
      </trkpt>
      <trkpt lat="49.85332" lon="2.51099">
        <ele>94.2</ele>
        <time>2020-10-21T12:38:21Z</time>
      </trkpt>
      <trkpt lat="49.85331" lon="2.51097">
        <ele>94.2</ele>
        <time>2020-10-21T12:38:22Z</time>
      </trkpt>
      <trkpt lat="49.8533" lon="2.51096">
        <ele>94.2</ele>
        <time>2020-10-21T12:38:23Z</time>
      </trkpt>
      <trkpt lat="49.85328" lon="2.51095">
        <ele>94.2</ele>
        <time>2020-10-21T12:38:24Z</time>
      </trkpt>
      <trkpt lat="49.85326" lon="2.51093">
        <ele>94.2</ele>
        <time>2020-10-21T12:38:25Z</time>
      </trkpt>
      <trkpt lat="49.85325" lon="2.51093">
        <ele>94.2</ele>
        <time>2020-10-21T12:38:26Z</time>
      </trkpt>
      <trkpt lat="49.85325" lon="2.51091">
        <ele>94.1</ele>
        <time>2020-10-21T12:38:27Z</time>
      </trkpt>
      <trkpt lat="49.85324" lon="2.5109">
        <ele>94.1</ele>
        <time>2020-10-21T12:38:29Z</time>
      </trkpt>
      <trkpt lat="49.85322" lon="2.51088">
        <ele>94.1</ele>
        <time>2020-10-21T12:38:30Z</time>
      </trkpt>
      <trkpt lat="49.85321" lon="2.51087">
        <ele>94.1</ele>
        <time>2020-10-21T12:38:31Z</time>
      </trkpt>
      <trkpt lat="49.8532" lon="2.51086">
        <ele>94.1</ele>
        <time>2020-10-21T12:38:32Z</time>
      </trkpt>
      <trkpt lat="49.85318" lon="2.51085">
        <ele>94.1</ele>
        <time>2020-10-21T12:38:33Z</time>
      </trkpt>
      <trkpt lat="49.85318" lon="2.51085">
        <ele>94.1</ele>
        <time>2020-10-21T12:38:35Z</time>
      </trkpt>
      <trkpt lat="49.85316" lon="2.51084">
        <ele>94.1</ele>
        <time>2020-10-21T12:38:36Z</time>
      </trkpt>
      <trkpt lat="49.85315" lon="2.51084">
        <ele>94.1</ele>
        <time>2020-10-21T12:38:37Z</time>
      </trkpt>
      <trkpt lat="49.85314" lon="2.51084">
        <ele>94.1</ele>
        <time>2020-10-21T12:38:38Z</time>
      </trkpt>
      <trkpt lat="49.85313" lon="2.51083">
        <ele>94.1</ele>
        <time>2020-10-21T12:38:39Z</time>
      </trkpt>
      <trkpt lat="49.85311" lon="2.51083">
        <ele>94</ele>
        <time>2020-10-21T12:38:41Z</time>
      </trkpt>
      <trkpt lat="49.8531" lon="2.51083">
        <ele>94</ele>
        <time>2020-10-21T12:38:42Z</time>
      </trkpt>
      <trkpt lat="49.85309" lon="2.51083">
        <ele>94</ele>
        <time>2020-10-21T12:38:43Z</time>
      </trkpt>
      <trkpt lat="49.85307" lon="2.51083">
        <ele>94</ele>
        <time>2020-10-21T12:38:45Z</time>
      </trkpt>
      <trkpt lat="49.85306" lon="2.51083">
        <ele>94</ele>
        <time>2020-10-21T12:38:46Z</time>
      </trkpt>
      <trkpt lat="49.85304" lon="2.51083">
        <ele>94</ele>
        <time>2020-10-21T12:38:47Z</time>
      </trkpt>
      <trkpt lat="49.85303" lon="2.51084">
        <ele>93.9</ele>
        <time>2020-10-21T12:38:48Z</time>
      </trkpt>
      <trkpt lat="49.85302" lon="2.51084">
        <ele>93.9</ele>
        <time>2020-10-21T12:38:49Z</time>
      </trkpt>
      <trkpt lat="49.85299" lon="2.51085">
        <ele>93.9</ele>
        <time>2020-10-21T12:38:51Z</time>
      </trkpt>
      <trkpt lat="49.85298" lon="2.51085">
        <ele>93.9</ele>
        <time>2020-10-21T12:38:52Z</time>
      </trkpt>
      <trkpt lat="49.85296" lon="2.51085">
        <ele>93.9</ele>
        <time>2020-10-21T12:38:53Z</time>
      </trkpt>
      <trkpt lat="49.85295" lon="2.51085">
        <ele>93.9</ele>
        <time>2020-10-21T12:38:55Z</time>
      </trkpt>
      <trkpt lat="49.85293" lon="2.51085">
        <ele>93.9</ele>
        <time>2020-10-21T12:38:56Z</time>
      </trkpt>
      <trkpt lat="49.85291" lon="2.51085">
        <ele>93.8</ele>
        <time>2020-10-21T12:38:57Z</time>
      </trkpt>
      <trkpt lat="49.8529" lon="2.51085">
        <ele>93.8</ele>
        <time>2020-10-21T12:38:58Z</time>
      </trkpt>
      <trkpt lat="49.85289" lon="2.51085">
        <ele>93.8</ele>
        <time>2020-10-21T12:38:59Z</time>
      </trkpt>
      <trkpt lat="49.85288" lon="2.51085">
        <ele>93.8</ele>
        <time>2020-10-21T12:39:00Z</time>
      </trkpt>
      <trkpt lat="49.85286" lon="2.51085">
        <ele>93.8</ele>
        <time>2020-10-21T12:39:02Z</time>
      </trkpt>
      <trkpt lat="49.85285" lon="2.51085">
        <ele>93.8</ele>
        <time>2020-10-21T12:39:03Z</time>
      </trkpt>
      <trkpt lat="49.85283" lon="2.51084">
        <ele>93.8</ele>
        <time>2020-10-21T12:39:04Z</time>
      </trkpt>
      <trkpt lat="49.85282" lon="2.51084">
        <ele>93.8</ele>
        <time>2020-10-21T12:39:05Z</time>
      </trkpt>
      <trkpt lat="49.85281" lon="2.51083">
        <ele>93.8</ele>
        <time>2020-10-21T12:39:06Z</time>
      </trkpt>
      <trkpt lat="49.85279" lon="2.51083">
        <ele>93.7</ele>
        <time>2020-10-21T12:39:08Z</time>
      </trkpt>
      <trkpt lat="49.85279" lon="2.51083">
        <ele>93.7</ele>
        <time>2020-10-21T12:39:09Z</time>
      </trkpt>
      <trkpt lat="49.85278" lon="2.51083">
        <ele>93.7</ele>
        <time>2020-10-21T12:39:10Z</time>
      </trkpt>
      <trkpt lat="49.85277" lon="2.51082">
        <ele>93.7</ele>
        <time>2020-10-21T12:39:11Z</time>
      </trkpt>
      <trkpt lat="49.85275" lon="2.51082">
        <ele>93.7</ele>
        <time>2020-10-21T12:39:12Z</time>
      </trkpt>
      <trkpt lat="49.85273" lon="2.51082">
        <ele>93.7</ele>
        <time>2020-10-21T12:39:14Z</time>
      </trkpt>
      <trkpt lat="49.85272" lon="2.51082">
        <ele>93.7</ele>
        <time>2020-10-21T12:39:15Z</time>
      </trkpt>
      <trkpt lat="49.85271" lon="2.51082">
        <ele>93.7</ele>
        <time>2020-10-21T12:39:16Z</time>
      </trkpt>
      <trkpt lat="49.8527" lon="2.51082">
        <ele>93.7</ele>
        <time>2020-10-21T12:39:17Z</time>
      </trkpt>
      <trkpt lat="49.85268" lon="2.51082">
        <ele>93.7</ele>
        <time>2020-10-21T12:39:18Z</time>
      </trkpt>
      <trkpt lat="49.85268" lon="2.51083">
        <ele>93.7</ele>
        <time>2020-10-21T12:39:19Z</time>
      </trkpt>
      <trkpt lat="49.85267" lon="2.51082">
        <ele>93.7</ele>
        <time>2020-10-21T12:39:20Z</time>
      </trkpt>
      <trkpt lat="49.85264" lon="2.51082">
        <ele>93.7</ele>
        <time>2020-10-21T12:39:23Z</time>
      </trkpt>
      <trkpt lat="49.85263" lon="2.51082">
        <ele>93.7</ele>
        <time>2020-10-21T12:39:24Z</time>
      </trkpt>
      <trkpt lat="49.85262" lon="2.51082">
        <ele>93.7</ele>
        <time>2020-10-21T12:39:25Z</time>
      </trkpt>
      <trkpt lat="49.85261" lon="2.51082">
        <ele>93.7</ele>
        <time>2020-10-21T12:39:26Z</time>
      </trkpt>
      <trkpt lat="49.8526" lon="2.51081">
        <ele>93.7</ele>
        <time>2020-10-21T12:39:27Z</time>
      </trkpt>
      <trkpt lat="49.85258" lon="2.51081">
        <ele>93.7</ele>
        <time>2020-10-21T12:39:28Z</time>
      </trkpt>
      <trkpt lat="49.85256" lon="2.51081">
        <ele>93.7</ele>
        <time>2020-10-21T12:39:30Z</time>
      </trkpt>
      <trkpt lat="49.85255" lon="2.51081">
        <ele>93.7</ele>
        <time>2020-10-21T12:39:31Z</time>
      </trkpt>
      <trkpt lat="49.85254" lon="2.51081">
        <ele>93.7</ele>
        <time>2020-10-21T12:39:33Z</time>
      </trkpt>
      <trkpt lat="49.85253" lon="2.5108">
        <ele>93.7</ele>
        <time>2020-10-21T12:39:34Z</time>
      </trkpt>
      <trkpt lat="49.85252" lon="2.5108">
        <ele>93.7</ele>
        <time>2020-10-21T12:39:35Z</time>
      </trkpt>
      <trkpt lat="49.85251" lon="2.5108">
        <ele>93.7</ele>
        <time>2020-10-21T12:39:36Z</time>
      </trkpt>
      <trkpt lat="49.8525" lon="2.5108">
        <ele>93.7</ele>
        <time>2020-10-21T12:39:37Z</time>
      </trkpt>
      <trkpt lat="49.85249" lon="2.5108">
        <ele>93.7</ele>
        <time>2020-10-21T12:39:38Z</time>
      </trkpt>
      <trkpt lat="49.85247" lon="2.5108">
        <ele>93.7</ele>
        <time>2020-10-21T12:39:40Z</time>
      </trkpt>
      <trkpt lat="49.85246" lon="2.5108">
        <ele>93.7</ele>
        <time>2020-10-21T12:39:41Z</time>
      </trkpt>
      <trkpt lat="49.85245" lon="2.5108">
        <ele>93.7</ele>
        <time>2020-10-21T12:39:42Z</time>
      </trkpt>
      <trkpt lat="49.85244" lon="2.5108">
        <ele>93.7</ele>
        <time>2020-10-21T12:39:43Z</time>
      </trkpt>
      <trkpt lat="49.85243" lon="2.5108">
        <ele>93.7</ele>
        <time>2020-10-21T12:39:44Z</time>
      </trkpt>
      <trkpt lat="49.85242" lon="2.51079">
        <ele>93.7</ele>
        <time>2020-10-21T12:39:45Z</time>
      </trkpt>
      <trkpt lat="49.85239" lon="2.51079">
        <ele>93.7</ele>
        <time>2020-10-21T12:39:46Z</time>
      </trkpt>
      <trkpt lat="49.85238" lon="2.51078">
        <ele>93.7</ele>
        <time>2020-10-21T12:39:47Z</time>
      </trkpt>
      <trkpt lat="49.85238" lon="2.51078">
        <ele>93.7</ele>
        <time>2020-10-21T12:39:48Z</time>
      </trkpt>
      <trkpt lat="49.85235" lon="2.51078">
        <ele>93.7</ele>
        <time>2020-10-21T12:39:50Z</time>
      </trkpt>
      <trkpt lat="49.85234" lon="2.51078">
        <ele>93.6</ele>
        <time>2020-10-21T12:39:51Z</time>
      </trkpt>
      <trkpt lat="49.85233" lon="2.51079">
        <ele>93.6</ele>
        <time>2020-10-21T12:39:52Z</time>
      </trkpt>
      <trkpt lat="49.85231" lon="2.51079">
        <ele>93.6</ele>
        <time>2020-10-21T12:39:53Z</time>
      </trkpt>
      <trkpt lat="49.85231" lon="2.51078">
        <ele>93.6</ele>
        <time>2020-10-21T12:39:54Z</time>
      </trkpt>
      <trkpt lat="49.85229" lon="2.51078">
        <ele>93.6</ele>
        <time>2020-10-21T12:39:55Z</time>
      </trkpt>
      <trkpt lat="49.85227" lon="2.51078">
        <ele>93.6</ele>
        <time>2020-10-21T12:39:57Z</time>
      </trkpt>
      <trkpt lat="49.85226" lon="2.51077">
        <ele>93.6</ele>
        <time>2020-10-21T12:39:58Z</time>
      </trkpt>
      <trkpt lat="49.85225" lon="2.51077">
        <ele>93.6</ele>
        <time>2020-10-21T12:39:59Z</time>
      </trkpt>
      <trkpt lat="49.85223" lon="2.51077">
        <ele>93.6</ele>
        <time>2020-10-21T12:40:00Z</time>
      </trkpt>
      <trkpt lat="49.85222" lon="2.51077">
        <ele>93.6</ele>
        <time>2020-10-21T12:40:02Z</time>
      </trkpt>
      <trkpt lat="49.8522" lon="2.51076">
        <ele>93.6</ele>
        <time>2020-10-21T12:40:03Z</time>
      </trkpt>
      <trkpt lat="49.85219" lon="2.51076">
        <ele>93.6</ele>
        <time>2020-10-21T12:40:04Z</time>
      </trkpt>
      <trkpt lat="49.85217" lon="2.51075">
        <ele>93.7</ele>
        <time>2020-10-21T12:40:05Z</time>
      </trkpt>
      <trkpt lat="49.85216" lon="2.51075">
        <ele>93.7</ele>
        <time>2020-10-21T12:40:06Z</time>
      </trkpt>
      <trkpt lat="49.85215" lon="2.51075">
        <ele>93.7</ele>
        <time>2020-10-21T12:40:07Z</time>
      </trkpt>
      <trkpt lat="49.85213" lon="2.51075">
        <ele>93.7</ele>
        <time>2020-10-21T12:40:08Z</time>
      </trkpt>
      <trkpt lat="49.85212" lon="2.51075">
        <ele>93.7</ele>
        <time>2020-10-21T12:40:10Z</time>
      </trkpt>
      <trkpt lat="49.85212" lon="2.51074">
        <ele>93.7</ele>
        <time>2020-10-21T12:40:11Z</time>
      </trkpt>
      <trkpt lat="49.85211" lon="2.51074">
        <ele>93.7</ele>
        <time>2020-10-21T12:40:12Z</time>
      </trkpt>
      <trkpt lat="49.85209" lon="2.51074">
        <ele>93.7</ele>
        <time>2020-10-21T12:40:13Z</time>
      </trkpt>
      <trkpt lat="49.85208" lon="2.51073">
        <ele>93.7</ele>
        <time>2020-10-21T12:40:14Z</time>
      </trkpt>
      <trkpt lat="49.85207" lon="2.51073">
        <ele>93.8</ele>
        <time>2020-10-21T12:40:15Z</time>
      </trkpt>
      <trkpt lat="49.85206" lon="2.51073">
        <ele>93.8</ele>
        <time>2020-10-21T12:40:16Z</time>
      </trkpt>
      <trkpt lat="49.85205" lon="2.51073">
        <ele>93.8</ele>
        <time>2020-10-21T12:40:18Z</time>
      </trkpt>
      <trkpt lat="49.85204" lon="2.51073">
        <ele>93.8</ele>
        <time>2020-10-21T12:40:19Z</time>
      </trkpt>
      <trkpt lat="49.85202" lon="2.51073">
        <ele>93.8</ele>
        <time>2020-10-21T12:40:20Z</time>
      </trkpt>
      <trkpt lat="49.85202" lon="2.51073">
        <ele>93.8</ele>
        <time>2020-10-21T12:40:21Z</time>
      </trkpt>
      <trkpt lat="49.852" lon="2.51074">
        <ele>93.8</ele>
        <time>2020-10-21T12:40:22Z</time>
      </trkpt>
      <trkpt lat="49.85199" lon="2.51074">
        <ele>93.8</ele>
        <time>2020-10-21T12:40:23Z</time>
      </trkpt>
      <trkpt lat="49.85198" lon="2.51075">
        <ele>93.8</ele>
        <time>2020-10-21T12:40:25Z</time>
      </trkpt>
      <trkpt lat="49.85197" lon="2.51075">
        <ele>93.8</ele>
        <time>2020-10-21T12:40:26Z</time>
      </trkpt>
      <trkpt lat="49.85196" lon="2.51075">
        <ele>93.8</ele>
        <time>2020-10-21T12:40:27Z</time>
      </trkpt>
      <trkpt lat="49.85195" lon="2.51075">
        <ele>93.8</ele>
        <time>2020-10-21T12:40:28Z</time>
      </trkpt>
      <trkpt lat="49.85193" lon="2.51075">
        <ele>93.8</ele>
        <time>2020-10-21T12:40:29Z</time>
      </trkpt>
      <trkpt lat="49.85192" lon="2.51075">
        <ele>93.8</ele>
        <time>2020-10-21T12:40:30Z</time>
      </trkpt>
      <trkpt lat="49.85191" lon="2.51075">
        <ele>93.8</ele>
        <time>2020-10-21T12:40:31Z</time>
      </trkpt>
      <trkpt lat="49.85189" lon="2.51075">
        <ele>93.8</ele>
        <time>2020-10-21T12:40:32Z</time>
      </trkpt>
      <trkpt lat="49.85188" lon="2.51075">
        <ele>93.8</ele>
        <time>2020-10-21T12:40:33Z</time>
      </trkpt>
      <trkpt lat="49.85186" lon="2.51075">
        <ele>93.8</ele>
        <time>2020-10-21T12:40:35Z</time>
      </trkpt>
      <trkpt lat="49.85184" lon="2.51074">
        <ele>93.8</ele>
        <time>2020-10-21T12:40:36Z</time>
      </trkpt>
      <trkpt lat="49.85183" lon="2.51074">
        <ele>93.8</ele>
        <time>2020-10-21T12:40:37Z</time>
      </trkpt>
      <trkpt lat="49.85182" lon="2.51074">
        <ele>93.8</ele>
        <time>2020-10-21T12:40:39Z</time>
      </trkpt>
      <trkpt lat="49.8518" lon="2.51075">
        <ele>93.8</ele>
        <time>2020-10-21T12:40:40Z</time>
      </trkpt>
      <trkpt lat="49.85179" lon="2.51075">
        <ele>93.9</ele>
        <time>2020-10-21T12:40:41Z</time>
      </trkpt>
      <trkpt lat="49.85177" lon="2.51075">
        <ele>93.9</ele>
        <time>2020-10-21T12:40:42Z</time>
      </trkpt>
      <trkpt lat="49.85176" lon="2.51075">
        <ele>93.9</ele>
        <time>2020-10-21T12:40:43Z</time>
      </trkpt>
      <trkpt lat="49.85175" lon="2.51075">
        <ele>93.9</ele>
        <time>2020-10-21T12:40:44Z</time>
      </trkpt>
      <trkpt lat="49.85174" lon="2.51075">
        <ele>93.9</ele>
        <time>2020-10-21T12:40:46Z</time>
      </trkpt>
      <trkpt lat="49.85173" lon="2.51074">
        <ele>93.9</ele>
        <time>2020-10-21T12:40:47Z</time>
      </trkpt>
      <trkpt lat="49.85171" lon="2.51074">
        <ele>93.9</ele>
        <time>2020-10-21T12:40:48Z</time>
      </trkpt>
      <trkpt lat="49.8517" lon="2.51074">
        <ele>93.9</ele>
        <time>2020-10-21T12:40:49Z</time>
      </trkpt>
      <trkpt lat="49.85169" lon="2.51073">
        <ele>93.9</ele>
        <time>2020-10-21T12:40:50Z</time>
      </trkpt>
      <trkpt lat="49.85168" lon="2.51073">
        <ele>93.9</ele>
        <time>2020-10-21T12:40:51Z</time>
      </trkpt>
      <trkpt lat="49.85166" lon="2.51072">
        <ele>93.9</ele>
        <time>2020-10-21T12:40:52Z</time>
      </trkpt>
      <trkpt lat="49.85165" lon="2.51072">
        <ele>93.9</ele>
        <time>2020-10-21T12:40:53Z</time>
      </trkpt>
      <trkpt lat="49.85164" lon="2.51071">
        <ele>93.9</ele>
        <time>2020-10-21T12:40:54Z</time>
      </trkpt>
      <trkpt lat="49.85163" lon="2.51071">
        <ele>93.9</ele>
        <time>2020-10-21T12:40:56Z</time>
      </trkpt>
      <trkpt lat="49.85162" lon="2.5107">
        <ele>93.9</ele>
        <time>2020-10-21T12:40:57Z</time>
      </trkpt>
      <trkpt lat="49.85161" lon="2.5107">
        <ele>93.9</ele>
        <time>2020-10-21T12:40:58Z</time>
      </trkpt>
      <trkpt lat="49.85159" lon="2.51069">
        <ele>93.9</ele>
        <time>2020-10-21T12:40:59Z</time>
      </trkpt>
      <trkpt lat="49.85158" lon="2.51069">
        <ele>93.9</ele>
        <time>2020-10-21T12:41:00Z</time>
      </trkpt>
      <trkpt lat="49.85157" lon="2.5107">
        <ele>93.9</ele>
        <time>2020-10-21T12:41:01Z</time>
      </trkpt>
      <trkpt lat="49.85156" lon="2.5107">
        <ele>93.9</ele>
        <time>2020-10-21T12:41:02Z</time>
      </trkpt>
      <trkpt lat="49.85154" lon="2.5107">
        <ele>93.9</ele>
        <time>2020-10-21T12:41:03Z</time>
      </trkpt>
      <trkpt lat="49.85152" lon="2.51071">
        <ele>93.9</ele>
        <time>2020-10-21T12:41:05Z</time>
      </trkpt>
      <trkpt lat="49.85151" lon="2.51071">
        <ele>93.9</ele>
        <time>2020-10-21T12:41:06Z</time>
      </trkpt>
      <trkpt lat="49.85149" lon="2.51071">
        <ele>93.9</ele>
        <time>2020-10-21T12:41:07Z</time>
      </trkpt>
      <trkpt lat="49.85148" lon="2.51071">
        <ele>93.9</ele>
        <time>2020-10-21T12:41:08Z</time>
      </trkpt>
      <trkpt lat="49.85147" lon="2.51071">
        <ele>93.9</ele>
        <time>2020-10-21T12:41:09Z</time>
      </trkpt>
      <trkpt lat="49.85145" lon="2.51072">
        <ele>93.9</ele>
        <time>2020-10-21T12:41:11Z</time>
      </trkpt>
      <trkpt lat="49.85144" lon="2.51072">
        <ele>93.9</ele>
        <time>2020-10-21T12:41:12Z</time>
      </trkpt>
      <trkpt lat="49.85143" lon="2.51072">
        <ele>93.9</ele>
        <time>2020-10-21T12:41:13Z</time>
      </trkpt>
      <trkpt lat="49.8514" lon="2.51072">
        <ele>93.9</ele>
        <time>2020-10-21T12:41:14Z</time>
      </trkpt>
      <trkpt lat="49.8514" lon="2.51072">
        <ele>93.9</ele>
        <time>2020-10-21T12:41:15Z</time>
      </trkpt>
      <trkpt lat="49.85139" lon="2.51071">
        <ele>93.9</ele>
        <time>2020-10-21T12:41:16Z</time>
      </trkpt>
      <trkpt lat="49.85138" lon="2.51071">
        <ele>93.9</ele>
        <time>2020-10-21T12:41:17Z</time>
      </trkpt>
      <trkpt lat="49.85136" lon="2.51071">
        <ele>93.9</ele>
        <time>2020-10-21T12:41:18Z</time>
      </trkpt>
      <trkpt lat="49.85135" lon="2.5107">
        <ele>93.9</ele>
        <time>2020-10-21T12:41:20Z</time>
      </trkpt>
      <trkpt lat="49.85134" lon="2.5107">
        <ele>93.9</ele>
        <time>2020-10-21T12:41:21Z</time>
      </trkpt>
      <trkpt lat="49.85132" lon="2.5107">
        <ele>93.9</ele>
        <time>2020-10-21T12:41:22Z</time>
      </trkpt>
      <trkpt lat="49.85131" lon="2.5107">
        <ele>93.9</ele>
        <time>2020-10-21T12:41:23Z</time>
      </trkpt>
      <trkpt lat="49.85129" lon="2.5107">
        <ele>93.9</ele>
        <time>2020-10-21T12:41:25Z</time>
      </trkpt>
      <trkpt lat="49.85128" lon="2.51069">
        <ele>93.9</ele>
        <time>2020-10-21T12:41:26Z</time>
      </trkpt>
      <trkpt lat="49.85127" lon="2.51069">
        <ele>94</ele>
        <time>2020-10-21T12:41:27Z</time>
      </trkpt>
      <trkpt lat="49.85126" lon="2.51068">
        <ele>94</ele>
        <time>2020-10-21T12:41:29Z</time>
      </trkpt>
      <trkpt lat="49.85125" lon="2.51068">
        <ele>94</ele>
        <time>2020-10-21T12:41:30Z</time>
      </trkpt>
      <trkpt lat="49.85124" lon="2.51068">
        <ele>94.1</ele>
        <time>2020-10-21T12:41:31Z</time>
      </trkpt>
      <trkpt lat="49.85122" lon="2.51067">
        <ele>94.1</ele>
        <time>2020-10-21T12:41:32Z</time>
      </trkpt>
      <trkpt lat="49.85121" lon="2.51067">
        <ele>94.2</ele>
        <time>2020-10-21T12:41:33Z</time>
      </trkpt>
      <trkpt lat="49.8512" lon="2.51066">
        <ele>94.2</ele>
        <time>2020-10-21T12:41:34Z</time>
      </trkpt>
      <trkpt lat="49.85119" lon="2.51066">
        <ele>94.2</ele>
        <time>2020-10-21T12:41:35Z</time>
      </trkpt>
      <trkpt lat="49.85117" lon="2.51065">
        <ele>94.3</ele>
        <time>2020-10-21T12:41:37Z</time>
      </trkpt>
      <trkpt lat="49.85115" lon="2.51064">
        <ele>94.4</ele>
        <time>2020-10-21T12:41:38Z</time>
      </trkpt>
      <trkpt lat="49.85114" lon="2.51064">
        <ele>94.4</ele>
        <time>2020-10-21T12:41:39Z</time>
      </trkpt>
      <trkpt lat="49.85111" lon="2.51064">
        <ele>94.5</ele>
        <time>2020-10-21T12:41:40Z</time>
      </trkpt>
      <trkpt lat="49.85111" lon="2.51064">
        <ele>94.5</ele>
        <time>2020-10-21T12:41:42Z</time>
      </trkpt>
      <trkpt lat="49.8511" lon="2.51063">
        <ele>94.5</ele>
        <time>2020-10-21T12:41:43Z</time>
      </trkpt>
      <trkpt lat="49.85107" lon="2.51063">
        <ele>94.6</ele>
        <time>2020-10-21T12:41:44Z</time>
      </trkpt>
      <trkpt lat="49.85107" lon="2.51063">
        <ele>94.6</ele>
        <time>2020-10-21T12:41:45Z</time>
      </trkpt>
      <trkpt lat="49.85106" lon="2.51063">
        <ele>94.6</ele>
        <time>2020-10-21T12:41:46Z</time>
      </trkpt>
      <trkpt lat="49.85105" lon="2.51063">
        <ele>94.7</ele>
        <time>2020-10-21T12:41:47Z</time>
      </trkpt>
      <trkpt lat="49.85103" lon="2.51063">
        <ele>94.7</ele>
        <time>2020-10-21T12:41:48Z</time>
      </trkpt>
      <trkpt lat="49.85102" lon="2.51062">
        <ele>94.7</ele>
        <time>2020-10-21T12:41:50Z</time>
      </trkpt>
      <trkpt lat="49.851" lon="2.51062">
        <ele>94.8</ele>
        <time>2020-10-21T12:41:51Z</time>
      </trkpt>
      <trkpt lat="49.85099" lon="2.51062">
        <ele>94.8</ele>
        <time>2020-10-21T12:41:52Z</time>
      </trkpt>
      <trkpt lat="49.85098" lon="2.51062">
        <ele>94.8</ele>
        <time>2020-10-21T12:41:53Z</time>
      </trkpt>
      <trkpt lat="49.85097" lon="2.51062">
        <ele>94.8</ele>
        <time>2020-10-21T12:41:54Z</time>
      </trkpt>
      <trkpt lat="49.85096" lon="2.51062">
        <ele>94.8</ele>
        <time>2020-10-21T12:41:55Z</time>
      </trkpt>
      <trkpt lat="49.85095" lon="2.51062">
        <ele>94.8</ele>
        <time>2020-10-21T12:41:56Z</time>
      </trkpt>
      <trkpt lat="49.85093" lon="2.51061">
        <ele>94.8</ele>
        <time>2020-10-21T12:41:57Z</time>
      </trkpt>
      <trkpt lat="49.85092" lon="2.51061">
        <ele>94.8</ele>
        <time>2020-10-21T12:41:58Z</time>
      </trkpt>
      <trkpt lat="49.85091" lon="2.51061">
        <ele>94.8</ele>
        <time>2020-10-21T12:42:00Z</time>
      </trkpt>
      <trkpt lat="49.85089" lon="2.5106">
        <ele>94.8</ele>
        <time>2020-10-21T12:42:01Z</time>
      </trkpt>
      <trkpt lat="49.85088" lon="2.5106">
        <ele>94.8</ele>
        <time>2020-10-21T12:42:02Z</time>
      </trkpt>
      <trkpt lat="49.85087" lon="2.5106">
        <ele>94.8</ele>
        <time>2020-10-21T12:42:03Z</time>
      </trkpt>
      <trkpt lat="49.85086" lon="2.5106">
        <ele>94.8</ele>
        <time>2020-10-21T12:42:04Z</time>
      </trkpt>
      <trkpt lat="49.85084" lon="2.5106">
        <ele>94.8</ele>
        <time>2020-10-21T12:42:05Z</time>
      </trkpt>
      <trkpt lat="49.85083" lon="2.5106">
        <ele>94.8</ele>
        <time>2020-10-21T12:42:06Z</time>
      </trkpt>
      <trkpt lat="49.85082" lon="2.5106">
        <ele>94.8</ele>
        <time>2020-10-21T12:42:07Z</time>
      </trkpt>
      <trkpt lat="49.85081" lon="2.5106">
        <ele>94.8</ele>
        <time>2020-10-21T12:42:09Z</time>
      </trkpt>
      <trkpt lat="49.85079" lon="2.5106">
        <ele>94.8</ele>
        <time>2020-10-21T12:42:10Z</time>
      </trkpt>
      <trkpt lat="49.85078" lon="2.5106">
        <ele>94.9</ele>
        <time>2020-10-21T12:42:11Z</time>
      </trkpt>
      <trkpt lat="49.85077" lon="2.5106">
        <ele>94.9</ele>
        <time>2020-10-21T12:42:12Z</time>
      </trkpt>
      <trkpt lat="49.85076" lon="2.51059">
        <ele>94.9</ele>
        <time>2020-10-21T12:42:13Z</time>
      </trkpt>
      <trkpt lat="49.85075" lon="2.51059">
        <ele>94.9</ele>
        <time>2020-10-21T12:42:14Z</time>
      </trkpt>
      <trkpt lat="49.85073" lon="2.51059">
        <ele>95</ele>
        <time>2020-10-21T12:42:15Z</time>
      </trkpt>
      <trkpt lat="49.85072" lon="2.51059">
        <ele>95</ele>
        <time>2020-10-21T12:42:16Z</time>
      </trkpt>
      <trkpt lat="49.85071" lon="2.51058">
        <ele>95</ele>
        <time>2020-10-21T12:42:17Z</time>
      </trkpt>
      <trkpt lat="49.85069" lon="2.51058">
        <ele>95</ele>
        <time>2020-10-21T12:42:19Z</time>
      </trkpt>
      <trkpt lat="49.85068" lon="2.51057">
        <ele>95.1</ele>
        <time>2020-10-21T12:42:20Z</time>
      </trkpt>
      <trkpt lat="49.85067" lon="2.51057">
        <ele>95.1</ele>
        <time>2020-10-21T12:42:21Z</time>
      </trkpt>
      <trkpt lat="49.85066" lon="2.51057">
        <ele>95.1</ele>
        <time>2020-10-21T12:42:22Z</time>
      </trkpt>
      <trkpt lat="49.85065" lon="2.51056">
        <ele>95.1</ele>
        <time>2020-10-21T12:42:23Z</time>
      </trkpt>
      <trkpt lat="49.85064" lon="2.51055">
        <ele>95.1</ele>
        <time>2020-10-21T12:42:24Z</time>
      </trkpt>
      <trkpt lat="49.85062" lon="2.51054">
        <ele>95.1</ele>
        <time>2020-10-21T12:42:25Z</time>
      </trkpt>
      <trkpt lat="49.85061" lon="2.51053">
        <ele>95.1</ele>
        <time>2020-10-21T12:42:27Z</time>
      </trkpt>
      <trkpt lat="49.8506" lon="2.51053">
        <ele>95.1</ele>
        <time>2020-10-21T12:42:28Z</time>
      </trkpt>
      <trkpt lat="49.85058" lon="2.51052">
        <ele>95.1</ele>
        <time>2020-10-21T12:42:29Z</time>
      </trkpt>
      <trkpt lat="49.85057" lon="2.51052">
        <ele>95.2</ele>
        <time>2020-10-21T12:42:30Z</time>
      </trkpt>
      <trkpt lat="49.85056" lon="2.51051">
        <ele>95.2</ele>
        <time>2020-10-21T12:42:31Z</time>
      </trkpt>
      <trkpt lat="49.85055" lon="2.51051">
        <ele>95.2</ele>
        <time>2020-10-21T12:42:33Z</time>
      </trkpt>
      <trkpt lat="49.85054" lon="2.5105">
        <ele>95.2</ele>
        <time>2020-10-21T12:42:34Z</time>
      </trkpt>
      <trkpt lat="49.85052" lon="2.5105">
        <ele>95.2</ele>
        <time>2020-10-21T12:42:35Z</time>
      </trkpt>
      <trkpt lat="49.85051" lon="2.51049">
        <ele>95.2</ele>
        <time>2020-10-21T12:42:36Z</time>
      </trkpt>
      <trkpt lat="49.8505" lon="2.51048">
        <ele>95.2</ele>
        <time>2020-10-21T12:42:38Z</time>
      </trkpt>
      <trkpt lat="49.85048" lon="2.51048">
        <ele>95.3</ele>
        <time>2020-10-21T12:42:39Z</time>
      </trkpt>
      <trkpt lat="49.85047" lon="2.51047">
        <ele>95.3</ele>
        <time>2020-10-21T12:42:40Z</time>
      </trkpt>
      <trkpt lat="49.85046" lon="2.51047">
        <ele>95.3</ele>
        <time>2020-10-21T12:42:41Z</time>
      </trkpt>
      <trkpt lat="49.85044" lon="2.51046">
        <ele>95.3</ele>
        <time>2020-10-21T12:42:43Z</time>
      </trkpt>
      <trkpt lat="49.85043" lon="2.51045">
        <ele>95.3</ele>
        <time>2020-10-21T12:42:44Z</time>
      </trkpt>
      <trkpt lat="49.85042" lon="2.51045">
        <ele>95.3</ele>
        <time>2020-10-21T12:42:45Z</time>
      </trkpt>
      <trkpt lat="49.85041" lon="2.51045">
        <ele>95.4</ele>
        <time>2020-10-21T12:42:46Z</time>
      </trkpt>
      <trkpt lat="49.8504" lon="2.51044">
        <ele>95.4</ele>
        <time>2020-10-21T12:42:47Z</time>
      </trkpt>
      <trkpt lat="49.85039" lon="2.51044">
        <ele>95.4</ele>
        <time>2020-10-21T12:42:48Z</time>
      </trkpt>
      <trkpt lat="49.85037" lon="2.51043">
        <ele>95.4</ele>
        <time>2020-10-21T12:42:49Z</time>
      </trkpt>
      <trkpt lat="49.85036" lon="2.51043">
        <ele>95.4</ele>
        <time>2020-10-21T12:42:50Z</time>
      </trkpt>
      <trkpt lat="49.85035" lon="2.51042">
        <ele>95.4</ele>
        <time>2020-10-21T12:42:52Z</time>
      </trkpt>
      <trkpt lat="49.85034" lon="2.51042">
        <ele>95.4</ele>
        <time>2020-10-21T12:42:53Z</time>
      </trkpt>
      <trkpt lat="49.85033" lon="2.51041">
        <ele>95.5</ele>
        <time>2020-10-21T12:42:54Z</time>
      </trkpt>
      <trkpt lat="49.8503" lon="2.5104">
        <ele>95.5</ele>
        <time>2020-10-21T12:42:55Z</time>
      </trkpt>
      <trkpt lat="49.8503" lon="2.5104">
        <ele>95.5</ele>
        <time>2020-10-21T12:42:56Z</time>
      </trkpt>
      <trkpt lat="49.85029" lon="2.51039">
        <ele>95.5</ele>
        <time>2020-10-21T12:42:57Z</time>
      </trkpt>
      <trkpt lat="49.85027" lon="2.51038">
        <ele>95.5</ele>
        <time>2020-10-21T12:42:58Z</time>
      </trkpt>
      <trkpt lat="49.85026" lon="2.51038">
        <ele>95.5</ele>
        <time>2020-10-21T12:43:00Z</time>
      </trkpt>
      <trkpt lat="49.85025" lon="2.51037">
        <ele>95.6</ele>
        <time>2020-10-21T12:43:01Z</time>
      </trkpt>
      <trkpt lat="49.85023" lon="2.51037">
        <ele>95.6</ele>
        <time>2020-10-21T12:43:02Z</time>
      </trkpt>
      <trkpt lat="49.85022" lon="2.51037">
        <ele>95.6</ele>
        <time>2020-10-21T12:43:03Z</time>
      </trkpt>
      <trkpt lat="49.85021" lon="2.51036">
        <ele>95.6</ele>
        <time>2020-10-21T12:43:04Z</time>
      </trkpt>
      <trkpt lat="49.8502" lon="2.51036">
        <ele>95.6</ele>
        <time>2020-10-21T12:43:05Z</time>
      </trkpt>
      <trkpt lat="49.85019" lon="2.51035">
        <ele>95.7</ele>
        <time>2020-10-21T12:43:06Z</time>
      </trkpt>
      <trkpt lat="49.85017" lon="2.51034">
        <ele>95.7</ele>
        <time>2020-10-21T12:43:07Z</time>
      </trkpt>
      <trkpt lat="49.85016" lon="2.51033">
        <ele>95.7</ele>
        <time>2020-10-21T12:43:09Z</time>
      </trkpt>
      <trkpt lat="49.85015" lon="2.51033">
        <ele>95.7</ele>
        <time>2020-10-21T12:43:10Z</time>
      </trkpt>
      <trkpt lat="49.85013" lon="2.51031">
        <ele>95.8</ele>
        <time>2020-10-21T12:43:11Z</time>
      </trkpt>
      <trkpt lat="49.85012" lon="2.5103">
        <ele>95.8</ele>
        <time>2020-10-21T12:43:12Z</time>
      </trkpt>
      <trkpt lat="49.85012" lon="2.5103">
        <ele>95.8</ele>
        <time>2020-10-21T12:43:13Z</time>
      </trkpt>
      <trkpt lat="49.85011" lon="2.51029">
        <ele>95.9</ele>
        <time>2020-10-21T12:43:15Z</time>
      </trkpt>
      <trkpt lat="49.8501" lon="2.51028">
        <ele>95.9</ele>
        <time>2020-10-21T12:43:16Z</time>
      </trkpt>
      <trkpt lat="49.85009" lon="2.51028">
        <ele>95.9</ele>
        <time>2020-10-21T12:43:17Z</time>
      </trkpt>
      <trkpt lat="49.85007" lon="2.51027">
        <ele>96</ele>
        <time>2020-10-21T12:43:18Z</time>
      </trkpt>
      <trkpt lat="49.85006" lon="2.51027">
        <ele>96</ele>
        <time>2020-10-21T12:43:19Z</time>
      </trkpt>
      <trkpt lat="49.85005" lon="2.51026">
        <ele>96</ele>
        <time>2020-10-21T12:43:21Z</time>
      </trkpt>
      <trkpt lat="49.85004" lon="2.51026">
        <ele>96.1</ele>
        <time>2020-10-21T12:43:22Z</time>
      </trkpt>
      <trkpt lat="49.85003" lon="2.51025">
        <ele>96.1</ele>
        <time>2020-10-21T12:43:23Z</time>
      </trkpt>
      <trkpt lat="49.85002" lon="2.51025">
        <ele>96.1</ele>
        <time>2020-10-21T12:43:24Z</time>
      </trkpt>
      <trkpt lat="49.85001" lon="2.51024">
        <ele>96.2</ele>
        <time>2020-10-21T12:43:25Z</time>
      </trkpt>
      <trkpt lat="49.85" lon="2.51022">
        <ele>96.2</ele>
        <time>2020-10-21T12:43:26Z</time>
      </trkpt>
      <trkpt lat="49.85" lon="2.51021">
        <ele>96.2</ele>
        <time>2020-10-21T12:43:28Z</time>
      </trkpt>
      <trkpt lat="49.84999" lon="2.51021">
        <ele>96.3</ele>
        <time>2020-10-21T12:43:29Z</time>
      </trkpt>
      <trkpt lat="49.84997" lon="2.5102">
        <ele>96.3</ele>
        <time>2020-10-21T12:43:30Z</time>
      </trkpt>
      <trkpt lat="49.84996" lon="2.51019">
        <ele>96.3</ele>
        <time>2020-10-21T12:43:31Z</time>
      </trkpt>
      <trkpt lat="49.84996" lon="2.51018">
        <ele>96.3</ele>
        <time>2020-10-21T12:43:32Z</time>
      </trkpt>
      <trkpt lat="49.84996" lon="2.51017">
        <ele>96.3</ele>
        <time>2020-10-21T12:43:33Z</time>
      </trkpt>
      <trkpt lat="49.84995" lon="2.51016">
        <ele>96.4</ele>
        <time>2020-10-21T12:43:35Z</time>
      </trkpt>
      <trkpt lat="49.84994" lon="2.51015">
        <ele>96.4</ele>
        <time>2020-10-21T12:43:36Z</time>
      </trkpt>
      <trkpt lat="49.84993" lon="2.51015">
        <ele>96.4</ele>
        <time>2020-10-21T12:43:37Z</time>
      </trkpt>
      <trkpt lat="49.84992" lon="2.51015">
        <ele>96.4</ele>
        <time>2020-10-21T12:43:38Z</time>
      </trkpt>
      <trkpt lat="49.8499" lon="2.51016">
        <ele>96.4</ele>
        <time>2020-10-21T12:43:39Z</time>
      </trkpt>
      <trkpt lat="49.84989" lon="2.51016">
        <ele>96.4</ele>
        <time>2020-10-21T12:43:40Z</time>
      </trkpt>
      <trkpt lat="49.84989" lon="2.51016">
        <ele>96.4</ele>
        <time>2020-10-21T12:43:41Z</time>
      </trkpt>
      <trkpt lat="49.84987" lon="2.51016">
        <ele>96.4</ele>
        <time>2020-10-21T12:43:42Z</time>
      </trkpt>
      <trkpt lat="49.84986" lon="2.51015">
        <ele>96.3</ele>
        <time>2020-10-21T12:43:43Z</time>
      </trkpt>
      <trkpt lat="49.84985" lon="2.51015">
        <ele>96.3</ele>
        <time>2020-10-21T12:43:45Z</time>
      </trkpt>
      <trkpt lat="49.84983" lon="2.51013">
        <ele>96.3</ele>
        <time>2020-10-21T12:43:46Z</time>
      </trkpt>
      <trkpt lat="49.84982" lon="2.51013">
        <ele>96.3</ele>
        <time>2020-10-21T12:43:47Z</time>
      </trkpt>
      <trkpt lat="49.84982" lon="2.51013">
        <ele>96.3</ele>
        <time>2020-10-21T12:43:48Z</time>
      </trkpt>
      <trkpt lat="49.8498" lon="2.51012">
        <ele>96.2</ele>
        <time>2020-10-21T12:43:49Z</time>
      </trkpt>
      <trkpt lat="49.8498" lon="2.51011">
        <ele>96.2</ele>
        <time>2020-10-21T12:43:50Z</time>
      </trkpt>
      <trkpt lat="49.84978" lon="2.5101">
        <ele>96.2</ele>
        <time>2020-10-21T12:43:51Z</time>
      </trkpt>
      <trkpt lat="49.84977" lon="2.5101">
        <ele>96.2</ele>
        <time>2020-10-21T12:43:52Z</time>
      </trkpt>
      <trkpt lat="49.84976" lon="2.51009">
        <ele>96.1</ele>
        <time>2020-10-21T12:43:54Z</time>
      </trkpt>
      <trkpt lat="49.84974" lon="2.51008">
        <ele>96.1</ele>
        <time>2020-10-21T12:43:55Z</time>
      </trkpt>
      <trkpt lat="49.84973" lon="2.51008">
        <ele>96.1</ele>
        <time>2020-10-21T12:43:56Z</time>
      </trkpt>
      <trkpt lat="49.84971" lon="2.51006">
        <ele>96</ele>
        <time>2020-10-21T12:43:58Z</time>
      </trkpt>
      <trkpt lat="49.8497" lon="2.51006">
        <ele>96</ele>
        <time>2020-10-21T12:43:59Z</time>
      </trkpt>
      <trkpt lat="49.84969" lon="2.51006">
        <ele>96</ele>
        <time>2020-10-21T12:44:00Z</time>
      </trkpt>
      <trkpt lat="49.84968" lon="2.51006">
        <ele>96</ele>
        <time>2020-10-21T12:44:01Z</time>
      </trkpt>
      <trkpt lat="49.84967" lon="2.51005">
        <ele>96</ele>
        <time>2020-10-21T12:44:03Z</time>
      </trkpt>
      <trkpt lat="49.84965" lon="2.51005">
        <ele>95.9</ele>
        <time>2020-10-21T12:44:04Z</time>
      </trkpt>
      <trkpt lat="49.84964" lon="2.51004">
        <ele>95.9</ele>
        <time>2020-10-21T12:44:05Z</time>
      </trkpt>
      <trkpt lat="49.84963" lon="2.51004">
        <ele>95.9</ele>
        <time>2020-10-21T12:44:06Z</time>
      </trkpt>
      <trkpt lat="49.84961" lon="2.51003">
        <ele>95.9</ele>
        <time>2020-10-21T12:44:07Z</time>
      </trkpt>
      <trkpt lat="49.8496" lon="2.51003">
        <ele>95.9</ele>
        <time>2020-10-21T12:44:09Z</time>
      </trkpt>
      <trkpt lat="49.84959" lon="2.51003">
        <ele>95.9</ele>
        <time>2020-10-21T12:44:10Z</time>
      </trkpt>
      <trkpt lat="49.84957" lon="2.51002">
        <ele>95.9</ele>
        <time>2020-10-21T12:44:11Z</time>
      </trkpt>
      <trkpt lat="49.84956" lon="2.51001">
        <ele>95.9</ele>
        <time>2020-10-21T12:44:12Z</time>
      </trkpt>
      <trkpt lat="49.84956" lon="2.51001">
        <ele>95.9</ele>
        <time>2020-10-21T12:44:13Z</time>
      </trkpt>
      <trkpt lat="49.84954" lon="2.51">
        <ele>95.9</ele>
        <time>2020-10-21T12:44:14Z</time>
      </trkpt>
      <trkpt lat="49.84953" lon="2.51">
        <ele>95.9</ele>
        <time>2020-10-21T12:44:16Z</time>
      </trkpt>
      <trkpt lat="49.84952" lon="2.51">
        <ele>95.9</ele>
        <time>2020-10-21T12:44:17Z</time>
      </trkpt>
      <trkpt lat="49.8495" lon="2.50999">
        <ele>95.9</ele>
        <time>2020-10-21T12:44:18Z</time>
      </trkpt>
      <trkpt lat="49.84949" lon="2.50999">
        <ele>95.9</ele>
        <time>2020-10-21T12:44:19Z</time>
      </trkpt>
      <trkpt lat="49.84948" lon="2.50998">
        <ele>95.9</ele>
        <time>2020-10-21T12:44:20Z</time>
      </trkpt>
      <trkpt lat="49.84947" lon="2.50997">
        <ele>95.9</ele>
        <time>2020-10-21T12:44:21Z</time>
      </trkpt>
      <trkpt lat="49.84946" lon="2.50996">
        <ele>95.9</ele>
        <time>2020-10-21T12:44:23Z</time>
      </trkpt>
      <trkpt lat="49.84944" lon="2.50996">
        <ele>95.9</ele>
        <time>2020-10-21T12:44:24Z</time>
      </trkpt>
      <trkpt lat="49.84943" lon="2.50995">
        <ele>95.9</ele>
        <time>2020-10-21T12:44:25Z</time>
      </trkpt>
      <trkpt lat="49.84941" lon="2.50994">
        <ele>95.8</ele>
        <time>2020-10-21T12:44:26Z</time>
      </trkpt>
      <trkpt lat="49.8494" lon="2.50994">
        <ele>95.8</ele>
        <time>2020-10-21T12:44:27Z</time>
      </trkpt>
      <trkpt lat="49.84939" lon="2.50993">
        <ele>95.8</ele>
        <time>2020-10-21T12:44:28Z</time>
      </trkpt>
      <trkpt lat="49.84938" lon="2.50992">
        <ele>95.8</ele>
        <time>2020-10-21T12:44:29Z</time>
      </trkpt>
      <trkpt lat="49.84937" lon="2.50991">
        <ele>95.8</ele>
        <time>2020-10-21T12:44:31Z</time>
      </trkpt>
      <trkpt lat="49.84936" lon="2.5099">
        <ele>95.8</ele>
        <time>2020-10-21T12:44:32Z</time>
      </trkpt>
      <trkpt lat="49.84935" lon="2.5099">
        <ele>95.8</ele>
        <time>2020-10-21T12:44:33Z</time>
      </trkpt>
      <trkpt lat="49.84934" lon="2.50989">
        <ele>95.8</ele>
        <time>2020-10-21T12:44:34Z</time>
      </trkpt>
      <trkpt lat="49.84933" lon="2.50989">
        <ele>95.8</ele>
        <time>2020-10-21T12:44:35Z</time>
      </trkpt>
      <trkpt lat="49.84931" lon="2.50987">
        <ele>95.8</ele>
        <time>2020-10-21T12:44:36Z</time>
      </trkpt>
      <trkpt lat="49.8493" lon="2.50986">
        <ele>95.7</ele>
        <time>2020-10-21T12:44:38Z</time>
      </trkpt>
      <trkpt lat="49.8493" lon="2.50985">
        <ele>95.7</ele>
        <time>2020-10-21T12:44:39Z</time>
      </trkpt>
      <trkpt lat="49.84929" lon="2.50985">
        <ele>95.7</ele>
        <time>2020-10-21T12:44:40Z</time>
      </trkpt>
      <trkpt lat="49.84928" lon="2.50984">
        <ele>95.7</ele>
        <time>2020-10-21T12:44:41Z</time>
      </trkpt>
      <trkpt lat="49.84927" lon="2.50982">
        <ele>95.7</ele>
        <time>2020-10-21T12:44:42Z</time>
      </trkpt>
      <trkpt lat="49.84926" lon="2.50981">
        <ele>95.7</ele>
        <time>2020-10-21T12:44:43Z</time>
      </trkpt>
      <trkpt lat="49.84925" lon="2.50981">
        <ele>95.7</ele>
        <time>2020-10-21T12:44:45Z</time>
      </trkpt>
      <trkpt lat="49.84924" lon="2.5098">
        <ele>95.7</ele>
        <time>2020-10-21T12:44:46Z</time>
      </trkpt>
      <trkpt lat="49.84923" lon="2.5098">
        <ele>95.7</ele>
        <time>2020-10-21T12:44:47Z</time>
      </trkpt>
      <trkpt lat="49.84922" lon="2.50979">
        <ele>95.7</ele>
        <time>2020-10-21T12:44:48Z</time>
      </trkpt>
      <trkpt lat="49.84921" lon="2.50978">
        <ele>95.7</ele>
        <time>2020-10-21T12:44:49Z</time>
      </trkpt>
      <trkpt lat="49.84919" lon="2.50977">
        <ele>95.7</ele>
        <time>2020-10-21T12:44:50Z</time>
      </trkpt>
      <trkpt lat="49.84918" lon="2.50977">
        <ele>95.6</ele>
        <time>2020-10-21T12:44:52Z</time>
      </trkpt>
      <trkpt lat="49.84917" lon="2.50977">
        <ele>95.6</ele>
        <time>2020-10-21T12:44:53Z</time>
      </trkpt>
      <trkpt lat="49.84916" lon="2.50976">
        <ele>95.6</ele>
        <time>2020-10-21T12:44:54Z</time>
      </trkpt>
      <trkpt lat="49.84915" lon="2.50976">
        <ele>95.6</ele>
        <time>2020-10-21T12:44:55Z</time>
      </trkpt>
      <trkpt lat="49.84914" lon="2.50975">
        <ele>95.6</ele>
        <time>2020-10-21T12:44:56Z</time>
      </trkpt>
      <trkpt lat="49.84913" lon="2.50974">
        <ele>95.6</ele>
        <time>2020-10-21T12:44:57Z</time>
      </trkpt>
      <trkpt lat="49.84912" lon="2.50973">
        <ele>95.6</ele>
        <time>2020-10-21T12:44:58Z</time>
      </trkpt>
      <trkpt lat="49.84911" lon="2.50973">
        <ele>95.6</ele>
        <time>2020-10-21T12:44:59Z</time>
      </trkpt>
      <trkpt lat="49.8491" lon="2.50972">
        <ele>95.6</ele>
        <time>2020-10-21T12:45:01Z</time>
      </trkpt>
      <trkpt lat="49.84909" lon="2.50971">
        <ele>95.6</ele>
        <time>2020-10-21T12:45:02Z</time>
      </trkpt>
      <trkpt lat="49.84908" lon="2.5097">
        <ele>95.6</ele>
        <time>2020-10-21T12:45:03Z</time>
      </trkpt>
      <trkpt lat="49.84907" lon="2.50969">
        <ele>95.6</ele>
        <time>2020-10-21T12:45:04Z</time>
      </trkpt>
      <trkpt lat="49.84906" lon="2.50969">
        <ele>95.6</ele>
        <time>2020-10-21T12:45:05Z</time>
      </trkpt>
      <trkpt lat="49.84905" lon="2.50969">
        <ele>95.6</ele>
        <time>2020-10-21T12:45:06Z</time>
      </trkpt>
      <trkpt lat="49.84904" lon="2.50969">
        <ele>95.6</ele>
        <time>2020-10-21T12:45:07Z</time>
      </trkpt>
      <trkpt lat="49.84903" lon="2.50969">
        <ele>95.6</ele>
        <time>2020-10-21T12:45:09Z</time>
      </trkpt>
      <trkpt lat="49.84901" lon="2.50969">
        <ele>95.6</ele>
        <time>2020-10-21T12:45:10Z</time>
      </trkpt>
      <trkpt lat="49.849" lon="2.50968">
        <ele>95.6</ele>
        <time>2020-10-21T12:45:11Z</time>
      </trkpt>
      <trkpt lat="49.84899" lon="2.50968">
        <ele>95.7</ele>
        <time>2020-10-21T12:45:12Z</time>
      </trkpt>
      <trkpt lat="49.84898" lon="2.50967">
        <ele>95.7</ele>
        <time>2020-10-21T12:45:13Z</time>
      </trkpt>
      <trkpt lat="49.84897" lon="2.50967">
        <ele>95.7</ele>
        <time>2020-10-21T12:45:14Z</time>
      </trkpt>
      <trkpt lat="49.84896" lon="2.50966">
        <ele>95.7</ele>
        <time>2020-10-21T12:45:16Z</time>
      </trkpt>
      <trkpt lat="49.84895" lon="2.50965">
        <ele>95.7</ele>
        <time>2020-10-21T12:45:17Z</time>
      </trkpt>
      <trkpt lat="49.84894" lon="2.50965">
        <ele>95.8</ele>
        <time>2020-10-21T12:45:18Z</time>
      </trkpt>
      <trkpt lat="49.84893" lon="2.50964">
        <ele>95.8</ele>
        <time>2020-10-21T12:45:19Z</time>
      </trkpt>
      <trkpt lat="49.84892" lon="2.50964">
        <ele>95.8</ele>
        <time>2020-10-21T12:45:20Z</time>
      </trkpt>
      <trkpt lat="49.8489" lon="2.50963">
        <ele>95.8</ele>
        <time>2020-10-21T12:45:21Z</time>
      </trkpt>
      <trkpt lat="49.84889" lon="2.50962">
        <ele>95.8</ele>
        <time>2020-10-21T12:45:22Z</time>
      </trkpt>
      <trkpt lat="49.84888" lon="2.50961">
        <ele>95.8</ele>
        <time>2020-10-21T12:45:24Z</time>
      </trkpt>
      <trkpt lat="49.84886" lon="2.5096">
        <ele>95.8</ele>
        <time>2020-10-21T12:45:25Z</time>
      </trkpt>
      <trkpt lat="49.84886" lon="2.5096">
        <ele>95.8</ele>
        <time>2020-10-21T12:45:26Z</time>
      </trkpt>
      <trkpt lat="49.84885" lon="2.50959">
        <ele>95.8</ele>
        <time>2020-10-21T12:45:27Z</time>
      </trkpt>
      <trkpt lat="49.84884" lon="2.50959">
        <ele>95.8</ele>
        <time>2020-10-21T12:45:28Z</time>
      </trkpt>
      <trkpt lat="49.84883" lon="2.50958">
        <ele>95.8</ele>
        <time>2020-10-21T12:45:30Z</time>
      </trkpt>
      <trkpt lat="49.84881" lon="2.50958">
        <ele>95.8</ele>
        <time>2020-10-21T12:45:31Z</time>
      </trkpt>
      <trkpt lat="49.8488" lon="2.50958">
        <ele>95.8</ele>
        <time>2020-10-21T12:45:32Z</time>
      </trkpt>
      <trkpt lat="49.84879" lon="2.50957">
        <ele>95.8</ele>
        <time>2020-10-21T12:45:33Z</time>
      </trkpt>
      <trkpt lat="49.84878" lon="2.50956">
        <ele>95.8</ele>
        <time>2020-10-21T12:45:34Z</time>
      </trkpt>
      <trkpt lat="49.84877" lon="2.50956">
        <ele>95.8</ele>
        <time>2020-10-21T12:45:35Z</time>
      </trkpt>
      <trkpt lat="49.84876" lon="2.50956">
        <ele>95.8</ele>
        <time>2020-10-21T12:45:37Z</time>
      </trkpt>
      <trkpt lat="49.84875" lon="2.50955">
        <ele>95.8</ele>
        <time>2020-10-21T12:45:38Z</time>
      </trkpt>
      <trkpt lat="49.84874" lon="2.50955">
        <ele>95.8</ele>
        <time>2020-10-21T12:45:39Z</time>
      </trkpt>
      <trkpt lat="49.84873" lon="2.50954">
        <ele>95.8</ele>
        <time>2020-10-21T12:45:40Z</time>
      </trkpt>
      <trkpt lat="49.84872" lon="2.50954">
        <ele>95.8</ele>
        <time>2020-10-21T12:45:41Z</time>
      </trkpt>
      <trkpt lat="49.84871" lon="2.50953">
        <ele>95.8</ele>
        <time>2020-10-21T12:45:42Z</time>
      </trkpt>
      <trkpt lat="49.8487" lon="2.50953">
        <ele>95.8</ele>
        <time>2020-10-21T12:45:44Z</time>
      </trkpt>
      <trkpt lat="49.84869" lon="2.50953">
        <ele>95.8</ele>
        <time>2020-10-21T12:45:45Z</time>
      </trkpt>
      <trkpt lat="49.84868" lon="2.50952">
        <ele>95.8</ele>
        <time>2020-10-21T12:45:46Z</time>
      </trkpt>
      <trkpt lat="49.84867" lon="2.50952">
        <ele>95.8</ele>
        <time>2020-10-21T12:45:47Z</time>
      </trkpt>
      <trkpt lat="49.84866" lon="2.50951">
        <ele>95.8</ele>
        <time>2020-10-21T12:45:48Z</time>
      </trkpt>
      <trkpt lat="49.84865" lon="2.50951">
        <ele>95.8</ele>
        <time>2020-10-21T12:45:50Z</time>
      </trkpt>
      <trkpt lat="49.84864" lon="2.50951">
        <ele>95.8</ele>
        <time>2020-10-21T12:45:51Z</time>
      </trkpt>
      <trkpt lat="49.84862" lon="2.5095">
        <ele>95.8</ele>
        <time>2020-10-21T12:45:52Z</time>
      </trkpt>
      <trkpt lat="49.84861" lon="2.5095">
        <ele>95.8</ele>
        <time>2020-10-21T12:45:53Z</time>
      </trkpt>
      <trkpt lat="49.8486" lon="2.5095">
        <ele>95.8</ele>
        <time>2020-10-21T12:45:54Z</time>
      </trkpt>
      <trkpt lat="49.84859" lon="2.50949">
        <ele>95.8</ele>
        <time>2020-10-21T12:45:55Z</time>
      </trkpt>
      <trkpt lat="49.84858" lon="2.50949">
        <ele>95.8</ele>
        <time>2020-10-21T12:45:56Z</time>
      </trkpt>
      <trkpt lat="49.84856" lon="2.50948">
        <ele>95.8</ele>
        <time>2020-10-21T12:45:57Z</time>
      </trkpt>
      <trkpt lat="49.84854" lon="2.50947">
        <ele>95.8</ele>
        <time>2020-10-21T12:45:59Z</time>
      </trkpt>
      <trkpt lat="49.84853" lon="2.50946">
        <ele>95.8</ele>
        <time>2020-10-21T12:46:00Z</time>
      </trkpt>
      <trkpt lat="49.8485" lon="2.50945">
        <ele>95.8</ele>
        <time>2020-10-21T12:46:01Z</time>
      </trkpt>
      <trkpt lat="49.8485" lon="2.50945">
        <ele>95.8</ele>
        <time>2020-10-21T12:46:03Z</time>
      </trkpt>
      <trkpt lat="49.84849" lon="2.50944">
        <ele>95.8</ele>
        <time>2020-10-21T12:46:04Z</time>
      </trkpt>
      <trkpt lat="49.84848" lon="2.50943">
        <ele>95.8</ele>
        <time>2020-10-21T12:46:05Z</time>
      </trkpt>
      <trkpt lat="49.84847" lon="2.50942">
        <ele>95.8</ele>
        <time>2020-10-21T12:46:06Z</time>
      </trkpt>
      <trkpt lat="49.84846" lon="2.50941">
        <ele>95.8</ele>
        <time>2020-10-21T12:46:07Z</time>
      </trkpt>
      <trkpt lat="49.84845" lon="2.50941">
        <ele>95.8</ele>
        <time>2020-10-21T12:46:08Z</time>
      </trkpt>
      <trkpt lat="49.84844" lon="2.5094">
        <ele>95.8</ele>
        <time>2020-10-21T12:46:10Z</time>
      </trkpt>
      <trkpt lat="49.84843" lon="2.5094">
        <ele>95.8</ele>
        <time>2020-10-21T12:46:11Z</time>
      </trkpt>
      <trkpt lat="49.84842" lon="2.5094">
        <ele>95.8</ele>
        <time>2020-10-21T12:46:12Z</time>
      </trkpt>
      <trkpt lat="49.8484" lon="2.5094">
        <ele>95.8</ele>
        <time>2020-10-21T12:46:13Z</time>
      </trkpt>
      <trkpt lat="49.84839" lon="2.5094">
        <ele>95.8</ele>
        <time>2020-10-21T12:46:14Z</time>
      </trkpt>
      <trkpt lat="49.84837" lon="2.5094">
        <ele>95.8</ele>
        <time>2020-10-21T12:46:15Z</time>
      </trkpt>
      <trkpt lat="49.84836" lon="2.50939">
        <ele>95.8</ele>
        <time>2020-10-21T12:46:16Z</time>
      </trkpt>
      <trkpt lat="49.84835" lon="2.50938">
        <ele>95.8</ele>
        <time>2020-10-21T12:46:18Z</time>
      </trkpt>
      <trkpt lat="49.84834" lon="2.50938">
        <ele>95.8</ele>
        <time>2020-10-21T12:46:19Z</time>
      </trkpt>
      <trkpt lat="49.84833" lon="2.50937">
        <ele>95.8</ele>
        <time>2020-10-21T12:46:20Z</time>
      </trkpt>
      <trkpt lat="49.84832" lon="2.50937">
        <ele>95.8</ele>
        <time>2020-10-21T12:46:21Z</time>
      </trkpt>
      <trkpt lat="49.84831" lon="2.50936">
        <ele>95.8</ele>
        <time>2020-10-21T12:46:22Z</time>
      </trkpt>
      <trkpt lat="49.84829" lon="2.50934">
        <ele>95.8</ele>
        <time>2020-10-21T12:46:23Z</time>
      </trkpt>
      <trkpt lat="49.84829" lon="2.50932">
        <ele>95.8</ele>
        <time>2020-10-21T12:46:24Z</time>
      </trkpt>
      <trkpt lat="49.84828" lon="2.50931">
        <ele>95.8</ele>
        <time>2020-10-21T12:46:25Z</time>
      </trkpt>
      <trkpt lat="49.84827" lon="2.5093">
        <ele>95.8</ele>
        <time>2020-10-21T12:46:26Z</time>
      </trkpt>
      <trkpt lat="49.84826" lon="2.50929">
        <ele>95.8</ele>
        <time>2020-10-21T12:46:27Z</time>
      </trkpt>
      <trkpt lat="49.84825" lon="2.50929">
        <ele>95.8</ele>
        <time>2020-10-21T12:46:28Z</time>
      </trkpt>
      <trkpt lat="49.84823" lon="2.50928">
        <ele>95.8</ele>
        <time>2020-10-21T12:46:30Z</time>
      </trkpt>
      <trkpt lat="49.84822" lon="2.50927">
        <ele>95.8</ele>
        <time>2020-10-21T12:46:31Z</time>
      </trkpt>
      <trkpt lat="49.84821" lon="2.50927">
        <ele>95.8</ele>
        <time>2020-10-21T12:46:32Z</time>
      </trkpt>
      <trkpt lat="49.84819" lon="2.50925">
        <ele>95.8</ele>
        <time>2020-10-21T12:46:33Z</time>
      </trkpt>
      <trkpt lat="49.84818" lon="2.50925">
        <ele>95.8</ele>
        <time>2020-10-21T12:46:34Z</time>
      </trkpt>
      <trkpt lat="49.84818" lon="2.50924">
        <ele>95.8</ele>
        <time>2020-10-21T12:46:35Z</time>
      </trkpt>
      <trkpt lat="49.84816" lon="2.50923">
        <ele>95.8</ele>
        <time>2020-10-21T12:46:36Z</time>
      </trkpt>
      <trkpt lat="49.84815" lon="2.50923">
        <ele>95.8</ele>
        <time>2020-10-21T12:46:37Z</time>
      </trkpt>
      <trkpt lat="49.84814" lon="2.50922">
        <ele>95.8</ele>
        <time>2020-10-21T12:46:39Z</time>
      </trkpt>
      <trkpt lat="49.84813" lon="2.50922">
        <ele>95.8</ele>
        <time>2020-10-21T12:46:40Z</time>
      </trkpt>
      <trkpt lat="49.84812" lon="2.50921">
        <ele>95.8</ele>
        <time>2020-10-21T12:46:41Z</time>
      </trkpt>
      <trkpt lat="49.84811" lon="2.50921">
        <ele>95.8</ele>
        <time>2020-10-21T12:46:42Z</time>
      </trkpt>
      <trkpt lat="49.8481" lon="2.5092">
        <ele>95.8</ele>
        <time>2020-10-21T12:46:43Z</time>
      </trkpt>
      <trkpt lat="49.84809" lon="2.5092">
        <ele>95.8</ele>
        <time>2020-10-21T12:46:44Z</time>
      </trkpt>
      <trkpt lat="49.84808" lon="2.50919">
        <ele>95.7</ele>
        <time>2020-10-21T12:46:46Z</time>
      </trkpt>
      <trkpt lat="49.84807" lon="2.50919">
        <ele>95.7</ele>
        <time>2020-10-21T12:46:47Z</time>
      </trkpt>
      <trkpt lat="49.84805" lon="2.50918">
        <ele>95.7</ele>
        <time>2020-10-21T12:46:48Z</time>
      </trkpt>
      <trkpt lat="49.84804" lon="2.50917">
        <ele>95.7</ele>
        <time>2020-10-21T12:46:49Z</time>
      </trkpt>
      <trkpt lat="49.84804" lon="2.50917">
        <ele>95.7</ele>
        <time>2020-10-21T12:46:50Z</time>
      </trkpt>
      <trkpt lat="49.84803" lon="2.50916">
        <ele>95.7</ele>
        <time>2020-10-21T12:46:51Z</time>
      </trkpt>
      <trkpt lat="49.84801" lon="2.50914">
        <ele>95.7</ele>
        <time>2020-10-21T12:46:53Z</time>
      </trkpt>
      <trkpt lat="49.848" lon="2.50914">
        <ele>95.7</ele>
        <time>2020-10-21T12:46:54Z</time>
      </trkpt>
      <trkpt lat="49.848" lon="2.50912">
        <ele>95.7</ele>
        <time>2020-10-21T12:46:56Z</time>
      </trkpt>
      <trkpt lat="49.84799" lon="2.5091">
        <ele>95.7</ele>
        <time>2020-10-21T12:46:57Z</time>
      </trkpt>
      <trkpt lat="49.84799" lon="2.50909">
        <ele>95.7</ele>
        <time>2020-10-21T12:46:58Z</time>
      </trkpt>
      <trkpt lat="49.84798" lon="2.50908">
        <ele>95.7</ele>
        <time>2020-10-21T12:46:59Z</time>
      </trkpt>
      <trkpt lat="49.84797" lon="2.50908">
        <ele>95.7</ele>
        <time>2020-10-21T12:47:00Z</time>
      </trkpt>
      <trkpt lat="49.84795" lon="2.50908">
        <ele>95.7</ele>
        <time>2020-10-21T12:47:02Z</time>
      </trkpt>
      <trkpt lat="49.84794" lon="2.50909">
        <ele>95.7</ele>
        <time>2020-10-21T12:47:03Z</time>
      </trkpt>
      <trkpt lat="49.84793" lon="2.50909">
        <ele>95.7</ele>
        <time>2020-10-21T12:47:04Z</time>
      </trkpt>
      <trkpt lat="49.84792" lon="2.50909">
        <ele>95.8</ele>
        <time>2020-10-21T12:47:06Z</time>
      </trkpt>
      <trkpt lat="49.8479" lon="2.50909">
        <ele>95.8</ele>
        <time>2020-10-21T12:47:07Z</time>
      </trkpt>
      <trkpt lat="49.84789" lon="2.50909">
        <ele>95.8</ele>
        <time>2020-10-21T12:47:08Z</time>
      </trkpt>
      <trkpt lat="49.84788" lon="2.50908">
        <ele>95.8</ele>
        <time>2020-10-21T12:47:09Z</time>
      </trkpt>
      <trkpt lat="49.84787" lon="2.50908">
        <ele>95.8</ele>
        <time>2020-10-21T12:47:10Z</time>
      </trkpt>
      <trkpt lat="49.84786" lon="2.50907">
        <ele>95.9</ele>
        <time>2020-10-21T12:47:11Z</time>
      </trkpt>
      <trkpt lat="49.84785" lon="2.50906">
        <ele>95.9</ele>
        <time>2020-10-21T12:47:12Z</time>
      </trkpt>
      <trkpt lat="49.84784" lon="2.50905">
        <ele>95.9</ele>
        <time>2020-10-21T12:47:14Z</time>
      </trkpt>
      <trkpt lat="49.84783" lon="2.50903">
        <ele>95.9</ele>
        <time>2020-10-21T12:47:15Z</time>
      </trkpt>
      <trkpt lat="49.84782" lon="2.50903">
        <ele>95.9</ele>
        <time>2020-10-21T12:47:16Z</time>
      </trkpt>
      <trkpt lat="49.8478" lon="2.50902">
        <ele>96</ele>
        <time>2020-10-21T12:47:17Z</time>
      </trkpt>
      <trkpt lat="49.84779" lon="2.50902">
        <ele>96</ele>
        <time>2020-10-21T12:47:18Z</time>
      </trkpt>
      <trkpt lat="49.84778" lon="2.50902">
        <ele>96</ele>
        <time>2020-10-21T12:47:19Z</time>
      </trkpt>
      <trkpt lat="49.84777" lon="2.50902">
        <ele>96</ele>
        <time>2020-10-21T12:47:20Z</time>
      </trkpt>
      <trkpt lat="49.84776" lon="2.50902">
        <ele>96</ele>
        <time>2020-10-21T12:47:21Z</time>
      </trkpt>
      <trkpt lat="49.84775" lon="2.50902">
        <ele>96</ele>
        <time>2020-10-21T12:47:23Z</time>
      </trkpt>
      <trkpt lat="49.84773" lon="2.50902">
        <ele>96.1</ele>
        <time>2020-10-21T12:47:24Z</time>
      </trkpt>
      <trkpt lat="49.84772" lon="2.50901">
        <ele>96.1</ele>
        <time>2020-10-21T12:47:25Z</time>
      </trkpt>
      <trkpt lat="49.8477" lon="2.509">
        <ele>96.1</ele>
        <time>2020-10-21T12:47:26Z</time>
      </trkpt>
      <trkpt lat="49.84769" lon="2.509">
        <ele>96.1</ele>
        <time>2020-10-21T12:47:28Z</time>
      </trkpt>
      <trkpt lat="49.84768" lon="2.50899">
        <ele>96.2</ele>
        <time>2020-10-21T12:47:29Z</time>
      </trkpt>
      <trkpt lat="49.84767" lon="2.50899">
        <ele>96.2</ele>
        <time>2020-10-21T12:47:30Z</time>
      </trkpt>
      <trkpt lat="49.84767" lon="2.50897">
        <ele>96.2</ele>
        <time>2020-10-21T12:47:31Z</time>
      </trkpt>
      <trkpt lat="49.84766" lon="2.50897">
        <ele>96.2</ele>
        <time>2020-10-21T12:47:32Z</time>
      </trkpt>
      <trkpt lat="49.84764" lon="2.50896">
        <ele>96.2</ele>
        <time>2020-10-21T12:47:33Z</time>
      </trkpt>
      <trkpt lat="49.84763" lon="2.50895">
        <ele>96.3</ele>
        <time>2020-10-21T12:47:34Z</time>
      </trkpt>
      <trkpt lat="49.84762" lon="2.50895">
        <ele>96.3</ele>
        <time>2020-10-21T12:47:36Z</time>
      </trkpt>
      <trkpt lat="49.84761" lon="2.50894">
        <ele>96.3</ele>
        <time>2020-10-21T12:47:37Z</time>
      </trkpt>
      <trkpt lat="49.84759" lon="2.50893">
        <ele>96.3</ele>
        <time>2020-10-21T12:47:38Z</time>
      </trkpt>
      <trkpt lat="49.84759" lon="2.50893">
        <ele>96.3</ele>
        <time>2020-10-21T12:47:39Z</time>
      </trkpt>
      <trkpt lat="49.84758" lon="2.50893">
        <ele>96.3</ele>
        <time>2020-10-21T12:47:40Z</time>
      </trkpt>
      <trkpt lat="49.84757" lon="2.50891">
        <ele>96.3</ele>
        <time>2020-10-21T12:47:42Z</time>
      </trkpt>
      <trkpt lat="49.84756" lon="2.50889">
        <ele>96.4</ele>
        <time>2020-10-21T12:47:43Z</time>
      </trkpt>
      <trkpt lat="49.84755" lon="2.50888">
        <ele>96.4</ele>
        <time>2020-10-21T12:47:44Z</time>
      </trkpt>
      <trkpt lat="49.84754" lon="2.50888">
        <ele>96.4</ele>
        <time>2020-10-21T12:47:45Z</time>
      </trkpt>
      <trkpt lat="49.84751" lon="2.50887">
        <ele>96.4</ele>
        <time>2020-10-21T12:47:46Z</time>
      </trkpt>
      <trkpt lat="49.8475" lon="2.50887">
        <ele>96.4</ele>
        <time>2020-10-21T12:47:47Z</time>
      </trkpt>
      <trkpt lat="49.8475" lon="2.50887">
        <ele>96.4</ele>
        <time>2020-10-21T12:47:49Z</time>
      </trkpt>
      <trkpt lat="49.84749" lon="2.50887">
        <ele>96.5</ele>
        <time>2020-10-21T12:47:50Z</time>
      </trkpt>
      <trkpt lat="49.84748" lon="2.50887">
        <ele>96.5</ele>
        <time>2020-10-21T12:47:51Z</time>
      </trkpt>
      <trkpt lat="49.84747" lon="2.50887">
        <ele>96.5</ele>
        <time>2020-10-21T12:47:52Z</time>
      </trkpt>
      <trkpt lat="49.84745" lon="2.50887">
        <ele>96.5</ele>
        <time>2020-10-21T12:47:53Z</time>
      </trkpt>
      <trkpt lat="49.84744" lon="2.50888">
        <ele>96.5</ele>
        <time>2020-10-21T12:47:54Z</time>
      </trkpt>
      <trkpt lat="49.84743" lon="2.50888">
        <ele>96.5</ele>
        <time>2020-10-21T12:47:55Z</time>
      </trkpt>
      <trkpt lat="49.84742" lon="2.50888">
        <ele>96.5</ele>
        <time>2020-10-21T12:47:57Z</time>
      </trkpt>
      <trkpt lat="49.84741" lon="2.50889">
        <ele>96.5</ele>
        <time>2020-10-21T12:47:58Z</time>
      </trkpt>
      <trkpt lat="49.8474" lon="2.50889">
        <ele>96.6</ele>
        <time>2020-10-21T12:47:59Z</time>
      </trkpt>
      <trkpt lat="49.84738" lon="2.50889">
        <ele>96.6</ele>
        <time>2020-10-21T12:48:00Z</time>
      </trkpt>
      <trkpt lat="49.84737" lon="2.50889">
        <ele>96.6</ele>
        <time>2020-10-21T12:48:01Z</time>
      </trkpt>
      <trkpt lat="49.84736" lon="2.50888">
        <ele>96.6</ele>
        <time>2020-10-21T12:48:02Z</time>
      </trkpt>
      <trkpt lat="49.84734" lon="2.50887">
        <ele>96.6</ele>
        <time>2020-10-21T12:48:03Z</time>
      </trkpt>
      <trkpt lat="49.84733" lon="2.50886">
        <ele>96.6</ele>
        <time>2020-10-21T12:48:05Z</time>
      </trkpt>
      <trkpt lat="49.84732" lon="2.50886">
        <ele>96.6</ele>
        <time>2020-10-21T12:48:06Z</time>
      </trkpt>
      <trkpt lat="49.8473" lon="2.50885">
        <ele>96.6</ele>
        <time>2020-10-21T12:48:07Z</time>
      </trkpt>
      <trkpt lat="49.8473" lon="2.50884">
        <ele>96.6</ele>
        <time>2020-10-21T12:48:08Z</time>
      </trkpt>
      <trkpt lat="49.84729" lon="2.50884">
        <ele>96.6</ele>
        <time>2020-10-21T12:48:09Z</time>
      </trkpt>
      <trkpt lat="49.84727" lon="2.50882">
        <ele>96.6</ele>
        <time>2020-10-21T12:48:10Z</time>
      </trkpt>
      <trkpt lat="49.84726" lon="2.50881">
        <ele>96.5</ele>
        <time>2020-10-21T12:48:12Z</time>
      </trkpt>
      <trkpt lat="49.84726" lon="2.5088">
        <ele>96.5</ele>
        <time>2020-10-21T12:48:13Z</time>
      </trkpt>
      <trkpt lat="49.84724" lon="2.50879">
        <ele>96.5</ele>
        <time>2020-10-21T12:48:14Z</time>
      </trkpt>
      <trkpt lat="49.84723" lon="2.50877">
        <ele>96.4</ele>
        <time>2020-10-21T12:48:15Z</time>
      </trkpt>
      <trkpt lat="49.84723" lon="2.50876">
        <ele>96.4</ele>
        <time>2020-10-21T12:48:16Z</time>
      </trkpt>
      <trkpt lat="49.84722" lon="2.50875">
        <ele>96.3</ele>
        <time>2020-10-21T12:48:17Z</time>
      </trkpt>
      <trkpt lat="49.8472" lon="2.50873">
        <ele>96.3</ele>
        <time>2020-10-21T12:48:19Z</time>
      </trkpt>
      <trkpt lat="49.84719" lon="2.50871">
        <ele>96.2</ele>
        <time>2020-10-21T12:48:20Z</time>
      </trkpt>
      <trkpt lat="49.84718" lon="2.5087">
        <ele>96.1</ele>
        <time>2020-10-21T12:48:21Z</time>
      </trkpt>
      <trkpt lat="49.84717" lon="2.5087">
        <ele>96.1</ele>
        <time>2020-10-21T12:48:22Z</time>
      </trkpt>
      <trkpt lat="49.84716" lon="2.50869">
        <ele>96</ele>
        <time>2020-10-21T12:48:23Z</time>
      </trkpt>
      <trkpt lat="49.84715" lon="2.50868">
        <ele>95.9</ele>
        <time>2020-10-21T12:48:24Z</time>
      </trkpt>
      <trkpt lat="49.84713" lon="2.50867">
        <ele>95.8</ele>
        <time>2020-10-21T12:48:26Z</time>
      </trkpt>
      <trkpt lat="49.84711" lon="2.50864">
        <ele>96</ele>
        <time>2020-10-21T12:48:27Z</time>
      </trkpt>
      <trkpt lat="49.84711" lon="2.50863">
        <ele>96.1</ele>
        <time>2020-10-21T12:48:28Z</time>
      </trkpt>
      <trkpt lat="49.84711" lon="2.50863">
        <ele>96.2</ele>
        <time>2020-10-21T12:48:29Z</time>
      </trkpt>
      <trkpt lat="49.8471" lon="2.50861">
        <ele>96.3</ele>
        <time>2020-10-21T12:48:31Z</time>
      </trkpt>
      <trkpt lat="49.84708" lon="2.5086">
        <ele>96.5</ele>
        <time>2020-10-21T12:48:32Z</time>
      </trkpt>
      <trkpt lat="49.84707" lon="2.50859">
        <ele>96.6</ele>
        <time>2020-10-21T12:48:33Z</time>
      </trkpt>
      <trkpt lat="49.84706" lon="2.50858">
        <ele>96.7</ele>
        <time>2020-10-21T12:48:34Z</time>
      </trkpt>
      <trkpt lat="49.84705" lon="2.50858">
        <ele>96.8</ele>
        <time>2020-10-21T12:48:35Z</time>
      </trkpt>
      <trkpt lat="49.84703" lon="2.50858">
        <ele>96.9</ele>
        <time>2020-10-21T12:48:36Z</time>
      </trkpt>
      <trkpt lat="49.84702" lon="2.50858">
        <ele>96.9</ele>
        <time>2020-10-21T12:48:37Z</time>
      </trkpt>
      <trkpt lat="49.847" lon="2.50857">
        <ele>97</ele>
        <time>2020-10-21T12:48:39Z</time>
      </trkpt>
      <trkpt lat="49.84699" lon="2.50857">
        <ele>97.1</ele>
        <time>2020-10-21T12:48:40Z</time>
      </trkpt>
      <trkpt lat="49.84699" lon="2.50856">
        <ele>97.1</ele>
        <time>2020-10-21T12:48:41Z</time>
      </trkpt>
      <trkpt lat="49.84696" lon="2.50855">
        <ele>97.2</ele>
        <time>2020-10-21T12:48:42Z</time>
      </trkpt>
      <trkpt lat="49.84696" lon="2.50855">
        <ele>97.2</ele>
        <time>2020-10-21T12:48:43Z</time>
      </trkpt>
      <trkpt lat="49.84695" lon="2.50855">
        <ele>97.2</ele>
        <time>2020-10-21T12:48:44Z</time>
      </trkpt>
      <trkpt lat="49.84693" lon="2.50854">
        <ele>97.2</ele>
        <time>2020-10-21T12:48:45Z</time>
      </trkpt>
      <trkpt lat="49.84692" lon="2.50853">
        <ele>97.3</ele>
        <time>2020-10-21T12:48:46Z</time>
      </trkpt>
      <trkpt lat="49.84691" lon="2.50852">
        <ele>97.3</ele>
        <time>2020-10-21T12:48:48Z</time>
      </trkpt>
      <trkpt lat="49.84689" lon="2.50851">
        <ele>97.3</ele>
        <time>2020-10-21T12:48:49Z</time>
      </trkpt>
      <trkpt lat="49.84687" lon="2.5085">
        <ele>97.4</ele>
        <time>2020-10-21T12:48:50Z</time>
      </trkpt>
      <trkpt lat="49.84686" lon="2.50849">
        <ele>97.4</ele>
        <time>2020-10-21T12:48:51Z</time>
      </trkpt>
      <trkpt lat="49.84686" lon="2.50848">
        <ele>97.4</ele>
        <time>2020-10-21T12:48:52Z</time>
      </trkpt>
      <trkpt lat="49.84683" lon="2.50847">
        <ele>97.4</ele>
        <time>2020-10-21T12:48:53Z</time>
      </trkpt>
      <trkpt lat="49.84682" lon="2.50846">
        <ele>97.4</ele>
        <time>2020-10-21T12:48:55Z</time>
      </trkpt>
      <trkpt lat="49.84681" lon="2.50846">
        <ele>97.4</ele>
        <time>2020-10-21T12:48:56Z</time>
      </trkpt>
      <trkpt lat="49.8468" lon="2.50845">
        <ele>97.4</ele>
        <time>2020-10-21T12:48:57Z</time>
      </trkpt>
      <trkpt lat="49.84679" lon="2.50845">
        <ele>97.4</ele>
        <time>2020-10-21T12:48:58Z</time>
      </trkpt>
      <trkpt lat="49.84678" lon="2.50844">
        <ele>97.4</ele>
        <time>2020-10-21T12:48:59Z</time>
      </trkpt>
      <trkpt lat="49.84677" lon="2.50842">
        <ele>97.4</ele>
        <time>2020-10-21T12:49:00Z</time>
      </trkpt>
      <trkpt lat="49.84675" lon="2.50841">
        <ele>97.4</ele>
        <time>2020-10-21T12:49:02Z</time>
      </trkpt>
      <trkpt lat="49.84674" lon="2.5084">
        <ele>97.4</ele>
        <time>2020-10-21T12:49:03Z</time>
      </trkpt>
      <trkpt lat="49.84672" lon="2.50839">
        <ele>97.3</ele>
        <time>2020-10-21T12:49:04Z</time>
      </trkpt>
      <trkpt lat="49.84671" lon="2.50838">
        <ele>97.3</ele>
        <time>2020-10-21T12:49:05Z</time>
      </trkpt>
      <trkpt lat="49.8467" lon="2.50838">
        <ele>97.3</ele>
        <time>2020-10-21T12:49:06Z</time>
      </trkpt>
      <trkpt lat="49.84668" lon="2.50837">
        <ele>97.3</ele>
        <time>2020-10-21T12:49:07Z</time>
      </trkpt>
      <trkpt lat="49.84667" lon="2.50836">
        <ele>97.3</ele>
        <time>2020-10-21T12:49:09Z</time>
      </trkpt>
      <trkpt lat="49.84666" lon="2.50836">
        <ele>97.3</ele>
        <time>2020-10-21T12:49:10Z</time>
      </trkpt>
      <trkpt lat="49.84665" lon="2.50836">
        <ele>97.3</ele>
        <time>2020-10-21T12:49:12Z</time>
      </trkpt>
      <trkpt lat="49.84664" lon="2.50836">
        <ele>97.3</ele>
        <time>2020-10-21T12:49:13Z</time>
      </trkpt>
      <trkpt lat="49.84663" lon="2.50836">
        <ele>97.3</ele>
        <time>2020-10-21T12:49:14Z</time>
      </trkpt>
      <trkpt lat="49.84661" lon="2.50836">
        <ele>97.3</ele>
        <time>2020-10-21T12:49:15Z</time>
      </trkpt>
      <trkpt lat="49.8466" lon="2.50836">
        <ele>97.3</ele>
        <time>2020-10-21T12:49:16Z</time>
      </trkpt>
      <trkpt lat="49.84659" lon="2.50836">
        <ele>97.4</ele>
        <time>2020-10-21T12:49:18Z</time>
      </trkpt>
      <trkpt lat="49.84658" lon="2.50835">
        <ele>97.4</ele>
        <time>2020-10-21T12:49:19Z</time>
      </trkpt>
      <trkpt lat="49.84657" lon="2.50835">
        <ele>97.4</ele>
        <time>2020-10-21T12:49:20Z</time>
      </trkpt>
      <trkpt lat="49.84656" lon="2.50835">
        <ele>97.4</ele>
        <time>2020-10-21T12:49:21Z</time>
      </trkpt>
      <trkpt lat="49.84655" lon="2.50834">
        <ele>97.4</ele>
        <time>2020-10-21T12:49:22Z</time>
      </trkpt>
      <trkpt lat="49.84654" lon="2.50834">
        <ele>97.4</ele>
        <time>2020-10-21T12:49:23Z</time>
      </trkpt>
      <trkpt lat="49.84653" lon="2.50833">
        <ele>97.4</ele>
        <time>2020-10-21T12:49:25Z</time>
      </trkpt>
      <trkpt lat="49.84651" lon="2.50833">
        <ele>97.4</ele>
        <time>2020-10-21T12:49:26Z</time>
      </trkpt>
      <trkpt lat="49.84649" lon="2.50833">
        <ele>97.4</ele>
        <time>2020-10-21T12:49:28Z</time>
      </trkpt>
      <trkpt lat="49.84648" lon="2.50833">
        <ele>97.4</ele>
        <time>2020-10-21T12:49:29Z</time>
      </trkpt>
      <trkpt lat="49.84647" lon="2.50833">
        <ele>97.5</ele>
        <time>2020-10-21T12:49:30Z</time>
      </trkpt>
      <trkpt lat="49.84646" lon="2.50832">
        <ele>97.5</ele>
        <time>2020-10-21T12:49:31Z</time>
      </trkpt>
      <trkpt lat="49.84645" lon="2.50831">
        <ele>97.5</ele>
        <time>2020-10-21T12:49:32Z</time>
      </trkpt>
      <trkpt lat="49.84644" lon="2.50831">
        <ele>97.5</ele>
        <time>2020-10-21T12:49:33Z</time>
      </trkpt>
      <trkpt lat="49.84642" lon="2.5083">
        <ele>97.5</ele>
        <time>2020-10-21T12:49:35Z</time>
      </trkpt>
      <trkpt lat="49.84641" lon="2.50829">
        <ele>97.5</ele>
        <time>2020-10-21T12:49:36Z</time>
      </trkpt>
      <trkpt lat="49.8464" lon="2.50828">
        <ele>97.5</ele>
        <time>2020-10-21T12:49:37Z</time>
      </trkpt>
      <trkpt lat="49.84639" lon="2.50827">
        <ele>97.4</ele>
        <time>2020-10-21T12:49:38Z</time>
      </trkpt>
      <trkpt lat="49.84637" lon="2.50826">
        <ele>97.4</ele>
        <time>2020-10-21T12:49:39Z</time>
      </trkpt>
      <trkpt lat="49.84636" lon="2.50825">
        <ele>97.4</ele>
        <time>2020-10-21T12:49:41Z</time>
      </trkpt>
      <trkpt lat="49.84635" lon="2.50825">
        <ele>97.4</ele>
        <time>2020-10-21T12:49:42Z</time>
      </trkpt>
      <trkpt lat="49.84633" lon="2.50824">
        <ele>97.4</ele>
        <time>2020-10-21T12:49:43Z</time>
      </trkpt>
      <trkpt lat="49.84632" lon="2.50823">
        <ele>97.4</ele>
        <time>2020-10-21T12:49:45Z</time>
      </trkpt>
      <trkpt lat="49.84631" lon="2.50823">
        <ele>97.4</ele>
        <time>2020-10-21T12:49:46Z</time>
      </trkpt>
      <trkpt lat="49.8463" lon="2.50822">
        <ele>97.4</ele>
        <time>2020-10-21T12:49:47Z</time>
      </trkpt>
      <trkpt lat="49.84629" lon="2.50821">
        <ele>97.4</ele>
        <time>2020-10-21T12:49:48Z</time>
      </trkpt>
      <trkpt lat="49.84628" lon="2.50821">
        <ele>97.3</ele>
        <time>2020-10-21T12:49:49Z</time>
      </trkpt>
      <trkpt lat="49.84626" lon="2.50821">
        <ele>97.3</ele>
        <time>2020-10-21T12:49:50Z</time>
      </trkpt>
      <trkpt lat="49.84625" lon="2.5082">
        <ele>97.3</ele>
        <time>2020-10-21T12:49:51Z</time>
      </trkpt>
      <trkpt lat="49.84625" lon="2.50819">
        <ele>97.3</ele>
        <time>2020-10-21T12:49:53Z</time>
      </trkpt>
      <trkpt lat="49.84623" lon="2.50819">
        <ele>97.3</ele>
        <time>2020-10-21T12:49:54Z</time>
      </trkpt>
      <trkpt lat="49.84622" lon="2.50818">
        <ele>97.3</ele>
        <time>2020-10-21T12:49:55Z</time>
      </trkpt>
      <trkpt lat="49.8462" lon="2.50818">
        <ele>97.3</ele>
        <time>2020-10-21T12:49:56Z</time>
      </trkpt>
      <trkpt lat="49.8462" lon="2.50817">
        <ele>97.3</ele>
        <time>2020-10-21T12:49:57Z</time>
      </trkpt>
      <trkpt lat="49.84619" lon="2.50817">
        <ele>97.3</ele>
        <time>2020-10-21T12:49:58Z</time>
      </trkpt>
      <trkpt lat="49.84618" lon="2.50817">
        <ele>97.3</ele>
        <time>2020-10-21T12:49:59Z</time>
      </trkpt>
      <trkpt lat="49.84616" lon="2.50816">
        <ele>97.3</ele>
        <time>2020-10-21T12:50:01Z</time>
      </trkpt>
      <trkpt lat="49.84615" lon="2.50815">
        <ele>97.3</ele>
        <time>2020-10-21T12:50:02Z</time>
      </trkpt>
      <trkpt lat="49.84613" lon="2.50814">
        <ele>97.3</ele>
        <time>2020-10-21T12:50:04Z</time>
      </trkpt>
      <trkpt lat="49.84612" lon="2.50814">
        <ele>97.3</ele>
        <time>2020-10-21T12:50:05Z</time>
      </trkpt>
      <trkpt lat="49.8461" lon="2.50814">
        <ele>97.3</ele>
        <time>2020-10-21T12:50:06Z</time>
      </trkpt>
      <trkpt lat="49.84609" lon="2.50813">
        <ele>97.3</ele>
        <time>2020-10-21T12:50:08Z</time>
      </trkpt>
      <trkpt lat="49.84608" lon="2.50813">
        <ele>97.3</ele>
        <time>2020-10-21T12:50:09Z</time>
      </trkpt>
      <trkpt lat="49.84606" lon="2.50812">
        <ele>97.3</ele>
        <time>2020-10-21T12:50:10Z</time>
      </trkpt>
      <trkpt lat="49.84604" lon="2.50811">
        <ele>97.3</ele>
        <time>2020-10-21T12:50:11Z</time>
      </trkpt>
      <trkpt lat="49.84604" lon="2.5081">
        <ele>97.3</ele>
        <time>2020-10-21T12:50:12Z</time>
      </trkpt>
      <trkpt lat="49.84603" lon="2.50809">
        <ele>97.3</ele>
        <time>2020-10-21T12:50:13Z</time>
      </trkpt>
      <trkpt lat="49.84601" lon="2.50808">
        <ele>97.3</ele>
        <time>2020-10-21T12:50:14Z</time>
      </trkpt>
      <trkpt lat="49.846" lon="2.50808">
        <ele>97.3</ele>
        <time>2020-10-21T12:50:16Z</time>
      </trkpt>
      <trkpt lat="49.84599" lon="2.50807">
        <ele>97.3</ele>
        <time>2020-10-21T12:50:17Z</time>
      </trkpt>
      <trkpt lat="49.84598" lon="2.50807">
        <ele>97.3</ele>
        <time>2020-10-21T12:50:18Z</time>
      </trkpt>
      <trkpt lat="49.84597" lon="2.50806">
        <ele>97.3</ele>
        <time>2020-10-21T12:50:19Z</time>
      </trkpt>
      <trkpt lat="49.84595" lon="2.50805">
        <ele>97.3</ele>
        <time>2020-10-21T12:50:20Z</time>
      </trkpt>
      <trkpt lat="49.84594" lon="2.50804">
        <ele>97.4</ele>
        <time>2020-10-21T12:50:21Z</time>
      </trkpt>
      <trkpt lat="49.84593" lon="2.50804">
        <ele>97.4</ele>
        <time>2020-10-21T12:50:22Z</time>
      </trkpt>
      <trkpt lat="49.84592" lon="2.50803">
        <ele>97.4</ele>
        <time>2020-10-21T12:50:24Z</time>
      </trkpt>
      <trkpt lat="49.84591" lon="2.50802">
        <ele>97.4</ele>
        <time>2020-10-21T12:50:25Z</time>
      </trkpt>
      <trkpt lat="49.84589" lon="2.50801">
        <ele>97.4</ele>
        <time>2020-10-21T12:50:26Z</time>
      </trkpt>
      <trkpt lat="49.84588" lon="2.50801">
        <ele>97.4</ele>
        <time>2020-10-21T12:50:27Z</time>
      </trkpt>
      <trkpt lat="49.84587" lon="2.508">
        <ele>97.4</ele>
        <time>2020-10-21T12:50:28Z</time>
      </trkpt>
      <trkpt lat="49.84586" lon="2.508">
        <ele>97.4</ele>
        <time>2020-10-21T12:50:29Z</time>
      </trkpt>
      <trkpt lat="49.84584" lon="2.50799">
        <ele>97.4</ele>
        <time>2020-10-21T12:50:30Z</time>
      </trkpt>
      <trkpt lat="49.84582" lon="2.50797">
        <ele>97.4</ele>
        <time>2020-10-21T12:50:32Z</time>
      </trkpt>
      <trkpt lat="49.84581" lon="2.50796">
        <ele>97.4</ele>
        <time>2020-10-21T12:50:33Z</time>
      </trkpt>
      <trkpt lat="49.8458" lon="2.50795">
        <ele>97.4</ele>
        <time>2020-10-21T12:50:34Z</time>
      </trkpt>
      <trkpt lat="49.84578" lon="2.50794">
        <ele>97.4</ele>
        <time>2020-10-21T12:50:36Z</time>
      </trkpt>
      <trkpt lat="49.84577" lon="2.50793">
        <ele>97.4</ele>
        <time>2020-10-21T12:50:37Z</time>
      </trkpt>
      <trkpt lat="49.84576" lon="2.50792">
        <ele>97.4</ele>
        <time>2020-10-21T12:50:38Z</time>
      </trkpt>
      <trkpt lat="49.84574" lon="2.50792">
        <ele>97.4</ele>
        <time>2020-10-21T12:50:39Z</time>
      </trkpt>
      <trkpt lat="49.84573" lon="2.50791">
        <ele>97.4</ele>
        <time>2020-10-21T12:50:40Z</time>
      </trkpt>
      <trkpt lat="49.84572" lon="2.5079">
        <ele>97.4</ele>
        <time>2020-10-21T12:50:41Z</time>
      </trkpt>
      <trkpt lat="49.8457" lon="2.50788">
        <ele>97.4</ele>
        <time>2020-10-21T12:50:42Z</time>
      </trkpt>
      <trkpt lat="49.84568" lon="2.50787">
        <ele>97.4</ele>
        <time>2020-10-21T12:50:43Z</time>
      </trkpt>
      <trkpt lat="49.84567" lon="2.50787">
        <ele>97.4</ele>
        <time>2020-10-21T12:50:45Z</time>
      </trkpt>
      <trkpt lat="49.84566" lon="2.50786">
        <ele>97.4</ele>
        <time>2020-10-21T12:50:46Z</time>
      </trkpt>
      <trkpt lat="49.84564" lon="2.50785">
        <ele>97.4</ele>
        <time>2020-10-21T12:50:47Z</time>
      </trkpt>
      <trkpt lat="49.84563" lon="2.50785">
        <ele>97.4</ele>
        <time>2020-10-21T12:50:48Z</time>
      </trkpt>
      <trkpt lat="49.84563" lon="2.50785">
        <ele>97.4</ele>
        <time>2020-10-21T12:50:49Z</time>
      </trkpt>
      <trkpt lat="49.8456" lon="2.50784">
        <ele>97.4</ele>
        <time>2020-10-21T12:50:50Z</time>
      </trkpt>
      <trkpt lat="49.84559" lon="2.50784">
        <ele>97.4</ele>
        <time>2020-10-21T12:50:51Z</time>
      </trkpt>
      <trkpt lat="49.84558" lon="2.50783">
        <ele>97.3</ele>
        <time>2020-10-21T12:50:53Z</time>
      </trkpt>
      <trkpt lat="49.84557" lon="2.50783">
        <ele>97.3</ele>
        <time>2020-10-21T12:50:54Z</time>
      </trkpt>
      <trkpt lat="49.84556" lon="2.50783">
        <ele>97.3</ele>
        <time>2020-10-21T12:50:55Z</time>
      </trkpt>
      <trkpt lat="49.84555" lon="2.50782">
        <ele>97.3</ele>
        <time>2020-10-21T12:50:56Z</time>
      </trkpt>
      <trkpt lat="49.84554" lon="2.50782">
        <ele>97.3</ele>
        <time>2020-10-21T12:50:57Z</time>
      </trkpt>
      <trkpt lat="49.84552" lon="2.50781">
        <ele>97.3</ele>
        <time>2020-10-21T12:50:58Z</time>
      </trkpt>
      <trkpt lat="49.84551" lon="2.50781">
        <ele>97.3</ele>
        <time>2020-10-21T12:50:59Z</time>
      </trkpt>
      <trkpt lat="49.8455" lon="2.5078">
        <ele>97.2</ele>
        <time>2020-10-21T12:51:00Z</time>
      </trkpt>
      <trkpt lat="49.84548" lon="2.5078">
        <ele>97.2</ele>
        <time>2020-10-21T12:51:02Z</time>
      </trkpt>
      <trkpt lat="49.84547" lon="2.50779">
        <ele>97.2</ele>
        <time>2020-10-21T12:51:03Z</time>
      </trkpt>
      <trkpt lat="49.84546" lon="2.50779">
        <ele>97.2</ele>
        <time>2020-10-21T12:51:04Z</time>
      </trkpt>
      <trkpt lat="49.84544" lon="2.50779">
        <ele>97.2</ele>
        <time>2020-10-21T12:51:05Z</time>
      </trkpt>
      <trkpt lat="49.84543" lon="2.50778">
        <ele>97.1</ele>
        <time>2020-10-21T12:51:06Z</time>
      </trkpt>
      <trkpt lat="49.84541" lon="2.50778">
        <ele>97.1</ele>
        <time>2020-10-21T12:51:07Z</time>
      </trkpt>
      <trkpt lat="49.8454" lon="2.50778">
        <ele>97.1</ele>
        <time>2020-10-21T12:51:08Z</time>
      </trkpt>
      <trkpt lat="49.84539" lon="2.50778">
        <ele>97</ele>
        <time>2020-10-21T12:51:09Z</time>
      </trkpt>
      <trkpt lat="49.84538" lon="2.50778">
        <ele>97</ele>
        <time>2020-10-21T12:51:11Z</time>
      </trkpt>
      <trkpt lat="49.84537" lon="2.50778">
        <ele>97</ele>
        <time>2020-10-21T12:51:12Z</time>
      </trkpt>
      <trkpt lat="49.84535" lon="2.50777">
        <ele>96.9</ele>
        <time>2020-10-21T12:51:13Z</time>
      </trkpt>
      <trkpt lat="49.84534" lon="2.50777">
        <ele>96.9</ele>
        <time>2020-10-21T12:51:14Z</time>
      </trkpt>
      <trkpt lat="49.84532" lon="2.50777">
        <ele>96.8</ele>
        <time>2020-10-21T12:51:15Z</time>
      </trkpt>
      <trkpt lat="49.84532" lon="2.50777">
        <ele>96.8</ele>
        <time>2020-10-21T12:51:16Z</time>
      </trkpt>
      <trkpt lat="49.8453" lon="2.50778">
        <ele>96.7</ele>
        <time>2020-10-21T12:51:18Z</time>
      </trkpt>
      <trkpt lat="49.84529" lon="2.50778">
        <ele>96.7</ele>
        <time>2020-10-21T12:51:19Z</time>
      </trkpt>
      <trkpt lat="49.84528" lon="2.50779">
        <ele>96.6</ele>
        <time>2020-10-21T12:51:20Z</time>
      </trkpt>
      <trkpt lat="49.84526" lon="2.50779">
        <ele>96.6</ele>
        <time>2020-10-21T12:51:21Z</time>
      </trkpt>
      <trkpt lat="49.84525" lon="2.50779">
        <ele>96.5</ele>
        <time>2020-10-21T12:51:22Z</time>
      </trkpt>
      <trkpt lat="49.84524" lon="2.50779">
        <ele>96.5</ele>
        <time>2020-10-21T12:51:24Z</time>
      </trkpt>
      <trkpt lat="49.84523" lon="2.50779">
        <ele>96.4</ele>
        <time>2020-10-21T12:51:25Z</time>
      </trkpt>
      <trkpt lat="49.84521" lon="2.5078">
        <ele>96.4</ele>
        <time>2020-10-21T12:51:26Z</time>
      </trkpt>
      <trkpt lat="49.84519" lon="2.5078">
        <ele>96.3</ele>
        <time>2020-10-21T12:51:27Z</time>
      </trkpt>
      <trkpt lat="49.84519" lon="2.5078">
        <ele>96.3</ele>
        <time>2020-10-21T12:51:28Z</time>
      </trkpt>
      <trkpt lat="49.84518" lon="2.5078">
        <ele>96.3</ele>
        <time>2020-10-21T12:51:29Z</time>
      </trkpt>
      <trkpt lat="49.84516" lon="2.5078">
        <ele>96.2</ele>
        <time>2020-10-21T12:51:30Z</time>
      </trkpt>
      <trkpt lat="49.84516" lon="2.5078">
        <ele>96.2</ele>
        <time>2020-10-21T12:51:32Z</time>
      </trkpt>
      <trkpt lat="49.84514" lon="2.5078">
        <ele>96.1</ele>
        <time>2020-10-21T12:51:33Z</time>
      </trkpt>
      <trkpt lat="49.84512" lon="2.5078">
        <ele>96.1</ele>
        <time>2020-10-21T12:51:34Z</time>
      </trkpt>
      <trkpt lat="49.84511" lon="2.5078">
        <ele>96.1</ele>
        <time>2020-10-21T12:51:35Z</time>
      </trkpt>
      <trkpt lat="49.84511" lon="2.5078">
        <ele>96.1</ele>
        <time>2020-10-21T12:51:36Z</time>
      </trkpt>
      <trkpt lat="49.8451" lon="2.5078">
        <ele>96</ele>
        <time>2020-10-21T12:51:37Z</time>
      </trkpt>
      <trkpt lat="49.84508" lon="2.5078">
        <ele>96</ele>
        <time>2020-10-21T12:51:38Z</time>
      </trkpt>
      <trkpt lat="49.84507" lon="2.5078">
        <ele>96</ele>
        <time>2020-10-21T12:51:39Z</time>
      </trkpt>
      <trkpt lat="49.84505" lon="2.50779">
        <ele>96</ele>
        <time>2020-10-21T12:51:41Z</time>
      </trkpt>
      <trkpt lat="49.84504" lon="2.50779">
        <ele>95.9</ele>
        <time>2020-10-21T12:51:42Z</time>
      </trkpt>
      <trkpt lat="49.84503" lon="2.50779">
        <ele>95.9</ele>
        <time>2020-10-21T12:51:43Z</time>
      </trkpt>
      <trkpt lat="49.84502" lon="2.50779">
        <ele>95.9</ele>
        <time>2020-10-21T12:51:44Z</time>
      </trkpt>
      <trkpt lat="49.84501" lon="2.50778">
        <ele>95.9</ele>
        <time>2020-10-21T12:51:45Z</time>
      </trkpt>
      <trkpt lat="49.84499" lon="2.50779">
        <ele>95.9</ele>
        <time>2020-10-21T12:51:46Z</time>
      </trkpt>
      <trkpt lat="49.84498" lon="2.50779">
        <ele>95.9</ele>
        <time>2020-10-21T12:51:48Z</time>
      </trkpt>
      <trkpt lat="49.84497" lon="2.5078">
        <ele>95.9</ele>
        <time>2020-10-21T12:51:49Z</time>
      </trkpt>
      <trkpt lat="49.84496" lon="2.50781">
        <ele>95.9</ele>
        <time>2020-10-21T12:51:50Z</time>
      </trkpt>
      <trkpt lat="49.84494" lon="2.50781">
        <ele>95.9</ele>
        <time>2020-10-21T12:51:51Z</time>
      </trkpt>
      <trkpt lat="49.84492" lon="2.50782">
        <ele>95.9</ele>
        <time>2020-10-21T12:51:53Z</time>
      </trkpt>
      <trkpt lat="49.84491" lon="2.50782">
        <ele>95.9</ele>
        <time>2020-10-21T12:51:54Z</time>
      </trkpt>
      <trkpt lat="49.8449" lon="2.50782">
        <ele>95.9</ele>
        <time>2020-10-21T12:51:55Z</time>
      </trkpt>
      <trkpt lat="49.84488" lon="2.50783">
        <ele>95.8</ele>
        <time>2020-10-21T12:51:57Z</time>
      </trkpt>
      <trkpt lat="49.84487" lon="2.50783">
        <ele>95.8</ele>
        <time>2020-10-21T12:51:58Z</time>
      </trkpt>
      <trkpt lat="49.84485" lon="2.50783">
        <ele>95.8</ele>
        <time>2020-10-21T12:51:59Z</time>
      </trkpt>
      <trkpt lat="49.84484" lon="2.50783">
        <ele>95.8</ele>
        <time>2020-10-21T12:52:00Z</time>
      </trkpt>
      <trkpt lat="49.84483" lon="2.50783">
        <ele>95.8</ele>
        <time>2020-10-21T12:52:02Z</time>
      </trkpt>
      <trkpt lat="49.84481" lon="2.50783">
        <ele>95.8</ele>
        <time>2020-10-21T12:52:03Z</time>
      </trkpt>
      <trkpt lat="49.8448" lon="2.50783">
        <ele>95.8</ele>
        <time>2020-10-21T12:52:04Z</time>
      </trkpt>
      <trkpt lat="49.84478" lon="2.50783">
        <ele>95.7</ele>
        <time>2020-10-21T12:52:05Z</time>
      </trkpt>
      <trkpt lat="49.84477" lon="2.50783">
        <ele>95.7</ele>
        <time>2020-10-21T12:52:06Z</time>
      </trkpt>
      <trkpt lat="49.84476" lon="2.50783">
        <ele>95.7</ele>
        <time>2020-10-21T12:52:07Z</time>
      </trkpt>
      <trkpt lat="49.84474" lon="2.50783">
        <ele>95.7</ele>
        <time>2020-10-21T12:52:08Z</time>
      </trkpt>
      <trkpt lat="49.84473" lon="2.50783">
        <ele>95.7</ele>
        <time>2020-10-21T12:52:10Z</time>
      </trkpt>
      <trkpt lat="49.84472" lon="2.50783">
        <ele>95.7</ele>
        <time>2020-10-21T12:52:11Z</time>
      </trkpt>
      <trkpt lat="49.8447" lon="2.50783">
        <ele>95.7</ele>
        <time>2020-10-21T12:52:12Z</time>
      </trkpt>
      <trkpt lat="49.84469" lon="2.50783">
        <ele>95.7</ele>
        <time>2020-10-21T12:52:13Z</time>
      </trkpt>
      <trkpt lat="49.84468" lon="2.50783">
        <ele>95.7</ele>
        <time>2020-10-21T12:52:14Z</time>
      </trkpt>
      <trkpt lat="49.84467" lon="2.50784">
        <ele>95.6</ele>
        <time>2020-10-21T12:52:15Z</time>
      </trkpt>
      <trkpt lat="49.84466" lon="2.50784">
        <ele>95.6</ele>
        <time>2020-10-21T12:52:16Z</time>
      </trkpt>
      <trkpt lat="49.84465" lon="2.50784">
        <ele>95.6</ele>
        <time>2020-10-21T12:52:17Z</time>
      </trkpt>
      <trkpt lat="49.84463" lon="2.50784">
        <ele>95.6</ele>
        <time>2020-10-21T12:52:19Z</time>
      </trkpt>
      <trkpt lat="49.84462" lon="2.50785">
        <ele>95.6</ele>
        <time>2020-10-21T12:52:20Z</time>
      </trkpt>
      <trkpt lat="49.84461" lon="2.50785">
        <ele>95.6</ele>
        <time>2020-10-21T12:52:21Z</time>
      </trkpt>
      <trkpt lat="49.84459" lon="2.50786">
        <ele>95.5</ele>
        <time>2020-10-21T12:52:22Z</time>
      </trkpt>
      <trkpt lat="49.84458" lon="2.50786">
        <ele>95.5</ele>
        <time>2020-10-21T12:52:23Z</time>
      </trkpt>
      <trkpt lat="49.84457" lon="2.50786">
        <ele>95.5</ele>
        <time>2020-10-21T12:52:24Z</time>
      </trkpt>
      <trkpt lat="49.84457" lon="2.50787">
        <ele>95.5</ele>
        <time>2020-10-21T12:52:25Z</time>
      </trkpt>
      <trkpt lat="49.84455" lon="2.50787">
        <ele>95.5</ele>
        <time>2020-10-21T12:52:27Z</time>
      </trkpt>
      <trkpt lat="49.84454" lon="2.50787">
        <ele>95.5</ele>
        <time>2020-10-21T12:52:28Z</time>
      </trkpt>
      <trkpt lat="49.84452" lon="2.50788">
        <ele>95.4</ele>
        <time>2020-10-21T12:52:29Z</time>
      </trkpt>
      <trkpt lat="49.84451" lon="2.50788">
        <ele>95.4</ele>
        <time>2020-10-21T12:52:30Z</time>
      </trkpt>
      <trkpt lat="49.8445" lon="2.50788">
        <ele>95.4</ele>
        <time>2020-10-21T12:52:31Z</time>
      </trkpt>
      <trkpt lat="49.84448" lon="2.50789">
        <ele>95.4</ele>
        <time>2020-10-21T12:52:32Z</time>
      </trkpt>
      <trkpt lat="49.84448" lon="2.50789">
        <ele>95.4</ele>
        <time>2020-10-21T12:52:33Z</time>
      </trkpt>
      <trkpt lat="49.84447" lon="2.50789">
        <ele>95.4</ele>
        <time>2020-10-21T12:52:35Z</time>
      </trkpt>
      <trkpt lat="49.84445" lon="2.50789">
        <ele>95.3</ele>
        <time>2020-10-21T12:52:36Z</time>
      </trkpt>
      <trkpt lat="49.84444" lon="2.50789">
        <ele>95.3</ele>
        <time>2020-10-21T12:52:37Z</time>
      </trkpt>
      <trkpt lat="49.84443" lon="2.50789">
        <ele>95.3</ele>
        <time>2020-10-21T12:52:38Z</time>
      </trkpt>
      <trkpt lat="49.84442" lon="2.50789">
        <ele>95.3</ele>
        <time>2020-10-21T12:52:39Z</time>
      </trkpt>
      <trkpt lat="49.8444" lon="2.50789">
        <ele>95.2</ele>
        <time>2020-10-21T12:52:40Z</time>
      </trkpt>
      <trkpt lat="49.84439" lon="2.50789">
        <ele>95.2</ele>
        <time>2020-10-21T12:52:42Z</time>
      </trkpt>
      <trkpt lat="49.84437" lon="2.50789">
        <ele>95.2</ele>
        <time>2020-10-21T12:52:43Z</time>
      </trkpt>
      <trkpt lat="49.84435" lon="2.5079">
        <ele>95.1</ele>
        <time>2020-10-21T12:52:44Z</time>
      </trkpt>
      <trkpt lat="49.84434" lon="2.5079">
        <ele>95.1</ele>
        <time>2020-10-21T12:52:45Z</time>
      </trkpt>
      <trkpt lat="49.84434" lon="2.5079">
        <ele>95.1</ele>
        <time>2020-10-21T12:52:46Z</time>
      </trkpt>
      <trkpt lat="49.84432" lon="2.5079">
        <ele>95.1</ele>
        <time>2020-10-21T12:52:47Z</time>
      </trkpt>
      <trkpt lat="49.84431" lon="2.5079">
        <ele>95.1</ele>
        <time>2020-10-21T12:52:48Z</time>
      </trkpt>
      <trkpt lat="49.8443" lon="2.50791">
        <ele>95</ele>
        <time>2020-10-21T12:52:50Z</time>
      </trkpt>
      <trkpt lat="49.84428" lon="2.50791">
        <ele>95</ele>
        <time>2020-10-21T12:52:51Z</time>
      </trkpt>
      <trkpt lat="49.84427" lon="2.50791">
        <ele>95</ele>
        <time>2020-10-21T12:52:52Z</time>
      </trkpt>
      <trkpt lat="49.84426" lon="2.50791">
        <ele>95</ele>
        <time>2020-10-21T12:52:53Z</time>
      </trkpt>
      <trkpt lat="49.84425" lon="2.50792">
        <ele>94.9</ele>
        <time>2020-10-21T12:52:54Z</time>
      </trkpt>
      <trkpt lat="49.84423" lon="2.50792">
        <ele>94.9</ele>
        <time>2020-10-21T12:52:55Z</time>
      </trkpt>
      <trkpt lat="49.84421" lon="2.50792">
        <ele>94.9</ele>
        <time>2020-10-21T12:52:56Z</time>
      </trkpt>
      <trkpt lat="49.8442" lon="2.50792">
        <ele>94.9</ele>
        <time>2020-10-21T12:52:58Z</time>
      </trkpt>
      <trkpt lat="49.84419" lon="2.50792">
        <ele>94.8</ele>
        <time>2020-10-21T12:52:59Z</time>
      </trkpt>
      <trkpt lat="49.84417" lon="2.50793">
        <ele>94.8</ele>
        <time>2020-10-21T12:53:00Z</time>
      </trkpt>
      <trkpt lat="49.84416" lon="2.50793">
        <ele>94.8</ele>
        <time>2020-10-21T12:53:01Z</time>
      </trkpt>
      <trkpt lat="49.84416" lon="2.50794">
        <ele>94.8</ele>
        <time>2020-10-21T12:53:02Z</time>
      </trkpt>
      <trkpt lat="49.84414" lon="2.50794">
        <ele>94.7</ele>
        <time>2020-10-21T12:53:03Z</time>
      </trkpt>
      <trkpt lat="49.84413" lon="2.50794">
        <ele>94.7</ele>
        <time>2020-10-21T12:53:05Z</time>
      </trkpt>
      <trkpt lat="49.84411" lon="2.50794">
        <ele>94.7</ele>
        <time>2020-10-21T12:53:06Z</time>
      </trkpt>
      <trkpt lat="49.8441" lon="2.50795">
        <ele>94.6</ele>
        <time>2020-10-21T12:53:07Z</time>
      </trkpt>
      <trkpt lat="49.84408" lon="2.50795">
        <ele>94.6</ele>
        <time>2020-10-21T12:53:08Z</time>
      </trkpt>
      <trkpt lat="49.84407" lon="2.50795">
        <ele>94.6</ele>
        <time>2020-10-21T12:53:09Z</time>
      </trkpt>
      <trkpt lat="49.84406" lon="2.50795">
        <ele>94.5</ele>
        <time>2020-10-21T12:53:10Z</time>
      </trkpt>
      <trkpt lat="49.84405" lon="2.50796">
        <ele>94.5</ele>
        <time>2020-10-21T12:53:11Z</time>
      </trkpt>
      <trkpt lat="49.84403" lon="2.50796">
        <ele>94.5</ele>
        <time>2020-10-21T12:53:12Z</time>
      </trkpt>
      <trkpt lat="49.84402" lon="2.50796">
        <ele>94.4</ele>
        <time>2020-10-21T12:53:13Z</time>
      </trkpt>
      <trkpt lat="49.84401" lon="2.50796">
        <ele>94.4</ele>
        <time>2020-10-21T12:53:14Z</time>
      </trkpt>
      <trkpt lat="49.84399" lon="2.50796">
        <ele>94.4</ele>
        <time>2020-10-21T12:53:16Z</time>
      </trkpt>
      <trkpt lat="49.84398" lon="2.50796">
        <ele>94.4</ele>
        <time>2020-10-21T12:53:17Z</time>
      </trkpt>
      <trkpt lat="49.84396" lon="2.50796">
        <ele>94.4</ele>
        <time>2020-10-21T12:53:18Z</time>
      </trkpt>
      <trkpt lat="49.84394" lon="2.50796">
        <ele>94.4</ele>
        <time>2020-10-21T12:53:19Z</time>
      </trkpt>
      <trkpt lat="49.84393" lon="2.50796">
        <ele>94.4</ele>
        <time>2020-10-21T12:53:20Z</time>
      </trkpt>
      <trkpt lat="49.84392" lon="2.50796">
        <ele>94.4</ele>
        <time>2020-10-21T12:53:21Z</time>
      </trkpt>
      <trkpt lat="49.84391" lon="2.50796">
        <ele>94.4</ele>
        <time>2020-10-21T12:53:22Z</time>
      </trkpt>
      <trkpt lat="49.8439" lon="2.50796">
        <ele>94.4</ele>
        <time>2020-10-21T12:53:23Z</time>
      </trkpt>
      <trkpt lat="49.84389" lon="2.50796">
        <ele>94.4</ele>
        <time>2020-10-21T12:53:25Z</time>
      </trkpt>
      <trkpt lat="49.84387" lon="2.50796">
        <ele>94.4</ele>
        <time>2020-10-21T12:53:26Z</time>
      </trkpt>
      <trkpt lat="49.84386" lon="2.50796">
        <ele>94.4</ele>
        <time>2020-10-21T12:53:27Z</time>
      </trkpt>
      <trkpt lat="49.84385" lon="2.50796">
        <ele>94.4</ele>
        <time>2020-10-21T12:53:28Z</time>
      </trkpt>
      <trkpt lat="49.84383" lon="2.50797">
        <ele>94.4</ele>
        <time>2020-10-21T12:53:29Z</time>
      </trkpt>
      <trkpt lat="49.84382" lon="2.50797">
        <ele>94.4</ele>
        <time>2020-10-21T12:53:30Z</time>
      </trkpt>
      <trkpt lat="49.84381" lon="2.50797">
        <ele>94.4</ele>
        <time>2020-10-21T12:53:31Z</time>
      </trkpt>
      <trkpt lat="49.8438" lon="2.50797">
        <ele>94.4</ele>
        <time>2020-10-21T12:53:32Z</time>
      </trkpt>
      <trkpt lat="49.84379" lon="2.50797">
        <ele>94.4</ele>
        <time>2020-10-21T12:53:34Z</time>
      </trkpt>
      <trkpt lat="49.84377" lon="2.50796">
        <ele>94.4</ele>
        <time>2020-10-21T12:53:35Z</time>
      </trkpt>
      <trkpt lat="49.84376" lon="2.50796">
        <ele>94.4</ele>
        <time>2020-10-21T12:53:36Z</time>
      </trkpt>
      <trkpt lat="49.84374" lon="2.50796">
        <ele>94.4</ele>
        <time>2020-10-21T12:53:37Z</time>
      </trkpt>
      <trkpt lat="49.84373" lon="2.50797">
        <ele>94.4</ele>
        <time>2020-10-21T12:53:38Z</time>
      </trkpt>
      <trkpt lat="49.84372" lon="2.50797">
        <ele>94.4</ele>
        <time>2020-10-21T12:53:39Z</time>
      </trkpt>
      <trkpt lat="49.84371" lon="2.50797">
        <ele>94.4</ele>
        <time>2020-10-21T12:53:40Z</time>
      </trkpt>
      <trkpt lat="49.8437" lon="2.50798">
        <ele>94.4</ele>
        <time>2020-10-21T12:53:41Z</time>
      </trkpt>
      <trkpt lat="49.84368" lon="2.50797">
        <ele>94.4</ele>
        <time>2020-10-21T12:53:43Z</time>
      </trkpt>
      <trkpt lat="49.84367" lon="2.50797">
        <ele>94.4</ele>
        <time>2020-10-21T12:53:44Z</time>
      </trkpt>
      <trkpt lat="49.84366" lon="2.50797">
        <ele>94.3</ele>
        <time>2020-10-21T12:53:45Z</time>
      </trkpt>
      <trkpt lat="49.84365" lon="2.50797">
        <ele>94.3</ele>
        <time>2020-10-21T12:53:46Z</time>
      </trkpt>
      <trkpt lat="49.84364" lon="2.50797">
        <ele>94.3</ele>
        <time>2020-10-21T12:53:47Z</time>
      </trkpt>
      <trkpt lat="49.84363" lon="2.50797">
        <ele>94.3</ele>
        <time>2020-10-21T12:53:48Z</time>
      </trkpt>
      <trkpt lat="49.84362" lon="2.50798">
        <ele>94.3</ele>
        <time>2020-10-21T12:53:49Z</time>
      </trkpt>
      <trkpt lat="49.84361" lon="2.50799">
        <ele>94.3</ele>
        <time>2020-10-21T12:53:50Z</time>
      </trkpt>
      <trkpt lat="49.84359" lon="2.508">
        <ele>94.3</ele>
        <time>2020-10-21T12:53:52Z</time>
      </trkpt>
      <trkpt lat="49.84358" lon="2.508">
        <ele>94.3</ele>
        <time>2020-10-21T12:53:53Z</time>
      </trkpt>
      <trkpt lat="49.84356" lon="2.508">
        <ele>94.3</ele>
        <time>2020-10-21T12:53:54Z</time>
      </trkpt>
      <trkpt lat="49.84354" lon="2.508">
        <ele>94.3</ele>
        <time>2020-10-21T12:53:55Z</time>
      </trkpt>
      <trkpt lat="49.84353" lon="2.508">
        <ele>94.3</ele>
        <time>2020-10-21T12:53:56Z</time>
      </trkpt>
      <trkpt lat="49.84353" lon="2.508">
        <ele>94.3</ele>
        <time>2020-10-21T12:53:57Z</time>
      </trkpt>
      <trkpt lat="49.84351" lon="2.508">
        <ele>94.3</ele>
        <time>2020-10-21T12:53:58Z</time>
      </trkpt>
      <trkpt lat="49.8435" lon="2.508">
        <ele>94.3</ele>
        <time>2020-10-21T12:53:59Z</time>
      </trkpt>
      <trkpt lat="49.84349" lon="2.508">
        <ele>94.3</ele>
        <time>2020-10-21T12:54:01Z</time>
      </trkpt>
      <trkpt lat="49.84348" lon="2.508">
        <ele>94.3</ele>
        <time>2020-10-21T12:54:02Z</time>
      </trkpt>
      <trkpt lat="49.84346" lon="2.508">
        <ele>94.2</ele>
        <time>2020-10-21T12:54:03Z</time>
      </trkpt>
      <trkpt lat="49.84345" lon="2.508">
        <ele>94.2</ele>
        <time>2020-10-21T12:54:04Z</time>
      </trkpt>
      <trkpt lat="49.84344" lon="2.508">
        <ele>94.2</ele>
        <time>2020-10-21T12:54:05Z</time>
      </trkpt>
      <trkpt lat="49.84343" lon="2.50801">
        <ele>94.2</ele>
        <time>2020-10-21T12:54:06Z</time>
      </trkpt>
      <trkpt lat="49.84341" lon="2.50801">
        <ele>94.2</ele>
        <time>2020-10-21T12:54:07Z</time>
      </trkpt>
      <trkpt lat="49.84339" lon="2.50802">
        <ele>94.2</ele>
        <time>2020-10-21T12:54:09Z</time>
      </trkpt>
      <trkpt lat="49.84338" lon="2.50802">
        <ele>94.2</ele>
        <time>2020-10-21T12:54:10Z</time>
      </trkpt>
      <trkpt lat="49.84337" lon="2.50802">
        <ele>94.2</ele>
        <time>2020-10-21T12:54:11Z</time>
      </trkpt>
      <trkpt lat="49.84336" lon="2.50802">
        <ele>94.2</ele>
        <time>2020-10-21T12:54:13Z</time>
      </trkpt>
      <trkpt lat="49.84334" lon="2.50802">
        <ele>94.2</ele>
        <time>2020-10-21T12:54:14Z</time>
      </trkpt>
      <trkpt lat="49.84333" lon="2.50803">
        <ele>94.2</ele>
        <time>2020-10-21T12:54:15Z</time>
      </trkpt>
      <trkpt lat="49.84331" lon="2.50803">
        <ele>94.2</ele>
        <time>2020-10-21T12:54:16Z</time>
      </trkpt>
      <trkpt lat="49.8433" lon="2.50803">
        <ele>94.2</ele>
        <time>2020-10-21T12:54:17Z</time>
      </trkpt>
      <trkpt lat="49.84329" lon="2.50804">
        <ele>94.2</ele>
        <time>2020-10-21T12:54:18Z</time>
      </trkpt>
      <trkpt lat="49.84327" lon="2.50804">
        <ele>94.2</ele>
        <time>2020-10-21T12:54:19Z</time>
      </trkpt>
      <trkpt lat="49.84326" lon="2.50804">
        <ele>94.2</ele>
        <time>2020-10-21T12:54:20Z</time>
      </trkpt>
      <trkpt lat="49.84325" lon="2.50804">
        <ele>94.2</ele>
        <time>2020-10-21T12:54:22Z</time>
      </trkpt>
      <trkpt lat="49.84324" lon="2.50804">
        <ele>94.2</ele>
        <time>2020-10-21T12:54:23Z</time>
      </trkpt>
      <trkpt lat="49.84322" lon="2.50805">
        <ele>94.3</ele>
        <time>2020-10-21T12:54:24Z</time>
      </trkpt>
      <trkpt lat="49.84321" lon="2.50805">
        <ele>94.3</ele>
        <time>2020-10-21T12:54:25Z</time>
      </trkpt>
      <trkpt lat="49.8432" lon="2.50805">
        <ele>94.3</ele>
        <time>2020-10-21T12:54:26Z</time>
      </trkpt>
      <trkpt lat="49.84318" lon="2.50805">
        <ele>94.3</ele>
        <time>2020-10-21T12:54:27Z</time>
      </trkpt>
      <trkpt lat="49.84317" lon="2.50805">
        <ele>94.4</ele>
        <time>2020-10-21T12:54:28Z</time>
      </trkpt>
      <trkpt lat="49.84316" lon="2.50805">
        <ele>94.4</ele>
        <time>2020-10-21T12:54:30Z</time>
      </trkpt>
      <trkpt lat="49.84315" lon="2.50806">
        <ele>94.4</ele>
        <time>2020-10-21T12:54:31Z</time>
      </trkpt>
      <trkpt lat="49.84313" lon="2.50806">
        <ele>94.5</ele>
        <time>2020-10-21T12:54:32Z</time>
      </trkpt>
      <trkpt lat="49.84312" lon="2.50806">
        <ele>94.5</ele>
        <time>2020-10-21T12:54:33Z</time>
      </trkpt>
      <trkpt lat="49.84311" lon="2.50806">
        <ele>94.5</ele>
        <time>2020-10-21T12:54:34Z</time>
      </trkpt>
      <trkpt lat="49.8431" lon="2.50806">
        <ele>94.5</ele>
        <time>2020-10-21T12:54:35Z</time>
      </trkpt>
      <trkpt lat="49.84308" lon="2.50806">
        <ele>94.5</ele>
        <time>2020-10-21T12:54:36Z</time>
      </trkpt>
      <trkpt lat="49.84307" lon="2.50807">
        <ele>94.5</ele>
        <time>2020-10-21T12:54:37Z</time>
      </trkpt>
      <trkpt lat="49.84305" lon="2.50807">
        <ele>94.5</ele>
        <time>2020-10-21T12:54:39Z</time>
      </trkpt>
      <trkpt lat="49.84304" lon="2.50807">
        <ele>94.6</ele>
        <time>2020-10-21T12:54:40Z</time>
      </trkpt>
      <trkpt lat="49.84304" lon="2.50807">
        <ele>94.6</ele>
        <time>2020-10-21T12:54:41Z</time>
      </trkpt>
      <trkpt lat="49.84302" lon="2.50807">
        <ele>94.6</ele>
        <time>2020-10-21T12:54:42Z</time>
      </trkpt>
      <trkpt lat="49.84301" lon="2.50808">
        <ele>94.6</ele>
        <time>2020-10-21T12:54:43Z</time>
      </trkpt>
      <trkpt lat="49.84299" lon="2.50808">
        <ele>94.6</ele>
        <time>2020-10-21T12:54:44Z</time>
      </trkpt>
      <trkpt lat="49.84298" lon="2.50809">
        <ele>94.6</ele>
        <time>2020-10-21T12:54:45Z</time>
      </trkpt>
      <trkpt lat="49.84295" lon="2.50809">
        <ele>94.6</ele>
        <time>2020-10-21T12:54:46Z</time>
      </trkpt>
      <trkpt lat="49.84294" lon="2.5081">
        <ele>94.6</ele>
        <time>2020-10-21T12:54:48Z</time>
      </trkpt>
      <trkpt lat="49.84293" lon="2.5081">
        <ele>94.5</ele>
        <time>2020-10-21T12:54:49Z</time>
      </trkpt>
      <trkpt lat="49.84292" lon="2.50811">
        <ele>94.5</ele>
        <time>2020-10-21T12:54:50Z</time>
      </trkpt>
      <trkpt lat="49.84291" lon="2.50811">
        <ele>94.5</ele>
        <time>2020-10-21T12:54:51Z</time>
      </trkpt>
      <trkpt lat="49.84288" lon="2.50811">
        <ele>94.5</ele>
        <time>2020-10-21T12:54:53Z</time>
      </trkpt>
      <trkpt lat="49.84287" lon="2.50811">
        <ele>94.4</ele>
        <time>2020-10-21T12:54:54Z</time>
      </trkpt>
      <trkpt lat="49.84286" lon="2.50811">
        <ele>94.4</ele>
        <time>2020-10-21T12:54:55Z</time>
      </trkpt>
      <trkpt lat="49.84285" lon="2.50811">
        <ele>94.4</ele>
        <time>2020-10-21T12:54:56Z</time>
      </trkpt>
      <trkpt lat="49.84283" lon="2.50811">
        <ele>94.4</ele>
        <time>2020-10-21T12:54:58Z</time>
      </trkpt>
      <trkpt lat="49.84281" lon="2.50811">
        <ele>94.3</ele>
        <time>2020-10-21T12:54:59Z</time>
      </trkpt>
      <trkpt lat="49.8428" lon="2.50812">
        <ele>94.3</ele>
        <time>2020-10-21T12:55:00Z</time>
      </trkpt>
      <trkpt lat="49.84279" lon="2.50812">
        <ele>94.3</ele>
        <time>2020-10-21T12:55:01Z</time>
      </trkpt>
      <trkpt lat="49.84277" lon="2.50812">
        <ele>94.3</ele>
        <time>2020-10-21T12:55:03Z</time>
      </trkpt>
      <trkpt lat="49.84275" lon="2.50813">
        <ele>94.2</ele>
        <time>2020-10-21T12:55:04Z</time>
      </trkpt>
      <trkpt lat="49.84273" lon="2.50813">
        <ele>94.2</ele>
        <time>2020-10-21T12:55:05Z</time>
      </trkpt>
      <trkpt lat="49.84272" lon="2.50813">
        <ele>94.2</ele>
        <time>2020-10-21T12:55:07Z</time>
      </trkpt>
      <trkpt lat="49.84271" lon="2.50814">
        <ele>94.2</ele>
        <time>2020-10-21T12:55:08Z</time>
      </trkpt>
      <trkpt lat="49.8427" lon="2.50814">
        <ele>94.2</ele>
        <time>2020-10-21T12:55:09Z</time>
      </trkpt>
      <trkpt lat="49.84269" lon="2.50815">
        <ele>94.1</ele>
        <time>2020-10-21T12:55:10Z</time>
      </trkpt>
      <trkpt lat="49.84267" lon="2.50815">
        <ele>94.1</ele>
        <time>2020-10-21T12:55:11Z</time>
      </trkpt>
      <trkpt lat="49.84266" lon="2.50816">
        <ele>94.1</ele>
        <time>2020-10-21T12:55:12Z</time>
      </trkpt>
      <trkpt lat="49.84265" lon="2.50816">
        <ele>94.1</ele>
        <time>2020-10-21T12:55:13Z</time>
      </trkpt>
      <trkpt lat="49.84264" lon="2.50816">
        <ele>94.1</ele>
        <time>2020-10-21T12:55:15Z</time>
      </trkpt>
      <trkpt lat="49.84263" lon="2.50817">
        <ele>94.1</ele>
        <time>2020-10-21T12:55:16Z</time>
      </trkpt>
      <trkpt lat="49.84261" lon="2.50818">
        <ele>94.1</ele>
        <time>2020-10-21T12:55:17Z</time>
      </trkpt>
      <trkpt lat="49.8426" lon="2.50818">
        <ele>94.1</ele>
        <time>2020-10-21T12:55:18Z</time>
      </trkpt>
      <trkpt lat="49.84259" lon="2.50819">
        <ele>94.1</ele>
        <time>2020-10-21T12:55:19Z</time>
      </trkpt>
      <trkpt lat="49.84258" lon="2.50819">
        <ele>94.1</ele>
        <time>2020-10-21T12:55:20Z</time>
      </trkpt>
      <trkpt lat="49.84257" lon="2.5082">
        <ele>94.1</ele>
        <time>2020-10-21T12:55:21Z</time>
      </trkpt>
      <trkpt lat="49.84255" lon="2.5082">
        <ele>94.1</ele>
        <time>2020-10-21T12:55:23Z</time>
      </trkpt>
      <trkpt lat="49.84253" lon="2.50821">
        <ele>94.1</ele>
        <time>2020-10-21T12:55:24Z</time>
      </trkpt>
      <trkpt lat="49.84252" lon="2.50821">
        <ele>94.1</ele>
        <time>2020-10-21T12:55:25Z</time>
      </trkpt>
      <trkpt lat="49.84251" lon="2.50821">
        <ele>94.1</ele>
        <time>2020-10-21T12:55:26Z</time>
      </trkpt>
      <trkpt lat="49.84249" lon="2.50821">
        <ele>94.1</ele>
        <time>2020-10-21T12:55:27Z</time>
      </trkpt>
      <trkpt lat="49.84248" lon="2.50822">
        <ele>94.1</ele>
        <time>2020-10-21T12:55:29Z</time>
      </trkpt>
      <trkpt lat="49.84247" lon="2.50822">
        <ele>94.1</ele>
        <time>2020-10-21T12:55:30Z</time>
      </trkpt>
      <trkpt lat="49.84245" lon="2.50821">
        <ele>94.1</ele>
        <time>2020-10-21T12:55:31Z</time>
      </trkpt>
      <trkpt lat="49.84244" lon="2.50821">
        <ele>94.1</ele>
        <time>2020-10-21T12:55:32Z</time>
      </trkpt>
      <trkpt lat="49.84243" lon="2.50821">
        <ele>94.1</ele>
        <time>2020-10-21T12:55:33Z</time>
      </trkpt>
      <trkpt lat="49.84241" lon="2.50822">
        <ele>94.1</ele>
        <time>2020-10-21T12:55:34Z</time>
      </trkpt>
      <trkpt lat="49.8424" lon="2.50822">
        <ele>94.1</ele>
        <time>2020-10-21T12:55:36Z</time>
      </trkpt>
      <trkpt lat="49.84239" lon="2.50822">
        <ele>94.2</ele>
        <time>2020-10-21T12:55:37Z</time>
      </trkpt>
      <trkpt lat="49.84237" lon="2.50823">
        <ele>94.2</ele>
        <time>2020-10-21T12:55:38Z</time>
      </trkpt>
      <trkpt lat="49.84236" lon="2.50823">
        <ele>94.2</ele>
        <time>2020-10-21T12:55:39Z</time>
      </trkpt>
      <trkpt lat="49.84236" lon="2.50823">
        <ele>94.2</ele>
        <time>2020-10-21T12:55:40Z</time>
      </trkpt>
      <trkpt lat="49.84234" lon="2.50824">
        <ele>94.2</ele>
        <time>2020-10-21T12:55:41Z</time>
      </trkpt>
      <trkpt lat="49.84233" lon="2.50824">
        <ele>94.2</ele>
        <time>2020-10-21T12:55:43Z</time>
      </trkpt>
      <trkpt lat="49.84232" lon="2.50825">
        <ele>94.2</ele>
        <time>2020-10-21T12:55:44Z</time>
      </trkpt>
      <trkpt lat="49.8423" lon="2.50825">
        <ele>94.3</ele>
        <time>2020-10-21T12:55:45Z</time>
      </trkpt>
      <trkpt lat="49.84229" lon="2.50826">
        <ele>94.3</ele>
        <time>2020-10-21T12:55:46Z</time>
      </trkpt>
      <trkpt lat="49.84228" lon="2.50826">
        <ele>94.3</ele>
        <time>2020-10-21T12:55:47Z</time>
      </trkpt>
      <trkpt lat="49.84227" lon="2.50827">
        <ele>94.3</ele>
        <time>2020-10-21T12:55:48Z</time>
      </trkpt>
      <trkpt lat="49.84225" lon="2.50827">
        <ele>94.3</ele>
        <time>2020-10-21T12:55:49Z</time>
      </trkpt>
      <trkpt lat="49.84224" lon="2.50828">
        <ele>94.3</ele>
        <time>2020-10-21T12:55:51Z</time>
      </trkpt>
      <trkpt lat="49.84222" lon="2.50829">
        <ele>94.3</ele>
        <time>2020-10-21T12:55:52Z</time>
      </trkpt>
      <trkpt lat="49.84221" lon="2.5083">
        <ele>94.3</ele>
        <time>2020-10-21T12:55:53Z</time>
      </trkpt>
      <trkpt lat="49.8422" lon="2.50831">
        <ele>94.3</ele>
        <time>2020-10-21T12:55:54Z</time>
      </trkpt>
      <trkpt lat="49.84219" lon="2.50831">
        <ele>94.4</ele>
        <time>2020-10-21T12:55:55Z</time>
      </trkpt>
      <trkpt lat="49.84217" lon="2.50831">
        <ele>94.4</ele>
        <time>2020-10-21T12:55:56Z</time>
      </trkpt>
      <trkpt lat="49.84216" lon="2.50831">
        <ele>94.4</ele>
        <time>2020-10-21T12:55:57Z</time>
      </trkpt>
      <trkpt lat="49.84215" lon="2.50831">
        <ele>94.4</ele>
        <time>2020-10-21T12:55:58Z</time>
      </trkpt>
      <trkpt lat="49.84213" lon="2.5083">
        <ele>94.4</ele>
        <time>2020-10-21T12:56:00Z</time>
      </trkpt>
      <trkpt lat="49.84212" lon="2.5083">
        <ele>94.4</ele>
        <time>2020-10-21T12:56:01Z</time>
      </trkpt>
      <trkpt lat="49.8421" lon="2.5083">
        <ele>94.4</ele>
        <time>2020-10-21T12:56:02Z</time>
      </trkpt>
      <trkpt lat="49.84209" lon="2.5083">
        <ele>94.4</ele>
        <time>2020-10-21T12:56:03Z</time>
      </trkpt>
      <trkpt lat="49.84208" lon="2.5083">
        <ele>94.4</ele>
        <time>2020-10-21T12:56:04Z</time>
      </trkpt>
      <trkpt lat="49.84206" lon="2.50831">
        <ele>94.5</ele>
        <time>2020-10-21T12:56:05Z</time>
      </trkpt>
      <trkpt lat="49.84205" lon="2.50831">
        <ele>94.5</ele>
        <time>2020-10-21T12:56:07Z</time>
      </trkpt>
      <trkpt lat="49.84204" lon="2.50832">
        <ele>94.5</ele>
        <time>2020-10-21T12:56:08Z</time>
      </trkpt>
      <trkpt lat="49.84203" lon="2.50832">
        <ele>94.5</ele>
        <time>2020-10-21T12:56:09Z</time>
      </trkpt>
      <trkpt lat="49.84202" lon="2.50833">
        <ele>94.6</ele>
        <time>2020-10-21T12:56:10Z</time>
      </trkpt>
      <trkpt lat="49.84201" lon="2.50833">
        <ele>94.6</ele>
        <time>2020-10-21T12:56:11Z</time>
      </trkpt>
      <trkpt lat="49.842" lon="2.50834">
        <ele>94.6</ele>
        <time>2020-10-21T12:56:12Z</time>
      </trkpt>
      <trkpt lat="49.84198" lon="2.50835">
        <ele>94.6</ele>
        <time>2020-10-21T12:56:13Z</time>
      </trkpt>
      <trkpt lat="49.84197" lon="2.50835">
        <ele>94.7</ele>
        <time>2020-10-21T12:56:15Z</time>
      </trkpt>
      <trkpt lat="49.84196" lon="2.50836">
        <ele>94.7</ele>
        <time>2020-10-21T12:56:16Z</time>
      </trkpt>
      <trkpt lat="49.84195" lon="2.50836">
        <ele>94.7</ele>
        <time>2020-10-21T12:56:17Z</time>
      </trkpt>
      <trkpt lat="49.84194" lon="2.50836">
        <ele>94.7</ele>
        <time>2020-10-21T12:56:18Z</time>
      </trkpt>
      <trkpt lat="49.84193" lon="2.50837">
        <ele>94.8</ele>
        <time>2020-10-21T12:56:19Z</time>
      </trkpt>
      <trkpt lat="49.84192" lon="2.50837">
        <ele>94.8</ele>
        <time>2020-10-21T12:56:20Z</time>
      </trkpt>
      <trkpt lat="49.84191" lon="2.50837">
        <ele>94.8</ele>
        <time>2020-10-21T12:56:22Z</time>
      </trkpt>
      <trkpt lat="49.8419" lon="2.50838">
        <ele>94.8</ele>
        <time>2020-10-21T12:56:23Z</time>
      </trkpt>
      <trkpt lat="49.84189" lon="2.50838">
        <ele>94.8</ele>
        <time>2020-10-21T12:56:24Z</time>
      </trkpt>
      <trkpt lat="49.84188" lon="2.50838">
        <ele>94.8</ele>
        <time>2020-10-21T12:56:25Z</time>
      </trkpt>
      <trkpt lat="49.84186" lon="2.50838">
        <ele>94.8</ele>
        <time>2020-10-21T12:56:26Z</time>
      </trkpt>
      <trkpt lat="49.84185" lon="2.50838">
        <ele>94.8</ele>
        <time>2020-10-21T12:56:27Z</time>
      </trkpt>
      <trkpt lat="49.84184" lon="2.50838">
        <ele>94.8</ele>
        <time>2020-10-21T12:56:28Z</time>
      </trkpt>
      <trkpt lat="49.84182" lon="2.50838">
        <ele>94.8</ele>
        <time>2020-10-21T12:56:30Z</time>
      </trkpt>
      <trkpt lat="49.84181" lon="2.50839">
        <ele>94.9</ele>
        <time>2020-10-21T12:56:31Z</time>
      </trkpt>
      <trkpt lat="49.8418" lon="2.50839">
        <ele>94.9</ele>
        <time>2020-10-21T12:56:32Z</time>
      </trkpt>
      <trkpt lat="49.84177" lon="2.50839">
        <ele>94.9</ele>
        <time>2020-10-21T12:56:33Z</time>
      </trkpt>
      <trkpt lat="49.84177" lon="2.50839">
        <ele>94.9</ele>
        <time>2020-10-21T12:56:34Z</time>
      </trkpt>
      <trkpt lat="49.84176" lon="2.50839">
        <ele>94.9</ele>
        <time>2020-10-21T12:56:35Z</time>
      </trkpt>
      <trkpt lat="49.84174" lon="2.50839">
        <ele>94.9</ele>
        <time>2020-10-21T12:56:36Z</time>
      </trkpt>
      <trkpt lat="49.84173" lon="2.5084">
        <ele>95</ele>
        <time>2020-10-21T12:56:37Z</time>
      </trkpt>
      <trkpt lat="49.84172" lon="2.5084">
        <ele>95</ele>
        <time>2020-10-21T12:56:39Z</time>
      </trkpt>
      <trkpt lat="49.8417" lon="2.50841">
        <ele>95</ele>
        <time>2020-10-21T12:56:40Z</time>
      </trkpt>
      <trkpt lat="49.84169" lon="2.50841">
        <ele>95</ele>
        <time>2020-10-21T12:56:41Z</time>
      </trkpt>
      <trkpt lat="49.84168" lon="2.50841">
        <ele>95.1</ele>
        <time>2020-10-21T12:56:42Z</time>
      </trkpt>
      <trkpt lat="49.84166" lon="2.50841">
        <ele>95.1</ele>
        <time>2020-10-21T12:56:43Z</time>
      </trkpt>
      <trkpt lat="49.84165" lon="2.50841">
        <ele>95.1</ele>
        <time>2020-10-21T12:56:44Z</time>
      </trkpt>
      <trkpt lat="49.84164" lon="2.50842">
        <ele>95.1</ele>
        <time>2020-10-21T12:56:45Z</time>
      </trkpt>
      <trkpt lat="49.84163" lon="2.50842">
        <ele>95.2</ele>
        <time>2020-10-21T12:56:47Z</time>
      </trkpt>
      <trkpt lat="49.84161" lon="2.50842">
        <ele>95.2</ele>
        <time>2020-10-21T12:56:48Z</time>
      </trkpt>
      <trkpt lat="49.8416" lon="2.50842">
        <ele>95.2</ele>
        <time>2020-10-21T12:56:49Z</time>
      </trkpt>
      <trkpt lat="49.84159" lon="2.50843">
        <ele>95.2</ele>
        <time>2020-10-21T12:56:50Z</time>
      </trkpt>
      <trkpt lat="49.84158" lon="2.50843">
        <ele>95.2</ele>
        <time>2020-10-21T12:56:52Z</time>
      </trkpt>
      <trkpt lat="49.84156" lon="2.50844">
        <ele>95.2</ele>
        <time>2020-10-21T12:56:53Z</time>
      </trkpt>
      <trkpt lat="49.84155" lon="2.50844">
        <ele>95.2</ele>
        <time>2020-10-21T12:56:54Z</time>
      </trkpt>
      <trkpt lat="49.84154" lon="2.50845">
        <ele>95.2</ele>
        <time>2020-10-21T12:56:55Z</time>
      </trkpt>
      <trkpt lat="49.84153" lon="2.50845">
        <ele>95.2</ele>
        <time>2020-10-21T12:56:57Z</time>
      </trkpt>
      <trkpt lat="49.84151" lon="2.50846">
        <ele>95.2</ele>
        <time>2020-10-21T12:56:58Z</time>
      </trkpt>
      <trkpt lat="49.8415" lon="2.50846">
        <ele>95.2</ele>
        <time>2020-10-21T12:56:59Z</time>
      </trkpt>
      <trkpt lat="49.84149" lon="2.50847">
        <ele>95.2</ele>
        <time>2020-10-21T12:57:00Z</time>
      </trkpt>
      <trkpt lat="49.84148" lon="2.50847">
        <ele>95.2</ele>
        <time>2020-10-21T12:57:01Z</time>
      </trkpt>
      <trkpt lat="49.84147" lon="2.50848">
        <ele>95.2</ele>
        <time>2020-10-21T12:57:03Z</time>
      </trkpt>
      <trkpt lat="49.84144" lon="2.50848">
        <ele>95.2</ele>
        <time>2020-10-21T12:57:04Z</time>
      </trkpt>
      <trkpt lat="49.84143" lon="2.50848">
        <ele>95.2</ele>
        <time>2020-10-21T12:57:05Z</time>
      </trkpt>
      <trkpt lat="49.84143" lon="2.50848">
        <ele>95.2</ele>
        <time>2020-10-21T12:57:06Z</time>
      </trkpt>
      <trkpt lat="49.84141" lon="2.50849">
        <ele>95.2</ele>
        <time>2020-10-21T12:57:07Z</time>
      </trkpt>
      <trkpt lat="49.84139" lon="2.50849">
        <ele>95.2</ele>
        <time>2020-10-21T12:57:08Z</time>
      </trkpt>
      <trkpt lat="49.84139" lon="2.50849">
        <ele>95.2</ele>
        <time>2020-10-21T12:57:09Z</time>
      </trkpt>
      <trkpt lat="49.84137" lon="2.5085">
        <ele>95.2</ele>
        <time>2020-10-21T12:57:10Z</time>
      </trkpt>
      <trkpt lat="49.84136" lon="2.5085">
        <ele>95.2</ele>
        <time>2020-10-21T12:57:12Z</time>
      </trkpt>
      <trkpt lat="49.84134" lon="2.5085">
        <ele>95.2</ele>
        <time>2020-10-21T12:57:13Z</time>
      </trkpt>
      <trkpt lat="49.84133" lon="2.5085">
        <ele>95.1</ele>
        <time>2020-10-21T12:57:14Z</time>
      </trkpt>
      <trkpt lat="49.84132" lon="2.5085">
        <ele>95.1</ele>
        <time>2020-10-21T12:57:15Z</time>
      </trkpt>
      <trkpt lat="49.8413" lon="2.50851">
        <ele>95.1</ele>
        <time>2020-10-21T12:57:17Z</time>
      </trkpt>
      <trkpt lat="49.84128" lon="2.50851">
        <ele>95.1</ele>
        <time>2020-10-21T12:57:18Z</time>
      </trkpt>
      <trkpt lat="49.84127" lon="2.50851">
        <ele>95.1</ele>
        <time>2020-10-21T12:57:19Z</time>
      </trkpt>
      <trkpt lat="49.84126" lon="2.50851">
        <ele>95.1</ele>
        <time>2020-10-21T12:57:20Z</time>
      </trkpt>
      <trkpt lat="49.84125" lon="2.50851">
        <ele>95.1</ele>
        <time>2020-10-21T12:57:21Z</time>
      </trkpt>
      <trkpt lat="49.84124" lon="2.50851">
        <ele>95.1</ele>
        <time>2020-10-21T12:57:22Z</time>
      </trkpt>
      <trkpt lat="49.84122" lon="2.50852">
        <ele>95.1</ele>
        <time>2020-10-21T12:57:23Z</time>
      </trkpt>
      <trkpt lat="49.84121" lon="2.50853">
        <ele>95.1</ele>
        <time>2020-10-21T12:57:25Z</time>
      </trkpt>
      <trkpt lat="49.84119" lon="2.50853">
        <ele>95.1</ele>
        <time>2020-10-21T12:57:26Z</time>
      </trkpt>
      <trkpt lat="49.84118" lon="2.50853">
        <ele>95.1</ele>
        <time>2020-10-21T12:57:27Z</time>
      </trkpt>
      <trkpt lat="49.84115" lon="2.50854">
        <ele>95.2</ele>
        <time>2020-10-21T12:57:28Z</time>
      </trkpt>
      <trkpt lat="49.84115" lon="2.50854">
        <ele>95.2</ele>
        <time>2020-10-21T12:57:29Z</time>
      </trkpt>
      <trkpt lat="49.84114" lon="2.50855">
        <ele>95.2</ele>
        <time>2020-10-21T12:57:30Z</time>
      </trkpt>
      <trkpt lat="49.84112" lon="2.50855">
        <ele>95.2</ele>
        <time>2020-10-21T12:57:31Z</time>
      </trkpt>
      <trkpt lat="49.84111" lon="2.50856">
        <ele>95.2</ele>
        <time>2020-10-21T12:57:32Z</time>
      </trkpt>
      <trkpt lat="49.8411" lon="2.50856">
        <ele>95.2</ele>
        <time>2020-10-21T12:57:33Z</time>
      </trkpt>
      <trkpt lat="49.84108" lon="2.50856">
        <ele>95.3</ele>
        <time>2020-10-21T12:57:35Z</time>
      </trkpt>
      <trkpt lat="49.84107" lon="2.50856">
        <ele>95.3</ele>
        <time>2020-10-21T12:57:36Z</time>
      </trkpt>
      <trkpt lat="49.84106" lon="2.50856">
        <ele>95.3</ele>
        <time>2020-10-21T12:57:37Z</time>
      </trkpt>
      <trkpt lat="49.84104" lon="2.50857">
        <ele>95.3</ele>
        <time>2020-10-21T12:57:38Z</time>
      </trkpt>
      <trkpt lat="49.84103" lon="2.50857">
        <ele>95.4</ele>
        <time>2020-10-21T12:57:39Z</time>
      </trkpt>
      <trkpt lat="49.84103" lon="2.50857">
        <ele>95.4</ele>
        <time>2020-10-21T12:57:40Z</time>
      </trkpt>
      <trkpt lat="49.84101" lon="2.50858">
        <ele>95.4</ele>
        <time>2020-10-21T12:57:41Z</time>
      </trkpt>
      <trkpt lat="49.841" lon="2.50858">
        <ele>95.4</ele>
        <time>2020-10-21T12:57:43Z</time>
      </trkpt>
      <trkpt lat="49.84098" lon="2.50858">
        <ele>95.4</ele>
        <time>2020-10-21T12:57:44Z</time>
      </trkpt>
      <trkpt lat="49.84097" lon="2.50859">
        <ele>95.5</ele>
        <time>2020-10-21T12:57:45Z</time>
      </trkpt>
      <trkpt lat="49.84095" lon="2.50859">
        <ele>95.5</ele>
        <time>2020-10-21T12:57:46Z</time>
      </trkpt>
      <trkpt lat="49.84094" lon="2.5086">
        <ele>95.5</ele>
        <time>2020-10-21T12:57:47Z</time>
      </trkpt>
      <trkpt lat="49.84093" lon="2.5086">
        <ele>95.5</ele>
        <time>2020-10-21T12:57:48Z</time>
      </trkpt>
      <trkpt lat="49.84092" lon="2.5086">
        <ele>95.5</ele>
        <time>2020-10-21T12:57:49Z</time>
      </trkpt>
      <trkpt lat="49.84091" lon="2.5086">
        <ele>95.5</ele>
        <time>2020-10-21T12:57:51Z</time>
      </trkpt>
      <trkpt lat="49.84089" lon="2.50861">
        <ele>95.5</ele>
        <time>2020-10-21T12:57:52Z</time>
      </trkpt>
      <trkpt lat="49.84088" lon="2.50861">
        <ele>95.6</ele>
        <time>2020-10-21T12:57:53Z</time>
      </trkpt>
      <trkpt lat="49.84086" lon="2.50861">
        <ele>95.6</ele>
        <time>2020-10-21T12:57:54Z</time>
      </trkpt>
      <trkpt lat="49.84085" lon="2.50861">
        <ele>95.6</ele>
        <time>2020-10-21T12:57:55Z</time>
      </trkpt>
      <trkpt lat="49.84084" lon="2.50861">
        <ele>95.6</ele>
        <time>2020-10-21T12:57:56Z</time>
      </trkpt>
      <trkpt lat="49.84083" lon="2.50862">
        <ele>95.6</ele>
        <time>2020-10-21T12:57:57Z</time>
      </trkpt>
      <trkpt lat="49.84081" lon="2.50863">
        <ele>95.6</ele>
        <time>2020-10-21T12:57:58Z</time>
      </trkpt>
      <trkpt lat="49.8408" lon="2.50863">
        <ele>95.6</ele>
        <time>2020-10-21T12:58:00Z</time>
      </trkpt>
      <trkpt lat="49.84079" lon="2.50863">
        <ele>95.6</ele>
        <time>2020-10-21T12:58:01Z</time>
      </trkpt>
      <trkpt lat="49.84078" lon="2.50863">
        <ele>95.6</ele>
        <time>2020-10-21T12:58:02Z</time>
      </trkpt>
      <trkpt lat="49.84077" lon="2.50863">
        <ele>95.6</ele>
        <time>2020-10-21T12:58:03Z</time>
      </trkpt>
      <trkpt lat="49.84076" lon="2.50863">
        <ele>95.6</ele>
        <time>2020-10-21T12:58:04Z</time>
      </trkpt>
      <trkpt lat="49.84074" lon="2.50863">
        <ele>95.6</ele>
        <time>2020-10-21T12:58:05Z</time>
      </trkpt>
      <trkpt lat="49.84073" lon="2.50863">
        <ele>95.6</ele>
        <time>2020-10-21T12:58:06Z</time>
      </trkpt>
      <trkpt lat="49.84072" lon="2.50863">
        <ele>95.6</ele>
        <time>2020-10-21T12:58:08Z</time>
      </trkpt>
      <trkpt lat="49.8407" lon="2.50864">
        <ele>95.6</ele>
        <time>2020-10-21T12:58:09Z</time>
      </trkpt>
      <trkpt lat="49.84069" lon="2.50865">
        <ele>95.6</ele>
        <time>2020-10-21T12:58:10Z</time>
      </trkpt>
      <trkpt lat="49.84068" lon="2.50865">
        <ele>95.6</ele>
        <time>2020-10-21T12:58:11Z</time>
      </trkpt>
      <trkpt lat="49.84067" lon="2.50866">
        <ele>95.6</ele>
        <time>2020-10-21T12:58:12Z</time>
      </trkpt>
      <trkpt lat="49.84064" lon="2.50867">
        <ele>95.6</ele>
        <time>2020-10-21T12:58:13Z</time>
      </trkpt>
      <trkpt lat="49.84064" lon="2.50867">
        <ele>95.6</ele>
        <time>2020-10-21T12:58:14Z</time>
      </trkpt>
      <trkpt lat="49.84063" lon="2.50868">
        <ele>95.6</ele>
        <time>2020-10-21T12:58:15Z</time>
      </trkpt>
      <trkpt lat="49.84061" lon="2.50868">
        <ele>95.6</ele>
        <time>2020-10-21T12:58:16Z</time>
      </trkpt>
      <trkpt lat="49.8406" lon="2.50868">
        <ele>95.6</ele>
        <time>2020-10-21T12:58:18Z</time>
      </trkpt>
      <trkpt lat="49.84059" lon="2.50869">
        <ele>95.6</ele>
        <time>2020-10-21T12:58:19Z</time>
      </trkpt>
      <trkpt lat="49.84058" lon="2.50869">
        <ele>95.7</ele>
        <time>2020-10-21T12:58:20Z</time>
      </trkpt>
      <trkpt lat="49.84057" lon="2.50869">
        <ele>95.7</ele>
        <time>2020-10-21T12:58:21Z</time>
      </trkpt>
      <trkpt lat="49.84056" lon="2.50869">
        <ele>95.7</ele>
        <time>2020-10-21T12:58:22Z</time>
      </trkpt>
      <trkpt lat="49.84054" lon="2.5087">
        <ele>95.7</ele>
        <time>2020-10-21T12:58:23Z</time>
      </trkpt>
      <trkpt lat="49.84053" lon="2.5087">
        <ele>95.7</ele>
        <time>2020-10-21T12:58:24Z</time>
      </trkpt>
      <trkpt lat="49.84052" lon="2.5087">
        <ele>95.7</ele>
        <time>2020-10-21T12:58:25Z</time>
      </trkpt>
      <trkpt lat="49.84051" lon="2.5087">
        <ele>95.7</ele>
        <time>2020-10-21T12:58:27Z</time>
      </trkpt>
      <trkpt lat="49.8405" lon="2.5087">
        <ele>95.7</ele>
        <time>2020-10-21T12:58:28Z</time>
      </trkpt>
      <trkpt lat="49.84048" lon="2.50871">
        <ele>95.7</ele>
        <time>2020-10-21T12:58:29Z</time>
      </trkpt>
      <trkpt lat="49.84047" lon="2.50871">
        <ele>95.7</ele>
        <time>2020-10-21T12:58:30Z</time>
      </trkpt>
      <trkpt lat="49.84046" lon="2.50871">
        <ele>95.7</ele>
        <time>2020-10-21T12:58:31Z</time>
      </trkpt>
      <trkpt lat="49.84045" lon="2.50872">
        <ele>95.7</ele>
        <time>2020-10-21T12:58:32Z</time>
      </trkpt>
      <trkpt lat="49.84043" lon="2.50872">
        <ele>95.7</ele>
        <time>2020-10-21T12:58:33Z</time>
      </trkpt>
      <trkpt lat="49.84042" lon="2.50872">
        <ele>95.7</ele>
        <time>2020-10-21T12:58:35Z</time>
      </trkpt>
      <trkpt lat="49.84041" lon="2.50873">
        <ele>95.7</ele>
        <time>2020-10-21T12:58:36Z</time>
      </trkpt>
      <trkpt lat="49.8404" lon="2.50873">
        <ele>95.7</ele>
        <time>2020-10-21T12:58:37Z</time>
      </trkpt>
      <trkpt lat="49.84039" lon="2.50874">
        <ele>95.7</ele>
        <time>2020-10-21T12:58:38Z</time>
      </trkpt>
      <trkpt lat="49.84037" lon="2.50874">
        <ele>95.7</ele>
        <time>2020-10-21T12:58:39Z</time>
      </trkpt>
      <trkpt lat="49.84036" lon="2.50875">
        <ele>95.7</ele>
        <time>2020-10-21T12:58:40Z</time>
      </trkpt>
      <trkpt lat="49.84035" lon="2.50875">
        <ele>95.6</ele>
        <time>2020-10-21T12:58:41Z</time>
      </trkpt>
      <trkpt lat="49.84034" lon="2.50875">
        <ele>95.6</ele>
        <time>2020-10-21T12:58:42Z</time>
      </trkpt>
      <trkpt lat="49.84032" lon="2.50875">
        <ele>95.6</ele>
        <time>2020-10-21T12:58:44Z</time>
      </trkpt>
      <trkpt lat="49.84031" lon="2.50876">
        <ele>95.6</ele>
        <time>2020-10-21T12:58:45Z</time>
      </trkpt>
      <trkpt lat="49.8403" lon="2.50876">
        <ele>95.6</ele>
        <time>2020-10-21T12:58:46Z</time>
      </trkpt>
      <trkpt lat="49.84029" lon="2.50876">
        <ele>95.6</ele>
        <time>2020-10-21T12:58:47Z</time>
      </trkpt>
      <trkpt lat="49.84027" lon="2.50877">
        <ele>95.6</ele>
        <time>2020-10-21T12:58:48Z</time>
      </trkpt>
      <trkpt lat="49.84026" lon="2.50877">
        <ele>95.6</ele>
        <time>2020-10-21T12:58:49Z</time>
      </trkpt>
      <trkpt lat="49.84025" lon="2.50877">
        <ele>95.6</ele>
        <time>2020-10-21T12:58:50Z</time>
      </trkpt>
      <trkpt lat="49.84023" lon="2.50878">
        <ele>95.6</ele>
        <time>2020-10-21T12:58:51Z</time>
      </trkpt>
      <trkpt lat="49.84022" lon="2.50878">
        <ele>95.5</ele>
        <time>2020-10-21T12:58:53Z</time>
      </trkpt>
      <trkpt lat="49.84021" lon="2.50878">
        <ele>95.5</ele>
        <time>2020-10-21T12:58:54Z</time>
      </trkpt>
      <trkpt lat="49.8402" lon="2.50878">
        <ele>95.5</ele>
        <time>2020-10-21T12:58:55Z</time>
      </trkpt>
      <trkpt lat="49.84019" lon="2.50878">
        <ele>95.5</ele>
        <time>2020-10-21T12:58:56Z</time>
      </trkpt>
      <trkpt lat="49.84018" lon="2.50879">
        <ele>95.5</ele>
        <time>2020-10-21T12:58:57Z</time>
      </trkpt>
      <trkpt lat="49.84016" lon="2.50879">
        <ele>95.4</ele>
        <time>2020-10-21T12:58:58Z</time>
      </trkpt>
      <trkpt lat="49.84015" lon="2.5088">
        <ele>95.4</ele>
        <time>2020-10-21T12:58:59Z</time>
      </trkpt>
      <trkpt lat="49.84013" lon="2.5088">
        <ele>95.4</ele>
        <time>2020-10-21T12:59:00Z</time>
      </trkpt>
      <trkpt lat="49.84012" lon="2.5088">
        <ele>95.4</ele>
        <time>2020-10-21T12:59:02Z</time>
      </trkpt>
      <trkpt lat="49.84011" lon="2.5088">
        <ele>95.3</ele>
        <time>2020-10-21T12:59:03Z</time>
      </trkpt>
      <trkpt lat="49.84009" lon="2.50881">
        <ele>95.3</ele>
        <time>2020-10-21T12:59:04Z</time>
      </trkpt>
      <trkpt lat="49.84008" lon="2.50881">
        <ele>95.3</ele>
        <time>2020-10-21T12:59:05Z</time>
      </trkpt>
      <trkpt lat="49.84007" lon="2.50881">
        <ele>95.3</ele>
        <time>2020-10-21T12:59:06Z</time>
      </trkpt>
      <trkpt lat="49.84006" lon="2.50881">
        <ele>95.3</ele>
        <time>2020-10-21T12:59:07Z</time>
      </trkpt>
      <trkpt lat="49.84004" lon="2.50882">
        <ele>95.3</ele>
        <time>2020-10-21T12:59:08Z</time>
      </trkpt>
      <trkpt lat="49.84002" lon="2.50883">
        <ele>95.3</ele>
        <time>2020-10-21T12:59:09Z</time>
      </trkpt>
      <trkpt lat="49.84001" lon="2.50883">
        <ele>95.3</ele>
        <time>2020-10-21T12:59:11Z</time>
      </trkpt>
      <trkpt lat="49.84" lon="2.50883">
        <ele>95.3</ele>
        <time>2020-10-21T12:59:12Z</time>
      </trkpt>
      <trkpt lat="49.83998" lon="2.50884">
        <ele>95.2</ele>
        <time>2020-10-21T12:59:13Z</time>
      </trkpt>
      <trkpt lat="49.83997" lon="2.50884">
        <ele>95.2</ele>
        <time>2020-10-21T12:59:14Z</time>
      </trkpt>
      <trkpt lat="49.83996" lon="2.50884">
        <ele>95.2</ele>
        <time>2020-10-21T12:59:15Z</time>
      </trkpt>
      <trkpt lat="49.83994" lon="2.50884">
        <ele>95.2</ele>
        <time>2020-10-21T12:59:16Z</time>
      </trkpt>
      <trkpt lat="49.83993" lon="2.50884">
        <ele>95.2</ele>
        <time>2020-10-21T12:59:17Z</time>
      </trkpt>
      <trkpt lat="49.83992" lon="2.50884">
        <ele>95.2</ele>
        <time>2020-10-21T12:59:18Z</time>
      </trkpt>
      <trkpt lat="49.83991" lon="2.50885">
        <ele>95.2</ele>
        <time>2020-10-21T12:59:20Z</time>
      </trkpt>
      <trkpt lat="49.8399" lon="2.50885">
        <ele>95.2</ele>
        <time>2020-10-21T12:59:21Z</time>
      </trkpt>
      <trkpt lat="49.83989" lon="2.50886">
        <ele>95.1</ele>
        <time>2020-10-21T12:59:22Z</time>
      </trkpt>
      <trkpt lat="49.83987" lon="2.50887">
        <ele>95.1</ele>
        <time>2020-10-21T12:59:23Z</time>
      </trkpt>
      <trkpt lat="49.83986" lon="2.50888">
        <ele>95.1</ele>
        <time>2020-10-21T12:59:24Z</time>
      </trkpt>
      <trkpt lat="49.83985" lon="2.50888">
        <ele>95.1</ele>
        <time>2020-10-21T12:59:25Z</time>
      </trkpt>
      <trkpt lat="49.83983" lon="2.50889">
        <ele>95</ele>
        <time>2020-10-21T12:59:26Z</time>
      </trkpt>
      <trkpt lat="49.83982" lon="2.50889">
        <ele>95</ele>
        <time>2020-10-21T12:59:28Z</time>
      </trkpt>
      <trkpt lat="49.83981" lon="2.50889">
        <ele>94.9</ele>
        <time>2020-10-21T12:59:29Z</time>
      </trkpt>
      <trkpt lat="49.8398" lon="2.50889">
        <ele>94.9</ele>
        <time>2020-10-21T12:59:30Z</time>
      </trkpt>
      <trkpt lat="49.83979" lon="2.5089">
        <ele>94.9</ele>
        <time>2020-10-21T12:59:31Z</time>
      </trkpt>
      <trkpt lat="49.83978" lon="2.5089">
        <ele>94.9</ele>
        <time>2020-10-21T12:59:32Z</time>
      </trkpt>
      <trkpt lat="49.83976" lon="2.5089">
        <ele>94.8</ele>
        <time>2020-10-21T12:59:33Z</time>
      </trkpt>
      <trkpt lat="49.83974" lon="2.50891">
        <ele>94.8</ele>
        <time>2020-10-21T12:59:34Z</time>
      </trkpt>
      <trkpt lat="49.83973" lon="2.50891">
        <ele>94.7</ele>
        <time>2020-10-21T12:59:36Z</time>
      </trkpt>
      <trkpt lat="49.83971" lon="2.50891">
        <ele>94.7</ele>
        <time>2020-10-21T12:59:37Z</time>
      </trkpt>
      <trkpt lat="49.83969" lon="2.50892">
        <ele>94.6</ele>
        <time>2020-10-21T12:59:38Z</time>
      </trkpt>
      <trkpt lat="49.83968" lon="2.50892">
        <ele>94.6</ele>
        <time>2020-10-21T12:59:40Z</time>
      </trkpt>
      <trkpt lat="49.83967" lon="2.50892">
        <ele>94.5</ele>
        <time>2020-10-21T12:59:41Z</time>
      </trkpt>
      <trkpt lat="49.83966" lon="2.50893">
        <ele>94.5</ele>
        <time>2020-10-21T12:59:42Z</time>
      </trkpt>
      <trkpt lat="49.83965" lon="2.50893">
        <ele>94.4</ele>
        <time>2020-10-21T12:59:43Z</time>
      </trkpt>
      <trkpt lat="49.83963" lon="2.50894">
        <ele>94.4</ele>
        <time>2020-10-21T12:59:44Z</time>
      </trkpt>
      <trkpt lat="49.83962" lon="2.50894">
        <ele>94.4</ele>
        <time>2020-10-21T12:59:45Z</time>
      </trkpt>
      <trkpt lat="49.83961" lon="2.50893">
        <ele>94.3</ele>
        <time>2020-10-21T12:59:47Z</time>
      </trkpt>
      <trkpt lat="49.8396" lon="2.50893">
        <ele>94.3</ele>
        <time>2020-10-21T12:59:48Z</time>
      </trkpt>
      <trkpt lat="49.83958" lon="2.50894">
        <ele>94.3</ele>
        <time>2020-10-21T12:59:49Z</time>
      </trkpt>
      <trkpt lat="49.83956" lon="2.50895">
        <ele>94.2</ele>
        <time>2020-10-21T12:59:50Z</time>
      </trkpt>
      <trkpt lat="49.83955" lon="2.50895">
        <ele>94.2</ele>
        <time>2020-10-21T12:59:51Z</time>
      </trkpt>
      <trkpt lat="49.83955" lon="2.50895">
        <ele>94.2</ele>
        <time>2020-10-21T12:59:52Z</time>
      </trkpt>
      <trkpt lat="49.83953" lon="2.50895">
        <ele>94.2</ele>
        <time>2020-10-21T12:59:53Z</time>
      </trkpt>
      <trkpt lat="49.83952" lon="2.50896">
        <ele>94.2</ele>
        <time>2020-10-21T12:59:54Z</time>
      </trkpt>
      <trkpt lat="49.83951" lon="2.50896">
        <ele>94.2</ele>
        <time>2020-10-21T12:59:56Z</time>
      </trkpt>
      <trkpt lat="49.8395" lon="2.50896">
        <ele>94.2</ele>
        <time>2020-10-21T12:59:57Z</time>
      </trkpt>
      <trkpt lat="49.83949" lon="2.50897">
        <ele>94.2</ele>
        <time>2020-10-21T12:59:58Z</time>
      </trkpt>
      <trkpt lat="49.83947" lon="2.50897">
        <ele>94.2</ele>
        <time>2020-10-21T12:59:59Z</time>
      </trkpt>
      <trkpt lat="49.83946" lon="2.50897">
        <ele>94.2</ele>
        <time>2020-10-21T13:00:00Z</time>
      </trkpt>
      <trkpt lat="49.83945" lon="2.50898">
        <ele>94.3</ele>
        <time>2020-10-21T13:00:01Z</time>
      </trkpt>
      <trkpt lat="49.83944" lon="2.50898">
        <ele>94.3</ele>
        <time>2020-10-21T13:00:02Z</time>
      </trkpt>
      <trkpt lat="49.83943" lon="2.50898">
        <ele>94.3</ele>
        <time>2020-10-21T13:00:03Z</time>
      </trkpt>
      <trkpt lat="49.8394" lon="2.50899">
        <ele>94.4</ele>
        <time>2020-10-21T13:00:05Z</time>
      </trkpt>
      <trkpt lat="49.8394" lon="2.509">
        <ele>94.4</ele>
        <time>2020-10-21T13:00:06Z</time>
      </trkpt>
      <trkpt lat="49.83939" lon="2.509">
        <ele>94.4</ele>
        <time>2020-10-21T13:00:07Z</time>
      </trkpt>
      <trkpt lat="49.83937" lon="2.50901">
        <ele>94.5</ele>
        <time>2020-10-21T13:00:08Z</time>
      </trkpt>
      <trkpt lat="49.83935" lon="2.50902">
        <ele>94.5</ele>
        <time>2020-10-21T13:00:09Z</time>
      </trkpt>
      <trkpt lat="49.83935" lon="2.50902">
        <ele>94.6</ele>
        <time>2020-10-21T13:00:10Z</time>
      </trkpt>
      <trkpt lat="49.83934" lon="2.50903">
        <ele>94.6</ele>
        <time>2020-10-21T13:00:11Z</time>
      </trkpt>
      <trkpt lat="49.83932" lon="2.50903">
        <ele>94.6</ele>
        <time>2020-10-21T13:00:13Z</time>
      </trkpt>
      <trkpt lat="49.83931" lon="2.50904">
        <ele>94.7</ele>
        <time>2020-10-21T13:00:14Z</time>
      </trkpt>
      <trkpt lat="49.8393" lon="2.50905">
        <ele>94.7</ele>
        <time>2020-10-21T13:00:15Z</time>
      </trkpt>
      <trkpt lat="49.83928" lon="2.50905">
        <ele>94.7</ele>
        <time>2020-10-21T13:00:16Z</time>
      </trkpt>
      <trkpt lat="49.83927" lon="2.50906">
        <ele>94.7</ele>
        <time>2020-10-21T13:00:17Z</time>
      </trkpt>
      <trkpt lat="49.83924" lon="2.50907">
        <ele>94.7</ele>
        <time>2020-10-21T13:00:18Z</time>
      </trkpt>
      <trkpt lat="49.83923" lon="2.50907">
        <ele>94.7</ele>
        <time>2020-10-21T13:00:19Z</time>
      </trkpt>
      <trkpt lat="49.83922" lon="2.50908">
        <ele>94.7</ele>
        <time>2020-10-21T13:00:21Z</time>
      </trkpt>
      <trkpt lat="49.8392" lon="2.50908">
        <ele>94.7</ele>
        <time>2020-10-21T13:00:22Z</time>
      </trkpt>
      <trkpt lat="49.83919" lon="2.50908">
        <ele>94.7</ele>
        <time>2020-10-21T13:00:23Z</time>
      </trkpt>
      <trkpt lat="49.83918" lon="2.50909">
        <ele>94.6</ele>
        <time>2020-10-21T13:00:24Z</time>
      </trkpt>
      <trkpt lat="49.83917" lon="2.50909">
        <ele>94.6</ele>
        <time>2020-10-21T13:00:25Z</time>
      </trkpt>
      <trkpt lat="49.83915" lon="2.5091">
        <ele>94.6</ele>
        <time>2020-10-21T13:00:27Z</time>
      </trkpt>
      <trkpt lat="49.83914" lon="2.5091">
        <ele>94.5</ele>
        <time>2020-10-21T13:00:28Z</time>
      </trkpt>
      <trkpt lat="49.83913" lon="2.5091">
        <ele>94.5</ele>
        <time>2020-10-21T13:00:29Z</time>
      </trkpt>
      <trkpt lat="49.83911" lon="2.50911">
        <ele>94.5</ele>
        <time>2020-10-21T13:00:30Z</time>
      </trkpt>
      <trkpt lat="49.8391" lon="2.50911">
        <ele>94.5</ele>
        <time>2020-10-21T13:00:31Z</time>
      </trkpt>
      <trkpt lat="49.83908" lon="2.50912">
        <ele>94.4</ele>
        <time>2020-10-21T13:00:32Z</time>
      </trkpt>
      <trkpt lat="49.83907" lon="2.50912">
        <ele>94.4</ele>
        <time>2020-10-21T13:00:33Z</time>
      </trkpt>
      <trkpt lat="49.83906" lon="2.50913">
        <ele>94.4</ele>
        <time>2020-10-21T13:00:34Z</time>
      </trkpt>
      <trkpt lat="49.83906" lon="2.50913">
        <ele>94.3</ele>
        <time>2020-10-21T13:00:36Z</time>
      </trkpt>
      <trkpt lat="49.83905" lon="2.50913">
        <ele>94.3</ele>
        <time>2020-10-21T13:00:37Z</time>
      </trkpt>
      <trkpt lat="49.83904" lon="2.50914">
        <ele>94.3</ele>
        <time>2020-10-21T13:00:38Z</time>
      </trkpt>
      <trkpt lat="49.83903" lon="2.50914">
        <ele>94.3</ele>
        <time>2020-10-21T13:00:39Z</time>
      </trkpt>
      <trkpt lat="49.83901" lon="2.50915">
        <ele>94.3</ele>
        <time>2020-10-21T13:00:40Z</time>
      </trkpt>
      <trkpt lat="49.83901" lon="2.50916">
        <ele>94.4</ele>
        <time>2020-10-21T13:00:41Z</time>
      </trkpt>
      <trkpt lat="49.839" lon="2.50916">
        <ele>94.4</ele>
        <time>2020-10-21T13:00:42Z</time>
      </trkpt>
      <trkpt lat="49.83899" lon="2.50917">
        <ele>94.4</ele>
        <time>2020-10-21T13:00:44Z</time>
      </trkpt>
      <trkpt lat="49.83899" lon="2.50917">
        <ele>94.4</ele>
        <time>2020-10-21T13:00:45Z</time>
      </trkpt>
      <trkpt lat="49.83898" lon="2.50918">
        <ele>94.4</ele>
        <time>2020-10-21T13:00:47Z</time>
      </trkpt>
      <trkpt lat="49.83898" lon="2.50918">
        <ele>94.4</ele>
        <time>2020-10-21T13:00:48Z</time>
      </trkpt>
      <trkpt lat="49.83897" lon="2.50918">
        <ele>94.4</ele>
        <time>2020-10-21T13:00:50Z</time>
      </trkpt>
      <trkpt lat="49.83897" lon="2.50918">
        <ele>94.4</ele>
        <time>2020-10-21T13:00:51Z</time>
      </trkpt>
      <trkpt lat="49.83896" lon="2.50918">
        <ele>94.4</ele>
        <time>2020-10-21T13:00:52Z</time>
      </trkpt>
      <trkpt lat="49.83895" lon="2.50918">
        <ele>94.5</ele>
        <time>2020-10-21T13:00:53Z</time>
      </trkpt>
      <trkpt lat="49.83893" lon="2.50918">
        <ele>94.5</ele>
        <time>2020-10-21T13:00:55Z</time>
      </trkpt>
      <trkpt lat="49.83893" lon="2.50918">
        <ele>94.5</ele>
        <time>2020-10-21T13:00:56Z</time>
      </trkpt>
      <trkpt lat="49.83892" lon="2.50918">
        <ele>94.6</ele>
        <time>2020-10-21T13:00:57Z</time>
      </trkpt>
      <trkpt lat="49.83889" lon="2.50918">
        <ele>94.6</ele>
        <time>2020-10-21T13:01:00Z</time>
      </trkpt>
      <trkpt lat="49.83888" lon="2.50917">
        <ele>94.7</ele>
        <time>2020-10-21T13:01:01Z</time>
      </trkpt>
      <trkpt lat="49.83886" lon="2.50917">
        <ele>94.7</ele>
        <time>2020-10-21T13:01:02Z</time>
      </trkpt>
      <trkpt lat="49.83885" lon="2.50917">
        <ele>94.7</ele>
        <time>2020-10-21T13:01:03Z</time>
      </trkpt>
      <trkpt lat="49.83883" lon="2.50917">
        <ele>94.8</ele>
        <time>2020-10-21T13:01:04Z</time>
      </trkpt>
      <trkpt lat="49.83881" lon="2.50916">
        <ele>94.8</ele>
        <time>2020-10-21T13:01:06Z</time>
      </trkpt>
      <trkpt lat="49.8388" lon="2.50916">
        <ele>94.8</ele>
        <time>2020-10-21T13:01:07Z</time>
      </trkpt>
      <trkpt lat="49.83879" lon="2.50916">
        <ele>94.8</ele>
        <time>2020-10-21T13:01:08Z</time>
      </trkpt>
      <trkpt lat="49.83878" lon="2.50917">
        <ele>94.8</ele>
        <time>2020-10-21T13:01:09Z</time>
      </trkpt>
      <trkpt lat="49.83876" lon="2.50917">
        <ele>94.8</ele>
        <time>2020-10-21T13:01:10Z</time>
      </trkpt>
      <trkpt lat="49.83875" lon="2.50917">
        <ele>94.8</ele>
        <time>2020-10-21T13:01:11Z</time>
      </trkpt>
      <trkpt lat="49.83874" lon="2.50918">
        <ele>94.8</ele>
        <time>2020-10-21T13:01:13Z</time>
      </trkpt>
      <trkpt lat="49.83873" lon="2.50918">
        <ele>94.8</ele>
        <time>2020-10-21T13:01:14Z</time>
      </trkpt>
      <trkpt lat="49.83872" lon="2.50919">
        <ele>94.8</ele>
        <time>2020-10-21T13:01:15Z</time>
      </trkpt>
      <trkpt lat="49.83871" lon="2.5092">
        <ele>94.8</ele>
        <time>2020-10-21T13:01:16Z</time>
      </trkpt>
      <trkpt lat="49.8387" lon="2.5092">
        <ele>94.8</ele>
        <time>2020-10-21T13:01:17Z</time>
      </trkpt>
      <trkpt lat="49.83869" lon="2.5092">
        <ele>94.8</ele>
        <time>2020-10-21T13:01:18Z</time>
      </trkpt>
      <trkpt lat="49.83868" lon="2.5092">
        <ele>94.8</ele>
        <time>2020-10-21T13:01:19Z</time>
      </trkpt>
      <trkpt lat="49.83866" lon="2.5092">
        <ele>94.8</ele>
        <time>2020-10-21T13:01:21Z</time>
      </trkpt>
      <trkpt lat="49.83867" lon="2.50921">
        <ele>94.8</ele>
        <time>2020-10-21T13:01:22Z</time>
      </trkpt>
      <trkpt lat="49.83868" lon="2.50921">
        <ele>94.8</ele>
        <time>2020-10-21T13:01:23Z</time>
      </trkpt>
      <trkpt lat="49.8387" lon="2.5092">
        <ele>94.7</ele>
        <time>2020-10-21T13:01:25Z</time>
      </trkpt>
      <trkpt lat="49.83871" lon="2.5092">
        <ele>94.7</ele>
        <time>2020-10-21T13:01:26Z</time>
      </trkpt>
      <trkpt lat="49.83872" lon="2.5092">
        <ele>94.7</ele>
        <time>2020-10-21T13:01:28Z</time>
      </trkpt>
      <trkpt lat="49.83873" lon="2.50921">
        <ele>94.7</ele>
        <time>2020-10-21T13:01:30Z</time>
      </trkpt>
      <trkpt lat="49.83873" lon="2.50921">
        <ele>94.7</ele>
        <time>2020-10-21T13:01:31Z</time>
      </trkpt>
      <trkpt lat="49.83873" lon="2.5092">
        <ele>94.6</ele>
        <time>2020-10-21T13:01:33Z</time>
      </trkpt>
      <trkpt lat="49.83873" lon="2.5092">
        <ele>94.6</ele>
        <time>2020-10-21T13:01:35Z</time>
      </trkpt>
      <trkpt lat="49.83873" lon="2.5092">
        <ele>94.6</ele>
        <time>2020-10-21T13:01:36Z</time>
      </trkpt>
      <trkpt lat="49.83873" lon="2.5092">
        <ele>94.6</ele>
        <time>2020-10-21T13:01:38Z</time>
      </trkpt>
      <trkpt lat="49.83873" lon="2.5092">
        <ele>94.6</ele>
        <time>2020-10-21T13:01:40Z</time>
      </trkpt>
      <trkpt lat="49.83873" lon="2.5092">
        <ele>94.6</ele>
        <time>2020-10-21T13:01:41Z</time>
      </trkpt>
      <trkpt lat="49.83873" lon="2.5092">
        <ele>94.6</ele>
        <time>2020-10-21T13:01:42Z</time>
      </trkpt>
      <trkpt lat="49.83873" lon="2.5092">
        <ele>94.6</ele>
        <time>2020-10-21T13:01:44Z</time>
      </trkpt>
      <trkpt lat="49.83873" lon="2.5092">
        <ele>94.6</ele>
        <time>2020-10-21T13:01:46Z</time>
      </trkpt>
      <trkpt lat="49.83873" lon="2.5092">
        <ele>94.6</ele>
        <time>2020-10-21T13:01:47Z</time>
      </trkpt>
      <trkpt lat="49.83873" lon="2.5092">
        <ele>94.6</ele>
        <time>2020-10-21T13:01:49Z</time>
      </trkpt>
      <trkpt lat="49.83873" lon="2.5092">
        <ele>94.6</ele>
        <time>2020-10-21T13:01:51Z</time>
      </trkpt>
      <trkpt lat="49.83873" lon="2.5092">
        <ele>94.6</ele>
        <time>2020-10-21T13:01:52Z</time>
      </trkpt>
      <trkpt lat="49.83873" lon="2.5092">
        <ele>94.6</ele>
        <time>2020-10-21T13:01:54Z</time>
      </trkpt>
      <trkpt lat="49.83873" lon="2.5092">
        <ele>94.6</ele>
        <time>2020-10-21T13:01:56Z</time>
      </trkpt>
      <trkpt lat="49.83873" lon="2.5092">
        <ele>94.6</ele>
        <time>2020-10-21T13:01:58Z</time>
      </trkpt>
      <trkpt lat="49.83873" lon="2.5092">
        <ele>94.6</ele>
        <time>2020-10-21T13:01:59Z</time>
      </trkpt>
      <trkpt lat="49.83873" lon="2.5092">
        <ele>94.6</ele>
        <time>2020-10-21T13:02:00Z</time>
      </trkpt>
      <trkpt lat="49.83873" lon="2.5092">
        <ele>94.6</ele>
        <time>2020-10-21T13:02:01Z</time>
      </trkpt>
      <trkpt lat="49.83873" lon="2.5092">
        <ele>94.6</ele>
        <time>2020-10-21T13:02:02Z</time>
      </trkpt>
      <trkpt lat="49.83873" lon="2.5092">
        <ele>94.6</ele>
        <time>2020-10-21T13:02:04Z</time>
      </trkpt>
      <trkpt lat="49.83873" lon="2.5092">
        <ele>94.6</ele>
        <time>2020-10-21T13:02:05Z</time>
      </trkpt>
      <trkpt lat="49.83873" lon="2.5092">
        <ele>94.6</ele>
        <time>2020-10-21T13:02:06Z</time>
      </trkpt>
      <trkpt lat="49.83873" lon="2.5092">
        <ele>94.6</ele>
        <time>2020-10-21T13:02:08Z</time>
      </trkpt>
      <trkpt lat="49.83873" lon="2.5092">
        <ele>94.6</ele>
        <time>2020-10-21T13:02:09Z</time>
      </trkpt>
      <trkpt lat="49.83873" lon="2.5092">
        <ele>94.6</ele>
        <time>2020-10-21T13:02:11Z</time>
      </trkpt>
      <trkpt lat="49.83873" lon="2.5092">
        <ele>94.6</ele>
        <time>2020-10-21T13:02:12Z</time>
      </trkpt>
      <trkpt lat="49.83873" lon="2.5092">
        <ele>94.6</ele>
        <time>2020-10-21T13:02:14Z</time>
      </trkpt>
      <trkpt lat="49.83873" lon="2.5092">
        <ele>94.6</ele>
        <time>2020-10-21T13:02:15Z</time>
      </trkpt>
      <trkpt lat="49.83873" lon="2.5092">
        <ele>94.6</ele>
        <time>2020-10-21T13:02:16Z</time>
      </trkpt>
      <trkpt lat="49.83873" lon="2.5092">
        <ele>94.6</ele>
        <time>2020-10-21T13:02:17Z</time>
      </trkpt>
      <trkpt lat="49.83873" lon="2.5092">
        <ele>94.6</ele>
        <time>2020-10-21T13:02:19Z</time>
      </trkpt>
      <trkpt lat="49.83873" lon="2.5092">
        <ele>94.6</ele>
        <time>2020-10-21T13:02:21Z</time>
      </trkpt>
      <trkpt lat="49.83873" lon="2.5092">
        <ele>94.6</ele>
        <time>2020-10-21T13:02:23Z</time>
      </trkpt>
      <trkpt lat="49.83873" lon="2.5092">
        <ele>94.6</ele>
        <time>2020-10-21T13:02:25Z</time>
      </trkpt>
      <trkpt lat="49.83873" lon="2.5092">
        <ele>94.6</ele>
        <time>2020-10-21T13:02:27Z</time>
      </trkpt>
      <trkpt lat="49.83873" lon="2.5092">
        <ele>94.6</ele>
        <time>2020-10-21T13:02:28Z</time>
      </trkpt>
      <trkpt lat="49.83873" lon="2.5092">
        <ele>94.6</ele>
        <time>2020-10-21T13:02:30Z</time>
      </trkpt>
      <trkpt lat="49.83873" lon="2.5092">
        <ele>94.6</ele>
        <time>2020-10-21T13:02:32Z</time>
      </trkpt>
      <trkpt lat="49.83873" lon="2.5092">
        <ele>94.6</ele>
        <time>2020-10-21T13:02:33Z</time>
      </trkpt>
      <trkpt lat="49.83873" lon="2.5092">
        <ele>94.6</ele>
        <time>2020-10-21T13:02:35Z</time>
      </trkpt>
      <trkpt lat="49.83873" lon="2.5092">
        <ele>94.6</ele>
        <time>2020-10-21T13:02:37Z</time>
      </trkpt>
      <trkpt lat="49.83873" lon="2.5092">
        <ele>94.6</ele>
        <time>2020-10-21T13:02:38Z</time>
      </trkpt>
      <trkpt lat="49.83873" lon="2.5092">
        <ele>94.6</ele>
        <time>2020-10-21T13:02:39Z</time>
      </trkpt>
      <trkpt lat="49.83873" lon="2.5092">
        <ele>94.6</ele>
        <time>2020-10-21T13:02:41Z</time>
      </trkpt>
      <trkpt lat="49.83873" lon="2.5092">
        <ele>94.6</ele>
        <time>2020-10-21T13:02:42Z</time>
      </trkpt>
      <trkpt lat="49.83873" lon="2.5092">
        <ele>94.6</ele>
        <time>2020-10-21T13:02:44Z</time>
      </trkpt>
      <trkpt lat="49.83873" lon="2.5092">
        <ele>94.6</ele>
        <time>2020-10-21T13:02:45Z</time>
      </trkpt>
      <trkpt lat="49.83873" lon="2.5092">
        <ele>94.6</ele>
        <time>2020-10-21T13:02:46Z</time>
      </trkpt>
      <trkpt lat="49.83873" lon="2.5092">
        <ele>94.6</ele>
        <time>2020-10-21T13:02:48Z</time>
      </trkpt>
      <trkpt lat="49.83873" lon="2.5092">
        <ele>94.6</ele>
        <time>2020-10-21T13:02:50Z</time>
      </trkpt>
      <trkpt lat="49.83873" lon="2.5092">
        <ele>94.6</ele>
        <time>2020-10-21T13:02:51Z</time>
      </trkpt>
      <trkpt lat="49.83873" lon="2.5092">
        <ele>94.6</ele>
        <time>2020-10-21T13:02:52Z</time>
      </trkpt>
      <trkpt lat="49.83873" lon="2.5092">
        <ele>94.6</ele>
        <time>2020-10-21T13:02:54Z</time>
      </trkpt>
      <trkpt lat="49.83873" lon="2.5092">
        <ele>94.6</ele>
        <time>2020-10-21T13:02:56Z</time>
      </trkpt>
      <trkpt lat="49.83873" lon="2.5092">
        <ele>94.6</ele>
        <time>2020-10-21T13:02:57Z</time>
      </trkpt>
      <trkpt lat="49.83873" lon="2.5092">
        <ele>94.6</ele>
        <time>2020-10-21T13:02:58Z</time>
      </trkpt>
      <trkpt lat="49.83873" lon="2.5092">
        <ele>94.6</ele>
        <time>2020-10-21T13:03:00Z</time>
      </trkpt>
      <trkpt lat="49.83873" lon="2.5092">
        <ele>94.6</ele>
        <time>2020-10-21T13:03:02Z</time>
      </trkpt>
      <trkpt lat="49.83873" lon="2.5092">
        <ele>94.6</ele>
        <time>2020-10-21T13:03:04Z</time>
      </trkpt>
      <trkpt lat="49.83873" lon="2.5092">
        <ele>94.6</ele>
        <time>2020-10-21T13:03:06Z</time>
      </trkpt>
      <trkpt lat="49.83873" lon="2.50921">
        <ele>94.6</ele>
        <time>2020-10-21T13:03:07Z</time>
      </trkpt>
      <trkpt lat="49.83872" lon="2.50924">
        <ele>94.5</ele>
        <time>2020-10-21T13:03:09Z</time>
      </trkpt>
      <trkpt lat="49.83871" lon="2.50926">
        <ele>94.4</ele>
        <time>2020-10-21T13:03:11Z</time>
      </trkpt>
      <trkpt lat="49.8387" lon="2.50926">
        <ele>94.3</ele>
        <time>2020-10-21T13:03:12Z</time>
      </trkpt>
      <trkpt lat="49.83869" lon="2.50927">
        <ele>94.3</ele>
        <time>2020-10-21T13:03:14Z</time>
      </trkpt>
      <trkpt lat="49.83868" lon="2.50928">
        <ele>94.3</ele>
        <time>2020-10-21T13:03:15Z</time>
      </trkpt>
      <trkpt lat="49.83867" lon="2.50927">
        <ele>94.2</ele>
        <time>2020-10-21T13:03:16Z</time>
      </trkpt>
      <trkpt lat="49.83865" lon="2.50928">
        <ele>94.1</ele>
        <time>2020-10-21T13:03:18Z</time>
      </trkpt>
      <trkpt lat="49.83864" lon="2.50928">
        <ele>94.1</ele>
        <time>2020-10-21T13:03:19Z</time>
      </trkpt>
      <trkpt lat="49.83862" lon="2.50929">
        <ele>94</ele>
        <time>2020-10-21T13:03:20Z</time>
      </trkpt>
      <trkpt lat="49.8386" lon="2.5093">
        <ele>93.9</ele>
        <time>2020-10-21T13:03:21Z</time>
      </trkpt>
      <trkpt lat="49.83859" lon="2.5093">
        <ele>93.9</ele>
        <time>2020-10-21T13:03:22Z</time>
      </trkpt>
      <trkpt lat="49.83858" lon="2.50931">
        <ele>93.8</ele>
        <time>2020-10-21T13:03:23Z</time>
      </trkpt>
      <trkpt lat="49.83857" lon="2.50931">
        <ele>93.8</ele>
        <time>2020-10-21T13:03:24Z</time>
      </trkpt>
      <trkpt lat="49.83855" lon="2.50931">
        <ele>93.7</ele>
        <time>2020-10-21T13:03:26Z</time>
      </trkpt>
      <trkpt lat="49.83854" lon="2.50931">
        <ele>93.7</ele>
        <time>2020-10-21T13:03:27Z</time>
      </trkpt>
      <trkpt lat="49.83853" lon="2.50931">
        <ele>93.7</ele>
        <time>2020-10-21T13:03:28Z</time>
      </trkpt>
      <trkpt lat="49.83852" lon="2.50931">
        <ele>93.6</ele>
        <time>2020-10-21T13:03:29Z</time>
      </trkpt>
      <trkpt lat="49.8385" lon="2.50931">
        <ele>93.6</ele>
        <time>2020-10-21T13:03:30Z</time>
      </trkpt>
      <trkpt lat="49.83849" lon="2.5093">
        <ele>93.5</ele>
        <time>2020-10-21T13:03:31Z</time>
      </trkpt>
      <trkpt lat="49.83848" lon="2.5093">
        <ele>93.5</ele>
        <time>2020-10-21T13:03:32Z</time>
      </trkpt>
      <trkpt lat="49.83847" lon="2.50931">
        <ele>93.4</ele>
        <time>2020-10-21T13:03:33Z</time>
      </trkpt>
      <trkpt lat="49.83845" lon="2.5093">
        <ele>93.3</ele>
        <time>2020-10-21T13:03:35Z</time>
      </trkpt>
      <trkpt lat="49.83844" lon="2.50929">
        <ele>93.3</ele>
        <time>2020-10-21T13:03:36Z</time>
      </trkpt>
      <trkpt lat="49.83843" lon="2.50928">
        <ele>93.2</ele>
        <time>2020-10-21T13:03:38Z</time>
      </trkpt>
      <trkpt lat="49.83843" lon="2.50926">
        <ele>93.2</ele>
        <time>2020-10-21T13:03:39Z</time>
      </trkpt>
      <trkpt lat="49.83842" lon="2.50923">
        <ele>93.1</ele>
        <time>2020-10-21T13:03:40Z</time>
      </trkpt>
      <trkpt lat="49.83841" lon="2.50921">
        <ele>93</ele>
        <time>2020-10-21T13:03:42Z</time>
      </trkpt>
      <trkpt lat="49.83838" lon="2.5092">
        <ele>93</ele>
        <time>2020-10-21T13:03:43Z</time>
      </trkpt>
      <trkpt lat="49.83837" lon="2.50919">
        <ele>92.9</ele>
        <time>2020-10-21T13:03:44Z</time>
      </trkpt>
      <trkpt lat="49.83836" lon="2.50918">
        <ele>92.9</ele>
        <time>2020-10-21T13:03:45Z</time>
      </trkpt>
      <trkpt lat="49.83836" lon="2.50918">
        <ele>92.9</ele>
        <time>2020-10-21T13:03:46Z</time>
      </trkpt>
      <trkpt lat="49.83835" lon="2.50917">
        <ele>92.8</ele>
        <time>2020-10-21T13:03:48Z</time>
      </trkpt>
      <trkpt lat="49.83834" lon="2.50916">
        <ele>92.8</ele>
        <time>2020-10-21T13:03:49Z</time>
      </trkpt>
      <trkpt lat="49.83833" lon="2.50914">
        <ele>92.8</ele>
        <time>2020-10-21T13:03:50Z</time>
      </trkpt>
      <trkpt lat="49.83831" lon="2.50913">
        <ele>92.7</ele>
        <time>2020-10-21T13:03:51Z</time>
      </trkpt>
      <trkpt lat="49.8383" lon="2.50912">
        <ele>92.7</ele>
        <time>2020-10-21T13:03:52Z</time>
      </trkpt>
      <trkpt lat="49.83829" lon="2.50911">
        <ele>92.7</ele>
        <time>2020-10-21T13:03:53Z</time>
      </trkpt>
      <trkpt lat="49.83828" lon="2.5091">
        <ele>92.6</ele>
        <time>2020-10-21T13:03:54Z</time>
      </trkpt>
      <trkpt lat="49.83826" lon="2.50908">
        <ele>92.6</ele>
        <time>2020-10-21T13:03:55Z</time>
      </trkpt>
      <trkpt lat="49.83826" lon="2.50908">
        <ele>92.6</ele>
        <time>2020-10-21T13:03:56Z</time>
      </trkpt>
      <trkpt lat="49.83825" lon="2.50907">
        <ele>92.6</ele>
        <time>2020-10-21T13:03:58Z</time>
      </trkpt>
      <trkpt lat="49.83824" lon="2.50906">
        <ele>92.5</ele>
        <time>2020-10-21T13:03:59Z</time>
      </trkpt>
      <trkpt lat="49.83823" lon="2.50905">
        <ele>92.5</ele>
        <time>2020-10-21T13:04:00Z</time>
      </trkpt>
      <trkpt lat="49.83822" lon="2.50904">
        <ele>92.5</ele>
        <time>2020-10-21T13:04:01Z</time>
      </trkpt>
      <trkpt lat="49.83821" lon="2.50904">
        <ele>92.5</ele>
        <time>2020-10-21T13:04:02Z</time>
      </trkpt>
      <trkpt lat="49.8382" lon="2.50904">
        <ele>92.5</ele>
        <time>2020-10-21T13:04:03Z</time>
      </trkpt>
      <trkpt lat="49.83819" lon="2.50903">
        <ele>92.4</ele>
        <time>2020-10-21T13:04:04Z</time>
      </trkpt>
      <trkpt lat="49.83817" lon="2.50903">
        <ele>92.4</ele>
        <time>2020-10-21T13:04:06Z</time>
      </trkpt>
      <trkpt lat="49.83817" lon="2.50904">
        <ele>92.4</ele>
        <time>2020-10-21T13:04:07Z</time>
      </trkpt>
      <trkpt lat="49.83816" lon="2.50904">
        <ele>92.4</ele>
        <time>2020-10-21T13:04:08Z</time>
      </trkpt>
      <trkpt lat="49.83815" lon="2.50904">
        <ele>92.4</ele>
        <time>2020-10-21T13:04:09Z</time>
      </trkpt>
      <trkpt lat="49.83813" lon="2.50903">
        <ele>92.3</ele>
        <time>2020-10-21T13:04:11Z</time>
      </trkpt>
      <trkpt lat="49.83812" lon="2.50903">
        <ele>92.3</ele>
        <time>2020-10-21T13:04:12Z</time>
      </trkpt>
      <trkpt lat="49.83811" lon="2.50902">
        <ele>92.3</ele>
        <time>2020-10-21T13:04:13Z</time>
      </trkpt>
      <trkpt lat="49.8381" lon="2.50902">
        <ele>92.3</ele>
        <time>2020-10-21T13:04:14Z</time>
      </trkpt>
      <trkpt lat="49.83808" lon="2.50901">
        <ele>92.2</ele>
        <time>2020-10-21T13:04:15Z</time>
      </trkpt>
      <trkpt lat="49.83807" lon="2.50901">
        <ele>92.2</ele>
        <time>2020-10-21T13:04:16Z</time>
      </trkpt>
      <trkpt lat="49.83806" lon="2.50901">
        <ele>92.2</ele>
        <time>2020-10-21T13:04:17Z</time>
      </trkpt>
      <trkpt lat="49.83805" lon="2.509">
        <ele>92.2</ele>
        <time>2020-10-21T13:04:18Z</time>
      </trkpt>
      <trkpt lat="49.83804" lon="2.509">
        <ele>92.1</ele>
        <time>2020-10-21T13:04:20Z</time>
      </trkpt>
      <trkpt lat="49.83803" lon="2.50899">
        <ele>92.1</ele>
        <time>2020-10-21T13:04:21Z</time>
      </trkpt>
      <trkpt lat="49.83801" lon="2.50898">
        <ele>92.1</ele>
        <time>2020-10-21T13:04:22Z</time>
      </trkpt>
      <trkpt lat="49.838" lon="2.50898">
        <ele>92.1</ele>
        <time>2020-10-21T13:04:23Z</time>
      </trkpt>
      <trkpt lat="49.83799" lon="2.50897">
        <ele>92.1</ele>
        <time>2020-10-21T13:04:24Z</time>
      </trkpt>
      <trkpt lat="49.83798" lon="2.50896">
        <ele>92</ele>
        <time>2020-10-21T13:04:25Z</time>
      </trkpt>
      <trkpt lat="49.83797" lon="2.50895">
        <ele>92</ele>
        <time>2020-10-21T13:04:26Z</time>
      </trkpt>
      <trkpt lat="49.83796" lon="2.50895">
        <ele>92</ele>
        <time>2020-10-21T13:04:27Z</time>
      </trkpt>
      <trkpt lat="49.83795" lon="2.50895">
        <ele>92</ele>
        <time>2020-10-21T13:04:28Z</time>
      </trkpt>
      <trkpt lat="49.83794" lon="2.50896">
        <ele>91.9</ele>
        <time>2020-10-21T13:04:30Z</time>
      </trkpt>
      <trkpt lat="49.83793" lon="2.50896">
        <ele>91.9</ele>
        <time>2020-10-21T13:04:31Z</time>
      </trkpt>
      <trkpt lat="49.83793" lon="2.50895">
        <ele>91.9</ele>
        <time>2020-10-21T13:04:32Z</time>
      </trkpt>
      <trkpt lat="49.83793" lon="2.50895">
        <ele>91.9</ele>
        <time>2020-10-21T13:04:33Z</time>
      </trkpt>
      <trkpt lat="49.83792" lon="2.50894">
        <ele>91.9</ele>
        <time>2020-10-21T13:04:35Z</time>
      </trkpt>
      <trkpt lat="49.83792" lon="2.50894">
        <ele>91.9</ele>
        <time>2020-10-21T13:04:36Z</time>
      </trkpt>
      <trkpt lat="49.83791" lon="2.50894">
        <ele>91.9</ele>
        <time>2020-10-21T13:04:37Z</time>
      </trkpt>
      <trkpt lat="49.83791" lon="2.50893">
        <ele>91.9</ele>
        <time>2020-10-21T13:04:39Z</time>
      </trkpt>
      <trkpt lat="49.8379" lon="2.50893">
        <ele>91.9</ele>
        <time>2020-10-21T13:04:40Z</time>
      </trkpt>
      <trkpt lat="49.8379" lon="2.50892">
        <ele>91.8</ele>
        <time>2020-10-21T13:04:41Z</time>
      </trkpt>
      <trkpt lat="49.83788" lon="2.50891">
        <ele>91.8</ele>
        <time>2020-10-21T13:04:42Z</time>
      </trkpt>
      <trkpt lat="49.83787" lon="2.5089">
        <ele>91.8</ele>
        <time>2020-10-21T13:04:43Z</time>
      </trkpt>
      <trkpt lat="49.83787" lon="2.5089">
        <ele>91.8</ele>
        <time>2020-10-21T13:04:44Z</time>
      </trkpt>
      <trkpt lat="49.83786" lon="2.50888">
        <ele>91.7</ele>
        <time>2020-10-21T13:04:45Z</time>
      </trkpt>
      <trkpt lat="49.83785" lon="2.50887">
        <ele>91.7</ele>
        <time>2020-10-21T13:04:46Z</time>
      </trkpt>
      <trkpt lat="49.83783" lon="2.50886">
        <ele>91.7</ele>
        <time>2020-10-21T13:04:48Z</time>
      </trkpt>
      <trkpt lat="49.83782" lon="2.50884">
        <ele>91.6</ele>
        <time>2020-10-21T13:04:49Z</time>
      </trkpt>
      <trkpt lat="49.83781" lon="2.50883">
        <ele>91.6</ele>
        <time>2020-10-21T13:04:50Z</time>
      </trkpt>
      <trkpt lat="49.8378" lon="2.50883">
        <ele>91.6</ele>
        <time>2020-10-21T13:04:51Z</time>
      </trkpt>
      <trkpt lat="49.83779" lon="2.5088">
        <ele>91.6</ele>
        <time>2020-10-21T13:04:52Z</time>
      </trkpt>
      <trkpt lat="49.83778" lon="2.5088">
        <ele>91.5</ele>
        <time>2020-10-21T13:04:53Z</time>
      </trkpt>
      <trkpt lat="49.83778" lon="2.50879">
        <ele>91.5</ele>
        <time>2020-10-21T13:04:54Z</time>
      </trkpt>
      <trkpt lat="49.83777" lon="2.50878">
        <ele>91.5</ele>
        <time>2020-10-21T13:04:55Z</time>
      </trkpt>
      <trkpt lat="49.83776" lon="2.50877">
        <ele>91.5</ele>
        <time>2020-10-21T13:04:56Z</time>
      </trkpt>
      <trkpt lat="49.83775" lon="2.50877">
        <ele>91.4</ele>
        <time>2020-10-21T13:04:57Z</time>
      </trkpt>
      <trkpt lat="49.83773" lon="2.50876">
        <ele>91.4</ele>
        <time>2020-10-21T13:04:59Z</time>
      </trkpt>
      <trkpt lat="49.83772" lon="2.50876">
        <ele>91.4</ele>
        <time>2020-10-21T13:05:00Z</time>
      </trkpt>
      <trkpt lat="49.83771" lon="2.50875">
        <ele>91.4</ele>
        <time>2020-10-21T13:05:01Z</time>
      </trkpt>
      <trkpt lat="49.8377" lon="2.50875">
        <ele>91.4</ele>
        <time>2020-10-21T13:05:03Z</time>
      </trkpt>
      <trkpt lat="49.83768" lon="2.50874">
        <ele>91.3</ele>
        <time>2020-10-21T13:05:04Z</time>
      </trkpt>
      <trkpt lat="49.83765" lon="2.50872">
        <ele>91.3</ele>
        <time>2020-10-21T13:05:05Z</time>
      </trkpt>
      <trkpt lat="49.83764" lon="2.50871">
        <ele>91.3</ele>
        <time>2020-10-21T13:05:06Z</time>
      </trkpt>
      <trkpt lat="49.83762" lon="2.50869">
        <ele>91.3</ele>
        <time>2020-10-21T13:05:07Z</time>
      </trkpt>
      <trkpt lat="49.83761" lon="2.50868">
        <ele>91.3</ele>
        <time>2020-10-21T13:05:08Z</time>
      </trkpt>
      <trkpt lat="49.83759" lon="2.50867">
        <ele>91.2</ele>
        <time>2020-10-21T13:05:09Z</time>
      </trkpt>
      <trkpt lat="49.83758" lon="2.50865">
        <ele>91.2</ele>
        <time>2020-10-21T13:05:11Z</time>
      </trkpt>
      <trkpt lat="49.83756" lon="2.50864">
        <ele>91.2</ele>
        <time>2020-10-21T13:05:12Z</time>
      </trkpt>
      <trkpt lat="49.83755" lon="2.50863">
        <ele>91.2</ele>
        <time>2020-10-21T13:05:13Z</time>
      </trkpt>
      <trkpt lat="49.83753" lon="2.50862">
        <ele>91.2</ele>
        <time>2020-10-21T13:05:14Z</time>
      </trkpt>
      <trkpt lat="49.83752" lon="2.5086">
        <ele>91.2</ele>
        <time>2020-10-21T13:05:15Z</time>
      </trkpt>
      <trkpt lat="49.83751" lon="2.50859">
        <ele>91.1</ele>
        <time>2020-10-21T13:05:16Z</time>
      </trkpt>
      <trkpt lat="49.8375" lon="2.50858">
        <ele>91.1</ele>
        <time>2020-10-21T13:05:18Z</time>
      </trkpt>
      <trkpt lat="49.83749" lon="2.50857">
        <ele>91.1</ele>
        <time>2020-10-21T13:05:19Z</time>
      </trkpt>
      <trkpt lat="49.83748" lon="2.50855">
        <ele>91.1</ele>
        <time>2020-10-21T13:05:20Z</time>
      </trkpt>
      <trkpt lat="49.83746" lon="2.50853">
        <ele>91</ele>
        <time>2020-10-21T13:05:21Z</time>
      </trkpt>
      <trkpt lat="49.83746" lon="2.50852">
        <ele>91</ele>
        <time>2020-10-21T13:05:22Z</time>
      </trkpt>
      <trkpt lat="49.83745" lon="2.50851">
        <ele>91</ele>
        <time>2020-10-21T13:05:23Z</time>
      </trkpt>
      <trkpt lat="49.83744" lon="2.50849">
        <ele>91</ele>
        <time>2020-10-21T13:05:24Z</time>
      </trkpt>
      <trkpt lat="49.83744" lon="2.50849">
        <ele>91</ele>
        <time>2020-10-21T13:05:25Z</time>
      </trkpt>
      <trkpt lat="49.83743" lon="2.50847">
        <ele>91</ele>
        <time>2020-10-21T13:05:27Z</time>
      </trkpt>
      <trkpt lat="49.83742" lon="2.50846">
        <ele>90.9</ele>
        <time>2020-10-21T13:05:28Z</time>
      </trkpt>
      <trkpt lat="49.83741" lon="2.50845">
        <ele>90.9</ele>
        <time>2020-10-21T13:05:29Z</time>
      </trkpt>
      <trkpt lat="49.8374" lon="2.50843">
        <ele>90.9</ele>
        <time>2020-10-21T13:05:30Z</time>
      </trkpt>
      <trkpt lat="49.83739" lon="2.50842">
        <ele>90.9</ele>
        <time>2020-10-21T13:05:31Z</time>
      </trkpt>
      <trkpt lat="49.83737" lon="2.50841">
        <ele>90.8</ele>
        <time>2020-10-21T13:05:32Z</time>
      </trkpt>
      <trkpt lat="49.83736" lon="2.50839">
        <ele>90.8</ele>
        <time>2020-10-21T13:05:33Z</time>
      </trkpt>
      <trkpt lat="49.83735" lon="2.50838">
        <ele>90.8</ele>
        <time>2020-10-21T13:05:34Z</time>
      </trkpt>
      <trkpt lat="49.83734" lon="2.50837">
        <ele>90.8</ele>
        <time>2020-10-21T13:05:35Z</time>
      </trkpt>
      <trkpt lat="49.83733" lon="2.50835">
        <ele>90.7</ele>
        <time>2020-10-21T13:05:36Z</time>
      </trkpt>
      <trkpt lat="49.83732" lon="2.50834">
        <ele>90.7</ele>
        <time>2020-10-21T13:05:38Z</time>
      </trkpt>
      <trkpt lat="49.83731" lon="2.50833">
        <ele>90.7</ele>
        <time>2020-10-21T13:05:39Z</time>
      </trkpt>
      <trkpt lat="49.8373" lon="2.50832">
        <ele>90.7</ele>
        <time>2020-10-21T13:05:40Z</time>
      </trkpt>
      <trkpt lat="49.83729" lon="2.5083">
        <ele>90.7</ele>
        <time>2020-10-21T13:05:41Z</time>
      </trkpt>
      <trkpt lat="49.83728" lon="2.50828">
        <ele>90.7</ele>
        <time>2020-10-21T13:05:42Z</time>
      </trkpt>
      <trkpt lat="49.83727" lon="2.50827">
        <ele>90.6</ele>
        <time>2020-10-21T13:05:43Z</time>
      </trkpt>
      <trkpt lat="49.83726" lon="2.50825">
        <ele>90.6</ele>
        <time>2020-10-21T13:05:44Z</time>
      </trkpt>
      <trkpt lat="49.83726" lon="2.50823">
        <ele>90.6</ele>
        <time>2020-10-21T13:05:45Z</time>
      </trkpt>
      <trkpt lat="49.83725" lon="2.50822">
        <ele>90.6</ele>
        <time>2020-10-21T13:05:47Z</time>
      </trkpt>
      <trkpt lat="49.83724" lon="2.5082">
        <ele>90.5</ele>
        <time>2020-10-21T13:05:48Z</time>
      </trkpt>
      <trkpt lat="49.83723" lon="2.50819">
        <ele>90.5</ele>
        <time>2020-10-21T13:05:49Z</time>
      </trkpt>
      <trkpt lat="49.83722" lon="2.50817">
        <ele>90.5</ele>
        <time>2020-10-21T13:05:50Z</time>
      </trkpt>
      <trkpt lat="49.83721" lon="2.50816">
        <ele>90.5</ele>
        <time>2020-10-21T13:05:51Z</time>
      </trkpt>
      <trkpt lat="49.8372" lon="2.50814">
        <ele>90.4</ele>
        <time>2020-10-21T13:05:52Z</time>
      </trkpt>
      <trkpt lat="49.83719" lon="2.50813">
        <ele>90.4</ele>
        <time>2020-10-21T13:05:53Z</time>
      </trkpt>
      <trkpt lat="49.83718" lon="2.5081">
        <ele>90.4</ele>
        <time>2020-10-21T13:05:54Z</time>
      </trkpt>
      <trkpt lat="49.83717" lon="2.50808">
        <ele>90.3</ele>
        <time>2020-10-21T13:05:56Z</time>
      </trkpt>
      <trkpt lat="49.83716" lon="2.50807">
        <ele>90.3</ele>
        <time>2020-10-21T13:05:57Z</time>
      </trkpt>
      <trkpt lat="49.83715" lon="2.50806">
        <ele>90.3</ele>
        <time>2020-10-21T13:05:58Z</time>
      </trkpt>
      <trkpt lat="49.83715" lon="2.50804">
        <ele>90.3</ele>
        <time>2020-10-21T13:05:59Z</time>
      </trkpt>
      <trkpt lat="49.83713" lon="2.50802">
        <ele>90.2</ele>
        <time>2020-10-21T13:06:01Z</time>
      </trkpt>
      <trkpt lat="49.83713" lon="2.50801">
        <ele>90.2</ele>
        <time>2020-10-21T13:06:02Z</time>
      </trkpt>
      <trkpt lat="49.83712" lon="2.508">
        <ele>90.2</ele>
        <time>2020-10-21T13:06:03Z</time>
      </trkpt>
      <trkpt lat="49.83711" lon="2.50797">
        <ele>90.2</ele>
        <time>2020-10-21T13:06:04Z</time>
      </trkpt>
      <trkpt lat="49.8371" lon="2.50796">
        <ele>90.2</ele>
        <time>2020-10-21T13:06:05Z</time>
      </trkpt>
      <trkpt lat="49.8371" lon="2.50795">
        <ele>90.1</ele>
        <time>2020-10-21T13:06:06Z</time>
      </trkpt>
      <trkpt lat="49.83709" lon="2.50793">
        <ele>90.1</ele>
        <time>2020-10-21T13:06:07Z</time>
      </trkpt>
      <trkpt lat="49.83708" lon="2.50792">
        <ele>90.1</ele>
        <time>2020-10-21T13:06:08Z</time>
      </trkpt>
      <trkpt lat="49.83707" lon="2.5079">
        <ele>90.1</ele>
        <time>2020-10-21T13:06:10Z</time>
      </trkpt>
      <trkpt lat="49.83706" lon="2.50788">
        <ele>90.1</ele>
        <time>2020-10-21T13:06:11Z</time>
      </trkpt>
      <trkpt lat="49.83705" lon="2.50787">
        <ele>90</ele>
        <time>2020-10-21T13:06:12Z</time>
      </trkpt>
      <trkpt lat="49.83704" lon="2.50784">
        <ele>90</ele>
        <time>2020-10-21T13:06:13Z</time>
      </trkpt>
      <trkpt lat="49.83703" lon="2.50783">
        <ele>90</ele>
        <time>2020-10-21T13:06:14Z</time>
      </trkpt>
      <trkpt lat="49.83702" lon="2.50782">
        <ele>90</ele>
        <time>2020-10-21T13:06:15Z</time>
      </trkpt>
      <trkpt lat="49.837" lon="2.50781">
        <ele>89.9</ele>
        <time>2020-10-21T13:06:16Z</time>
      </trkpt>
      <trkpt lat="49.83699" lon="2.5078">
        <ele>89.9</ele>
        <time>2020-10-21T13:06:18Z</time>
      </trkpt>
      <trkpt lat="49.83699" lon="2.5078">
        <ele>89.9</ele>
        <time>2020-10-21T13:06:19Z</time>
      </trkpt>
      <trkpt lat="49.83697" lon="2.50779">
        <ele>89.9</ele>
        <time>2020-10-21T13:06:20Z</time>
      </trkpt>
      <trkpt lat="49.83696" lon="2.50778">
        <ele>89.8</ele>
        <time>2020-10-21T13:06:21Z</time>
      </trkpt>
      <trkpt lat="49.83694" lon="2.50776">
        <ele>89.8</ele>
        <time>2020-10-21T13:06:22Z</time>
      </trkpt>
      <trkpt lat="49.83694" lon="2.50776">
        <ele>89.8</ele>
        <time>2020-10-21T13:06:23Z</time>
      </trkpt>
      <trkpt lat="49.83693" lon="2.50775">
        <ele>89.8</ele>
        <time>2020-10-21T13:06:24Z</time>
      </trkpt>
      <trkpt lat="49.83691" lon="2.50773">
        <ele>89.7</ele>
        <time>2020-10-21T13:06:25Z</time>
      </trkpt>
      <trkpt lat="49.83691" lon="2.50772">
        <ele>89.7</ele>
        <time>2020-10-21T13:06:27Z</time>
      </trkpt>
      <trkpt lat="49.8369" lon="2.50771">
        <ele>89.7</ele>
        <time>2020-10-21T13:06:28Z</time>
      </trkpt>
      <trkpt lat="49.83689" lon="2.5077">
        <ele>89.7</ele>
        <time>2020-10-21T13:06:29Z</time>
      </trkpt>
      <trkpt lat="49.83689" lon="2.50768">
        <ele>89.6</ele>
        <time>2020-10-21T13:06:30Z</time>
      </trkpt>
      <trkpt lat="49.83688" lon="2.50767">
        <ele>89.6</ele>
        <time>2020-10-21T13:06:31Z</time>
      </trkpt>
      <trkpt lat="49.83687" lon="2.50766">
        <ele>89.6</ele>
        <time>2020-10-21T13:06:33Z</time>
      </trkpt>
      <trkpt lat="49.83687" lon="2.50764">
        <ele>89.6</ele>
        <time>2020-10-21T13:06:34Z</time>
      </trkpt>
      <trkpt lat="49.83686" lon="2.50763">
        <ele>89.5</ele>
        <time>2020-10-21T13:06:35Z</time>
      </trkpt>
      <trkpt lat="49.83686" lon="2.50762">
        <ele>89.5</ele>
        <time>2020-10-21T13:06:37Z</time>
      </trkpt>
      <trkpt lat="49.83685" lon="2.5076">
        <ele>89.5</ele>
        <time>2020-10-21T13:06:38Z</time>
      </trkpt>
      <trkpt lat="49.83684" lon="2.5076">
        <ele>89.5</ele>
        <time>2020-10-21T13:06:39Z</time>
      </trkpt>
      <trkpt lat="49.83683" lon="2.5076">
        <ele>89.4</ele>
        <time>2020-10-21T13:06:41Z</time>
      </trkpt>
      <trkpt lat="49.83681" lon="2.50761">
        <ele>89.4</ele>
        <time>2020-10-21T13:06:43Z</time>
      </trkpt>
      <trkpt lat="49.8368" lon="2.50761">
        <ele>89.4</ele>
        <time>2020-10-21T13:06:44Z</time>
      </trkpt>
      <trkpt lat="49.83679" lon="2.50761">
        <ele>89.3</ele>
        <time>2020-10-21T13:06:46Z</time>
      </trkpt>
      <trkpt lat="49.83678" lon="2.50761">
        <ele>89.3</ele>
        <time>2020-10-21T13:06:48Z</time>
      </trkpt>
      <trkpt lat="49.83678" lon="2.50762">
        <ele>89.3</ele>
        <time>2020-10-21T13:06:50Z</time>
      </trkpt>
      <trkpt lat="49.83678" lon="2.50762">
        <ele>89.3</ele>
        <time>2020-10-21T13:06:52Z</time>
      </trkpt>
      <trkpt lat="49.83678" lon="2.50761">
        <ele>89.3</ele>
        <time>2020-10-21T13:06:53Z</time>
      </trkpt>
      <trkpt lat="49.83678" lon="2.5076">
        <ele>89.3</ele>
        <time>2020-10-21T13:06:54Z</time>
      </trkpt>
      <trkpt lat="49.83679" lon="2.50759">
        <ele>89.3</ele>
        <time>2020-10-21T13:06:56Z</time>
      </trkpt>
      <trkpt lat="49.83679" lon="2.50758">
        <ele>89.2</ele>
        <time>2020-10-21T13:06:57Z</time>
      </trkpt>
      <trkpt lat="49.83679" lon="2.50756">
        <ele>89.2</ele>
        <time>2020-10-21T13:06:58Z</time>
      </trkpt>
      <trkpt lat="49.83679" lon="2.50754">
        <ele>89.2</ele>
        <time>2020-10-21T13:06:59Z</time>
      </trkpt>
      <trkpt lat="49.83679" lon="2.50753">
        <ele>89.2</ele>
        <time>2020-10-21T13:07:00Z</time>
      </trkpt>
      <trkpt lat="49.83679" lon="2.50749">
        <ele>89.1</ele>
        <time>2020-10-21T13:07:02Z</time>
      </trkpt>
      <trkpt lat="49.83679" lon="2.50747">
        <ele>89.1</ele>
        <time>2020-10-21T13:07:03Z</time>
      </trkpt>
      <trkpt lat="49.83679" lon="2.50745">
        <ele>89</ele>
        <time>2020-10-21T13:07:04Z</time>
      </trkpt>
      <trkpt lat="49.83678" lon="2.50743">
        <ele>89</ele>
        <time>2020-10-21T13:07:06Z</time>
      </trkpt>
      <trkpt lat="49.83678" lon="2.50741">
        <ele>89</ele>
        <time>2020-10-21T13:07:07Z</time>
      </trkpt>
      <trkpt lat="49.83677" lon="2.50738">
        <ele>88.9</ele>
        <time>2020-10-21T13:07:08Z</time>
      </trkpt>
      <trkpt lat="49.83676" lon="2.50737">
        <ele>88.9</ele>
        <time>2020-10-21T13:07:09Z</time>
      </trkpt>
      <trkpt lat="49.83676" lon="2.50735">
        <ele>88.8</ele>
        <time>2020-10-21T13:07:10Z</time>
      </trkpt>
      <trkpt lat="49.83675" lon="2.50733">
        <ele>88.8</ele>
        <time>2020-10-21T13:07:11Z</time>
      </trkpt>
      <trkpt lat="49.83674" lon="2.50732">
        <ele>88.7</ele>
        <time>2020-10-21T13:07:13Z</time>
      </trkpt>
      <trkpt lat="49.83673" lon="2.5073">
        <ele>88.7</ele>
        <time>2020-10-21T13:07:14Z</time>
      </trkpt>
      <trkpt lat="49.83672" lon="2.50728">
        <ele>88.7</ele>
        <time>2020-10-21T13:07:15Z</time>
      </trkpt>
      <trkpt lat="49.83671" lon="2.50726">
        <ele>88.6</ele>
        <time>2020-10-21T13:07:16Z</time>
      </trkpt>
      <trkpt lat="49.83669" lon="2.50724">
        <ele>88.6</ele>
        <time>2020-10-21T13:07:18Z</time>
      </trkpt>
      <trkpt lat="49.83668" lon="2.50722">
        <ele>88.5</ele>
        <time>2020-10-21T13:07:19Z</time>
      </trkpt>
      <trkpt lat="49.83668" lon="2.5072">
        <ele>88.5</ele>
        <time>2020-10-21T13:07:20Z</time>
      </trkpt>
      <trkpt lat="49.83666" lon="2.50717">
        <ele>88.5</ele>
        <time>2020-10-21T13:07:22Z</time>
      </trkpt>
      <trkpt lat="49.83666" lon="2.50715">
        <ele>88.5</ele>
        <time>2020-10-21T13:07:23Z</time>
      </trkpt>
      <trkpt lat="49.83665" lon="2.50714">
        <ele>88.4</ele>
        <time>2020-10-21T13:07:24Z</time>
      </trkpt>
      <trkpt lat="49.83665" lon="2.50713">
        <ele>88.4</ele>
        <time>2020-10-21T13:07:26Z</time>
      </trkpt>
      <trkpt lat="49.83664" lon="2.50711">
        <ele>88.4</ele>
        <time>2020-10-21T13:07:27Z</time>
      </trkpt>
      <trkpt lat="49.83663" lon="2.5071">
        <ele>88.4</ele>
        <time>2020-10-21T13:07:28Z</time>
      </trkpt>
      <trkpt lat="49.83662" lon="2.50708">
        <ele>88.4</ele>
        <time>2020-10-21T13:07:29Z</time>
      </trkpt>
      <trkpt lat="49.83662" lon="2.50706">
        <ele>88.4</ele>
        <time>2020-10-21T13:07:30Z</time>
      </trkpt>
      <trkpt lat="49.83662" lon="2.50705">
        <ele>88.4</ele>
        <time>2020-10-21T13:07:31Z</time>
      </trkpt>
      <trkpt lat="49.83661" lon="2.50704">
        <ele>88.4</ele>
        <time>2020-10-21T13:07:33Z</time>
      </trkpt>
      <trkpt lat="49.83661" lon="2.50702">
        <ele>88.4</ele>
        <time>2020-10-21T13:07:34Z</time>
      </trkpt>
      <trkpt lat="49.83661" lon="2.507">
        <ele>88.4</ele>
        <time>2020-10-21T13:07:35Z</time>
      </trkpt>
      <trkpt lat="49.83662" lon="2.50699">
        <ele>88.4</ele>
        <time>2020-10-21T13:07:36Z</time>
      </trkpt>
      <trkpt lat="49.83662" lon="2.50697">
        <ele>88.3</ele>
        <time>2020-10-21T13:07:37Z</time>
      </trkpt>
      <trkpt lat="49.83662" lon="2.50695">
        <ele>88.3</ele>
        <time>2020-10-21T13:07:38Z</time>
      </trkpt>
      <trkpt lat="49.83662" lon="2.50694">
        <ele>88.3</ele>
        <time>2020-10-21T13:07:39Z</time>
      </trkpt>
      <trkpt lat="49.83661" lon="2.50693">
        <ele>88.3</ele>
        <time>2020-10-21T13:07:41Z</time>
      </trkpt>
      <trkpt lat="49.83661" lon="2.50691">
        <ele>88.3</ele>
        <time>2020-10-21T13:07:42Z</time>
      </trkpt>
      <trkpt lat="49.83661" lon="2.50689">
        <ele>88.3</ele>
        <time>2020-10-21T13:07:43Z</time>
      </trkpt>
      <trkpt lat="49.8366" lon="2.50687">
        <ele>88.3</ele>
        <time>2020-10-21T13:07:44Z</time>
      </trkpt>
      <trkpt lat="49.8366" lon="2.50685">
        <ele>88.3</ele>
        <time>2020-10-21T13:07:45Z</time>
      </trkpt>
      <trkpt lat="49.8366" lon="2.50683">
        <ele>88.3</ele>
        <time>2020-10-21T13:07:46Z</time>
      </trkpt>
      <trkpt lat="49.8366" lon="2.50682">
        <ele>88.3</ele>
        <time>2020-10-21T13:07:47Z</time>
      </trkpt>
      <trkpt lat="49.8366" lon="2.5068">
        <ele>88.3</ele>
        <time>2020-10-21T13:07:49Z</time>
      </trkpt>
      <trkpt lat="49.83659" lon="2.50679">
        <ele>88.3</ele>
        <time>2020-10-21T13:07:50Z</time>
      </trkpt>
      <trkpt lat="49.83659" lon="2.50677">
        <ele>88.3</ele>
        <time>2020-10-21T13:07:51Z</time>
      </trkpt>
      <trkpt lat="49.83659" lon="2.50675">
        <ele>88.3</ele>
        <time>2020-10-21T13:07:52Z</time>
      </trkpt>
      <trkpt lat="49.83658" lon="2.50672">
        <ele>88.2</ele>
        <time>2020-10-21T13:07:54Z</time>
      </trkpt>
      <trkpt lat="49.83658" lon="2.5067">
        <ele>88.2</ele>
        <time>2020-10-21T13:07:55Z</time>
      </trkpt>
      <trkpt lat="49.83657" lon="2.50668">
        <ele>88.2</ele>
        <time>2020-10-21T13:07:56Z</time>
      </trkpt>
      <trkpt lat="49.83657" lon="2.50666">
        <ele>88.2</ele>
        <time>2020-10-21T13:07:57Z</time>
      </trkpt>
      <trkpt lat="49.83656" lon="2.50663">
        <ele>88.2</ele>
        <time>2020-10-21T13:07:59Z</time>
      </trkpt>
      <trkpt lat="49.83656" lon="2.50661">
        <ele>88.2</ele>
        <time>2020-10-21T13:08:00Z</time>
      </trkpt>
      <trkpt lat="49.83656" lon="2.50659">
        <ele>88.2</ele>
        <time>2020-10-21T13:08:01Z</time>
      </trkpt>
      <trkpt lat="49.83656" lon="2.50657">
        <ele>88.2</ele>
        <time>2020-10-21T13:08:02Z</time>
      </trkpt>
      <trkpt lat="49.83655" lon="2.50655">
        <ele>88.1</ele>
        <time>2020-10-21T13:08:03Z</time>
      </trkpt>
      <trkpt lat="49.83655" lon="2.50653">
        <ele>88.1</ele>
        <time>2020-10-21T13:08:04Z</time>
      </trkpt>
      <trkpt lat="49.83655" lon="2.5065">
        <ele>88.1</ele>
        <time>2020-10-21T13:08:06Z</time>
      </trkpt>
      <trkpt lat="49.83655" lon="2.50648">
        <ele>88.1</ele>
        <time>2020-10-21T13:08:07Z</time>
      </trkpt>
      <trkpt lat="49.83655" lon="2.50646">
        <ele>88.1</ele>
        <time>2020-10-21T13:08:08Z</time>
      </trkpt>
      <trkpt lat="49.83655" lon="2.50646">
        <ele>88.1</ele>
        <time>2020-10-21T13:08:10Z</time>
      </trkpt>
      <trkpt lat="49.83655" lon="2.50644">
        <ele>88.1</ele>
        <time>2020-10-21T13:08:11Z</time>
      </trkpt>
      <trkpt lat="49.83654" lon="2.50642">
        <ele>88.1</ele>
        <time>2020-10-21T13:08:12Z</time>
      </trkpt>
      <trkpt lat="49.83654" lon="2.5064">
        <ele>88</ele>
        <time>2020-10-21T13:08:13Z</time>
      </trkpt>
      <trkpt lat="49.83654" lon="2.50637">
        <ele>88</ele>
        <time>2020-10-21T13:08:14Z</time>
      </trkpt>
      <trkpt lat="49.83654" lon="2.50633">
        <ele>88</ele>
        <time>2020-10-21T13:08:16Z</time>
      </trkpt>
      <trkpt lat="49.83654" lon="2.50632">
        <ele>88</ele>
        <time>2020-10-21T13:08:17Z</time>
      </trkpt>
      <trkpt lat="49.83654" lon="2.50628">
        <ele>88</ele>
        <time>2020-10-21T13:08:19Z</time>
      </trkpt>
      <trkpt lat="49.83654" lon="2.50626">
        <ele>87.9</ele>
        <time>2020-10-21T13:08:20Z</time>
      </trkpt>
      <trkpt lat="49.83654" lon="2.50624">
        <ele>87.9</ele>
        <time>2020-10-21T13:08:21Z</time>
      </trkpt>
      <trkpt lat="49.83654" lon="2.50622">
        <ele>87.9</ele>
        <time>2020-10-21T13:08:22Z</time>
      </trkpt>
      <trkpt lat="49.83653" lon="2.50618">
        <ele>87.9</ele>
        <time>2020-10-21T13:08:23Z</time>
      </trkpt>
      <trkpt lat="49.83653" lon="2.50616">
        <ele>87.8</ele>
        <time>2020-10-21T13:08:24Z</time>
      </trkpt>
      <trkpt lat="49.83653" lon="2.50614">
        <ele>87.8</ele>
        <time>2020-10-21T13:08:26Z</time>
      </trkpt>
      <trkpt lat="49.83653" lon="2.50612">
        <ele>87.8</ele>
        <time>2020-10-21T13:08:27Z</time>
      </trkpt>
      <trkpt lat="49.83653" lon="2.50611">
        <ele>87.8</ele>
        <time>2020-10-21T13:08:28Z</time>
      </trkpt>
      <trkpt lat="49.83653" lon="2.50609">
        <ele>87.7</ele>
        <time>2020-10-21T13:08:29Z</time>
      </trkpt>
      <trkpt lat="49.83653" lon="2.50608">
        <ele>87.7</ele>
        <time>2020-10-21T13:08:30Z</time>
      </trkpt>
      <trkpt lat="49.83652" lon="2.50606">
        <ele>87.7</ele>
        <time>2020-10-21T13:08:31Z</time>
      </trkpt>
      <trkpt lat="49.83652" lon="2.50604">
        <ele>87.7</ele>
        <time>2020-10-21T13:08:32Z</time>
      </trkpt>
      <trkpt lat="49.83652" lon="2.506">
        <ele>87.6</ele>
        <time>2020-10-21T13:08:34Z</time>
      </trkpt>
      <trkpt lat="49.83652" lon="2.50599">
        <ele>87.6</ele>
        <time>2020-10-21T13:08:35Z</time>
      </trkpt>
      <trkpt lat="49.83652" lon="2.50597">
        <ele>87.6</ele>
        <time>2020-10-21T13:08:36Z</time>
      </trkpt>
      <trkpt lat="49.83651" lon="2.50595">
        <ele>87.6</ele>
        <time>2020-10-21T13:08:38Z</time>
      </trkpt>
      <trkpt lat="49.83651" lon="2.50593">
        <ele>87.5</ele>
        <time>2020-10-21T13:08:39Z</time>
      </trkpt>
      <trkpt lat="49.83651" lon="2.50592">
        <ele>87.5</ele>
        <time>2020-10-21T13:08:40Z</time>
      </trkpt>
      <trkpt lat="49.83651" lon="2.5059">
        <ele>87.5</ele>
        <time>2020-10-21T13:08:41Z</time>
      </trkpt>
      <trkpt lat="49.8365" lon="2.50588">
        <ele>87.5</ele>
        <time>2020-10-21T13:08:43Z</time>
      </trkpt>
      <trkpt lat="49.8365" lon="2.50586">
        <ele>87.5</ele>
        <time>2020-10-21T13:08:44Z</time>
      </trkpt>
      <trkpt lat="49.8365" lon="2.50584">
        <ele>87.5</ele>
        <time>2020-10-21T13:08:45Z</time>
      </trkpt>
      <trkpt lat="49.83649" lon="2.50583">
        <ele>87.5</ele>
        <time>2020-10-21T13:08:47Z</time>
      </trkpt>
      <trkpt lat="49.83649" lon="2.50581">
        <ele>87.4</ele>
        <time>2020-10-21T13:08:48Z</time>
      </trkpt>
      <trkpt lat="49.83648" lon="2.50577">
        <ele>87.4</ele>
        <time>2020-10-21T13:08:49Z</time>
      </trkpt>
      <trkpt lat="49.83648" lon="2.50576">
        <ele>87.4</ele>
        <time>2020-10-21T13:08:50Z</time>
      </trkpt>
      <trkpt lat="49.83648" lon="2.50575">
        <ele>87.4</ele>
        <time>2020-10-21T13:08:51Z</time>
      </trkpt>
      <trkpt lat="49.83647" lon="2.50572">
        <ele>87.4</ele>
        <time>2020-10-21T13:08:52Z</time>
      </trkpt>
      <trkpt lat="49.83647" lon="2.5057">
        <ele>87.4</ele>
        <time>2020-10-21T13:08:53Z</time>
      </trkpt>
      <trkpt lat="49.83647" lon="2.50569">
        <ele>87.4</ele>
        <time>2020-10-21T13:08:54Z</time>
      </trkpt>
      <trkpt lat="49.83647" lon="2.50567">
        <ele>87.4</ele>
        <time>2020-10-21T13:08:56Z</time>
      </trkpt>
      <trkpt lat="49.83646" lon="2.50566">
        <ele>87.5</ele>
        <time>2020-10-21T13:08:57Z</time>
      </trkpt>
      <trkpt lat="49.83645" lon="2.50564">
        <ele>87.5</ele>
        <time>2020-10-21T13:08:59Z</time>
      </trkpt>
      <trkpt lat="49.83645" lon="2.50563">
        <ele>87.5</ele>
        <time>2020-10-21T13:09:01Z</time>
      </trkpt>
      <trkpt lat="49.83645" lon="2.50562">
        <ele>87.5</ele>
        <time>2020-10-21T13:09:02Z</time>
      </trkpt>
      <trkpt lat="49.83645" lon="2.50561">
        <ele>87.5</ele>
        <time>2020-10-21T13:09:03Z</time>
      </trkpt>
      <trkpt lat="49.83646" lon="2.50559">
        <ele>87.5</ele>
        <time>2020-10-21T13:09:04Z</time>
      </trkpt>
      <trkpt lat="49.83646" lon="2.50558">
        <ele>87.5</ele>
        <time>2020-10-21T13:09:05Z</time>
      </trkpt>
      <trkpt lat="49.83646" lon="2.50555">
        <ele>87.5</ele>
        <time>2020-10-21T13:09:06Z</time>
      </trkpt>
      <trkpt lat="49.83646" lon="2.50553">
        <ele>87.5</ele>
        <time>2020-10-21T13:09:08Z</time>
      </trkpt>
      <trkpt lat="49.83647" lon="2.50549">
        <ele>87.4</ele>
        <time>2020-10-21T13:09:09Z</time>
      </trkpt>
      <trkpt lat="49.83647" lon="2.50548">
        <ele>87.4</ele>
        <time>2020-10-21T13:09:10Z</time>
      </trkpt>
      <trkpt lat="49.83646" lon="2.50545">
        <ele>87.4</ele>
        <time>2020-10-21T13:09:11Z</time>
      </trkpt>
      <trkpt lat="49.83646" lon="2.50543">
        <ele>87.4</ele>
        <time>2020-10-21T13:09:12Z</time>
      </trkpt>
      <trkpt lat="49.83646" lon="2.50538">
        <ele>87.4</ele>
        <time>2020-10-21T13:09:14Z</time>
      </trkpt>
      <trkpt lat="49.83646" lon="2.50537">
        <ele>87.4</ele>
        <time>2020-10-21T13:09:15Z</time>
      </trkpt>
      <trkpt lat="49.83646" lon="2.50535">
        <ele>87.4</ele>
        <time>2020-10-21T13:09:16Z</time>
      </trkpt>
      <trkpt lat="49.83645" lon="2.50532">
        <ele>87.4</ele>
        <time>2020-10-21T13:09:18Z</time>
      </trkpt>
      <trkpt lat="49.83645" lon="2.5053">
        <ele>87.4</ele>
        <time>2020-10-21T13:09:19Z</time>
      </trkpt>
      <trkpt lat="49.83644" lon="2.50528">
        <ele>87.4</ele>
        <time>2020-10-21T13:09:20Z</time>
      </trkpt>
      <trkpt lat="49.83644" lon="2.50526">
        <ele>87.3</ele>
        <time>2020-10-21T13:09:21Z</time>
      </trkpt>
      <trkpt lat="49.83644" lon="2.50524">
        <ele>87.3</ele>
        <time>2020-10-21T13:09:22Z</time>
      </trkpt>
      <trkpt lat="49.83644" lon="2.50522">
        <ele>87.3</ele>
        <time>2020-10-21T13:09:24Z</time>
      </trkpt>
      <trkpt lat="49.83643" lon="2.50519">
        <ele>87.3</ele>
        <time>2020-10-21T13:09:25Z</time>
      </trkpt>
      <trkpt lat="49.83643" lon="2.50518">
        <ele>87.3</ele>
        <time>2020-10-21T13:09:26Z</time>
      </trkpt>
      <trkpt lat="49.83643" lon="2.50516">
        <ele>87.3</ele>
        <time>2020-10-21T13:09:27Z</time>
      </trkpt>
      <trkpt lat="49.83643" lon="2.50515">
        <ele>87.3</ele>
        <time>2020-10-21T13:09:28Z</time>
      </trkpt>
      <trkpt lat="49.83643" lon="2.50513">
        <ele>87.3</ele>
        <time>2020-10-21T13:09:29Z</time>
      </trkpt>
      <trkpt lat="49.83643" lon="2.50511">
        <ele>87.3</ele>
        <time>2020-10-21T13:09:31Z</time>
      </trkpt>
      <trkpt lat="49.83642" lon="2.50509">
        <ele>87.3</ele>
        <time>2020-10-21T13:09:32Z</time>
      </trkpt>
      <trkpt lat="49.83642" lon="2.50507">
        <ele>87.3</ele>
        <time>2020-10-21T13:09:33Z</time>
      </trkpt>
      <trkpt lat="49.83642" lon="2.50504">
        <ele>87.3</ele>
        <time>2020-10-21T13:09:34Z</time>
      </trkpt>
      <trkpt lat="49.83641" lon="2.50503">
        <ele>87.3</ele>
        <time>2020-10-21T13:09:36Z</time>
      </trkpt>
      <trkpt lat="49.83641" lon="2.50501">
        <ele>87.3</ele>
        <time>2020-10-21T13:09:37Z</time>
      </trkpt>
      <trkpt lat="49.83641" lon="2.505">
        <ele>87.3</ele>
        <time>2020-10-21T13:09:38Z</time>
      </trkpt>
      <trkpt lat="49.83641" lon="2.50498">
        <ele>87.3</ele>
        <time>2020-10-21T13:09:39Z</time>
      </trkpt>
      <trkpt lat="49.83641" lon="2.50497">
        <ele>87.4</ele>
        <time>2020-10-21T13:09:40Z</time>
      </trkpt>
      <trkpt lat="49.83641" lon="2.50495">
        <ele>87.4</ele>
        <time>2020-10-21T13:09:41Z</time>
      </trkpt>
      <trkpt lat="49.83641" lon="2.50493">
        <ele>87.4</ele>
        <time>2020-10-21T13:09:42Z</time>
      </trkpt>
      <trkpt lat="49.83641" lon="2.5049">
        <ele>87.4</ele>
        <time>2020-10-21T13:09:43Z</time>
      </trkpt>
      <trkpt lat="49.83641" lon="2.50487">
        <ele>87.4</ele>
        <time>2020-10-21T13:09:44Z</time>
      </trkpt>
      <trkpt lat="49.83641" lon="2.50485">
        <ele>87.4</ele>
        <time>2020-10-21T13:09:46Z</time>
      </trkpt>
      <trkpt lat="49.83641" lon="2.50484">
        <ele>87.4</ele>
        <time>2020-10-21T13:09:47Z</time>
      </trkpt>
      <trkpt lat="49.8364" lon="2.50481">
        <ele>87.4</ele>
        <time>2020-10-21T13:09:48Z</time>
      </trkpt>
      <trkpt lat="49.8364" lon="2.50479">
        <ele>87.4</ele>
        <time>2020-10-21T13:09:49Z</time>
      </trkpt>
      <trkpt lat="49.83639" lon="2.50477">
        <ele>87.4</ele>
        <time>2020-10-21T13:09:50Z</time>
      </trkpt>
      <trkpt lat="49.83639" lon="2.50475">
        <ele>87.5</ele>
        <time>2020-10-21T13:09:51Z</time>
      </trkpt>
      <trkpt lat="49.83638" lon="2.50471">
        <ele>87.5</ele>
        <time>2020-10-21T13:09:53Z</time>
      </trkpt>
      <trkpt lat="49.83637" lon="2.50469">
        <ele>87.5</ele>
        <time>2020-10-21T13:09:55Z</time>
      </trkpt>
      <trkpt lat="49.83636" lon="2.50467">
        <ele>87.5</ele>
        <time>2020-10-21T13:09:56Z</time>
      </trkpt>
      <trkpt lat="49.83636" lon="2.50465">
        <ele>87.4</ele>
        <time>2020-10-21T13:09:57Z</time>
      </trkpt>
      <trkpt lat="49.83635" lon="2.50462">
        <ele>87.4</ele>
        <time>2020-10-21T13:09:58Z</time>
      </trkpt>
      <trkpt lat="49.83635" lon="2.5046">
        <ele>87.4</ele>
        <time>2020-10-21T13:10:00Z</time>
      </trkpt>
      <trkpt lat="49.83634" lon="2.50458">
        <ele>87.4</ele>
        <time>2020-10-21T13:10:01Z</time>
      </trkpt>
      <trkpt lat="49.83634" lon="2.50456">
        <ele>87.4</ele>
        <time>2020-10-21T13:10:02Z</time>
      </trkpt>
      <trkpt lat="49.83633" lon="2.50454">
        <ele>87.4</ele>
        <time>2020-10-21T13:10:03Z</time>
      </trkpt>
      <trkpt lat="49.83633" lon="2.50452">
        <ele>87.4</ele>
        <time>2020-10-21T13:10:04Z</time>
      </trkpt>
      <trkpt lat="49.83633" lon="2.50451">
        <ele>87.4</ele>
        <time>2020-10-21T13:10:05Z</time>
      </trkpt>
      <trkpt lat="49.83632" lon="2.50449">
        <ele>87.4</ele>
        <time>2020-10-21T13:10:06Z</time>
      </trkpt>
      <trkpt lat="49.83632" lon="2.50448">
        <ele>87.3</ele>
        <time>2020-10-21T13:10:08Z</time>
      </trkpt>
      <trkpt lat="49.83631" lon="2.50446">
        <ele>87.3</ele>
        <time>2020-10-21T13:10:09Z</time>
      </trkpt>
      <trkpt lat="49.83631" lon="2.50445">
        <ele>87.3</ele>
        <time>2020-10-21T13:10:10Z</time>
      </trkpt>
      <trkpt lat="49.83631" lon="2.50444">
        <ele>87.3</ele>
        <time>2020-10-21T13:10:11Z</time>
      </trkpt>
      <trkpt lat="49.8363" lon="2.50442">
        <ele>87.3</ele>
        <time>2020-10-21T13:10:12Z</time>
      </trkpt>
      <trkpt lat="49.8363" lon="2.50441">
        <ele>87.3</ele>
        <time>2020-10-21T13:10:13Z</time>
      </trkpt>
      <trkpt lat="49.83629" lon="2.50439">
        <ele>87.3</ele>
        <time>2020-10-21T13:10:14Z</time>
      </trkpt>
      <trkpt lat="49.83629" lon="2.50437">
        <ele>87.3</ele>
        <time>2020-10-21T13:10:15Z</time>
      </trkpt>
      <trkpt lat="49.83629" lon="2.50435">
        <ele>87.2</ele>
        <time>2020-10-21T13:10:17Z</time>
      </trkpt>
      <trkpt lat="49.83629" lon="2.50431">
        <ele>87.2</ele>
        <time>2020-10-21T13:10:18Z</time>
      </trkpt>
      <trkpt lat="49.83629" lon="2.50429">
        <ele>87.2</ele>
        <time>2020-10-21T13:10:20Z</time>
      </trkpt>
      <trkpt lat="49.83629" lon="2.50426">
        <ele>87.2</ele>
        <time>2020-10-21T13:10:21Z</time>
      </trkpt>
      <trkpt lat="49.83629" lon="2.50424">
        <ele>87.2</ele>
        <time>2020-10-21T13:10:22Z</time>
      </trkpt>
      <trkpt lat="49.83628" lon="2.50423">
        <ele>87.2</ele>
        <time>2020-10-21T13:10:23Z</time>
      </trkpt>
      <trkpt lat="49.83628" lon="2.50421">
        <ele>87.2</ele>
        <time>2020-10-21T13:10:24Z</time>
      </trkpt>
      <trkpt lat="49.83628" lon="2.50419">
        <ele>87.1</ele>
        <time>2020-10-21T13:10:25Z</time>
      </trkpt>
      <trkpt lat="49.83629" lon="2.50417">
        <ele>87.1</ele>
        <time>2020-10-21T13:10:26Z</time>
      </trkpt>
      <trkpt lat="49.83629" lon="2.50416">
        <ele>87.1</ele>
        <time>2020-10-21T13:10:28Z</time>
      </trkpt>
      <trkpt lat="49.83629" lon="2.50413">
        <ele>87.1</ele>
        <time>2020-10-21T13:10:29Z</time>
      </trkpt>
      <trkpt lat="49.83629" lon="2.5041">
        <ele>87.1</ele>
        <time>2020-10-21T13:10:30Z</time>
      </trkpt>
      <trkpt lat="49.83629" lon="2.50408">
        <ele>87.1</ele>
        <time>2020-10-21T13:10:31Z</time>
      </trkpt>
      <trkpt lat="49.83629" lon="2.50407">
        <ele>87.1</ele>
        <time>2020-10-21T13:10:32Z</time>
      </trkpt>
      <trkpt lat="49.83629" lon="2.50404">
        <ele>87.1</ele>
        <time>2020-10-21T13:10:33Z</time>
      </trkpt>
      <trkpt lat="49.83629" lon="2.50402">
        <ele>87.1</ele>
        <time>2020-10-21T13:10:34Z</time>
      </trkpt>
      <trkpt lat="49.83629" lon="2.50399">
        <ele>87</ele>
        <time>2020-10-21T13:10:36Z</time>
      </trkpt>
      <trkpt lat="49.83629" lon="2.50397">
        <ele>87</ele>
        <time>2020-10-21T13:10:37Z</time>
      </trkpt>
      <trkpt lat="49.83629" lon="2.50394">
        <ele>87</ele>
        <time>2020-10-21T13:10:38Z</time>
      </trkpt>
      <trkpt lat="49.83629" lon="2.50392">
        <ele>87</ele>
        <time>2020-10-21T13:10:39Z</time>
      </trkpt>
      <trkpt lat="49.83629" lon="2.50391">
        <ele>87</ele>
        <time>2020-10-21T13:10:40Z</time>
      </trkpt>
      <trkpt lat="49.83629" lon="2.50388">
        <ele>86.9</ele>
        <time>2020-10-21T13:10:42Z</time>
      </trkpt>
      <trkpt lat="49.83629" lon="2.50385">
        <ele>86.9</ele>
        <time>2020-10-21T13:10:43Z</time>
      </trkpt>
      <trkpt lat="49.83629" lon="2.50383">
        <ele>86.9</ele>
        <time>2020-10-21T13:10:44Z</time>
      </trkpt>
      <trkpt lat="49.83629" lon="2.50381">
        <ele>86.8</ele>
        <time>2020-10-21T13:10:46Z</time>
      </trkpt>
      <trkpt lat="49.83628" lon="2.50379">
        <ele>86.8</ele>
        <time>2020-10-21T13:10:47Z</time>
      </trkpt>
      <trkpt lat="49.83628" lon="2.50376">
        <ele>86.8</ele>
        <time>2020-10-21T13:10:48Z</time>
      </trkpt>
      <trkpt lat="49.83628" lon="2.50374">
        <ele>86.8</ele>
        <time>2020-10-21T13:10:49Z</time>
      </trkpt>
      <trkpt lat="49.83628" lon="2.50373">
        <ele>86.7</ele>
        <time>2020-10-21T13:10:50Z</time>
      </trkpt>
      <trkpt lat="49.83628" lon="2.50371">
        <ele>86.7</ele>
        <time>2020-10-21T13:10:51Z</time>
      </trkpt>
      <trkpt lat="49.83628" lon="2.50369">
        <ele>86.7</ele>
        <time>2020-10-21T13:10:52Z</time>
      </trkpt>
      <trkpt lat="49.83628" lon="2.50366">
        <ele>86.7</ele>
        <time>2020-10-21T13:10:53Z</time>
      </trkpt>
      <trkpt lat="49.83627" lon="2.50363">
        <ele>86.7</ele>
        <time>2020-10-21T13:10:55Z</time>
      </trkpt>
      <trkpt lat="49.83627" lon="2.50361">
        <ele>86.6</ele>
        <time>2020-10-21T13:10:56Z</time>
      </trkpt>
      <trkpt lat="49.83627" lon="2.50359">
        <ele>86.6</ele>
        <time>2020-10-21T13:10:57Z</time>
      </trkpt>
      <trkpt lat="49.83627" lon="2.50358">
        <ele>86.6</ele>
        <time>2020-10-21T13:10:59Z</time>
      </trkpt>
      <trkpt lat="49.83627" lon="2.50356">
        <ele>86.6</ele>
        <time>2020-10-21T13:11:00Z</time>
      </trkpt>
      <trkpt lat="49.83627" lon="2.50354">
        <ele>86.6</ele>
        <time>2020-10-21T13:11:01Z</time>
      </trkpt>
      <trkpt lat="49.83626" lon="2.50353">
        <ele>86.6</ele>
        <time>2020-10-21T13:11:03Z</time>
      </trkpt>
      <trkpt lat="49.83626" lon="2.50351">
        <ele>86.6</ele>
        <time>2020-10-21T13:11:04Z</time>
      </trkpt>
      <trkpt lat="49.83626" lon="2.5035">
        <ele>86.6</ele>
        <time>2020-10-21T13:11:06Z</time>
      </trkpt>
      <trkpt lat="49.83626" lon="2.50349">
        <ele>86.6</ele>
        <time>2020-10-21T13:11:07Z</time>
      </trkpt>
      <trkpt lat="49.83625" lon="2.50348">
        <ele>86.5</ele>
        <time>2020-10-21T13:11:08Z</time>
      </trkpt>
      <trkpt lat="49.83625" lon="2.50347">
        <ele>86.5</ele>
        <time>2020-10-21T13:11:09Z</time>
      </trkpt>
      <trkpt lat="49.83624" lon="2.50345">
        <ele>86.5</ele>
        <time>2020-10-21T13:11:10Z</time>
      </trkpt>
      <trkpt lat="49.83623" lon="2.50344">
        <ele>86.5</ele>
        <time>2020-10-21T13:11:11Z</time>
      </trkpt>
      <trkpt lat="49.83623" lon="2.50343">
        <ele>86.5</ele>
        <time>2020-10-21T13:11:13Z</time>
      </trkpt>
      <trkpt lat="49.83622" lon="2.50341">
        <ele>86.5</ele>
        <time>2020-10-21T13:11:14Z</time>
      </trkpt>
      <trkpt lat="49.83621" lon="2.5034">
        <ele>86.5</ele>
        <time>2020-10-21T13:11:15Z</time>
      </trkpt>
      <trkpt lat="49.83619" lon="2.50338">
        <ele>86.4</ele>
        <time>2020-10-21T13:11:16Z</time>
      </trkpt>
      <trkpt lat="49.83618" lon="2.50337">
        <ele>86.4</ele>
        <time>2020-10-21T13:11:17Z</time>
      </trkpt>
      <trkpt lat="49.83617" lon="2.50337">
        <ele>86.4</ele>
        <time>2020-10-21T13:11:18Z</time>
      </trkpt>
      <trkpt lat="49.83616" lon="2.50336">
        <ele>86.4</ele>
        <time>2020-10-21T13:11:19Z</time>
      </trkpt>
      <trkpt lat="49.83615" lon="2.50334">
        <ele>86.3</ele>
        <time>2020-10-21T13:11:21Z</time>
      </trkpt>
      <trkpt lat="49.83614" lon="2.50332">
        <ele>86.3</ele>
        <time>2020-10-21T13:11:22Z</time>
      </trkpt>
      <trkpt lat="49.83613" lon="2.5033">
        <ele>86.3</ele>
        <time>2020-10-21T13:11:23Z</time>
      </trkpt>
      <trkpt lat="49.83612" lon="2.50329">
        <ele>86.3</ele>
        <time>2020-10-21T13:11:24Z</time>
      </trkpt>
      <trkpt lat="49.83611" lon="2.50327">
        <ele>86.2</ele>
        <time>2020-10-21T13:11:25Z</time>
      </trkpt>
      <trkpt lat="49.8361" lon="2.50325">
        <ele>86.2</ele>
        <time>2020-10-21T13:11:26Z</time>
      </trkpt>
      <trkpt lat="49.83609" lon="2.50324">
        <ele>86.1</ele>
        <time>2020-10-21T13:11:27Z</time>
      </trkpt>
      <trkpt lat="49.83609" lon="2.50322">
        <ele>86.1</ele>
        <time>2020-10-21T13:11:28Z</time>
      </trkpt>
      <trkpt lat="49.83608" lon="2.50321">
        <ele>86.1</ele>
        <time>2020-10-21T13:11:30Z</time>
      </trkpt>
      <trkpt lat="49.83607" lon="2.50319">
        <ele>86</ele>
        <time>2020-10-21T13:11:31Z</time>
      </trkpt>
      <trkpt lat="49.83606" lon="2.50317">
        <ele>86</ele>
        <time>2020-10-21T13:11:32Z</time>
      </trkpt>
      <trkpt lat="49.83605" lon="2.50316">
        <ele>86</ele>
        <time>2020-10-21T13:11:33Z</time>
      </trkpt>
      <trkpt lat="49.83604" lon="2.50314">
        <ele>85.9</ele>
        <time>2020-10-21T13:11:34Z</time>
      </trkpt>
      <trkpt lat="49.83603" lon="2.50312">
        <ele>85.9</ele>
        <time>2020-10-21T13:11:35Z</time>
      </trkpt>
      <trkpt lat="49.83602" lon="2.50311">
        <ele>85.9</ele>
        <time>2020-10-21T13:11:36Z</time>
      </trkpt>
      <trkpt lat="49.83601" lon="2.50311">
        <ele>85.9</ele>
        <time>2020-10-21T13:11:38Z</time>
      </trkpt>
      <trkpt lat="49.83599" lon="2.50309">
        <ele>85.8</ele>
        <time>2020-10-21T13:11:39Z</time>
      </trkpt>
      <trkpt lat="49.83599" lon="2.50308">
        <ele>85.8</ele>
        <time>2020-10-21T13:11:40Z</time>
      </trkpt>
      <trkpt lat="49.83598" lon="2.50307">
        <ele>85.8</ele>
        <time>2020-10-21T13:11:41Z</time>
      </trkpt>
      <trkpt lat="49.83597" lon="2.50306">
        <ele>85.7</ele>
        <time>2020-10-21T13:11:43Z</time>
      </trkpt>
      <trkpt lat="49.83596" lon="2.50304">
        <ele>85.7</ele>
        <time>2020-10-21T13:11:44Z</time>
      </trkpt>
      <trkpt lat="49.83596" lon="2.50303">
        <ele>85.7</ele>
        <time>2020-10-21T13:11:45Z</time>
      </trkpt>
      <trkpt lat="49.83595" lon="2.50302">
        <ele>85.7</ele>
        <time>2020-10-21T13:11:46Z</time>
      </trkpt>
      <trkpt lat="49.83594" lon="2.503">
        <ele>85.6</ele>
        <time>2020-10-21T13:11:47Z</time>
      </trkpt>
      <trkpt lat="49.83594" lon="2.50299">
        <ele>85.6</ele>
        <time>2020-10-21T13:11:48Z</time>
      </trkpt>
      <trkpt lat="49.83593" lon="2.50297">
        <ele>85.6</ele>
        <time>2020-10-21T13:11:49Z</time>
      </trkpt>
      <trkpt lat="49.83592" lon="2.50296">
        <ele>85.5</ele>
        <time>2020-10-21T13:11:50Z</time>
      </trkpt>
      <trkpt lat="49.83592" lon="2.50294">
        <ele>85.5</ele>
        <time>2020-10-21T13:11:52Z</time>
      </trkpt>
      <trkpt lat="49.8359" lon="2.50292">
        <ele>85.4</ele>
        <time>2020-10-21T13:11:53Z</time>
      </trkpt>
      <trkpt lat="49.8359" lon="2.50291">
        <ele>85.4</ele>
        <time>2020-10-21T13:11:54Z</time>
      </trkpt>
      <trkpt lat="49.83589" lon="2.5029">
        <ele>85.3</ele>
        <time>2020-10-21T13:11:55Z</time>
      </trkpt>
      <trkpt lat="49.83589" lon="2.50289">
        <ele>85.3</ele>
        <time>2020-10-21T13:11:56Z</time>
      </trkpt>
      <trkpt lat="49.83588" lon="2.50287">
        <ele>85.3</ele>
        <time>2020-10-21T13:11:57Z</time>
      </trkpt>
      <trkpt lat="49.83587" lon="2.50286">
        <ele>85.2</ele>
        <time>2020-10-21T13:11:58Z</time>
      </trkpt>
      <trkpt lat="49.83585" lon="2.50284">
        <ele>85.1</ele>
        <time>2020-10-21T13:11:59Z</time>
      </trkpt>
      <trkpt lat="49.83585" lon="2.50283">
        <ele>85.1</ele>
        <time>2020-10-21T13:12:00Z</time>
      </trkpt>
      <trkpt lat="49.83584" lon="2.50282">
        <ele>85.1</ele>
        <time>2020-10-21T13:12:01Z</time>
      </trkpt>
      <trkpt lat="49.83583" lon="2.5028">
        <ele>85</ele>
        <time>2020-10-21T13:12:03Z</time>
      </trkpt>
      <trkpt lat="49.83582" lon="2.50278">
        <ele>84.9</ele>
        <time>2020-10-21T13:12:04Z</time>
      </trkpt>
      <trkpt lat="49.83581" lon="2.50278">
        <ele>84.9</ele>
        <time>2020-10-21T13:12:05Z</time>
      </trkpt>
      <trkpt lat="49.8358" lon="2.50276">
        <ele>84.8</ele>
        <time>2020-10-21T13:12:06Z</time>
      </trkpt>
      <trkpt lat="49.83579" lon="2.50275">
        <ele>84.8</ele>
        <time>2020-10-21T13:12:07Z</time>
      </trkpt>
      <trkpt lat="49.83578" lon="2.50274">
        <ele>84.7</ele>
        <time>2020-10-21T13:12:08Z</time>
      </trkpt>
      <trkpt lat="49.83577" lon="2.50273">
        <ele>84.7</ele>
        <time>2020-10-21T13:12:09Z</time>
      </trkpt>
      <trkpt lat="49.83576" lon="2.50272">
        <ele>84.6</ele>
        <time>2020-10-21T13:12:10Z</time>
      </trkpt>
      <trkpt lat="49.83575" lon="2.50271">
        <ele>84.5</ele>
        <time>2020-10-21T13:12:11Z</time>
      </trkpt>
      <trkpt lat="49.83573" lon="2.5027">
        <ele>84.5</ele>
        <time>2020-10-21T13:12:13Z</time>
      </trkpt>
      <trkpt lat="49.83572" lon="2.50268">
        <ele>84.4</ele>
        <time>2020-10-21T13:12:14Z</time>
      </trkpt>
      <trkpt lat="49.8357" lon="2.50268">
        <ele>84.4</ele>
        <time>2020-10-21T13:12:15Z</time>
      </trkpt>
      <trkpt lat="49.83569" lon="2.50267">
        <ele>84.3</ele>
        <time>2020-10-21T13:12:16Z</time>
      </trkpt>
      <trkpt lat="49.83568" lon="2.50266">
        <ele>84.2</ele>
        <time>2020-10-21T13:12:17Z</time>
      </trkpt>
      <trkpt lat="49.83567" lon="2.50266">
        <ele>84.2</ele>
        <time>2020-10-21T13:12:18Z</time>
      </trkpt>
      <trkpt lat="49.83565" lon="2.50265">
        <ele>84.1</ele>
        <time>2020-10-21T13:12:19Z</time>
      </trkpt>
      <trkpt lat="49.83564" lon="2.50264">
        <ele>84.1</ele>
        <time>2020-10-21T13:12:20Z</time>
      </trkpt>
      <trkpt lat="49.83562" lon="2.50264">
        <ele>84</ele>
        <time>2020-10-21T13:12:22Z</time>
      </trkpt>
      <trkpt lat="49.83561" lon="2.50263">
        <ele>84</ele>
        <time>2020-10-21T13:12:23Z</time>
      </trkpt>
      <trkpt lat="49.83559" lon="2.50262">
        <ele>83.9</ele>
        <time>2020-10-21T13:12:24Z</time>
      </trkpt>
      <trkpt lat="49.83558" lon="2.50261">
        <ele>83.9</ele>
        <time>2020-10-21T13:12:25Z</time>
      </trkpt>
      <trkpt lat="49.83556" lon="2.50259">
        <ele>83.8</ele>
        <time>2020-10-21T13:12:26Z</time>
      </trkpt>
      <trkpt lat="49.83556" lon="2.50258">
        <ele>83.8</ele>
        <time>2020-10-21T13:12:28Z</time>
      </trkpt>
      <trkpt lat="49.83555" lon="2.50258">
        <ele>83.8</ele>
        <time>2020-10-21T13:12:29Z</time>
      </trkpt>
      <trkpt lat="49.83554" lon="2.50257">
        <ele>83.8</ele>
        <time>2020-10-21T13:12:30Z</time>
      </trkpt>
      <trkpt lat="49.83552" lon="2.50256">
        <ele>83.8</ele>
        <time>2020-10-21T13:12:31Z</time>
      </trkpt>
      <trkpt lat="49.83552" lon="2.50255">
        <ele>83.8</ele>
        <time>2020-10-21T13:12:32Z</time>
      </trkpt>
      <trkpt lat="49.83551" lon="2.50254">
        <ele>83.8</ele>
        <time>2020-10-21T13:12:33Z</time>
      </trkpt>
      <trkpt lat="49.8355" lon="2.50254">
        <ele>83.7</ele>
        <time>2020-10-21T13:12:34Z</time>
      </trkpt>
      <trkpt lat="49.83549" lon="2.50253">
        <ele>83.7</ele>
        <time>2020-10-21T13:12:35Z</time>
      </trkpt>
      <trkpt lat="49.83548" lon="2.50252">
        <ele>83.7</ele>
        <time>2020-10-21T13:12:37Z</time>
      </trkpt>
      <trkpt lat="49.83546" lon="2.50251">
        <ele>83.7</ele>
        <time>2020-10-21T13:12:38Z</time>
      </trkpt>
      <trkpt lat="49.83545" lon="2.5025">
        <ele>83.7</ele>
        <time>2020-10-21T13:12:39Z</time>
      </trkpt>
      <trkpt lat="49.83544" lon="2.50249">
        <ele>83.7</ele>
        <time>2020-10-21T13:12:40Z</time>
      </trkpt>
      <trkpt lat="49.83543" lon="2.50248">
        <ele>83.6</ele>
        <time>2020-10-21T13:12:41Z</time>
      </trkpt>
      <trkpt lat="49.83542" lon="2.50247">
        <ele>83.6</ele>
        <time>2020-10-21T13:12:42Z</time>
      </trkpt>
      <trkpt lat="49.83541" lon="2.50246">
        <ele>83.6</ele>
        <time>2020-10-21T13:12:43Z</time>
      </trkpt>
      <trkpt lat="49.8354" lon="2.50245">
        <ele>83.6</ele>
        <time>2020-10-21T13:12:45Z</time>
      </trkpt>
      <trkpt lat="49.83539" lon="2.50244">
        <ele>83.6</ele>
        <time>2020-10-21T13:12:46Z</time>
      </trkpt>
      <trkpt lat="49.83538" lon="2.50243">
        <ele>83.6</ele>
        <time>2020-10-21T13:12:47Z</time>
      </trkpt>
      <trkpt lat="49.83537" lon="2.50242">
        <ele>83.6</ele>
        <time>2020-10-21T13:12:48Z</time>
      </trkpt>
      <trkpt lat="49.83538" lon="2.5024">
        <ele>83.4</ele>
        <time>2020-10-21T13:12:50Z</time>
      </trkpt>
      <trkpt lat="49.83538" lon="2.50238">
        <ele>83.4</ele>
        <time>2020-10-21T13:12:51Z</time>
      </trkpt>
      <trkpt lat="49.83538" lon="2.50237">
        <ele>83.4</ele>
        <time>2020-10-21T13:12:52Z</time>
      </trkpt>
      <trkpt lat="49.83538" lon="2.50235">
        <ele>83.4</ele>
        <time>2020-10-21T13:12:53Z</time>
      </trkpt>
      <trkpt lat="49.83538" lon="2.50233">
        <ele>83.4</ele>
        <time>2020-10-21T13:12:55Z</time>
      </trkpt>
      <trkpt lat="49.83539" lon="2.50232">
        <ele>83.4</ele>
        <time>2020-10-21T13:12:56Z</time>
      </trkpt>
      <trkpt lat="49.83539" lon="2.5023">
        <ele>83.4</ele>
        <time>2020-10-21T13:12:57Z</time>
      </trkpt>
      <trkpt lat="49.8354" lon="2.50228">
        <ele>83.4</ele>
        <time>2020-10-21T13:12:58Z</time>
      </trkpt>
      <trkpt lat="49.8354" lon="2.50227">
        <ele>83.4</ele>
        <time>2020-10-21T13:12:59Z</time>
      </trkpt>
      <trkpt lat="49.83542" lon="2.50226">
        <ele>83.3</ele>
        <time>2020-10-21T13:13:01Z</time>
      </trkpt>
      <trkpt lat="49.83543" lon="2.50225">
        <ele>83.3</ele>
        <time>2020-10-21T13:13:02Z</time>
      </trkpt>
      <trkpt lat="49.83545" lon="2.50223">
        <ele>83.3</ele>
        <time>2020-10-21T13:13:04Z</time>
      </trkpt>
      <trkpt lat="49.83545" lon="2.50222">
        <ele>83.3</ele>
        <time>2020-10-21T13:13:05Z</time>
      </trkpt>
      <trkpt lat="49.83546" lon="2.50219">
        <ele>83.3</ele>
        <time>2020-10-21T13:13:06Z</time>
      </trkpt>
      <trkpt lat="49.83547" lon="2.50218">
        <ele>83.3</ele>
        <time>2020-10-21T13:13:08Z</time>
      </trkpt>
      <trkpt lat="49.83548" lon="2.50217">
        <ele>83.3</ele>
        <time>2020-10-21T13:13:09Z</time>
      </trkpt>
      <trkpt lat="49.83548" lon="2.50216">
        <ele>83.3</ele>
        <time>2020-10-21T13:13:10Z</time>
      </trkpt>
      <trkpt lat="49.83549" lon="2.50215">
        <ele>83.4</ele>
        <time>2020-10-21T13:13:11Z</time>
      </trkpt>
      <trkpt lat="49.8355" lon="2.50213">
        <ele>83.4</ele>
        <time>2020-10-21T13:13:12Z</time>
      </trkpt>
      <trkpt lat="49.83551" lon="2.50212">
        <ele>83.4</ele>
        <time>2020-10-21T13:13:13Z</time>
      </trkpt>
      <trkpt lat="49.83551" lon="2.50211">
        <ele>83.4</ele>
        <time>2020-10-21T13:13:14Z</time>
      </trkpt>
      <trkpt lat="49.83552" lon="2.5021">
        <ele>83.4</ele>
        <time>2020-10-21T13:13:16Z</time>
      </trkpt>
      <trkpt lat="49.83553" lon="2.50209">
        <ele>83.4</ele>
        <time>2020-10-21T13:13:17Z</time>
      </trkpt>
      <trkpt lat="49.83554" lon="2.50207">
        <ele>83.4</ele>
        <time>2020-10-21T13:13:18Z</time>
      </trkpt>
      <trkpt lat="49.83555" lon="2.50206">
        <ele>83.4</ele>
        <time>2020-10-21T13:13:19Z</time>
      </trkpt>
      <trkpt lat="49.83556" lon="2.50205">
        <ele>83.4</ele>
        <time>2020-10-21T13:13:20Z</time>
      </trkpt>
      <trkpt lat="49.83557" lon="2.50204">
        <ele>83.4</ele>
        <time>2020-10-21T13:13:21Z</time>
      </trkpt>
      <trkpt lat="49.83558" lon="2.50203">
        <ele>83.4</ele>
        <time>2020-10-21T13:13:22Z</time>
      </trkpt>
      <trkpt lat="49.83559" lon="2.50202">
        <ele>83.4</ele>
        <time>2020-10-21T13:13:23Z</time>
      </trkpt>
      <trkpt lat="49.8356" lon="2.502">
        <ele>83.4</ele>
        <time>2020-10-21T13:13:25Z</time>
      </trkpt>
      <trkpt lat="49.83561" lon="2.50199">
        <ele>83.4</ele>
        <time>2020-10-21T13:13:26Z</time>
      </trkpt>
      <trkpt lat="49.83562" lon="2.50198">
        <ele>83.4</ele>
        <time>2020-10-21T13:13:27Z</time>
      </trkpt>
      <trkpt lat="49.83563" lon="2.50196">
        <ele>83.5</ele>
        <time>2020-10-21T13:13:28Z</time>
      </trkpt>
      <trkpt lat="49.83564" lon="2.50195">
        <ele>83.5</ele>
        <time>2020-10-21T13:13:29Z</time>
      </trkpt>
      <trkpt lat="49.83565" lon="2.50193">
        <ele>83.5</ele>
        <time>2020-10-21T13:13:30Z</time>
      </trkpt>
      <trkpt lat="49.83566" lon="2.50192">
        <ele>83.5</ele>
        <time>2020-10-21T13:13:31Z</time>
      </trkpt>
      <trkpt lat="49.83567" lon="2.50191">
        <ele>83.5</ele>
        <time>2020-10-21T13:13:32Z</time>
      </trkpt>
      <trkpt lat="49.83568" lon="2.50189">
        <ele>83.6</ele>
        <time>2020-10-21T13:13:34Z</time>
      </trkpt>
      <trkpt lat="49.83569" lon="2.50187">
        <ele>83.6</ele>
        <time>2020-10-21T13:13:35Z</time>
      </trkpt>
      <trkpt lat="49.8357" lon="2.50186">
        <ele>83.6</ele>
        <time>2020-10-21T13:13:36Z</time>
      </trkpt>
      <trkpt lat="49.83571" lon="2.50184">
        <ele>83.7</ele>
        <time>2020-10-21T13:13:37Z</time>
      </trkpt>
      <trkpt lat="49.83572" lon="2.50183">
        <ele>83.7</ele>
        <time>2020-10-21T13:13:38Z</time>
      </trkpt>
      <trkpt lat="49.83573" lon="2.50181">
        <ele>83.7</ele>
        <time>2020-10-21T13:13:39Z</time>
      </trkpt>
      <trkpt lat="49.83573" lon="2.5018">
        <ele>83.7</ele>
        <time>2020-10-21T13:13:40Z</time>
      </trkpt>
      <trkpt lat="49.83575" lon="2.50179">
        <ele>83.8</ele>
        <time>2020-10-21T13:13:42Z</time>
      </trkpt>
      <trkpt lat="49.83575" lon="2.50177">
        <ele>83.8</ele>
        <time>2020-10-21T13:13:43Z</time>
      </trkpt>
      <trkpt lat="49.83577" lon="2.50176">
        <ele>83.8</ele>
        <time>2020-10-21T13:13:44Z</time>
      </trkpt>
      <trkpt lat="49.83577" lon="2.50175">
        <ele>83.8</ele>
        <time>2020-10-21T13:13:45Z</time>
      </trkpt>
      <trkpt lat="49.83579" lon="2.50173">
        <ele>83.9</ele>
        <time>2020-10-21T13:13:46Z</time>
      </trkpt>
      <trkpt lat="49.8358" lon="2.50172">
        <ele>83.9</ele>
        <time>2020-10-21T13:13:47Z</time>
      </trkpt>
      <trkpt lat="49.83581" lon="2.50171">
        <ele>83.9</ele>
        <time>2020-10-21T13:13:48Z</time>
      </trkpt>
      <trkpt lat="49.83582" lon="2.50169">
        <ele>84</ele>
        <time>2020-10-21T13:13:50Z</time>
      </trkpt>
      <trkpt lat="49.83583" lon="2.50167">
        <ele>84</ele>
        <time>2020-10-21T13:13:51Z</time>
      </trkpt>
      <trkpt lat="49.83584" lon="2.50167">
        <ele>84</ele>
        <time>2020-10-21T13:13:52Z</time>
      </trkpt>
      <trkpt lat="49.83585" lon="2.50165">
        <ele>84</ele>
        <time>2020-10-21T13:13:53Z</time>
      </trkpt>
      <trkpt lat="49.83586" lon="2.50164">
        <ele>84.1</ele>
        <time>2020-10-21T13:13:54Z</time>
      </trkpt>
      <trkpt lat="49.83587" lon="2.50161">
        <ele>84.2</ele>
        <time>2020-10-21T13:13:56Z</time>
      </trkpt>
      <trkpt lat="49.83588" lon="2.5016">
        <ele>84.2</ele>
        <time>2020-10-21T13:13:57Z</time>
      </trkpt>
      <trkpt lat="49.83589" lon="2.50158">
        <ele>84.2</ele>
        <time>2020-10-21T13:13:58Z</time>
      </trkpt>
      <trkpt lat="49.8359" lon="2.50157">
        <ele>84.3</ele>
        <time>2020-10-21T13:14:00Z</time>
      </trkpt>
      <trkpt lat="49.83592" lon="2.50156">
        <ele>84.4</ele>
        <time>2020-10-21T13:14:01Z</time>
      </trkpt>
      <trkpt lat="49.83592" lon="2.50155">
        <ele>84.4</ele>
        <time>2020-10-21T13:14:02Z</time>
      </trkpt>
      <trkpt lat="49.83594" lon="2.50153">
        <ele>84.5</ele>
        <time>2020-10-21T13:14:04Z</time>
      </trkpt>
      <trkpt lat="49.83595" lon="2.50151">
        <ele>84.6</ele>
        <time>2020-10-21T13:14:05Z</time>
      </trkpt>
      <trkpt lat="49.83596" lon="2.5015">
        <ele>84.6</ele>
        <time>2020-10-21T13:14:06Z</time>
      </trkpt>
      <trkpt lat="49.83597" lon="2.50148">
        <ele>84.7</ele>
        <time>2020-10-21T13:14:08Z</time>
      </trkpt>
      <trkpt lat="49.83598" lon="2.50147">
        <ele>84.7</ele>
        <time>2020-10-21T13:14:09Z</time>
      </trkpt>
      <trkpt lat="49.83599" lon="2.50146">
        <ele>84.8</ele>
        <time>2020-10-21T13:14:10Z</time>
      </trkpt>
      <trkpt lat="49.83599" lon="2.50145">
        <ele>84.8</ele>
        <time>2020-10-21T13:14:11Z</time>
      </trkpt>
      <trkpt lat="49.836" lon="2.50144">
        <ele>84.8</ele>
        <time>2020-10-21T13:14:12Z</time>
      </trkpt>
      <trkpt lat="49.83601" lon="2.50142">
        <ele>84.9</ele>
        <time>2020-10-21T13:14:13Z</time>
      </trkpt>
      <trkpt lat="49.83602" lon="2.50141">
        <ele>84.9</ele>
        <time>2020-10-21T13:14:15Z</time>
      </trkpt>
      <trkpt lat="49.83604" lon="2.5014">
        <ele>85</ele>
        <time>2020-10-21T13:14:16Z</time>
      </trkpt>
      <trkpt lat="49.83604" lon="2.50138">
        <ele>85</ele>
        <time>2020-10-21T13:14:17Z</time>
      </trkpt>
      <trkpt lat="49.83605" lon="2.50137">
        <ele>85.1</ele>
        <time>2020-10-21T13:14:18Z</time>
      </trkpt>
      <trkpt lat="49.83606" lon="2.50135">
        <ele>85.1</ele>
        <time>2020-10-21T13:14:19Z</time>
      </trkpt>
      <trkpt lat="49.83607" lon="2.50134">
        <ele>85.2</ele>
        <time>2020-10-21T13:14:20Z</time>
      </trkpt>
      <trkpt lat="49.83608" lon="2.50133">
        <ele>85.2</ele>
        <time>2020-10-21T13:14:21Z</time>
      </trkpt>
      <trkpt lat="49.83609" lon="2.50132">
        <ele>85.2</ele>
        <time>2020-10-21T13:14:23Z</time>
      </trkpt>
      <trkpt lat="49.8361" lon="2.5013">
        <ele>85.3</ele>
        <time>2020-10-21T13:14:24Z</time>
      </trkpt>
      <trkpt lat="49.83611" lon="2.50129">
        <ele>85.3</ele>
        <time>2020-10-21T13:14:25Z</time>
      </trkpt>
      <trkpt lat="49.83612" lon="2.50128">
        <ele>85.4</ele>
        <time>2020-10-21T13:14:26Z</time>
      </trkpt>
      <trkpt lat="49.83614" lon="2.50127">
        <ele>85.4</ele>
        <time>2020-10-21T13:14:28Z</time>
      </trkpt>
      <trkpt lat="49.83614" lon="2.50128">
        <ele>85.4</ele>
        <time>2020-10-21T13:14:29Z</time>
      </trkpt>
      <trkpt lat="49.83614" lon="2.50129">
        <ele>85.5</ele>
        <time>2020-10-21T13:14:30Z</time>
      </trkpt>
      <trkpt lat="49.83614" lon="2.50131">
        <ele>85.5</ele>
        <time>2020-10-21T13:14:32Z</time>
      </trkpt>
      <trkpt lat="49.83614" lon="2.50132">
        <ele>85.5</ele>
        <time>2020-10-21T13:14:34Z</time>
      </trkpt>
      <trkpt lat="49.83614" lon="2.50132">
        <ele>85.5</ele>
        <time>2020-10-21T13:14:36Z</time>
      </trkpt>
      <trkpt lat="49.83614" lon="2.50132">
        <ele>85.5</ele>
        <time>2020-10-21T13:14:37Z</time>
      </trkpt>
      <trkpt lat="49.83614" lon="2.50132">
        <ele>85.5</ele>
        <time>2020-10-21T13:14:38Z</time>
      </trkpt>
      <trkpt lat="49.83614" lon="2.50132">
        <ele>85.5</ele>
        <time>2020-10-21T13:14:39Z</time>
      </trkpt>
      <trkpt lat="49.83614" lon="2.50132">
        <ele>85.5</ele>
        <time>2020-10-21T13:14:41Z</time>
      </trkpt>
      <trkpt lat="49.83614" lon="2.50132">
        <ele>85.5</ele>
        <time>2020-10-21T13:14:42Z</time>
      </trkpt>
      <trkpt lat="49.83614" lon="2.50132">
        <ele>85.5</ele>
        <time>2020-10-21T13:14:44Z</time>
      </trkpt>
      <trkpt lat="49.83614" lon="2.50132">
        <ele>85.5</ele>
        <time>2020-10-21T13:14:45Z</time>
      </trkpt>
      <trkpt lat="49.83614" lon="2.50132">
        <ele>85.5</ele>
        <time>2020-10-21T13:14:46Z</time>
      </trkpt>
      <trkpt lat="49.83614" lon="2.50132">
        <ele>85.6</ele>
        <time>2020-10-21T13:14:48Z</time>
      </trkpt>
      <trkpt lat="49.83614" lon="2.50132">
        <ele>85.6</ele>
        <time>2020-10-21T13:14:49Z</time>
      </trkpt>
      <trkpt lat="49.83614" lon="2.5013">
        <ele>85.6</ele>
        <time>2020-10-21T13:14:51Z</time>
      </trkpt>
      <trkpt lat="49.83615" lon="2.50128">
        <ele>85.7</ele>
        <time>2020-10-21T13:14:52Z</time>
      </trkpt>
      <trkpt lat="49.83614" lon="2.50126">
        <ele>85.7</ele>
        <time>2020-10-21T13:14:53Z</time>
      </trkpt>
      <trkpt lat="49.83614" lon="2.50124">
        <ele>85.8</ele>
        <time>2020-10-21T13:14:54Z</time>
      </trkpt>
      <trkpt lat="49.83614" lon="2.50121">
        <ele>85.9</ele>
        <time>2020-10-21T13:14:55Z</time>
      </trkpt>
      <trkpt lat="49.83614" lon="2.50118">
        <ele>85.9</ele>
        <time>2020-10-21T13:14:56Z</time>
      </trkpt>
      <trkpt lat="49.83615" lon="2.50117">
        <ele>86</ele>
        <time>2020-10-21T13:14:58Z</time>
      </trkpt>
      <trkpt lat="49.83616" lon="2.50116">
        <ele>86</ele>
        <time>2020-10-21T13:14:59Z</time>
      </trkpt>
      <trkpt lat="49.83616" lon="2.50114">
        <ele>86.1</ele>
        <time>2020-10-21T13:15:00Z</time>
      </trkpt>
      <trkpt lat="49.83617" lon="2.50113">
        <ele>86.1</ele>
        <time>2020-10-21T13:15:01Z</time>
      </trkpt>
      <trkpt lat="49.83618" lon="2.50112">
        <ele>86.2</ele>
        <time>2020-10-21T13:15:02Z</time>
      </trkpt>
      <trkpt lat="49.83619" lon="2.50112">
        <ele>86.2</ele>
        <time>2020-10-21T13:15:03Z</time>
      </trkpt>
      <trkpt lat="49.8362" lon="2.50112">
        <ele>86.3</ele>
        <time>2020-10-21T13:15:05Z</time>
      </trkpt>
      <trkpt lat="49.83621" lon="2.50111">
        <ele>86.3</ele>
        <time>2020-10-21T13:15:06Z</time>
      </trkpt>
      <trkpt lat="49.83622" lon="2.5011">
        <ele>86.4</ele>
        <time>2020-10-21T13:15:07Z</time>
      </trkpt>
      <trkpt lat="49.83622" lon="2.50109">
        <ele>86.4</ele>
        <time>2020-10-21T13:15:08Z</time>
      </trkpt>
      <trkpt lat="49.83623" lon="2.50107">
        <ele>86.5</ele>
        <time>2020-10-21T13:15:09Z</time>
      </trkpt>
      <trkpt lat="49.83624" lon="2.50106">
        <ele>86.5</ele>
        <time>2020-10-21T13:15:10Z</time>
      </trkpt>
      <trkpt lat="49.83626" lon="2.50104">
        <ele>86.6</ele>
        <time>2020-10-21T13:15:12Z</time>
      </trkpt>
      <trkpt lat="49.83628" lon="2.50103">
        <ele>86.6</ele>
        <time>2020-10-21T13:15:13Z</time>
      </trkpt>
      <trkpt lat="49.83629" lon="2.50102">
        <ele>86.7</ele>
        <time>2020-10-21T13:15:14Z</time>
      </trkpt>
      <trkpt lat="49.83629" lon="2.50101">
        <ele>86.7</ele>
        <time>2020-10-21T13:15:15Z</time>
      </trkpt>
      <trkpt lat="49.83631" lon="2.50099">
        <ele>86.7</ele>
        <time>2020-10-21T13:15:16Z</time>
      </trkpt>
      <trkpt lat="49.83632" lon="2.50097">
        <ele>86.8</ele>
        <time>2020-10-21T13:15:17Z</time>
      </trkpt>
      <trkpt lat="49.83633" lon="2.50095">
        <ele>86.8</ele>
        <time>2020-10-21T13:15:19Z</time>
      </trkpt>
      <trkpt lat="49.83635" lon="2.50093">
        <ele>86.9</ele>
        <time>2020-10-21T13:15:20Z</time>
      </trkpt>
      <trkpt lat="49.83636" lon="2.50091">
        <ele>87</ele>
        <time>2020-10-21T13:15:21Z</time>
      </trkpt>
      <trkpt lat="49.83637" lon="2.5009">
        <ele>87</ele>
        <time>2020-10-21T13:15:22Z</time>
      </trkpt>
      <trkpt lat="49.83638" lon="2.50088">
        <ele>87.1</ele>
        <time>2020-10-21T13:15:23Z</time>
      </trkpt>
      <trkpt lat="49.83639" lon="2.50086">
        <ele>87.2</ele>
        <time>2020-10-21T13:15:24Z</time>
      </trkpt>
      <trkpt lat="49.83641" lon="2.50083">
        <ele>87.2</ele>
        <time>2020-10-21T13:15:25Z</time>
      </trkpt>
      <trkpt lat="49.83642" lon="2.50082">
        <ele>87.3</ele>
        <time>2020-10-21T13:15:27Z</time>
      </trkpt>
      <trkpt lat="49.83642" lon="2.50081">
        <ele>87.3</ele>
        <time>2020-10-21T13:15:28Z</time>
      </trkpt>
      <trkpt lat="49.83643" lon="2.50079">
        <ele>87.4</ele>
        <time>2020-10-21T13:15:29Z</time>
      </trkpt>
      <trkpt lat="49.83644" lon="2.50078">
        <ele>87.4</ele>
        <time>2020-10-21T13:15:30Z</time>
      </trkpt>
      <trkpt lat="49.83645" lon="2.50076">
        <ele>87.5</ele>
        <time>2020-10-21T13:15:31Z</time>
      </trkpt>
      <trkpt lat="49.83645" lon="2.50074">
        <ele>87.5</ele>
        <time>2020-10-21T13:15:32Z</time>
      </trkpt>
      <trkpt lat="49.83646" lon="2.50071">
        <ele>87.6</ele>
        <time>2020-10-21T13:15:33Z</time>
      </trkpt>
      <trkpt lat="49.83647" lon="2.5007">
        <ele>87.6</ele>
        <time>2020-10-21T13:15:35Z</time>
      </trkpt>
      <trkpt lat="49.83648" lon="2.50069">
        <ele>87.7</ele>
        <time>2020-10-21T13:15:36Z</time>
      </trkpt>
      <trkpt lat="49.83649" lon="2.50068">
        <ele>87.7</ele>
        <time>2020-10-21T13:15:37Z</time>
      </trkpt>
      <trkpt lat="49.83649" lon="2.50067">
        <ele>87.7</ele>
        <time>2020-10-21T13:15:38Z</time>
      </trkpt>
      <trkpt lat="49.8365" lon="2.50066">
        <ele>87.8</ele>
        <time>2020-10-21T13:15:39Z</time>
      </trkpt>
      <trkpt lat="49.83651" lon="2.50064">
        <ele>87.8</ele>
        <time>2020-10-21T13:15:40Z</time>
      </trkpt>
      <trkpt lat="49.83653" lon="2.50063">
        <ele>87.9</ele>
        <time>2020-10-21T13:15:41Z</time>
      </trkpt>
      <trkpt lat="49.83654" lon="2.50061">
        <ele>87.9</ele>
        <time>2020-10-21T13:15:42Z</time>
      </trkpt>
      <trkpt lat="49.83655" lon="2.5006">
        <ele>88</ele>
        <time>2020-10-21T13:15:44Z</time>
      </trkpt>
      <trkpt lat="49.83656" lon="2.50059">
        <ele>88</ele>
        <time>2020-10-21T13:15:45Z</time>
      </trkpt>
      <trkpt lat="49.83658" lon="2.50057">
        <ele>88</ele>
        <time>2020-10-21T13:15:46Z</time>
      </trkpt>
      <trkpt lat="49.83658" lon="2.50057">
        <ele>88.1</ele>
        <time>2020-10-21T13:15:47Z</time>
      </trkpt>
      <trkpt lat="49.83659" lon="2.50056">
        <ele>88.1</ele>
        <time>2020-10-21T13:15:48Z</time>
      </trkpt>
      <trkpt lat="49.8366" lon="2.50055">
        <ele>88.1</ele>
        <time>2020-10-21T13:15:49Z</time>
      </trkpt>
      <trkpt lat="49.83661" lon="2.50054">
        <ele>88.2</ele>
        <time>2020-10-21T13:15:51Z</time>
      </trkpt>
      <trkpt lat="49.83663" lon="2.50052">
        <ele>88.3</ele>
        <time>2020-10-21T13:15:52Z</time>
      </trkpt>
      <trkpt lat="49.83664" lon="2.50051">
        <ele>88.3</ele>
        <time>2020-10-21T13:15:53Z</time>
      </trkpt>
      <trkpt lat="49.83664" lon="2.5005">
        <ele>88.3</ele>
        <time>2020-10-21T13:15:54Z</time>
      </trkpt>
      <trkpt lat="49.83665" lon="2.50049">
        <ele>88.3</ele>
        <time>2020-10-21T13:15:55Z</time>
      </trkpt>
      <trkpt lat="49.83667" lon="2.50047">
        <ele>88.4</ele>
        <time>2020-10-21T13:15:56Z</time>
      </trkpt>
      <trkpt lat="49.83668" lon="2.50045">
        <ele>88.5</ele>
        <time>2020-10-21T13:15:57Z</time>
      </trkpt>
      <trkpt lat="49.83669" lon="2.50044">
        <ele>88.6</ele>
        <time>2020-10-21T13:15:59Z</time>
      </trkpt>
      <trkpt lat="49.8367" lon="2.50043">
        <ele>88.6</ele>
        <time>2020-10-21T13:16:00Z</time>
      </trkpt>
      <trkpt lat="49.83671" lon="2.50041">
        <ele>88.7</ele>
        <time>2020-10-21T13:16:01Z</time>
      </trkpt>
      <trkpt lat="49.83672" lon="2.5004">
        <ele>88.7</ele>
        <time>2020-10-21T13:16:02Z</time>
      </trkpt>
      <trkpt lat="49.83673" lon="2.50039">
        <ele>88.8</ele>
        <time>2020-10-21T13:16:03Z</time>
      </trkpt>
      <trkpt lat="49.83674" lon="2.50037">
        <ele>88.9</ele>
        <time>2020-10-21T13:16:04Z</time>
      </trkpt>
      <trkpt lat="49.83675" lon="2.50036">
        <ele>88.9</ele>
        <time>2020-10-21T13:16:06Z</time>
      </trkpt>
      <trkpt lat="49.83677" lon="2.50034">
        <ele>89</ele>
        <time>2020-10-21T13:16:07Z</time>
      </trkpt>
      <trkpt lat="49.83678" lon="2.50032">
        <ele>89.1</ele>
        <time>2020-10-21T13:16:08Z</time>
      </trkpt>
      <trkpt lat="49.83679" lon="2.50031">
        <ele>89.2</ele>
        <time>2020-10-21T13:16:09Z</time>
      </trkpt>
      <trkpt lat="49.8368" lon="2.5003">
        <ele>89.2</ele>
        <time>2020-10-21T13:16:10Z</time>
      </trkpt>
      <trkpt lat="49.83681" lon="2.50028">
        <ele>89.3</ele>
        <time>2020-10-21T13:16:11Z</time>
      </trkpt>
      <trkpt lat="49.83682" lon="2.50028">
        <ele>89.3</ele>
        <time>2020-10-21T13:16:12Z</time>
      </trkpt>
      <trkpt lat="49.83683" lon="2.50026">
        <ele>89.4</ele>
        <time>2020-10-21T13:16:14Z</time>
      </trkpt>
      <trkpt lat="49.83684" lon="2.50025">
        <ele>89.4</ele>
        <time>2020-10-21T13:16:15Z</time>
      </trkpt>
      <trkpt lat="49.83686" lon="2.50023">
        <ele>89.5</ele>
        <time>2020-10-21T13:16:16Z</time>
      </trkpt>
      <trkpt lat="49.83687" lon="2.50023">
        <ele>89.6</ele>
        <time>2020-10-21T13:16:17Z</time>
      </trkpt>
      <trkpt lat="49.83687" lon="2.50022">
        <ele>89.6</ele>
        <time>2020-10-21T13:16:18Z</time>
      </trkpt>
      <trkpt lat="49.83689" lon="2.5002">
        <ele>89.7</ele>
        <time>2020-10-21T13:16:20Z</time>
      </trkpt>
      <trkpt lat="49.8369" lon="2.50019">
        <ele>89.7</ele>
        <time>2020-10-21T13:16:21Z</time>
      </trkpt>
      <trkpt lat="49.83691" lon="2.50018">
        <ele>89.7</ele>
        <time>2020-10-21T13:16:22Z</time>
      </trkpt>
      <trkpt lat="49.83691" lon="2.50018">
        <ele>89.7</ele>
        <time>2020-10-21T13:16:23Z</time>
      </trkpt>
      <trkpt lat="49.83692" lon="2.50017">
        <ele>89.8</ele>
        <time>2020-10-21T13:16:24Z</time>
      </trkpt>
      <trkpt lat="49.83693" lon="2.50016">
        <ele>89.8</ele>
        <time>2020-10-21T13:16:25Z</time>
      </trkpt>
      <trkpt lat="49.83695" lon="2.50014">
        <ele>89.9</ele>
        <time>2020-10-21T13:16:26Z</time>
      </trkpt>
      <trkpt lat="49.83696" lon="2.50013">
        <ele>89.9</ele>
        <time>2020-10-21T13:16:28Z</time>
      </trkpt>
      <trkpt lat="49.83697" lon="2.50013">
        <ele>89.9</ele>
        <time>2020-10-21T13:16:29Z</time>
      </trkpt>
      <trkpt lat="49.83698" lon="2.50012">
        <ele>89.9</ele>
        <time>2020-10-21T13:16:30Z</time>
      </trkpt>
      <trkpt lat="49.83699" lon="2.50011">
        <ele>90</ele>
        <time>2020-10-21T13:16:31Z</time>
      </trkpt>
      <trkpt lat="49.837" lon="2.5001">
        <ele>90</ele>
        <time>2020-10-21T13:16:32Z</time>
      </trkpt>
      <trkpt lat="49.83701" lon="2.50009">
        <ele>90</ele>
        <time>2020-10-21T13:16:33Z</time>
      </trkpt>
      <trkpt lat="49.83702" lon="2.50008">
        <ele>90</ele>
        <time>2020-10-21T13:16:35Z</time>
      </trkpt>
      <trkpt lat="49.83702" lon="2.50006">
        <ele>90</ele>
        <time>2020-10-21T13:16:36Z</time>
      </trkpt>
      <trkpt lat="49.83703" lon="2.50004">
        <ele>90</ele>
        <time>2020-10-21T13:16:37Z</time>
      </trkpt>
      <trkpt lat="49.83704" lon="2.50003">
        <ele>90</ele>
        <time>2020-10-21T13:16:39Z</time>
      </trkpt>
      <trkpt lat="49.83705" lon="2.50002">
        <ele>90.1</ele>
        <time>2020-10-21T13:16:40Z</time>
      </trkpt>
      <trkpt lat="49.83706" lon="2.5">
        <ele>90.1</ele>
        <time>2020-10-21T13:16:41Z</time>
      </trkpt>
      <trkpt lat="49.83707" lon="2.49999">
        <ele>90.1</ele>
        <time>2020-10-21T13:16:42Z</time>
      </trkpt>
      <trkpt lat="49.83708" lon="2.49998">
        <ele>90.1</ele>
        <time>2020-10-21T13:16:43Z</time>
      </trkpt>
      <trkpt lat="49.83709" lon="2.49996">
        <ele>90.1</ele>
        <time>2020-10-21T13:16:44Z</time>
      </trkpt>
      <trkpt lat="49.8371" lon="2.49995">
        <ele>90.1</ele>
        <time>2020-10-21T13:16:45Z</time>
      </trkpt>
      <trkpt lat="49.83711" lon="2.49994">
        <ele>90.2</ele>
        <time>2020-10-21T13:16:47Z</time>
      </trkpt>
      <trkpt lat="49.83712" lon="2.49993">
        <ele>90.2</ele>
        <time>2020-10-21T13:16:48Z</time>
      </trkpt>
      <trkpt lat="49.83713" lon="2.49992">
        <ele>90.2</ele>
        <time>2020-10-21T13:16:49Z</time>
      </trkpt>
      <trkpt lat="49.83713" lon="2.4999">
        <ele>90.2</ele>
        <time>2020-10-21T13:16:50Z</time>
      </trkpt>
      <trkpt lat="49.83715" lon="2.49989">
        <ele>90.3</ele>
        <time>2020-10-21T13:16:51Z</time>
      </trkpt>
      <trkpt lat="49.83715" lon="2.49988">
        <ele>90.3</ele>
        <time>2020-10-21T13:16:52Z</time>
      </trkpt>
      <trkpt lat="49.83716" lon="2.49986">
        <ele>90.3</ele>
        <time>2020-10-21T13:16:53Z</time>
      </trkpt>
      <trkpt lat="49.83717" lon="2.49985">
        <ele>90.4</ele>
        <time>2020-10-21T13:16:54Z</time>
      </trkpt>
      <trkpt lat="49.83718" lon="2.49984">
        <ele>90.4</ele>
        <time>2020-10-21T13:16:56Z</time>
      </trkpt>
      <trkpt lat="49.83719" lon="2.49982">
        <ele>90.4</ele>
        <time>2020-10-21T13:16:57Z</time>
      </trkpt>
      <trkpt lat="49.8372" lon="2.49981">
        <ele>90.4</ele>
        <time>2020-10-21T13:16:58Z</time>
      </trkpt>
      <trkpt lat="49.83722" lon="2.49979">
        <ele>90.5</ele>
        <time>2020-10-21T13:16:59Z</time>
      </trkpt>
      <trkpt lat="49.83723" lon="2.49978">
        <ele>90.5</ele>
        <time>2020-10-21T13:17:00Z</time>
      </trkpt>
      <trkpt lat="49.83724" lon="2.49977">
        <ele>90.5</ele>
        <time>2020-10-21T13:17:01Z</time>
      </trkpt>
      <trkpt lat="49.83724" lon="2.49976">
        <ele>90.5</ele>
        <time>2020-10-21T13:17:02Z</time>
      </trkpt>
      <trkpt lat="49.83725" lon="2.49975">
        <ele>90.6</ele>
        <time>2020-10-21T13:17:04Z</time>
      </trkpt>
      <trkpt lat="49.83725" lon="2.49973">
        <ele>90.6</ele>
        <time>2020-10-21T13:17:05Z</time>
      </trkpt>
      <trkpt lat="49.83726" lon="2.49972">
        <ele>90.6</ele>
        <time>2020-10-21T13:17:06Z</time>
      </trkpt>
      <trkpt lat="49.83728" lon="2.4997">
        <ele>90.6</ele>
        <time>2020-10-21T13:17:07Z</time>
      </trkpt>
      <trkpt lat="49.83728" lon="2.49969">
        <ele>90.7</ele>
        <time>2020-10-21T13:17:08Z</time>
      </trkpt>
      <trkpt lat="49.8373" lon="2.49969">
        <ele>90.7</ele>
        <time>2020-10-21T13:17:09Z</time>
      </trkpt>
      <trkpt lat="49.83731" lon="2.49968">
        <ele>90.7</ele>
        <time>2020-10-21T13:17:10Z</time>
      </trkpt>
      <trkpt lat="49.83732" lon="2.49967">
        <ele>90.7</ele>
        <time>2020-10-21T13:17:12Z</time>
      </trkpt>
      <trkpt lat="49.83733" lon="2.49967">
        <ele>90.7</ele>
        <time>2020-10-21T13:17:13Z</time>
      </trkpt>
      <trkpt lat="49.83734" lon="2.49966">
        <ele>90.8</ele>
        <time>2020-10-21T13:17:14Z</time>
      </trkpt>
      <trkpt lat="49.83735" lon="2.49965">
        <ele>90.8</ele>
        <time>2020-10-21T13:17:15Z</time>
      </trkpt>
      <trkpt lat="49.83737" lon="2.49964">
        <ele>90.8</ele>
        <time>2020-10-21T13:17:16Z</time>
      </trkpt>
      <trkpt lat="49.83738" lon="2.49964">
        <ele>90.8</ele>
        <time>2020-10-21T13:17:17Z</time>
      </trkpt>
      <trkpt lat="49.83739" lon="2.49964">
        <ele>90.9</ele>
        <time>2020-10-21T13:17:18Z</time>
      </trkpt>
      <trkpt lat="49.8374" lon="2.49963">
        <ele>90.9</ele>
        <time>2020-10-21T13:17:20Z</time>
      </trkpt>
      <trkpt lat="49.83741" lon="2.49962">
        <ele>90.9</ele>
        <time>2020-10-21T13:17:21Z</time>
      </trkpt>
      <trkpt lat="49.83742" lon="2.4996">
        <ele>90.9</ele>
        <time>2020-10-21T13:17:22Z</time>
      </trkpt>
      <trkpt lat="49.83744" lon="2.49958">
        <ele>91</ele>
        <time>2020-10-21T13:17:23Z</time>
      </trkpt>
      <trkpt lat="49.83745" lon="2.49958">
        <ele>91</ele>
        <time>2020-10-21T13:17:24Z</time>
      </trkpt>
      <trkpt lat="49.83746" lon="2.49957">
        <ele>91</ele>
        <time>2020-10-21T13:17:25Z</time>
      </trkpt>
      <trkpt lat="49.83747" lon="2.49955">
        <ele>91.1</ele>
        <time>2020-10-21T13:17:26Z</time>
      </trkpt>
      <trkpt lat="49.83748" lon="2.49954">
        <ele>91.1</ele>
        <time>2020-10-21T13:17:27Z</time>
      </trkpt>
      <trkpt lat="49.8375" lon="2.49952">
        <ele>91.2</ele>
        <time>2020-10-21T13:17:28Z</time>
      </trkpt>
      <trkpt lat="49.8375" lon="2.49951">
        <ele>91.2</ele>
        <time>2020-10-21T13:17:30Z</time>
      </trkpt>
      <trkpt lat="49.83751" lon="2.49951">
        <ele>91.2</ele>
        <time>2020-10-21T13:17:31Z</time>
      </trkpt>
      <trkpt lat="49.83753" lon="2.49949">
        <ele>91.3</ele>
        <time>2020-10-21T13:17:32Z</time>
      </trkpt>
      <trkpt lat="49.83753" lon="2.49948">
        <ele>91.3</ele>
        <time>2020-10-21T13:17:33Z</time>
      </trkpt>
      <trkpt lat="49.83755" lon="2.49946">
        <ele>91.4</ele>
        <time>2020-10-21T13:17:34Z</time>
      </trkpt>
      <trkpt lat="49.83756" lon="2.49945">
        <ele>91.4</ele>
        <time>2020-10-21T13:17:35Z</time>
      </trkpt>
      <trkpt lat="49.83757" lon="2.49944">
        <ele>91.4</ele>
        <time>2020-10-21T13:17:36Z</time>
      </trkpt>
      <trkpt lat="49.83757" lon="2.49943">
        <ele>91.5</ele>
        <time>2020-10-21T13:17:38Z</time>
      </trkpt>
      <trkpt lat="49.83758" lon="2.49942">
        <ele>91.5</ele>
        <time>2020-10-21T13:17:39Z</time>
      </trkpt>
      <trkpt lat="49.8376" lon="2.49941">
        <ele>91.6</ele>
        <time>2020-10-21T13:17:40Z</time>
      </trkpt>
      <trkpt lat="49.83761" lon="2.4994">
        <ele>91.6</ele>
        <time>2020-10-21T13:17:41Z</time>
      </trkpt>
      <trkpt lat="49.83762" lon="2.49939">
        <ele>91.6</ele>
        <time>2020-10-21T13:17:42Z</time>
      </trkpt>
      <trkpt lat="49.83763" lon="2.49937">
        <ele>91.7</ele>
        <time>2020-10-21T13:17:43Z</time>
      </trkpt>
      <trkpt lat="49.83763" lon="2.49936">
        <ele>91.7</ele>
        <time>2020-10-21T13:17:44Z</time>
      </trkpt>
      <trkpt lat="49.83764" lon="2.49936">
        <ele>91.8</ele>
        <time>2020-10-21T13:17:45Z</time>
      </trkpt>
      <trkpt lat="49.83767" lon="2.49934">
        <ele>91.8</ele>
        <time>2020-10-21T13:17:47Z</time>
      </trkpt>
      <trkpt lat="49.83767" lon="2.49933">
        <ele>91.9</ele>
        <time>2020-10-21T13:17:48Z</time>
      </trkpt>
      <trkpt lat="49.83768" lon="2.49933">
        <ele>91.9</ele>
        <time>2020-10-21T13:17:49Z</time>
      </trkpt>
      <trkpt lat="49.83769" lon="2.49933">
        <ele>91.9</ele>
        <time>2020-10-21T13:17:50Z</time>
      </trkpt>
      <trkpt lat="49.8377" lon="2.49932">
        <ele>91.9</ele>
        <time>2020-10-21T13:17:51Z</time>
      </trkpt>
      <trkpt lat="49.83771" lon="2.49931">
        <ele>92</ele>
        <time>2020-10-21T13:17:52Z</time>
      </trkpt>
      <trkpt lat="49.83772" lon="2.4993">
        <ele>92</ele>
        <time>2020-10-21T13:17:53Z</time>
      </trkpt>
      <trkpt lat="49.83773" lon="2.4993">
        <ele>92</ele>
        <time>2020-10-21T13:17:55Z</time>
      </trkpt>
      <trkpt lat="49.83774" lon="2.49929">
        <ele>92.1</ele>
        <time>2020-10-21T13:17:56Z</time>
      </trkpt>
      <trkpt lat="49.83775" lon="2.49927">
        <ele>92.1</ele>
        <time>2020-10-21T13:17:57Z</time>
      </trkpt>
      <trkpt lat="49.83776" lon="2.49926">
        <ele>92.1</ele>
        <time>2020-10-21T13:17:58Z</time>
      </trkpt>
      <trkpt lat="49.83777" lon="2.49925">
        <ele>92.2</ele>
        <time>2020-10-21T13:17:59Z</time>
      </trkpt>
      <trkpt lat="49.83778" lon="2.49923">
        <ele>92.2</ele>
        <time>2020-10-21T13:18:00Z</time>
      </trkpt>
      <trkpt lat="49.8378" lon="2.49921">
        <ele>92.3</ele>
        <time>2020-10-21T13:18:01Z</time>
      </trkpt>
      <trkpt lat="49.83781" lon="2.49921">
        <ele>92.3</ele>
        <time>2020-10-21T13:18:02Z</time>
      </trkpt>
      <trkpt lat="49.83782" lon="2.49918">
        <ele>92.3</ele>
        <time>2020-10-21T13:18:04Z</time>
      </trkpt>
      <trkpt lat="49.83783" lon="2.49917">
        <ele>92.4</ele>
        <time>2020-10-21T13:18:05Z</time>
      </trkpt>
      <trkpt lat="49.83783" lon="2.49916">
        <ele>92.4</ele>
        <time>2020-10-21T13:18:06Z</time>
      </trkpt>
      <trkpt lat="49.83784" lon="2.49914">
        <ele>92.4</ele>
        <time>2020-10-21T13:18:07Z</time>
      </trkpt>
      <trkpt lat="49.83785" lon="2.49912">
        <ele>92.5</ele>
        <time>2020-10-21T13:18:08Z</time>
      </trkpt>
      <trkpt lat="49.83787" lon="2.49909">
        <ele>92.5</ele>
        <time>2020-10-21T13:18:09Z</time>
      </trkpt>
      <trkpt lat="49.83788" lon="2.49908">
        <ele>92.6</ele>
        <time>2020-10-21T13:18:11Z</time>
      </trkpt>
      <trkpt lat="49.83789" lon="2.49907">
        <ele>92.6</ele>
        <time>2020-10-21T13:18:12Z</time>
      </trkpt>
      <trkpt lat="49.83789" lon="2.49906">
        <ele>92.6</ele>
        <time>2020-10-21T13:18:13Z</time>
      </trkpt>
      <trkpt lat="49.8379" lon="2.49904">
        <ele>92.7</ele>
        <time>2020-10-21T13:18:14Z</time>
      </trkpt>
      <trkpt lat="49.83791" lon="2.49903">
        <ele>92.7</ele>
        <time>2020-10-21T13:18:16Z</time>
      </trkpt>
      <trkpt lat="49.83792" lon="2.49901">
        <ele>92.8</ele>
        <time>2020-10-21T13:18:17Z</time>
      </trkpt>
      <trkpt lat="49.83793" lon="2.499">
        <ele>92.8</ele>
        <time>2020-10-21T13:18:18Z</time>
      </trkpt>
      <trkpt lat="49.83794" lon="2.49899">
        <ele>92.8</ele>
        <time>2020-10-21T13:18:19Z</time>
      </trkpt>
      <trkpt lat="49.83795" lon="2.49898">
        <ele>92.9</ele>
        <time>2020-10-21T13:18:20Z</time>
      </trkpt>
      <trkpt lat="49.83796" lon="2.49896">
        <ele>92.9</ele>
        <time>2020-10-21T13:18:21Z</time>
      </trkpt>
      <trkpt lat="49.83797" lon="2.49895">
        <ele>92.9</ele>
        <time>2020-10-21T13:18:22Z</time>
      </trkpt>
      <trkpt lat="49.83798" lon="2.49894">
        <ele>93</ele>
        <time>2020-10-21T13:18:24Z</time>
      </trkpt>
      <trkpt lat="49.83799" lon="2.49892">
        <ele>93</ele>
        <time>2020-10-21T13:18:25Z</time>
      </trkpt>
      <trkpt lat="49.838" lon="2.49891">
        <ele>93.1</ele>
        <time>2020-10-21T13:18:26Z</time>
      </trkpt>
      <trkpt lat="49.83801" lon="2.4989">
        <ele>93.1</ele>
        <time>2020-10-21T13:18:27Z</time>
      </trkpt>
      <trkpt lat="49.83802" lon="2.49887">
        <ele>93.1</ele>
        <time>2020-10-21T13:18:28Z</time>
      </trkpt>
      <trkpt lat="49.83802" lon="2.49886">
        <ele>93.2</ele>
        <time>2020-10-21T13:18:29Z</time>
      </trkpt>
      <trkpt lat="49.83803" lon="2.49885">
        <ele>93.2</ele>
        <time>2020-10-21T13:18:31Z</time>
      </trkpt>
      <trkpt lat="49.83804" lon="2.49884">
        <ele>93.2</ele>
        <time>2020-10-21T13:18:32Z</time>
      </trkpt>
      <trkpt lat="49.83804" lon="2.49883">
        <ele>93.3</ele>
        <time>2020-10-21T13:18:33Z</time>
      </trkpt>
      <trkpt lat="49.83805" lon="2.49881">
        <ele>93.3</ele>
        <time>2020-10-21T13:18:34Z</time>
      </trkpt>
      <trkpt lat="49.83807" lon="2.49879">
        <ele>93.3</ele>
        <time>2020-10-21T13:18:35Z</time>
      </trkpt>
      <trkpt lat="49.83808" lon="2.49878">
        <ele>93.4</ele>
        <time>2020-10-21T13:18:36Z</time>
      </trkpt>
      <trkpt lat="49.83808" lon="2.49877">
        <ele>93.4</ele>
        <time>2020-10-21T13:18:37Z</time>
      </trkpt>
      <trkpt lat="49.8381" lon="2.49875">
        <ele>93.4</ele>
        <time>2020-10-21T13:18:38Z</time>
      </trkpt>
      <trkpt lat="49.83811" lon="2.49874">
        <ele>93.5</ele>
        <time>2020-10-21T13:18:40Z</time>
      </trkpt>
      <trkpt lat="49.83811" lon="2.49873">
        <ele>93.5</ele>
        <time>2020-10-21T13:18:41Z</time>
      </trkpt>
      <trkpt lat="49.83813" lon="2.49871">
        <ele>93.5</ele>
        <time>2020-10-21T13:18:42Z</time>
      </trkpt>
      <trkpt lat="49.83813" lon="2.49871">
        <ele>93.6</ele>
        <time>2020-10-21T13:18:43Z</time>
      </trkpt>
      <trkpt lat="49.83815" lon="2.49869">
        <ele>93.6</ele>
        <time>2020-10-21T13:18:44Z</time>
      </trkpt>
      <trkpt lat="49.83816" lon="2.49868">
        <ele>93.6</ele>
        <time>2020-10-21T13:18:45Z</time>
      </trkpt>
      <trkpt lat="49.83817" lon="2.49867">
        <ele>93.6</ele>
        <time>2020-10-21T13:18:46Z</time>
      </trkpt>
      <trkpt lat="49.83819" lon="2.49865">
        <ele>93.7</ele>
        <time>2020-10-21T13:18:48Z</time>
      </trkpt>
      <trkpt lat="49.8382" lon="2.49864">
        <ele>93.7</ele>
        <time>2020-10-21T13:18:49Z</time>
      </trkpt>
      <trkpt lat="49.83822" lon="2.49863">
        <ele>93.7</ele>
        <time>2020-10-21T13:18:50Z</time>
      </trkpt>
      <trkpt lat="49.83823" lon="2.49862">
        <ele>93.7</ele>
        <time>2020-10-21T13:18:52Z</time>
      </trkpt>
      <trkpt lat="49.83824" lon="2.49861">
        <ele>93.8</ele>
        <time>2020-10-21T13:18:53Z</time>
      </trkpt>
      <trkpt lat="49.83825" lon="2.4986">
        <ele>93.8</ele>
        <time>2020-10-21T13:18:54Z</time>
      </trkpt>
      <trkpt lat="49.83826" lon="2.49859">
        <ele>93.8</ele>
        <time>2020-10-21T13:18:55Z</time>
      </trkpt>
      <trkpt lat="49.83827" lon="2.49858">
        <ele>93.8</ele>
        <time>2020-10-21T13:18:56Z</time>
      </trkpt>
      <trkpt lat="49.83829" lon="2.49856">
        <ele>93.8</ele>
        <time>2020-10-21T13:18:57Z</time>
      </trkpt>
      <trkpt lat="49.8383" lon="2.49854">
        <ele>93.9</ele>
        <time>2020-10-21T13:18:58Z</time>
      </trkpt>
      <trkpt lat="49.83831" lon="2.49854">
        <ele>93.9</ele>
        <time>2020-10-21T13:18:59Z</time>
      </trkpt>
      <trkpt lat="49.83831" lon="2.49853">
        <ele>93.9</ele>
        <time>2020-10-21T13:19:00Z</time>
      </trkpt>
      <trkpt lat="49.83833" lon="2.49851">
        <ele>93.9</ele>
        <time>2020-10-21T13:19:02Z</time>
      </trkpt>
      <trkpt lat="49.83834" lon="2.4985">
        <ele>93.9</ele>
        <time>2020-10-21T13:19:03Z</time>
      </trkpt>
      <trkpt lat="49.83836" lon="2.49848">
        <ele>94</ele>
        <time>2020-10-21T13:19:04Z</time>
      </trkpt>
      <trkpt lat="49.83837" lon="2.49847">
        <ele>94</ele>
        <time>2020-10-21T13:19:06Z</time>
      </trkpt>
      <trkpt lat="49.83838" lon="2.49846">
        <ele>94</ele>
        <time>2020-10-21T13:19:07Z</time>
      </trkpt>
      <trkpt lat="49.83839" lon="2.49846">
        <ele>94</ele>
        <time>2020-10-21T13:19:08Z</time>
      </trkpt>
      <trkpt lat="49.8384" lon="2.49845">
        <ele>94</ele>
        <time>2020-10-21T13:19:09Z</time>
      </trkpt>
      <trkpt lat="49.83841" lon="2.49844">
        <ele>94.1</ele>
        <time>2020-10-21T13:19:10Z</time>
      </trkpt>
      <trkpt lat="49.83842" lon="2.49843">
        <ele>94.1</ele>
        <time>2020-10-21T13:19:11Z</time>
      </trkpt>
      <trkpt lat="49.83843" lon="2.49843">
        <ele>94.1</ele>
        <time>2020-10-21T13:19:12Z</time>
      </trkpt>
      <trkpt lat="49.83844" lon="2.49842">
        <ele>94.1</ele>
        <time>2020-10-21T13:19:14Z</time>
      </trkpt>
      <trkpt lat="49.83847" lon="2.49841">
        <ele>94.2</ele>
        <time>2020-10-21T13:19:15Z</time>
      </trkpt>
      <trkpt lat="49.83848" lon="2.49841">
        <ele>94.2</ele>
        <time>2020-10-21T13:19:16Z</time>
      </trkpt>
      <trkpt lat="49.83849" lon="2.4984">
        <ele>94.2</ele>
        <time>2020-10-21T13:19:17Z</time>
      </trkpt>
      <trkpt lat="49.83849" lon="2.4984">
        <ele>94.2</ele>
        <time>2020-10-21T13:19:18Z</time>
      </trkpt>
      <trkpt lat="49.8385" lon="2.4984">
        <ele>94.2</ele>
        <time>2020-10-21T13:19:19Z</time>
      </trkpt>
      <trkpt lat="49.83851" lon="2.49839">
        <ele>94.3</ele>
        <time>2020-10-21T13:19:20Z</time>
      </trkpt>
      <trkpt lat="49.83853" lon="2.49837">
        <ele>94.3</ele>
        <time>2020-10-21T13:19:22Z</time>
      </trkpt>
      <trkpt lat="49.83854" lon="2.49836">
        <ele>94.3</ele>
        <time>2020-10-21T13:19:23Z</time>
      </trkpt>
      <trkpt lat="49.83854" lon="2.49835">
        <ele>94.3</ele>
        <time>2020-10-21T13:19:24Z</time>
      </trkpt>
      <trkpt lat="49.83855" lon="2.49835">
        <ele>94.3</ele>
        <time>2020-10-21T13:19:25Z</time>
      </trkpt>
      <trkpt lat="49.83856" lon="2.49834">
        <ele>94.4</ele>
        <time>2020-10-21T13:19:26Z</time>
      </trkpt>
      <trkpt lat="49.83858" lon="2.49832">
        <ele>94.4</ele>
        <time>2020-10-21T13:19:28Z</time>
      </trkpt>
      <trkpt lat="49.83858" lon="2.49831">
        <ele>94.4</ele>
        <time>2020-10-21T13:19:29Z</time>
      </trkpt>
      <trkpt lat="49.83859" lon="2.4983">
        <ele>94.4</ele>
        <time>2020-10-21T13:19:30Z</time>
      </trkpt>
      <trkpt lat="49.8386" lon="2.49829">
        <ele>94.4</ele>
        <time>2020-10-21T13:19:31Z</time>
      </trkpt>
      <trkpt lat="49.83862" lon="2.49827">
        <ele>94.5</ele>
        <time>2020-10-21T13:19:32Z</time>
      </trkpt>
      <trkpt lat="49.83862" lon="2.49826">
        <ele>94.5</ele>
        <time>2020-10-21T13:19:33Z</time>
      </trkpt>
      <trkpt lat="49.83863" lon="2.49825">
        <ele>94.5</ele>
        <time>2020-10-21T13:19:35Z</time>
      </trkpt>
      <trkpt lat="49.83864" lon="2.49823">
        <ele>94.5</ele>
        <time>2020-10-21T13:19:36Z</time>
      </trkpt>
      <trkpt lat="49.83865" lon="2.49821">
        <ele>94.6</ele>
        <time>2020-10-21T13:19:37Z</time>
      </trkpt>
      <trkpt lat="49.83866" lon="2.4982">
        <ele>94.6</ele>
        <time>2020-10-21T13:19:38Z</time>
      </trkpt>
      <trkpt lat="49.83866" lon="2.49819">
        <ele>94.6</ele>
        <time>2020-10-21T13:19:39Z</time>
      </trkpt>
      <trkpt lat="49.83867" lon="2.49817">
        <ele>94.6</ele>
        <time>2020-10-21T13:19:40Z</time>
      </trkpt>
      <trkpt lat="49.83868" lon="2.49815">
        <ele>94.7</ele>
        <time>2020-10-21T13:19:41Z</time>
      </trkpt>
      <trkpt lat="49.83869" lon="2.49813">
        <ele>94.7</ele>
        <time>2020-10-21T13:19:42Z</time>
      </trkpt>
      <trkpt lat="49.8387" lon="2.49812">
        <ele>94.7</ele>
        <time>2020-10-21T13:19:43Z</time>
      </trkpt>
      <trkpt lat="49.8387" lon="2.49811">
        <ele>94.7</ele>
        <time>2020-10-21T13:19:45Z</time>
      </trkpt>
      <trkpt lat="49.83871" lon="2.4981">
        <ele>94.8</ele>
        <time>2020-10-21T13:19:46Z</time>
      </trkpt>
      <trkpt lat="49.83873" lon="2.49807">
        <ele>94.8</ele>
        <time>2020-10-21T13:19:47Z</time>
      </trkpt>
      <trkpt lat="49.83874" lon="2.49806">
        <ele>94.8</ele>
        <time>2020-10-21T13:19:48Z</time>
      </trkpt>
      <trkpt lat="49.83875" lon="2.49805">
        <ele>94.8</ele>
        <time>2020-10-21T13:19:49Z</time>
      </trkpt>
      <trkpt lat="49.83876" lon="2.49804">
        <ele>94.8</ele>
        <time>2020-10-21T13:19:50Z</time>
      </trkpt>
      <trkpt lat="49.83876" lon="2.49803">
        <ele>94.8</ele>
        <time>2020-10-21T13:19:51Z</time>
      </trkpt>
      <trkpt lat="49.83877" lon="2.49801">
        <ele>94.8</ele>
        <time>2020-10-21T13:19:53Z</time>
      </trkpt>
      <trkpt lat="49.83878" lon="2.49799">
        <ele>94.9</ele>
        <time>2020-10-21T13:19:54Z</time>
      </trkpt>
      <trkpt lat="49.83879" lon="2.49798">
        <ele>94.9</ele>
        <time>2020-10-21T13:19:55Z</time>
      </trkpt>
      <trkpt lat="49.8388" lon="2.49796">
        <ele>94.9</ele>
        <time>2020-10-21T13:19:56Z</time>
      </trkpt>
      <trkpt lat="49.83882" lon="2.49795">
        <ele>94.9</ele>
        <time>2020-10-21T13:19:57Z</time>
      </trkpt>
      <trkpt lat="49.83883" lon="2.49794">
        <ele>94.9</ele>
        <time>2020-10-21T13:19:58Z</time>
      </trkpt>
      <trkpt lat="49.83884" lon="2.49793">
        <ele>94.9</ele>
        <time>2020-10-21T13:19:59Z</time>
      </trkpt>
      <trkpt lat="49.83885" lon="2.49792">
        <ele>94.9</ele>
        <time>2020-10-21T13:20:00Z</time>
      </trkpt>
      <trkpt lat="49.83886" lon="2.49791">
        <ele>94.9</ele>
        <time>2020-10-21T13:20:02Z</time>
      </trkpt>
      <trkpt lat="49.83887" lon="2.49789">
        <ele>94.9</ele>
        <time>2020-10-21T13:20:03Z</time>
      </trkpt>
      <trkpt lat="49.83888" lon="2.49788">
        <ele>94.9</ele>
        <time>2020-10-21T13:20:04Z</time>
      </trkpt>
      <trkpt lat="49.8389" lon="2.49787">
        <ele>94.9</ele>
        <time>2020-10-21T13:20:05Z</time>
      </trkpt>
      <trkpt lat="49.83891" lon="2.49786">
        <ele>95</ele>
        <time>2020-10-21T13:20:06Z</time>
      </trkpt>
      <trkpt lat="49.83892" lon="2.49784">
        <ele>95</ele>
        <time>2020-10-21T13:20:07Z</time>
      </trkpt>
      <trkpt lat="49.83893" lon="2.49783">
        <ele>95</ele>
        <time>2020-10-21T13:20:08Z</time>
      </trkpt>
      <trkpt lat="49.83894" lon="2.49782">
        <ele>95</ele>
        <time>2020-10-21T13:20:09Z</time>
      </trkpt>
      <trkpt lat="49.83896" lon="2.49781">
        <ele>95</ele>
        <time>2020-10-21T13:20:11Z</time>
      </trkpt>
      <trkpt lat="49.83897" lon="2.49779">
        <ele>95.1</ele>
        <time>2020-10-21T13:20:12Z</time>
      </trkpt>
      <trkpt lat="49.83898" lon="2.49778">
        <ele>95.1</ele>
        <time>2020-10-21T13:20:13Z</time>
      </trkpt>
      <trkpt lat="49.83899" lon="2.49777">
        <ele>95.1</ele>
        <time>2020-10-21T13:20:15Z</time>
      </trkpt>
      <trkpt lat="49.839" lon="2.49775">
        <ele>95.1</ele>
        <time>2020-10-21T13:20:16Z</time>
      </trkpt>
      <trkpt lat="49.83901" lon="2.49774">
        <ele>95.1</ele>
        <time>2020-10-21T13:20:17Z</time>
      </trkpt>
      <trkpt lat="49.83903" lon="2.49772">
        <ele>95.2</ele>
        <time>2020-10-21T13:20:18Z</time>
      </trkpt>
      <trkpt lat="49.83903" lon="2.49771">
        <ele>95.2</ele>
        <time>2020-10-21T13:20:19Z</time>
      </trkpt>
      <trkpt lat="49.83904" lon="2.49769">
        <ele>95.2</ele>
        <time>2020-10-21T13:20:20Z</time>
      </trkpt>
      <trkpt lat="49.83905" lon="2.49768">
        <ele>95.2</ele>
        <time>2020-10-21T13:20:21Z</time>
      </trkpt>
      <trkpt lat="49.83906" lon="2.49765">
        <ele>95.2</ele>
        <time>2020-10-21T13:20:23Z</time>
      </trkpt>
      <trkpt lat="49.83907" lon="2.49764">
        <ele>95.2</ele>
        <time>2020-10-21T13:20:24Z</time>
      </trkpt>
      <trkpt lat="49.83907" lon="2.49763">
        <ele>95.2</ele>
        <time>2020-10-21T13:20:25Z</time>
      </trkpt>
      <trkpt lat="49.83909" lon="2.49761">
        <ele>95.3</ele>
        <time>2020-10-21T13:20:26Z</time>
      </trkpt>
      <trkpt lat="49.83909" lon="2.49761">
        <ele>95.3</ele>
        <time>2020-10-21T13:20:27Z</time>
      </trkpt>
      <trkpt lat="49.8391" lon="2.4976">
        <ele>95.3</ele>
        <time>2020-10-21T13:20:28Z</time>
      </trkpt>
      <trkpt lat="49.83912" lon="2.49758">
        <ele>95.3</ele>
        <time>2020-10-21T13:20:29Z</time>
      </trkpt>
      <trkpt lat="49.83913" lon="2.49757">
        <ele>95.3</ele>
        <time>2020-10-21T13:20:31Z</time>
      </trkpt>
      <trkpt lat="49.83913" lon="2.49756">
        <ele>95.4</ele>
        <time>2020-10-21T13:20:32Z</time>
      </trkpt>
      <trkpt lat="49.83915" lon="2.49755">
        <ele>95.4</ele>
        <time>2020-10-21T13:20:33Z</time>
      </trkpt>
      <trkpt lat="49.83916" lon="2.49754">
        <ele>95.4</ele>
        <time>2020-10-21T13:20:34Z</time>
      </trkpt>
      <trkpt lat="49.83917" lon="2.49754">
        <ele>95.4</ele>
        <time>2020-10-21T13:20:35Z</time>
      </trkpt>
      <trkpt lat="49.83918" lon="2.49752">
        <ele>95.4</ele>
        <time>2020-10-21T13:20:36Z</time>
      </trkpt>
      <trkpt lat="49.83919" lon="2.49751">
        <ele>95.5</ele>
        <time>2020-10-21T13:20:37Z</time>
      </trkpt>
      <trkpt lat="49.8392" lon="2.4975">
        <ele>95.5</ele>
        <time>2020-10-21T13:20:39Z</time>
      </trkpt>
      <trkpt lat="49.83922" lon="2.49749">
        <ele>95.5</ele>
        <time>2020-10-21T13:20:40Z</time>
      </trkpt>
      <trkpt lat="49.83923" lon="2.49748">
        <ele>95.5</ele>
        <time>2020-10-21T13:20:41Z</time>
      </trkpt>
      <trkpt lat="49.83924" lon="2.49747">
        <ele>95.6</ele>
        <time>2020-10-21T13:20:42Z</time>
      </trkpt>
      <trkpt lat="49.83925" lon="2.49746">
        <ele>95.6</ele>
        <time>2020-10-21T13:20:43Z</time>
      </trkpt>
      <trkpt lat="49.83926" lon="2.49745">
        <ele>95.6</ele>
        <time>2020-10-21T13:20:44Z</time>
      </trkpt>
      <trkpt lat="49.83927" lon="2.49744">
        <ele>95.6</ele>
        <time>2020-10-21T13:20:46Z</time>
      </trkpt>
      <trkpt lat="49.83928" lon="2.49743">
        <ele>95.6</ele>
        <time>2020-10-21T13:20:47Z</time>
      </trkpt>
      <trkpt lat="49.83929" lon="2.49742">
        <ele>95.7</ele>
        <time>2020-10-21T13:20:48Z</time>
      </trkpt>
      <trkpt lat="49.83931" lon="2.4974">
        <ele>95.7</ele>
        <time>2020-10-21T13:20:49Z</time>
      </trkpt>
      <trkpt lat="49.83932" lon="2.49739">
        <ele>95.7</ele>
        <time>2020-10-21T13:20:50Z</time>
      </trkpt>
      <trkpt lat="49.83933" lon="2.49739">
        <ele>95.7</ele>
        <time>2020-10-21T13:20:51Z</time>
      </trkpt>
      <trkpt lat="49.83935" lon="2.49736">
        <ele>95.8</ele>
        <time>2020-10-21T13:20:52Z</time>
      </trkpt>
      <trkpt lat="49.83936" lon="2.49736">
        <ele>95.8</ele>
        <time>2020-10-21T13:20:54Z</time>
      </trkpt>
      <trkpt lat="49.83937" lon="2.49735">
        <ele>95.8</ele>
        <time>2020-10-21T13:20:55Z</time>
      </trkpt>
      <trkpt lat="49.83938" lon="2.49734">
        <ele>95.8</ele>
        <time>2020-10-21T13:20:56Z</time>
      </trkpt>
      <trkpt lat="49.83939" lon="2.49733">
        <ele>95.8</ele>
        <time>2020-10-21T13:20:57Z</time>
      </trkpt>
      <trkpt lat="49.83941" lon="2.49731">
        <ele>95.8</ele>
        <time>2020-10-21T13:20:59Z</time>
      </trkpt>
      <trkpt lat="49.83942" lon="2.4973">
        <ele>95.8</ele>
        <time>2020-10-21T13:21:00Z</time>
      </trkpt>
      <trkpt lat="49.83942" lon="2.49729">
        <ele>95.8</ele>
        <time>2020-10-21T13:21:01Z</time>
      </trkpt>
      <trkpt lat="49.83944" lon="2.49727">
        <ele>95.9</ele>
        <time>2020-10-21T13:21:02Z</time>
      </trkpt>
      <trkpt lat="49.83944" lon="2.49726">
        <ele>95.9</ele>
        <time>2020-10-21T13:21:03Z</time>
      </trkpt>
      <trkpt lat="49.83946" lon="2.49724">
        <ele>95.9</ele>
        <time>2020-10-21T13:21:04Z</time>
      </trkpt>
      <trkpt lat="49.83946" lon="2.49723">
        <ele>95.9</ele>
        <time>2020-10-21T13:21:06Z</time>
      </trkpt>
      <trkpt lat="49.83947" lon="2.49722">
        <ele>95.9</ele>
        <time>2020-10-21T13:21:07Z</time>
      </trkpt>
      <trkpt lat="49.83948" lon="2.4972">
        <ele>95.9</ele>
        <time>2020-10-21T13:21:08Z</time>
      </trkpt>
      <trkpt lat="49.83949" lon="2.49719">
        <ele>95.9</ele>
        <time>2020-10-21T13:21:09Z</time>
      </trkpt>
      <trkpt lat="49.83951" lon="2.49717">
        <ele>95.9</ele>
        <time>2020-10-21T13:21:10Z</time>
      </trkpt>
      <trkpt lat="49.83952" lon="2.49716">
        <ele>95.9</ele>
        <time>2020-10-21T13:21:11Z</time>
      </trkpt>
      <trkpt lat="49.83953" lon="2.49715">
        <ele>95.9</ele>
        <time>2020-10-21T13:21:12Z</time>
      </trkpt>
      <trkpt lat="49.83953" lon="2.49715">
        <ele>95.9</ele>
        <time>2020-10-21T13:21:13Z</time>
      </trkpt>
      <trkpt lat="49.83954" lon="2.49713">
        <ele>95.9</ele>
        <time>2020-10-21T13:21:15Z</time>
      </trkpt>
      <trkpt lat="49.83955" lon="2.49712">
        <ele>95.9</ele>
        <time>2020-10-21T13:21:16Z</time>
      </trkpt>
      <trkpt lat="49.83955" lon="2.4971">
        <ele>95.9</ele>
        <time>2020-10-21T13:21:17Z</time>
      </trkpt>
      <trkpt lat="49.83956" lon="2.49709">
        <ele>95.9</ele>
        <time>2020-10-21T13:21:18Z</time>
      </trkpt>
      <trkpt lat="49.83957" lon="2.49708">
        <ele>95.9</ele>
        <time>2020-10-21T13:21:19Z</time>
      </trkpt>
      <trkpt lat="49.83958" lon="2.49706">
        <ele>95.9</ele>
        <time>2020-10-21T13:21:20Z</time>
      </trkpt>
      <trkpt lat="49.83959" lon="2.49705">
        <ele>96</ele>
        <time>2020-10-21T13:21:21Z</time>
      </trkpt>
      <trkpt lat="49.8396" lon="2.49703">
        <ele>96</ele>
        <time>2020-10-21T13:21:23Z</time>
      </trkpt>
      <trkpt lat="49.83961" lon="2.49702">
        <ele>96</ele>
        <time>2020-10-21T13:21:24Z</time>
      </trkpt>
      <trkpt lat="49.83961" lon="2.49701">
        <ele>96</ele>
        <time>2020-10-21T13:21:25Z</time>
      </trkpt>
      <trkpt lat="49.83963" lon="2.49698">
        <ele>96</ele>
        <time>2020-10-21T13:21:26Z</time>
      </trkpt>
      <trkpt lat="49.83964" lon="2.49698">
        <ele>96</ele>
        <time>2020-10-21T13:21:27Z</time>
      </trkpt>
      <trkpt lat="49.83965" lon="2.49697">
        <ele>96</ele>
        <time>2020-10-21T13:21:28Z</time>
      </trkpt>
      <trkpt lat="49.83966" lon="2.49695">
        <ele>96</ele>
        <time>2020-10-21T13:21:29Z</time>
      </trkpt>
      <trkpt lat="49.83967" lon="2.49694">
        <ele>96</ele>
        <time>2020-10-21T13:21:31Z</time>
      </trkpt>
      <trkpt lat="49.83968" lon="2.49693">
        <ele>96.1</ele>
        <time>2020-10-21T13:21:32Z</time>
      </trkpt>
      <trkpt lat="49.83969" lon="2.49692">
        <ele>96.1</ele>
        <time>2020-10-21T13:21:33Z</time>
      </trkpt>
      <trkpt lat="49.83971" lon="2.49691">
        <ele>96.1</ele>
        <time>2020-10-21T13:21:34Z</time>
      </trkpt>
      <trkpt lat="49.83972" lon="2.4969">
        <ele>96.1</ele>
        <time>2020-10-21T13:21:35Z</time>
      </trkpt>
      <trkpt lat="49.83973" lon="2.49689">
        <ele>96.1</ele>
        <time>2020-10-21T13:21:36Z</time>
      </trkpt>
      <trkpt lat="49.83975" lon="2.49686">
        <ele>96.1</ele>
        <time>2020-10-21T13:21:37Z</time>
      </trkpt>
      <trkpt lat="49.83975" lon="2.49686">
        <ele>96.1</ele>
        <time>2020-10-21T13:21:39Z</time>
      </trkpt>
      <trkpt lat="49.83976" lon="2.49685">
        <ele>96.1</ele>
        <time>2020-10-21T13:21:40Z</time>
      </trkpt>
      <trkpt lat="49.83977" lon="2.49683">
        <ele>96.1</ele>
        <time>2020-10-21T13:21:41Z</time>
      </trkpt>
      <trkpt lat="49.83978" lon="2.49682">
        <ele>96.1</ele>
        <time>2020-10-21T13:21:42Z</time>
      </trkpt>
      <trkpt lat="49.83979" lon="2.4968">
        <ele>96.1</ele>
        <time>2020-10-21T13:21:43Z</time>
      </trkpt>
      <trkpt lat="49.8398" lon="2.49679">
        <ele>96.1</ele>
        <time>2020-10-21T13:21:44Z</time>
      </trkpt>
      <trkpt lat="49.83981" lon="2.49678">
        <ele>96.1</ele>
        <time>2020-10-21T13:21:45Z</time>
      </trkpt>
      <trkpt lat="49.83983" lon="2.49676">
        <ele>96.1</ele>
        <time>2020-10-21T13:21:47Z</time>
      </trkpt>
      <trkpt lat="49.83984" lon="2.49675">
        <ele>96.1</ele>
        <time>2020-10-21T13:21:48Z</time>
      </trkpt>
      <trkpt lat="49.83985" lon="2.49673">
        <ele>96.2</ele>
        <time>2020-10-21T13:21:50Z</time>
      </trkpt>
      <trkpt lat="49.83986" lon="2.49672">
        <ele>96.2</ele>
        <time>2020-10-21T13:21:51Z</time>
      </trkpt>
      <trkpt lat="49.83988" lon="2.4967">
        <ele>96.2</ele>
        <time>2020-10-21T13:21:53Z</time>
      </trkpt>
      <trkpt lat="49.83989" lon="2.49669">
        <ele>96.2</ele>
        <time>2020-10-21T13:21:54Z</time>
      </trkpt>
      <trkpt lat="49.8399" lon="2.49668">
        <ele>96.2</ele>
        <time>2020-10-21T13:21:55Z</time>
      </trkpt>
      <trkpt lat="49.83992" lon="2.49667">
        <ele>96.2</ele>
        <time>2020-10-21T13:21:57Z</time>
      </trkpt>
      <trkpt lat="49.83993" lon="2.49666">
        <ele>96.2</ele>
        <time>2020-10-21T13:21:58Z</time>
      </trkpt>
      <trkpt lat="49.83994" lon="2.49665">
        <ele>96.3</ele>
        <time>2020-10-21T13:21:59Z</time>
      </trkpt>
      <trkpt lat="49.83995" lon="2.49664">
        <ele>96.3</ele>
        <time>2020-10-21T13:22:01Z</time>
      </trkpt>
      <trkpt lat="49.83996" lon="2.49662">
        <ele>96.3</ele>
        <time>2020-10-21T13:22:02Z</time>
      </trkpt>
      <trkpt lat="49.83997" lon="2.49661">
        <ele>96.3</ele>
        <time>2020-10-21T13:22:03Z</time>
      </trkpt>
      <trkpt lat="49.83999" lon="2.49658">
        <ele>96.3</ele>
        <time>2020-10-21T13:22:04Z</time>
      </trkpt>
      <trkpt lat="49.84" lon="2.49658">
        <ele>96.3</ele>
        <time>2020-10-21T13:22:05Z</time>
      </trkpt>
      <trkpt lat="49.84" lon="2.49657">
        <ele>96.4</ele>
        <time>2020-10-21T13:22:06Z</time>
      </trkpt>
      <trkpt lat="49.84001" lon="2.49655">
        <ele>96.4</ele>
        <time>2020-10-21T13:22:07Z</time>
      </trkpt>
      <trkpt lat="49.84002" lon="2.49654">
        <ele>96.4</ele>
        <time>2020-10-21T13:22:09Z</time>
      </trkpt>
      <trkpt lat="49.84004" lon="2.49652">
        <ele>96.4</ele>
        <time>2020-10-21T13:22:10Z</time>
      </trkpt>
      <trkpt lat="49.84005" lon="2.49651">
        <ele>96.4</ele>
        <time>2020-10-21T13:22:11Z</time>
      </trkpt>
      <trkpt lat="49.84007" lon="2.49648">
        <ele>96.5</ele>
        <time>2020-10-21T13:22:12Z</time>
      </trkpt>
      <trkpt lat="49.84007" lon="2.49647">
        <ele>96.5</ele>
        <time>2020-10-21T13:22:13Z</time>
      </trkpt>
      <trkpt lat="49.84008" lon="2.49646">
        <ele>96.5</ele>
        <time>2020-10-21T13:22:14Z</time>
      </trkpt>
      <trkpt lat="49.84009" lon="2.49645">
        <ele>96.5</ele>
        <time>2020-10-21T13:22:15Z</time>
      </trkpt>
      <trkpt lat="49.8401" lon="2.49644">
        <ele>96.5</ele>
        <time>2020-10-21T13:22:17Z</time>
      </trkpt>
      <trkpt lat="49.84012" lon="2.49642">
        <ele>96.6</ele>
        <time>2020-10-21T13:22:18Z</time>
      </trkpt>
      <trkpt lat="49.84013" lon="2.49641">
        <ele>96.6</ele>
        <time>2020-10-21T13:22:19Z</time>
      </trkpt>
      <trkpt lat="49.84014" lon="2.4964">
        <ele>96.6</ele>
        <time>2020-10-21T13:22:20Z</time>
      </trkpt>
      <trkpt lat="49.84015" lon="2.49639">
        <ele>96.6</ele>
        <time>2020-10-21T13:22:21Z</time>
      </trkpt>
      <trkpt lat="49.84016" lon="2.49638">
        <ele>96.6</ele>
        <time>2020-10-21T13:22:22Z</time>
      </trkpt>
      <trkpt lat="49.84018" lon="2.49636">
        <ele>96.7</ele>
        <time>2020-10-21T13:22:23Z</time>
      </trkpt>
      <trkpt lat="49.84019" lon="2.49636">
        <ele>96.7</ele>
        <time>2020-10-21T13:22:25Z</time>
      </trkpt>
      <trkpt lat="49.84019" lon="2.49635">
        <ele>96.7</ele>
        <time>2020-10-21T13:22:26Z</time>
      </trkpt>
      <trkpt lat="49.84022" lon="2.49632">
        <ele>96.7</ele>
        <time>2020-10-21T13:22:27Z</time>
      </trkpt>
      <trkpt lat="49.84022" lon="2.49631">
        <ele>96.7</ele>
        <time>2020-10-21T13:22:28Z</time>
      </trkpt>
      <trkpt lat="49.84023" lon="2.49631">
        <ele>96.8</ele>
        <time>2020-10-21T13:22:29Z</time>
      </trkpt>
      <trkpt lat="49.84024" lon="2.4963">
        <ele>96.8</ele>
        <time>2020-10-21T13:22:30Z</time>
      </trkpt>
      <trkpt lat="49.84025" lon="2.49629">
        <ele>96.8</ele>
        <time>2020-10-21T13:22:32Z</time>
      </trkpt>
      <trkpt lat="49.84026" lon="2.49628">
        <ele>96.8</ele>
        <time>2020-10-21T13:22:33Z</time>
      </trkpt>
      <trkpt lat="49.84027" lon="2.49627">
        <ele>96.8</ele>
        <time>2020-10-21T13:22:34Z</time>
      </trkpt>
      <trkpt lat="49.84028" lon="2.49626">
        <ele>96.8</ele>
        <time>2020-10-21T13:22:35Z</time>
      </trkpt>
      <trkpt lat="49.84029" lon="2.49625">
        <ele>96.8</ele>
        <time>2020-10-21T13:22:36Z</time>
      </trkpt>
      <trkpt lat="49.8403" lon="2.49624">
        <ele>96.8</ele>
        <time>2020-10-21T13:22:37Z</time>
      </trkpt>
      <trkpt lat="49.84031" lon="2.49623">
        <ele>96.8</ele>
        <time>2020-10-21T13:22:38Z</time>
      </trkpt>
      <trkpt lat="49.84032" lon="2.49621">
        <ele>96.8</ele>
        <time>2020-10-21T13:22:40Z</time>
      </trkpt>
      <trkpt lat="49.84033" lon="2.4962">
        <ele>96.8</ele>
        <time>2020-10-21T13:22:41Z</time>
      </trkpt>
      <trkpt lat="49.84034" lon="2.4962">
        <ele>96.8</ele>
        <time>2020-10-21T13:22:42Z</time>
      </trkpt>
      <trkpt lat="49.84035" lon="2.49619">
        <ele>96.8</ele>
        <time>2020-10-21T13:22:44Z</time>
      </trkpt>
      <trkpt lat="49.84036" lon="2.49618">
        <ele>96.8</ele>
        <time>2020-10-21T13:22:45Z</time>
      </trkpt>
      <trkpt lat="49.84037" lon="2.49617">
        <ele>96.8</ele>
        <time>2020-10-21T13:22:46Z</time>
      </trkpt>
      <trkpt lat="49.84038" lon="2.49616">
        <ele>96.8</ele>
        <time>2020-10-21T13:22:47Z</time>
      </trkpt>
      <trkpt lat="49.8404" lon="2.49613">
        <ele>96.9</ele>
        <time>2020-10-21T13:22:49Z</time>
      </trkpt>
      <trkpt lat="49.84042" lon="2.49612">
        <ele>96.9</ele>
        <time>2020-10-21T13:22:50Z</time>
      </trkpt>
      <trkpt lat="49.84042" lon="2.49611">
        <ele>96.9</ele>
        <time>2020-10-21T13:22:51Z</time>
      </trkpt>
      <trkpt lat="49.84043" lon="2.4961">
        <ele>96.9</ele>
        <time>2020-10-21T13:22:52Z</time>
      </trkpt>
      <trkpt lat="49.84044" lon="2.49609">
        <ele>96.9</ele>
        <time>2020-10-21T13:22:54Z</time>
      </trkpt>
      <trkpt lat="49.84046" lon="2.49608">
        <ele>96.9</ele>
        <time>2020-10-21T13:22:55Z</time>
      </trkpt>
      <trkpt lat="49.84047" lon="2.49607">
        <ele>97</ele>
        <time>2020-10-21T13:22:56Z</time>
      </trkpt>
      <trkpt lat="49.84047" lon="2.49606">
        <ele>97</ele>
        <time>2020-10-21T13:22:57Z</time>
      </trkpt>
      <trkpt lat="49.84048" lon="2.49605">
        <ele>97</ele>
        <time>2020-10-21T13:22:58Z</time>
      </trkpt>
      <trkpt lat="49.84049" lon="2.49603">
        <ele>97</ele>
        <time>2020-10-21T13:23:00Z</time>
      </trkpt>
      <trkpt lat="49.8405" lon="2.49601">
        <ele>97</ele>
        <time>2020-10-21T13:23:01Z</time>
      </trkpt>
      <trkpt lat="49.84052" lon="2.496">
        <ele>97</ele>
        <time>2020-10-21T13:23:02Z</time>
      </trkpt>
      <trkpt lat="49.84053" lon="2.49599">
        <ele>97</ele>
        <time>2020-10-21T13:23:03Z</time>
      </trkpt>
      <trkpt lat="49.84054" lon="2.49597">
        <ele>97</ele>
        <time>2020-10-21T13:23:05Z</time>
      </trkpt>
      <trkpt lat="49.84055" lon="2.49597">
        <ele>97</ele>
        <time>2020-10-21T13:23:06Z</time>
      </trkpt>
      <trkpt lat="49.84056" lon="2.49596">
        <ele>97.1</ele>
        <time>2020-10-21T13:23:07Z</time>
      </trkpt>
      <trkpt lat="49.84057" lon="2.49595">
        <ele>97.1</ele>
        <time>2020-10-21T13:23:08Z</time>
      </trkpt>
      <trkpt lat="49.84058" lon="2.49594">
        <ele>97.1</ele>
        <time>2020-10-21T13:23:09Z</time>
      </trkpt>
      <trkpt lat="49.84059" lon="2.49592">
        <ele>97.1</ele>
        <time>2020-10-21T13:23:11Z</time>
      </trkpt>
      <trkpt lat="49.8406" lon="2.49591">
        <ele>97.1</ele>
        <time>2020-10-21T13:23:12Z</time>
      </trkpt>
      <trkpt lat="49.84062" lon="2.49589">
        <ele>97.1</ele>
        <time>2020-10-21T13:23:13Z</time>
      </trkpt>
      <trkpt lat="49.84063" lon="2.49588">
        <ele>97.1</ele>
        <time>2020-10-21T13:23:14Z</time>
      </trkpt>
      <trkpt lat="49.84063" lon="2.49587">
        <ele>97.1</ele>
        <time>2020-10-21T13:23:15Z</time>
      </trkpt>
      <trkpt lat="49.84064" lon="2.49586">
        <ele>97.1</ele>
        <time>2020-10-21T13:23:16Z</time>
      </trkpt>
      <trkpt lat="49.84065" lon="2.49584">
        <ele>97.1</ele>
        <time>2020-10-21T13:23:17Z</time>
      </trkpt>
      <trkpt lat="49.84066" lon="2.49582">
        <ele>97.1</ele>
        <time>2020-10-21T13:23:19Z</time>
      </trkpt>
      <trkpt lat="49.84067" lon="2.49581">
        <ele>97.1</ele>
        <time>2020-10-21T13:23:20Z</time>
      </trkpt>
      <trkpt lat="49.84068" lon="2.49579">
        <ele>97.1</ele>
        <time>2020-10-21T13:23:21Z</time>
      </trkpt>
      <trkpt lat="49.8407" lon="2.49578">
        <ele>97.1</ele>
        <time>2020-10-21T13:23:22Z</time>
      </trkpt>
      <trkpt lat="49.84071" lon="2.49576">
        <ele>97.2</ele>
        <time>2020-10-21T13:23:24Z</time>
      </trkpt>
      <trkpt lat="49.84072" lon="2.49575">
        <ele>97.2</ele>
        <time>2020-10-21T13:23:25Z</time>
      </trkpt>
      <trkpt lat="49.84074" lon="2.49574">
        <ele>97.2</ele>
        <time>2020-10-21T13:23:26Z</time>
      </trkpt>
      <trkpt lat="49.84075" lon="2.49573">
        <ele>97.2</ele>
        <time>2020-10-21T13:23:28Z</time>
      </trkpt>
      <trkpt lat="49.84076" lon="2.49571">
        <ele>97.2</ele>
        <time>2020-10-21T13:23:29Z</time>
      </trkpt>
      <trkpt lat="49.84077" lon="2.4957">
        <ele>97.2</ele>
        <time>2020-10-21T13:23:30Z</time>
      </trkpt>
      <trkpt lat="49.84079" lon="2.49568">
        <ele>97.2</ele>
        <time>2020-10-21T13:23:31Z</time>
      </trkpt>
      <trkpt lat="49.8408" lon="2.49567">
        <ele>97.2</ele>
        <time>2020-10-21T13:23:33Z</time>
      </trkpt>
      <trkpt lat="49.84081" lon="2.49566">
        <ele>97.2</ele>
        <time>2020-10-21T13:23:34Z</time>
      </trkpt>
      <trkpt lat="49.84082" lon="2.49564">
        <ele>97.2</ele>
        <time>2020-10-21T13:23:35Z</time>
      </trkpt>
      <trkpt lat="49.84083" lon="2.49562">
        <ele>97.2</ele>
        <time>2020-10-21T13:23:36Z</time>
      </trkpt>
      <trkpt lat="49.84084" lon="2.49561">
        <ele>97.2</ele>
        <time>2020-10-21T13:23:37Z</time>
      </trkpt>
      <trkpt lat="49.84086" lon="2.4956">
        <ele>97.2</ele>
        <time>2020-10-21T13:23:38Z</time>
      </trkpt>
      <trkpt lat="49.84087" lon="2.49558">
        <ele>97.2</ele>
        <time>2020-10-21T13:23:39Z</time>
      </trkpt>
      <trkpt lat="49.84088" lon="2.49558">
        <ele>97.3</ele>
        <time>2020-10-21T13:23:40Z</time>
      </trkpt>
      <trkpt lat="49.8409" lon="2.49556">
        <ele>97.3</ele>
        <time>2020-10-21T13:23:42Z</time>
      </trkpt>
      <trkpt lat="49.84091" lon="2.49555">
        <ele>97.3</ele>
        <time>2020-10-21T13:23:43Z</time>
      </trkpt>
      <trkpt lat="49.84091" lon="2.49555">
        <ele>97.3</ele>
        <time>2020-10-21T13:23:44Z</time>
      </trkpt>
      <trkpt lat="49.84093" lon="2.49553">
        <ele>97.3</ele>
        <time>2020-10-21T13:23:45Z</time>
      </trkpt>
      <trkpt lat="49.84094" lon="2.49551">
        <ele>97.4</ele>
        <time>2020-10-21T13:23:46Z</time>
      </trkpt>
      <trkpt lat="49.84096" lon="2.49549">
        <ele>97.4</ele>
        <time>2020-10-21T13:23:48Z</time>
      </trkpt>
      <trkpt lat="49.84097" lon="2.49548">
        <ele>97.4</ele>
        <time>2020-10-21T13:23:49Z</time>
      </trkpt>
      <trkpt lat="49.84098" lon="2.49547">
        <ele>97.4</ele>
        <time>2020-10-21T13:23:50Z</time>
      </trkpt>
      <trkpt lat="49.84099" lon="2.49546">
        <ele>97.5</ele>
        <time>2020-10-21T13:23:51Z</time>
      </trkpt>
      <trkpt lat="49.841" lon="2.49545">
        <ele>97.5</ele>
        <time>2020-10-21T13:23:52Z</time>
      </trkpt>
      <trkpt lat="49.84101" lon="2.49543">
        <ele>97.5</ele>
        <time>2020-10-21T13:23:53Z</time>
      </trkpt>
      <trkpt lat="49.84102" lon="2.49542">
        <ele>97.5</ele>
        <time>2020-10-21T13:23:55Z</time>
      </trkpt>
      <trkpt lat="49.84103" lon="2.49541">
        <ele>97.6</ele>
        <time>2020-10-21T13:23:56Z</time>
      </trkpt>
      <trkpt lat="49.84104" lon="2.4954">
        <ele>97.6</ele>
        <time>2020-10-21T13:23:57Z</time>
      </trkpt>
      <trkpt lat="49.84104" lon="2.49539">
        <ele>97.6</ele>
        <time>2020-10-21T13:23:58Z</time>
      </trkpt>
      <trkpt lat="49.84105" lon="2.49539">
        <ele>97.6</ele>
        <time>2020-10-21T13:23:59Z</time>
      </trkpt>
      <trkpt lat="49.84106" lon="2.49538">
        <ele>97.6</ele>
        <time>2020-10-21T13:24:00Z</time>
      </trkpt>
      <trkpt lat="49.84107" lon="2.49537">
        <ele>97.6</ele>
        <time>2020-10-21T13:24:02Z</time>
      </trkpt>
      <trkpt lat="49.84108" lon="2.49536">
        <ele>97.7</ele>
        <time>2020-10-21T13:24:03Z</time>
      </trkpt>
      <trkpt lat="49.84109" lon="2.49534">
        <ele>97.7</ele>
        <time>2020-10-21T13:24:04Z</time>
      </trkpt>
      <trkpt lat="49.8411" lon="2.49533">
        <ele>97.7</ele>
        <time>2020-10-21T13:24:05Z</time>
      </trkpt>
      <trkpt lat="49.84111" lon="2.49533">
        <ele>97.7</ele>
        <time>2020-10-21T13:24:06Z</time>
      </trkpt>
      <trkpt lat="49.84112" lon="2.49531">
        <ele>97.7</ele>
        <time>2020-10-21T13:24:08Z</time>
      </trkpt>
      <trkpt lat="49.84113" lon="2.4953">
        <ele>97.7</ele>
        <time>2020-10-21T13:24:09Z</time>
      </trkpt>
      <trkpt lat="49.84115" lon="2.49528">
        <ele>97.7</ele>
        <time>2020-10-21T13:24:10Z</time>
      </trkpt>
      <trkpt lat="49.84116" lon="2.49527">
        <ele>97.7</ele>
        <time>2020-10-21T13:24:11Z</time>
      </trkpt>
      <trkpt lat="49.84116" lon="2.49526">
        <ele>97.7</ele>
        <time>2020-10-21T13:24:12Z</time>
      </trkpt>
      <trkpt lat="49.84117" lon="2.49525">
        <ele>97.7</ele>
        <time>2020-10-21T13:24:13Z</time>
      </trkpt>
      <trkpt lat="49.84119" lon="2.49524">
        <ele>97.7</ele>
        <time>2020-10-21T13:24:15Z</time>
      </trkpt>
      <trkpt lat="49.84119" lon="2.49523">
        <ele>97.7</ele>
        <time>2020-10-21T13:24:16Z</time>
      </trkpt>
      <trkpt lat="49.8412" lon="2.49522">
        <ele>97.7</ele>
        <time>2020-10-21T13:24:17Z</time>
      </trkpt>
      <trkpt lat="49.84121" lon="2.49521">
        <ele>97.6</ele>
        <time>2020-10-21T13:24:18Z</time>
      </trkpt>
      <trkpt lat="49.84122" lon="2.49519">
        <ele>97.6</ele>
        <time>2020-10-21T13:24:19Z</time>
      </trkpt>
      <trkpt lat="49.84124" lon="2.49518">
        <ele>97.6</ele>
        <time>2020-10-21T13:24:20Z</time>
      </trkpt>
      <trkpt lat="49.84124" lon="2.49517">
        <ele>97.6</ele>
        <time>2020-10-21T13:24:21Z</time>
      </trkpt>
      <trkpt lat="49.84125" lon="2.49516">
        <ele>97.6</ele>
        <time>2020-10-21T13:24:23Z</time>
      </trkpt>
      <trkpt lat="49.84126" lon="2.49515">
        <ele>97.6</ele>
        <time>2020-10-21T13:24:24Z</time>
      </trkpt>
      <trkpt lat="49.84128" lon="2.49513">
        <ele>97.7</ele>
        <time>2020-10-21T13:24:25Z</time>
      </trkpt>
      <trkpt lat="49.84129" lon="2.49513">
        <ele>97.7</ele>
        <time>2020-10-21T13:24:26Z</time>
      </trkpt>
      <trkpt lat="49.8413" lon="2.49512">
        <ele>97.7</ele>
        <time>2020-10-21T13:24:27Z</time>
      </trkpt>
      <trkpt lat="49.84131" lon="2.49511">
        <ele>97.7</ele>
        <time>2020-10-21T13:24:28Z</time>
      </trkpt>
      <trkpt lat="49.84132" lon="2.4951">
        <ele>97.7</ele>
        <time>2020-10-21T13:24:29Z</time>
      </trkpt>
      <trkpt lat="49.84134" lon="2.49509">
        <ele>97.7</ele>
        <time>2020-10-21T13:24:31Z</time>
      </trkpt>
      <trkpt lat="49.84135" lon="2.49508">
        <ele>97.7</ele>
        <time>2020-10-21T13:24:32Z</time>
      </trkpt>
      <trkpt lat="49.84136" lon="2.49507">
        <ele>97.7</ele>
        <time>2020-10-21T13:24:33Z</time>
      </trkpt>
      <trkpt lat="49.84139" lon="2.49505">
        <ele>97.7</ele>
        <time>2020-10-21T13:24:34Z</time>
      </trkpt>
      <trkpt lat="49.8414" lon="2.49504">
        <ele>97.7</ele>
        <time>2020-10-21T13:24:35Z</time>
      </trkpt>
      <trkpt lat="49.8414" lon="2.49503">
        <ele>97.7</ele>
        <time>2020-10-21T13:24:36Z</time>
      </trkpt>
      <trkpt lat="49.84141" lon="2.49502">
        <ele>97.7</ele>
        <time>2020-10-21T13:24:37Z</time>
      </trkpt>
      <trkpt lat="49.84143" lon="2.49501">
        <ele>97.7</ele>
        <time>2020-10-21T13:24:39Z</time>
      </trkpt>
      <trkpt lat="49.84145" lon="2.49499">
        <ele>97.7</ele>
        <time>2020-10-21T13:24:40Z</time>
      </trkpt>
      <trkpt lat="49.84146" lon="2.49498">
        <ele>97.7</ele>
        <time>2020-10-21T13:24:41Z</time>
      </trkpt>
      <trkpt lat="49.84148" lon="2.49496">
        <ele>97.7</ele>
        <time>2020-10-21T13:24:42Z</time>
      </trkpt>
      <trkpt lat="49.84149" lon="2.49495">
        <ele>97.8</ele>
        <time>2020-10-21T13:24:44Z</time>
      </trkpt>
      <trkpt lat="49.84149" lon="2.49494">
        <ele>97.8</ele>
        <time>2020-10-21T13:24:45Z</time>
      </trkpt>
      <trkpt lat="49.8415" lon="2.49493">
        <ele>97.8</ele>
        <time>2020-10-21T13:24:46Z</time>
      </trkpt>
      <trkpt lat="49.84151" lon="2.49492">
        <ele>97.8</ele>
        <time>2020-10-21T13:24:47Z</time>
      </trkpt>
      <trkpt lat="49.84152" lon="2.49491">
        <ele>97.8</ele>
        <time>2020-10-21T13:24:48Z</time>
      </trkpt>
      <trkpt lat="49.84154" lon="2.49489">
        <ele>97.9</ele>
        <time>2020-10-21T13:24:49Z</time>
      </trkpt>
      <trkpt lat="49.84155" lon="2.49488">
        <ele>97.9</ele>
        <time>2020-10-21T13:24:50Z</time>
      </trkpt>
      <trkpt lat="49.84155" lon="2.49487">
        <ele>97.9</ele>
        <time>2020-10-21T13:24:51Z</time>
      </trkpt>
      <trkpt lat="49.84156" lon="2.49487">
        <ele>97.9</ele>
        <time>2020-10-21T13:24:52Z</time>
      </trkpt>
      <trkpt lat="49.84157" lon="2.49486">
        <ele>97.9</ele>
        <time>2020-10-21T13:24:54Z</time>
      </trkpt>
      <trkpt lat="49.84158" lon="2.49484">
        <ele>97.9</ele>
        <time>2020-10-21T13:24:55Z</time>
      </trkpt>
      <trkpt lat="49.84159" lon="2.49483">
        <ele>98</ele>
        <time>2020-10-21T13:24:56Z</time>
      </trkpt>
      <trkpt lat="49.8416" lon="2.49482">
        <ele>98</ele>
        <time>2020-10-21T13:24:57Z</time>
      </trkpt>
      <trkpt lat="49.84162" lon="2.49481">
        <ele>98</ele>
        <time>2020-10-21T13:24:58Z</time>
      </trkpt>
      <trkpt lat="49.84163" lon="2.49479">
        <ele>98</ele>
        <time>2020-10-21T13:24:59Z</time>
      </trkpt>
      <trkpt lat="49.84164" lon="2.49478">
        <ele>98</ele>
        <time>2020-10-21T13:25:00Z</time>
      </trkpt>
      <trkpt lat="49.84166" lon="2.49477">
        <ele>98</ele>
        <time>2020-10-21T13:25:01Z</time>
      </trkpt>
      <trkpt lat="49.84166" lon="2.49477">
        <ele>98</ele>
        <time>2020-10-21T13:25:03Z</time>
      </trkpt>
      <trkpt lat="49.84168" lon="2.49475">
        <ele>98</ele>
        <time>2020-10-21T13:25:04Z</time>
      </trkpt>
      <trkpt lat="49.84169" lon="2.49474">
        <ele>98</ele>
        <time>2020-10-21T13:25:05Z</time>
      </trkpt>
      <trkpt lat="49.8417" lon="2.49473">
        <ele>98</ele>
        <time>2020-10-21T13:25:06Z</time>
      </trkpt>
      <trkpt lat="49.84171" lon="2.49472">
        <ele>97.9</ele>
        <time>2020-10-21T13:25:07Z</time>
      </trkpt>
      <trkpt lat="49.84172" lon="2.49471">
        <ele>97.9</ele>
        <time>2020-10-21T13:25:08Z</time>
      </trkpt>
      <trkpt lat="49.84173" lon="2.4947">
        <ele>97.9</ele>
        <time>2020-10-21T13:25:09Z</time>
      </trkpt>
      <trkpt lat="49.84173" lon="2.49469">
        <ele>97.8</ele>
        <time>2020-10-21T13:25:11Z</time>
      </trkpt>
      <trkpt lat="49.84174" lon="2.49468">
        <ele>97.8</ele>
        <time>2020-10-21T13:25:12Z</time>
      </trkpt>
      <trkpt lat="49.84175" lon="2.49467">
        <ele>97.7</ele>
        <time>2020-10-21T13:25:13Z</time>
      </trkpt>
      <trkpt lat="49.84177" lon="2.49465">
        <ele>97.6</ele>
        <time>2020-10-21T13:25:14Z</time>
      </trkpt>
      <trkpt lat="49.84178" lon="2.49465">
        <ele>97.6</ele>
        <time>2020-10-21T13:25:15Z</time>
      </trkpt>
      <trkpt lat="49.84178" lon="2.49464">
        <ele>97.5</ele>
        <time>2020-10-21T13:25:16Z</time>
      </trkpt>
      <trkpt lat="49.84179" lon="2.49463">
        <ele>97.4</ele>
        <time>2020-10-21T13:25:17Z</time>
      </trkpt>
      <trkpt lat="49.8418" lon="2.49462">
        <ele>97.3</ele>
        <time>2020-10-21T13:25:19Z</time>
      </trkpt>
      <trkpt lat="49.84182" lon="2.4946">
        <ele>97.2</ele>
        <time>2020-10-21T13:25:20Z</time>
      </trkpt>
      <trkpt lat="49.84183" lon="2.49459">
        <ele>97.2</ele>
        <time>2020-10-21T13:25:21Z</time>
      </trkpt>
      <trkpt lat="49.84184" lon="2.49458">
        <ele>97.2</ele>
        <time>2020-10-21T13:25:22Z</time>
      </trkpt>
      <trkpt lat="49.84185" lon="2.49456">
        <ele>97.2</ele>
        <time>2020-10-21T13:25:24Z</time>
      </trkpt>
      <trkpt lat="49.84187" lon="2.49454">
        <ele>97.3</ele>
        <time>2020-10-21T13:25:25Z</time>
      </trkpt>
      <trkpt lat="49.84187" lon="2.49454">
        <ele>97.3</ele>
        <time>2020-10-21T13:25:26Z</time>
      </trkpt>
      <trkpt lat="49.84188" lon="2.49453">
        <ele>97.3</ele>
        <time>2020-10-21T13:25:27Z</time>
      </trkpt>
      <trkpt lat="49.84189" lon="2.49452">
        <ele>97.3</ele>
        <time>2020-10-21T13:25:28Z</time>
      </trkpt>
      <trkpt lat="49.8419" lon="2.4945">
        <ele>97.3</ele>
        <time>2020-10-21T13:25:29Z</time>
      </trkpt>
      <trkpt lat="49.84191" lon="2.49449">
        <ele>97.3</ele>
        <time>2020-10-21T13:25:31Z</time>
      </trkpt>
      <trkpt lat="49.84192" lon="2.49449">
        <ele>97.3</ele>
        <time>2020-10-21T13:25:32Z</time>
      </trkpt>
      <trkpt lat="49.84193" lon="2.49448">
        <ele>97.3</ele>
        <time>2020-10-21T13:25:33Z</time>
      </trkpt>
      <trkpt lat="49.84194" lon="2.49446">
        <ele>97.3</ele>
        <time>2020-10-21T13:25:34Z</time>
      </trkpt>
      <trkpt lat="49.84195" lon="2.49445">
        <ele>97.3</ele>
        <time>2020-10-21T13:25:35Z</time>
      </trkpt>
      <trkpt lat="49.84195" lon="2.49444">
        <ele>97.3</ele>
        <time>2020-10-21T13:25:37Z</time>
      </trkpt>
      <trkpt lat="49.84196" lon="2.49443">
        <ele>97.3</ele>
        <time>2020-10-21T13:25:38Z</time>
      </trkpt>
      <trkpt lat="49.84198" lon="2.49442">
        <ele>97.3</ele>
        <time>2020-10-21T13:25:39Z</time>
      </trkpt>
      <trkpt lat="49.84198" lon="2.49441">
        <ele>97.3</ele>
        <time>2020-10-21T13:25:40Z</time>
      </trkpt>
      <trkpt lat="49.84199" lon="2.4944">
        <ele>97.4</ele>
        <time>2020-10-21T13:25:41Z</time>
      </trkpt>
      <trkpt lat="49.842" lon="2.49439">
        <ele>97.4</ele>
        <time>2020-10-21T13:25:42Z</time>
      </trkpt>
      <trkpt lat="49.84202" lon="2.49437">
        <ele>97.4</ele>
        <time>2020-10-21T13:25:44Z</time>
      </trkpt>
      <trkpt lat="49.84204" lon="2.49435">
        <ele>97.4</ele>
        <time>2020-10-21T13:25:45Z</time>
      </trkpt>
      <trkpt lat="49.84205" lon="2.49434">
        <ele>97.5</ele>
        <time>2020-10-21T13:25:47Z</time>
      </trkpt>
      <trkpt lat="49.84205" lon="2.49434">
        <ele>97.5</ele>
        <time>2020-10-21T13:25:48Z</time>
      </trkpt>
      <trkpt lat="49.84207" lon="2.49432">
        <ele>97.5</ele>
        <time>2020-10-21T13:25:49Z</time>
      </trkpt>
      <trkpt lat="49.84208" lon="2.49431">
        <ele>97.5</ele>
        <time>2020-10-21T13:25:50Z</time>
      </trkpt>
      <trkpt lat="49.84209" lon="2.4943">
        <ele>97.5</ele>
        <time>2020-10-21T13:25:51Z</time>
      </trkpt>
      <trkpt lat="49.8421" lon="2.49429">
        <ele>97.6</ele>
        <time>2020-10-21T13:25:52Z</time>
      </trkpt>
      <trkpt lat="49.84212" lon="2.49428">
        <ele>97.6</ele>
        <time>2020-10-21T13:25:54Z</time>
      </trkpt>
      <trkpt lat="49.84213" lon="2.49427">
        <ele>97.6</ele>
        <time>2020-10-21T13:25:55Z</time>
      </trkpt>
      <trkpt lat="49.84214" lon="2.49426">
        <ele>97.6</ele>
        <time>2020-10-21T13:25:56Z</time>
      </trkpt>
      <trkpt lat="49.84215" lon="2.49425">
        <ele>97.6</ele>
        <time>2020-10-21T13:25:57Z</time>
      </trkpt>
      <trkpt lat="49.84216" lon="2.49424">
        <ele>97.7</ele>
        <time>2020-10-21T13:25:58Z</time>
      </trkpt>
      <trkpt lat="49.84217" lon="2.49423">
        <ele>97.7</ele>
        <time>2020-10-21T13:25:59Z</time>
      </trkpt>
      <trkpt lat="49.84218" lon="2.49421">
        <ele>97.7</ele>
        <time>2020-10-21T13:26:01Z</time>
      </trkpt>
      <trkpt lat="49.84219" lon="2.49421">
        <ele>97.7</ele>
        <time>2020-10-21T13:26:02Z</time>
      </trkpt>
      <trkpt lat="49.8422" lon="2.4942">
        <ele>97.7</ele>
        <time>2020-10-21T13:26:03Z</time>
      </trkpt>
      <trkpt lat="49.84221" lon="2.49419">
        <ele>97.8</ele>
        <time>2020-10-21T13:26:04Z</time>
      </trkpt>
      <trkpt lat="49.84222" lon="2.49418">
        <ele>97.8</ele>
        <time>2020-10-21T13:26:05Z</time>
      </trkpt>
      <trkpt lat="49.84223" lon="2.49417">
        <ele>97.8</ele>
        <time>2020-10-21T13:26:06Z</time>
      </trkpt>
      <trkpt lat="49.84225" lon="2.49416">
        <ele>97.9</ele>
        <time>2020-10-21T13:26:07Z</time>
      </trkpt>
      <trkpt lat="49.84225" lon="2.49415">
        <ele>97.9</ele>
        <time>2020-10-21T13:26:09Z</time>
      </trkpt>
      <trkpt lat="49.84226" lon="2.49414">
        <ele>97.9</ele>
        <time>2020-10-21T13:26:10Z</time>
      </trkpt>
      <trkpt lat="49.84227" lon="2.49413">
        <ele>97.9</ele>
        <time>2020-10-21T13:26:11Z</time>
      </trkpt>
      <trkpt lat="49.84228" lon="2.49412">
        <ele>98</ele>
        <time>2020-10-21T13:26:12Z</time>
      </trkpt>
      <trkpt lat="49.84229" lon="2.49411">
        <ele>98</ele>
        <time>2020-10-21T13:26:13Z</time>
      </trkpt>
      <trkpt lat="49.8423" lon="2.4941">
        <ele>98</ele>
        <time>2020-10-21T13:26:15Z</time>
      </trkpt>
      <trkpt lat="49.84231" lon="2.49409">
        <ele>98</ele>
        <time>2020-10-21T13:26:16Z</time>
      </trkpt>
      <trkpt lat="49.84231" lon="2.49407">
        <ele>98.1</ele>
        <time>2020-10-21T13:26:17Z</time>
      </trkpt>
      <trkpt lat="49.84232" lon="2.49406">
        <ele>98.1</ele>
        <time>2020-10-21T13:26:18Z</time>
      </trkpt>
      <trkpt lat="49.84234" lon="2.49404">
        <ele>98.2</ele>
        <time>2020-10-21T13:26:19Z</time>
      </trkpt>
      <trkpt lat="49.84235" lon="2.49402">
        <ele>98.2</ele>
        <time>2020-10-21T13:26:20Z</time>
      </trkpt>
      <trkpt lat="49.84235" lon="2.49401">
        <ele>98.2</ele>
        <time>2020-10-21T13:26:21Z</time>
      </trkpt>
      <trkpt lat="49.84235" lon="2.494">
        <ele>98.2</ele>
        <time>2020-10-21T13:26:23Z</time>
      </trkpt>
      <trkpt lat="49.84236" lon="2.49399">
        <ele>98.2</ele>
        <time>2020-10-21T13:26:24Z</time>
      </trkpt>
      <trkpt lat="49.84238" lon="2.49397">
        <ele>98.3</ele>
        <time>2020-10-21T13:26:25Z</time>
      </trkpt>
      <trkpt lat="49.84238" lon="2.49396">
        <ele>98.3</ele>
        <time>2020-10-21T13:26:26Z</time>
      </trkpt>
      <trkpt lat="49.84239" lon="2.49395">
        <ele>98.3</ele>
        <time>2020-10-21T13:26:27Z</time>
      </trkpt>
      <trkpt lat="49.8424" lon="2.49394">
        <ele>98.3</ele>
        <time>2020-10-21T13:26:28Z</time>
      </trkpt>
      <trkpt lat="49.84241" lon="2.49393">
        <ele>98.3</ele>
        <time>2020-10-21T13:26:29Z</time>
      </trkpt>
      <trkpt lat="49.84242" lon="2.49392">
        <ele>98.4</ele>
        <time>2020-10-21T13:26:31Z</time>
      </trkpt>
      <trkpt lat="49.84243" lon="2.49391">
        <ele>98.4</ele>
        <time>2020-10-21T13:26:32Z</time>
      </trkpt>
      <trkpt lat="49.84244" lon="2.4939">
        <ele>98.4</ele>
        <time>2020-10-21T13:26:33Z</time>
      </trkpt>
      <trkpt lat="49.84246" lon="2.49388">
        <ele>98.4</ele>
        <time>2020-10-21T13:26:35Z</time>
      </trkpt>
      <trkpt lat="49.84247" lon="2.49387">
        <ele>98.4</ele>
        <time>2020-10-21T13:26:36Z</time>
      </trkpt>
      <trkpt lat="49.84249" lon="2.49384">
        <ele>98.5</ele>
        <time>2020-10-21T13:26:37Z</time>
      </trkpt>
      <trkpt lat="49.8425" lon="2.49384">
        <ele>98.5</ele>
        <time>2020-10-21T13:26:38Z</time>
      </trkpt>
      <trkpt lat="49.8425" lon="2.49383">
        <ele>98.5</ele>
        <time>2020-10-21T13:26:39Z</time>
      </trkpt>
      <trkpt lat="49.84251" lon="2.49382">
        <ele>98.5</ele>
        <time>2020-10-21T13:26:40Z</time>
      </trkpt>
      <trkpt lat="49.84252" lon="2.49381">
        <ele>98.5</ele>
        <time>2020-10-21T13:26:42Z</time>
      </trkpt>
      <trkpt lat="49.84253" lon="2.4938">
        <ele>98.5</ele>
        <time>2020-10-21T13:26:43Z</time>
      </trkpt>
      <trkpt lat="49.84254" lon="2.49378">
        <ele>98.5</ele>
        <time>2020-10-21T13:26:44Z</time>
      </trkpt>
      <trkpt lat="49.84255" lon="2.49377">
        <ele>98.5</ele>
        <time>2020-10-21T13:26:45Z</time>
      </trkpt>
      <trkpt lat="49.84256" lon="2.49376">
        <ele>98.5</ele>
        <time>2020-10-21T13:26:46Z</time>
      </trkpt>
      <trkpt lat="49.84258" lon="2.49374">
        <ele>98.6</ele>
        <time>2020-10-21T13:26:47Z</time>
      </trkpt>
      <trkpt lat="49.84258" lon="2.49373">
        <ele>98.6</ele>
        <time>2020-10-21T13:26:48Z</time>
      </trkpt>
      <trkpt lat="49.84259" lon="2.49372">
        <ele>98.6</ele>
        <time>2020-10-21T13:26:49Z</time>
      </trkpt>
      <trkpt lat="49.84261" lon="2.49371">
        <ele>98.6</ele>
        <time>2020-10-21T13:26:51Z</time>
      </trkpt>
      <trkpt lat="49.84262" lon="2.4937">
        <ele>98.6</ele>
        <time>2020-10-21T13:26:52Z</time>
      </trkpt>
      <trkpt lat="49.84263" lon="2.49369">
        <ele>98.6</ele>
        <time>2020-10-21T13:26:53Z</time>
      </trkpt>
      <trkpt lat="49.84264" lon="2.49368">
        <ele>98.6</ele>
        <time>2020-10-21T13:26:54Z</time>
      </trkpt>
      <trkpt lat="49.84266" lon="2.49367">
        <ele>98.6</ele>
        <time>2020-10-21T13:26:55Z</time>
      </trkpt>
      <trkpt lat="49.84266" lon="2.49366">
        <ele>98.7</ele>
        <time>2020-10-21T13:26:56Z</time>
      </trkpt>
      <trkpt lat="49.84268" lon="2.49365">
        <ele>98.7</ele>
        <time>2020-10-21T13:26:57Z</time>
      </trkpt>
      <trkpt lat="49.84269" lon="2.49364">
        <ele>98.7</ele>
        <time>2020-10-21T13:26:58Z</time>
      </trkpt>
      <trkpt lat="49.84271" lon="2.49363">
        <ele>98.7</ele>
        <time>2020-10-21T13:26:59Z</time>
      </trkpt>
      <trkpt lat="49.84272" lon="2.49361">
        <ele>98.7</ele>
        <time>2020-10-21T13:27:01Z</time>
      </trkpt>
      <trkpt lat="49.84273" lon="2.4936">
        <ele>98.7</ele>
        <time>2020-10-21T13:27:02Z</time>
      </trkpt>
      <trkpt lat="49.84274" lon="2.49359">
        <ele>98.7</ele>
        <time>2020-10-21T13:27:03Z</time>
      </trkpt>
      <trkpt lat="49.84277" lon="2.49356">
        <ele>98.8</ele>
        <time>2020-10-21T13:27:04Z</time>
      </trkpt>
      <trkpt lat="49.84278" lon="2.49356">
        <ele>98.8</ele>
        <time>2020-10-21T13:27:05Z</time>
      </trkpt>
      <trkpt lat="49.84278" lon="2.49355">
        <ele>98.8</ele>
        <time>2020-10-21T13:27:07Z</time>
      </trkpt>
      <trkpt lat="49.84279" lon="2.49354">
        <ele>98.8</ele>
        <time>2020-10-21T13:27:08Z</time>
      </trkpt>
      <trkpt lat="49.8428" lon="2.49353">
        <ele>98.8</ele>
        <time>2020-10-21T13:27:09Z</time>
      </trkpt>
      <trkpt lat="49.84281" lon="2.49352">
        <ele>98.8</ele>
        <time>2020-10-21T13:27:10Z</time>
      </trkpt>
      <trkpt lat="49.84281" lon="2.49351">
        <ele>98.8</ele>
        <time>2020-10-21T13:27:11Z</time>
      </trkpt>
      <trkpt lat="49.84282" lon="2.4935">
        <ele>98.8</ele>
        <time>2020-10-21T13:27:12Z</time>
      </trkpt>
      <trkpt lat="49.84283" lon="2.49349">
        <ele>98.8</ele>
        <time>2020-10-21T13:27:13Z</time>
      </trkpt>
      <trkpt lat="49.84285" lon="2.49347">
        <ele>98.8</ele>
        <time>2020-10-21T13:27:15Z</time>
      </trkpt>
      <trkpt lat="49.84286" lon="2.49347">
        <ele>98.8</ele>
        <time>2020-10-21T13:27:16Z</time>
      </trkpt>
      <trkpt lat="49.84286" lon="2.49346">
        <ele>98.8</ele>
        <time>2020-10-21T13:27:17Z</time>
      </trkpt>
      <trkpt lat="49.84288" lon="2.49344">
        <ele>98.8</ele>
        <time>2020-10-21T13:27:18Z</time>
      </trkpt>
      <trkpt lat="49.84289" lon="2.49343">
        <ele>98.7</ele>
        <time>2020-10-21T13:27:19Z</time>
      </trkpt>
      <trkpt lat="49.8429" lon="2.49341">
        <ele>98.7</ele>
        <time>2020-10-21T13:27:21Z</time>
      </trkpt>
      <trkpt lat="49.84291" lon="2.4934">
        <ele>98.7</ele>
        <time>2020-10-21T13:27:22Z</time>
      </trkpt>
      <trkpt lat="49.84292" lon="2.49339">
        <ele>98.7</ele>
        <time>2020-10-21T13:27:23Z</time>
      </trkpt>
      <trkpt lat="49.84294" lon="2.49338">
        <ele>98.7</ele>
        <time>2020-10-21T13:27:25Z</time>
      </trkpt>
      <trkpt lat="49.84294" lon="2.49337">
        <ele>98.7</ele>
        <time>2020-10-21T13:27:26Z</time>
      </trkpt>
      <trkpt lat="49.84295" lon="2.49336">
        <ele>98.7</ele>
        <time>2020-10-21T13:27:27Z</time>
      </trkpt>
      <trkpt lat="49.84296" lon="2.49335">
        <ele>98.7</ele>
        <time>2020-10-21T13:27:28Z</time>
      </trkpt>
      <trkpt lat="49.84299" lon="2.49332">
        <ele>98.7</ele>
        <time>2020-10-21T13:27:30Z</time>
      </trkpt>
      <trkpt lat="49.843" lon="2.49332">
        <ele>98.7</ele>
        <time>2020-10-21T13:27:32Z</time>
      </trkpt>
      <trkpt lat="49.84301" lon="2.49331">
        <ele>98.7</ele>
        <time>2020-10-21T13:27:33Z</time>
      </trkpt>
      <trkpt lat="49.84303" lon="2.49329">
        <ele>98.7</ele>
        <time>2020-10-21T13:27:34Z</time>
      </trkpt>
      <trkpt lat="49.84303" lon="2.49329">
        <ele>98.7</ele>
        <time>2020-10-21T13:27:35Z</time>
      </trkpt>
      <trkpt lat="49.84304" lon="2.49328">
        <ele>98.7</ele>
        <time>2020-10-21T13:27:36Z</time>
      </trkpt>
      <trkpt lat="49.84305" lon="2.49327">
        <ele>98.7</ele>
        <time>2020-10-21T13:27:38Z</time>
      </trkpt>
      <trkpt lat="49.84306" lon="2.49325">
        <ele>98.7</ele>
        <time>2020-10-21T13:27:39Z</time>
      </trkpt>
      <trkpt lat="49.84307" lon="2.49324">
        <ele>98.7</ele>
        <time>2020-10-21T13:27:40Z</time>
      </trkpt>
      <trkpt lat="49.84308" lon="2.49323">
        <ele>98.7</ele>
        <time>2020-10-21T13:27:41Z</time>
      </trkpt>
      <trkpt lat="49.84309" lon="2.49322">
        <ele>98.7</ele>
        <time>2020-10-21T13:27:42Z</time>
      </trkpt>
      <trkpt lat="49.8431" lon="2.49321">
        <ele>98.7</ele>
        <time>2020-10-21T13:27:43Z</time>
      </trkpt>
      <trkpt lat="49.84311" lon="2.4932">
        <ele>98.7</ele>
        <time>2020-10-21T13:27:44Z</time>
      </trkpt>
      <trkpt lat="49.84311" lon="2.49319">
        <ele>98.7</ele>
        <time>2020-10-21T13:27:46Z</time>
      </trkpt>
      <trkpt lat="49.84312" lon="2.49318">
        <ele>98.7</ele>
        <time>2020-10-21T13:27:47Z</time>
      </trkpt>
      <trkpt lat="49.84313" lon="2.49317">
        <ele>98.7</ele>
        <time>2020-10-21T13:27:48Z</time>
      </trkpt>
      <trkpt lat="49.84314" lon="2.49316">
        <ele>98.7</ele>
        <time>2020-10-21T13:27:49Z</time>
      </trkpt>
      <trkpt lat="49.84315" lon="2.49315">
        <ele>98.7</ele>
        <time>2020-10-21T13:27:50Z</time>
      </trkpt>
      <trkpt lat="49.84316" lon="2.49314">
        <ele>98.7</ele>
        <time>2020-10-21T13:27:51Z</time>
      </trkpt>
      <trkpt lat="49.84317" lon="2.49314">
        <ele>98.6</ele>
        <time>2020-10-21T13:27:53Z</time>
      </trkpt>
      <trkpt lat="49.84318" lon="2.49313">
        <ele>98.6</ele>
        <time>2020-10-21T13:27:54Z</time>
      </trkpt>
      <trkpt lat="49.84319" lon="2.49311">
        <ele>98.6</ele>
        <time>2020-10-21T13:27:55Z</time>
      </trkpt>
      <trkpt lat="49.8432" lon="2.4931">
        <ele>98.6</ele>
        <time>2020-10-21T13:27:56Z</time>
      </trkpt>
      <trkpt lat="49.84321" lon="2.49309">
        <ele>98.5</ele>
        <time>2020-10-21T13:27:57Z</time>
      </trkpt>
      <trkpt lat="49.84322" lon="2.49308">
        <ele>98.6</ele>
        <time>2020-10-21T13:27:58Z</time>
      </trkpt>
      <trkpt lat="49.84323" lon="2.49307">
        <ele>98.8</ele>
        <time>2020-10-21T13:28:00Z</time>
      </trkpt>
      <trkpt lat="49.84324" lon="2.49307">
        <ele>98.8</ele>
        <time>2020-10-21T13:28:01Z</time>
      </trkpt>
      <trkpt lat="49.84324" lon="2.49305">
        <ele>98.9</ele>
        <time>2020-10-21T13:28:03Z</time>
      </trkpt>
      <trkpt lat="49.84325" lon="2.49303">
        <ele>99</ele>
        <time>2020-10-21T13:28:04Z</time>
      </trkpt>
      <trkpt lat="49.84325" lon="2.49302">
        <ele>99</ele>
        <time>2020-10-21T13:28:05Z</time>
      </trkpt>
      <trkpt lat="49.84327" lon="2.49301">
        <ele>99.1</ele>
        <time>2020-10-21T13:28:07Z</time>
      </trkpt>
      <trkpt lat="49.84327" lon="2.493">
        <ele>99.2</ele>
        <time>2020-10-21T13:28:08Z</time>
      </trkpt>
      <trkpt lat="49.84328" lon="2.493">
        <ele>99.2</ele>
        <time>2020-10-21T13:28:10Z</time>
      </trkpt>
      <trkpt lat="49.84329" lon="2.49301">
        <ele>99.3</ele>
        <time>2020-10-21T13:28:12Z</time>
      </trkpt>
      <trkpt lat="49.84329" lon="2.49302">
        <ele>99.3</ele>
        <time>2020-10-21T13:28:15Z</time>
      </trkpt>
      <trkpt lat="49.84329" lon="2.49302">
        <ele>99.3</ele>
        <time>2020-10-21T13:28:16Z</time>
      </trkpt>
      <trkpt lat="49.84329" lon="2.49302">
        <ele>99.3</ele>
        <time>2020-10-21T13:28:18Z</time>
      </trkpt>
      <trkpt lat="49.84329" lon="2.49302">
        <ele>99.3</ele>
        <time>2020-10-21T13:28:20Z</time>
      </trkpt>
      <trkpt lat="49.84329" lon="2.49302">
        <ele>99.3</ele>
        <time>2020-10-21T13:28:21Z</time>
      </trkpt>
      <trkpt lat="49.84329" lon="2.49302">
        <ele>99.3</ele>
        <time>2020-10-21T13:28:22Z</time>
      </trkpt>
      <trkpt lat="49.84329" lon="2.49302">
        <ele>99.3</ele>
        <time>2020-10-21T13:28:24Z</time>
      </trkpt>
      <trkpt lat="49.84329" lon="2.49302">
        <ele>99.3</ele>
        <time>2020-10-21T13:28:26Z</time>
      </trkpt>
      <trkpt lat="49.84329" lon="2.49302">
        <ele>99.3</ele>
        <time>2020-10-21T13:28:28Z</time>
      </trkpt>
      <trkpt lat="49.84329" lon="2.49302">
        <ele>99.3</ele>
        <time>2020-10-21T13:28:29Z</time>
      </trkpt>
      <trkpt lat="49.84329" lon="2.49302">
        <ele>99.3</ele>
        <time>2020-10-21T13:28:31Z</time>
      </trkpt>
      <trkpt lat="49.84329" lon="2.49302">
        <ele>99.3</ele>
        <time>2020-10-21T13:28:32Z</time>
      </trkpt>
      <trkpt lat="49.84328" lon="2.49302">
        <ele>99.4</ele>
        <time>2020-10-21T13:28:34Z</time>
      </trkpt>
      <trkpt lat="49.84328" lon="2.49302">
        <ele>99.4</ele>
        <time>2020-10-21T13:28:36Z</time>
      </trkpt>
      <trkpt lat="49.84328" lon="2.49302">
        <ele>99.4</ele>
        <time>2020-10-21T13:28:37Z</time>
      </trkpt>
      <trkpt lat="49.84328" lon="2.49302">
        <ele>99.4</ele>
        <time>2020-10-21T13:28:39Z</time>
      </trkpt>
      <trkpt lat="49.84328" lon="2.49302">
        <ele>99.4</ele>
        <time>2020-10-21T13:28:40Z</time>
      </trkpt>
      <trkpt lat="49.84328" lon="2.49302">
        <ele>99.4</ele>
        <time>2020-10-21T13:28:42Z</time>
      </trkpt>
      <trkpt lat="49.84328" lon="2.49302">
        <ele>99.4</ele>
        <time>2020-10-21T13:28:44Z</time>
      </trkpt>
      <trkpt lat="49.84328" lon="2.49302">
        <ele>99.4</ele>
        <time>2020-10-21T13:28:45Z</time>
      </trkpt>
      <trkpt lat="49.84328" lon="2.49302">
        <ele>99.4</ele>
        <time>2020-10-21T13:28:47Z</time>
      </trkpt>
      <trkpt lat="49.84328" lon="2.49302">
        <ele>99.4</ele>
        <time>2020-10-21T13:28:49Z</time>
      </trkpt>
      <trkpt lat="49.84328" lon="2.49302">
        <ele>99.4</ele>
        <time>2020-10-21T13:28:50Z</time>
      </trkpt>
      <trkpt lat="49.84328" lon="2.49302">
        <ele>99.4</ele>
        <time>2020-10-21T13:28:51Z</time>
      </trkpt>
      <trkpt lat="49.84328" lon="2.49302">
        <ele>99.4</ele>
        <time>2020-10-21T13:28:53Z</time>
      </trkpt>
      <trkpt lat="49.84328" lon="2.49302">
        <ele>99.4</ele>
        <time>2020-10-21T13:28:54Z</time>
      </trkpt>
      <trkpt lat="49.84328" lon="2.49302">
        <ele>99.4</ele>
        <time>2020-10-21T13:28:56Z</time>
      </trkpt>
      <trkpt lat="49.84328" lon="2.49302">
        <ele>99.4</ele>
        <time>2020-10-21T13:28:58Z</time>
      </trkpt>
      <trkpt lat="49.84328" lon="2.49302">
        <ele>99.4</ele>
        <time>2020-10-21T13:29:00Z</time>
      </trkpt>
      <trkpt lat="49.84328" lon="2.49302">
        <ele>99.4</ele>
        <time>2020-10-21T13:29:02Z</time>
      </trkpt>
      <trkpt lat="49.84328" lon="2.49302">
        <ele>99.4</ele>
        <time>2020-10-21T13:29:03Z</time>
      </trkpt>
      <trkpt lat="49.84328" lon="2.49302">
        <ele>99.4</ele>
        <time>2020-10-21T13:29:05Z</time>
      </trkpt>
      <trkpt lat="49.84328" lon="2.49302">
        <ele>99.4</ele>
        <time>2020-10-21T13:29:06Z</time>
      </trkpt>
      <trkpt lat="49.84328" lon="2.49302">
        <ele>99.4</ele>
        <time>2020-10-21T13:29:07Z</time>
      </trkpt>
      <trkpt lat="49.84328" lon="2.49302">
        <ele>99.4</ele>
        <time>2020-10-21T13:29:09Z</time>
      </trkpt>
      <trkpt lat="49.84328" lon="2.49302">
        <ele>99.4</ele>
        <time>2020-10-21T13:29:10Z</time>
      </trkpt>
      <trkpt lat="49.84328" lon="2.49302">
        <ele>99.4</ele>
        <time>2020-10-21T13:29:12Z</time>
      </trkpt>
      <trkpt lat="49.84328" lon="2.49302">
        <ele>99.4</ele>
        <time>2020-10-21T13:29:14Z</time>
      </trkpt>
      <trkpt lat="49.84328" lon="2.49302">
        <ele>99.4</ele>
        <time>2020-10-21T13:29:15Z</time>
      </trkpt>
      <trkpt lat="49.84328" lon="2.49302">
        <ele>99.4</ele>
        <time>2020-10-21T13:29:17Z</time>
      </trkpt>
      <trkpt lat="49.84328" lon="2.49302">
        <ele>99.4</ele>
        <time>2020-10-21T13:29:18Z</time>
      </trkpt>
      <trkpt lat="49.84328" lon="2.49302">
        <ele>99.4</ele>
        <time>2020-10-21T13:29:19Z</time>
      </trkpt>
      <trkpt lat="49.84328" lon="2.49302">
        <ele>99.4</ele>
        <time>2020-10-21T13:29:21Z</time>
      </trkpt>
      <trkpt lat="49.84328" lon="2.49302">
        <ele>99.4</ele>
        <time>2020-10-21T13:29:23Z</time>
      </trkpt>
      <trkpt lat="49.84328" lon="2.49302">
        <ele>99.4</ele>
        <time>2020-10-21T13:29:24Z</time>
      </trkpt>
      <trkpt lat="49.84328" lon="2.49302">
        <ele>99.4</ele>
        <time>2020-10-21T13:29:26Z</time>
      </trkpt>
      <trkpt lat="49.84328" lon="2.49302">
        <ele>99.4</ele>
        <time>2020-10-21T13:29:28Z</time>
      </trkpt>
      <trkpt lat="49.84328" lon="2.49302">
        <ele>99.4</ele>
        <time>2020-10-21T13:29:29Z</time>
      </trkpt>
      <trkpt lat="49.84328" lon="2.49302">
        <ele>99.4</ele>
        <time>2020-10-21T13:29:30Z</time>
      </trkpt>
      <trkpt lat="49.84328" lon="2.49302">
        <ele>99.4</ele>
        <time>2020-10-21T13:29:32Z</time>
      </trkpt>
      <trkpt lat="49.84328" lon="2.49302">
        <ele>99.4</ele>
        <time>2020-10-21T13:29:33Z</time>
      </trkpt>
      <trkpt lat="49.84328" lon="2.49302">
        <ele>99.4</ele>
        <time>2020-10-21T13:29:35Z</time>
      </trkpt>
      <trkpt lat="49.84328" lon="2.49302">
        <ele>99.4</ele>
        <time>2020-10-21T13:29:37Z</time>
      </trkpt>
      <trkpt lat="49.84328" lon="2.49302">
        <ele>99.4</ele>
        <time>2020-10-21T13:29:39Z</time>
      </trkpt>
      <trkpt lat="49.84328" lon="2.49302">
        <ele>99.4</ele>
        <time>2020-10-21T13:29:41Z</time>
      </trkpt>
      <trkpt lat="49.84328" lon="2.49302">
        <ele>99.4</ele>
        <time>2020-10-21T13:29:43Z</time>
      </trkpt>
      <trkpt lat="49.84328" lon="2.49302">
        <ele>99.4</ele>
        <time>2020-10-21T13:29:45Z</time>
      </trkpt>
      <trkpt lat="49.84328" lon="2.49302">
        <ele>99.4</ele>
        <time>2020-10-21T13:29:46Z</time>
      </trkpt>
      <trkpt lat="49.84328" lon="2.49302">
        <ele>99.4</ele>
        <time>2020-10-21T13:29:48Z</time>
      </trkpt>
      <trkpt lat="49.84328" lon="2.49302">
        <ele>99.4</ele>
        <time>2020-10-21T13:29:49Z</time>
      </trkpt>
      <trkpt lat="49.84328" lon="2.49302">
        <ele>99.4</ele>
        <time>2020-10-21T13:29:50Z</time>
      </trkpt>
      <trkpt lat="49.84326" lon="2.49304">
        <ele>99.4</ele>
        <time>2020-10-21T13:29:52Z</time>
      </trkpt>
      <trkpt lat="49.84325" lon="2.49305">
        <ele>99.4</ele>
        <time>2020-10-21T13:29:53Z</time>
      </trkpt>
      <trkpt lat="49.84324" lon="2.49306">
        <ele>99.4</ele>
        <time>2020-10-21T13:29:55Z</time>
      </trkpt>
      <trkpt lat="49.84324" lon="2.49306">
        <ele>99.4</ele>
        <time>2020-10-21T13:29:56Z</time>
      </trkpt>
      <trkpt lat="49.84324" lon="2.49307">
        <ele>99.4</ele>
        <time>2020-10-21T13:29:58Z</time>
      </trkpt>
      <trkpt lat="49.84324" lon="2.49306">
        <ele>99.4</ele>
        <time>2020-10-21T13:29:59Z</time>
      </trkpt>
      <trkpt lat="49.84323" lon="2.49307">
        <ele>99.4</ele>
        <time>2020-10-21T13:30:00Z</time>
      </trkpt>
      <trkpt lat="49.84323" lon="2.49305">
        <ele>99.4</ele>
        <time>2020-10-21T13:30:02Z</time>
      </trkpt>
      <trkpt lat="49.84324" lon="2.49304">
        <ele>99.4</ele>
        <time>2020-10-21T13:30:03Z</time>
      </trkpt>
      <trkpt lat="49.84324" lon="2.49305">
        <ele>99.4</ele>
        <time>2020-10-21T13:30:04Z</time>
      </trkpt>
      <trkpt lat="49.84324" lon="2.49306">
        <ele>99.4</ele>
        <time>2020-10-21T13:30:06Z</time>
      </trkpt>
      <trkpt lat="49.84324" lon="2.49305">
        <ele>99.4</ele>
        <time>2020-10-21T13:30:08Z</time>
      </trkpt>
      <trkpt lat="49.84324" lon="2.49305">
        <ele>99.4</ele>
        <time>2020-10-21T13:30:09Z</time>
      </trkpt>
      <trkpt lat="49.84324" lon="2.49304">
        <ele>99.4</ele>
        <time>2020-10-21T13:30:11Z</time>
      </trkpt>
      <trkpt lat="49.84324" lon="2.49304">
        <ele>99.4</ele>
        <time>2020-10-21T13:30:12Z</time>
      </trkpt>
      <trkpt lat="49.84324" lon="2.49304">
        <ele>99.4</ele>
        <time>2020-10-21T13:30:13Z</time>
      </trkpt>
      <trkpt lat="49.84324" lon="2.49303">
        <ele>99.4</ele>
        <time>2020-10-21T13:30:14Z</time>
      </trkpt>
      <trkpt lat="49.84324" lon="2.49303">
        <ele>99.4</ele>
        <time>2020-10-21T13:30:16Z</time>
      </trkpt>
      <trkpt lat="49.84324" lon="2.49303">
        <ele>99.4</ele>
        <time>2020-10-21T13:30:17Z</time>
      </trkpt>
      <trkpt lat="49.84323" lon="2.49303">
        <ele>99.4</ele>
        <time>2020-10-21T13:30:19Z</time>
      </trkpt>
      <trkpt lat="49.84323" lon="2.49302">
        <ele>99.4</ele>
        <time>2020-10-21T13:30:21Z</time>
      </trkpt>
      <trkpt lat="49.84323" lon="2.49302">
        <ele>99.4</ele>
        <time>2020-10-21T13:30:22Z</time>
      </trkpt>
      <trkpt lat="49.84323" lon="2.49302">
        <ele>99.4</ele>
        <time>2020-10-21T13:30:24Z</time>
      </trkpt>
      <trkpt lat="49.84323" lon="2.49302">
        <ele>99.4</ele>
        <time>2020-10-21T13:30:26Z</time>
      </trkpt>
      <trkpt lat="49.84323" lon="2.49302">
        <ele>99.4</ele>
        <time>2020-10-21T13:30:28Z</time>
      </trkpt>
      <trkpt lat="49.84323" lon="2.49302">
        <ele>99.4</ele>
        <time>2020-10-21T13:30:29Z</time>
      </trkpt>
      <trkpt lat="49.84323" lon="2.49302">
        <ele>99.4</ele>
        <time>2020-10-21T13:30:30Z</time>
      </trkpt>
      <trkpt lat="49.84323" lon="2.49302">
        <ele>99.4</ele>
        <time>2020-10-21T13:30:31Z</time>
      </trkpt>
      <trkpt lat="49.84323" lon="2.49302">
        <ele>99.4</ele>
        <time>2020-10-21T13:30:33Z</time>
      </trkpt>
      <trkpt lat="49.84323" lon="2.49302">
        <ele>99.4</ele>
        <time>2020-10-21T13:30:34Z</time>
      </trkpt>
      <trkpt lat="49.84323" lon="2.49302">
        <ele>99.4</ele>
        <time>2020-10-21T13:30:35Z</time>
      </trkpt>
      <trkpt lat="49.84323" lon="2.49302">
        <ele>99.4</ele>
        <time>2020-10-21T13:30:37Z</time>
      </trkpt>
      <trkpt lat="49.84323" lon="2.49302">
        <ele>99.4</ele>
        <time>2020-10-21T13:30:39Z</time>
      </trkpt>
      <trkpt lat="49.84323" lon="2.49302">
        <ele>99.4</ele>
        <time>2020-10-21T13:30:40Z</time>
      </trkpt>
      <trkpt lat="49.84323" lon="2.49302">
        <ele>99.4</ele>
        <time>2020-10-21T13:30:42Z</time>
      </trkpt>
      <trkpt lat="49.84323" lon="2.49302">
        <ele>99.4</ele>
        <time>2020-10-21T13:30:44Z</time>
      </trkpt>
      <trkpt lat="49.84323" lon="2.49302">
        <ele>99.4</ele>
        <time>2020-10-21T13:30:46Z</time>
      </trkpt>
      <trkpt lat="49.84323" lon="2.49302">
        <ele>99.4</ele>
        <time>2020-10-21T13:30:48Z</time>
      </trkpt>
      <trkpt lat="49.84323" lon="2.49302">
        <ele>99.4</ele>
        <time>2020-10-21T13:30:50Z</time>
      </trkpt>
      <trkpt lat="49.84323" lon="2.49302">
        <ele>99.4</ele>
        <time>2020-10-21T13:30:51Z</time>
      </trkpt>
      <trkpt lat="49.84323" lon="2.49302">
        <ele>99.4</ele>
        <time>2020-10-21T13:30:52Z</time>
      </trkpt>
      <trkpt lat="49.84323" lon="2.49302">
        <ele>99.4</ele>
        <time>2020-10-21T13:30:54Z</time>
      </trkpt>
      <trkpt lat="49.84323" lon="2.49302">
        <ele>99.4</ele>
        <time>2020-10-21T13:30:56Z</time>
      </trkpt>
      <trkpt lat="49.84323" lon="2.49302">
        <ele>99.4</ele>
        <time>2020-10-21T13:30:58Z</time>
      </trkpt>
      <trkpt lat="49.84323" lon="2.49302">
        <ele>99.4</ele>
        <time>2020-10-21T13:30:59Z</time>
      </trkpt>
      <trkpt lat="49.84323" lon="2.49302">
        <ele>99.4</ele>
        <time>2020-10-21T13:31:01Z</time>
      </trkpt>
      <trkpt lat="49.84323" lon="2.49302">
        <ele>99.4</ele>
        <time>2020-10-21T13:31:02Z</time>
      </trkpt>
      <trkpt lat="49.84323" lon="2.49302">
        <ele>99.4</ele>
        <time>2020-10-21T13:31:03Z</time>
      </trkpt>
      <trkpt lat="49.84323" lon="2.49302">
        <ele>99.4</ele>
        <time>2020-10-21T13:31:05Z</time>
      </trkpt>
      <trkpt lat="49.84323" lon="2.49302">
        <ele>99.4</ele>
        <time>2020-10-21T13:31:07Z</time>
      </trkpt>
      <trkpt lat="49.84323" lon="2.49302">
        <ele>99.4</ele>
        <time>2020-10-21T13:31:09Z</time>
      </trkpt>
      <trkpt lat="49.84323" lon="2.49302">
        <ele>99.4</ele>
        <time>2020-10-21T13:31:10Z</time>
      </trkpt>
      <trkpt lat="49.84323" lon="2.49302">
        <ele>99.4</ele>
        <time>2020-10-21T13:31:11Z</time>
      </trkpt>
      <trkpt lat="49.84323" lon="2.49302">
        <ele>99.4</ele>
        <time>2020-10-21T13:31:12Z</time>
      </trkpt>
      <trkpt lat="49.84323" lon="2.49302">
        <ele>99.4</ele>
        <time>2020-10-21T13:31:14Z</time>
      </trkpt>
      <trkpt lat="49.84323" lon="2.49302">
        <ele>99.4</ele>
        <time>2020-10-21T13:31:15Z</time>
      </trkpt>
      <trkpt lat="49.84323" lon="2.49302">
        <ele>99.4</ele>
        <time>2020-10-21T13:31:16Z</time>
      </trkpt>
      <trkpt lat="49.84323" lon="2.49302">
        <ele>99.4</ele>
        <time>2020-10-21T13:31:17Z</time>
      </trkpt>
      <trkpt lat="49.84323" lon="2.49302">
        <ele>99.4</ele>
        <time>2020-10-21T13:31:18Z</time>
      </trkpt>
      <trkpt lat="49.84323" lon="2.49302">
        <ele>99.4</ele>
        <time>2020-10-21T13:31:20Z</time>
      </trkpt>
      <trkpt lat="49.84323" lon="2.49302">
        <ele>99.4</ele>
        <time>2020-10-21T13:31:22Z</time>
      </trkpt>
      <trkpt lat="49.84323" lon="2.49302">
        <ele>99.4</ele>
        <time>2020-10-21T13:31:24Z</time>
      </trkpt>
      <trkpt lat="49.84323" lon="2.49302">
        <ele>99.4</ele>
        <time>2020-10-21T13:31:26Z</time>
      </trkpt>
      <trkpt lat="49.84323" lon="2.49302">
        <ele>99.4</ele>
        <time>2020-10-21T13:31:27Z</time>
      </trkpt>
      <trkpt lat="49.84323" lon="2.49302">
        <ele>99.4</ele>
        <time>2020-10-21T13:31:28Z</time>
      </trkpt>
      <trkpt lat="49.84323" lon="2.49302">
        <ele>99.4</ele>
        <time>2020-10-21T13:31:30Z</time>
      </trkpt>
      <trkpt lat="49.84322" lon="2.49299">
        <ele>99.4</ele>
        <time>2020-10-21T13:31:32Z</time>
      </trkpt>
      <trkpt lat="49.84322" lon="2.49298">
        <ele>99.4</ele>
        <time>2020-10-21T13:31:33Z</time>
      </trkpt>
      <trkpt lat="49.84322" lon="2.49298">
        <ele>99.4</ele>
        <time>2020-10-21T13:31:35Z</time>
      </trkpt>
      <trkpt lat="49.84322" lon="2.49298">
        <ele>99.4</ele>
        <time>2020-10-21T13:31:37Z</time>
      </trkpt>
      <trkpt lat="49.84321" lon="2.49298">
        <ele>99.4</ele>
        <time>2020-10-21T13:31:38Z</time>
      </trkpt>
      <trkpt lat="49.84321" lon="2.49298">
        <ele>99.4</ele>
        <time>2020-10-21T13:31:40Z</time>
      </trkpt>
      <trkpt lat="49.84321" lon="2.49298">
        <ele>99.4</ele>
        <time>2020-10-21T13:31:42Z</time>
      </trkpt>
      <trkpt lat="49.84321" lon="2.49298">
        <ele>99.4</ele>
        <time>2020-10-21T13:31:43Z</time>
      </trkpt>
      <trkpt lat="49.84321" lon="2.49298">
        <ele>99.4</ele>
        <time>2020-10-21T13:31:44Z</time>
      </trkpt>
      <trkpt lat="49.84321" lon="2.49298">
        <ele>99.4</ele>
        <time>2020-10-21T13:31:46Z</time>
      </trkpt>
      <trkpt lat="49.84321" lon="2.49298">
        <ele>99.4</ele>
        <time>2020-10-21T13:31:48Z</time>
      </trkpt>
      <trkpt lat="49.84322" lon="2.49298">
        <ele>99.4</ele>
        <time>2020-10-21T13:31:50Z</time>
      </trkpt>
      <trkpt lat="49.84322" lon="2.49298">
        <ele>99.4</ele>
        <time>2020-10-21T13:31:51Z</time>
      </trkpt>
      <trkpt lat="49.84322" lon="2.49299">
        <ele>99.4</ele>
        <time>2020-10-21T13:31:52Z</time>
      </trkpt>
      <trkpt lat="49.84322" lon="2.49298">
        <ele>99.4</ele>
        <time>2020-10-21T13:31:53Z</time>
      </trkpt>
      <trkpt lat="49.84322" lon="2.49297">
        <ele>99.4</ele>
        <time>2020-10-21T13:31:55Z</time>
      </trkpt>
      <trkpt lat="49.84322" lon="2.49298">
        <ele>99.4</ele>
        <time>2020-10-21T13:31:57Z</time>
      </trkpt>
      <trkpt lat="49.84322" lon="2.49298">
        <ele>99.4</ele>
        <time>2020-10-21T13:31:58Z</time>
      </trkpt>
      <trkpt lat="49.84322" lon="2.49298">
        <ele>99.4</ele>
        <time>2020-10-21T13:31:59Z</time>
      </trkpt>
      <trkpt lat="49.84322" lon="2.49299">
        <ele>99.4</ele>
        <time>2020-10-21T13:32:01Z</time>
      </trkpt>
      <trkpt lat="49.84322" lon="2.49299">
        <ele>99.4</ele>
        <time>2020-10-21T13:32:02Z</time>
      </trkpt>
      <trkpt lat="49.84322" lon="2.49299">
        <ele>99.4</ele>
        <time>2020-10-21T13:32:04Z</time>
      </trkpt>
      <trkpt lat="49.84322" lon="2.49298">
        <ele>99.4</ele>
        <time>2020-10-21T13:32:06Z</time>
      </trkpt>
      <trkpt lat="49.84322" lon="2.49298">
        <ele>99.4</ele>
        <time>2020-10-21T13:32:08Z</time>
      </trkpt>
      <trkpt lat="49.84322" lon="2.49297">
        <ele>99.4</ele>
        <time>2020-10-21T13:32:09Z</time>
      </trkpt>
      <trkpt lat="49.84322" lon="2.49296">
        <ele>99.4</ele>
        <time>2020-10-21T13:32:11Z</time>
      </trkpt>
      <trkpt lat="49.84321" lon="2.49295">
        <ele>99.4</ele>
        <time>2020-10-21T13:32:12Z</time>
      </trkpt>
      <trkpt lat="49.84321" lon="2.49295">
        <ele>99.4</ele>
        <time>2020-10-21T13:32:13Z</time>
      </trkpt>
      <trkpt lat="49.84321" lon="2.49295">
        <ele>99.4</ele>
        <time>2020-10-21T13:32:14Z</time>
      </trkpt>
      <trkpt lat="49.84321" lon="2.49295">
        <ele>99.4</ele>
        <time>2020-10-21T13:32:16Z</time>
      </trkpt>
      <trkpt lat="49.84321" lon="2.49293">
        <ele>99.4</ele>
        <time>2020-10-21T13:32:17Z</time>
      </trkpt>
      <trkpt lat="49.84321" lon="2.49291">
        <ele>99.4</ele>
        <time>2020-10-21T13:32:18Z</time>
      </trkpt>
      <trkpt lat="49.84322" lon="2.4929">
        <ele>99.4</ele>
        <time>2020-10-21T13:32:20Z</time>
      </trkpt>
      <trkpt lat="49.84322" lon="2.49289">
        <ele>99.4</ele>
        <time>2020-10-21T13:32:22Z</time>
      </trkpt>
      <trkpt lat="49.84321" lon="2.49288">
        <ele>99.4</ele>
        <time>2020-10-21T13:32:23Z</time>
      </trkpt>
      <trkpt lat="49.8432" lon="2.49287">
        <ele>99.4</ele>
        <time>2020-10-21T13:32:25Z</time>
      </trkpt>
      <trkpt lat="49.8432" lon="2.49285">
        <ele>99.4</ele>
        <time>2020-10-21T13:32:26Z</time>
      </trkpt>
      <trkpt lat="49.8432" lon="2.49284">
        <ele>99.4</ele>
        <time>2020-10-21T13:32:27Z</time>
      </trkpt>
      <trkpt lat="49.84319" lon="2.49282">
        <ele>99.4</ele>
        <time>2020-10-21T13:32:28Z</time>
      </trkpt>
      <trkpt lat="49.84319" lon="2.49281">
        <ele>99.4</ele>
        <time>2020-10-21T13:32:30Z</time>
      </trkpt>
      <trkpt lat="49.84319" lon="2.49279">
        <ele>99.4</ele>
        <time>2020-10-21T13:32:31Z</time>
      </trkpt>
      <trkpt lat="49.84319" lon="2.49278">
        <ele>99.4</ele>
        <time>2020-10-21T13:32:32Z</time>
      </trkpt>
      <trkpt lat="49.84318" lon="2.49277">
        <ele>99.4</ele>
        <time>2020-10-21T13:32:33Z</time>
      </trkpt>
      <trkpt lat="49.84318" lon="2.49274">
        <ele>99.4</ele>
        <time>2020-10-21T13:32:35Z</time>
      </trkpt>
      <trkpt lat="49.84317" lon="2.49274">
        <ele>99.4</ele>
        <time>2020-10-21T13:32:36Z</time>
      </trkpt>
      <trkpt lat="49.84317" lon="2.49272">
        <ele>99.4</ele>
        <time>2020-10-21T13:32:38Z</time>
      </trkpt>
      <trkpt lat="49.84316" lon="2.4927">
        <ele>99.4</ele>
        <time>2020-10-21T13:32:39Z</time>
      </trkpt>
      <trkpt lat="49.84315" lon="2.49266">
        <ele>99.4</ele>
        <time>2020-10-21T13:32:40Z</time>
      </trkpt>
      <trkpt lat="49.84315" lon="2.49264">
        <ele>99.4</ele>
        <time>2020-10-21T13:32:42Z</time>
      </trkpt>
      <trkpt lat="49.84315" lon="2.49262">
        <ele>99.4</ele>
        <time>2020-10-21T13:32:43Z</time>
      </trkpt>
      <trkpt lat="49.84315" lon="2.49261">
        <ele>99.4</ele>
        <time>2020-10-21T13:32:44Z</time>
      </trkpt>
      <trkpt lat="49.84315" lon="2.49259">
        <ele>99.4</ele>
        <time>2020-10-21T13:32:45Z</time>
      </trkpt>
      <trkpt lat="49.84314" lon="2.49259">
        <ele>99.4</ele>
        <time>2020-10-21T13:32:46Z</time>
      </trkpt>
      <trkpt lat="49.84314" lon="2.49258">
        <ele>99.4</ele>
        <time>2020-10-21T13:32:47Z</time>
      </trkpt>
      <trkpt lat="49.84314" lon="2.49258">
        <ele>99.4</ele>
        <time>2020-10-21T13:32:48Z</time>
      </trkpt>
      <trkpt lat="49.84314" lon="2.49257">
        <ele>99.4</ele>
        <time>2020-10-21T13:32:50Z</time>
      </trkpt>
      <trkpt lat="49.84314" lon="2.49257">
        <ele>99.4</ele>
        <time>2020-10-21T13:32:51Z</time>
      </trkpt>
      <trkpt lat="49.84314" lon="2.49257">
        <ele>99.4</ele>
        <time>2020-10-21T13:32:52Z</time>
      </trkpt>
      <trkpt lat="49.84314" lon="2.49256">
        <ele>99.4</ele>
        <time>2020-10-21T13:32:54Z</time>
      </trkpt>
      <trkpt lat="49.84314" lon="2.49256">
        <ele>99.4</ele>
        <time>2020-10-21T13:32:56Z</time>
      </trkpt>
      <trkpt lat="49.84314" lon="2.49255">
        <ele>99.4</ele>
        <time>2020-10-21T13:32:57Z</time>
      </trkpt>
      <trkpt lat="49.84314" lon="2.49255">
        <ele>99.4</ele>
        <time>2020-10-21T13:32:58Z</time>
      </trkpt>
      <trkpt lat="49.84314" lon="2.49254">
        <ele>99.4</ele>
        <time>2020-10-21T13:32:59Z</time>
      </trkpt>
      <trkpt lat="49.84314" lon="2.49254">
        <ele>99.4</ele>
        <time>2020-10-21T13:33:01Z</time>
      </trkpt>
      <trkpt lat="49.84314" lon="2.49253">
        <ele>99.4</ele>
        <time>2020-10-21T13:33:02Z</time>
      </trkpt>
      <trkpt lat="49.84313" lon="2.49249">
        <ele>99.4</ele>
        <time>2020-10-21T13:33:03Z</time>
      </trkpt>
      <trkpt lat="49.84313" lon="2.49248">
        <ele>99.4</ele>
        <time>2020-10-21T13:33:04Z</time>
      </trkpt>
      <trkpt lat="49.84312" lon="2.49246">
        <ele>99.4</ele>
        <time>2020-10-21T13:33:05Z</time>
      </trkpt>
      <trkpt lat="49.84312" lon="2.49244">
        <ele>99.4</ele>
        <time>2020-10-21T13:33:06Z</time>
      </trkpt>
      <trkpt lat="49.84312" lon="2.49242">
        <ele>99.4</ele>
        <time>2020-10-21T13:33:08Z</time>
      </trkpt>
      <trkpt lat="49.84311" lon="2.49239">
        <ele>99.4</ele>
        <time>2020-10-21T13:33:09Z</time>
      </trkpt>
      <trkpt lat="49.84311" lon="2.49238">
        <ele>99.4</ele>
        <time>2020-10-21T13:33:10Z</time>
      </trkpt>
      <trkpt lat="49.8431" lon="2.49236">
        <ele>99.4</ele>
        <time>2020-10-21T13:33:11Z</time>
      </trkpt>
      <trkpt lat="49.8431" lon="2.49235">
        <ele>99.4</ele>
        <time>2020-10-21T13:33:12Z</time>
      </trkpt>
      <trkpt lat="49.8431" lon="2.49233">
        <ele>99.4</ele>
        <time>2020-10-21T13:33:13Z</time>
      </trkpt>
      <trkpt lat="49.8431" lon="2.49231">
        <ele>99.4</ele>
        <time>2020-10-21T13:33:15Z</time>
      </trkpt>
      <trkpt lat="49.84311" lon="2.49229">
        <ele>99.4</ele>
        <time>2020-10-21T13:33:16Z</time>
      </trkpt>
      <trkpt lat="49.84311" lon="2.49227">
        <ele>99.4</ele>
        <time>2020-10-21T13:33:17Z</time>
      </trkpt>
      <trkpt lat="49.84312" lon="2.49225">
        <ele>99.3</ele>
        <time>2020-10-21T13:33:18Z</time>
      </trkpt>
      <trkpt lat="49.84311" lon="2.49222">
        <ele>99.3</ele>
        <time>2020-10-21T13:33:19Z</time>
      </trkpt>
      <trkpt lat="49.84311" lon="2.4922">
        <ele>99.3</ele>
        <time>2020-10-21T13:33:20Z</time>
      </trkpt>
      <trkpt lat="49.84311" lon="2.49218">
        <ele>99.3</ele>
        <time>2020-10-21T13:33:22Z</time>
      </trkpt>
      <trkpt lat="49.84311" lon="2.49215">
        <ele>99.3</ele>
        <time>2020-10-21T13:33:23Z</time>
      </trkpt>
      <trkpt lat="49.8431" lon="2.49212">
        <ele>99.3</ele>
        <time>2020-10-21T13:33:24Z</time>
      </trkpt>
      <trkpt lat="49.8431" lon="2.49211">
        <ele>99.3</ele>
        <time>2020-10-21T13:33:25Z</time>
      </trkpt>
      <trkpt lat="49.8431" lon="2.49209">
        <ele>99.2</ele>
        <time>2020-10-21T13:33:26Z</time>
      </trkpt>
      <trkpt lat="49.8431" lon="2.49207">
        <ele>99.2</ele>
        <time>2020-10-21T13:33:27Z</time>
      </trkpt>
      <trkpt lat="49.84309" lon="2.49205">
        <ele>99.2</ele>
        <time>2020-10-21T13:33:28Z</time>
      </trkpt>
      <trkpt lat="49.84309" lon="2.49203">
        <ele>99.2</ele>
        <time>2020-10-21T13:33:30Z</time>
      </trkpt>
      <trkpt lat="49.84309" lon="2.49202">
        <ele>99.2</ele>
        <time>2020-10-21T13:33:31Z</time>
      </trkpt>
      <trkpt lat="49.84308" lon="2.492">
        <ele>99.2</ele>
        <time>2020-10-21T13:33:32Z</time>
      </trkpt>
      <trkpt lat="49.84308" lon="2.49199">
        <ele>99.2</ele>
        <time>2020-10-21T13:33:33Z</time>
      </trkpt>
      <trkpt lat="49.84308" lon="2.49197">
        <ele>99.2</ele>
        <time>2020-10-21T13:33:34Z</time>
      </trkpt>
      <trkpt lat="49.84307" lon="2.49196">
        <ele>99.2</ele>
        <time>2020-10-21T13:33:36Z</time>
      </trkpt>
      <trkpt lat="49.84307" lon="2.49194">
        <ele>99.2</ele>
        <time>2020-10-21T13:33:37Z</time>
      </trkpt>
      <trkpt lat="49.84307" lon="2.49192">
        <ele>99.2</ele>
        <time>2020-10-21T13:33:38Z</time>
      </trkpt>
      <trkpt lat="49.84306" lon="2.4919">
        <ele>99.2</ele>
        <time>2020-10-21T13:33:39Z</time>
      </trkpt>
      <trkpt lat="49.84306" lon="2.49189">
        <ele>99.2</ele>
        <time>2020-10-21T13:33:40Z</time>
      </trkpt>
      <trkpt lat="49.84305" lon="2.49187">
        <ele>99.2</ele>
        <time>2020-10-21T13:33:41Z</time>
      </trkpt>
      <trkpt lat="49.84305" lon="2.49185">
        <ele>99.2</ele>
        <time>2020-10-21T13:33:42Z</time>
      </trkpt>
      <trkpt lat="49.84305" lon="2.49182">
        <ele>99.2</ele>
        <time>2020-10-21T13:33:44Z</time>
      </trkpt>
      <trkpt lat="49.84305" lon="2.4918">
        <ele>99.2</ele>
        <time>2020-10-21T13:33:45Z</time>
      </trkpt>
      <trkpt lat="49.84305" lon="2.49178">
        <ele>99.2</ele>
        <time>2020-10-21T13:33:46Z</time>
      </trkpt>
      <trkpt lat="49.84304" lon="2.49177">
        <ele>99.2</ele>
        <time>2020-10-21T13:33:47Z</time>
      </trkpt>
      <trkpt lat="49.84304" lon="2.49172">
        <ele>99.2</ele>
        <time>2020-10-21T13:33:49Z</time>
      </trkpt>
      <trkpt lat="49.84304" lon="2.49171">
        <ele>99.2</ele>
        <time>2020-10-21T13:33:50Z</time>
      </trkpt>
      <trkpt lat="49.84303" lon="2.49169">
        <ele>99.2</ele>
        <time>2020-10-21T13:33:51Z</time>
      </trkpt>
      <trkpt lat="49.84303" lon="2.49166">
        <ele>99.2</ele>
        <time>2020-10-21T13:33:53Z</time>
      </trkpt>
      <trkpt lat="49.84302" lon="2.49164">
        <ele>99.2</ele>
        <time>2020-10-21T13:33:54Z</time>
      </trkpt>
      <trkpt lat="49.84302" lon="2.49162">
        <ele>99.2</ele>
        <time>2020-10-21T13:33:55Z</time>
      </trkpt>
      <trkpt lat="49.84301" lon="2.4916">
        <ele>99.2</ele>
        <time>2020-10-21T13:33:56Z</time>
      </trkpt>
      <trkpt lat="49.84301" lon="2.49158">
        <ele>99.2</ele>
        <time>2020-10-21T13:33:57Z</time>
      </trkpt>
      <trkpt lat="49.84301" lon="2.49157">
        <ele>99.2</ele>
        <time>2020-10-21T13:33:58Z</time>
      </trkpt>
      <trkpt lat="49.843" lon="2.49155">
        <ele>99.2</ele>
        <time>2020-10-21T13:34:00Z</time>
      </trkpt>
      <trkpt lat="49.843" lon="2.49153">
        <ele>99.2</ele>
        <time>2020-10-21T13:34:01Z</time>
      </trkpt>
      <trkpt lat="49.84299" lon="2.49149">
        <ele>99.3</ele>
        <time>2020-10-21T13:34:02Z</time>
      </trkpt>
      <trkpt lat="49.84299" lon="2.49148">
        <ele>99.3</ele>
        <time>2020-10-21T13:34:03Z</time>
      </trkpt>
      <trkpt lat="49.84299" lon="2.49146">
        <ele>99.3</ele>
        <time>2020-10-21T13:34:04Z</time>
      </trkpt>
      <trkpt lat="49.84298" lon="2.49145">
        <ele>99.3</ele>
        <time>2020-10-21T13:34:05Z</time>
      </trkpt>
      <trkpt lat="49.84298" lon="2.49143">
        <ele>99.3</ele>
        <time>2020-10-21T13:34:06Z</time>
      </trkpt>
      <trkpt lat="49.84298" lon="2.49141">
        <ele>99.3</ele>
        <time>2020-10-21T13:34:08Z</time>
      </trkpt>
      <trkpt lat="49.84297" lon="2.49138">
        <ele>99.3</ele>
        <time>2020-10-21T13:34:09Z</time>
      </trkpt>
      <trkpt lat="49.84297" lon="2.49136">
        <ele>99.4</ele>
        <time>2020-10-21T13:34:10Z</time>
      </trkpt>
      <trkpt lat="49.84297" lon="2.49133">
        <ele>99.4</ele>
        <time>2020-10-21T13:34:11Z</time>
      </trkpt>
      <trkpt lat="49.84296" lon="2.49132">
        <ele>99.4</ele>
        <time>2020-10-21T13:34:12Z</time>
      </trkpt>
      <trkpt lat="49.84296" lon="2.4913">
        <ele>99.4</ele>
        <time>2020-10-21T13:34:13Z</time>
      </trkpt>
      <trkpt lat="49.84296" lon="2.49128">
        <ele>99.4</ele>
        <time>2020-10-21T13:34:14Z</time>
      </trkpt>
      <trkpt lat="49.84295" lon="2.49126">
        <ele>99.4</ele>
        <time>2020-10-21T13:34:16Z</time>
      </trkpt>
      <trkpt lat="49.84295" lon="2.49124">
        <ele>99.4</ele>
        <time>2020-10-21T13:34:17Z</time>
      </trkpt>
      <trkpt lat="49.84294" lon="2.49122">
        <ele>99.4</ele>
        <time>2020-10-21T13:34:18Z</time>
      </trkpt>
      <trkpt lat="49.84294" lon="2.49118">
        <ele>99.5</ele>
        <time>2020-10-21T13:34:19Z</time>
      </trkpt>
      <trkpt lat="49.84294" lon="2.49117">
        <ele>99.5</ele>
        <time>2020-10-21T13:34:20Z</time>
      </trkpt>
      <trkpt lat="49.84294" lon="2.49116">
        <ele>99.5</ele>
        <time>2020-10-21T13:34:21Z</time>
      </trkpt>
      <trkpt lat="49.84294" lon="2.49113">
        <ele>99.5</ele>
        <time>2020-10-21T13:34:22Z</time>
      </trkpt>
      <trkpt lat="49.84294" lon="2.49111">
        <ele>99.5</ele>
        <time>2020-10-21T13:34:24Z</time>
      </trkpt>
      <trkpt lat="49.84293" lon="2.4911">
        <ele>99.5</ele>
        <time>2020-10-21T13:34:25Z</time>
      </trkpt>
      <trkpt lat="49.84293" lon="2.49108">
        <ele>99.5</ele>
        <time>2020-10-21T13:34:26Z</time>
      </trkpt>
      <trkpt lat="49.84293" lon="2.49107">
        <ele>99.5</ele>
        <time>2020-10-21T13:34:27Z</time>
      </trkpt>
      <trkpt lat="49.84292" lon="2.49105">
        <ele>99.5</ele>
        <time>2020-10-21T13:34:28Z</time>
      </trkpt>
      <trkpt lat="49.84291" lon="2.49102">
        <ele>99.5</ele>
        <time>2020-10-21T13:34:30Z</time>
      </trkpt>
      <trkpt lat="49.84291" lon="2.491">
        <ele>99.5</ele>
        <time>2020-10-21T13:34:31Z</time>
      </trkpt>
      <trkpt lat="49.84291" lon="2.49098">
        <ele>99.5</ele>
        <time>2020-10-21T13:34:32Z</time>
      </trkpt>
      <trkpt lat="49.8429" lon="2.49097">
        <ele>99.6</ele>
        <time>2020-10-21T13:34:33Z</time>
      </trkpt>
      <trkpt lat="49.8429" lon="2.49095">
        <ele>99.6</ele>
        <time>2020-10-21T13:34:35Z</time>
      </trkpt>
      <trkpt lat="49.84289" lon="2.49092">
        <ele>99.6</ele>
        <time>2020-10-21T13:34:36Z</time>
      </trkpt>
      <trkpt lat="49.84289" lon="2.4909">
        <ele>99.6</ele>
        <time>2020-10-21T13:34:37Z</time>
      </trkpt>
      <trkpt lat="49.84289" lon="2.49089">
        <ele>99.6</ele>
        <time>2020-10-21T13:34:38Z</time>
      </trkpt>
      <trkpt lat="49.84289" lon="2.49086">
        <ele>99.6</ele>
        <time>2020-10-21T13:34:39Z</time>
      </trkpt>
      <trkpt lat="49.84289" lon="2.49085">
        <ele>99.6</ele>
        <time>2020-10-21T13:34:40Z</time>
      </trkpt>
      <trkpt lat="49.84288" lon="2.49084">
        <ele>99.6</ele>
        <time>2020-10-21T13:34:41Z</time>
      </trkpt>
      <trkpt lat="49.84288" lon="2.49082">
        <ele>99.6</ele>
        <time>2020-10-21T13:34:43Z</time>
      </trkpt>
      <trkpt lat="49.84287" lon="2.49078">
        <ele>99.6</ele>
        <time>2020-10-21T13:34:44Z</time>
      </trkpt>
      <trkpt lat="49.84287" lon="2.49077">
        <ele>99.6</ele>
        <time>2020-10-21T13:34:46Z</time>
      </trkpt>
      <trkpt lat="49.84287" lon="2.49075">
        <ele>99.6</ele>
        <time>2020-10-21T13:34:47Z</time>
      </trkpt>
      <trkpt lat="49.84287" lon="2.49073">
        <ele>99.6</ele>
        <time>2020-10-21T13:34:48Z</time>
      </trkpt>
      <trkpt lat="49.84286" lon="2.49071">
        <ele>99.6</ele>
        <time>2020-10-21T13:34:49Z</time>
      </trkpt>
      <trkpt lat="49.84286" lon="2.4907">
        <ele>99.6</ele>
        <time>2020-10-21T13:34:50Z</time>
      </trkpt>
      <trkpt lat="49.84286" lon="2.49068">
        <ele>99.6</ele>
        <time>2020-10-21T13:34:51Z</time>
      </trkpt>
      <trkpt lat="49.84285" lon="2.49064">
        <ele>99.6</ele>
        <time>2020-10-21T13:34:52Z</time>
      </trkpt>
      <trkpt lat="49.84285" lon="2.49063">
        <ele>99.6</ele>
        <time>2020-10-21T13:34:54Z</time>
      </trkpt>
      <trkpt lat="49.84284" lon="2.49062">
        <ele>99.6</ele>
        <time>2020-10-21T13:34:55Z</time>
      </trkpt>
      <trkpt lat="49.84284" lon="2.4906">
        <ele>99.6</ele>
        <time>2020-10-21T13:34:56Z</time>
      </trkpt>
      <trkpt lat="49.84284" lon="2.49058">
        <ele>99.6</ele>
        <time>2020-10-21T13:34:57Z</time>
      </trkpt>
      <trkpt lat="49.84284" lon="2.49056">
        <ele>99.6</ele>
        <time>2020-10-21T13:34:58Z</time>
      </trkpt>
      <trkpt lat="49.84283" lon="2.49054">
        <ele>99.6</ele>
        <time>2020-10-21T13:34:59Z</time>
      </trkpt>
      <trkpt lat="49.84283" lon="2.49052">
        <ele>99.6</ele>
        <time>2020-10-21T13:35:00Z</time>
      </trkpt>
      <trkpt lat="49.84282" lon="2.49049">
        <ele>99.6</ele>
        <time>2020-10-21T13:35:02Z</time>
      </trkpt>
      <trkpt lat="49.84282" lon="2.49048">
        <ele>99.6</ele>
        <time>2020-10-21T13:35:03Z</time>
      </trkpt>
      <trkpt lat="49.84282" lon="2.49046">
        <ele>99.6</ele>
        <time>2020-10-21T13:35:04Z</time>
      </trkpt>
      <trkpt lat="49.84281" lon="2.49043">
        <ele>99.7</ele>
        <time>2020-10-21T13:35:05Z</time>
      </trkpt>
      <trkpt lat="49.8428" lon="2.49042">
        <ele>99.7</ele>
        <time>2020-10-21T13:35:06Z</time>
      </trkpt>
      <trkpt lat="49.8428" lon="2.49041">
        <ele>99.7</ele>
        <time>2020-10-21T13:35:07Z</time>
      </trkpt>
      <trkpt lat="49.8428" lon="2.49039">
        <ele>99.7</ele>
        <time>2020-10-21T13:35:08Z</time>
      </trkpt>
      <trkpt lat="49.84279" lon="2.49037">
        <ele>99.7</ele>
        <time>2020-10-21T13:35:09Z</time>
      </trkpt>
      <trkpt lat="49.84279" lon="2.49033">
        <ele>99.7</ele>
        <time>2020-10-21T13:35:11Z</time>
      </trkpt>
      <trkpt lat="49.84279" lon="2.49032">
        <ele>99.7</ele>
        <time>2020-10-21T13:35:12Z</time>
      </trkpt>
      <trkpt lat="49.84279" lon="2.4903">
        <ele>99.7</ele>
        <time>2020-10-21T13:35:13Z</time>
      </trkpt>
      <trkpt lat="49.84278" lon="2.49027">
        <ele>99.7</ele>
        <time>2020-10-21T13:35:14Z</time>
      </trkpt>
      <trkpt lat="49.84278" lon="2.49026">
        <ele>99.8</ele>
        <time>2020-10-21T13:35:15Z</time>
      </trkpt>
      <trkpt lat="49.84277" lon="2.49024">
        <ele>99.8</ele>
        <time>2020-10-21T13:35:16Z</time>
      </trkpt>
      <trkpt lat="49.84277" lon="2.49022">
        <ele>99.8</ele>
        <time>2020-10-21T13:35:18Z</time>
      </trkpt>
      <trkpt lat="49.84276" lon="2.4902">
        <ele>99.8</ele>
        <time>2020-10-21T13:35:19Z</time>
      </trkpt>
      <trkpt lat="49.84276" lon="2.49018">
        <ele>99.8</ele>
        <time>2020-10-21T13:35:20Z</time>
      </trkpt>
      <trkpt lat="49.84275" lon="2.49015">
        <ele>99.8</ele>
        <time>2020-10-21T13:35:21Z</time>
      </trkpt>
      <trkpt lat="49.84275" lon="2.49013">
        <ele>99.8</ele>
        <time>2020-10-21T13:35:22Z</time>
      </trkpt>
      <trkpt lat="49.84275" lon="2.49012">
        <ele>99.8</ele>
        <time>2020-10-21T13:35:23Z</time>
      </trkpt>
      <trkpt lat="49.84275" lon="2.49009">
        <ele>99.9</ele>
        <time>2020-10-21T13:35:24Z</time>
      </trkpt>
      <trkpt lat="49.84274" lon="2.49007">
        <ele>99.9</ele>
        <time>2020-10-21T13:35:26Z</time>
      </trkpt>
      <trkpt lat="49.84274" lon="2.49005">
        <ele>99.9</ele>
        <time>2020-10-21T13:35:27Z</time>
      </trkpt>
      <trkpt lat="49.84274" lon="2.49003">
        <ele>99.9</ele>
        <time>2020-10-21T13:35:28Z</time>
      </trkpt>
      <trkpt lat="49.84274" lon="2.49">
        <ele>99.9</ele>
        <time>2020-10-21T13:35:30Z</time>
      </trkpt>
      <trkpt lat="49.84273" lon="2.48998">
        <ele>99.9</ele>
        <time>2020-10-21T13:35:31Z</time>
      </trkpt>
      <trkpt lat="49.84273" lon="2.48995">
        <ele>99.9</ele>
        <time>2020-10-21T13:35:32Z</time>
      </trkpt>
      <trkpt lat="49.84273" lon="2.48993">
        <ele>99.9</ele>
        <time>2020-10-21T13:35:33Z</time>
      </trkpt>
      <trkpt lat="49.84273" lon="2.48991">
        <ele>99.9</ele>
        <time>2020-10-21T13:35:34Z</time>
      </trkpt>
      <trkpt lat="49.84273" lon="2.48989">
        <ele>99.9</ele>
        <time>2020-10-21T13:35:35Z</time>
      </trkpt>
      <trkpt lat="49.84272" lon="2.48987">
        <ele>99.9</ele>
        <time>2020-10-21T13:35:36Z</time>
      </trkpt>
      <trkpt lat="49.84272" lon="2.48986">
        <ele>99.9</ele>
        <time>2020-10-21T13:35:37Z</time>
      </trkpt>
      <trkpt lat="49.84272" lon="2.48984">
        <ele>100</ele>
        <time>2020-10-21T13:35:39Z</time>
      </trkpt>
      <trkpt lat="49.84272" lon="2.48982">
        <ele>100</ele>
        <time>2020-10-21T13:35:40Z</time>
      </trkpt>
      <trkpt lat="49.84271" lon="2.4898">
        <ele>100</ele>
        <time>2020-10-21T13:35:41Z</time>
      </trkpt>
      <trkpt lat="49.84271" lon="2.48977">
        <ele>100</ele>
        <time>2020-10-21T13:35:42Z</time>
      </trkpt>
      <trkpt lat="49.8427" lon="2.48975">
        <ele>100</ele>
        <time>2020-10-21T13:35:43Z</time>
      </trkpt>
      <trkpt lat="49.8427" lon="2.48974">
        <ele>100</ele>
        <time>2020-10-21T13:35:44Z</time>
      </trkpt>
      <trkpt lat="49.8427" lon="2.48973">
        <ele>100.1</ele>
        <time>2020-10-21T13:35:45Z</time>
      </trkpt>
      <trkpt lat="49.8427" lon="2.48971">
        <ele>100.1</ele>
        <time>2020-10-21T13:35:47Z</time>
      </trkpt>
      <trkpt lat="49.8427" lon="2.48969">
        <ele>100.1</ele>
        <time>2020-10-21T13:35:48Z</time>
      </trkpt>
      <trkpt lat="49.84269" lon="2.48967">
        <ele>100.1</ele>
        <time>2020-10-21T13:35:49Z</time>
      </trkpt>
      <trkpt lat="49.84269" lon="2.48965">
        <ele>100.1</ele>
        <time>2020-10-21T13:35:50Z</time>
      </trkpt>
      <trkpt lat="49.84268" lon="2.48962">
        <ele>100.2</ele>
        <time>2020-10-21T13:35:51Z</time>
      </trkpt>
      <trkpt lat="49.84268" lon="2.4896">
        <ele>100.2</ele>
        <time>2020-10-21T13:35:52Z</time>
      </trkpt>
      <trkpt lat="49.84268" lon="2.48959">
        <ele>100.2</ele>
        <time>2020-10-21T13:35:54Z</time>
      </trkpt>
      <trkpt lat="49.84268" lon="2.48957">
        <ele>100.2</ele>
        <time>2020-10-21T13:35:55Z</time>
      </trkpt>
      <trkpt lat="49.84268" lon="2.48956">
        <ele>100.2</ele>
        <time>2020-10-21T13:35:56Z</time>
      </trkpt>
      <trkpt lat="49.84268" lon="2.48954">
        <ele>100.2</ele>
        <time>2020-10-21T13:35:57Z</time>
      </trkpt>
      <trkpt lat="49.84268" lon="2.48952">
        <ele>100.2</ele>
        <time>2020-10-21T13:35:59Z</time>
      </trkpt>
      <trkpt lat="49.84268" lon="2.4895">
        <ele>100.2</ele>
        <time>2020-10-21T13:36:00Z</time>
      </trkpt>
      <trkpt lat="49.84268" lon="2.48948">
        <ele>100.2</ele>
        <time>2020-10-21T13:36:01Z</time>
      </trkpt>
      <trkpt lat="49.84267" lon="2.48947">
        <ele>100.2</ele>
        <time>2020-10-21T13:36:02Z</time>
      </trkpt>
      <trkpt lat="49.84267" lon="2.48945">
        <ele>100.2</ele>
        <time>2020-10-21T13:36:03Z</time>
      </trkpt>
      <trkpt lat="49.84267" lon="2.48942">
        <ele>100.2</ele>
        <time>2020-10-21T13:36:04Z</time>
      </trkpt>
      <trkpt lat="49.84266" lon="2.4894">
        <ele>100.2</ele>
        <time>2020-10-21T13:36:06Z</time>
      </trkpt>
      <trkpt lat="49.84266" lon="2.48939">
        <ele>100.2</ele>
        <time>2020-10-21T13:36:07Z</time>
      </trkpt>
      <trkpt lat="49.84265" lon="2.48936">
        <ele>100.2</ele>
        <time>2020-10-21T13:36:09Z</time>
      </trkpt>
      <trkpt lat="49.84265" lon="2.48934">
        <ele>100.2</ele>
        <time>2020-10-21T13:36:10Z</time>
      </trkpt>
      <trkpt lat="49.84265" lon="2.48932">
        <ele>100.2</ele>
        <time>2020-10-21T13:36:11Z</time>
      </trkpt>
      <trkpt lat="49.84266" lon="2.48931">
        <ele>100.2</ele>
        <time>2020-10-21T13:36:13Z</time>
      </trkpt>
      <trkpt lat="49.84266" lon="2.48927">
        <ele>100.2</ele>
        <time>2020-10-21T13:36:14Z</time>
      </trkpt>
      <trkpt lat="49.84266" lon="2.48926">
        <ele>100.2</ele>
        <time>2020-10-21T13:36:15Z</time>
      </trkpt>
      <trkpt lat="49.84266" lon="2.48925">
        <ele>100.2</ele>
        <time>2020-10-21T13:36:16Z</time>
      </trkpt>
      <trkpt lat="49.84266" lon="2.48923">
        <ele>100.2</ele>
        <time>2020-10-21T13:36:17Z</time>
      </trkpt>
      <trkpt lat="49.84265" lon="2.48919">
        <ele>100.2</ele>
        <time>2020-10-21T13:36:19Z</time>
      </trkpt>
      <trkpt lat="49.84264" lon="2.48916">
        <ele>100.2</ele>
        <time>2020-10-21T13:36:20Z</time>
      </trkpt>
      <trkpt lat="49.84264" lon="2.48914">
        <ele>100.2</ele>
        <time>2020-10-21T13:36:21Z</time>
      </trkpt>
      <trkpt lat="49.84263" lon="2.48913">
        <ele>100.2</ele>
        <time>2020-10-21T13:36:23Z</time>
      </trkpt>
      <trkpt lat="49.84263" lon="2.48911">
        <ele>100.2</ele>
        <time>2020-10-21T13:36:24Z</time>
      </trkpt>
      <trkpt lat="49.84263" lon="2.4891">
        <ele>100.2</ele>
        <time>2020-10-21T13:36:25Z</time>
      </trkpt>
      <trkpt lat="49.84263" lon="2.48909">
        <ele>100.2</ele>
        <time>2020-10-21T13:36:26Z</time>
      </trkpt>
      <trkpt lat="49.84262" lon="2.48906">
        <ele>100.2</ele>
        <time>2020-10-21T13:36:27Z</time>
      </trkpt>
      <trkpt lat="49.84262" lon="2.48904">
        <ele>100.2</ele>
        <time>2020-10-21T13:36:28Z</time>
      </trkpt>
      <trkpt lat="49.84262" lon="2.48903">
        <ele>100.2</ele>
        <time>2020-10-21T13:36:29Z</time>
      </trkpt>
      <trkpt lat="49.84261" lon="2.48901">
        <ele>100.2</ele>
        <time>2020-10-21T13:36:30Z</time>
      </trkpt>
      <trkpt lat="49.84261" lon="2.489">
        <ele>100.2</ele>
        <time>2020-10-21T13:36:32Z</time>
      </trkpt>
      <trkpt lat="49.84261" lon="2.48898">
        <ele>100.2</ele>
        <time>2020-10-21T13:36:33Z</time>
      </trkpt>
      <trkpt lat="49.8426" lon="2.48896">
        <ele>100.2</ele>
        <time>2020-10-21T13:36:34Z</time>
      </trkpt>
      <trkpt lat="49.8426" lon="2.48894">
        <ele>100.2</ele>
        <time>2020-10-21T13:36:35Z</time>
      </trkpt>
      <trkpt lat="49.84259" lon="2.48892">
        <ele>100.2</ele>
        <time>2020-10-21T13:36:36Z</time>
      </trkpt>
      <trkpt lat="49.84259" lon="2.4889">
        <ele>100.2</ele>
        <time>2020-10-21T13:36:37Z</time>
      </trkpt>
      <trkpt lat="49.84259" lon="2.48889">
        <ele>100.2</ele>
        <time>2020-10-21T13:36:38Z</time>
      </trkpt>
      <trkpt lat="49.84258" lon="2.48885">
        <ele>100.2</ele>
        <time>2020-10-21T13:36:40Z</time>
      </trkpt>
      <trkpt lat="49.84258" lon="2.48884">
        <ele>100.2</ele>
        <time>2020-10-21T13:36:41Z</time>
      </trkpt>
      <trkpt lat="49.84258" lon="2.48882">
        <ele>100.2</ele>
        <time>2020-10-21T13:36:42Z</time>
      </trkpt>
      <trkpt lat="49.84257" lon="2.48879">
        <ele>100.2</ele>
        <time>2020-10-21T13:36:43Z</time>
      </trkpt>
      <trkpt lat="49.84257" lon="2.48878">
        <ele>100.2</ele>
        <time>2020-10-21T13:36:44Z</time>
      </trkpt>
      <trkpt lat="49.84256" lon="2.48876">
        <ele>100.2</ele>
        <time>2020-10-21T13:36:45Z</time>
      </trkpt>
      <trkpt lat="49.84256" lon="2.48875">
        <ele>100.2</ele>
        <time>2020-10-21T13:36:46Z</time>
      </trkpt>
      <trkpt lat="49.84256" lon="2.48874">
        <ele>100.2</ele>
        <time>2020-10-21T13:36:48Z</time>
      </trkpt>
      <trkpt lat="49.84255" lon="2.48872">
        <ele>100.2</ele>
        <time>2020-10-21T13:36:49Z</time>
      </trkpt>
      <trkpt lat="49.84255" lon="2.48869">
        <ele>100.2</ele>
        <time>2020-10-21T13:36:50Z</time>
      </trkpt>
      <trkpt lat="49.84255" lon="2.48868">
        <ele>100.2</ele>
        <time>2020-10-21T13:36:51Z</time>
      </trkpt>
      <trkpt lat="49.84254" lon="2.48866">
        <ele>100.2</ele>
        <time>2020-10-21T13:36:52Z</time>
      </trkpt>
      <trkpt lat="49.84254" lon="2.48864">
        <ele>100.2</ele>
        <time>2020-10-21T13:36:53Z</time>
      </trkpt>
      <trkpt lat="49.84254" lon="2.48862">
        <ele>100.2</ele>
        <time>2020-10-21T13:36:54Z</time>
      </trkpt>
      <trkpt lat="49.84253" lon="2.4886">
        <ele>100.2</ele>
        <time>2020-10-21T13:36:55Z</time>
      </trkpt>
      <trkpt lat="49.84253" lon="2.48858">
        <ele>100.2</ele>
        <time>2020-10-21T13:36:56Z</time>
      </trkpt>
      <trkpt lat="49.84253" lon="2.48856">
        <ele>100.2</ele>
        <time>2020-10-21T13:36:58Z</time>
      </trkpt>
      <trkpt lat="49.84252" lon="2.48853">
        <ele>100.1</ele>
        <time>2020-10-21T13:36:59Z</time>
      </trkpt>
      <trkpt lat="49.84252" lon="2.48851">
        <ele>100.1</ele>
        <time>2020-10-21T13:37:00Z</time>
      </trkpt>
      <trkpt lat="49.84251" lon="2.4885">
        <ele>100.1</ele>
        <time>2020-10-21T13:37:01Z</time>
      </trkpt>
      <trkpt lat="49.84251" lon="2.48847">
        <ele>100.1</ele>
        <time>2020-10-21T13:37:02Z</time>
      </trkpt>
      <trkpt lat="49.84251" lon="2.48846">
        <ele>100.1</ele>
        <time>2020-10-21T13:37:03Z</time>
      </trkpt>
      <trkpt lat="49.8425" lon="2.48842">
        <ele>100.1</ele>
        <time>2020-10-21T13:37:05Z</time>
      </trkpt>
      <trkpt lat="49.8425" lon="2.48841">
        <ele>100.1</ele>
        <time>2020-10-21T13:37:06Z</time>
      </trkpt>
      <trkpt lat="49.8425" lon="2.4884">
        <ele>100.1</ele>
        <time>2020-10-21T13:37:07Z</time>
      </trkpt>
      <trkpt lat="49.84249" lon="2.48837">
        <ele>100.1</ele>
        <time>2020-10-21T13:37:08Z</time>
      </trkpt>
      <trkpt lat="49.84249" lon="2.48835">
        <ele>100.1</ele>
        <time>2020-10-21T13:37:09Z</time>
      </trkpt>
      <trkpt lat="49.84248" lon="2.48834">
        <ele>100.1</ele>
        <time>2020-10-21T13:37:10Z</time>
      </trkpt>
      <trkpt lat="49.84248" lon="2.48832">
        <ele>100.1</ele>
        <time>2020-10-21T13:37:12Z</time>
      </trkpt>
      <trkpt lat="49.84248" lon="2.48831">
        <ele>100.1</ele>
        <time>2020-10-21T13:37:13Z</time>
      </trkpt>
      <trkpt lat="49.84247" lon="2.48829">
        <ele>100.1</ele>
        <time>2020-10-21T13:37:14Z</time>
      </trkpt>
      <trkpt lat="49.84247" lon="2.48827">
        <ele>100.1</ele>
        <time>2020-10-21T13:37:15Z</time>
      </trkpt>
      <trkpt lat="49.84247" lon="2.48825">
        <ele>100.1</ele>
        <time>2020-10-21T13:37:17Z</time>
      </trkpt>
      <trkpt lat="49.84246" lon="2.48823">
        <ele>100.1</ele>
        <time>2020-10-21T13:37:18Z</time>
      </trkpt>
      <trkpt lat="49.84246" lon="2.48822">
        <ele>100.1</ele>
        <time>2020-10-21T13:37:19Z</time>
      </trkpt>
      <trkpt lat="49.84246" lon="2.4882">
        <ele>100.1</ele>
        <time>2020-10-21T13:37:20Z</time>
      </trkpt>
      <trkpt lat="49.84246" lon="2.48818">
        <ele>100.1</ele>
        <time>2020-10-21T13:37:21Z</time>
      </trkpt>
      <trkpt lat="49.84246" lon="2.48816">
        <ele>100.1</ele>
        <time>2020-10-21T13:37:22Z</time>
      </trkpt>
      <trkpt lat="49.84246" lon="2.48813">
        <ele>100.1</ele>
        <time>2020-10-21T13:37:24Z</time>
      </trkpt>
      <trkpt lat="49.84245" lon="2.4881">
        <ele>100.1</ele>
        <time>2020-10-21T13:37:25Z</time>
      </trkpt>
      <trkpt lat="49.84245" lon="2.48809">
        <ele>100.1</ele>
        <time>2020-10-21T13:37:26Z</time>
      </trkpt>
      <trkpt lat="49.84245" lon="2.48808">
        <ele>100.1</ele>
        <time>2020-10-21T13:37:28Z</time>
      </trkpt>
      <trkpt lat="49.84244" lon="2.48806">
        <ele>100.1</ele>
        <time>2020-10-21T13:37:29Z</time>
      </trkpt>
      <trkpt lat="49.84244" lon="2.48803">
        <ele>100.1</ele>
        <time>2020-10-21T13:37:30Z</time>
      </trkpt>
      <trkpt lat="49.84243" lon="2.48802">
        <ele>100.1</ele>
        <time>2020-10-21T13:37:31Z</time>
      </trkpt>
      <trkpt lat="49.84243" lon="2.488">
        <ele>100.1</ele>
        <time>2020-10-21T13:37:32Z</time>
      </trkpt>
      <trkpt lat="49.84242" lon="2.48798">
        <ele>100.1</ele>
        <time>2020-10-21T13:37:33Z</time>
      </trkpt>
      <trkpt lat="49.84242" lon="2.48796">
        <ele>100.1</ele>
        <time>2020-10-21T13:37:34Z</time>
      </trkpt>
      <trkpt lat="49.84242" lon="2.48794">
        <ele>100.2</ele>
        <time>2020-10-21T13:37:36Z</time>
      </trkpt>
      <trkpt lat="49.84241" lon="2.48792">
        <ele>100.2</ele>
        <time>2020-10-21T13:37:37Z</time>
      </trkpt>
      <trkpt lat="49.84241" lon="2.4879">
        <ele>100.2</ele>
        <time>2020-10-21T13:37:38Z</time>
      </trkpt>
      <trkpt lat="49.8424" lon="2.48788">
        <ele>100.2</ele>
        <time>2020-10-21T13:37:39Z</time>
      </trkpt>
      <trkpt lat="49.8424" lon="2.48785">
        <ele>100.2</ele>
        <time>2020-10-21T13:37:40Z</time>
      </trkpt>
      <trkpt lat="49.8424" lon="2.48782">
        <ele>100.2</ele>
        <time>2020-10-21T13:37:41Z</time>
      </trkpt>
      <trkpt lat="49.8424" lon="2.48781">
        <ele>100.2</ele>
        <time>2020-10-21T13:37:43Z</time>
      </trkpt>
      <trkpt lat="49.8424" lon="2.48779">
        <ele>100.2</ele>
        <time>2020-10-21T13:37:44Z</time>
      </trkpt>
      <trkpt lat="49.8424" lon="2.48777">
        <ele>100.1</ele>
        <time>2020-10-21T13:37:45Z</time>
      </trkpt>
      <trkpt lat="49.8424" lon="2.48774">
        <ele>100.1</ele>
        <time>2020-10-21T13:37:47Z</time>
      </trkpt>
      <trkpt lat="49.8424" lon="2.48772">
        <ele>100.1</ele>
        <time>2020-10-21T13:37:48Z</time>
      </trkpt>
      <trkpt lat="49.8424" lon="2.48769">
        <ele>100.1</ele>
        <time>2020-10-21T13:37:49Z</time>
      </trkpt>
      <trkpt lat="49.8424" lon="2.48767">
        <ele>100.1</ele>
        <time>2020-10-21T13:37:51Z</time>
      </trkpt>
      <trkpt lat="49.84239" lon="2.48765">
        <ele>100.1</ele>
        <time>2020-10-21T13:37:52Z</time>
      </trkpt>
      <trkpt lat="49.84239" lon="2.48762">
        <ele>100.1</ele>
        <time>2020-10-21T13:37:53Z</time>
      </trkpt>
      <trkpt lat="49.84239" lon="2.4876">
        <ele>100.1</ele>
        <time>2020-10-21T13:37:54Z</time>
      </trkpt>
      <trkpt lat="49.84239" lon="2.48758">
        <ele>100.1</ele>
        <time>2020-10-21T13:37:55Z</time>
      </trkpt>
      <trkpt lat="49.84239" lon="2.48755">
        <ele>100</ele>
        <time>2020-10-21T13:37:56Z</time>
      </trkpt>
      <trkpt lat="49.84239" lon="2.48753">
        <ele>100</ele>
        <time>2020-10-21T13:37:58Z</time>
      </trkpt>
      <trkpt lat="49.84238" lon="2.48752">
        <ele>100</ele>
        <time>2020-10-21T13:37:59Z</time>
      </trkpt>
      <trkpt lat="49.84238" lon="2.48749">
        <ele>100</ele>
        <time>2020-10-21T13:38:00Z</time>
      </trkpt>
      <trkpt lat="49.84238" lon="2.48747">
        <ele>100</ele>
        <time>2020-10-21T13:38:01Z</time>
      </trkpt>
      <trkpt lat="49.84238" lon="2.48745">
        <ele>100</ele>
        <time>2020-10-21T13:38:02Z</time>
      </trkpt>
      <trkpt lat="49.84238" lon="2.48743">
        <ele>100</ele>
        <time>2020-10-21T13:38:03Z</time>
      </trkpt>
      <trkpt lat="49.84238" lon="2.48742">
        <ele>100</ele>
        <time>2020-10-21T13:38:04Z</time>
      </trkpt>
      <trkpt lat="49.84237" lon="2.4874">
        <ele>100</ele>
        <time>2020-10-21T13:38:06Z</time>
      </trkpt>
      <trkpt lat="49.84237" lon="2.48738">
        <ele>100</ele>
        <time>2020-10-21T13:38:07Z</time>
      </trkpt>
      <trkpt lat="49.84237" lon="2.48736">
        <ele>100.1</ele>
        <time>2020-10-21T13:38:08Z</time>
      </trkpt>
      <trkpt lat="49.84236" lon="2.48734">
        <ele>100.1</ele>
        <time>2020-10-21T13:38:09Z</time>
      </trkpt>
      <trkpt lat="49.84236" lon="2.48731">
        <ele>100.1</ele>
        <time>2020-10-21T13:38:10Z</time>
      </trkpt>
      <trkpt lat="49.84235" lon="2.4873">
        <ele>100.1</ele>
        <time>2020-10-21T13:38:11Z</time>
      </trkpt>
      <trkpt lat="49.84235" lon="2.48728">
        <ele>100.1</ele>
        <time>2020-10-21T13:38:13Z</time>
      </trkpt>
      <trkpt lat="49.84235" lon="2.48726">
        <ele>100.1</ele>
        <time>2020-10-21T13:38:14Z</time>
      </trkpt>
      <trkpt lat="49.84234" lon="2.48723">
        <ele>100.1</ele>
        <time>2020-10-21T13:38:15Z</time>
      </trkpt>
      <trkpt lat="49.84234" lon="2.4872">
        <ele>100.2</ele>
        <time>2020-10-21T13:38:16Z</time>
      </trkpt>
      <trkpt lat="49.84234" lon="2.48719">
        <ele>100.2</ele>
        <time>2020-10-21T13:38:18Z</time>
      </trkpt>
      <trkpt lat="49.84233" lon="2.48717">
        <ele>100.2</ele>
        <time>2020-10-21T13:38:19Z</time>
      </trkpt>
      <trkpt lat="49.84233" lon="2.48714">
        <ele>100.2</ele>
        <time>2020-10-21T13:38:20Z</time>
      </trkpt>
      <trkpt lat="49.84232" lon="2.48713">
        <ele>100.2</ele>
        <time>2020-10-21T13:38:21Z</time>
      </trkpt>
      <trkpt lat="49.84232" lon="2.48712">
        <ele>100.2</ele>
        <time>2020-10-21T13:38:22Z</time>
      </trkpt>
      <trkpt lat="49.84232" lon="2.4871">
        <ele>100.3</ele>
        <time>2020-10-21T13:38:24Z</time>
      </trkpt>
      <trkpt lat="49.84231" lon="2.48708">
        <ele>100.3</ele>
        <time>2020-10-21T13:38:25Z</time>
      </trkpt>
      <trkpt lat="49.8423" lon="2.48704">
        <ele>100.3</ele>
        <time>2020-10-21T13:38:26Z</time>
      </trkpt>
      <trkpt lat="49.8423" lon="2.48703">
        <ele>100.3</ele>
        <time>2020-10-21T13:38:27Z</time>
      </trkpt>
      <trkpt lat="49.8423" lon="2.48702">
        <ele>100.3</ele>
        <time>2020-10-21T13:38:28Z</time>
      </trkpt>
      <trkpt lat="49.84229" lon="2.48698">
        <ele>100.4</ele>
        <time>2020-10-21T13:38:29Z</time>
      </trkpt>
      <trkpt lat="49.84229" lon="2.48697">
        <ele>100.4</ele>
        <time>2020-10-21T13:38:31Z</time>
      </trkpt>
      <trkpt lat="49.84229" lon="2.48695">
        <ele>100.4</ele>
        <time>2020-10-21T13:38:32Z</time>
      </trkpt>
      <trkpt lat="49.84228" lon="2.48693">
        <ele>100.5</ele>
        <time>2020-10-21T13:38:33Z</time>
      </trkpt>
      <trkpt lat="49.84228" lon="2.48692">
        <ele>100.5</ele>
        <time>2020-10-21T13:38:34Z</time>
      </trkpt>
      <trkpt lat="49.84228" lon="2.4869">
        <ele>100.5</ele>
        <time>2020-10-21T13:38:35Z</time>
      </trkpt>
      <trkpt lat="49.84227" lon="2.48689">
        <ele>100.5</ele>
        <time>2020-10-21T13:38:36Z</time>
      </trkpt>
      <trkpt lat="49.84227" lon="2.48686">
        <ele>100.6</ele>
        <time>2020-10-21T13:38:38Z</time>
      </trkpt>
      <trkpt lat="49.84226" lon="2.48683">
        <ele>100.6</ele>
        <time>2020-10-21T13:38:39Z</time>
      </trkpt>
      <trkpt lat="49.84226" lon="2.48681">
        <ele>100.6</ele>
        <time>2020-10-21T13:38:40Z</time>
      </trkpt>
      <trkpt lat="49.84226" lon="2.48679">
        <ele>100.7</ele>
        <time>2020-10-21T13:38:42Z</time>
      </trkpt>
      <trkpt lat="49.84225" lon="2.48678">
        <ele>100.7</ele>
        <time>2020-10-21T13:38:43Z</time>
      </trkpt>
      <trkpt lat="49.84225" lon="2.48676">
        <ele>100.7</ele>
        <time>2020-10-21T13:38:44Z</time>
      </trkpt>
      <trkpt lat="49.84225" lon="2.48675">
        <ele>100.7</ele>
        <time>2020-10-21T13:38:45Z</time>
      </trkpt>
      <trkpt lat="49.84225" lon="2.48674">
        <ele>100.7</ele>
        <time>2020-10-21T13:38:46Z</time>
      </trkpt>
      <trkpt lat="49.84225" lon="2.48672">
        <ele>100.8</ele>
        <time>2020-10-21T13:38:47Z</time>
      </trkpt>
      <trkpt lat="49.84224" lon="2.4867">
        <ele>100.8</ele>
        <time>2020-10-21T13:38:49Z</time>
      </trkpt>
      <trkpt lat="49.84224" lon="2.48668">
        <ele>100.8</ele>
        <time>2020-10-21T13:38:50Z</time>
      </trkpt>
      <trkpt lat="49.84224" lon="2.48665">
        <ele>100.9</ele>
        <time>2020-10-21T13:38:51Z</time>
      </trkpt>
      <trkpt lat="49.84224" lon="2.48661">
        <ele>100.9</ele>
        <time>2020-10-21T13:38:52Z</time>
      </trkpt>
      <trkpt lat="49.84224" lon="2.4866">
        <ele>100.9</ele>
        <time>2020-10-21T13:38:53Z</time>
      </trkpt>
      <trkpt lat="49.84224" lon="2.48658">
        <ele>101</ele>
        <time>2020-10-21T13:38:56Z</time>
      </trkpt>
      <trkpt lat="49.84223" lon="2.48656">
        <ele>101</ele>
        <time>2020-10-21T13:38:57Z</time>
      </trkpt>
      <trkpt lat="49.84223" lon="2.48654">
        <ele>101</ele>
        <time>2020-10-21T13:38:58Z</time>
      </trkpt>
      <trkpt lat="49.84223" lon="2.48652">
        <ele>101</ele>
        <time>2020-10-21T13:38:59Z</time>
      </trkpt>
      <trkpt lat="49.84223" lon="2.48649">
        <ele>101.1</ele>
        <time>2020-10-21T13:39:01Z</time>
      </trkpt>
      <trkpt lat="49.84222" lon="2.48647">
        <ele>101.1</ele>
        <time>2020-10-21T13:39:02Z</time>
      </trkpt>
      <trkpt lat="49.84222" lon="2.48645">
        <ele>101.1</ele>
        <time>2020-10-21T13:39:03Z</time>
      </trkpt>
      <trkpt lat="49.84222" lon="2.48643">
        <ele>101.1</ele>
        <time>2020-10-21T13:39:04Z</time>
      </trkpt>
      <trkpt lat="49.84221" lon="2.4864">
        <ele>101.2</ele>
        <time>2020-10-21T13:39:06Z</time>
      </trkpt>
      <trkpt lat="49.84221" lon="2.48637">
        <ele>101.2</ele>
        <time>2020-10-21T13:39:07Z</time>
      </trkpt>
      <trkpt lat="49.84221" lon="2.48635">
        <ele>101.2</ele>
        <time>2020-10-21T13:39:08Z</time>
      </trkpt>
      <trkpt lat="49.84221" lon="2.48633">
        <ele>101.2</ele>
        <time>2020-10-21T13:39:09Z</time>
      </trkpt>
      <trkpt lat="49.8422" lon="2.48631">
        <ele>101.2</ele>
        <time>2020-10-21T13:39:10Z</time>
      </trkpt>
      <trkpt lat="49.8422" lon="2.48629">
        <ele>101.2</ele>
        <time>2020-10-21T13:39:11Z</time>
      </trkpt>
      <trkpt lat="49.84219" lon="2.48626">
        <ele>101.3</ele>
        <time>2020-10-21T13:39:13Z</time>
      </trkpt>
      <trkpt lat="49.84219" lon="2.48624">
        <ele>101.3</ele>
        <time>2020-10-21T13:39:14Z</time>
      </trkpt>
      <trkpt lat="49.84218" lon="2.48621">
        <ele>101.3</ele>
        <time>2020-10-21T13:39:15Z</time>
      </trkpt>
      <trkpt lat="49.84218" lon="2.4862">
        <ele>101.3</ele>
        <time>2020-10-21T13:39:17Z</time>
      </trkpt>
      <trkpt lat="49.84218" lon="2.48618">
        <ele>101.3</ele>
        <time>2020-10-21T13:39:18Z</time>
      </trkpt>
      <trkpt lat="49.84218" lon="2.48616">
        <ele>101.3</ele>
        <time>2020-10-21T13:39:19Z</time>
      </trkpt>
      <trkpt lat="49.84217" lon="2.48613">
        <ele>101.3</ele>
        <time>2020-10-21T13:39:20Z</time>
      </trkpt>
      <trkpt lat="49.84217" lon="2.48612">
        <ele>101.4</ele>
        <time>2020-10-21T13:39:21Z</time>
      </trkpt>
      <trkpt lat="49.84217" lon="2.48611">
        <ele>101.4</ele>
        <time>2020-10-21T13:39:22Z</time>
      </trkpt>
      <trkpt lat="49.84216" lon="2.48608">
        <ele>101.4</ele>
        <time>2020-10-21T13:39:24Z</time>
      </trkpt>
      <trkpt lat="49.84216" lon="2.48606">
        <ele>101.4</ele>
        <time>2020-10-21T13:39:25Z</time>
      </trkpt>
      <trkpt lat="49.84216" lon="2.48602">
        <ele>101.4</ele>
        <time>2020-10-21T13:39:27Z</time>
      </trkpt>
      <trkpt lat="49.84216" lon="2.48601">
        <ele>101.4</ele>
        <time>2020-10-21T13:39:28Z</time>
      </trkpt>
      <trkpt lat="49.84215" lon="2.486">
        <ele>101.4</ele>
        <time>2020-10-21T13:39:29Z</time>
      </trkpt>
      <trkpt lat="49.84215" lon="2.48598">
        <ele>101.4</ele>
        <time>2020-10-21T13:39:30Z</time>
      </trkpt>
      <trkpt lat="49.84215" lon="2.48597">
        <ele>101.4</ele>
        <time>2020-10-21T13:39:32Z</time>
      </trkpt>
      <trkpt lat="49.84215" lon="2.48595">
        <ele>101.5</ele>
        <time>2020-10-21T13:39:33Z</time>
      </trkpt>
      <trkpt lat="49.84215" lon="2.48593">
        <ele>101.5</ele>
        <time>2020-10-21T13:39:34Z</time>
      </trkpt>
      <trkpt lat="49.84214" lon="2.4859">
        <ele>101.5</ele>
        <time>2020-10-21T13:39:36Z</time>
      </trkpt>
      <trkpt lat="49.84214" lon="2.48588">
        <ele>101.5</ele>
        <time>2020-10-21T13:39:37Z</time>
      </trkpt>
      <trkpt lat="49.84214" lon="2.48587">
        <ele>101.5</ele>
        <time>2020-10-21T13:39:38Z</time>
      </trkpt>
      <trkpt lat="49.84213" lon="2.48585">
        <ele>101.5</ele>
        <time>2020-10-21T13:39:39Z</time>
      </trkpt>
      <trkpt lat="49.84213" lon="2.48582">
        <ele>101.6</ele>
        <time>2020-10-21T13:39:40Z</time>
      </trkpt>
      <trkpt lat="49.84212" lon="2.48581">
        <ele>101.6</ele>
        <time>2020-10-21T13:39:41Z</time>
      </trkpt>
      <trkpt lat="49.84212" lon="2.48579">
        <ele>101.6</ele>
        <time>2020-10-21T13:39:43Z</time>
      </trkpt>
      <trkpt lat="49.84211" lon="2.48576">
        <ele>101.6</ele>
        <time>2020-10-21T13:39:44Z</time>
      </trkpt>
      <trkpt lat="49.84211" lon="2.48575">
        <ele>101.6</ele>
        <time>2020-10-21T13:39:45Z</time>
      </trkpt>
      <trkpt lat="49.84211" lon="2.48573">
        <ele>101.6</ele>
        <time>2020-10-21T13:39:46Z</time>
      </trkpt>
      <trkpt lat="49.84211" lon="2.48572">
        <ele>101.6</ele>
        <time>2020-10-21T13:39:47Z</time>
      </trkpt>
      <trkpt lat="49.84211" lon="2.4857">
        <ele>101.7</ele>
        <time>2020-10-21T13:39:48Z</time>
      </trkpt>
      <trkpt lat="49.8421" lon="2.48568">
        <ele>101.7</ele>
        <time>2020-10-21T13:39:50Z</time>
      </trkpt>
      <trkpt lat="49.8421" lon="2.48566">
        <ele>101.7</ele>
        <time>2020-10-21T13:39:51Z</time>
      </trkpt>
      <trkpt lat="49.84209" lon="2.48564">
        <ele>101.7</ele>
        <time>2020-10-21T13:39:52Z</time>
      </trkpt>
      <trkpt lat="49.84209" lon="2.48563">
        <ele>101.7</ele>
        <time>2020-10-21T13:39:53Z</time>
      </trkpt>
      <trkpt lat="49.84208" lon="2.48561">
        <ele>101.7</ele>
        <time>2020-10-21T13:39:54Z</time>
      </trkpt>
      <trkpt lat="49.84208" lon="2.48558">
        <ele>101.8</ele>
        <time>2020-10-21T13:39:55Z</time>
      </trkpt>
      <trkpt lat="49.84208" lon="2.48556">
        <ele>101.8</ele>
        <time>2020-10-21T13:39:57Z</time>
      </trkpt>
      <trkpt lat="49.84208" lon="2.48554">
        <ele>101.8</ele>
        <time>2020-10-21T13:39:58Z</time>
      </trkpt>
      <trkpt lat="49.84207" lon="2.48553">
        <ele>101.8</ele>
        <time>2020-10-21T13:39:59Z</time>
      </trkpt>
      <trkpt lat="49.84207" lon="2.4855">
        <ele>101.8</ele>
        <time>2020-10-21T13:40:01Z</time>
      </trkpt>
      <trkpt lat="49.84206" lon="2.48548">
        <ele>101.8</ele>
        <time>2020-10-21T13:40:02Z</time>
      </trkpt>
      <trkpt lat="49.84206" lon="2.48545">
        <ele>101.8</ele>
        <time>2020-10-21T13:40:03Z</time>
      </trkpt>
      <trkpt lat="49.84206" lon="2.48543">
        <ele>101.8</ele>
        <time>2020-10-21T13:40:04Z</time>
      </trkpt>
      <trkpt lat="49.84206" lon="2.48542">
        <ele>101.8</ele>
        <time>2020-10-21T13:40:05Z</time>
      </trkpt>
      <trkpt lat="49.84206" lon="2.48541">
        <ele>101.9</ele>
        <time>2020-10-21T13:40:07Z</time>
      </trkpt>
      <trkpt lat="49.84206" lon="2.48539">
        <ele>101.9</ele>
        <time>2020-10-21T13:40:08Z</time>
      </trkpt>
      <trkpt lat="49.84206" lon="2.48537">
        <ele>101.9</ele>
        <time>2020-10-21T13:40:09Z</time>
      </trkpt>
      <trkpt lat="49.84205" lon="2.48534">
        <ele>101.9</ele>
        <time>2020-10-21T13:40:11Z</time>
      </trkpt>
      <trkpt lat="49.84205" lon="2.48533">
        <ele>101.9</ele>
        <time>2020-10-21T13:40:12Z</time>
      </trkpt>
      <trkpt lat="49.84205" lon="2.48531">
        <ele>101.9</ele>
        <time>2020-10-21T13:40:13Z</time>
      </trkpt>
      <trkpt lat="49.84204" lon="2.48528">
        <ele>102</ele>
        <time>2020-10-21T13:40:15Z</time>
      </trkpt>
      <trkpt lat="49.84204" lon="2.48526">
        <ele>102</ele>
        <time>2020-10-21T13:40:16Z</time>
      </trkpt>
      <trkpt lat="49.84204" lon="2.48525">
        <ele>102</ele>
        <time>2020-10-21T13:40:17Z</time>
      </trkpt>
      <trkpt lat="49.84203" lon="2.48522">
        <ele>102</ele>
        <time>2020-10-21T13:40:19Z</time>
      </trkpt>
      <trkpt lat="49.84202" lon="2.48519">
        <ele>102.1</ele>
        <time>2020-10-21T13:40:21Z</time>
      </trkpt>
      <trkpt lat="49.84202" lon="2.48517">
        <ele>102.1</ele>
        <time>2020-10-21T13:40:22Z</time>
      </trkpt>
      <trkpt lat="49.84201" lon="2.48516">
        <ele>102.1</ele>
        <time>2020-10-21T13:40:23Z</time>
      </trkpt>
      <trkpt lat="49.842" lon="2.48514">
        <ele>102.1</ele>
        <time>2020-10-21T13:40:25Z</time>
      </trkpt>
      <trkpt lat="49.842" lon="2.48512">
        <ele>102.1</ele>
        <time>2020-10-21T13:40:26Z</time>
      </trkpt>
      <trkpt lat="49.84199" lon="2.4851">
        <ele>102.2</ele>
        <time>2020-10-21T13:40:27Z</time>
      </trkpt>
      <trkpt lat="49.84199" lon="2.48509">
        <ele>102.2</ele>
        <time>2020-10-21T13:40:28Z</time>
      </trkpt>
      <trkpt lat="49.84199" lon="2.48507">
        <ele>102.2</ele>
        <time>2020-10-21T13:40:29Z</time>
      </trkpt>
      <trkpt lat="49.84199" lon="2.48506">
        <ele>102.2</ele>
        <time>2020-10-21T13:40:30Z</time>
      </trkpt>
      <trkpt lat="49.84199" lon="2.48502">
        <ele>102.2</ele>
        <time>2020-10-21T13:40:32Z</time>
      </trkpt>
      <trkpt lat="49.84199" lon="2.485">
        <ele>102.2</ele>
        <time>2020-10-21T13:40:33Z</time>
      </trkpt>
      <trkpt lat="49.84199" lon="2.48498">
        <ele>102.2</ele>
        <time>2020-10-21T13:40:34Z</time>
      </trkpt>
      <trkpt lat="49.84198" lon="2.48494">
        <ele>102.2</ele>
        <time>2020-10-21T13:40:36Z</time>
      </trkpt>
      <trkpt lat="49.84198" lon="2.48493">
        <ele>102.2</ele>
        <time>2020-10-21T13:40:37Z</time>
      </trkpt>
      <trkpt lat="49.84198" lon="2.48491">
        <ele>102.2</ele>
        <time>2020-10-21T13:40:38Z</time>
      </trkpt>
      <trkpt lat="49.84198" lon="2.48488">
        <ele>102.2</ele>
        <time>2020-10-21T13:40:40Z</time>
      </trkpt>
      <trkpt lat="49.84197" lon="2.48485">
        <ele>102.2</ele>
        <time>2020-10-21T13:40:41Z</time>
      </trkpt>
      <trkpt lat="49.84197" lon="2.48484">
        <ele>102.2</ele>
        <time>2020-10-21T13:40:42Z</time>
      </trkpt>
      <trkpt lat="49.84196" lon="2.4848">
        <ele>102.2</ele>
        <time>2020-10-21T13:40:43Z</time>
      </trkpt>
      <trkpt lat="49.84196" lon="2.48479">
        <ele>102.2</ele>
        <time>2020-10-21T13:40:45Z</time>
      </trkpt>
      <trkpt lat="49.84196" lon="2.48477">
        <ele>102.2</ele>
        <time>2020-10-21T13:40:46Z</time>
      </trkpt>
      <trkpt lat="49.84196" lon="2.48476">
        <ele>102.2</ele>
        <time>2020-10-21T13:40:47Z</time>
      </trkpt>
      <trkpt lat="49.84196" lon="2.48475">
        <ele>102.2</ele>
        <time>2020-10-21T13:40:48Z</time>
      </trkpt>
      <trkpt lat="49.84195" lon="2.48473">
        <ele>102.2</ele>
        <time>2020-10-21T13:40:49Z</time>
      </trkpt>
      <trkpt lat="49.84195" lon="2.48471">
        <ele>102.2</ele>
        <time>2020-10-21T13:40:51Z</time>
      </trkpt>
      <trkpt lat="49.84195" lon="2.4847">
        <ele>102.2</ele>
        <time>2020-10-21T13:40:52Z</time>
      </trkpt>
      <trkpt lat="49.84195" lon="2.48468">
        <ele>102.3</ele>
        <time>2020-10-21T13:40:53Z</time>
      </trkpt>
      <trkpt lat="49.84194" lon="2.48467">
        <ele>102.3</ele>
        <time>2020-10-21T13:40:55Z</time>
      </trkpt>
      <trkpt lat="49.84194" lon="2.48464">
        <ele>102.3</ele>
        <time>2020-10-21T13:40:56Z</time>
      </trkpt>
      <trkpt lat="49.84194" lon="2.48464">
        <ele>102.3</ele>
        <time>2020-10-21T13:40:57Z</time>
      </trkpt>
      <trkpt lat="49.84194" lon="2.48461">
        <ele>102.3</ele>
        <time>2020-10-21T13:40:58Z</time>
      </trkpt>
      <trkpt lat="49.84194" lon="2.4846">
        <ele>102.3</ele>
        <time>2020-10-21T13:40:59Z</time>
      </trkpt>
      <trkpt lat="49.84194" lon="2.48459">
        <ele>102.3</ele>
        <time>2020-10-21T13:41:00Z</time>
      </trkpt>
      <trkpt lat="49.84194" lon="2.48457">
        <ele>102.3</ele>
        <time>2020-10-21T13:41:01Z</time>
      </trkpt>
      <trkpt lat="49.84194" lon="2.48456">
        <ele>102.3</ele>
        <time>2020-10-21T13:41:03Z</time>
      </trkpt>
      <trkpt lat="49.84193" lon="2.48454">
        <ele>102.3</ele>
        <time>2020-10-21T13:41:04Z</time>
      </trkpt>
      <trkpt lat="49.84193" lon="2.48453">
        <ele>102.3</ele>
        <time>2020-10-21T13:41:05Z</time>
      </trkpt>
      <trkpt lat="49.84193" lon="2.4845">
        <ele>102.3</ele>
        <time>2020-10-21T13:41:06Z</time>
      </trkpt>
      <trkpt lat="49.84193" lon="2.48449">
        <ele>102.3</ele>
        <time>2020-10-21T13:41:07Z</time>
      </trkpt>
      <trkpt lat="49.84193" lon="2.48448">
        <ele>102.3</ele>
        <time>2020-10-21T13:41:09Z</time>
      </trkpt>
      <trkpt lat="49.84193" lon="2.48446">
        <ele>102.3</ele>
        <time>2020-10-21T13:41:10Z</time>
      </trkpt>
      <trkpt lat="49.84192" lon="2.48443">
        <ele>102.4</ele>
        <time>2020-10-21T13:41:11Z</time>
      </trkpt>
      <trkpt lat="49.84193" lon="2.48442">
        <ele>102.4</ele>
        <time>2020-10-21T13:41:12Z</time>
      </trkpt>
      <trkpt lat="49.84193" lon="2.48441">
        <ele>102.4</ele>
        <time>2020-10-21T13:41:13Z</time>
      </trkpt>
      <trkpt lat="49.84192" lon="2.48437">
        <ele>102.4</ele>
        <time>2020-10-21T13:41:15Z</time>
      </trkpt>
      <trkpt lat="49.84192" lon="2.48435">
        <ele>102.4</ele>
        <time>2020-10-21T13:41:16Z</time>
      </trkpt>
      <trkpt lat="49.84192" lon="2.48434">
        <ele>102.5</ele>
        <time>2020-10-21T13:41:17Z</time>
      </trkpt>
      <trkpt lat="49.84191" lon="2.48432">
        <ele>102.5</ele>
        <time>2020-10-21T13:41:19Z</time>
      </trkpt>
      <trkpt lat="49.84191" lon="2.4843">
        <ele>102.5</ele>
        <time>2020-10-21T13:41:20Z</time>
      </trkpt>
      <trkpt lat="49.8419" lon="2.48427">
        <ele>102.5</ele>
        <time>2020-10-21T13:41:21Z</time>
      </trkpt>
      <trkpt lat="49.8419" lon="2.48426">
        <ele>102.5</ele>
        <time>2020-10-21T13:41:22Z</time>
      </trkpt>
      <trkpt lat="49.8419" lon="2.48425">
        <ele>102.5</ele>
        <time>2020-10-21T13:41:23Z</time>
      </trkpt>
      <trkpt lat="49.84189" lon="2.48422">
        <ele>102.6</ele>
        <time>2020-10-21T13:41:25Z</time>
      </trkpt>
      <trkpt lat="49.84189" lon="2.4842">
        <ele>102.6</ele>
        <time>2020-10-21T13:41:26Z</time>
      </trkpt>
      <trkpt lat="49.84188" lon="2.48419">
        <ele>102.6</ele>
        <time>2020-10-21T13:41:27Z</time>
      </trkpt>
      <trkpt lat="49.84188" lon="2.48417">
        <ele>102.6</ele>
        <time>2020-10-21T13:41:29Z</time>
      </trkpt>
      <trkpt lat="49.84188" lon="2.48415">
        <ele>102.6</ele>
        <time>2020-10-21T13:41:30Z</time>
      </trkpt>
      <trkpt lat="49.84188" lon="2.48412">
        <ele>102.6</ele>
        <time>2020-10-21T13:41:31Z</time>
      </trkpt>
      <trkpt lat="49.84188" lon="2.48411">
        <ele>102.6</ele>
        <time>2020-10-21T13:41:32Z</time>
      </trkpt>
      <trkpt lat="49.84188" lon="2.48409">
        <ele>102.6</ele>
        <time>2020-10-21T13:41:34Z</time>
      </trkpt>
      <trkpt lat="49.84187" lon="2.48407">
        <ele>102.6</ele>
        <time>2020-10-21T13:41:35Z</time>
      </trkpt>
      <trkpt lat="49.84187" lon="2.48405">
        <ele>102.7</ele>
        <time>2020-10-21T13:41:36Z</time>
      </trkpt>
      <trkpt lat="49.84186" lon="2.48404">
        <ele>102.7</ele>
        <time>2020-10-21T13:41:37Z</time>
      </trkpt>
      <trkpt lat="49.84186" lon="2.48402">
        <ele>102.7</ele>
        <time>2020-10-21T13:41:38Z</time>
      </trkpt>
      <trkpt lat="49.84185" lon="2.48399">
        <ele>102.7</ele>
        <time>2020-10-21T13:41:40Z</time>
      </trkpt>
      <trkpt lat="49.84185" lon="2.48397">
        <ele>102.7</ele>
        <time>2020-10-21T13:41:41Z</time>
      </trkpt>
      <trkpt lat="49.84184" lon="2.48396">
        <ele>102.7</ele>
        <time>2020-10-21T13:41:42Z</time>
      </trkpt>
      <trkpt lat="49.84184" lon="2.48394">
        <ele>102.7</ele>
        <time>2020-10-21T13:41:43Z</time>
      </trkpt>
      <trkpt lat="49.84184" lon="2.48392">
        <ele>102.7</ele>
        <time>2020-10-21T13:41:45Z</time>
      </trkpt>
      <trkpt lat="49.84183" lon="2.48391">
        <ele>102.7</ele>
        <time>2020-10-21T13:41:46Z</time>
      </trkpt>
      <trkpt lat="49.84183" lon="2.48389">
        <ele>102.7</ele>
        <time>2020-10-21T13:41:47Z</time>
      </trkpt>
      <trkpt lat="49.84183" lon="2.48388">
        <ele>102.7</ele>
        <time>2020-10-21T13:41:48Z</time>
      </trkpt>
      <trkpt lat="49.84183" lon="2.48386">
        <ele>102.7</ele>
        <time>2020-10-21T13:41:49Z</time>
      </trkpt>
      <trkpt lat="49.84182" lon="2.48384">
        <ele>102.7</ele>
        <time>2020-10-21T13:41:50Z</time>
      </trkpt>
      <trkpt lat="49.84182" lon="2.48383">
        <ele>102.7</ele>
        <time>2020-10-21T13:41:51Z</time>
      </trkpt>
      <trkpt lat="49.84181" lon="2.4838">
        <ele>102.7</ele>
        <time>2020-10-21T13:41:53Z</time>
      </trkpt>
      <trkpt lat="49.84181" lon="2.48378">
        <ele>102.7</ele>
        <time>2020-10-21T13:41:55Z</time>
      </trkpt>
      <trkpt lat="49.8418" lon="2.48377">
        <ele>102.7</ele>
        <time>2020-10-21T13:41:56Z</time>
      </trkpt>
      <trkpt lat="49.8418" lon="2.48375">
        <ele>102.7</ele>
        <time>2020-10-21T13:41:58Z</time>
      </trkpt>
      <trkpt lat="49.8418" lon="2.48373">
        <ele>102.6</ele>
        <time>2020-10-21T13:41:59Z</time>
      </trkpt>
      <trkpt lat="49.8418" lon="2.48371">
        <ele>102.6</ele>
        <time>2020-10-21T13:42:00Z</time>
      </trkpt>
      <trkpt lat="49.8418" lon="2.4837">
        <ele>102.6</ele>
        <time>2020-10-21T13:42:01Z</time>
      </trkpt>
      <trkpt lat="49.8418" lon="2.48368">
        <ele>102.6</ele>
        <time>2020-10-21T13:42:02Z</time>
      </trkpt>
      <trkpt lat="49.8418" lon="2.48366">
        <ele>102.6</ele>
        <time>2020-10-21T13:42:03Z</time>
      </trkpt>
      <trkpt lat="49.84179" lon="2.48363">
        <ele>102.6</ele>
        <time>2020-10-21T13:42:05Z</time>
      </trkpt>
      <trkpt lat="49.84179" lon="2.48362">
        <ele>102.6</ele>
        <time>2020-10-21T13:42:06Z</time>
      </trkpt>
      <trkpt lat="49.84179" lon="2.4836">
        <ele>102.6</ele>
        <time>2020-10-21T13:42:07Z</time>
      </trkpt>
      <trkpt lat="49.84178" lon="2.48359">
        <ele>102.5</ele>
        <time>2020-10-21T13:42:08Z</time>
      </trkpt>
      <trkpt lat="49.84178" lon="2.48355">
        <ele>102.5</ele>
        <time>2020-10-21T13:42:10Z</time>
      </trkpt>
      <trkpt lat="49.84179" lon="2.48353">
        <ele>102.5</ele>
        <time>2020-10-21T13:42:12Z</time>
      </trkpt>
      <trkpt lat="49.84179" lon="2.48351">
        <ele>102.4</ele>
        <time>2020-10-21T13:42:13Z</time>
      </trkpt>
      <trkpt lat="49.84179" lon="2.48349">
        <ele>102.4</ele>
        <time>2020-10-21T13:42:14Z</time>
      </trkpt>
      <trkpt lat="49.84179" lon="2.48348">
        <ele>102.4</ele>
        <time>2020-10-21T13:42:15Z</time>
      </trkpt>
      <trkpt lat="49.84178" lon="2.48347">
        <ele>102.4</ele>
        <time>2020-10-21T13:42:16Z</time>
      </trkpt>
      <trkpt lat="49.84178" lon="2.48345">
        <ele>102.3</ele>
        <time>2020-10-21T13:42:18Z</time>
      </trkpt>
      <trkpt lat="49.84178" lon="2.48343">
        <ele>102.3</ele>
        <time>2020-10-21T13:42:19Z</time>
      </trkpt>
      <trkpt lat="49.84177" lon="2.48341">
        <ele>102.3</ele>
        <time>2020-10-21T13:42:21Z</time>
      </trkpt>
      <trkpt lat="49.84177" lon="2.4834">
        <ele>102.3</ele>
        <time>2020-10-21T13:42:22Z</time>
      </trkpt>
      <trkpt lat="49.84178" lon="2.4834">
        <ele>102.2</ele>
        <time>2020-10-21T13:42:24Z</time>
      </trkpt>
      <trkpt lat="49.84178" lon="2.4834">
        <ele>102.2</ele>
        <time>2020-10-21T13:42:26Z</time>
      </trkpt>
      <trkpt lat="49.84178" lon="2.48341">
        <ele>102.2</ele>
        <time>2020-10-21T13:42:27Z</time>
      </trkpt>
      <trkpt lat="49.84178" lon="2.48341">
        <ele>102.2</ele>
        <time>2020-10-21T13:42:29Z</time>
      </trkpt>
      <trkpt lat="49.84178" lon="2.48341">
        <ele>102.2</ele>
        <time>2020-10-21T13:42:30Z</time>
      </trkpt>
      <trkpt lat="49.84177" lon="2.4834">
        <ele>102.2</ele>
        <time>2020-10-21T13:42:31Z</time>
      </trkpt>
      <trkpt lat="49.84177" lon="2.48339">
        <ele>102.2</ele>
        <time>2020-10-21T13:42:32Z</time>
      </trkpt>
      <trkpt lat="49.84176" lon="2.48338">
        <ele>102.2</ele>
        <time>2020-10-21T13:42:34Z</time>
      </trkpt>
      <trkpt lat="49.84176" lon="2.48337">
        <ele>102.1</ele>
        <time>2020-10-21T13:42:35Z</time>
      </trkpt>
      <trkpt lat="49.84175" lon="2.48335">
        <ele>102.1</ele>
        <time>2020-10-21T13:42:37Z</time>
      </trkpt>
      <trkpt lat="49.84174" lon="2.48334">
        <ele>102.1</ele>
        <time>2020-10-21T13:42:38Z</time>
      </trkpt>
      <trkpt lat="49.84174" lon="2.48332">
        <ele>102</ele>
        <time>2020-10-21T13:42:40Z</time>
      </trkpt>
      <trkpt lat="49.84173" lon="2.4833">
        <ele>102</ele>
        <time>2020-10-21T13:42:41Z</time>
      </trkpt>
      <trkpt lat="49.84173" lon="2.48329">
        <ele>102</ele>
        <time>2020-10-21T13:42:42Z</time>
      </trkpt>
      <trkpt lat="49.84173" lon="2.48327">
        <ele>101.9</ele>
        <time>2020-10-21T13:42:43Z</time>
      </trkpt>
      <trkpt lat="49.84173" lon="2.48325">
        <ele>101.9</ele>
        <time>2020-10-21T13:42:44Z</time>
      </trkpt>
      <trkpt lat="49.84173" lon="2.48322">
        <ele>101.8</ele>
        <time>2020-10-21T13:42:46Z</time>
      </trkpt>
      <trkpt lat="49.84172" lon="2.4832">
        <ele>101.8</ele>
        <time>2020-10-21T13:42:47Z</time>
      </trkpt>
      <trkpt lat="49.84172" lon="2.48318">
        <ele>101.8</ele>
        <time>2020-10-21T13:42:48Z</time>
      </trkpt>
      <trkpt lat="49.84172" lon="2.48316">
        <ele>101.7</ele>
        <time>2020-10-21T13:42:50Z</time>
      </trkpt>
      <trkpt lat="49.84172" lon="2.48314">
        <ele>101.7</ele>
        <time>2020-10-21T13:42:51Z</time>
      </trkpt>
      <trkpt lat="49.84171" lon="2.48312">
        <ele>101.6</ele>
        <time>2020-10-21T13:42:52Z</time>
      </trkpt>
      <trkpt lat="49.84171" lon="2.4831">
        <ele>101.6</ele>
        <time>2020-10-21T13:42:53Z</time>
      </trkpt>
      <trkpt lat="49.84171" lon="2.48308">
        <ele>101.6</ele>
        <time>2020-10-21T13:42:55Z</time>
      </trkpt>
      <trkpt lat="49.84171" lon="2.48306">
        <ele>101.5</ele>
        <time>2020-10-21T13:42:56Z</time>
      </trkpt>
      <trkpt lat="49.84171" lon="2.48304">
        <ele>101.5</ele>
        <time>2020-10-21T13:42:57Z</time>
      </trkpt>
      <trkpt lat="49.84171" lon="2.48303">
        <ele>101.5</ele>
        <time>2020-10-21T13:42:58Z</time>
      </trkpt>
      <trkpt lat="49.84171" lon="2.48301">
        <ele>101.5</ele>
        <time>2020-10-21T13:42:59Z</time>
      </trkpt>
      <trkpt lat="49.8417" lon="2.48298">
        <ele>101.5</ele>
        <time>2020-10-21T13:43:01Z</time>
      </trkpt>
      <trkpt lat="49.8417" lon="2.48296">
        <ele>101.5</ele>
        <time>2020-10-21T13:43:02Z</time>
      </trkpt>
      <trkpt lat="49.8417" lon="2.48294">
        <ele>101.5</ele>
        <time>2020-10-21T13:43:03Z</time>
      </trkpt>
      <trkpt lat="49.84169" lon="2.48293">
        <ele>101.5</ele>
        <time>2020-10-21T13:43:05Z</time>
      </trkpt>
      <trkpt lat="49.84168" lon="2.48293">
        <ele>101.5</ele>
        <time>2020-10-21T13:43:06Z</time>
      </trkpt>
      <trkpt lat="49.84168" lon="2.48291">
        <ele>101.5</ele>
        <time>2020-10-21T13:43:08Z</time>
      </trkpt>
      <trkpt lat="49.84168" lon="2.4829">
        <ele>101.5</ele>
        <time>2020-10-21T13:43:09Z</time>
      </trkpt>
      <trkpt lat="49.84168" lon="2.48288">
        <ele>101.5</ele>
        <time>2020-10-21T13:43:10Z</time>
      </trkpt>
      <trkpt lat="49.84168" lon="2.48287">
        <ele>101.5</ele>
        <time>2020-10-21T13:43:11Z</time>
      </trkpt>
      <trkpt lat="49.84168" lon="2.48285">
        <ele>101.5</ele>
        <time>2020-10-21T13:43:12Z</time>
      </trkpt>
      <trkpt lat="49.84168" lon="2.48283">
        <ele>101.5</ele>
        <time>2020-10-21T13:43:13Z</time>
      </trkpt>
      <trkpt lat="49.84168" lon="2.4828">
        <ele>101.5</ele>
        <time>2020-10-21T13:43:15Z</time>
      </trkpt>
      <trkpt lat="49.84168" lon="2.48278">
        <ele>101.5</ele>
        <time>2020-10-21T13:43:16Z</time>
      </trkpt>
      <trkpt lat="49.84168" lon="2.48275">
        <ele>101.5</ele>
        <time>2020-10-21T13:43:17Z</time>
      </trkpt>
      <trkpt lat="49.84167" lon="2.48273">
        <ele>101.5</ele>
        <time>2020-10-21T13:43:18Z</time>
      </trkpt>
      <trkpt lat="49.84167" lon="2.4827">
        <ele>101.5</ele>
        <time>2020-10-21T13:43:19Z</time>
      </trkpt>
      <trkpt lat="49.84167" lon="2.48267">
        <ele>101.5</ele>
        <time>2020-10-21T13:43:21Z</time>
      </trkpt>
      <trkpt lat="49.84167" lon="2.48265">
        <ele>101.5</ele>
        <time>2020-10-21T13:43:22Z</time>
      </trkpt>
      <trkpt lat="49.84166" lon="2.48263">
        <ele>101.5</ele>
        <time>2020-10-21T13:43:23Z</time>
      </trkpt>
      <trkpt lat="49.84166" lon="2.48261">
        <ele>101.5</ele>
        <time>2020-10-21T13:43:25Z</time>
      </trkpt>
      <trkpt lat="49.84166" lon="2.48259">
        <ele>101.5</ele>
        <time>2020-10-21T13:43:26Z</time>
      </trkpt>
      <trkpt lat="49.84165" lon="2.48257">
        <ele>101.5</ele>
        <time>2020-10-21T13:43:27Z</time>
      </trkpt>
      <trkpt lat="49.84165" lon="2.48255">
        <ele>101.5</ele>
        <time>2020-10-21T13:43:28Z</time>
      </trkpt>
      <trkpt lat="49.84165" lon="2.48254">
        <ele>101.5</ele>
        <time>2020-10-21T13:43:29Z</time>
      </trkpt>
      <trkpt lat="49.84165" lon="2.48251">
        <ele>101.5</ele>
        <time>2020-10-21T13:43:30Z</time>
      </trkpt>
      <trkpt lat="49.84164" lon="2.4825">
        <ele>101.5</ele>
        <time>2020-10-21T13:43:31Z</time>
      </trkpt>
      <trkpt lat="49.84164" lon="2.48249">
        <ele>101.4</ele>
        <time>2020-10-21T13:43:33Z</time>
      </trkpt>
      <trkpt lat="49.84163" lon="2.48247">
        <ele>101.4</ele>
        <time>2020-10-21T13:43:34Z</time>
      </trkpt>
      <trkpt lat="49.84163" lon="2.48246">
        <ele>101.4</ele>
        <time>2020-10-21T13:43:35Z</time>
      </trkpt>
      <trkpt lat="49.84162" lon="2.48244">
        <ele>101.4</ele>
        <time>2020-10-21T13:43:36Z</time>
      </trkpt>
      <trkpt lat="49.84162" lon="2.48242">
        <ele>101.3</ele>
        <time>2020-10-21T13:43:37Z</time>
      </trkpt>
      <trkpt lat="49.84162" lon="2.4824">
        <ele>101.3</ele>
        <time>2020-10-21T13:43:38Z</time>
      </trkpt>
      <trkpt lat="49.84162" lon="2.48238">
        <ele>101.3</ele>
        <time>2020-10-21T13:43:40Z</time>
      </trkpt>
      <trkpt lat="49.84162" lon="2.48236">
        <ele>101.3</ele>
        <time>2020-10-21T13:43:41Z</time>
      </trkpt>
      <trkpt lat="49.84162" lon="2.48234">
        <ele>101.2</ele>
        <time>2020-10-21T13:43:42Z</time>
      </trkpt>
      <trkpt lat="49.84161" lon="2.48231">
        <ele>101.2</ele>
        <time>2020-10-21T13:43:43Z</time>
      </trkpt>
      <trkpt lat="49.84161" lon="2.48229">
        <ele>101.2</ele>
        <time>2020-10-21T13:43:44Z</time>
      </trkpt>
      <trkpt lat="49.84161" lon="2.48228">
        <ele>101.1</ele>
        <time>2020-10-21T13:43:45Z</time>
      </trkpt>
      <trkpt lat="49.84161" lon="2.48225">
        <ele>101.1</ele>
        <time>2020-10-21T13:43:47Z</time>
      </trkpt>
      <trkpt lat="49.84161" lon="2.48223">
        <ele>101.1</ele>
        <time>2020-10-21T13:43:48Z</time>
      </trkpt>
      <trkpt lat="49.84161" lon="2.4822">
        <ele>101.1</ele>
        <time>2020-10-21T13:43:49Z</time>
      </trkpt>
      <trkpt lat="49.84161" lon="2.48218">
        <ele>101</ele>
        <time>2020-10-21T13:43:51Z</time>
      </trkpt>
      <trkpt lat="49.84161" lon="2.48215">
        <ele>101</ele>
        <time>2020-10-21T13:43:52Z</time>
      </trkpt>
      <trkpt lat="49.84161" lon="2.48212">
        <ele>101</ele>
        <time>2020-10-21T13:43:53Z</time>
      </trkpt>
      <trkpt lat="49.84161" lon="2.48209">
        <ele>101</ele>
        <time>2020-10-21T13:43:54Z</time>
      </trkpt>
      <trkpt lat="49.84161" lon="2.48207">
        <ele>101</ele>
        <time>2020-10-21T13:43:56Z</time>
      </trkpt>
      <trkpt lat="49.8416" lon="2.48205">
        <ele>101</ele>
        <time>2020-10-21T13:43:57Z</time>
      </trkpt>
      <trkpt lat="49.8416" lon="2.48204">
        <ele>101</ele>
        <time>2020-10-21T13:43:58Z</time>
      </trkpt>
      <trkpt lat="49.8416" lon="2.48202">
        <ele>101</ele>
        <time>2020-10-21T13:43:59Z</time>
      </trkpt>
      <trkpt lat="49.84159" lon="2.482">
        <ele>101</ele>
        <time>2020-10-21T13:44:00Z</time>
      </trkpt>
      <trkpt lat="49.84159" lon="2.48198">
        <ele>101</ele>
        <time>2020-10-21T13:44:01Z</time>
      </trkpt>
      <trkpt lat="49.84159" lon="2.48197">
        <ele>101</ele>
        <time>2020-10-21T13:44:02Z</time>
      </trkpt>
      <trkpt lat="49.84159" lon="2.48195">
        <ele>101</ele>
        <time>2020-10-21T13:44:04Z</time>
      </trkpt>
      <trkpt lat="49.84159" lon="2.48194">
        <ele>101</ele>
        <time>2020-10-21T13:44:05Z</time>
      </trkpt>
      <trkpt lat="49.84159" lon="2.48192">
        <ele>101</ele>
        <time>2020-10-21T13:44:06Z</time>
      </trkpt>
      <trkpt lat="49.84159" lon="2.4819">
        <ele>101</ele>
        <time>2020-10-21T13:44:07Z</time>
      </trkpt>
      <trkpt lat="49.84159" lon="2.48189">
        <ele>101</ele>
        <time>2020-10-21T13:44:08Z</time>
      </trkpt>
      <trkpt lat="49.84159" lon="2.48187">
        <ele>101</ele>
        <time>2020-10-21T13:44:09Z</time>
      </trkpt>
      <trkpt lat="49.84159" lon="2.48186">
        <ele>101</ele>
        <time>2020-10-21T13:44:11Z</time>
      </trkpt>
      <trkpt lat="49.84158" lon="2.48184">
        <ele>101</ele>
        <time>2020-10-21T13:44:12Z</time>
      </trkpt>
      <trkpt lat="49.84158" lon="2.48183">
        <ele>101</ele>
        <time>2020-10-21T13:44:13Z</time>
      </trkpt>
      <trkpt lat="49.84157" lon="2.48181">
        <ele>101</ele>
        <time>2020-10-21T13:44:14Z</time>
      </trkpt>
      <trkpt lat="49.84157" lon="2.4818">
        <ele>101</ele>
        <time>2020-10-21T13:44:15Z</time>
      </trkpt>
      <trkpt lat="49.84156" lon="2.48178">
        <ele>101</ele>
        <time>2020-10-21T13:44:17Z</time>
      </trkpt>
      <trkpt lat="49.84156" lon="2.48177">
        <ele>101</ele>
        <time>2020-10-21T13:44:18Z</time>
      </trkpt>
      <trkpt lat="49.84155" lon="2.48176">
        <ele>101</ele>
        <time>2020-10-21T13:44:19Z</time>
      </trkpt>
      <trkpt lat="49.84155" lon="2.48174">
        <ele>101</ele>
        <time>2020-10-21T13:44:20Z</time>
      </trkpt>
      <trkpt lat="49.84155" lon="2.48173">
        <ele>101</ele>
        <time>2020-10-21T13:44:22Z</time>
      </trkpt>
      <trkpt lat="49.84155" lon="2.48171">
        <ele>101</ele>
        <time>2020-10-21T13:44:23Z</time>
      </trkpt>
      <trkpt lat="49.84155" lon="2.4817">
        <ele>101</ele>
        <time>2020-10-21T13:44:24Z</time>
      </trkpt>
      <trkpt lat="49.84154" lon="2.48168">
        <ele>101</ele>
        <time>2020-10-21T13:44:25Z</time>
      </trkpt>
      <trkpt lat="49.84154" lon="2.48166">
        <ele>100.9</ele>
        <time>2020-10-21T13:44:26Z</time>
      </trkpt>
      <trkpt lat="49.84153" lon="2.48164">
        <ele>100.9</ele>
        <time>2020-10-21T13:44:27Z</time>
      </trkpt>
      <trkpt lat="49.84153" lon="2.48163">
        <ele>100.9</ele>
        <time>2020-10-21T13:44:29Z</time>
      </trkpt>
      <trkpt lat="49.84153" lon="2.48161">
        <ele>100.9</ele>
        <time>2020-10-21T13:44:30Z</time>
      </trkpt>
      <trkpt lat="49.84152" lon="2.48159">
        <ele>100.9</ele>
        <time>2020-10-21T13:44:31Z</time>
      </trkpt>
      <trkpt lat="49.84152" lon="2.48158">
        <ele>100.9</ele>
        <time>2020-10-21T13:44:32Z</time>
      </trkpt>
      <trkpt lat="49.84152" lon="2.48155">
        <ele>100.8</ele>
        <time>2020-10-21T13:44:33Z</time>
      </trkpt>
      <trkpt lat="49.84152" lon="2.48154">
        <ele>100.8</ele>
        <time>2020-10-21T13:44:34Z</time>
      </trkpt>
      <trkpt lat="49.84152" lon="2.48153">
        <ele>100.8</ele>
        <time>2020-10-21T13:44:36Z</time>
      </trkpt>
      <trkpt lat="49.84152" lon="2.48151">
        <ele>100.8</ele>
        <time>2020-10-21T13:44:37Z</time>
      </trkpt>
      <trkpt lat="49.84151" lon="2.48149">
        <ele>100.8</ele>
        <time>2020-10-21T13:44:38Z</time>
      </trkpt>
      <trkpt lat="49.84151" lon="2.48148">
        <ele>100.7</ele>
        <time>2020-10-21T13:44:39Z</time>
      </trkpt>
      <trkpt lat="49.8415" lon="2.48146">
        <ele>100.7</ele>
        <time>2020-10-21T13:44:40Z</time>
      </trkpt>
      <trkpt lat="49.8415" lon="2.48144">
        <ele>100.7</ele>
        <time>2020-10-21T13:44:42Z</time>
      </trkpt>
      <trkpt lat="49.84149" lon="2.48142">
        <ele>100.7</ele>
        <time>2020-10-21T13:44:43Z</time>
      </trkpt>
      <trkpt lat="49.84149" lon="2.4814">
        <ele>100.6</ele>
        <time>2020-10-21T13:44:44Z</time>
      </trkpt>
      <trkpt lat="49.84148" lon="2.48139">
        <ele>100.6</ele>
        <time>2020-10-21T13:44:45Z</time>
      </trkpt>
      <trkpt lat="49.84148" lon="2.48136">
        <ele>100.5</ele>
        <time>2020-10-21T13:44:46Z</time>
      </trkpt>
      <trkpt lat="49.84147" lon="2.48134">
        <ele>100.5</ele>
        <time>2020-10-21T13:44:48Z</time>
      </trkpt>
      <trkpt lat="49.84147" lon="2.48133">
        <ele>100.5</ele>
        <time>2020-10-21T13:44:49Z</time>
      </trkpt>
      <trkpt lat="49.84147" lon="2.48131">
        <ele>100.5</ele>
        <time>2020-10-21T13:44:50Z</time>
      </trkpt>
      <trkpt lat="49.84146" lon="2.48129">
        <ele>100.4</ele>
        <time>2020-10-21T13:44:51Z</time>
      </trkpt>
      <trkpt lat="49.84146" lon="2.48128">
        <ele>100.4</ele>
        <time>2020-10-21T13:44:52Z</time>
      </trkpt>
      <trkpt lat="49.84146" lon="2.48126">
        <ele>100.4</ele>
        <time>2020-10-21T13:44:53Z</time>
      </trkpt>
      <trkpt lat="49.84146" lon="2.48125">
        <ele>100.4</ele>
        <time>2020-10-21T13:44:54Z</time>
      </trkpt>
      <trkpt lat="49.84146" lon="2.48123">
        <ele>100.3</ele>
        <time>2020-10-21T13:44:55Z</time>
      </trkpt>
      <trkpt lat="49.84145" lon="2.48121">
        <ele>100.3</ele>
        <time>2020-10-21T13:44:57Z</time>
      </trkpt>
      <trkpt lat="49.84145" lon="2.4812">
        <ele>100.3</ele>
        <time>2020-10-21T13:44:58Z</time>
      </trkpt>
      <trkpt lat="49.84144" lon="2.48118">
        <ele>100.2</ele>
        <time>2020-10-21T13:44:59Z</time>
      </trkpt>
      <trkpt lat="49.84144" lon="2.48117">
        <ele>100.2</ele>
        <time>2020-10-21T13:45:00Z</time>
      </trkpt>
      <trkpt lat="49.84143" lon="2.48116">
        <ele>100.2</ele>
        <time>2020-10-21T13:45:01Z</time>
      </trkpt>
      <trkpt lat="49.84142" lon="2.48114">
        <ele>100.1</ele>
        <time>2020-10-21T13:45:03Z</time>
      </trkpt>
      <trkpt lat="49.84142" lon="2.48112">
        <ele>100.1</ele>
        <time>2020-10-21T13:45:04Z</time>
      </trkpt>
      <trkpt lat="49.84142" lon="2.4811">
        <ele>100</ele>
        <time>2020-10-21T13:45:05Z</time>
      </trkpt>
      <trkpt lat="49.84143" lon="2.48108">
        <ele>100</ele>
        <time>2020-10-21T13:45:06Z</time>
      </trkpt>
      <trkpt lat="49.84143" lon="2.48107">
        <ele>100</ele>
        <time>2020-10-21T13:45:07Z</time>
      </trkpt>
      <trkpt lat="49.84143" lon="2.48105">
        <ele>100</ele>
        <time>2020-10-21T13:45:09Z</time>
      </trkpt>
      <trkpt lat="49.84143" lon="2.48104">
        <ele>99.9</ele>
        <time>2020-10-21T13:45:10Z</time>
      </trkpt>
      <trkpt lat="49.84143" lon="2.48101">
        <ele>99.9</ele>
        <time>2020-10-21T13:45:11Z</time>
      </trkpt>
      <trkpt lat="49.84143" lon="2.481">
        <ele>99.9</ele>
        <time>2020-10-21T13:45:12Z</time>
      </trkpt>
      <trkpt lat="49.84143" lon="2.48099">
        <ele>99.9</ele>
        <time>2020-10-21T13:45:13Z</time>
      </trkpt>
      <trkpt lat="49.84143" lon="2.48098">
        <ele>99.9</ele>
        <time>2020-10-21T13:45:14Z</time>
      </trkpt>
      <trkpt lat="49.84142" lon="2.48096">
        <ele>99.9</ele>
        <time>2020-10-21T13:45:16Z</time>
      </trkpt>
      <trkpt lat="49.84142" lon="2.48095">
        <ele>99.9</ele>
        <time>2020-10-21T13:45:17Z</time>
      </trkpt>
      <trkpt lat="49.84141" lon="2.48093">
        <ele>99.9</ele>
        <time>2020-10-21T13:45:18Z</time>
      </trkpt>
      <trkpt lat="49.8414" lon="2.4809">
        <ele>99.8</ele>
        <time>2020-10-21T13:45:19Z</time>
      </trkpt>
      <trkpt lat="49.8414" lon="2.48089">
        <ele>99.8</ele>
        <time>2020-10-21T13:45:20Z</time>
      </trkpt>
      <trkpt lat="49.84139" lon="2.48088">
        <ele>99.8</ele>
        <time>2020-10-21T13:45:21Z</time>
      </trkpt>
      <trkpt lat="49.84139" lon="2.48086">
        <ele>99.8</ele>
        <time>2020-10-21T13:45:23Z</time>
      </trkpt>
      <trkpt lat="49.84138" lon="2.48084">
        <ele>99.8</ele>
        <time>2020-10-21T13:45:24Z</time>
      </trkpt>
      <trkpt lat="49.84137" lon="2.48081">
        <ele>99.8</ele>
        <time>2020-10-21T13:45:25Z</time>
      </trkpt>
      <trkpt lat="49.84137" lon="2.4808">
        <ele>99.8</ele>
        <time>2020-10-21T13:45:26Z</time>
      </trkpt>
      <trkpt lat="49.84137" lon="2.48079">
        <ele>99.8</ele>
        <time>2020-10-21T13:45:27Z</time>
      </trkpt>
      <trkpt lat="49.84137" lon="2.48077">
        <ele>99.8</ele>
        <time>2020-10-21T13:45:28Z</time>
      </trkpt>
      <trkpt lat="49.84136" lon="2.48075">
        <ele>99.8</ele>
        <time>2020-10-21T13:45:29Z</time>
      </trkpt>
      <trkpt lat="49.84136" lon="2.48074">
        <ele>99.8</ele>
        <time>2020-10-21T13:45:30Z</time>
      </trkpt>
      <trkpt lat="49.84135" lon="2.48072">
        <ele>99.8</ele>
        <time>2020-10-21T13:45:32Z</time>
      </trkpt>
      <trkpt lat="49.84134" lon="2.48071">
        <ele>99.8</ele>
        <time>2020-10-21T13:45:33Z</time>
      </trkpt>
      <trkpt lat="49.84134" lon="2.48069">
        <ele>99.8</ele>
        <time>2020-10-21T13:45:34Z</time>
      </trkpt>
      <trkpt lat="49.84134" lon="2.48068">
        <ele>99.8</ele>
        <time>2020-10-21T13:45:35Z</time>
      </trkpt>
      <trkpt lat="49.84133" lon="2.48066">
        <ele>99.8</ele>
        <time>2020-10-21T13:45:36Z</time>
      </trkpt>
      <trkpt lat="49.84133" lon="2.48065">
        <ele>99.8</ele>
        <time>2020-10-21T13:45:37Z</time>
      </trkpt>
      <trkpt lat="49.84132" lon="2.48062">
        <ele>99.8</ele>
        <time>2020-10-21T13:45:39Z</time>
      </trkpt>
      <trkpt lat="49.84132" lon="2.4806">
        <ele>99.8</ele>
        <time>2020-10-21T13:45:40Z</time>
      </trkpt>
      <trkpt lat="49.84131" lon="2.48059">
        <ele>99.8</ele>
        <time>2020-10-21T13:45:41Z</time>
      </trkpt>
      <trkpt lat="49.84131" lon="2.48058">
        <ele>99.8</ele>
        <time>2020-10-21T13:45:42Z</time>
      </trkpt>
      <trkpt lat="49.8413" lon="2.48056">
        <ele>99.8</ele>
        <time>2020-10-21T13:45:43Z</time>
      </trkpt>
      <trkpt lat="49.8413" lon="2.48054">
        <ele>99.8</ele>
        <time>2020-10-21T13:45:44Z</time>
      </trkpt>
      <trkpt lat="49.8413" lon="2.48052">
        <ele>99.8</ele>
        <time>2020-10-21T13:45:45Z</time>
      </trkpt>
      <trkpt lat="49.8413" lon="2.4805">
        <ele>99.8</ele>
        <time>2020-10-21T13:45:47Z</time>
      </trkpt>
      <trkpt lat="49.84129" lon="2.48048">
        <ele>99.8</ele>
        <time>2020-10-21T13:45:48Z</time>
      </trkpt>
      <trkpt lat="49.84129" lon="2.48046">
        <ele>99.8</ele>
        <time>2020-10-21T13:45:49Z</time>
      </trkpt>
      <trkpt lat="49.84129" lon="2.48044">
        <ele>99.8</ele>
        <time>2020-10-21T13:45:50Z</time>
      </trkpt>
      <trkpt lat="49.84129" lon="2.48041">
        <ele>99.8</ele>
        <time>2020-10-21T13:45:51Z</time>
      </trkpt>
      <trkpt lat="49.84128" lon="2.48039">
        <ele>99.8</ele>
        <time>2020-10-21T13:45:52Z</time>
      </trkpt>
      <trkpt lat="49.84128" lon="2.48037">
        <ele>99.8</ele>
        <time>2020-10-21T13:45:54Z</time>
      </trkpt>
      <trkpt lat="49.84128" lon="2.48035">
        <ele>99.8</ele>
        <time>2020-10-21T13:45:55Z</time>
      </trkpt>
      <trkpt lat="49.84128" lon="2.48032">
        <ele>99.8</ele>
        <time>2020-10-21T13:45:56Z</time>
      </trkpt>
      <trkpt lat="49.84128" lon="2.48031">
        <ele>99.8</ele>
        <time>2020-10-21T13:45:57Z</time>
      </trkpt>
      <trkpt lat="49.84128" lon="2.48029">
        <ele>99.8</ele>
        <time>2020-10-21T13:45:58Z</time>
      </trkpt>
      <trkpt lat="49.84128" lon="2.48027">
        <ele>99.8</ele>
        <time>2020-10-21T13:46:00Z</time>
      </trkpt>
      <trkpt lat="49.84128" lon="2.48025">
        <ele>99.7</ele>
        <time>2020-10-21T13:46:01Z</time>
      </trkpt>
      <trkpt lat="49.84128" lon="2.48022">
        <ele>99.7</ele>
        <time>2020-10-21T13:46:02Z</time>
      </trkpt>
      <trkpt lat="49.84128" lon="2.48021">
        <ele>99.7</ele>
        <time>2020-10-21T13:46:03Z</time>
      </trkpt>
      <trkpt lat="49.84127" lon="2.48019">
        <ele>99.7</ele>
        <time>2020-10-21T13:46:04Z</time>
      </trkpt>
      <trkpt lat="49.84127" lon="2.48017">
        <ele>99.7</ele>
        <time>2020-10-21T13:46:05Z</time>
      </trkpt>
      <trkpt lat="49.84127" lon="2.48014">
        <ele>99.6</ele>
        <time>2020-10-21T13:46:07Z</time>
      </trkpt>
      <trkpt lat="49.84127" lon="2.48012">
        <ele>99.6</ele>
        <time>2020-10-21T13:46:08Z</time>
      </trkpt>
      <trkpt lat="49.84127" lon="2.48011">
        <ele>99.6</ele>
        <time>2020-10-21T13:46:09Z</time>
      </trkpt>
      <trkpt lat="49.84127" lon="2.4801">
        <ele>99.6</ele>
        <time>2020-10-21T13:46:10Z</time>
      </trkpt>
      <trkpt lat="49.84126" lon="2.48008">
        <ele>99.6</ele>
        <time>2020-10-21T13:46:12Z</time>
      </trkpt>
      <trkpt lat="49.84126" lon="2.48006">
        <ele>99.6</ele>
        <time>2020-10-21T13:46:13Z</time>
      </trkpt>
      <trkpt lat="49.84125" lon="2.48002">
        <ele>99.6</ele>
        <time>2020-10-21T13:46:14Z</time>
      </trkpt>
      <trkpt lat="49.84125" lon="2.48001">
        <ele>99.5</ele>
        <time>2020-10-21T13:46:15Z</time>
      </trkpt>
      <trkpt lat="49.84125" lon="2.48">
        <ele>99.5</ele>
        <time>2020-10-21T13:46:16Z</time>
      </trkpt>
      <trkpt lat="49.84124" lon="2.47996">
        <ele>99.5</ele>
        <time>2020-10-21T13:46:18Z</time>
      </trkpt>
      <trkpt lat="49.84124" lon="2.47994">
        <ele>99.5</ele>
        <time>2020-10-21T13:46:19Z</time>
      </trkpt>
      <trkpt lat="49.84123" lon="2.47992">
        <ele>99.5</ele>
        <time>2020-10-21T13:46:20Z</time>
      </trkpt>
      <trkpt lat="49.84123" lon="2.47989">
        <ele>99.5</ele>
        <time>2020-10-21T13:46:22Z</time>
      </trkpt>
      <trkpt lat="49.84122" lon="2.47987">
        <ele>99.5</ele>
        <time>2020-10-21T13:46:23Z</time>
      </trkpt>
      <trkpt lat="49.84122" lon="2.47984">
        <ele>99.4</ele>
        <time>2020-10-21T13:46:24Z</time>
      </trkpt>
      <trkpt lat="49.84121" lon="2.47982">
        <ele>99.4</ele>
        <time>2020-10-21T13:46:25Z</time>
      </trkpt>
      <trkpt lat="49.84121" lon="2.47979">
        <ele>99.4</ele>
        <time>2020-10-21T13:46:26Z</time>
      </trkpt>
      <trkpt lat="49.84121" lon="2.47977">
        <ele>99.4</ele>
        <time>2020-10-21T13:46:27Z</time>
      </trkpt>
      <trkpt lat="49.84121" lon="2.47975">
        <ele>99.4</ele>
        <time>2020-10-21T13:46:29Z</time>
      </trkpt>
      <trkpt lat="49.8412" lon="2.47973">
        <ele>99.4</ele>
        <time>2020-10-21T13:46:30Z</time>
      </trkpt>
      <trkpt lat="49.8412" lon="2.4797">
        <ele>99.4</ele>
        <time>2020-10-21T13:46:31Z</time>
      </trkpt>
      <trkpt lat="49.84119" lon="2.47968">
        <ele>99.4</ele>
        <time>2020-10-21T13:46:32Z</time>
      </trkpt>
      <trkpt lat="49.84119" lon="2.47966">
        <ele>99.3</ele>
        <time>2020-10-21T13:46:33Z</time>
      </trkpt>
      <trkpt lat="49.84119" lon="2.47964">
        <ele>99.3</ele>
        <time>2020-10-21T13:46:35Z</time>
      </trkpt>
      <trkpt lat="49.84119" lon="2.47961">
        <ele>99.3</ele>
        <time>2020-10-21T13:46:36Z</time>
      </trkpt>
      <trkpt lat="49.84119" lon="2.47959">
        <ele>99.3</ele>
        <time>2020-10-21T13:46:37Z</time>
      </trkpt>
      <trkpt lat="49.84119" lon="2.47958">
        <ele>99.3</ele>
        <time>2020-10-21T13:46:38Z</time>
      </trkpt>
      <trkpt lat="49.84119" lon="2.47956">
        <ele>99.2</ele>
        <time>2020-10-21T13:46:39Z</time>
      </trkpt>
      <trkpt lat="49.84118" lon="2.47954">
        <ele>99.2</ele>
        <time>2020-10-21T13:46:40Z</time>
      </trkpt>
      <trkpt lat="49.84118" lon="2.47952">
        <ele>99.2</ele>
        <time>2020-10-21T13:46:42Z</time>
      </trkpt>
      <trkpt lat="49.84119" lon="2.47951">
        <ele>99.2</ele>
        <time>2020-10-21T13:46:43Z</time>
      </trkpt>
      <trkpt lat="49.84119" lon="2.47948">
        <ele>99.2</ele>
        <time>2020-10-21T13:46:44Z</time>
      </trkpt>
      <trkpt lat="49.84119" lon="2.47947">
        <ele>99.2</ele>
        <time>2020-10-21T13:46:45Z</time>
      </trkpt>
      <trkpt lat="49.84118" lon="2.47946">
        <ele>99.2</ele>
        <time>2020-10-21T13:46:46Z</time>
      </trkpt>
      <trkpt lat="49.84118" lon="2.47944">
        <ele>99.1</ele>
        <time>2020-10-21T13:46:47Z</time>
      </trkpt>
      <trkpt lat="49.84118" lon="2.47943">
        <ele>99.1</ele>
        <time>2020-10-21T13:46:49Z</time>
      </trkpt>
      <trkpt lat="49.84118" lon="2.47941">
        <ele>99.1</ele>
        <time>2020-10-21T13:46:50Z</time>
      </trkpt>
      <trkpt lat="49.84118" lon="2.4794">
        <ele>99.1</ele>
        <time>2020-10-21T13:46:51Z</time>
      </trkpt>
      <trkpt lat="49.84117" lon="2.47938">
        <ele>99.1</ele>
        <time>2020-10-21T13:46:52Z</time>
      </trkpt>
      <trkpt lat="49.84117" lon="2.47936">
        <ele>99</ele>
        <time>2020-10-21T13:46:53Z</time>
      </trkpt>
      <trkpt lat="49.84117" lon="2.47934">
        <ele>99</ele>
        <time>2020-10-21T13:46:54Z</time>
      </trkpt>
      <trkpt lat="49.84116" lon="2.47931">
        <ele>99</ele>
        <time>2020-10-21T13:46:55Z</time>
      </trkpt>
      <trkpt lat="49.84116" lon="2.4793">
        <ele>99</ele>
        <time>2020-10-21T13:46:57Z</time>
      </trkpt>
      <trkpt lat="49.84116" lon="2.47929">
        <ele>99</ele>
        <time>2020-10-21T13:46:58Z</time>
      </trkpt>
      <trkpt lat="49.84115" lon="2.47926">
        <ele>98.9</ele>
        <time>2020-10-21T13:46:59Z</time>
      </trkpt>
      <trkpt lat="49.84115" lon="2.47924">
        <ele>98.9</ele>
        <time>2020-10-21T13:47:00Z</time>
      </trkpt>
      <trkpt lat="49.84115" lon="2.47923">
        <ele>98.9</ele>
        <time>2020-10-21T13:47:01Z</time>
      </trkpt>
      <trkpt lat="49.84114" lon="2.4792">
        <ele>98.9</ele>
        <time>2020-10-21T13:47:03Z</time>
      </trkpt>
      <trkpt lat="49.84114" lon="2.47919">
        <ele>98.9</ele>
        <time>2020-10-21T13:47:04Z</time>
      </trkpt>
      <trkpt lat="49.84114" lon="2.47917">
        <ele>98.9</ele>
        <time>2020-10-21T13:47:05Z</time>
      </trkpt>
      <trkpt lat="49.84114" lon="2.47915">
        <ele>98.9</ele>
        <time>2020-10-21T13:47:06Z</time>
      </trkpt>
      <trkpt lat="49.84114" lon="2.47914">
        <ele>98.9</ele>
        <time>2020-10-21T13:47:07Z</time>
      </trkpt>
      <trkpt lat="49.84113" lon="2.47911">
        <ele>98.9</ele>
        <time>2020-10-21T13:47:09Z</time>
      </trkpt>
      <trkpt lat="49.84113" lon="2.47909">
        <ele>98.9</ele>
        <time>2020-10-21T13:47:10Z</time>
      </trkpt>
      <trkpt lat="49.84112" lon="2.47906">
        <ele>98.8</ele>
        <time>2020-10-21T13:47:12Z</time>
      </trkpt>
      <trkpt lat="49.84112" lon="2.47905">
        <ele>98.8</ele>
        <time>2020-10-21T13:47:13Z</time>
      </trkpt>
      <trkpt lat="49.84111" lon="2.47902">
        <ele>98.8</ele>
        <time>2020-10-21T13:47:15Z</time>
      </trkpt>
      <trkpt lat="49.84111" lon="2.47901">
        <ele>98.8</ele>
        <time>2020-10-21T13:47:16Z</time>
      </trkpt>
      <trkpt lat="49.84111" lon="2.47899">
        <ele>98.8</ele>
        <time>2020-10-21T13:47:17Z</time>
      </trkpt>
      <trkpt lat="49.8411" lon="2.47896">
        <ele>98.8</ele>
        <time>2020-10-21T13:47:19Z</time>
      </trkpt>
      <trkpt lat="49.8411" lon="2.47893">
        <ele>98.8</ele>
        <time>2020-10-21T13:47:21Z</time>
      </trkpt>
      <trkpt lat="49.8411" lon="2.47891">
        <ele>98.8</ele>
        <time>2020-10-21T13:47:22Z</time>
      </trkpt>
      <trkpt lat="49.84109" lon="2.47888">
        <ele>98.8</ele>
        <time>2020-10-21T13:47:23Z</time>
      </trkpt>
      <trkpt lat="49.84109" lon="2.47887">
        <ele>98.8</ele>
        <time>2020-10-21T13:47:24Z</time>
      </trkpt>
      <trkpt lat="49.84108" lon="2.47885">
        <ele>98.8</ele>
        <time>2020-10-21T13:47:26Z</time>
      </trkpt>
      <trkpt lat="49.84108" lon="2.47884">
        <ele>98.8</ele>
        <time>2020-10-21T13:47:27Z</time>
      </trkpt>
      <trkpt lat="49.84108" lon="2.47882">
        <ele>98.8</ele>
        <time>2020-10-21T13:47:28Z</time>
      </trkpt>
      <trkpt lat="49.84107" lon="2.47881">
        <ele>98.8</ele>
        <time>2020-10-21T13:47:29Z</time>
      </trkpt>
      <trkpt lat="49.84107" lon="2.4788">
        <ele>98.8</ele>
        <time>2020-10-21T13:47:30Z</time>
      </trkpt>
      <trkpt lat="49.84107" lon="2.47878">
        <ele>98.8</ele>
        <time>2020-10-21T13:47:31Z</time>
      </trkpt>
      <trkpt lat="49.84106" lon="2.47877">
        <ele>98.7</ele>
        <time>2020-10-21T13:47:32Z</time>
      </trkpt>
      <trkpt lat="49.84106" lon="2.47875">
        <ele>98.7</ele>
        <time>2020-10-21T13:47:34Z</time>
      </trkpt>
      <trkpt lat="49.84105" lon="2.47873">
        <ele>98.7</ele>
        <time>2020-10-21T13:47:35Z</time>
      </trkpt>
      <trkpt lat="49.84105" lon="2.47871">
        <ele>98.7</ele>
        <time>2020-10-21T13:47:36Z</time>
      </trkpt>
      <trkpt lat="49.84104" lon="2.47868">
        <ele>98.7</ele>
        <time>2020-10-21T13:47:38Z</time>
      </trkpt>
      <trkpt lat="49.84104" lon="2.47866">
        <ele>98.7</ele>
        <time>2020-10-21T13:47:39Z</time>
      </trkpt>
      <trkpt lat="49.84103" lon="2.47865">
        <ele>98.7</ele>
        <time>2020-10-21T13:47:40Z</time>
      </trkpt>
      <trkpt lat="49.84103" lon="2.47862">
        <ele>98.7</ele>
        <time>2020-10-21T13:47:42Z</time>
      </trkpt>
      <trkpt lat="49.84102" lon="2.47859">
        <ele>98.7</ele>
        <time>2020-10-21T13:47:43Z</time>
      </trkpt>
      <trkpt lat="49.84102" lon="2.47857">
        <ele>98.7</ele>
        <time>2020-10-21T13:47:44Z</time>
      </trkpt>
      <trkpt lat="49.84102" lon="2.47856">
        <ele>98.6</ele>
        <time>2020-10-21T13:47:45Z</time>
      </trkpt>
      <trkpt lat="49.84101" lon="2.47854">
        <ele>98.6</ele>
        <time>2020-10-21T13:47:47Z</time>
      </trkpt>
      <trkpt lat="49.84101" lon="2.47852">
        <ele>98.6</ele>
        <time>2020-10-21T13:47:48Z</time>
      </trkpt>
      <trkpt lat="49.841" lon="2.47849">
        <ele>98.5</ele>
        <time>2020-10-21T13:47:49Z</time>
      </trkpt>
      <trkpt lat="49.841" lon="2.47848">
        <ele>98.5</ele>
        <time>2020-10-21T13:47:50Z</time>
      </trkpt>
      <trkpt lat="49.84099" lon="2.47846">
        <ele>98.5</ele>
        <time>2020-10-21T13:47:51Z</time>
      </trkpt>
      <trkpt lat="49.84099" lon="2.47844">
        <ele>98.5</ele>
        <time>2020-10-21T13:47:52Z</time>
      </trkpt>
      <trkpt lat="49.84098" lon="2.47842">
        <ele>98.4</ele>
        <time>2020-10-21T13:47:53Z</time>
      </trkpt>
      <trkpt lat="49.84098" lon="2.47839">
        <ele>98.4</ele>
        <time>2020-10-21T13:47:55Z</time>
      </trkpt>
      <trkpt lat="49.84097" lon="2.47837">
        <ele>98.4</ele>
        <time>2020-10-21T13:47:56Z</time>
      </trkpt>
      <trkpt lat="49.84097" lon="2.47836">
        <ele>98.4</ele>
        <time>2020-10-21T13:47:57Z</time>
      </trkpt>
      <trkpt lat="49.84097" lon="2.47834">
        <ele>98.3</ele>
        <time>2020-10-21T13:47:58Z</time>
      </trkpt>
      <trkpt lat="49.84097" lon="2.47832">
        <ele>98.3</ele>
        <time>2020-10-21T13:47:59Z</time>
      </trkpt>
      <trkpt lat="49.84096" lon="2.4783">
        <ele>98.3</ele>
        <time>2020-10-21T13:48:00Z</time>
      </trkpt>
      <trkpt lat="49.84095" lon="2.47828">
        <ele>98.3</ele>
        <time>2020-10-21T13:48:01Z</time>
      </trkpt>
      <trkpt lat="49.84095" lon="2.47825">
        <ele>98.3</ele>
        <time>2020-10-21T13:48:03Z</time>
      </trkpt>
      <trkpt lat="49.84094" lon="2.47823">
        <ele>98.3</ele>
        <time>2020-10-21T13:48:04Z</time>
      </trkpt>
      <trkpt lat="49.84093" lon="2.47821">
        <ele>98.3</ele>
        <time>2020-10-21T13:48:05Z</time>
      </trkpt>
      <trkpt lat="49.84093" lon="2.47819">
        <ele>98.3</ele>
        <time>2020-10-21T13:48:07Z</time>
      </trkpt>
      <trkpt lat="49.84092" lon="2.47817">
        <ele>98.2</ele>
        <time>2020-10-21T13:48:08Z</time>
      </trkpt>
      <trkpt lat="49.84091" lon="2.47815">
        <ele>98.2</ele>
        <time>2020-10-21T13:48:09Z</time>
      </trkpt>
      <trkpt lat="49.8409" lon="2.47812">
        <ele>98.2</ele>
        <time>2020-10-21T13:48:10Z</time>
      </trkpt>
      <trkpt lat="49.8409" lon="2.47811">
        <ele>98.2</ele>
        <time>2020-10-21T13:48:12Z</time>
      </trkpt>
      <trkpt lat="49.84089" lon="2.4781">
        <ele>98.2</ele>
        <time>2020-10-21T13:48:13Z</time>
      </trkpt>
      <trkpt lat="49.84089" lon="2.47808">
        <ele>98.2</ele>
        <time>2020-10-21T13:48:14Z</time>
      </trkpt>
      <trkpt lat="49.84089" lon="2.47806">
        <ele>98.2</ele>
        <time>2020-10-21T13:48:15Z</time>
      </trkpt>
      <trkpt lat="49.84088" lon="2.47805">
        <ele>98.2</ele>
        <time>2020-10-21T13:48:16Z</time>
      </trkpt>
      <trkpt lat="49.84088" lon="2.47803">
        <ele>98.2</ele>
        <time>2020-10-21T13:48:17Z</time>
      </trkpt>
      <trkpt lat="49.84087" lon="2.47801">
        <ele>98.2</ele>
        <time>2020-10-21T13:48:18Z</time>
      </trkpt>
      <trkpt lat="49.84086" lon="2.47798">
        <ele>98.2</ele>
        <time>2020-10-21T13:48:20Z</time>
      </trkpt>
      <trkpt lat="49.84086" lon="2.47797">
        <ele>98.2</ele>
        <time>2020-10-21T13:48:21Z</time>
      </trkpt>
      <trkpt lat="49.84086" lon="2.47796">
        <ele>98.2</ele>
        <time>2020-10-21T13:48:22Z</time>
      </trkpt>
      <trkpt lat="49.84085" lon="2.47793">
        <ele>98.2</ele>
        <time>2020-10-21T13:48:23Z</time>
      </trkpt>
      <trkpt lat="49.84084" lon="2.47792">
        <ele>98.2</ele>
        <time>2020-10-21T13:48:24Z</time>
      </trkpt>
      <trkpt lat="49.84084" lon="2.4779">
        <ele>98.2</ele>
        <time>2020-10-21T13:48:25Z</time>
      </trkpt>
      <trkpt lat="49.84083" lon="2.47788">
        <ele>98.1</ele>
        <time>2020-10-21T13:48:26Z</time>
      </trkpt>
      <trkpt lat="49.84082" lon="2.47787">
        <ele>98.1</ele>
        <time>2020-10-21T13:48:28Z</time>
      </trkpt>
      <trkpt lat="49.84082" lon="2.47785">
        <ele>98.1</ele>
        <time>2020-10-21T13:48:29Z</time>
      </trkpt>
      <trkpt lat="49.84081" lon="2.47783">
        <ele>98</ele>
        <time>2020-10-21T13:48:30Z</time>
      </trkpt>
      <trkpt lat="49.8408" lon="2.47781">
        <ele>98</ele>
        <time>2020-10-21T13:48:31Z</time>
      </trkpt>
      <trkpt lat="49.8408" lon="2.4778">
        <ele>98</ele>
        <time>2020-10-21T13:48:32Z</time>
      </trkpt>
      <trkpt lat="49.84079" lon="2.47777">
        <ele>98</ele>
        <time>2020-10-21T13:48:34Z</time>
      </trkpt>
      <trkpt lat="49.84078" lon="2.47776">
        <ele>98</ele>
        <time>2020-10-21T13:48:35Z</time>
      </trkpt>
      <trkpt lat="49.84078" lon="2.47775">
        <ele>97.9</ele>
        <time>2020-10-21T13:48:36Z</time>
      </trkpt>
      <trkpt lat="49.84078" lon="2.47774">
        <ele>97.9</ele>
        <time>2020-10-21T13:48:37Z</time>
      </trkpt>
      <trkpt lat="49.84077" lon="2.47772">
        <ele>97.9</ele>
        <time>2020-10-21T13:48:38Z</time>
      </trkpt>
      <trkpt lat="49.84076" lon="2.47771">
        <ele>97.9</ele>
        <time>2020-10-21T13:48:39Z</time>
      </trkpt>
      <trkpt lat="49.84076" lon="2.47769">
        <ele>97.9</ele>
        <time>2020-10-21T13:48:41Z</time>
      </trkpt>
      <trkpt lat="49.84075" lon="2.47767">
        <ele>97.9</ele>
        <time>2020-10-21T13:48:42Z</time>
      </trkpt>
      <trkpt lat="49.84074" lon="2.47765">
        <ele>97.8</ele>
        <time>2020-10-21T13:48:43Z</time>
      </trkpt>
      <trkpt lat="49.84073" lon="2.47763">
        <ele>97.8</ele>
        <time>2020-10-21T13:48:45Z</time>
      </trkpt>
      <trkpt lat="49.84073" lon="2.47762">
        <ele>97.8</ele>
        <time>2020-10-21T13:48:46Z</time>
      </trkpt>
      <trkpt lat="49.84072" lon="2.4776">
        <ele>97.8</ele>
        <time>2020-10-21T13:48:47Z</time>
      </trkpt>
      <trkpt lat="49.84072" lon="2.47758">
        <ele>97.8</ele>
        <time>2020-10-21T13:48:48Z</time>
      </trkpt>
      <trkpt lat="49.8407" lon="2.47756">
        <ele>97.8</ele>
        <time>2020-10-21T13:48:50Z</time>
      </trkpt>
      <trkpt lat="49.8407" lon="2.47754">
        <ele>97.8</ele>
        <time>2020-10-21T13:48:51Z</time>
      </trkpt>
      <trkpt lat="49.84069" lon="2.47751">
        <ele>97.8</ele>
        <time>2020-10-21T13:48:52Z</time>
      </trkpt>
      <trkpt lat="49.84069" lon="2.4775">
        <ele>97.8</ele>
        <time>2020-10-21T13:48:54Z</time>
      </trkpt>
      <trkpt lat="49.84068" lon="2.47749">
        <ele>97.8</ele>
        <time>2020-10-21T13:48:55Z</time>
      </trkpt>
      <trkpt lat="49.84068" lon="2.47746">
        <ele>97.8</ele>
        <time>2020-10-21T13:48:56Z</time>
      </trkpt>
      <trkpt lat="49.84067" lon="2.47744">
        <ele>97.8</ele>
        <time>2020-10-21T13:48:57Z</time>
      </trkpt>
      <trkpt lat="49.84067" lon="2.47743">
        <ele>97.8</ele>
        <time>2020-10-21T13:48:58Z</time>
      </trkpt>
      <trkpt lat="49.84066" lon="2.47741">
        <ele>97.8</ele>
        <time>2020-10-21T13:48:59Z</time>
      </trkpt>
      <trkpt lat="49.84066" lon="2.47739">
        <ele>97.8</ele>
        <time>2020-10-21T13:49:00Z</time>
      </trkpt>
      <trkpt lat="49.84065" lon="2.47737">
        <ele>97.9</ele>
        <time>2020-10-21T13:49:02Z</time>
      </trkpt>
      <trkpt lat="49.84064" lon="2.47735">
        <ele>97.9</ele>
        <time>2020-10-21T13:49:03Z</time>
      </trkpt>
      <trkpt lat="49.84064" lon="2.47733">
        <ele>97.9</ele>
        <time>2020-10-21T13:49:04Z</time>
      </trkpt>
      <trkpt lat="49.84064" lon="2.47732">
        <ele>97.9</ele>
        <time>2020-10-21T13:49:05Z</time>
      </trkpt>
      <trkpt lat="49.84063" lon="2.4773">
        <ele>97.9</ele>
        <time>2020-10-21T13:49:06Z</time>
      </trkpt>
      <trkpt lat="49.84063" lon="2.47728">
        <ele>97.9</ele>
        <time>2020-10-21T13:49:07Z</time>
      </trkpt>
      <trkpt lat="49.84062" lon="2.47726">
        <ele>97.9</ele>
        <time>2020-10-21T13:49:09Z</time>
      </trkpt>
      <trkpt lat="49.84061" lon="2.47724">
        <ele>97.9</ele>
        <time>2020-10-21T13:49:10Z</time>
      </trkpt>
      <trkpt lat="49.8406" lon="2.47723">
        <ele>97.9</ele>
        <time>2020-10-21T13:49:11Z</time>
      </trkpt>
      <trkpt lat="49.84059" lon="2.4772">
        <ele>97.9</ele>
        <time>2020-10-21T13:49:12Z</time>
      </trkpt>
      <trkpt lat="49.84059" lon="2.47719">
        <ele>97.9</ele>
        <time>2020-10-21T13:49:13Z</time>
      </trkpt>
      <trkpt lat="49.84058" lon="2.47718">
        <ele>97.9</ele>
        <time>2020-10-21T13:49:14Z</time>
      </trkpt>
      <trkpt lat="49.84057" lon="2.47715">
        <ele>98</ele>
        <time>2020-10-21T13:49:15Z</time>
      </trkpt>
      <trkpt lat="49.84057" lon="2.47713">
        <ele>98</ele>
        <time>2020-10-21T13:49:17Z</time>
      </trkpt>
      <trkpt lat="49.84056" lon="2.47712">
        <ele>98</ele>
        <time>2020-10-21T13:49:18Z</time>
      </trkpt>
      <trkpt lat="49.84055" lon="2.47709">
        <ele>98</ele>
        <time>2020-10-21T13:49:19Z</time>
      </trkpt>
      <trkpt lat="49.84055" lon="2.47708">
        <ele>98</ele>
        <time>2020-10-21T13:49:20Z</time>
      </trkpt>
      <trkpt lat="49.84054" lon="2.47707">
        <ele>98</ele>
        <time>2020-10-21T13:49:21Z</time>
      </trkpt>
      <trkpt lat="49.84054" lon="2.47706">
        <ele>98</ele>
        <time>2020-10-21T13:49:22Z</time>
      </trkpt>
      <trkpt lat="49.84053" lon="2.47704">
        <ele>98</ele>
        <time>2020-10-21T13:49:23Z</time>
      </trkpt>
      <trkpt lat="49.84053" lon="2.47702">
        <ele>98</ele>
        <time>2020-10-21T13:49:24Z</time>
      </trkpt>
      <trkpt lat="49.84052" lon="2.47699">
        <ele>98</ele>
        <time>2020-10-21T13:49:25Z</time>
      </trkpt>
      <trkpt lat="49.84051" lon="2.47698">
        <ele>98</ele>
        <time>2020-10-21T13:49:27Z</time>
      </trkpt>
      <trkpt lat="49.84051" lon="2.47696">
        <ele>98</ele>
        <time>2020-10-21T13:49:28Z</time>
      </trkpt>
      <trkpt lat="49.8405" lon="2.47693">
        <ele>98</ele>
        <time>2020-10-21T13:49:30Z</time>
      </trkpt>
      <trkpt lat="49.8405" lon="2.47692">
        <ele>98</ele>
        <time>2020-10-21T13:49:31Z</time>
      </trkpt>
      <trkpt lat="49.8405" lon="2.47691">
        <ele>98</ele>
        <time>2020-10-21T13:49:32Z</time>
      </trkpt>
      <trkpt lat="49.84049" lon="2.47688">
        <ele>98</ele>
        <time>2020-10-21T13:49:33Z</time>
      </trkpt>
      <trkpt lat="49.84049" lon="2.47687">
        <ele>98</ele>
        <time>2020-10-21T13:49:34Z</time>
      </trkpt>
      <trkpt lat="49.84048" lon="2.47685">
        <ele>98</ele>
        <time>2020-10-21T13:49:35Z</time>
      </trkpt>
      <trkpt lat="49.84048" lon="2.47683">
        <ele>98</ele>
        <time>2020-10-21T13:49:37Z</time>
      </trkpt>
      <trkpt lat="49.84047" lon="2.47681">
        <ele>98</ele>
        <time>2020-10-21T13:49:38Z</time>
      </trkpt>
      <trkpt lat="49.84047" lon="2.4768">
        <ele>98</ele>
        <time>2020-10-21T13:49:39Z</time>
      </trkpt>
      <trkpt lat="49.84046" lon="2.47678">
        <ele>98</ele>
        <time>2020-10-21T13:49:40Z</time>
      </trkpt>
      <trkpt lat="49.84046" lon="2.47677">
        <ele>97.9</ele>
        <time>2020-10-21T13:49:41Z</time>
      </trkpt>
      <trkpt lat="49.84045" lon="2.47675">
        <ele>97.9</ele>
        <time>2020-10-21T13:49:42Z</time>
      </trkpt>
      <trkpt lat="49.84045" lon="2.47673">
        <ele>97.9</ele>
        <time>2020-10-21T13:49:43Z</time>
      </trkpt>
      <trkpt lat="49.84044" lon="2.47671">
        <ele>97.9</ele>
        <time>2020-10-21T13:49:45Z</time>
      </trkpt>
      <trkpt lat="49.84044" lon="2.47669">
        <ele>97.9</ele>
        <time>2020-10-21T13:49:46Z</time>
      </trkpt>
      <trkpt lat="49.84044" lon="2.47668">
        <ele>97.9</ele>
        <time>2020-10-21T13:49:47Z</time>
      </trkpt>
      <trkpt lat="49.84043" lon="2.47666">
        <ele>97.9</ele>
        <time>2020-10-21T13:49:48Z</time>
      </trkpt>
      <trkpt lat="49.84043" lon="2.47664">
        <ele>97.8</ele>
        <time>2020-10-21T13:49:50Z</time>
      </trkpt>
      <trkpt lat="49.84042" lon="2.47662">
        <ele>97.8</ele>
        <time>2020-10-21T13:49:51Z</time>
      </trkpt>
      <trkpt lat="49.84041" lon="2.47659">
        <ele>97.8</ele>
        <time>2020-10-21T13:49:53Z</time>
      </trkpt>
      <trkpt lat="49.84041" lon="2.47659">
        <ele>97.8</ele>
        <time>2020-10-21T13:49:54Z</time>
      </trkpt>
      <trkpt lat="49.84041" lon="2.47657">
        <ele>97.8</ele>
        <time>2020-10-21T13:49:56Z</time>
      </trkpt>
      <trkpt lat="49.8404" lon="2.47655">
        <ele>97.8</ele>
        <time>2020-10-21T13:49:57Z</time>
      </trkpt>
      <trkpt lat="49.8404" lon="2.47654">
        <ele>97.8</ele>
        <time>2020-10-21T13:49:58Z</time>
      </trkpt>
      <trkpt lat="49.84039" lon="2.47652">
        <ele>97.7</ele>
        <time>2020-10-21T13:49:59Z</time>
      </trkpt>
      <trkpt lat="49.84039" lon="2.47651">
        <ele>97.7</ele>
        <time>2020-10-21T13:50:00Z</time>
      </trkpt>
      <trkpt lat="49.84038" lon="2.47649">
        <ele>97.7</ele>
        <time>2020-10-21T13:50:01Z</time>
      </trkpt>
      <trkpt lat="49.84038" lon="2.47648">
        <ele>97.7</ele>
        <time>2020-10-21T13:50:03Z</time>
      </trkpt>
      <trkpt lat="49.84038" lon="2.47646">
        <ele>97.7</ele>
        <time>2020-10-21T13:50:04Z</time>
      </trkpt>
      <trkpt lat="49.84037" lon="2.47645">
        <ele>97.7</ele>
        <time>2020-10-21T13:50:05Z</time>
      </trkpt>
      <trkpt lat="49.84037" lon="2.47643">
        <ele>97.7</ele>
        <time>2020-10-21T13:50:06Z</time>
      </trkpt>
      <trkpt lat="49.84037" lon="2.47641">
        <ele>97.6</ele>
        <time>2020-10-21T13:50:07Z</time>
      </trkpt>
      <trkpt lat="49.84036" lon="2.47639">
        <ele>97.6</ele>
        <time>2020-10-21T13:50:08Z</time>
      </trkpt>
      <trkpt lat="49.84035" lon="2.47635">
        <ele>97.5</ele>
        <time>2020-10-21T13:50:10Z</time>
      </trkpt>
      <trkpt lat="49.84035" lon="2.47634">
        <ele>97.5</ele>
        <time>2020-10-21T13:50:11Z</time>
      </trkpt>
      <trkpt lat="49.84034" lon="2.47632">
        <ele>97.5</ele>
        <time>2020-10-21T13:50:13Z</time>
      </trkpt>
      <trkpt lat="49.84033" lon="2.4763">
        <ele>97.5</ele>
        <time>2020-10-21T13:50:14Z</time>
      </trkpt>
      <trkpt lat="49.84032" lon="2.47627">
        <ele>97.4</ele>
        <time>2020-10-21T13:50:15Z</time>
      </trkpt>
      <trkpt lat="49.84032" lon="2.47626">
        <ele>97.4</ele>
        <time>2020-10-21T13:50:16Z</time>
      </trkpt>
      <trkpt lat="49.84032" lon="2.47625">
        <ele>97.4</ele>
        <time>2020-10-21T13:50:17Z</time>
      </trkpt>
      <trkpt lat="49.8403" lon="2.47622">
        <ele>97.3</ele>
        <time>2020-10-21T13:50:19Z</time>
      </trkpt>
      <trkpt lat="49.8403" lon="2.4762">
        <ele>97.3</ele>
        <time>2020-10-21T13:50:20Z</time>
      </trkpt>
      <trkpt lat="49.84029" lon="2.47617">
        <ele>97.3</ele>
        <time>2020-10-21T13:50:22Z</time>
      </trkpt>
      <trkpt lat="49.84028" lon="2.47615">
        <ele>97.3</ele>
        <time>2020-10-21T13:50:23Z</time>
      </trkpt>
      <trkpt lat="49.84028" lon="2.47613">
        <ele>97.3</ele>
        <time>2020-10-21T13:50:24Z</time>
      </trkpt>
      <trkpt lat="49.84027" lon="2.4761">
        <ele>97.2</ele>
        <time>2020-10-21T13:50:26Z</time>
      </trkpt>
      <trkpt lat="49.84027" lon="2.47609">
        <ele>97.2</ele>
        <time>2020-10-21T13:50:27Z</time>
      </trkpt>
      <trkpt lat="49.84026" lon="2.47606">
        <ele>97.2</ele>
        <time>2020-10-21T13:50:29Z</time>
      </trkpt>
      <trkpt lat="49.84025" lon="2.47604">
        <ele>97.3</ele>
        <time>2020-10-21T13:50:30Z</time>
      </trkpt>
      <trkpt lat="49.84024" lon="2.47601">
        <ele>97.3</ele>
        <time>2020-10-21T13:50:32Z</time>
      </trkpt>
      <trkpt lat="49.84024" lon="2.47599">
        <ele>97.3</ele>
        <time>2020-10-21T13:50:33Z</time>
      </trkpt>
      <trkpt lat="49.84023" lon="2.47598">
        <ele>97.3</ele>
        <time>2020-10-21T13:50:34Z</time>
      </trkpt>
      <trkpt lat="49.84022" lon="2.47596">
        <ele>97.3</ele>
        <time>2020-10-21T13:50:35Z</time>
      </trkpt>
      <trkpt lat="49.84022" lon="2.47595">
        <ele>97.3</ele>
        <time>2020-10-21T13:50:37Z</time>
      </trkpt>
      <trkpt lat="49.84021" lon="2.47593">
        <ele>97.3</ele>
        <time>2020-10-21T13:50:38Z</time>
      </trkpt>
      <trkpt lat="49.8402" lon="2.4759">
        <ele>97.3</ele>
        <time>2020-10-21T13:50:39Z</time>
      </trkpt>
      <trkpt lat="49.8402" lon="2.47589">
        <ele>97.3</ele>
        <time>2020-10-21T13:50:40Z</time>
      </trkpt>
      <trkpt lat="49.84019" lon="2.47588">
        <ele>97.3</ele>
        <time>2020-10-21T13:50:41Z</time>
      </trkpt>
      <trkpt lat="49.84019" lon="2.47586">
        <ele>97.3</ele>
        <time>2020-10-21T13:50:42Z</time>
      </trkpt>
      <trkpt lat="49.84018" lon="2.47584">
        <ele>97.3</ele>
        <time>2020-10-21T13:50:43Z</time>
      </trkpt>
      <trkpt lat="49.84017" lon="2.47582">
        <ele>97.2</ele>
        <time>2020-10-21T13:50:45Z</time>
      </trkpt>
      <trkpt lat="49.84017" lon="2.4758">
        <ele>97.2</ele>
        <time>2020-10-21T13:50:46Z</time>
      </trkpt>
      <trkpt lat="49.84016" lon="2.47578">
        <ele>97.2</ele>
        <time>2020-10-21T13:50:47Z</time>
      </trkpt>
      <trkpt lat="49.84016" lon="2.47576">
        <ele>97.2</ele>
        <time>2020-10-21T13:50:48Z</time>
      </trkpt>
      <trkpt lat="49.84015" lon="2.47574">
        <ele>97.2</ele>
        <time>2020-10-21T13:50:49Z</time>
      </trkpt>
      <trkpt lat="49.84015" lon="2.47573">
        <ele>97.1</ele>
        <time>2020-10-21T13:50:50Z</time>
      </trkpt>
      <trkpt lat="49.84015" lon="2.47571">
        <ele>97.1</ele>
        <time>2020-10-21T13:50:52Z</time>
      </trkpt>
      <trkpt lat="49.84015" lon="2.4757">
        <ele>97.1</ele>
        <time>2020-10-21T13:50:53Z</time>
      </trkpt>
      <trkpt lat="49.84015" lon="2.47568">
        <ele>97.1</ele>
        <time>2020-10-21T13:50:54Z</time>
      </trkpt>
      <trkpt lat="49.84015" lon="2.47567">
        <ele>97.1</ele>
        <time>2020-10-21T13:50:55Z</time>
      </trkpt>
      <trkpt lat="49.84015" lon="2.47565">
        <ele>97.1</ele>
        <time>2020-10-21T13:50:56Z</time>
      </trkpt>
      <trkpt lat="49.84014" lon="2.47562">
        <ele>97</ele>
        <time>2020-10-21T13:50:58Z</time>
      </trkpt>
      <trkpt lat="49.84013" lon="2.47561">
        <ele>97</ele>
        <time>2020-10-21T13:51:00Z</time>
      </trkpt>
      <trkpt lat="49.84013" lon="2.47559">
        <ele>97</ele>
        <time>2020-10-21T13:51:01Z</time>
      </trkpt>
      <trkpt lat="49.84012" lon="2.47558">
        <ele>97</ele>
        <time>2020-10-21T13:51:02Z</time>
      </trkpt>
      <trkpt lat="49.84011" lon="2.47556">
        <ele>97</ele>
        <time>2020-10-21T13:51:03Z</time>
      </trkpt>
      <trkpt lat="49.84011" lon="2.47555">
        <ele>97</ele>
        <time>2020-10-21T13:51:04Z</time>
      </trkpt>
      <trkpt lat="49.8401" lon="2.47553">
        <ele>97</ele>
        <time>2020-10-21T13:51:05Z</time>
      </trkpt>
      <trkpt lat="49.84009" lon="2.47552">
        <ele>97</ele>
        <time>2020-10-21T13:51:07Z</time>
      </trkpt>
      <trkpt lat="49.84009" lon="2.47551">
        <ele>97</ele>
        <time>2020-10-21T13:51:08Z</time>
      </trkpt>
      <trkpt lat="49.84008" lon="2.47549">
        <ele>97</ele>
        <time>2020-10-21T13:51:09Z</time>
      </trkpt>
      <trkpt lat="49.84007" lon="2.47547">
        <ele>97</ele>
        <time>2020-10-21T13:51:10Z</time>
      </trkpt>
      <trkpt lat="49.84007" lon="2.47545">
        <ele>97</ele>
        <time>2020-10-21T13:51:11Z</time>
      </trkpt>
      <trkpt lat="49.84006" lon="2.47542">
        <ele>97</ele>
        <time>2020-10-21T13:51:13Z</time>
      </trkpt>
      <trkpt lat="49.84006" lon="2.47541">
        <ele>97</ele>
        <time>2020-10-21T13:51:14Z</time>
      </trkpt>
      <trkpt lat="49.84005" lon="2.47539">
        <ele>97</ele>
        <time>2020-10-21T13:51:15Z</time>
      </trkpt>
      <trkpt lat="49.84004" lon="2.47536">
        <ele>97</ele>
        <time>2020-10-21T13:51:17Z</time>
      </trkpt>
      <trkpt lat="49.84004" lon="2.47535">
        <ele>97</ele>
        <time>2020-10-21T13:51:18Z</time>
      </trkpt>
      <trkpt lat="49.84003" lon="2.47533">
        <ele>97</ele>
        <time>2020-10-21T13:51:19Z</time>
      </trkpt>
      <trkpt lat="49.84002" lon="2.47531">
        <ele>97</ele>
        <time>2020-10-21T13:51:21Z</time>
      </trkpt>
      <trkpt lat="49.84001" lon="2.47529">
        <ele>97</ele>
        <time>2020-10-21T13:51:22Z</time>
      </trkpt>
      <trkpt lat="49.84" lon="2.47528">
        <ele>97</ele>
        <time>2020-10-21T13:51:23Z</time>
      </trkpt>
      <trkpt lat="49.84" lon="2.47526">
        <ele>97</ele>
        <time>2020-10-21T13:51:24Z</time>
      </trkpt>
      <trkpt lat="49.83999" lon="2.47525">
        <ele>97</ele>
        <time>2020-10-21T13:51:25Z</time>
      </trkpt>
      <trkpt lat="49.83998" lon="2.47522">
        <ele>97</ele>
        <time>2020-10-21T13:51:27Z</time>
      </trkpt>
      <trkpt lat="49.83997" lon="2.4752">
        <ele>97</ele>
        <time>2020-10-21T13:51:28Z</time>
      </trkpt>
      <trkpt lat="49.83997" lon="2.47518">
        <ele>97</ele>
        <time>2020-10-21T13:51:29Z</time>
      </trkpt>
      <trkpt lat="49.83996" lon="2.47516">
        <ele>97</ele>
        <time>2020-10-21T13:51:31Z</time>
      </trkpt>
      <trkpt lat="49.83996" lon="2.47514">
        <ele>97</ele>
        <time>2020-10-21T13:51:32Z</time>
      </trkpt>
      <trkpt lat="49.83995" lon="2.47511">
        <ele>97</ele>
        <time>2020-10-21T13:51:33Z</time>
      </trkpt>
      <trkpt lat="49.83995" lon="2.4751">
        <ele>97</ele>
        <time>2020-10-21T13:51:34Z</time>
      </trkpt>
      <trkpt lat="49.83995" lon="2.47508">
        <ele>97</ele>
        <time>2020-10-21T13:51:35Z</time>
      </trkpt>
      <trkpt lat="49.83993" lon="2.47506">
        <ele>97</ele>
        <time>2020-10-21T13:51:36Z</time>
      </trkpt>
      <trkpt lat="49.83993" lon="2.47505">
        <ele>97</ele>
        <time>2020-10-21T13:51:38Z</time>
      </trkpt>
      <trkpt lat="49.83992" lon="2.47504">
        <ele>97</ele>
        <time>2020-10-21T13:51:39Z</time>
      </trkpt>
      <trkpt lat="49.83992" lon="2.47502">
        <ele>97</ele>
        <time>2020-10-21T13:51:40Z</time>
      </trkpt>
      <trkpt lat="49.83991" lon="2.475">
        <ele>97</ele>
        <time>2020-10-21T13:51:41Z</time>
      </trkpt>
      <trkpt lat="49.83991" lon="2.47499">
        <ele>97</ele>
        <time>2020-10-21T13:51:42Z</time>
      </trkpt>
      <trkpt lat="49.8399" lon="2.47497">
        <ele>97</ele>
        <time>2020-10-21T13:51:43Z</time>
      </trkpt>
      <trkpt lat="49.8399" lon="2.47495">
        <ele>97</ele>
        <time>2020-10-21T13:51:44Z</time>
      </trkpt>
      <trkpt lat="49.83989" lon="2.47492">
        <ele>97.1</ele>
        <time>2020-10-21T13:51:46Z</time>
      </trkpt>
      <trkpt lat="49.83989" lon="2.4749">
        <ele>97.1</ele>
        <time>2020-10-21T13:51:47Z</time>
      </trkpt>
      <trkpt lat="49.83989" lon="2.47489">
        <ele>97.1</ele>
        <time>2020-10-21T13:51:48Z</time>
      </trkpt>
      <trkpt lat="49.83989" lon="2.47487">
        <ele>97.1</ele>
        <time>2020-10-21T13:51:49Z</time>
      </trkpt>
      <trkpt lat="49.83988" lon="2.47486">
        <ele>97.1</ele>
        <time>2020-10-21T13:51:50Z</time>
      </trkpt>
      <trkpt lat="49.83988" lon="2.47484">
        <ele>97.1</ele>
        <time>2020-10-21T13:51:51Z</time>
      </trkpt>
      <trkpt lat="49.83988" lon="2.47482">
        <ele>97.1</ele>
        <time>2020-10-21T13:51:52Z</time>
      </trkpt>
      <trkpt lat="49.83988" lon="2.47481">
        <ele>97.2</ele>
        <time>2020-10-21T13:51:53Z</time>
      </trkpt>
      <trkpt lat="49.83987" lon="2.47479">
        <ele>97.2</ele>
        <time>2020-10-21T13:51:55Z</time>
      </trkpt>
      <trkpt lat="49.83986" lon="2.47477">
        <ele>97.2</ele>
        <time>2020-10-21T13:51:56Z</time>
      </trkpt>
      <trkpt lat="49.83986" lon="2.47476">
        <ele>97.2</ele>
        <time>2020-10-21T13:51:57Z</time>
      </trkpt>
      <trkpt lat="49.83986" lon="2.47475">
        <ele>97.2</ele>
        <time>2020-10-21T13:51:58Z</time>
      </trkpt>
      <trkpt lat="49.83986" lon="2.47473">
        <ele>97.2</ele>
        <time>2020-10-21T13:51:59Z</time>
      </trkpt>
      <trkpt lat="49.83985" lon="2.47472">
        <ele>97.2</ele>
        <time>2020-10-21T13:52:00Z</time>
      </trkpt>
      <trkpt lat="49.83985" lon="2.4747">
        <ele>97.2</ele>
        <time>2020-10-21T13:52:01Z</time>
      </trkpt>
      <trkpt lat="49.83984" lon="2.47468">
        <ele>97.3</ele>
        <time>2020-10-21T13:52:03Z</time>
      </trkpt>
      <trkpt lat="49.83983" lon="2.47466">
        <ele>97.3</ele>
        <time>2020-10-21T13:52:04Z</time>
      </trkpt>
      <trkpt lat="49.83983" lon="2.47465">
        <ele>97.3</ele>
        <time>2020-10-21T13:52:05Z</time>
      </trkpt>
      <trkpt lat="49.83982" lon="2.47463">
        <ele>97.3</ele>
        <time>2020-10-21T13:52:06Z</time>
      </trkpt>
      <trkpt lat="49.83982" lon="2.47462">
        <ele>97.3</ele>
        <time>2020-10-21T13:52:07Z</time>
      </trkpt>
      <trkpt lat="49.83981" lon="2.47458">
        <ele>97.3</ele>
        <time>2020-10-21T13:52:09Z</time>
      </trkpt>
      <trkpt lat="49.8398" lon="2.47457">
        <ele>97.3</ele>
        <time>2020-10-21T13:52:10Z</time>
      </trkpt>
      <trkpt lat="49.8398" lon="2.47456">
        <ele>97.3</ele>
        <time>2020-10-21T13:52:11Z</time>
      </trkpt>
      <trkpt lat="49.83979" lon="2.47454">
        <ele>97.3</ele>
        <time>2020-10-21T13:52:12Z</time>
      </trkpt>
      <trkpt lat="49.83978" lon="2.47452">
        <ele>97.3</ele>
        <time>2020-10-21T13:52:13Z</time>
      </trkpt>
      <trkpt lat="49.83978" lon="2.47451">
        <ele>97.3</ele>
        <time>2020-10-21T13:52:14Z</time>
      </trkpt>
      <trkpt lat="49.83977" lon="2.47449">
        <ele>97.3</ele>
        <time>2020-10-21T13:52:16Z</time>
      </trkpt>
      <trkpt lat="49.83976" lon="2.47448">
        <ele>97.3</ele>
        <time>2020-10-21T13:52:17Z</time>
      </trkpt>
      <trkpt lat="49.83975" lon="2.47445">
        <ele>97.3</ele>
        <time>2020-10-21T13:52:18Z</time>
      </trkpt>
      <trkpt lat="49.83975" lon="2.47444">
        <ele>97.3</ele>
        <time>2020-10-21T13:52:19Z</time>
      </trkpt>
      <trkpt lat="49.83974" lon="2.47443">
        <ele>97.3</ele>
        <time>2020-10-21T13:52:20Z</time>
      </trkpt>
      <trkpt lat="49.83974" lon="2.47441">
        <ele>97.3</ele>
        <time>2020-10-21T13:52:21Z</time>
      </trkpt>
      <trkpt lat="49.83973" lon="2.47439">
        <ele>97.3</ele>
        <time>2020-10-21T13:52:23Z</time>
      </trkpt>
      <trkpt lat="49.83972" lon="2.47438">
        <ele>97.3</ele>
        <time>2020-10-21T13:52:24Z</time>
      </trkpt>
      <trkpt lat="49.83971" lon="2.47436">
        <ele>97.3</ele>
        <time>2020-10-21T13:52:25Z</time>
      </trkpt>
      <trkpt lat="49.83971" lon="2.47434">
        <ele>97.3</ele>
        <time>2020-10-21T13:52:27Z</time>
      </trkpt>
      <trkpt lat="49.8397" lon="2.47431">
        <ele>97.3</ele>
        <time>2020-10-21T13:52:28Z</time>
      </trkpt>
      <trkpt lat="49.83969" lon="2.4743">
        <ele>97.3</ele>
        <time>2020-10-21T13:52:29Z</time>
      </trkpt>
      <trkpt lat="49.83969" lon="2.47429">
        <ele>97.3</ele>
        <time>2020-10-21T13:52:30Z</time>
      </trkpt>
      <trkpt lat="49.83968" lon="2.47427">
        <ele>97.3</ele>
        <time>2020-10-21T13:52:31Z</time>
      </trkpt>
      <trkpt lat="49.83968" lon="2.47425">
        <ele>97.3</ele>
        <time>2020-10-21T13:52:32Z</time>
      </trkpt>
      <trkpt lat="49.83967" lon="2.47422">
        <ele>97.3</ele>
        <time>2020-10-21T13:52:34Z</time>
      </trkpt>
      <trkpt lat="49.83967" lon="2.4742">
        <ele>97.4</ele>
        <time>2020-10-21T13:52:35Z</time>
      </trkpt>
      <trkpt lat="49.83966" lon="2.47419">
        <ele>97.4</ele>
        <time>2020-10-21T13:52:36Z</time>
      </trkpt>
      <trkpt lat="49.83966" lon="2.47417">
        <ele>97.4</ele>
        <time>2020-10-21T13:52:37Z</time>
      </trkpt>
      <trkpt lat="49.83965" lon="2.47413">
        <ele>97.4</ele>
        <time>2020-10-21T13:52:39Z</time>
      </trkpt>
      <trkpt lat="49.83964" lon="2.47411">
        <ele>97.4</ele>
        <time>2020-10-21T13:52:41Z</time>
      </trkpt>
      <trkpt lat="49.83963" lon="2.4741">
        <ele>97.4</ele>
        <time>2020-10-21T13:52:42Z</time>
      </trkpt>
      <trkpt lat="49.83962" lon="2.47407">
        <ele>97.4</ele>
        <time>2020-10-21T13:52:43Z</time>
      </trkpt>
      <trkpt lat="49.83962" lon="2.47405">
        <ele>97.4</ele>
        <time>2020-10-21T13:52:44Z</time>
      </trkpt>
      <trkpt lat="49.83961" lon="2.47404">
        <ele>97.4</ele>
        <time>2020-10-21T13:52:45Z</time>
      </trkpt>
      <trkpt lat="49.8396" lon="2.47401">
        <ele>97.4</ele>
        <time>2020-10-21T13:52:47Z</time>
      </trkpt>
      <trkpt lat="49.8396" lon="2.474">
        <ele>97.5</ele>
        <time>2020-10-21T13:52:48Z</time>
      </trkpt>
      <trkpt lat="49.8396" lon="2.47398">
        <ele>97.5</ele>
        <time>2020-10-21T13:52:49Z</time>
      </trkpt>
      <trkpt lat="49.83959" lon="2.47397">
        <ele>97.5</ele>
        <time>2020-10-21T13:52:50Z</time>
      </trkpt>
      <trkpt lat="49.83959" lon="2.47395">
        <ele>97.5</ele>
        <time>2020-10-21T13:52:51Z</time>
      </trkpt>
      <trkpt lat="49.83959" lon="2.47394">
        <ele>97.5</ele>
        <time>2020-10-21T13:52:52Z</time>
      </trkpt>
      <trkpt lat="49.83958" lon="2.47393">
        <ele>97.5</ele>
        <time>2020-10-21T13:52:54Z</time>
      </trkpt>
      <trkpt lat="49.83958" lon="2.47391">
        <ele>97.5</ele>
        <time>2020-10-21T13:52:55Z</time>
      </trkpt>
      <trkpt lat="49.83957" lon="2.47389">
        <ele>97.5</ele>
        <time>2020-10-21T13:52:56Z</time>
      </trkpt>
      <trkpt lat="49.83957" lon="2.47388">
        <ele>97.5</ele>
        <time>2020-10-21T13:52:57Z</time>
      </trkpt>
      <trkpt lat="49.83956" lon="2.47386">
        <ele>97.5</ele>
        <time>2020-10-21T13:52:58Z</time>
      </trkpt>
      <trkpt lat="49.83956" lon="2.47384">
        <ele>97.5</ele>
        <time>2020-10-21T13:52:59Z</time>
      </trkpt>
      <trkpt lat="49.83955" lon="2.47382">
        <ele>97.5</ele>
        <time>2020-10-21T13:53:01Z</time>
      </trkpt>
      <trkpt lat="49.83954" lon="2.4738">
        <ele>97.5</ele>
        <time>2020-10-21T13:53:02Z</time>
      </trkpt>
      <trkpt lat="49.83953" lon="2.47377">
        <ele>97.5</ele>
        <time>2020-10-21T13:53:04Z</time>
      </trkpt>
      <trkpt lat="49.83953" lon="2.47376">
        <ele>97.5</ele>
        <time>2020-10-21T13:53:05Z</time>
      </trkpt>
      <trkpt lat="49.83952" lon="2.47375">
        <ele>97.5</ele>
        <time>2020-10-21T13:53:06Z</time>
      </trkpt>
      <trkpt lat="49.83951" lon="2.47373">
        <ele>97.6</ele>
        <time>2020-10-21T13:53:07Z</time>
      </trkpt>
      <trkpt lat="49.83951" lon="2.47371">
        <ele>97.6</ele>
        <time>2020-10-21T13:53:09Z</time>
      </trkpt>
      <trkpt lat="49.8395" lon="2.4737">
        <ele>97.6</ele>
        <time>2020-10-21T13:53:10Z</time>
      </trkpt>
      <trkpt lat="49.83949" lon="2.47368">
        <ele>97.6</ele>
        <time>2020-10-21T13:53:11Z</time>
      </trkpt>
      <trkpt lat="49.83949" lon="2.47367">
        <ele>97.6</ele>
        <time>2020-10-21T13:53:12Z</time>
      </trkpt>
      <trkpt lat="49.83948" lon="2.47365">
        <ele>97.6</ele>
        <time>2020-10-21T13:53:13Z</time>
      </trkpt>
      <trkpt lat="49.83948" lon="2.47364">
        <ele>97.6</ele>
        <time>2020-10-21T13:53:15Z</time>
      </trkpt>
      <trkpt lat="49.83947" lon="2.47362">
        <ele>97.6</ele>
        <time>2020-10-21T13:53:16Z</time>
      </trkpt>
      <trkpt lat="49.83947" lon="2.4736">
        <ele>97.6</ele>
        <time>2020-10-21T13:53:17Z</time>
      </trkpt>
      <trkpt lat="49.83947" lon="2.47359">
        <ele>97.6</ele>
        <time>2020-10-21T13:53:18Z</time>
      </trkpt>
      <trkpt lat="49.83946" lon="2.47358">
        <ele>97.6</ele>
        <time>2020-10-21T13:53:19Z</time>
      </trkpt>
      <trkpt lat="49.83946" lon="2.47356">
        <ele>97.6</ele>
        <time>2020-10-21T13:53:20Z</time>
      </trkpt>
      <trkpt lat="49.83945" lon="2.47354">
        <ele>97.6</ele>
        <time>2020-10-21T13:53:22Z</time>
      </trkpt>
      <trkpt lat="49.83945" lon="2.47353">
        <ele>97.6</ele>
        <time>2020-10-21T13:53:23Z</time>
      </trkpt>
      <trkpt lat="49.83945" lon="2.47351">
        <ele>97.6</ele>
        <time>2020-10-21T13:53:24Z</time>
      </trkpt>
      <trkpt lat="49.83944" lon="2.4735">
        <ele>97.6</ele>
        <time>2020-10-21T13:53:25Z</time>
      </trkpt>
      <trkpt lat="49.83944" lon="2.47348">
        <ele>97.6</ele>
        <time>2020-10-21T13:53:26Z</time>
      </trkpt>
      <trkpt lat="49.83943" lon="2.47346">
        <ele>97.6</ele>
        <time>2020-10-21T13:53:27Z</time>
      </trkpt>
      <trkpt lat="49.83943" lon="2.47344">
        <ele>97.5</ele>
        <time>2020-10-21T13:53:28Z</time>
      </trkpt>
      <trkpt lat="49.83942" lon="2.47343">
        <ele>97.5</ele>
        <time>2020-10-21T13:53:30Z</time>
      </trkpt>
      <trkpt lat="49.83941" lon="2.4734">
        <ele>97.5</ele>
        <time>2020-10-21T13:53:31Z</time>
      </trkpt>
      <trkpt lat="49.83941" lon="2.47339">
        <ele>97.5</ele>
        <time>2020-10-21T13:53:32Z</time>
      </trkpt>
      <trkpt lat="49.83941" lon="2.47337">
        <ele>97.5</ele>
        <time>2020-10-21T13:53:33Z</time>
      </trkpt>
      <trkpt lat="49.8394" lon="2.47335">
        <ele>97.4</ele>
        <time>2020-10-21T13:53:34Z</time>
      </trkpt>
      <trkpt lat="49.8394" lon="2.47334">
        <ele>97.4</ele>
        <time>2020-10-21T13:53:35Z</time>
      </trkpt>
      <trkpt lat="49.83939" lon="2.47332">
        <ele>97.4</ele>
        <time>2020-10-21T13:53:37Z</time>
      </trkpt>
      <trkpt lat="49.83939" lon="2.4733">
        <ele>97.4</ele>
        <time>2020-10-21T13:53:38Z</time>
      </trkpt>
      <trkpt lat="49.83938" lon="2.47328">
        <ele>97.4</ele>
        <time>2020-10-21T13:53:39Z</time>
      </trkpt>
      <trkpt lat="49.83937" lon="2.47326">
        <ele>97.3</ele>
        <time>2020-10-21T13:53:40Z</time>
      </trkpt>
      <trkpt lat="49.83936" lon="2.47324">
        <ele>97.3</ele>
        <time>2020-10-21T13:53:41Z</time>
      </trkpt>
      <trkpt lat="49.83935" lon="2.47322">
        <ele>97.3</ele>
        <time>2020-10-21T13:53:42Z</time>
      </trkpt>
      <trkpt lat="49.83935" lon="2.47321">
        <ele>97.3</ele>
        <time>2020-10-21T13:53:43Z</time>
      </trkpt>
      <trkpt lat="49.83934" lon="2.4732">
        <ele>97.3</ele>
        <time>2020-10-21T13:53:45Z</time>
      </trkpt>
      <trkpt lat="49.83934" lon="2.47317">
        <ele>97.3</ele>
        <time>2020-10-21T13:53:46Z</time>
      </trkpt>
      <trkpt lat="49.83933" lon="2.47315">
        <ele>97.3</ele>
        <time>2020-10-21T13:53:47Z</time>
      </trkpt>
      <trkpt lat="49.83933" lon="2.47314">
        <ele>97.3</ele>
        <time>2020-10-21T13:53:48Z</time>
      </trkpt>
      <trkpt lat="49.83932" lon="2.47313">
        <ele>97.3</ele>
        <time>2020-10-21T13:53:49Z</time>
      </trkpt>
      <trkpt lat="49.83932" lon="2.47309">
        <ele>97.3</ele>
        <time>2020-10-21T13:53:51Z</time>
      </trkpt>
      <trkpt lat="49.83932" lon="2.47308">
        <ele>97.3</ele>
        <time>2020-10-21T13:53:52Z</time>
      </trkpt>
      <trkpt lat="49.83931" lon="2.47306">
        <ele>97.3</ele>
        <time>2020-10-21T13:53:53Z</time>
      </trkpt>
      <trkpt lat="49.83931" lon="2.47305">
        <ele>97.3</ele>
        <time>2020-10-21T13:53:55Z</time>
      </trkpt>
      <trkpt lat="49.8393" lon="2.47303">
        <ele>97.3</ele>
        <time>2020-10-21T13:53:56Z</time>
      </trkpt>
      <trkpt lat="49.8393" lon="2.47301">
        <ele>97.2</ele>
        <time>2020-10-21T13:53:57Z</time>
      </trkpt>
      <trkpt lat="49.8393" lon="2.473">
        <ele>97.2</ele>
        <time>2020-10-21T13:53:58Z</time>
      </trkpt>
      <trkpt lat="49.83929" lon="2.47298">
        <ele>97.2</ele>
        <time>2020-10-21T13:53:59Z</time>
      </trkpt>
      <trkpt lat="49.83928" lon="2.47296">
        <ele>97.2</ele>
        <time>2020-10-21T13:54:00Z</time>
      </trkpt>
      <trkpt lat="49.83928" lon="2.47295">
        <ele>97.2</ele>
        <time>2020-10-21T13:54:02Z</time>
      </trkpt>
      <trkpt lat="49.83928" lon="2.47293">
        <ele>97.2</ele>
        <time>2020-10-21T13:54:03Z</time>
      </trkpt>
      <trkpt lat="49.83927" lon="2.47291">
        <ele>97.1</ele>
        <time>2020-10-21T13:54:04Z</time>
      </trkpt>
      <trkpt lat="49.83926" lon="2.4729">
        <ele>97.1</ele>
        <time>2020-10-21T13:54:05Z</time>
      </trkpt>
      <trkpt lat="49.83925" lon="2.47287">
        <ele>97.1</ele>
        <time>2020-10-21T13:54:06Z</time>
      </trkpt>
      <trkpt lat="49.83925" lon="2.47286">
        <ele>97.1</ele>
        <time>2020-10-21T13:54:07Z</time>
      </trkpt>
      <trkpt lat="49.83924" lon="2.47285">
        <ele>97.1</ele>
        <time>2020-10-21T13:54:08Z</time>
      </trkpt>
      <trkpt lat="49.83924" lon="2.47283">
        <ele>97.1</ele>
        <time>2020-10-21T13:54:09Z</time>
      </trkpt>
      <trkpt lat="49.83923" lon="2.47282">
        <ele>97.1</ele>
        <time>2020-10-21T13:54:10Z</time>
      </trkpt>
      <trkpt lat="49.83922" lon="2.4728">
        <ele>97</ele>
        <time>2020-10-21T13:54:12Z</time>
      </trkpt>
      <trkpt lat="49.83922" lon="2.47278">
        <ele>97</ele>
        <time>2020-10-21T13:54:13Z</time>
      </trkpt>
      <trkpt lat="49.83921" lon="2.47277">
        <ele>97</ele>
        <time>2020-10-21T13:54:14Z</time>
      </trkpt>
      <trkpt lat="49.8392" lon="2.47275">
        <ele>97</ele>
        <time>2020-10-21T13:54:15Z</time>
      </trkpt>
      <trkpt lat="49.8392" lon="2.47274">
        <ele>97</ele>
        <time>2020-10-21T13:54:16Z</time>
      </trkpt>
      <trkpt lat="49.83919" lon="2.47272">
        <ele>97</ele>
        <time>2020-10-21T13:54:17Z</time>
      </trkpt>
      <trkpt lat="49.83918" lon="2.47269">
        <ele>97</ele>
        <time>2020-10-21T13:54:19Z</time>
      </trkpt>
      <trkpt lat="49.83918" lon="2.47267">
        <ele>96.9</ele>
        <time>2020-10-21T13:54:20Z</time>
      </trkpt>
      <trkpt lat="49.83917" lon="2.47266">
        <ele>96.9</ele>
        <time>2020-10-21T13:54:21Z</time>
      </trkpt>
      <trkpt lat="49.83917" lon="2.47265">
        <ele>96.9</ele>
        <time>2020-10-21T13:54:23Z</time>
      </trkpt>
      <trkpt lat="49.83916" lon="2.47263">
        <ele>96.8</ele>
        <time>2020-10-21T13:54:24Z</time>
      </trkpt>
      <trkpt lat="49.83916" lon="2.4726">
        <ele>96.8</ele>
        <time>2020-10-21T13:54:25Z</time>
      </trkpt>
      <trkpt lat="49.83916" lon="2.47257">
        <ele>96.7</ele>
        <time>2020-10-21T13:54:26Z</time>
      </trkpt>
      <trkpt lat="49.83916" lon="2.47256">
        <ele>96.6</ele>
        <time>2020-10-21T13:54:27Z</time>
      </trkpt>
      <trkpt lat="49.83916" lon="2.47254">
        <ele>96.6</ele>
        <time>2020-10-21T13:54:28Z</time>
      </trkpt>
      <trkpt lat="49.83916" lon="2.47252">
        <ele>96.5</ele>
        <time>2020-10-21T13:54:30Z</time>
      </trkpt>
      <trkpt lat="49.83916" lon="2.47251">
        <ele>96.3</ele>
        <time>2020-10-21T13:54:31Z</time>
      </trkpt>
      <trkpt lat="49.83916" lon="2.47248">
        <ele>96.3</ele>
        <time>2020-10-21T13:54:33Z</time>
      </trkpt>
      <trkpt lat="49.83916" lon="2.47247">
        <ele>96.3</ele>
        <time>2020-10-21T13:54:34Z</time>
      </trkpt>
      <trkpt lat="49.83917" lon="2.47246">
        <ele>96.3</ele>
        <time>2020-10-21T13:54:35Z</time>
      </trkpt>
      <trkpt lat="49.83918" lon="2.47245">
        <ele>96.3</ele>
        <time>2020-10-21T13:54:36Z</time>
      </trkpt>
      <trkpt lat="49.8392" lon="2.47245">
        <ele>96.4</ele>
        <time>2020-10-21T13:54:38Z</time>
      </trkpt>
      <trkpt lat="49.83921" lon="2.47244">
        <ele>96.4</ele>
        <time>2020-10-21T13:54:39Z</time>
      </trkpt>
      <trkpt lat="49.83923" lon="2.47244">
        <ele>96.4</ele>
        <time>2020-10-21T13:54:40Z</time>
      </trkpt>
      <trkpt lat="49.83924" lon="2.47244">
        <ele>96.4</ele>
        <time>2020-10-21T13:54:41Z</time>
      </trkpt>
      <trkpt lat="49.83926" lon="2.47243">
        <ele>96.4</ele>
        <time>2020-10-21T13:54:42Z</time>
      </trkpt>
      <trkpt lat="49.83927" lon="2.47243">
        <ele>96.5</ele>
        <time>2020-10-21T13:54:43Z</time>
      </trkpt>
      <trkpt lat="49.83928" lon="2.47243">
        <ele>96.5</ele>
        <time>2020-10-21T13:54:45Z</time>
      </trkpt>
      <trkpt lat="49.8393" lon="2.47242">
        <ele>96.5</ele>
        <time>2020-10-21T13:54:46Z</time>
      </trkpt>
      <trkpt lat="49.83931" lon="2.47242">
        <ele>96.5</ele>
        <time>2020-10-21T13:54:47Z</time>
      </trkpt>
      <trkpt lat="49.83932" lon="2.47241">
        <ele>96.5</ele>
        <time>2020-10-21T13:54:49Z</time>
      </trkpt>
      <trkpt lat="49.83934" lon="2.4724">
        <ele>96.5</ele>
        <time>2020-10-21T13:54:50Z</time>
      </trkpt>
      <trkpt lat="49.83935" lon="2.47239">
        <ele>96.6</ele>
        <time>2020-10-21T13:54:51Z</time>
      </trkpt>
      <trkpt lat="49.83937" lon="2.47239">
        <ele>96.6</ele>
        <time>2020-10-21T13:54:52Z</time>
      </trkpt>
      <trkpt lat="49.83939" lon="2.47238">
        <ele>96.6</ele>
        <time>2020-10-21T13:54:53Z</time>
      </trkpt>
      <trkpt lat="49.8394" lon="2.47238">
        <ele>96.6</ele>
        <time>2020-10-21T13:54:54Z</time>
      </trkpt>
      <trkpt lat="49.83941" lon="2.47237">
        <ele>96.6</ele>
        <time>2020-10-21T13:54:55Z</time>
      </trkpt>
      <trkpt lat="49.83942" lon="2.47237">
        <ele>96.7</ele>
        <time>2020-10-21T13:54:57Z</time>
      </trkpt>
      <trkpt lat="49.83943" lon="2.47237">
        <ele>96.7</ele>
        <time>2020-10-21T13:54:58Z</time>
      </trkpt>
      <trkpt lat="49.83944" lon="2.47236">
        <ele>96.7</ele>
        <time>2020-10-21T13:54:59Z</time>
      </trkpt>
      <trkpt lat="49.83946" lon="2.47235">
        <ele>96.7</ele>
        <time>2020-10-21T13:55:00Z</time>
      </trkpt>
      <trkpt lat="49.83947" lon="2.47235">
        <ele>96.7</ele>
        <time>2020-10-21T13:55:01Z</time>
      </trkpt>
      <trkpt lat="49.83948" lon="2.47234">
        <ele>96.7</ele>
        <time>2020-10-21T13:55:02Z</time>
      </trkpt>
      <trkpt lat="49.83949" lon="2.47234">
        <ele>96.7</ele>
        <time>2020-10-21T13:55:03Z</time>
      </trkpt>
      <trkpt lat="49.8395" lon="2.47234">
        <ele>96.8</ele>
        <time>2020-10-21T13:55:05Z</time>
      </trkpt>
      <trkpt lat="49.83951" lon="2.47233">
        <ele>96.8</ele>
        <time>2020-10-21T13:55:06Z</time>
      </trkpt>
      <trkpt lat="49.83952" lon="2.47233">
        <ele>96.8</ele>
        <time>2020-10-21T13:55:07Z</time>
      </trkpt>
      <trkpt lat="49.83954" lon="2.47232">
        <ele>96.8</ele>
        <time>2020-10-21T13:55:08Z</time>
      </trkpt>
      <trkpt lat="49.83954" lon="2.47231">
        <ele>96.8</ele>
        <time>2020-10-21T13:55:09Z</time>
      </trkpt>
      <trkpt lat="49.83955" lon="2.47231">
        <ele>96.8</ele>
        <time>2020-10-21T13:55:10Z</time>
      </trkpt>
      <trkpt lat="49.83955" lon="2.4723">
        <ele>96.8</ele>
        <time>2020-10-21T13:55:11Z</time>
      </trkpt>
      <trkpt lat="49.83956" lon="2.47229">
        <ele>96.8</ele>
        <time>2020-10-21T13:55:13Z</time>
      </trkpt>
      <trkpt lat="49.83958" lon="2.47229">
        <ele>96.9</ele>
        <time>2020-10-21T13:55:14Z</time>
      </trkpt>
      <trkpt lat="49.8396" lon="2.47228">
        <ele>96.9</ele>
        <time>2020-10-21T13:55:15Z</time>
      </trkpt>
      <trkpt lat="49.8396" lon="2.47228">
        <ele>96.9</ele>
        <time>2020-10-21T13:55:16Z</time>
      </trkpt>
      <trkpt lat="49.83961" lon="2.47228">
        <ele>96.9</ele>
        <time>2020-10-21T13:55:17Z</time>
      </trkpt>
      <trkpt lat="49.83963" lon="2.47228">
        <ele>96.9</ele>
        <time>2020-10-21T13:55:18Z</time>
      </trkpt>
      <trkpt lat="49.83964" lon="2.47227">
        <ele>96.9</ele>
        <time>2020-10-21T13:55:20Z</time>
      </trkpt>
      <trkpt lat="49.83965" lon="2.47227">
        <ele>97</ele>
        <time>2020-10-21T13:55:21Z</time>
      </trkpt>
      <trkpt lat="49.83966" lon="2.47226">
        <ele>97</ele>
        <time>2020-10-21T13:55:22Z</time>
      </trkpt>
      <trkpt lat="49.83969" lon="2.47226">
        <ele>97</ele>
        <time>2020-10-21T13:55:24Z</time>
      </trkpt>
      <trkpt lat="49.8397" lon="2.47226">
        <ele>97</ele>
        <time>2020-10-21T13:55:25Z</time>
      </trkpt>
      <trkpt lat="49.83972" lon="2.47225">
        <ele>97</ele>
        <time>2020-10-21T13:55:26Z</time>
      </trkpt>
      <trkpt lat="49.83973" lon="2.47225">
        <ele>97.1</ele>
        <time>2020-10-21T13:55:28Z</time>
      </trkpt>
      <trkpt lat="49.83975" lon="2.47225">
        <ele>97.1</ele>
        <time>2020-10-21T13:55:29Z</time>
      </trkpt>
      <trkpt lat="49.83976" lon="2.47225">
        <ele>97.1</ele>
        <time>2020-10-21T13:55:30Z</time>
      </trkpt>
      <trkpt lat="49.83977" lon="2.47225">
        <ele>97.1</ele>
        <time>2020-10-21T13:55:31Z</time>
      </trkpt>
      <trkpt lat="49.83979" lon="2.47225">
        <ele>97.1</ele>
        <time>2020-10-21T13:55:33Z</time>
      </trkpt>
      <trkpt lat="49.8398" lon="2.47225">
        <ele>97.1</ele>
        <time>2020-10-21T13:55:34Z</time>
      </trkpt>
      <trkpt lat="49.83981" lon="2.47225">
        <ele>97.2</ele>
        <time>2020-10-21T13:55:35Z</time>
      </trkpt>
      <trkpt lat="49.83982" lon="2.47224">
        <ele>97.2</ele>
        <time>2020-10-21T13:55:36Z</time>
      </trkpt>
      <trkpt lat="49.83983" lon="2.47224">
        <ele>97.2</ele>
        <time>2020-10-21T13:55:37Z</time>
      </trkpt>
      <trkpt lat="49.83986" lon="2.47224">
        <ele>97.2</ele>
        <time>2020-10-21T13:55:39Z</time>
      </trkpt>
      <trkpt lat="49.83988" lon="2.47223">
        <ele>97.2</ele>
        <time>2020-10-21T13:55:40Z</time>
      </trkpt>
      <trkpt lat="49.83988" lon="2.47223">
        <ele>97.3</ele>
        <time>2020-10-21T13:55:41Z</time>
      </trkpt>
      <trkpt lat="49.83989" lon="2.47223">
        <ele>97.3</ele>
        <time>2020-10-21T13:55:42Z</time>
      </trkpt>
      <trkpt lat="49.8399" lon="2.47222">
        <ele>97.3</ele>
        <time>2020-10-21T13:55:43Z</time>
      </trkpt>
      <trkpt lat="49.83991" lon="2.47222">
        <ele>97.3</ele>
        <time>2020-10-21T13:55:45Z</time>
      </trkpt>
      <trkpt lat="49.83992" lon="2.47221">
        <ele>97.3</ele>
        <time>2020-10-21T13:55:46Z</time>
      </trkpt>
      <trkpt lat="49.83994" lon="2.47221">
        <ele>97.3</ele>
        <time>2020-10-21T13:55:47Z</time>
      </trkpt>
      <trkpt lat="49.83995" lon="2.4722">
        <ele>97.3</ele>
        <time>2020-10-21T13:55:48Z</time>
      </trkpt>
      <trkpt lat="49.83997" lon="2.47219">
        <ele>97.4</ele>
        <time>2020-10-21T13:55:50Z</time>
      </trkpt>
      <trkpt lat="49.83998" lon="2.47218">
        <ele>97.4</ele>
        <time>2020-10-21T13:55:51Z</time>
      </trkpt>
      <trkpt lat="49.83999" lon="2.47218">
        <ele>97.4</ele>
        <time>2020-10-21T13:55:52Z</time>
      </trkpt>
      <trkpt lat="49.84" lon="2.47217">
        <ele>97.4</ele>
        <time>2020-10-21T13:55:53Z</time>
      </trkpt>
      <trkpt lat="49.84001" lon="2.47217">
        <ele>97.4</ele>
        <time>2020-10-21T13:55:54Z</time>
      </trkpt>
      <trkpt lat="49.84002" lon="2.47216">
        <ele>97.4</ele>
        <time>2020-10-21T13:55:55Z</time>
      </trkpt>
      <trkpt lat="49.84004" lon="2.47216">
        <ele>97.5</ele>
        <time>2020-10-21T13:55:56Z</time>
      </trkpt>
      <trkpt lat="49.84005" lon="2.47215">
        <ele>97.5</ele>
        <time>2020-10-21T13:55:57Z</time>
      </trkpt>
      <trkpt lat="49.84006" lon="2.47215">
        <ele>97.5</ele>
        <time>2020-10-21T13:55:58Z</time>
      </trkpt>
      <trkpt lat="49.84007" lon="2.47215">
        <ele>97.5</ele>
        <time>2020-10-21T13:55:59Z</time>
      </trkpt>
      <trkpt lat="49.84008" lon="2.47215">
        <ele>97.5</ele>
        <time>2020-10-21T13:56:01Z</time>
      </trkpt>
      <trkpt lat="49.84009" lon="2.47215">
        <ele>97.5</ele>
        <time>2020-10-21T13:56:02Z</time>
      </trkpt>
      <trkpt lat="49.84012" lon="2.47214">
        <ele>97.6</ele>
        <time>2020-10-21T13:56:03Z</time>
      </trkpt>
      <trkpt lat="49.84013" lon="2.47214">
        <ele>97.6</ele>
        <time>2020-10-21T13:56:05Z</time>
      </trkpt>
      <trkpt lat="49.84014" lon="2.47213">
        <ele>97.6</ele>
        <time>2020-10-21T13:56:06Z</time>
      </trkpt>
      <trkpt lat="49.84015" lon="2.47213">
        <ele>97.6</ele>
        <time>2020-10-21T13:56:07Z</time>
      </trkpt>
      <trkpt lat="49.84016" lon="2.47212">
        <ele>97.6</ele>
        <time>2020-10-21T13:56:08Z</time>
      </trkpt>
      <trkpt lat="49.84017" lon="2.47212">
        <ele>97.6</ele>
        <time>2020-10-21T13:56:09Z</time>
      </trkpt>
      <trkpt lat="49.84018" lon="2.47212">
        <ele>97.6</ele>
        <time>2020-10-21T13:56:10Z</time>
      </trkpt>
      <trkpt lat="49.84019" lon="2.47211">
        <ele>97.6</ele>
        <time>2020-10-21T13:56:11Z</time>
      </trkpt>
      <trkpt lat="49.8402" lon="2.4721">
        <ele>97.7</ele>
        <time>2020-10-21T13:56:12Z</time>
      </trkpt>
      <trkpt lat="49.84021" lon="2.4721">
        <ele>97.7</ele>
        <time>2020-10-21T13:56:14Z</time>
      </trkpt>
      <trkpt lat="49.84022" lon="2.47209">
        <ele>97.7</ele>
        <time>2020-10-21T13:56:15Z</time>
      </trkpt>
      <trkpt lat="49.84025" lon="2.47209">
        <ele>97.7</ele>
        <time>2020-10-21T13:56:16Z</time>
      </trkpt>
      <trkpt lat="49.84026" lon="2.47209">
        <ele>97.7</ele>
        <time>2020-10-21T13:56:17Z</time>
      </trkpt>
      <trkpt lat="49.84027" lon="2.47208">
        <ele>97.7</ele>
        <time>2020-10-21T13:56:18Z</time>
      </trkpt>
      <trkpt lat="49.84028" lon="2.47208">
        <ele>97.8</ele>
        <time>2020-10-21T13:56:19Z</time>
      </trkpt>
      <trkpt lat="49.84028" lon="2.47207">
        <ele>97.8</ele>
        <time>2020-10-21T13:56:20Z</time>
      </trkpt>
      <trkpt lat="49.84029" lon="2.47207">
        <ele>97.8</ele>
        <time>2020-10-21T13:56:21Z</time>
      </trkpt>
      <trkpt lat="49.84031" lon="2.47206">
        <ele>97.8</ele>
        <time>2020-10-21T13:56:23Z</time>
      </trkpt>
      <trkpt lat="49.84032" lon="2.47206">
        <ele>97.8</ele>
        <time>2020-10-21T13:56:24Z</time>
      </trkpt>
      <trkpt lat="49.84033" lon="2.47205">
        <ele>97.8</ele>
        <time>2020-10-21T13:56:25Z</time>
      </trkpt>
      <trkpt lat="49.84034" lon="2.47205">
        <ele>97.8</ele>
        <time>2020-10-21T13:56:26Z</time>
      </trkpt>
      <trkpt lat="49.84035" lon="2.47205">
        <ele>97.9</ele>
        <time>2020-10-21T13:56:27Z</time>
      </trkpt>
      <trkpt lat="49.84037" lon="2.47205">
        <ele>97.9</ele>
        <time>2020-10-21T13:56:28Z</time>
      </trkpt>
      <trkpt lat="49.84037" lon="2.47205">
        <ele>97.9</ele>
        <time>2020-10-21T13:56:30Z</time>
      </trkpt>
      <trkpt lat="49.84038" lon="2.47205">
        <ele>97.9</ele>
        <time>2020-10-21T13:56:31Z</time>
      </trkpt>
      <trkpt lat="49.84039" lon="2.47204">
        <ele>97.9</ele>
        <time>2020-10-21T13:56:32Z</time>
      </trkpt>
      <trkpt lat="49.84041" lon="2.47204">
        <ele>97.9</ele>
        <time>2020-10-21T13:56:33Z</time>
      </trkpt>
      <trkpt lat="49.84042" lon="2.47204">
        <ele>97.9</ele>
        <time>2020-10-21T13:56:34Z</time>
      </trkpt>
      <trkpt lat="49.84043" lon="2.47203">
        <ele>98</ele>
        <time>2020-10-21T13:56:35Z</time>
      </trkpt>
      <trkpt lat="49.84044" lon="2.47203">
        <ele>98</ele>
        <time>2020-10-21T13:56:36Z</time>
      </trkpt>
      <trkpt lat="49.84045" lon="2.47202">
        <ele>98</ele>
        <time>2020-10-21T13:56:38Z</time>
      </trkpt>
      <trkpt lat="49.84046" lon="2.47201">
        <ele>98</ele>
        <time>2020-10-21T13:56:39Z</time>
      </trkpt>
      <trkpt lat="49.84047" lon="2.47201">
        <ele>98</ele>
        <time>2020-10-21T13:56:40Z</time>
      </trkpt>
      <trkpt lat="49.84049" lon="2.472">
        <ele>98</ele>
        <time>2020-10-21T13:56:41Z</time>
      </trkpt>
      <trkpt lat="49.8405" lon="2.472">
        <ele>98.1</ele>
        <time>2020-10-21T13:56:42Z</time>
      </trkpt>
      <trkpt lat="49.84051" lon="2.47199">
        <ele>98.1</ele>
        <time>2020-10-21T13:56:43Z</time>
      </trkpt>
      <trkpt lat="49.84052" lon="2.47199">
        <ele>98.1</ele>
        <time>2020-10-21T13:56:44Z</time>
      </trkpt>
      <trkpt lat="49.84053" lon="2.47199">
        <ele>98.1</ele>
        <time>2020-10-21T13:56:46Z</time>
      </trkpt>
      <trkpt lat="49.84054" lon="2.47199">
        <ele>98.1</ele>
        <time>2020-10-21T13:56:47Z</time>
      </trkpt>
      <trkpt lat="49.84056" lon="2.47198">
        <ele>98.1</ele>
        <time>2020-10-21T13:56:48Z</time>
      </trkpt>
      <trkpt lat="49.84057" lon="2.47198">
        <ele>98.1</ele>
        <time>2020-10-21T13:56:49Z</time>
      </trkpt>
      <trkpt lat="49.84059" lon="2.47198">
        <ele>98.2</ele>
        <time>2020-10-21T13:56:50Z</time>
      </trkpt>
      <trkpt lat="49.8406" lon="2.47197">
        <ele>98.2</ele>
        <time>2020-10-21T13:56:51Z</time>
      </trkpt>
      <trkpt lat="49.84061" lon="2.47197">
        <ele>98.2</ele>
        <time>2020-10-21T13:56:52Z</time>
      </trkpt>
      <trkpt lat="49.84063" lon="2.47196">
        <ele>98.2</ele>
        <time>2020-10-21T13:56:53Z</time>
      </trkpt>
      <trkpt lat="49.84064" lon="2.47196">
        <ele>98.2</ele>
        <time>2020-10-21T13:56:55Z</time>
      </trkpt>
      <trkpt lat="49.84064" lon="2.47196">
        <ele>98.2</ele>
        <time>2020-10-21T13:56:56Z</time>
      </trkpt>
      <trkpt lat="49.84066" lon="2.47195">
        <ele>98.3</ele>
        <time>2020-10-21T13:56:57Z</time>
      </trkpt>
      <trkpt lat="49.84068" lon="2.47195">
        <ele>98.3</ele>
        <time>2020-10-21T13:56:58Z</time>
      </trkpt>
      <trkpt lat="49.84069" lon="2.47194">
        <ele>98.3</ele>
        <time>2020-10-21T13:56:59Z</time>
      </trkpt>
      <trkpt lat="49.8407" lon="2.47194">
        <ele>98.3</ele>
        <time>2020-10-21T13:57:00Z</time>
      </trkpt>
      <trkpt lat="49.84071" lon="2.47193">
        <ele>98.3</ele>
        <time>2020-10-21T13:57:01Z</time>
      </trkpt>
      <trkpt lat="49.84072" lon="2.47193">
        <ele>98.3</ele>
        <time>2020-10-21T13:57:03Z</time>
      </trkpt>
      <trkpt lat="49.84073" lon="2.47193">
        <ele>98.4</ele>
        <time>2020-10-21T13:57:04Z</time>
      </trkpt>
      <trkpt lat="49.84074" lon="2.47193">
        <ele>98.4</ele>
        <time>2020-10-21T13:57:05Z</time>
      </trkpt>
      <trkpt lat="49.84075" lon="2.47192">
        <ele>98.4</ele>
        <time>2020-10-21T13:57:06Z</time>
      </trkpt>
      <trkpt lat="49.84077" lon="2.47192">
        <ele>98.4</ele>
        <time>2020-10-21T13:57:07Z</time>
      </trkpt>
      <trkpt lat="49.84078" lon="2.47191">
        <ele>98.4</ele>
        <time>2020-10-21T13:57:08Z</time>
      </trkpt>
      <trkpt lat="49.8408" lon="2.4719">
        <ele>98.4</ele>
        <time>2020-10-21T13:57:09Z</time>
      </trkpt>
      <trkpt lat="49.8408" lon="2.4719">
        <ele>98.4</ele>
        <time>2020-10-21T13:57:10Z</time>
      </trkpt>
      <trkpt lat="49.84081" lon="2.47189">
        <ele>98.5</ele>
        <time>2020-10-21T13:57:11Z</time>
      </trkpt>
      <trkpt lat="49.84082" lon="2.47189">
        <ele>98.5</ele>
        <time>2020-10-21T13:57:12Z</time>
      </trkpt>
      <trkpt lat="49.84083" lon="2.47188">
        <ele>98.5</ele>
        <time>2020-10-21T13:57:14Z</time>
      </trkpt>
      <trkpt lat="49.84084" lon="2.47188">
        <ele>98.5</ele>
        <time>2020-10-21T13:57:15Z</time>
      </trkpt>
      <trkpt lat="49.84086" lon="2.47187">
        <ele>98.5</ele>
        <time>2020-10-21T13:57:16Z</time>
      </trkpt>
      <trkpt lat="49.84087" lon="2.47187">
        <ele>98.5</ele>
        <time>2020-10-21T13:57:17Z</time>
      </trkpt>
      <trkpt lat="49.84088" lon="2.47187">
        <ele>98.5</ele>
        <time>2020-10-21T13:57:18Z</time>
      </trkpt>
      <trkpt lat="49.84088" lon="2.47187">
        <ele>98.6</ele>
        <time>2020-10-21T13:57:19Z</time>
      </trkpt>
      <trkpt lat="49.8409" lon="2.47186">
        <ele>98.6</ele>
        <time>2020-10-21T13:57:21Z</time>
      </trkpt>
      <trkpt lat="49.84091" lon="2.47186">
        <ele>98.6</ele>
        <time>2020-10-21T13:57:22Z</time>
      </trkpt>
      <trkpt lat="49.84093" lon="2.47185">
        <ele>98.6</ele>
        <time>2020-10-21T13:57:24Z</time>
      </trkpt>
      <trkpt lat="49.84094" lon="2.47185">
        <ele>98.6</ele>
        <time>2020-10-21T13:57:25Z</time>
      </trkpt>
      <trkpt lat="49.84096" lon="2.47184">
        <ele>98.6</ele>
        <time>2020-10-21T13:57:26Z</time>
      </trkpt>
      <trkpt lat="49.84097" lon="2.47184">
        <ele>98.7</ele>
        <time>2020-10-21T13:57:27Z</time>
      </trkpt>
      <trkpt lat="49.84098" lon="2.47183">
        <ele>98.7</ele>
        <time>2020-10-21T13:57:28Z</time>
      </trkpt>
      <trkpt lat="49.841" lon="2.47183">
        <ele>98.7</ele>
        <time>2020-10-21T13:57:29Z</time>
      </trkpt>
      <trkpt lat="49.84101" lon="2.47183">
        <ele>98.7</ele>
        <time>2020-10-21T13:57:31Z</time>
      </trkpt>
      <trkpt lat="49.84102" lon="2.47183">
        <ele>98.7</ele>
        <time>2020-10-21T13:57:32Z</time>
      </trkpt>
      <trkpt lat="49.84104" lon="2.47182">
        <ele>98.8</ele>
        <time>2020-10-21T13:57:33Z</time>
      </trkpt>
      <trkpt lat="49.84105" lon="2.47182">
        <ele>98.8</ele>
        <time>2020-10-21T13:57:34Z</time>
      </trkpt>
      <trkpt lat="49.84106" lon="2.47182">
        <ele>98.8</ele>
        <time>2020-10-21T13:57:36Z</time>
      </trkpt>
      <trkpt lat="49.84107" lon="2.47182">
        <ele>98.8</ele>
        <time>2020-10-21T13:57:37Z</time>
      </trkpt>
      <trkpt lat="49.84108" lon="2.47181">
        <ele>98.8</ele>
        <time>2020-10-21T13:57:38Z</time>
      </trkpt>
      <trkpt lat="49.84109" lon="2.47181">
        <ele>98.8</ele>
        <time>2020-10-21T13:57:39Z</time>
      </trkpt>
      <trkpt lat="49.8411" lon="2.47181">
        <ele>98.8</ele>
        <time>2020-10-21T13:57:40Z</time>
      </trkpt>
      <trkpt lat="49.84112" lon="2.4718">
        <ele>98.9</ele>
        <time>2020-10-21T13:57:42Z</time>
      </trkpt>
      <trkpt lat="49.84114" lon="2.4718">
        <ele>98.9</ele>
        <time>2020-10-21T13:57:43Z</time>
      </trkpt>
      <trkpt lat="49.84115" lon="2.47179">
        <ele>98.9</ele>
        <time>2020-10-21T13:57:44Z</time>
      </trkpt>
      <trkpt lat="49.84116" lon="2.47179">
        <ele>98.9</ele>
        <time>2020-10-21T13:57:45Z</time>
      </trkpt>
      <trkpt lat="49.84117" lon="2.47179">
        <ele>98.9</ele>
        <time>2020-10-21T13:57:46Z</time>
      </trkpt>
      <trkpt lat="49.84118" lon="2.47179">
        <ele>98.9</ele>
        <time>2020-10-21T13:57:48Z</time>
      </trkpt>
      <trkpt lat="49.8412" lon="2.47178">
        <ele>99</ele>
        <time>2020-10-21T13:57:49Z</time>
      </trkpt>
      <trkpt lat="49.84121" lon="2.47178">
        <ele>99</ele>
        <time>2020-10-21T13:57:50Z</time>
      </trkpt>
      <trkpt lat="49.84123" lon="2.47177">
        <ele>99</ele>
        <time>2020-10-21T13:57:51Z</time>
      </trkpt>
      <trkpt lat="49.84124" lon="2.47177">
        <ele>99</ele>
        <time>2020-10-21T13:57:52Z</time>
      </trkpt>
      <trkpt lat="49.84125" lon="2.47176">
        <ele>99</ele>
        <time>2020-10-21T13:57:53Z</time>
      </trkpt>
      <trkpt lat="49.84126" lon="2.47176">
        <ele>99</ele>
        <time>2020-10-21T13:57:54Z</time>
      </trkpt>
      <trkpt lat="49.84127" lon="2.47176">
        <ele>99</ele>
        <time>2020-10-21T13:57:55Z</time>
      </trkpt>
      <trkpt lat="49.84128" lon="2.47176">
        <ele>99.1</ele>
        <time>2020-10-21T13:57:56Z</time>
      </trkpt>
      <trkpt lat="49.84129" lon="2.47175">
        <ele>99.1</ele>
        <time>2020-10-21T13:57:58Z</time>
      </trkpt>
      <trkpt lat="49.84131" lon="2.47175">
        <ele>99.1</ele>
        <time>2020-10-21T13:57:59Z</time>
      </trkpt>
      <trkpt lat="49.84133" lon="2.47174">
        <ele>99.1</ele>
        <time>2020-10-21T13:58:00Z</time>
      </trkpt>
      <trkpt lat="49.84134" lon="2.47173">
        <ele>99.1</ele>
        <time>2020-10-21T13:58:01Z</time>
      </trkpt>
      <trkpt lat="49.84134" lon="2.47173">
        <ele>99.1</ele>
        <time>2020-10-21T13:58:02Z</time>
      </trkpt>
      <trkpt lat="49.84136" lon="2.47172">
        <ele>99.2</ele>
        <time>2020-10-21T13:58:03Z</time>
      </trkpt>
      <trkpt lat="49.84136" lon="2.47172">
        <ele>99.2</ele>
        <time>2020-10-21T13:58:04Z</time>
      </trkpt>
      <trkpt lat="49.84137" lon="2.47171">
        <ele>99.2</ele>
        <time>2020-10-21T13:58:05Z</time>
      </trkpt>
      <trkpt lat="49.84139" lon="2.47171">
        <ele>99.2</ele>
        <time>2020-10-21T13:58:07Z</time>
      </trkpt>
      <trkpt lat="49.8414" lon="2.4717">
        <ele>99.2</ele>
        <time>2020-10-21T13:58:08Z</time>
      </trkpt>
      <trkpt lat="49.84141" lon="2.47169">
        <ele>99.2</ele>
        <time>2020-10-21T13:58:09Z</time>
      </trkpt>
      <trkpt lat="49.84143" lon="2.47169">
        <ele>99.3</ele>
        <time>2020-10-21T13:58:10Z</time>
      </trkpt>
      <trkpt lat="49.84145" lon="2.47168">
        <ele>99.3</ele>
        <time>2020-10-21T13:58:11Z</time>
      </trkpt>
      <trkpt lat="49.84146" lon="2.47167">
        <ele>99.3</ele>
        <time>2020-10-21T13:58:12Z</time>
      </trkpt>
      <trkpt lat="49.84147" lon="2.47167">
        <ele>99.3</ele>
        <time>2020-10-21T13:58:13Z</time>
      </trkpt>
      <trkpt lat="49.84148" lon="2.47167">
        <ele>99.3</ele>
        <time>2020-10-21T13:58:14Z</time>
      </trkpt>
      <trkpt lat="49.84149" lon="2.47167">
        <ele>99.3</ele>
        <time>2020-10-21T13:58:16Z</time>
      </trkpt>
      <trkpt lat="49.84151" lon="2.47167">
        <ele>99.4</ele>
        <time>2020-10-21T13:58:17Z</time>
      </trkpt>
      <trkpt lat="49.84152" lon="2.47166">
        <ele>99.4</ele>
        <time>2020-10-21T13:58:18Z</time>
      </trkpt>
      <trkpt lat="49.84154" lon="2.47166">
        <ele>99.4</ele>
        <time>2020-10-21T13:58:19Z</time>
      </trkpt>
      <trkpt lat="49.84155" lon="2.47166">
        <ele>99.4</ele>
        <time>2020-10-21T13:58:20Z</time>
      </trkpt>
      <trkpt lat="49.84156" lon="2.47165">
        <ele>99.4</ele>
        <time>2020-10-21T13:58:21Z</time>
      </trkpt>
      <trkpt lat="49.84157" lon="2.47165">
        <ele>99.4</ele>
        <time>2020-10-21T13:58:22Z</time>
      </trkpt>
      <trkpt lat="49.84159" lon="2.47165">
        <ele>99.5</ele>
        <time>2020-10-21T13:58:24Z</time>
      </trkpt>
      <trkpt lat="49.8416" lon="2.47164">
        <ele>99.5</ele>
        <time>2020-10-21T13:58:25Z</time>
      </trkpt>
      <trkpt lat="49.8416" lon="2.47164">
        <ele>99.5</ele>
        <time>2020-10-21T13:58:26Z</time>
      </trkpt>
      <trkpt lat="49.84161" lon="2.47164">
        <ele>99.5</ele>
        <time>2020-10-21T13:58:28Z</time>
      </trkpt>
      <trkpt lat="49.84163" lon="2.47163">
        <ele>99.5</ele>
        <time>2020-10-21T13:58:29Z</time>
      </trkpt>
      <trkpt lat="49.84163" lon="2.47163">
        <ele>99.5</ele>
        <time>2020-10-21T13:58:30Z</time>
      </trkpt>
      <trkpt lat="49.84166" lon="2.47162">
        <ele>99.5</ele>
        <time>2020-10-21T13:58:31Z</time>
      </trkpt>
      <trkpt lat="49.84167" lon="2.47162">
        <ele>99.6</ele>
        <time>2020-10-21T13:58:33Z</time>
      </trkpt>
      <trkpt lat="49.84167" lon="2.47161">
        <ele>99.6</ele>
        <time>2020-10-21T13:58:34Z</time>
      </trkpt>
      <trkpt lat="49.84168" lon="2.47161">
        <ele>99.6</ele>
        <time>2020-10-21T13:58:35Z</time>
      </trkpt>
      <trkpt lat="49.84169" lon="2.47161">
        <ele>99.6</ele>
        <time>2020-10-21T13:58:36Z</time>
      </trkpt>
      <trkpt lat="49.8417" lon="2.47161">
        <ele>99.6</ele>
        <time>2020-10-21T13:58:37Z</time>
      </trkpt>
      <trkpt lat="49.84172" lon="2.4716">
        <ele>99.6</ele>
        <time>2020-10-21T13:58:38Z</time>
      </trkpt>
      <trkpt lat="49.84173" lon="2.47159">
        <ele>99.6</ele>
        <time>2020-10-21T13:58:39Z</time>
      </trkpt>
      <trkpt lat="49.84174" lon="2.47159">
        <ele>99.7</ele>
        <time>2020-10-21T13:58:41Z</time>
      </trkpt>
      <trkpt lat="49.84175" lon="2.47158">
        <ele>99.7</ele>
        <time>2020-10-21T13:58:42Z</time>
      </trkpt>
      <trkpt lat="49.84176" lon="2.47158">
        <ele>99.7</ele>
        <time>2020-10-21T13:58:43Z</time>
      </trkpt>
      <trkpt lat="49.84176" lon="2.47158">
        <ele>99.7</ele>
        <time>2020-10-21T13:58:44Z</time>
      </trkpt>
      <trkpt lat="49.84177" lon="2.47157">
        <ele>99.7</ele>
        <time>2020-10-21T13:58:45Z</time>
      </trkpt>
      <trkpt lat="49.84179" lon="2.47157">
        <ele>99.7</ele>
        <time>2020-10-21T13:58:46Z</time>
      </trkpt>
      <trkpt lat="49.8418" lon="2.47156">
        <ele>99.7</ele>
        <time>2020-10-21T13:58:47Z</time>
      </trkpt>
      <trkpt lat="49.84181" lon="2.47156">
        <ele>99.8</ele>
        <time>2020-10-21T13:58:48Z</time>
      </trkpt>
      <trkpt lat="49.84182" lon="2.47156">
        <ele>99.8</ele>
        <time>2020-10-21T13:58:50Z</time>
      </trkpt>
      <trkpt lat="49.84183" lon="2.47156">
        <ele>99.8</ele>
        <time>2020-10-21T13:58:51Z</time>
      </trkpt>
      <trkpt lat="49.84185" lon="2.47155">
        <ele>99.8</ele>
        <time>2020-10-21T13:58:52Z</time>
      </trkpt>
      <trkpt lat="49.84186" lon="2.47154">
        <ele>99.8</ele>
        <time>2020-10-21T13:58:53Z</time>
      </trkpt>
      <trkpt lat="49.84187" lon="2.47154">
        <ele>99.8</ele>
        <time>2020-10-21T13:58:54Z</time>
      </trkpt>
      <trkpt lat="49.84188" lon="2.47154">
        <ele>99.8</ele>
        <time>2020-10-21T13:58:55Z</time>
      </trkpt>
      <trkpt lat="49.8419" lon="2.47153">
        <ele>99.9</ele>
        <time>2020-10-21T13:58:56Z</time>
      </trkpt>
      <trkpt lat="49.84191" lon="2.47153">
        <ele>99.9</ele>
        <time>2020-10-21T13:58:57Z</time>
      </trkpt>
      <trkpt lat="49.84193" lon="2.47153">
        <ele>99.9</ele>
        <time>2020-10-21T13:58:59Z</time>
      </trkpt>
      <trkpt lat="49.84194" lon="2.47153">
        <ele>99.9</ele>
        <time>2020-10-21T13:59:00Z</time>
      </trkpt>
      <trkpt lat="49.84194" lon="2.47153">
        <ele>99.9</ele>
        <time>2020-10-21T13:59:01Z</time>
      </trkpt>
      <trkpt lat="49.84197" lon="2.47152">
        <ele>99.9</ele>
        <time>2020-10-21T13:59:02Z</time>
      </trkpt>
      <trkpt lat="49.84197" lon="2.47152">
        <ele>100</ele>
        <time>2020-10-21T13:59:03Z</time>
      </trkpt>
      <trkpt lat="49.84198" lon="2.47151">
        <ele>100</ele>
        <time>2020-10-21T13:59:04Z</time>
      </trkpt>
      <trkpt lat="49.84199" lon="2.47151">
        <ele>100</ele>
        <time>2020-10-21T13:59:05Z</time>
      </trkpt>
      <trkpt lat="49.842" lon="2.4715">
        <ele>100</ele>
        <time>2020-10-21T13:59:07Z</time>
      </trkpt>
      <trkpt lat="49.84201" lon="2.4715">
        <ele>100</ele>
        <time>2020-10-21T13:59:08Z</time>
      </trkpt>
      <trkpt lat="49.84204" lon="2.47149">
        <ele>100</ele>
        <time>2020-10-21T13:59:09Z</time>
      </trkpt>
      <trkpt lat="49.84205" lon="2.47149">
        <ele>100.1</ele>
        <time>2020-10-21T13:59:10Z</time>
      </trkpt>
      <trkpt lat="49.84205" lon="2.47148">
        <ele>100.1</ele>
        <time>2020-10-21T13:59:11Z</time>
      </trkpt>
      <trkpt lat="49.84206" lon="2.47148">
        <ele>100.1</ele>
        <time>2020-10-21T13:59:12Z</time>
      </trkpt>
      <trkpt lat="49.84209" lon="2.47147">
        <ele>100.1</ele>
        <time>2020-10-21T13:59:14Z</time>
      </trkpt>
      <trkpt lat="49.8421" lon="2.47147">
        <ele>100.1</ele>
        <time>2020-10-21T13:59:15Z</time>
      </trkpt>
      <trkpt lat="49.84211" lon="2.47147">
        <ele>100.1</ele>
        <time>2020-10-21T13:59:16Z</time>
      </trkpt>
      <trkpt lat="49.84212" lon="2.47146">
        <ele>100.1</ele>
        <time>2020-10-21T13:59:17Z</time>
      </trkpt>
      <trkpt lat="49.84214" lon="2.47145">
        <ele>100.2</ele>
        <time>2020-10-21T13:59:19Z</time>
      </trkpt>
      <trkpt lat="49.84215" lon="2.47145">
        <ele>100.2</ele>
        <time>2020-10-21T13:59:20Z</time>
      </trkpt>
      <trkpt lat="49.84216" lon="2.47145">
        <ele>100.2</ele>
        <time>2020-10-21T13:59:21Z</time>
      </trkpt>
      <trkpt lat="49.84217" lon="2.47144">
        <ele>100.2</ele>
        <time>2020-10-21T13:59:22Z</time>
      </trkpt>
      <trkpt lat="49.84218" lon="2.47144">
        <ele>100.2</ele>
        <time>2020-10-21T13:59:23Z</time>
      </trkpt>
      <trkpt lat="49.84221" lon="2.47143">
        <ele>100.3</ele>
        <time>2020-10-21T13:59:24Z</time>
      </trkpt>
      <trkpt lat="49.84221" lon="2.47143">
        <ele>100.3</ele>
        <time>2020-10-21T13:59:26Z</time>
      </trkpt>
      <trkpt lat="49.84222" lon="2.47143">
        <ele>100.3</ele>
        <time>2020-10-21T13:59:27Z</time>
      </trkpt>
      <trkpt lat="49.84224" lon="2.47142">
        <ele>100.3</ele>
        <time>2020-10-21T13:59:28Z</time>
      </trkpt>
      <trkpt lat="49.84225" lon="2.47142">
        <ele>100.3</ele>
        <time>2020-10-21T13:59:29Z</time>
      </trkpt>
      <trkpt lat="49.84226" lon="2.47142">
        <ele>100.3</ele>
        <time>2020-10-21T13:59:30Z</time>
      </trkpt>
      <trkpt lat="49.84228" lon="2.47142">
        <ele>100.3</ele>
        <time>2020-10-21T13:59:32Z</time>
      </trkpt>
      <trkpt lat="49.84229" lon="2.47142">
        <ele>100.4</ele>
        <time>2020-10-21T13:59:33Z</time>
      </trkpt>
      <trkpt lat="49.8423" lon="2.47142">
        <ele>100.4</ele>
        <time>2020-10-21T13:59:34Z</time>
      </trkpt>
      <trkpt lat="49.8423" lon="2.47142">
        <ele>100.4</ele>
        <time>2020-10-21T13:59:35Z</time>
      </trkpt>
      <trkpt lat="49.84231" lon="2.47142">
        <ele>100.4</ele>
        <time>2020-10-21T13:59:36Z</time>
      </trkpt>
      <trkpt lat="49.84233" lon="2.47142">
        <ele>100.4</ele>
        <time>2020-10-21T13:59:37Z</time>
      </trkpt>
      <trkpt lat="49.84235" lon="2.47142">
        <ele>100.4</ele>
        <time>2020-10-21T13:59:38Z</time>
      </trkpt>
      <trkpt lat="49.84236" lon="2.47141">
        <ele>100.4</ele>
        <time>2020-10-21T13:59:40Z</time>
      </trkpt>
      <trkpt lat="49.84236" lon="2.47141">
        <ele>100.5</ele>
        <time>2020-10-21T13:59:41Z</time>
      </trkpt>
      <trkpt lat="49.84238" lon="2.47141">
        <ele>100.5</ele>
        <time>2020-10-21T13:59:42Z</time>
      </trkpt>
      <trkpt lat="49.84239" lon="2.47141">
        <ele>100.5</ele>
        <time>2020-10-21T13:59:43Z</time>
      </trkpt>
      <trkpt lat="49.8424" lon="2.47141">
        <ele>100.5</ele>
        <time>2020-10-21T13:59:44Z</time>
      </trkpt>
      <trkpt lat="49.84242" lon="2.4714">
        <ele>100.5</ele>
        <time>2020-10-21T13:59:45Z</time>
      </trkpt>
      <trkpt lat="49.84243" lon="2.4714">
        <ele>100.5</ele>
        <time>2020-10-21T13:59:47Z</time>
      </trkpt>
      <trkpt lat="49.84244" lon="2.4714">
        <ele>100.6</ele>
        <time>2020-10-21T13:59:48Z</time>
      </trkpt>
      <trkpt lat="49.84246" lon="2.47139">
        <ele>100.6</ele>
        <time>2020-10-21T13:59:49Z</time>
      </trkpt>
      <trkpt lat="49.84246" lon="2.47139">
        <ele>100.6</ele>
        <time>2020-10-21T13:59:50Z</time>
      </trkpt>
      <trkpt lat="49.84248" lon="2.47138">
        <ele>100.6</ele>
        <time>2020-10-21T13:59:51Z</time>
      </trkpt>
      <trkpt lat="49.84249" lon="2.47138">
        <ele>100.6</ele>
        <time>2020-10-21T13:59:52Z</time>
      </trkpt>
      <trkpt lat="49.8425" lon="2.47138">
        <ele>100.6</ele>
        <time>2020-10-21T13:59:53Z</time>
      </trkpt>
      <trkpt lat="49.84252" lon="2.47137">
        <ele>100.7</ele>
        <time>2020-10-21T13:59:55Z</time>
      </trkpt>
      <trkpt lat="49.84253" lon="2.47137">
        <ele>100.7</ele>
        <time>2020-10-21T13:59:56Z</time>
      </trkpt>
      <trkpt lat="49.84254" lon="2.47136">
        <ele>100.7</ele>
        <time>2020-10-21T13:59:57Z</time>
      </trkpt>
      <trkpt lat="49.84255" lon="2.47136">
        <ele>100.7</ele>
        <time>2020-10-21T13:59:58Z</time>
      </trkpt>
      <trkpt lat="49.84256" lon="2.47136">
        <ele>100.7</ele>
        <time>2020-10-21T13:59:59Z</time>
      </trkpt>
      <trkpt lat="49.84258" lon="2.47135">
        <ele>100.7</ele>
        <time>2020-10-21T14:00:01Z</time>
      </trkpt>
      <trkpt lat="49.84259" lon="2.47135">
        <ele>100.7</ele>
        <time>2020-10-21T14:00:02Z</time>
      </trkpt>
      <trkpt lat="49.8426" lon="2.47135">
        <ele>100.8</ele>
        <time>2020-10-21T14:00:03Z</time>
      </trkpt>
      <trkpt lat="49.84262" lon="2.47134">
        <ele>100.8</ele>
        <time>2020-10-21T14:00:05Z</time>
      </trkpt>
      <trkpt lat="49.84264" lon="2.47134">
        <ele>100.8</ele>
        <time>2020-10-21T14:00:06Z</time>
      </trkpt>
      <trkpt lat="49.84265" lon="2.47133">
        <ele>100.8</ele>
        <time>2020-10-21T14:00:07Z</time>
      </trkpt>
      <trkpt lat="49.84266" lon="2.47133">
        <ele>100.8</ele>
        <time>2020-10-21T14:00:08Z</time>
      </trkpt>
      <trkpt lat="49.84267" lon="2.47133">
        <ele>100.9</ele>
        <time>2020-10-21T14:00:09Z</time>
      </trkpt>
      <trkpt lat="49.84268" lon="2.47133">
        <ele>100.9</ele>
        <time>2020-10-21T14:00:10Z</time>
      </trkpt>
      <trkpt lat="49.84269" lon="2.47132">
        <ele>100.9</ele>
        <time>2020-10-21T14:00:12Z</time>
      </trkpt>
      <trkpt lat="49.8427" lon="2.47132">
        <ele>100.9</ele>
        <time>2020-10-21T14:00:13Z</time>
      </trkpt>
      <trkpt lat="49.84272" lon="2.47132">
        <ele>100.9</ele>
        <time>2020-10-21T14:00:14Z</time>
      </trkpt>
      <trkpt lat="49.84273" lon="2.47132">
        <ele>100.9</ele>
        <time>2020-10-21T14:00:15Z</time>
      </trkpt>
      <trkpt lat="49.84274" lon="2.47131">
        <ele>100.9</ele>
        <time>2020-10-21T14:00:17Z</time>
      </trkpt>
      <trkpt lat="49.84275" lon="2.47131">
        <ele>101</ele>
        <time>2020-10-21T14:00:18Z</time>
      </trkpt>
      <trkpt lat="49.84276" lon="2.47131">
        <ele>101</ele>
        <time>2020-10-21T14:00:19Z</time>
      </trkpt>
      <trkpt lat="49.84278" lon="2.47131">
        <ele>101</ele>
        <time>2020-10-21T14:00:21Z</time>
      </trkpt>
      <trkpt lat="49.84279" lon="2.47132">
        <ele>101</ele>
        <time>2020-10-21T14:00:23Z</time>
      </trkpt>
      <trkpt lat="49.8428" lon="2.47134">
        <ele>101</ele>
        <time>2020-10-21T14:00:24Z</time>
      </trkpt>
      <trkpt lat="49.84281" lon="2.47135">
        <ele>101</ele>
        <time>2020-10-21T14:00:25Z</time>
      </trkpt>
      <trkpt lat="49.84282" lon="2.47136">
        <ele>101.1</ele>
        <time>2020-10-21T14:00:26Z</time>
      </trkpt>
      <trkpt lat="49.84282" lon="2.47137">
        <ele>101.1</ele>
        <time>2020-10-21T14:00:27Z</time>
      </trkpt>
      <trkpt lat="49.84283" lon="2.4714">
        <ele>101.1</ele>
        <time>2020-10-21T14:00:29Z</time>
      </trkpt>
      <trkpt lat="49.84283" lon="2.47142">
        <ele>101.1</ele>
        <time>2020-10-21T14:00:30Z</time>
      </trkpt>
      <trkpt lat="49.84282" lon="2.47145">
        <ele>101.2</ele>
        <time>2020-10-21T14:00:31Z</time>
      </trkpt>
      <trkpt lat="49.84283" lon="2.47147">
        <ele>101.2</ele>
        <time>2020-10-21T14:00:33Z</time>
      </trkpt>
      <trkpt lat="49.84283" lon="2.47149">
        <ele>101.3</ele>
        <time>2020-10-21T14:00:34Z</time>
      </trkpt>
      <trkpt lat="49.84283" lon="2.4715">
        <ele>101.3</ele>
        <time>2020-10-21T14:00:35Z</time>
      </trkpt>
      <trkpt lat="49.84283" lon="2.47152">
        <ele>101.4</ele>
        <time>2020-10-21T14:00:36Z</time>
      </trkpt>
      <trkpt lat="49.84283" lon="2.47154">
        <ele>101.4</ele>
        <time>2020-10-21T14:00:37Z</time>
      </trkpt>
      <trkpt lat="49.84283" lon="2.47156">
        <ele>101.5</ele>
        <time>2020-10-21T14:00:38Z</time>
      </trkpt>
      <trkpt lat="49.84284" lon="2.47158">
        <ele>101.6</ele>
        <time>2020-10-21T14:00:40Z</time>
      </trkpt>
      <trkpt lat="49.84284" lon="2.4716">
        <ele>101.6</ele>
        <time>2020-10-21T14:00:41Z</time>
      </trkpt>
      <trkpt lat="49.84285" lon="2.47162">
        <ele>101.7</ele>
        <time>2020-10-21T14:00:42Z</time>
      </trkpt>
      <trkpt lat="49.84285" lon="2.47164">
        <ele>101.7</ele>
        <time>2020-10-21T14:00:43Z</time>
      </trkpt>
      <trkpt lat="49.84285" lon="2.47166">
        <ele>101.8</ele>
        <time>2020-10-21T14:00:44Z</time>
      </trkpt>
      <trkpt lat="49.84286" lon="2.47168">
        <ele>101.8</ele>
        <time>2020-10-21T14:00:45Z</time>
      </trkpt>
      <trkpt lat="49.84287" lon="2.47171">
        <ele>101.9</ele>
        <time>2020-10-21T14:00:47Z</time>
      </trkpt>
      <trkpt lat="49.84287" lon="2.47173">
        <ele>101.9</ele>
        <time>2020-10-21T14:00:48Z</time>
      </trkpt>
      <trkpt lat="49.84287" lon="2.47174">
        <ele>101.9</ele>
        <time>2020-10-21T14:00:49Z</time>
      </trkpt>
      <trkpt lat="49.84287" lon="2.47175">
        <ele>102</ele>
        <time>2020-10-21T14:00:50Z</time>
      </trkpt>
      <trkpt lat="49.84288" lon="2.47177">
        <ele>102</ele>
        <time>2020-10-21T14:00:51Z</time>
      </trkpt>
      <trkpt lat="49.84288" lon="2.47179">
        <ele>102</ele>
        <time>2020-10-21T14:00:52Z</time>
      </trkpt>
      <trkpt lat="49.84288" lon="2.47181">
        <ele>102</ele>
        <time>2020-10-21T14:00:53Z</time>
      </trkpt>
      <trkpt lat="49.84288" lon="2.47184">
        <ele>102</ele>
        <time>2020-10-21T14:00:55Z</time>
      </trkpt>
      <trkpt lat="49.84289" lon="2.47185">
        <ele>102</ele>
        <time>2020-10-21T14:00:56Z</time>
      </trkpt>
      <trkpt lat="49.84289" lon="2.47187">
        <ele>102</ele>
        <time>2020-10-21T14:00:57Z</time>
      </trkpt>
      <trkpt lat="49.84289" lon="2.47189">
        <ele>102</ele>
        <time>2020-10-21T14:00:58Z</time>
      </trkpt>
      <trkpt lat="49.8429" lon="2.47192">
        <ele>102</ele>
        <time>2020-10-21T14:00:59Z</time>
      </trkpt>
      <trkpt lat="49.8429" lon="2.47193">
        <ele>102</ele>
        <time>2020-10-21T14:01:00Z</time>
      </trkpt>
      <trkpt lat="49.8429" lon="2.47194">
        <ele>102</ele>
        <time>2020-10-21T14:01:01Z</time>
      </trkpt>
      <trkpt lat="49.84291" lon="2.47197">
        <ele>102</ele>
        <time>2020-10-21T14:01:02Z</time>
      </trkpt>
      <trkpt lat="49.84291" lon="2.47199">
        <ele>102</ele>
        <time>2020-10-21T14:01:04Z</time>
      </trkpt>
      <trkpt lat="49.84291" lon="2.472">
        <ele>102</ele>
        <time>2020-10-21T14:01:05Z</time>
      </trkpt>
      <trkpt lat="49.84292" lon="2.47202">
        <ele>102</ele>
        <time>2020-10-21T14:01:06Z</time>
      </trkpt>
      <trkpt lat="49.84293" lon="2.47204">
        <ele>102</ele>
        <time>2020-10-21T14:01:07Z</time>
      </trkpt>
      <trkpt lat="49.84294" lon="2.47206">
        <ele>102</ele>
        <time>2020-10-21T14:01:08Z</time>
      </trkpt>
      <trkpt lat="49.84294" lon="2.47208">
        <ele>102</ele>
        <time>2020-10-21T14:01:09Z</time>
      </trkpt>
      <trkpt lat="49.84294" lon="2.47209">
        <ele>102</ele>
        <time>2020-10-21T14:01:10Z</time>
      </trkpt>
      <trkpt lat="49.84295" lon="2.47212">
        <ele>102.1</ele>
        <time>2020-10-21T14:01:11Z</time>
      </trkpt>
      <trkpt lat="49.84295" lon="2.47213">
        <ele>102.1</ele>
        <time>2020-10-21T14:01:13Z</time>
      </trkpt>
      <trkpt lat="49.84296" lon="2.47214">
        <ele>102.1</ele>
        <time>2020-10-21T14:01:14Z</time>
      </trkpt>
      <trkpt lat="49.84296" lon="2.47216">
        <ele>102.1</ele>
        <time>2020-10-21T14:01:15Z</time>
      </trkpt>
      <trkpt lat="49.84296" lon="2.47217">
        <ele>102.2</ele>
        <time>2020-10-21T14:01:16Z</time>
      </trkpt>
      <trkpt lat="49.84297" lon="2.47219">
        <ele>102.2</ele>
        <time>2020-10-21T14:01:17Z</time>
      </trkpt>
      <trkpt lat="49.84297" lon="2.4722">
        <ele>102.2</ele>
        <time>2020-10-21T14:01:18Z</time>
      </trkpt>
      <trkpt lat="49.84298" lon="2.47224">
        <ele>102.2</ele>
        <time>2020-10-21T14:01:19Z</time>
      </trkpt>
      <trkpt lat="49.84298" lon="2.47224">
        <ele>102.3</ele>
        <time>2020-10-21T14:01:21Z</time>
      </trkpt>
      <trkpt lat="49.84298" lon="2.47226">
        <ele>102.3</ele>
        <time>2020-10-21T14:01:22Z</time>
      </trkpt>
      <trkpt lat="49.84299" lon="2.47228">
        <ele>102.3</ele>
        <time>2020-10-21T14:01:23Z</time>
      </trkpt>
      <trkpt lat="49.84299" lon="2.47231">
        <ele>102.3</ele>
        <time>2020-10-21T14:01:24Z</time>
      </trkpt>
      <trkpt lat="49.84299" lon="2.47232">
        <ele>102.3</ele>
        <time>2020-10-21T14:01:25Z</time>
      </trkpt>
      <trkpt lat="49.84299" lon="2.47234">
        <ele>102.3</ele>
        <time>2020-10-21T14:01:26Z</time>
      </trkpt>
      <trkpt lat="49.843" lon="2.47236">
        <ele>102.3</ele>
        <time>2020-10-21T14:01:27Z</time>
      </trkpt>
      <trkpt lat="49.843" lon="2.47238">
        <ele>102.3</ele>
        <time>2020-10-21T14:01:28Z</time>
      </trkpt>
      <trkpt lat="49.84301" lon="2.4724">
        <ele>102.3</ele>
        <time>2020-10-21T14:01:30Z</time>
      </trkpt>
      <trkpt lat="49.84301" lon="2.47242">
        <ele>102.3</ele>
        <time>2020-10-21T14:01:31Z</time>
      </trkpt>
      <trkpt lat="49.84301" lon="2.47243">
        <ele>102.3</ele>
        <time>2020-10-21T14:01:32Z</time>
      </trkpt>
      <trkpt lat="49.84302" lon="2.47245">
        <ele>102.3</ele>
        <time>2020-10-21T14:01:33Z</time>
      </trkpt>
      <trkpt lat="49.84302" lon="2.47248">
        <ele>102.2</ele>
        <time>2020-10-21T14:01:34Z</time>
      </trkpt>
      <trkpt lat="49.84302" lon="2.47249">
        <ele>102.2</ele>
        <time>2020-10-21T14:01:35Z</time>
      </trkpt>
      <trkpt lat="49.84302" lon="2.47251">
        <ele>102.2</ele>
        <time>2020-10-21T14:01:36Z</time>
      </trkpt>
      <trkpt lat="49.84302" lon="2.47254">
        <ele>102.2</ele>
        <time>2020-10-21T14:01:37Z</time>
      </trkpt>
      <trkpt lat="49.84303" lon="2.47255">
        <ele>102.1</ele>
        <time>2020-10-21T14:01:39Z</time>
      </trkpt>
      <trkpt lat="49.84303" lon="2.47257">
        <ele>102.1</ele>
        <time>2020-10-21T14:01:40Z</time>
      </trkpt>
      <trkpt lat="49.84303" lon="2.47258">
        <ele>102.1</ele>
        <time>2020-10-21T14:01:41Z</time>
      </trkpt>
      <trkpt lat="49.84304" lon="2.4726">
        <ele>102.1</ele>
        <time>2020-10-21T14:01:42Z</time>
      </trkpt>
      <trkpt lat="49.84304" lon="2.47262">
        <ele>102.1</ele>
        <time>2020-10-21T14:01:43Z</time>
      </trkpt>
      <trkpt lat="49.84304" lon="2.47264">
        <ele>102</ele>
        <time>2020-10-21T14:01:44Z</time>
      </trkpt>
      <trkpt lat="49.84304" lon="2.47266">
        <ele>102</ele>
        <time>2020-10-21T14:01:45Z</time>
      </trkpt>
      <trkpt lat="49.84305" lon="2.47269">
        <ele>102</ele>
        <time>2020-10-21T14:01:46Z</time>
      </trkpt>
      <trkpt lat="49.84305" lon="2.4727">
        <ele>102</ele>
        <time>2020-10-21T14:01:48Z</time>
      </trkpt>
      <trkpt lat="49.84305" lon="2.47272">
        <ele>101.9</ele>
        <time>2020-10-21T14:01:49Z</time>
      </trkpt>
      <trkpt lat="49.84306" lon="2.47274">
        <ele>101.9</ele>
        <time>2020-10-21T14:01:50Z</time>
      </trkpt>
      <trkpt lat="49.84307" lon="2.47275">
        <ele>101.9</ele>
        <time>2020-10-21T14:01:51Z</time>
      </trkpt>
      <trkpt lat="49.84308" lon="2.47276">
        <ele>101.9</ele>
        <time>2020-10-21T14:01:52Z</time>
      </trkpt>
      <trkpt lat="49.84309" lon="2.47277">
        <ele>101.9</ele>
        <time>2020-10-21T14:01:53Z</time>
      </trkpt>
      <trkpt lat="49.8431" lon="2.47278">
        <ele>101.9</ele>
        <time>2020-10-21T14:01:54Z</time>
      </trkpt>
      <trkpt lat="49.84311" lon="2.47279">
        <ele>101.9</ele>
        <time>2020-10-21T14:01:55Z</time>
      </trkpt>
      <trkpt lat="49.84312" lon="2.4728">
        <ele>101.9</ele>
        <time>2020-10-21T14:01:56Z</time>
      </trkpt>
      <trkpt lat="49.84314" lon="2.4728">
        <ele>101.9</ele>
        <time>2020-10-21T14:01:58Z</time>
      </trkpt>
      <trkpt lat="49.84315" lon="2.4728">
        <ele>101.9</ele>
        <time>2020-10-21T14:01:59Z</time>
      </trkpt>
      <trkpt lat="49.84317" lon="2.47281">
        <ele>101.9</ele>
        <time>2020-10-21T14:02:00Z</time>
      </trkpt>
      <trkpt lat="49.84318" lon="2.4728">
        <ele>101.9</ele>
        <time>2020-10-21T14:02:01Z</time>
      </trkpt>
      <trkpt lat="49.84319" lon="2.4728">
        <ele>101.9</ele>
        <time>2020-10-21T14:02:02Z</time>
      </trkpt>
      <trkpt lat="49.84321" lon="2.4728">
        <ele>102</ele>
        <time>2020-10-21T14:02:04Z</time>
      </trkpt>
      <trkpt lat="49.84322" lon="2.4728">
        <ele>102</ele>
        <time>2020-10-21T14:02:05Z</time>
      </trkpt>
      <trkpt lat="49.84324" lon="2.4728">
        <ele>102.1</ele>
        <time>2020-10-21T14:02:06Z</time>
      </trkpt>
      <trkpt lat="49.84325" lon="2.47279">
        <ele>102.1</ele>
        <time>2020-10-21T14:02:07Z</time>
      </trkpt>
      <trkpt lat="49.84326" lon="2.47279">
        <ele>102.1</ele>
        <time>2020-10-21T14:02:08Z</time>
      </trkpt>
      <trkpt lat="49.84328" lon="2.47277">
        <ele>102.2</ele>
        <time>2020-10-21T14:02:10Z</time>
      </trkpt>
      <trkpt lat="49.84329" lon="2.47276">
        <ele>102.3</ele>
        <time>2020-10-21T14:02:11Z</time>
      </trkpt>
      <trkpt lat="49.8433" lon="2.47275">
        <ele>102.3</ele>
        <time>2020-10-21T14:02:12Z</time>
      </trkpt>
      <trkpt lat="49.84331" lon="2.47274">
        <ele>102.4</ele>
        <time>2020-10-21T14:02:14Z</time>
      </trkpt>
      <trkpt lat="49.84332" lon="2.47272">
        <ele>102.4</ele>
        <time>2020-10-21T14:02:15Z</time>
      </trkpt>
      <trkpt lat="49.84333" lon="2.47271">
        <ele>102.5</ele>
        <time>2020-10-21T14:02:16Z</time>
      </trkpt>
      <trkpt lat="49.84334" lon="2.4727">
        <ele>102.5</ele>
        <time>2020-10-21T14:02:17Z</time>
      </trkpt>
      <trkpt lat="49.84335" lon="2.47269">
        <ele>102.5</ele>
        <time>2020-10-21T14:02:18Z</time>
      </trkpt>
      <trkpt lat="49.84335" lon="2.47269">
        <ele>102.5</ele>
        <time>2020-10-21T14:02:19Z</time>
      </trkpt>
      <trkpt lat="49.84336" lon="2.47268">
        <ele>102.6</ele>
        <time>2020-10-21T14:02:20Z</time>
      </trkpt>
      <trkpt lat="49.84337" lon="2.47268">
        <ele>102.6</ele>
        <time>2020-10-21T14:02:21Z</time>
      </trkpt>
      <trkpt lat="49.84338" lon="2.47268">
        <ele>102.6</ele>
        <time>2020-10-21T14:02:22Z</time>
      </trkpt>
      <trkpt lat="49.84339" lon="2.47267">
        <ele>102.6</ele>
        <time>2020-10-21T14:02:24Z</time>
      </trkpt>
      <trkpt lat="49.84341" lon="2.47266">
        <ele>102.7</ele>
        <time>2020-10-21T14:02:25Z</time>
      </trkpt>
      <trkpt lat="49.84342" lon="2.47266">
        <ele>102.7</ele>
        <time>2020-10-21T14:02:26Z</time>
      </trkpt>
      <trkpt lat="49.84343" lon="2.47266">
        <ele>102.7</ele>
        <time>2020-10-21T14:02:27Z</time>
      </trkpt>
      <trkpt lat="49.84344" lon="2.47265">
        <ele>102.7</ele>
        <time>2020-10-21T14:02:28Z</time>
      </trkpt>
      <trkpt lat="49.84345" lon="2.47265">
        <ele>102.7</ele>
        <time>2020-10-21T14:02:29Z</time>
      </trkpt>
      <trkpt lat="49.84346" lon="2.47265">
        <ele>102.7</ele>
        <time>2020-10-21T14:02:30Z</time>
      </trkpt>
      <trkpt lat="49.84347" lon="2.47265">
        <ele>102.7</ele>
        <time>2020-10-21T14:02:31Z</time>
      </trkpt>
      <trkpt lat="49.84348" lon="2.47265">
        <ele>102.7</ele>
        <time>2020-10-21T14:02:32Z</time>
      </trkpt>
      <trkpt lat="49.84349" lon="2.47265">
        <ele>102.7</ele>
        <time>2020-10-21T14:02:34Z</time>
      </trkpt>
      <trkpt lat="49.84351" lon="2.47264">
        <ele>102.7</ele>
        <time>2020-10-21T14:02:35Z</time>
      </trkpt>
      <trkpt lat="49.84352" lon="2.47264">
        <ele>102.7</ele>
        <time>2020-10-21T14:02:36Z</time>
      </trkpt>
      <trkpt lat="49.84353" lon="2.47264">
        <ele>102.8</ele>
        <time>2020-10-21T14:02:37Z</time>
      </trkpt>
      <trkpt lat="49.84354" lon="2.47264">
        <ele>102.8</ele>
        <time>2020-10-21T14:02:38Z</time>
      </trkpt>
      <trkpt lat="49.84355" lon="2.47264">
        <ele>102.8</ele>
        <time>2020-10-21T14:02:39Z</time>
      </trkpt>
      <trkpt lat="49.84357" lon="2.47263">
        <ele>102.8</ele>
        <time>2020-10-21T14:02:40Z</time>
      </trkpt>
      <trkpt lat="49.84357" lon="2.47264">
        <ele>102.8</ele>
        <time>2020-10-21T14:02:41Z</time>
      </trkpt>
      <trkpt lat="49.84359" lon="2.47264">
        <ele>102.8</ele>
        <time>2020-10-21T14:02:43Z</time>
      </trkpt>
      <trkpt lat="49.8436" lon="2.47264">
        <ele>102.8</ele>
        <time>2020-10-21T14:02:44Z</time>
      </trkpt>
      <trkpt lat="49.84362" lon="2.47263">
        <ele>102.8</ele>
        <time>2020-10-21T14:02:45Z</time>
      </trkpt>
      <trkpt lat="49.84363" lon="2.47263">
        <ele>102.8</ele>
        <time>2020-10-21T14:02:46Z</time>
      </trkpt>
      <trkpt lat="49.84364" lon="2.47263">
        <ele>102.8</ele>
        <time>2020-10-21T14:02:47Z</time>
      </trkpt>
      <trkpt lat="49.84365" lon="2.47263">
        <ele>102.8</ele>
        <time>2020-10-21T14:02:49Z</time>
      </trkpt>
      <trkpt lat="49.84367" lon="2.47263">
        <ele>102.8</ele>
        <time>2020-10-21T14:02:50Z</time>
      </trkpt>
      <trkpt lat="49.84368" lon="2.47263">
        <ele>102.8</ele>
        <time>2020-10-21T14:02:51Z</time>
      </trkpt>
      <trkpt lat="49.84369" lon="2.47263">
        <ele>102.8</ele>
        <time>2020-10-21T14:02:52Z</time>
      </trkpt>
      <trkpt lat="49.8437" lon="2.47263">
        <ele>102.8</ele>
        <time>2020-10-21T14:02:53Z</time>
      </trkpt>
      <trkpt lat="49.84372" lon="2.47263">
        <ele>102.8</ele>
        <time>2020-10-21T14:02:55Z</time>
      </trkpt>
      <trkpt lat="49.84373" lon="2.47263">
        <ele>102.9</ele>
        <time>2020-10-21T14:02:56Z</time>
      </trkpt>
      <trkpt lat="49.84374" lon="2.47263">
        <ele>102.9</ele>
        <time>2020-10-21T14:02:57Z</time>
      </trkpt>
      <trkpt lat="49.84375" lon="2.47262">
        <ele>102.9</ele>
        <time>2020-10-21T14:02:58Z</time>
      </trkpt>
      <trkpt lat="49.84377" lon="2.47261">
        <ele>102.9</ele>
        <time>2020-10-21T14:03:00Z</time>
      </trkpt>
      <trkpt lat="49.84378" lon="2.47261">
        <ele>103</ele>
        <time>2020-10-21T14:03:01Z</time>
      </trkpt>
      <trkpt lat="49.8438" lon="2.4726">
        <ele>103</ele>
        <time>2020-10-21T14:03:02Z</time>
      </trkpt>
      <trkpt lat="49.84381" lon="2.47259">
        <ele>103</ele>
        <time>2020-10-21T14:03:03Z</time>
      </trkpt>
      <trkpt lat="49.84383" lon="2.47259">
        <ele>103</ele>
        <time>2020-10-21T14:03:04Z</time>
      </trkpt>
      <trkpt lat="49.84384" lon="2.47258">
        <ele>103.1</ele>
        <time>2020-10-21T14:03:05Z</time>
      </trkpt>
      <trkpt lat="49.84386" lon="2.47257">
        <ele>103.1</ele>
        <time>2020-10-21T14:03:07Z</time>
      </trkpt>
      <trkpt lat="49.84387" lon="2.47257">
        <ele>103.1</ele>
        <time>2020-10-21T14:03:08Z</time>
      </trkpt>
      <trkpt lat="49.84388" lon="2.47257">
        <ele>103.1</ele>
        <time>2020-10-21T14:03:09Z</time>
      </trkpt>
      <trkpt lat="49.84389" lon="2.47257">
        <ele>103.2</ele>
        <time>2020-10-21T14:03:10Z</time>
      </trkpt>
      <trkpt lat="49.84391" lon="2.47257">
        <ele>103.2</ele>
        <time>2020-10-21T14:03:11Z</time>
      </trkpt>
      <trkpt lat="49.84393" lon="2.47257">
        <ele>103.2</ele>
        <time>2020-10-21T14:03:12Z</time>
      </trkpt>
      <trkpt lat="49.84394" lon="2.47256">
        <ele>103.3</ele>
        <time>2020-10-21T14:03:13Z</time>
      </trkpt>
      <trkpt lat="49.84395" lon="2.47256">
        <ele>103.3</ele>
        <time>2020-10-21T14:03:14Z</time>
      </trkpt>
      <trkpt lat="49.84397" lon="2.47256">
        <ele>103.3</ele>
        <time>2020-10-21T14:03:15Z</time>
      </trkpt>
      <trkpt lat="49.84398" lon="2.47255">
        <ele>103.4</ele>
        <time>2020-10-21T14:03:17Z</time>
      </trkpt>
      <trkpt lat="49.844" lon="2.47254">
        <ele>103.4</ele>
        <time>2020-10-21T14:03:18Z</time>
      </trkpt>
      <trkpt lat="49.84401" lon="2.47254">
        <ele>103.4</ele>
        <time>2020-10-21T14:03:19Z</time>
      </trkpt>
      <trkpt lat="49.84403" lon="2.47254">
        <ele>103.5</ele>
        <time>2020-10-21T14:03:20Z</time>
      </trkpt>
      <trkpt lat="49.84404" lon="2.47253">
        <ele>103.5</ele>
        <time>2020-10-21T14:03:21Z</time>
      </trkpt>
      <trkpt lat="49.84406" lon="2.47253">
        <ele>103.6</ele>
        <time>2020-10-21T14:03:22Z</time>
      </trkpt>
      <trkpt lat="49.84407" lon="2.47253">
        <ele>103.6</ele>
        <time>2020-10-21T14:03:24Z</time>
      </trkpt>
      <trkpt lat="49.84408" lon="2.47253">
        <ele>103.6</ele>
        <time>2020-10-21T14:03:25Z</time>
      </trkpt>
      <trkpt lat="49.84409" lon="2.47252">
        <ele>103.6</ele>
        <time>2020-10-21T14:03:26Z</time>
      </trkpt>
      <trkpt lat="49.84411" lon="2.47252">
        <ele>103.7</ele>
        <time>2020-10-21T14:03:27Z</time>
      </trkpt>
      <trkpt lat="49.84412" lon="2.47252">
        <ele>103.7</ele>
        <time>2020-10-21T14:03:28Z</time>
      </trkpt>
      <trkpt lat="49.84413" lon="2.47251">
        <ele>103.7</ele>
        <time>2020-10-21T14:03:29Z</time>
      </trkpt>
      <trkpt lat="49.84415" lon="2.47251">
        <ele>103.7</ele>
        <time>2020-10-21T14:03:30Z</time>
      </trkpt>
      <trkpt lat="49.84416" lon="2.47251">
        <ele>103.7</ele>
        <time>2020-10-21T14:03:31Z</time>
      </trkpt>
      <trkpt lat="49.84417" lon="2.4725">
        <ele>103.7</ele>
        <time>2020-10-21T14:03:32Z</time>
      </trkpt>
      <trkpt lat="49.84418" lon="2.4725">
        <ele>103.8</ele>
        <time>2020-10-21T14:03:34Z</time>
      </trkpt>
      <trkpt lat="49.84419" lon="2.4725">
        <ele>103.8</ele>
        <time>2020-10-21T14:03:35Z</time>
      </trkpt>
      <trkpt lat="49.84421" lon="2.47249">
        <ele>103.8</ele>
        <time>2020-10-21T14:03:36Z</time>
      </trkpt>
      <trkpt lat="49.84422" lon="2.47249">
        <ele>103.8</ele>
        <time>2020-10-21T14:03:37Z</time>
      </trkpt>
      <trkpt lat="49.84423" lon="2.47249">
        <ele>103.8</ele>
        <time>2020-10-21T14:03:38Z</time>
      </trkpt>
      <trkpt lat="49.84425" lon="2.47248">
        <ele>103.8</ele>
        <time>2020-10-21T14:03:39Z</time>
      </trkpt>
      <trkpt lat="49.84427" lon="2.47248">
        <ele>103.8</ele>
        <time>2020-10-21T14:03:40Z</time>
      </trkpt>
      <trkpt lat="49.84428" lon="2.47248">
        <ele>103.8</ele>
        <time>2020-10-21T14:03:42Z</time>
      </trkpt>
      <trkpt lat="49.84429" lon="2.47248">
        <ele>103.8</ele>
        <time>2020-10-21T14:03:43Z</time>
      </trkpt>
      <trkpt lat="49.8443" lon="2.47247">
        <ele>103.9</ele>
        <time>2020-10-21T14:03:44Z</time>
      </trkpt>
      <trkpt lat="49.84431" lon="2.47247">
        <ele>103.9</ele>
        <time>2020-10-21T14:03:45Z</time>
      </trkpt>
      <trkpt lat="49.84433" lon="2.47246">
        <ele>103.9</ele>
        <time>2020-10-21T14:03:46Z</time>
      </trkpt>
      <trkpt lat="49.84434" lon="2.47246">
        <ele>103.9</ele>
        <time>2020-10-21T14:03:48Z</time>
      </trkpt>
      <trkpt lat="49.84436" lon="2.47246">
        <ele>103.9</ele>
        <time>2020-10-21T14:03:49Z</time>
      </trkpt>
      <trkpt lat="49.84438" lon="2.47246">
        <ele>103.9</ele>
        <time>2020-10-21T14:03:50Z</time>
      </trkpt>
      <trkpt lat="49.8444" lon="2.47246">
        <ele>104</ele>
        <time>2020-10-21T14:03:52Z</time>
      </trkpt>
      <trkpt lat="49.84441" lon="2.47246">
        <ele>104</ele>
        <time>2020-10-21T14:03:53Z</time>
      </trkpt>
      <trkpt lat="49.84442" lon="2.47246">
        <ele>104</ele>
        <time>2020-10-21T14:03:54Z</time>
      </trkpt>
      <trkpt lat="49.84443" lon="2.47245">
        <ele>104</ele>
        <time>2020-10-21T14:03:55Z</time>
      </trkpt>
      <trkpt lat="49.84444" lon="2.47245">
        <ele>104.1</ele>
        <time>2020-10-21T14:03:56Z</time>
      </trkpt>
      <trkpt lat="49.84446" lon="2.47245">
        <ele>104.1</ele>
        <time>2020-10-21T14:03:57Z</time>
      </trkpt>
      <trkpt lat="49.84448" lon="2.47244">
        <ele>104.1</ele>
        <time>2020-10-21T14:03:59Z</time>
      </trkpt>
      <trkpt lat="49.84449" lon="2.47244">
        <ele>104.1</ele>
        <time>2020-10-21T14:04:00Z</time>
      </trkpt>
      <trkpt lat="49.8445" lon="2.47243">
        <ele>104.2</ele>
        <time>2020-10-21T14:04:01Z</time>
      </trkpt>
      <trkpt lat="49.84451" lon="2.47243">
        <ele>104.2</ele>
        <time>2020-10-21T14:04:02Z</time>
      </trkpt>
      <trkpt lat="49.84452" lon="2.47242">
        <ele>104.2</ele>
        <time>2020-10-21T14:04:04Z</time>
      </trkpt>
      <trkpt lat="49.84453" lon="2.47242">
        <ele>104.2</ele>
        <time>2020-10-21T14:04:05Z</time>
      </trkpt>
      <trkpt lat="49.84455" lon="2.47242">
        <ele>104.3</ele>
        <time>2020-10-21T14:04:06Z</time>
      </trkpt>
      <trkpt lat="49.84456" lon="2.47242">
        <ele>104.3</ele>
        <time>2020-10-21T14:04:07Z</time>
      </trkpt>
      <trkpt lat="49.84457" lon="2.47242">
        <ele>104.3</ele>
        <time>2020-10-21T14:04:08Z</time>
      </trkpt>
      <trkpt lat="49.84458" lon="2.47241">
        <ele>104.3</ele>
        <time>2020-10-21T14:04:09Z</time>
      </trkpt>
      <trkpt lat="49.8446" lon="2.47241">
        <ele>104.4</ele>
        <time>2020-10-21T14:04:10Z</time>
      </trkpt>
      <trkpt lat="49.84461" lon="2.47241">
        <ele>104.4</ele>
        <time>2020-10-21T14:04:11Z</time>
      </trkpt>
      <trkpt lat="49.84462" lon="2.47241">
        <ele>104.4</ele>
        <time>2020-10-21T14:04:12Z</time>
      </trkpt>
      <trkpt lat="49.84463" lon="2.47241">
        <ele>104.4</ele>
        <time>2020-10-21T14:04:13Z</time>
      </trkpt>
      <trkpt lat="49.84464" lon="2.47241">
        <ele>104.4</ele>
        <time>2020-10-21T14:04:14Z</time>
      </trkpt>
      <trkpt lat="49.84466" lon="2.4724">
        <ele>104.4</ele>
        <time>2020-10-21T14:04:16Z</time>
      </trkpt>
      <trkpt lat="49.84467" lon="2.4724">
        <ele>104.5</ele>
        <time>2020-10-21T14:04:17Z</time>
      </trkpt>
      <trkpt lat="49.84468" lon="2.4724">
        <ele>104.5</ele>
        <time>2020-10-21T14:04:18Z</time>
      </trkpt>
      <trkpt lat="49.8447" lon="2.4724">
        <ele>104.5</ele>
        <time>2020-10-21T14:04:19Z</time>
      </trkpt>
      <trkpt lat="49.84471" lon="2.47239">
        <ele>104.5</ele>
        <time>2020-10-21T14:04:20Z</time>
      </trkpt>
      <trkpt lat="49.84473" lon="2.47239">
        <ele>104.5</ele>
        <time>2020-10-21T14:04:21Z</time>
      </trkpt>
      <trkpt lat="49.84475" lon="2.47239">
        <ele>104.5</ele>
        <time>2020-10-21T14:04:22Z</time>
      </trkpt>
      <trkpt lat="49.84476" lon="2.47239">
        <ele>104.5</ele>
        <time>2020-10-21T14:04:23Z</time>
      </trkpt>
      <trkpt lat="49.84476" lon="2.47239">
        <ele>104.5</ele>
        <time>2020-10-21T14:04:24Z</time>
      </trkpt>
      <trkpt lat="49.84479" lon="2.47238">
        <ele>104.6</ele>
        <time>2020-10-21T14:04:25Z</time>
      </trkpt>
      <trkpt lat="49.8448" lon="2.47238">
        <ele>104.6</ele>
        <time>2020-10-21T14:04:26Z</time>
      </trkpt>
      <trkpt lat="49.84481" lon="2.47238">
        <ele>104.6</ele>
        <time>2020-10-21T14:04:28Z</time>
      </trkpt>
      <trkpt lat="49.84482" lon="2.47237">
        <ele>104.6</ele>
        <time>2020-10-21T14:04:29Z</time>
      </trkpt>
      <trkpt lat="49.84483" lon="2.47237">
        <ele>104.6</ele>
        <time>2020-10-21T14:04:30Z</time>
      </trkpt>
      <trkpt lat="49.84484" lon="2.47236">
        <ele>104.6</ele>
        <time>2020-10-21T14:04:31Z</time>
      </trkpt>
      <trkpt lat="49.84485" lon="2.47236">
        <ele>104.7</ele>
        <time>2020-10-21T14:04:32Z</time>
      </trkpt>
      <trkpt lat="49.84486" lon="2.47235">
        <ele>104.7</ele>
        <time>2020-10-21T14:04:33Z</time>
      </trkpt>
      <trkpt lat="49.84487" lon="2.47234">
        <ele>104.7</ele>
        <time>2020-10-21T14:04:35Z</time>
      </trkpt>
      <trkpt lat="49.84489" lon="2.47233">
        <ele>104.8</ele>
        <time>2020-10-21T14:04:36Z</time>
      </trkpt>
      <trkpt lat="49.8449" lon="2.47233">
        <ele>104.8</ele>
        <time>2020-10-21T14:04:37Z</time>
      </trkpt>
      <trkpt lat="49.84492" lon="2.47233">
        <ele>104.8</ele>
        <time>2020-10-21T14:04:38Z</time>
      </trkpt>
      <trkpt lat="49.84493" lon="2.47233">
        <ele>104.8</ele>
        <time>2020-10-21T14:04:39Z</time>
      </trkpt>
      <trkpt lat="49.84494" lon="2.47232">
        <ele>104.9</ele>
        <time>2020-10-21T14:04:41Z</time>
      </trkpt>
      <trkpt lat="49.84495" lon="2.47232">
        <ele>104.9</ele>
        <time>2020-10-21T14:04:42Z</time>
      </trkpt>
      <trkpt lat="49.84496" lon="2.47232">
        <ele>104.9</ele>
        <time>2020-10-21T14:04:43Z</time>
      </trkpt>
      <trkpt lat="49.84498" lon="2.47232">
        <ele>104.9</ele>
        <time>2020-10-21T14:04:44Z</time>
      </trkpt>
      <trkpt lat="49.84499" lon="2.47232">
        <ele>104.9</ele>
        <time>2020-10-21T14:04:45Z</time>
      </trkpt>
      <trkpt lat="49.845" lon="2.47232">
        <ele>105</ele>
        <time>2020-10-21T14:04:46Z</time>
      </trkpt>
      <trkpt lat="49.84501" lon="2.47232">
        <ele>105</ele>
        <time>2020-10-21T14:04:48Z</time>
      </trkpt>
      <trkpt lat="49.84503" lon="2.47231">
        <ele>105</ele>
        <time>2020-10-21T14:04:49Z</time>
      </trkpt>
      <trkpt lat="49.84504" lon="2.47231">
        <ele>105</ele>
        <time>2020-10-21T14:04:50Z</time>
      </trkpt>
      <trkpt lat="49.84506" lon="2.4723">
        <ele>105</ele>
        <time>2020-10-21T14:04:51Z</time>
      </trkpt>
      <trkpt lat="49.84506" lon="2.4723">
        <ele>105</ele>
        <time>2020-10-21T14:04:52Z</time>
      </trkpt>
      <trkpt lat="49.84507" lon="2.4723">
        <ele>105</ele>
        <time>2020-10-21T14:04:53Z</time>
      </trkpt>
      <trkpt lat="49.8451" lon="2.47229">
        <ele>105</ele>
        <time>2020-10-21T14:04:54Z</time>
      </trkpt>
      <trkpt lat="49.8451" lon="2.47229">
        <ele>105</ele>
        <time>2020-10-21T14:04:55Z</time>
      </trkpt>
      <trkpt lat="49.84511" lon="2.47229">
        <ele>105</ele>
        <time>2020-10-21T14:04:56Z</time>
      </trkpt>
      <trkpt lat="49.84513" lon="2.47229">
        <ele>105</ele>
        <time>2020-10-21T14:04:58Z</time>
      </trkpt>
      <trkpt lat="49.84514" lon="2.47229">
        <ele>105</ele>
        <time>2020-10-21T14:04:59Z</time>
      </trkpt>
      <trkpt lat="49.84516" lon="2.47228">
        <ele>105</ele>
        <time>2020-10-21T14:05:00Z</time>
      </trkpt>
      <trkpt lat="49.84517" lon="2.47228">
        <ele>105</ele>
        <time>2020-10-21T14:05:01Z</time>
      </trkpt>
      <trkpt lat="49.84518" lon="2.47227">
        <ele>105</ele>
        <time>2020-10-21T14:05:02Z</time>
      </trkpt>
      <trkpt lat="49.84519" lon="2.47227">
        <ele>105</ele>
        <time>2020-10-21T14:05:03Z</time>
      </trkpt>
      <trkpt lat="49.8452" lon="2.47227">
        <ele>105</ele>
        <time>2020-10-21T14:05:04Z</time>
      </trkpt>
      <trkpt lat="49.84523" lon="2.47226">
        <ele>104.9</ele>
        <time>2020-10-21T14:05:06Z</time>
      </trkpt>
      <trkpt lat="49.84524" lon="2.47226">
        <ele>104.9</ele>
        <time>2020-10-21T14:05:07Z</time>
      </trkpt>
      <trkpt lat="49.84526" lon="2.47226">
        <ele>104.9</ele>
        <time>2020-10-21T14:05:08Z</time>
      </trkpt>
      <trkpt lat="49.84527" lon="2.47226">
        <ele>104.9</ele>
        <time>2020-10-21T14:05:09Z</time>
      </trkpt>
      <trkpt lat="49.84528" lon="2.47225">
        <ele>104.9</ele>
        <time>2020-10-21T14:05:10Z</time>
      </trkpt>
      <trkpt lat="49.84529" lon="2.47226">
        <ele>104.9</ele>
        <time>2020-10-21T14:05:11Z</time>
      </trkpt>
      <trkpt lat="49.8453" lon="2.47226">
        <ele>104.9</ele>
        <time>2020-10-21T14:05:12Z</time>
      </trkpt>
      <trkpt lat="49.84532" lon="2.47226">
        <ele>104.9</ele>
        <time>2020-10-21T14:05:14Z</time>
      </trkpt>
      <trkpt lat="49.84534" lon="2.47226">
        <ele>104.9</ele>
        <time>2020-10-21T14:05:15Z</time>
      </trkpt>
      <trkpt lat="49.84534" lon="2.47226">
        <ele>104.9</ele>
        <time>2020-10-21T14:05:16Z</time>
      </trkpt>
      <trkpt lat="49.84535" lon="2.47225">
        <ele>104.9</ele>
        <time>2020-10-21T14:05:17Z</time>
      </trkpt>
      <trkpt lat="49.84537" lon="2.47225">
        <ele>104.9</ele>
        <time>2020-10-21T14:05:18Z</time>
      </trkpt>
      <trkpt lat="49.84538" lon="2.47225">
        <ele>104.9</ele>
        <time>2020-10-21T14:05:19Z</time>
      </trkpt>
      <trkpt lat="49.84539" lon="2.47225">
        <ele>104.9</ele>
        <time>2020-10-21T14:05:21Z</time>
      </trkpt>
      <trkpt lat="49.8454" lon="2.47225">
        <ele>104.9</ele>
        <time>2020-10-21T14:05:22Z</time>
      </trkpt>
      <trkpt lat="49.84542" lon="2.47224">
        <ele>104.8</ele>
        <time>2020-10-21T14:05:23Z</time>
      </trkpt>
      <trkpt lat="49.84542" lon="2.47224">
        <ele>104.8</ele>
        <time>2020-10-21T14:05:24Z</time>
      </trkpt>
      <trkpt lat="49.84544" lon="2.47223">
        <ele>104.8</ele>
        <time>2020-10-21T14:05:25Z</time>
      </trkpt>
      <trkpt lat="49.84545" lon="2.47223">
        <ele>104.8</ele>
        <time>2020-10-21T14:05:26Z</time>
      </trkpt>
      <trkpt lat="49.84547" lon="2.47222">
        <ele>104.8</ele>
        <time>2020-10-21T14:05:27Z</time>
      </trkpt>
      <trkpt lat="49.84548" lon="2.47222">
        <ele>104.7</ele>
        <time>2020-10-21T14:05:28Z</time>
      </trkpt>
      <trkpt lat="49.84549" lon="2.47222">
        <ele>104.7</ele>
        <time>2020-10-21T14:05:30Z</time>
      </trkpt>
      <trkpt lat="49.8455" lon="2.47221">
        <ele>104.7</ele>
        <time>2020-10-21T14:05:31Z</time>
      </trkpt>
      <trkpt lat="49.84551" lon="2.47221">
        <ele>104.7</ele>
        <time>2020-10-21T14:05:32Z</time>
      </trkpt>
      <trkpt lat="49.84552" lon="2.47221">
        <ele>104.7</ele>
        <time>2020-10-21T14:05:33Z</time>
      </trkpt>
      <trkpt lat="49.84554" lon="2.47221">
        <ele>104.7</ele>
        <time>2020-10-21T14:05:34Z</time>
      </trkpt>
      <trkpt lat="49.84555" lon="2.47221">
        <ele>104.6</ele>
        <time>2020-10-21T14:05:35Z</time>
      </trkpt>
      <trkpt lat="49.84557" lon="2.4722">
        <ele>104.6</ele>
        <time>2020-10-21T14:05:36Z</time>
      </trkpt>
      <trkpt lat="49.84558" lon="2.4722">
        <ele>104.6</ele>
        <time>2020-10-21T14:05:37Z</time>
      </trkpt>
      <trkpt lat="49.84559" lon="2.4722">
        <ele>104.6</ele>
        <time>2020-10-21T14:05:38Z</time>
      </trkpt>
      <trkpt lat="49.84561" lon="2.47219">
        <ele>104.6</ele>
        <time>2020-10-21T14:05:40Z</time>
      </trkpt>
      <trkpt lat="49.84562" lon="2.47219">
        <ele>104.6</ele>
        <time>2020-10-21T14:05:41Z</time>
      </trkpt>
      <trkpt lat="49.84564" lon="2.47218">
        <ele>104.6</ele>
        <time>2020-10-21T14:05:42Z</time>
      </trkpt>
      <trkpt lat="49.84566" lon="2.47217">
        <ele>104.6</ele>
        <time>2020-10-21T14:05:43Z</time>
      </trkpt>
      <trkpt lat="49.84567" lon="2.47216">
        <ele>104.6</ele>
        <time>2020-10-21T14:05:44Z</time>
      </trkpt>
      <trkpt lat="49.84567" lon="2.47216">
        <ele>104.6</ele>
        <time>2020-10-21T14:05:45Z</time>
      </trkpt>
      <trkpt lat="49.84569" lon="2.47216">
        <ele>104.6</ele>
        <time>2020-10-21T14:05:46Z</time>
      </trkpt>
      <trkpt lat="49.8457" lon="2.47215">
        <ele>104.6</ele>
        <time>2020-10-21T14:05:47Z</time>
      </trkpt>
      <trkpt lat="49.84571" lon="2.47215">
        <ele>104.6</ele>
        <time>2020-10-21T14:05:48Z</time>
      </trkpt>
      <trkpt lat="49.84571" lon="2.47215">
        <ele>104.6</ele>
        <time>2020-10-21T14:05:50Z</time>
      </trkpt>
      <trkpt lat="49.84572" lon="2.47214">
        <ele>104.6</ele>
        <time>2020-10-21T14:05:51Z</time>
      </trkpt>
      <trkpt lat="49.84574" lon="2.47214">
        <ele>104.6</ele>
        <time>2020-10-21T14:05:52Z</time>
      </trkpt>
      <trkpt lat="49.84576" lon="2.47214">
        <ele>104.6</ele>
        <time>2020-10-21T14:05:53Z</time>
      </trkpt>
      <trkpt lat="49.84577" lon="2.47213">
        <ele>104.6</ele>
        <time>2020-10-21T14:05:54Z</time>
      </trkpt>
      <trkpt lat="49.84578" lon="2.47213">
        <ele>104.5</ele>
        <time>2020-10-21T14:05:55Z</time>
      </trkpt>
      <trkpt lat="49.84579" lon="2.47213">
        <ele>104.5</ele>
        <time>2020-10-21T14:05:56Z</time>
      </trkpt>
      <trkpt lat="49.8458" lon="2.47213">
        <ele>104.5</ele>
        <time>2020-10-21T14:05:57Z</time>
      </trkpt>
      <trkpt lat="49.84582" lon="2.47213">
        <ele>104.5</ele>
        <time>2020-10-21T14:05:59Z</time>
      </trkpt>
      <trkpt lat="49.84584" lon="2.47213">
        <ele>104.5</ele>
        <time>2020-10-21T14:06:00Z</time>
      </trkpt>
      <trkpt lat="49.84585" lon="2.47213">
        <ele>104.5</ele>
        <time>2020-10-21T14:06:01Z</time>
      </trkpt>
      <trkpt lat="49.84586" lon="2.47213">
        <ele>104.4</ele>
        <time>2020-10-21T14:06:02Z</time>
      </trkpt>
      <trkpt lat="49.84588" lon="2.47212">
        <ele>104.4</ele>
        <time>2020-10-21T14:06:03Z</time>
      </trkpt>
      <trkpt lat="49.84591" lon="2.47212">
        <ele>104.3</ele>
        <time>2020-10-21T14:06:05Z</time>
      </trkpt>
      <trkpt lat="49.84591" lon="2.47212">
        <ele>104.2</ele>
        <time>2020-10-21T14:06:06Z</time>
      </trkpt>
      <trkpt lat="49.84593" lon="2.47212">
        <ele>104.2</ele>
        <time>2020-10-21T14:06:07Z</time>
      </trkpt>
      <trkpt lat="49.84594" lon="2.47211">
        <ele>104.1</ele>
        <time>2020-10-21T14:06:08Z</time>
      </trkpt>
      <trkpt lat="49.84595" lon="2.47211">
        <ele>104.1</ele>
        <time>2020-10-21T14:06:10Z</time>
      </trkpt>
      <trkpt lat="49.84597" lon="2.47211">
        <ele>104</ele>
        <time>2020-10-21T14:06:11Z</time>
      </trkpt>
      <trkpt lat="49.84598" lon="2.4721">
        <ele>103.9</ele>
        <time>2020-10-21T14:06:12Z</time>
      </trkpt>
      <trkpt lat="49.84599" lon="2.4721">
        <ele>103.9</ele>
        <time>2020-10-21T14:06:13Z</time>
      </trkpt>
      <trkpt lat="49.84601" lon="2.4721">
        <ele>103.8</ele>
        <time>2020-10-21T14:06:14Z</time>
      </trkpt>
      <trkpt lat="49.84602" lon="2.4721">
        <ele>103.8</ele>
        <time>2020-10-21T14:06:15Z</time>
      </trkpt>
      <trkpt lat="49.84603" lon="2.47209">
        <ele>103.7</ele>
        <time>2020-10-21T14:06:16Z</time>
      </trkpt>
      <trkpt lat="49.84605" lon="2.47209">
        <ele>103.7</ele>
        <time>2020-10-21T14:06:17Z</time>
      </trkpt>
      <trkpt lat="49.84606" lon="2.47208">
        <ele>103.7</ele>
        <time>2020-10-21T14:06:18Z</time>
      </trkpt>
      <trkpt lat="49.84607" lon="2.47208">
        <ele>103.6</ele>
        <time>2020-10-21T14:06:19Z</time>
      </trkpt>
      <trkpt lat="49.84608" lon="2.47208">
        <ele>103.6</ele>
        <time>2020-10-21T14:06:21Z</time>
      </trkpt>
      <trkpt lat="49.84609" lon="2.47207">
        <ele>103.6</ele>
        <time>2020-10-21T14:06:22Z</time>
      </trkpt>
      <trkpt lat="49.8461" lon="2.47207">
        <ele>103.6</ele>
        <time>2020-10-21T14:06:23Z</time>
      </trkpt>
      <trkpt lat="49.84612" lon="2.47207">
        <ele>103.6</ele>
        <time>2020-10-21T14:06:24Z</time>
      </trkpt>
      <trkpt lat="49.84613" lon="2.47206">
        <ele>103.5</ele>
        <time>2020-10-21T14:06:25Z</time>
      </trkpt>
      <trkpt lat="49.84614" lon="2.47206">
        <ele>103.5</ele>
        <time>2020-10-21T14:06:26Z</time>
      </trkpt>
      <trkpt lat="49.84616" lon="2.47206">
        <ele>103.5</ele>
        <time>2020-10-21T14:06:27Z</time>
      </trkpt>
      <trkpt lat="49.84617" lon="2.47205">
        <ele>103.5</ele>
        <time>2020-10-21T14:06:28Z</time>
      </trkpt>
      <trkpt lat="49.84618" lon="2.47205">
        <ele>103.5</ele>
        <time>2020-10-21T14:06:29Z</time>
      </trkpt>
      <trkpt lat="49.8462" lon="2.47205">
        <ele>103.5</ele>
        <time>2020-10-21T14:06:31Z</time>
      </trkpt>
      <trkpt lat="49.84622" lon="2.47204">
        <ele>103.5</ele>
        <time>2020-10-21T14:06:32Z</time>
      </trkpt>
      <trkpt lat="49.84623" lon="2.47204">
        <ele>103.5</ele>
        <time>2020-10-21T14:06:33Z</time>
      </trkpt>
      <trkpt lat="49.84626" lon="2.47203">
        <ele>103.6</ele>
        <time>2020-10-21T14:06:35Z</time>
      </trkpt>
      <trkpt lat="49.84627" lon="2.47202">
        <ele>103.6</ele>
        <time>2020-10-21T14:06:36Z</time>
      </trkpt>
      <trkpt lat="49.84629" lon="2.47201">
        <ele>103.6</ele>
        <time>2020-10-21T14:06:37Z</time>
      </trkpt>
      <trkpt lat="49.8463" lon="2.47201">
        <ele>103.6</ele>
        <time>2020-10-21T14:06:38Z</time>
      </trkpt>
      <trkpt lat="49.84631" lon="2.47201">
        <ele>103.6</ele>
        <time>2020-10-21T14:06:39Z</time>
      </trkpt>
      <trkpt lat="49.84633" lon="2.472">
        <ele>103.6</ele>
        <time>2020-10-21T14:06:40Z</time>
      </trkpt>
      <trkpt lat="49.84634" lon="2.472">
        <ele>103.7</ele>
        <time>2020-10-21T14:06:42Z</time>
      </trkpt>
      <trkpt lat="49.84635" lon="2.472">
        <ele>103.7</ele>
        <time>2020-10-21T14:06:43Z</time>
      </trkpt>
      <trkpt lat="49.84636" lon="2.472">
        <ele>103.7</ele>
        <time>2020-10-21T14:06:44Z</time>
      </trkpt>
      <trkpt lat="49.84637" lon="2.47199">
        <ele>103.7</ele>
        <time>2020-10-21T14:06:45Z</time>
      </trkpt>
      <trkpt lat="49.84638" lon="2.472">
        <ele>103.7</ele>
        <time>2020-10-21T14:06:46Z</time>
      </trkpt>
      <trkpt lat="49.84639" lon="2.472">
        <ele>103.7</ele>
        <time>2020-10-21T14:06:48Z</time>
      </trkpt>
      <trkpt lat="49.84641" lon="2.472">
        <ele>103.8</ele>
        <time>2020-10-21T14:06:49Z</time>
      </trkpt>
      <trkpt lat="49.84642" lon="2.47199">
        <ele>103.8</ele>
        <time>2020-10-21T14:06:50Z</time>
      </trkpt>
      <trkpt lat="49.84644" lon="2.47199">
        <ele>103.8</ele>
        <time>2020-10-21T14:06:51Z</time>
      </trkpt>
      <trkpt lat="49.84644" lon="2.47199">
        <ele>103.8</ele>
        <time>2020-10-21T14:06:52Z</time>
      </trkpt>
      <trkpt lat="49.84646" lon="2.47199">
        <ele>103.8</ele>
        <time>2020-10-21T14:06:53Z</time>
      </trkpt>
      <trkpt lat="49.84647" lon="2.47199">
        <ele>103.8</ele>
        <time>2020-10-21T14:06:54Z</time>
      </trkpt>
      <trkpt lat="49.84649" lon="2.47199">
        <ele>103.8</ele>
        <time>2020-10-21T14:06:55Z</time>
      </trkpt>
      <trkpt lat="49.8465" lon="2.47199">
        <ele>103.8</ele>
        <time>2020-10-21T14:06:56Z</time>
      </trkpt>
      <trkpt lat="49.84652" lon="2.47198">
        <ele>103.9</ele>
        <time>2020-10-21T14:06:57Z</time>
      </trkpt>
      <trkpt lat="49.84653" lon="2.47198">
        <ele>103.9</ele>
        <time>2020-10-21T14:06:59Z</time>
      </trkpt>
      <trkpt lat="49.84653" lon="2.47198">
        <ele>103.9</ele>
        <time>2020-10-21T14:07:00Z</time>
      </trkpt>
      <trkpt lat="49.84655" lon="2.47197">
        <ele>103.9</ele>
        <time>2020-10-21T14:07:01Z</time>
      </trkpt>
      <trkpt lat="49.84656" lon="2.47197">
        <ele>103.9</ele>
        <time>2020-10-21T14:07:02Z</time>
      </trkpt>
      <trkpt lat="49.84657" lon="2.47197">
        <ele>103.9</ele>
        <time>2020-10-21T14:07:03Z</time>
      </trkpt>
      <trkpt lat="49.84658" lon="2.47196">
        <ele>103.9</ele>
        <time>2020-10-21T14:07:04Z</time>
      </trkpt>
      <trkpt lat="49.8466" lon="2.47196">
        <ele>103.9</ele>
        <time>2020-10-21T14:07:05Z</time>
      </trkpt>
      <trkpt lat="49.84661" lon="2.47196">
        <ele>103.9</ele>
        <time>2020-10-21T14:07:06Z</time>
      </trkpt>
      <trkpt lat="49.84663" lon="2.47196">
        <ele>103.9</ele>
        <time>2020-10-21T14:07:07Z</time>
      </trkpt>
      <trkpt lat="49.84664" lon="2.47195">
        <ele>103.9</ele>
        <time>2020-10-21T14:07:08Z</time>
      </trkpt>
      <trkpt lat="49.84665" lon="2.47195">
        <ele>103.9</ele>
        <time>2020-10-21T14:07:10Z</time>
      </trkpt>
      <trkpt lat="49.84667" lon="2.47195">
        <ele>103.9</ele>
        <time>2020-10-21T14:07:11Z</time>
      </trkpt>
      <trkpt lat="49.84669" lon="2.47194">
        <ele>103.9</ele>
        <time>2020-10-21T14:07:12Z</time>
      </trkpt>
      <trkpt lat="49.8467" lon="2.47194">
        <ele>103.9</ele>
        <time>2020-10-21T14:07:13Z</time>
      </trkpt>
      <trkpt lat="49.8467" lon="2.47194">
        <ele>103.9</ele>
        <time>2020-10-21T14:07:14Z</time>
      </trkpt>
      <trkpt lat="49.84672" lon="2.47193">
        <ele>103.9</ele>
        <time>2020-10-21T14:07:15Z</time>
      </trkpt>
      <trkpt lat="49.84673" lon="2.47193">
        <ele>104</ele>
        <time>2020-10-21T14:07:16Z</time>
      </trkpt>
      <trkpt lat="49.84675" lon="2.47193">
        <ele>104</ele>
        <time>2020-10-21T14:07:17Z</time>
      </trkpt>
      <trkpt lat="49.84676" lon="2.47192">
        <ele>104</ele>
        <time>2020-10-21T14:07:18Z</time>
      </trkpt>
      <trkpt lat="49.84677" lon="2.47192">
        <ele>104</ele>
        <time>2020-10-21T14:07:20Z</time>
      </trkpt>
      <trkpt lat="49.84679" lon="2.47191">
        <ele>104</ele>
        <time>2020-10-21T14:07:21Z</time>
      </trkpt>
      <trkpt lat="49.8468" lon="2.47191">
        <ele>104.1</ele>
        <time>2020-10-21T14:07:22Z</time>
      </trkpt>
      <trkpt lat="49.84682" lon="2.4719">
        <ele>104.1</ele>
        <time>2020-10-21T14:07:23Z</time>
      </trkpt>
      <trkpt lat="49.84683" lon="2.4719">
        <ele>104.1</ele>
        <time>2020-10-21T14:07:24Z</time>
      </trkpt>
      <trkpt lat="49.84685" lon="2.4719">
        <ele>104.1</ele>
        <time>2020-10-21T14:07:25Z</time>
      </trkpt>
      <trkpt lat="49.84686" lon="2.4719">
        <ele>104.1</ele>
        <time>2020-10-21T14:07:26Z</time>
      </trkpt>
      <trkpt lat="49.84687" lon="2.4719">
        <ele>104.1</ele>
        <time>2020-10-21T14:07:27Z</time>
      </trkpt>
      <trkpt lat="49.84688" lon="2.47189">
        <ele>104.2</ele>
        <time>2020-10-21T14:07:28Z</time>
      </trkpt>
      <trkpt lat="49.84689" lon="2.47189">
        <ele>104.2</ele>
        <time>2020-10-21T14:07:29Z</time>
      </trkpt>
      <trkpt lat="49.8469" lon="2.47189">
        <ele>104.2</ele>
        <time>2020-10-21T14:07:31Z</time>
      </trkpt>
      <trkpt lat="49.84692" lon="2.47189">
        <ele>104.2</ele>
        <time>2020-10-21T14:07:32Z</time>
      </trkpt>
      <trkpt lat="49.84693" lon="2.47188">
        <ele>104.2</ele>
        <time>2020-10-21T14:07:33Z</time>
      </trkpt>
      <trkpt lat="49.84694" lon="2.47188">
        <ele>104.2</ele>
        <time>2020-10-21T14:07:34Z</time>
      </trkpt>
      <trkpt lat="49.84695" lon="2.47188">
        <ele>104.2</ele>
        <time>2020-10-21T14:07:35Z</time>
      </trkpt>
      <trkpt lat="49.84696" lon="2.47188">
        <ele>104.2</ele>
        <time>2020-10-21T14:07:36Z</time>
      </trkpt>
      <trkpt lat="49.84697" lon="2.47188">
        <ele>104.2</ele>
        <time>2020-10-21T14:07:37Z</time>
      </trkpt>
      <trkpt lat="49.847" lon="2.47187">
        <ele>104.2</ele>
        <time>2020-10-21T14:07:38Z</time>
      </trkpt>
      <trkpt lat="49.84701" lon="2.47187">
        <ele>104.2</ele>
        <time>2020-10-21T14:07:39Z</time>
      </trkpt>
      <trkpt lat="49.84702" lon="2.47187">
        <ele>104.1</ele>
        <time>2020-10-21T14:07:40Z</time>
      </trkpt>
      <trkpt lat="49.84703" lon="2.47186">
        <ele>104.1</ele>
        <time>2020-10-21T14:07:42Z</time>
      </trkpt>
      <trkpt lat="49.84704" lon="2.47186">
        <ele>104.1</ele>
        <time>2020-10-21T14:07:43Z</time>
      </trkpt>
      <trkpt lat="49.84705" lon="2.47185">
        <ele>104.1</ele>
        <time>2020-10-21T14:07:44Z</time>
      </trkpt>
      <trkpt lat="49.84706" lon="2.47185">
        <ele>104</ele>
        <time>2020-10-21T14:07:45Z</time>
      </trkpt>
      <trkpt lat="49.84708" lon="2.47184">
        <ele>104</ele>
        <time>2020-10-21T14:07:46Z</time>
      </trkpt>
      <trkpt lat="49.84708" lon="2.47184">
        <ele>104</ele>
        <time>2020-10-21T14:07:47Z</time>
      </trkpt>
      <trkpt lat="49.84709" lon="2.47184">
        <ele>104</ele>
        <time>2020-10-21T14:07:48Z</time>
      </trkpt>
      <trkpt lat="49.8471" lon="2.47183">
        <ele>103.9</ele>
        <time>2020-10-21T14:07:49Z</time>
      </trkpt>
      <trkpt lat="49.84712" lon="2.47182">
        <ele>103.9</ele>
        <time>2020-10-21T14:07:50Z</time>
      </trkpt>
      <trkpt lat="49.84713" lon="2.47182">
        <ele>103.9</ele>
        <time>2020-10-21T14:07:52Z</time>
      </trkpt>
      <trkpt lat="49.84714" lon="2.47182">
        <ele>103.8</ele>
        <time>2020-10-21T14:07:53Z</time>
      </trkpt>
      <trkpt lat="49.84715" lon="2.47181">
        <ele>103.8</ele>
        <time>2020-10-21T14:07:54Z</time>
      </trkpt>
      <trkpt lat="49.84716" lon="2.47181">
        <ele>103.8</ele>
        <time>2020-10-21T14:07:55Z</time>
      </trkpt>
      <trkpt lat="49.84717" lon="2.47181">
        <ele>103.8</ele>
        <time>2020-10-21T14:07:56Z</time>
      </trkpt>
      <trkpt lat="49.84718" lon="2.4718">
        <ele>103.7</ele>
        <time>2020-10-21T14:07:57Z</time>
      </trkpt>
      <trkpt lat="49.8472" lon="2.4718">
        <ele>103.7</ele>
        <time>2020-10-21T14:07:58Z</time>
      </trkpt>
      <trkpt lat="49.84721" lon="2.4718">
        <ele>103.7</ele>
        <time>2020-10-21T14:07:59Z</time>
      </trkpt>
      <trkpt lat="49.84722" lon="2.4718">
        <ele>103.7</ele>
        <time>2020-10-21T14:08:00Z</time>
      </trkpt>
      <trkpt lat="49.84724" lon="2.4718">
        <ele>103.7</ele>
        <time>2020-10-21T14:08:02Z</time>
      </trkpt>
      <trkpt lat="49.84725" lon="2.4718">
        <ele>103.7</ele>
        <time>2020-10-21T14:08:03Z</time>
      </trkpt>
      <trkpt lat="49.84726" lon="2.4718">
        <ele>103.7</ele>
        <time>2020-10-21T14:08:04Z</time>
      </trkpt>
      <trkpt lat="49.84728" lon="2.4718">
        <ele>103.7</ele>
        <time>2020-10-21T14:08:05Z</time>
      </trkpt>
      <trkpt lat="49.84729" lon="2.4718">
        <ele>103.7</ele>
        <time>2020-10-21T14:08:06Z</time>
      </trkpt>
      <trkpt lat="49.8473" lon="2.47179">
        <ele>103.7</ele>
        <time>2020-10-21T14:08:07Z</time>
      </trkpt>
      <trkpt lat="49.84731" lon="2.47179">
        <ele>103.7</ele>
        <time>2020-10-21T14:08:08Z</time>
      </trkpt>
      <trkpt lat="49.84733" lon="2.47179">
        <ele>103.7</ele>
        <time>2020-10-21T14:08:10Z</time>
      </trkpt>
      <trkpt lat="49.84735" lon="2.47178">
        <ele>103.7</ele>
        <time>2020-10-21T14:08:11Z</time>
      </trkpt>
      <trkpt lat="49.84736" lon="2.47178">
        <ele>103.7</ele>
        <time>2020-10-21T14:08:12Z</time>
      </trkpt>
      <trkpt lat="49.84738" lon="2.47178">
        <ele>103.7</ele>
        <time>2020-10-21T14:08:13Z</time>
      </trkpt>
      <trkpt lat="49.84739" lon="2.47177">
        <ele>103.7</ele>
        <time>2020-10-21T14:08:15Z</time>
      </trkpt>
      <trkpt lat="49.8474" lon="2.47177">
        <ele>103.7</ele>
        <time>2020-10-21T14:08:16Z</time>
      </trkpt>
      <trkpt lat="49.84741" lon="2.47177">
        <ele>103.7</ele>
        <time>2020-10-21T14:08:17Z</time>
      </trkpt>
      <trkpt lat="49.84742" lon="2.47177">
        <ele>103.6</ele>
        <time>2020-10-21T14:08:18Z</time>
      </trkpt>
      <trkpt lat="49.84743" lon="2.47177">
        <ele>103.6</ele>
        <time>2020-10-21T14:08:19Z</time>
      </trkpt>
      <trkpt lat="49.84745" lon="2.47177">
        <ele>103.6</ele>
        <time>2020-10-21T14:08:20Z</time>
      </trkpt>
      <trkpt lat="49.84746" lon="2.47177">
        <ele>103.6</ele>
        <time>2020-10-21T14:08:21Z</time>
      </trkpt>
      <trkpt lat="49.84747" lon="2.47177">
        <ele>103.6</ele>
        <time>2020-10-21T14:08:22Z</time>
      </trkpt>
      <trkpt lat="49.84748" lon="2.47176">
        <ele>103.6</ele>
        <time>2020-10-21T14:08:23Z</time>
      </trkpt>
      <trkpt lat="49.84749" lon="2.47176">
        <ele>103.5</ele>
        <time>2020-10-21T14:08:24Z</time>
      </trkpt>
      <trkpt lat="49.84751" lon="2.47176">
        <ele>103.5</ele>
        <time>2020-10-21T14:08:26Z</time>
      </trkpt>
      <trkpt lat="49.84752" lon="2.47175">
        <ele>103.5</ele>
        <time>2020-10-21T14:08:27Z</time>
      </trkpt>
      <trkpt lat="49.84753" lon="2.47175">
        <ele>103.5</ele>
        <time>2020-10-21T14:08:28Z</time>
      </trkpt>
      <trkpt lat="49.84754" lon="2.47175">
        <ele>103.5</ele>
        <time>2020-10-21T14:08:29Z</time>
      </trkpt>
      <trkpt lat="49.84755" lon="2.47174">
        <ele>103.4</ele>
        <time>2020-10-21T14:08:30Z</time>
      </trkpt>
      <trkpt lat="49.84757" lon="2.47174">
        <ele>103.4</ele>
        <time>2020-10-21T14:08:31Z</time>
      </trkpt>
      <trkpt lat="49.84758" lon="2.47174">
        <ele>103.4</ele>
        <time>2020-10-21T14:08:32Z</time>
      </trkpt>
      <trkpt lat="49.84759" lon="2.47173">
        <ele>103.4</ele>
        <time>2020-10-21T14:08:33Z</time>
      </trkpt>
      <trkpt lat="49.84761" lon="2.47173">
        <ele>103.3</ele>
        <time>2020-10-21T14:08:35Z</time>
      </trkpt>
      <trkpt lat="49.84763" lon="2.47172">
        <ele>103.3</ele>
        <time>2020-10-21T14:08:36Z</time>
      </trkpt>
      <trkpt lat="49.84764" lon="2.47171">
        <ele>103.3</ele>
        <time>2020-10-21T14:08:37Z</time>
      </trkpt>
      <trkpt lat="49.84764" lon="2.47171">
        <ele>103.3</ele>
        <time>2020-10-21T14:08:38Z</time>
      </trkpt>
      <trkpt lat="49.84767" lon="2.4717">
        <ele>103.2</ele>
        <time>2020-10-21T14:08:39Z</time>
      </trkpt>
      <trkpt lat="49.84768" lon="2.4717">
        <ele>103.2</ele>
        <time>2020-10-21T14:08:41Z</time>
      </trkpt>
      <trkpt lat="49.84769" lon="2.4717">
        <ele>103.2</ele>
        <time>2020-10-21T14:08:42Z</time>
      </trkpt>
      <trkpt lat="49.8477" lon="2.4717">
        <ele>103.2</ele>
        <time>2020-10-21T14:08:43Z</time>
      </trkpt>
      <trkpt lat="49.84771" lon="2.4717">
        <ele>103.2</ele>
        <time>2020-10-21T14:08:44Z</time>
      </trkpt>
      <trkpt lat="49.84773" lon="2.47169">
        <ele>103.1</ele>
        <time>2020-10-21T14:08:45Z</time>
      </trkpt>
      <trkpt lat="49.84774" lon="2.47169">
        <ele>103.1</ele>
        <time>2020-10-21T14:08:46Z</time>
      </trkpt>
      <trkpt lat="49.84775" lon="2.47169">
        <ele>103.1</ele>
        <time>2020-10-21T14:08:47Z</time>
      </trkpt>
      <trkpt lat="49.84776" lon="2.47169">
        <ele>103.1</ele>
        <time>2020-10-21T14:08:48Z</time>
      </trkpt>
      <trkpt lat="49.84777" lon="2.47168">
        <ele>103.1</ele>
        <time>2020-10-21T14:08:49Z</time>
      </trkpt>
      <trkpt lat="49.84779" lon="2.47168">
        <ele>103.1</ele>
        <time>2020-10-21T14:08:51Z</time>
      </trkpt>
      <trkpt lat="49.8478" lon="2.47167">
        <ele>103</ele>
        <time>2020-10-21T14:08:52Z</time>
      </trkpt>
      <trkpt lat="49.84781" lon="2.47167">
        <ele>103</ele>
        <time>2020-10-21T14:08:53Z</time>
      </trkpt>
      <trkpt lat="49.84783" lon="2.47167">
        <ele>103</ele>
        <time>2020-10-21T14:08:55Z</time>
      </trkpt>
      <trkpt lat="49.84785" lon="2.47166">
        <ele>103</ele>
        <time>2020-10-21T14:08:56Z</time>
      </trkpt>
      <trkpt lat="49.84786" lon="2.47166">
        <ele>103</ele>
        <time>2020-10-21T14:08:57Z</time>
      </trkpt>
      <trkpt lat="49.84787" lon="2.47166">
        <ele>103</ele>
        <time>2020-10-21T14:08:58Z</time>
      </trkpt>
      <trkpt lat="49.84788" lon="2.47165">
        <ele>103</ele>
        <time>2020-10-21T14:08:59Z</time>
      </trkpt>
      <trkpt lat="49.84791" lon="2.47165">
        <ele>103</ele>
        <time>2020-10-21T14:09:01Z</time>
      </trkpt>
      <trkpt lat="49.84793" lon="2.47164">
        <ele>103</ele>
        <time>2020-10-21T14:09:02Z</time>
      </trkpt>
      <trkpt lat="49.84794" lon="2.47164">
        <ele>103</ele>
        <time>2020-10-21T14:09:03Z</time>
      </trkpt>
      <trkpt lat="49.84794" lon="2.47164">
        <ele>103</ele>
        <time>2020-10-21T14:09:04Z</time>
      </trkpt>
      <trkpt lat="49.84797" lon="2.47163">
        <ele>103.1</ele>
        <time>2020-10-21T14:09:05Z</time>
      </trkpt>
      <trkpt lat="49.84797" lon="2.47162">
        <ele>103.1</ele>
        <time>2020-10-21T14:09:06Z</time>
      </trkpt>
      <trkpt lat="49.84798" lon="2.47162">
        <ele>103.1</ele>
        <time>2020-10-21T14:09:07Z</time>
      </trkpt>
      <trkpt lat="49.848" lon="2.47162">
        <ele>103.1</ele>
        <time>2020-10-21T14:09:09Z</time>
      </trkpt>
      <trkpt lat="49.84801" lon="2.47161">
        <ele>103.2</ele>
        <time>2020-10-21T14:09:10Z</time>
      </trkpt>
      <trkpt lat="49.84803" lon="2.47161">
        <ele>103.2</ele>
        <time>2020-10-21T14:09:11Z</time>
      </trkpt>
      <trkpt lat="49.84804" lon="2.4716">
        <ele>103.3</ele>
        <time>2020-10-21T14:09:12Z</time>
      </trkpt>
      <trkpt lat="49.84806" lon="2.4716">
        <ele>103.3</ele>
        <time>2020-10-21T14:09:13Z</time>
      </trkpt>
      <trkpt lat="49.84807" lon="2.4716">
        <ele>103.3</ele>
        <time>2020-10-21T14:09:14Z</time>
      </trkpt>
      <trkpt lat="49.84808" lon="2.47159">
        <ele>103.4</ele>
        <time>2020-10-21T14:09:15Z</time>
      </trkpt>
      <trkpt lat="49.84809" lon="2.47159">
        <ele>103.4</ele>
        <time>2020-10-21T14:09:16Z</time>
      </trkpt>
      <trkpt lat="49.8481" lon="2.47159">
        <ele>103.4</ele>
        <time>2020-10-21T14:09:17Z</time>
      </trkpt>
      <trkpt lat="49.84811" lon="2.4716">
        <ele>103.4</ele>
        <time>2020-10-21T14:09:18Z</time>
      </trkpt>
      <trkpt lat="49.84814" lon="2.47159">
        <ele>103.5</ele>
        <time>2020-10-21T14:09:19Z</time>
      </trkpt>
      <trkpt lat="49.84815" lon="2.47159">
        <ele>103.5</ele>
        <time>2020-10-21T14:09:21Z</time>
      </trkpt>
      <trkpt lat="49.84817" lon="2.47159">
        <ele>103.5</ele>
        <time>2020-10-21T14:09:22Z</time>
      </trkpt>
      <trkpt lat="49.84818" lon="2.47158">
        <ele>103.5</ele>
        <time>2020-10-21T14:09:23Z</time>
      </trkpt>
      <trkpt lat="49.84819" lon="2.47158">
        <ele>103.5</ele>
        <time>2020-10-21T14:09:24Z</time>
      </trkpt>
      <trkpt lat="49.8482" lon="2.47158">
        <ele>103.5</ele>
        <time>2020-10-21T14:09:25Z</time>
      </trkpt>
      <trkpt lat="49.84821" lon="2.47158">
        <ele>103.5</ele>
        <time>2020-10-21T14:09:26Z</time>
      </trkpt>
      <trkpt lat="49.84822" lon="2.47158">
        <ele>103.5</ele>
        <time>2020-10-21T14:09:27Z</time>
      </trkpt>
      <trkpt lat="49.84823" lon="2.47158">
        <ele>103.6</ele>
        <time>2020-10-21T14:09:28Z</time>
      </trkpt>
      <trkpt lat="49.84825" lon="2.47157">
        <ele>103.6</ele>
        <time>2020-10-21T14:09:29Z</time>
      </trkpt>
      <trkpt lat="49.84825" lon="2.47157">
        <ele>103.6</ele>
        <time>2020-10-21T14:09:31Z</time>
      </trkpt>
      <trkpt lat="49.84826" lon="2.47157">
        <ele>103.7</ele>
        <time>2020-10-21T14:09:32Z</time>
      </trkpt>
      <trkpt lat="49.84828" lon="2.47156">
        <ele>103.7</ele>
        <time>2020-10-21T14:09:33Z</time>
      </trkpt>
      <trkpt lat="49.84829" lon="2.47156">
        <ele>103.7</ele>
        <time>2020-10-21T14:09:34Z</time>
      </trkpt>
      <trkpt lat="49.8483" lon="2.47155">
        <ele>103.8</ele>
        <time>2020-10-21T14:09:35Z</time>
      </trkpt>
      <trkpt lat="49.84832" lon="2.47154">
        <ele>103.9</ele>
        <time>2020-10-21T14:09:36Z</time>
      </trkpt>
      <trkpt lat="49.84833" lon="2.47154">
        <ele>103.9</ele>
        <time>2020-10-21T14:09:37Z</time>
      </trkpt>
      <trkpt lat="49.84834" lon="2.47154">
        <ele>104</ele>
        <time>2020-10-21T14:09:38Z</time>
      </trkpt>
      <trkpt lat="49.84836" lon="2.47153">
        <ele>104.1</ele>
        <time>2020-10-21T14:09:39Z</time>
      </trkpt>
      <trkpt lat="49.84837" lon="2.47152">
        <ele>104.1</ele>
        <time>2020-10-21T14:09:41Z</time>
      </trkpt>
      <trkpt lat="49.84838" lon="2.47152">
        <ele>104.2</ele>
        <time>2020-10-21T14:09:42Z</time>
      </trkpt>
      <trkpt lat="49.8484" lon="2.47151">
        <ele>104.3</ele>
        <time>2020-10-21T14:09:43Z</time>
      </trkpt>
      <trkpt lat="49.84841" lon="2.47151">
        <ele>104.4</ele>
        <time>2020-10-21T14:09:44Z</time>
      </trkpt>
      <trkpt lat="49.84843" lon="2.47151">
        <ele>104.5</ele>
        <time>2020-10-21T14:09:45Z</time>
      </trkpt>
      <trkpt lat="49.84843" lon="2.47151">
        <ele>104.6</ele>
        <time>2020-10-21T14:09:46Z</time>
      </trkpt>
      <trkpt lat="49.84845" lon="2.4715">
        <ele>104.7</ele>
        <time>2020-10-21T14:09:47Z</time>
      </trkpt>
      <trkpt lat="49.84846" lon="2.4715">
        <ele>104.8</ele>
        <time>2020-10-21T14:09:49Z</time>
      </trkpt>
      <trkpt lat="49.84847" lon="2.4715">
        <ele>104.9</ele>
        <time>2020-10-21T14:09:50Z</time>
      </trkpt>
      <trkpt lat="49.84849" lon="2.4715">
        <ele>105</ele>
        <time>2020-10-21T14:09:51Z</time>
      </trkpt>
      <trkpt lat="49.8485" lon="2.4715">
        <ele>105.1</ele>
        <time>2020-10-21T14:09:52Z</time>
      </trkpt>
      <trkpt lat="49.84852" lon="2.47149">
        <ele>105.3</ele>
        <time>2020-10-21T14:09:53Z</time>
      </trkpt>
      <trkpt lat="49.84854" lon="2.47149">
        <ele>105.4</ele>
        <time>2020-10-21T14:09:54Z</time>
      </trkpt>
      <trkpt lat="49.84855" lon="2.47149">
        <ele>105.5</ele>
        <time>2020-10-21T14:09:56Z</time>
      </trkpt>
      <trkpt lat="49.84856" lon="2.47148">
        <ele>105.6</ele>
        <time>2020-10-21T14:09:57Z</time>
      </trkpt>
      <trkpt lat="49.84857" lon="2.47148">
        <ele>105.7</ele>
        <time>2020-10-21T14:09:58Z</time>
      </trkpt>
      <trkpt lat="49.84858" lon="2.47148">
        <ele>105.8</ele>
        <time>2020-10-21T14:09:59Z</time>
      </trkpt>
      <trkpt lat="49.84859" lon="2.47148">
        <ele>105.9</ele>
        <time>2020-10-21T14:10:00Z</time>
      </trkpt>
      <trkpt lat="49.8486" lon="2.47148">
        <ele>106</ele>
        <time>2020-10-21T14:10:01Z</time>
      </trkpt>
      <trkpt lat="49.84862" lon="2.4715">
        <ele>106</ele>
        <time>2020-10-21T14:10:03Z</time>
      </trkpt>
      <trkpt lat="49.84863" lon="2.47152">
        <ele>106</ele>
        <time>2020-10-21T14:10:04Z</time>
      </trkpt>
      <trkpt lat="49.84863" lon="2.47155">
        <ele>106</ele>
        <time>2020-10-21T14:10:05Z</time>
      </trkpt>
      <trkpt lat="49.84863" lon="2.47158">
        <ele>106</ele>
        <time>2020-10-21T14:10:07Z</time>
      </trkpt>
      <trkpt lat="49.84864" lon="2.47159">
        <ele>106</ele>
        <time>2020-10-21T14:10:08Z</time>
      </trkpt>
      <trkpt lat="49.84864" lon="2.47161">
        <ele>106</ele>
        <time>2020-10-21T14:10:09Z</time>
      </trkpt>
      <trkpt lat="49.84865" lon="2.47164">
        <ele>106</ele>
        <time>2020-10-21T14:10:10Z</time>
      </trkpt>
      <trkpt lat="49.84865" lon="2.47166">
        <ele>106</ele>
        <time>2020-10-21T14:10:12Z</time>
      </trkpt>
      <trkpt lat="49.84865" lon="2.47168">
        <ele>106</ele>
        <time>2020-10-21T14:10:13Z</time>
      </trkpt>
      <trkpt lat="49.84866" lon="2.47169">
        <ele>106</ele>
        <time>2020-10-21T14:10:14Z</time>
      </trkpt>
      <trkpt lat="49.84866" lon="2.47171">
        <ele>106</ele>
        <time>2020-10-21T14:10:15Z</time>
      </trkpt>
      <trkpt lat="49.84867" lon="2.47173">
        <ele>106</ele>
        <time>2020-10-21T14:10:17Z</time>
      </trkpt>
      <trkpt lat="49.84868" lon="2.47175">
        <ele>106</ele>
        <time>2020-10-21T14:10:18Z</time>
      </trkpt>
      <trkpt lat="49.84869" lon="2.47178">
        <ele>106</ele>
        <time>2020-10-21T14:10:19Z</time>
      </trkpt>
      <trkpt lat="49.84869" lon="2.47179">
        <ele>106</ele>
        <time>2020-10-21T14:10:20Z</time>
      </trkpt>
      <trkpt lat="49.84869" lon="2.47181">
        <ele>106</ele>
        <time>2020-10-21T14:10:21Z</time>
      </trkpt>
      <trkpt lat="49.8487" lon="2.47183">
        <ele>106</ele>
        <time>2020-10-21T14:10:23Z</time>
      </trkpt>
      <trkpt lat="49.8487" lon="2.47185">
        <ele>106</ele>
        <time>2020-10-21T14:10:24Z</time>
      </trkpt>
      <trkpt lat="49.84871" lon="2.47187">
        <ele>106</ele>
        <time>2020-10-21T14:10:26Z</time>
      </trkpt>
      <trkpt lat="49.84871" lon="2.47189">
        <ele>106</ele>
        <time>2020-10-21T14:10:27Z</time>
      </trkpt>
      <trkpt lat="49.84872" lon="2.47191">
        <ele>106</ele>
        <time>2020-10-21T14:10:28Z</time>
      </trkpt>
      <trkpt lat="49.84873" lon="2.47192">
        <ele>106</ele>
        <time>2020-10-21T14:10:30Z</time>
      </trkpt>
      <trkpt lat="49.84873" lon="2.47193">
        <ele>106</ele>
        <time>2020-10-21T14:10:31Z</time>
      </trkpt>
      <trkpt lat="49.84874" lon="2.47195">
        <ele>106</ele>
        <time>2020-10-21T14:10:32Z</time>
      </trkpt>
      <trkpt lat="49.84875" lon="2.47196">
        <ele>106</ele>
        <time>2020-10-21T14:10:33Z</time>
      </trkpt>
      <trkpt lat="49.84875" lon="2.47198">
        <ele>106</ele>
        <time>2020-10-21T14:10:34Z</time>
      </trkpt>
      <trkpt lat="49.84876" lon="2.472">
        <ele>106</ele>
        <time>2020-10-21T14:10:35Z</time>
      </trkpt>
      <trkpt lat="49.84877" lon="2.47201">
        <ele>106</ele>
        <time>2020-10-21T14:10:36Z</time>
      </trkpt>
      <trkpt lat="49.84878" lon="2.47202">
        <ele>106</ele>
        <time>2020-10-21T14:10:38Z</time>
      </trkpt>
      <trkpt lat="49.84879" lon="2.47204">
        <ele>106</ele>
        <time>2020-10-21T14:10:39Z</time>
      </trkpt>
      <trkpt lat="49.84879" lon="2.47206">
        <ele>106</ele>
        <time>2020-10-21T14:10:40Z</time>
      </trkpt>
      <trkpt lat="49.8488" lon="2.47207">
        <ele>106</ele>
        <time>2020-10-21T14:10:41Z</time>
      </trkpt>
      <trkpt lat="49.8488" lon="2.47208">
        <ele>106</ele>
        <time>2020-10-21T14:10:42Z</time>
      </trkpt>
      <trkpt lat="49.84881" lon="2.4721">
        <ele>106</ele>
        <time>2020-10-21T14:10:43Z</time>
      </trkpt>
      <trkpt lat="49.84881" lon="2.47211">
        <ele>106</ele>
        <time>2020-10-21T14:10:44Z</time>
      </trkpt>
      <trkpt lat="49.84882" lon="2.47213">
        <ele>106</ele>
        <time>2020-10-21T14:10:46Z</time>
      </trkpt>
      <trkpt lat="49.84882" lon="2.47214">
        <ele>106</ele>
        <time>2020-10-21T14:10:47Z</time>
      </trkpt>
      <trkpt lat="49.84883" lon="2.47216">
        <ele>106</ele>
        <time>2020-10-21T14:10:48Z</time>
      </trkpt>
      <trkpt lat="49.84883" lon="2.47217">
        <ele>106</ele>
        <time>2020-10-21T14:10:49Z</time>
      </trkpt>
      <trkpt lat="49.84884" lon="2.47218">
        <ele>106</ele>
        <time>2020-10-21T14:10:50Z</time>
      </trkpt>
      <trkpt lat="49.84885" lon="2.4722">
        <ele>106</ele>
        <time>2020-10-21T14:10:51Z</time>
      </trkpt>
      <trkpt lat="49.84886" lon="2.47222">
        <ele>106</ele>
        <time>2020-10-21T14:10:53Z</time>
      </trkpt>
      <trkpt lat="49.84886" lon="2.47224">
        <ele>106</ele>
        <time>2020-10-21T14:10:54Z</time>
      </trkpt>
      <trkpt lat="49.84886" lon="2.47226">
        <ele>106</ele>
        <time>2020-10-21T14:10:55Z</time>
      </trkpt>
      <trkpt lat="49.84887" lon="2.47227">
        <ele>106</ele>
        <time>2020-10-21T14:10:56Z</time>
      </trkpt>
      <trkpt lat="49.84887" lon="2.47229">
        <ele>106</ele>
        <time>2020-10-21T14:10:57Z</time>
      </trkpt>
      <trkpt lat="49.84888" lon="2.47232">
        <ele>106</ele>
        <time>2020-10-21T14:10:58Z</time>
      </trkpt>
      <trkpt lat="49.84889" lon="2.47234">
        <ele>106</ele>
        <time>2020-10-21T14:11:00Z</time>
      </trkpt>
      <trkpt lat="49.8489" lon="2.47235">
        <ele>106</ele>
        <time>2020-10-21T14:11:01Z</time>
      </trkpt>
      <trkpt lat="49.8489" lon="2.47237">
        <ele>106</ele>
        <time>2020-10-21T14:11:03Z</time>
      </trkpt>
      <trkpt lat="49.84891" lon="2.47239">
        <ele>106</ele>
        <time>2020-10-21T14:11:04Z</time>
      </trkpt>
      <trkpt lat="49.84891" lon="2.4724">
        <ele>106</ele>
        <time>2020-10-21T14:11:05Z</time>
      </trkpt>
      <trkpt lat="49.84892" lon="2.47242">
        <ele>106</ele>
        <time>2020-10-21T14:11:06Z</time>
      </trkpt>
      <trkpt lat="49.84892" lon="2.47244">
        <ele>106</ele>
        <time>2020-10-21T14:11:07Z</time>
      </trkpt>
      <trkpt lat="49.84893" lon="2.47247">
        <ele>106</ele>
        <time>2020-10-21T14:11:09Z</time>
      </trkpt>
      <trkpt lat="49.84894" lon="2.47249">
        <ele>106</ele>
        <time>2020-10-21T14:11:10Z</time>
      </trkpt>
      <trkpt lat="49.84894" lon="2.47251">
        <ele>106</ele>
        <time>2020-10-21T14:11:11Z</time>
      </trkpt>
      <trkpt lat="49.84895" lon="2.47253">
        <ele>106</ele>
        <time>2020-10-21T14:11:13Z</time>
      </trkpt>
      <trkpt lat="49.84895" lon="2.47254">
        <ele>106</ele>
        <time>2020-10-21T14:11:14Z</time>
      </trkpt>
      <trkpt lat="49.84896" lon="2.47256">
        <ele>106</ele>
        <time>2020-10-21T14:11:15Z</time>
      </trkpt>
      <trkpt lat="49.84897" lon="2.47258">
        <ele>106</ele>
        <time>2020-10-21T14:11:17Z</time>
      </trkpt>
      <trkpt lat="49.84897" lon="2.4726">
        <ele>106</ele>
        <time>2020-10-21T14:11:18Z</time>
      </trkpt>
      <trkpt lat="49.84898" lon="2.47262">
        <ele>106</ele>
        <time>2020-10-21T14:11:19Z</time>
      </trkpt>
      <trkpt lat="49.84898" lon="2.47264">
        <ele>106</ele>
        <time>2020-10-21T14:11:20Z</time>
      </trkpt>
      <trkpt lat="49.84899" lon="2.47265">
        <ele>105.9</ele>
        <time>2020-10-21T14:11:21Z</time>
      </trkpt>
      <trkpt lat="49.849" lon="2.47267">
        <ele>105.9</ele>
        <time>2020-10-21T14:11:23Z</time>
      </trkpt>
      <trkpt lat="49.84901" lon="2.47268">
        <ele>105.9</ele>
        <time>2020-10-21T14:11:24Z</time>
      </trkpt>
      <trkpt lat="49.84901" lon="2.4727">
        <ele>105.9</ele>
        <time>2020-10-21T14:11:25Z</time>
      </trkpt>
      <trkpt lat="49.84902" lon="2.47271">
        <ele>105.9</ele>
        <time>2020-10-21T14:11:26Z</time>
      </trkpt>
      <trkpt lat="49.84903" lon="2.47272">
        <ele>105.9</ele>
        <time>2020-10-21T14:11:27Z</time>
      </trkpt>
      <trkpt lat="49.84904" lon="2.47274">
        <ele>105.9</ele>
        <time>2020-10-21T14:11:28Z</time>
      </trkpt>
      <trkpt lat="49.84905" lon="2.47276">
        <ele>105.9</ele>
        <time>2020-10-21T14:11:29Z</time>
      </trkpt>
      <trkpt lat="49.84905" lon="2.47277">
        <ele>105.9</ele>
        <time>2020-10-21T14:11:30Z</time>
      </trkpt>
      <trkpt lat="49.84906" lon="2.47279">
        <ele>105.9</ele>
        <time>2020-10-21T14:11:32Z</time>
      </trkpt>
      <trkpt lat="49.84906" lon="2.47281">
        <ele>105.9</ele>
        <time>2020-10-21T14:11:33Z</time>
      </trkpt>
      <trkpt lat="49.84907" lon="2.47282">
        <ele>105.9</ele>
        <time>2020-10-21T14:11:34Z</time>
      </trkpt>
      <trkpt lat="49.84907" lon="2.47283">
        <ele>105.9</ele>
        <time>2020-10-21T14:11:35Z</time>
      </trkpt>
      <trkpt lat="49.84908" lon="2.47284">
        <ele>105.9</ele>
        <time>2020-10-21T14:11:36Z</time>
      </trkpt>
      <trkpt lat="49.84909" lon="2.47286">
        <ele>105.9</ele>
        <time>2020-10-21T14:11:37Z</time>
      </trkpt>
      <trkpt lat="49.8491" lon="2.47287">
        <ele>105.9</ele>
        <time>2020-10-21T14:11:38Z</time>
      </trkpt>
      <trkpt lat="49.84911" lon="2.47288">
        <ele>105.9</ele>
        <time>2020-10-21T14:11:39Z</time>
      </trkpt>
      <trkpt lat="49.84912" lon="2.4729">
        <ele>105.9</ele>
        <time>2020-10-21T14:11:41Z</time>
      </trkpt>
      <trkpt lat="49.84913" lon="2.47291">
        <ele>105.9</ele>
        <time>2020-10-21T14:11:42Z</time>
      </trkpt>
      <trkpt lat="49.84914" lon="2.47292">
        <ele>105.9</ele>
        <time>2020-10-21T14:11:43Z</time>
      </trkpt>
      <trkpt lat="49.84915" lon="2.47294">
        <ele>105.9</ele>
        <time>2020-10-21T14:11:44Z</time>
      </trkpt>
      <trkpt lat="49.84915" lon="2.47295">
        <ele>105.9</ele>
        <time>2020-10-21T14:11:45Z</time>
      </trkpt>
      <trkpt lat="49.84915" lon="2.47297">
        <ele>105.9</ele>
        <time>2020-10-21T14:11:46Z</time>
      </trkpt>
      <trkpt lat="49.84915" lon="2.47298">
        <ele>105.9</ele>
        <time>2020-10-21T14:11:48Z</time>
      </trkpt>
      <trkpt lat="49.84915" lon="2.47299">
        <ele>105.9</ele>
        <time>2020-10-21T14:11:49Z</time>
      </trkpt>
      <trkpt lat="49.84915" lon="2.47299">
        <ele>105.9</ele>
        <time>2020-10-21T14:11:50Z</time>
      </trkpt>
      <trkpt lat="49.84915" lon="2.47299">
        <ele>105.9</ele>
        <time>2020-10-21T14:11:52Z</time>
      </trkpt>
      <trkpt lat="49.84915" lon="2.47299">
        <ele>105.9</ele>
        <time>2020-10-21T14:11:53Z</time>
      </trkpt>
      <trkpt lat="49.84915" lon="2.47299">
        <ele>105.9</ele>
        <time>2020-10-21T14:11:55Z</time>
      </trkpt>
      <trkpt lat="49.84915" lon="2.473">
        <ele>105.9</ele>
        <time>2020-10-21T14:11:56Z</time>
      </trkpt>
      <trkpt lat="49.84915" lon="2.47302">
        <ele>105.9</ele>
        <time>2020-10-21T14:11:58Z</time>
      </trkpt>
      <trkpt lat="49.84916" lon="2.47303">
        <ele>105.9</ele>
        <time>2020-10-21T14:11:59Z</time>
      </trkpt>
      <trkpt lat="49.84917" lon="2.47304">
        <ele>105.9</ele>
        <time>2020-10-21T14:12:00Z</time>
      </trkpt>
      <trkpt lat="49.84918" lon="2.47305">
        <ele>105.9</ele>
        <time>2020-10-21T14:12:01Z</time>
      </trkpt>
      <trkpt lat="49.84919" lon="2.47306">
        <ele>105.9</ele>
        <time>2020-10-21T14:12:02Z</time>
      </trkpt>
      <trkpt lat="49.84921" lon="2.47308">
        <ele>105.9</ele>
        <time>2020-10-21T14:12:04Z</time>
      </trkpt>
      <trkpt lat="49.84921" lon="2.47308">
        <ele>105.9</ele>
        <time>2020-10-21T14:12:05Z</time>
      </trkpt>
      <trkpt lat="49.84922" lon="2.47309">
        <ele>105.9</ele>
        <time>2020-10-21T14:12:06Z</time>
      </trkpt>
      <trkpt lat="49.84924" lon="2.4731">
        <ele>105.9</ele>
        <time>2020-10-21T14:12:08Z</time>
      </trkpt>
      <trkpt lat="49.84925" lon="2.47312">
        <ele>105.9</ele>
        <time>2020-10-21T14:12:09Z</time>
      </trkpt>
      <trkpt lat="49.84926" lon="2.47313">
        <ele>105.9</ele>
        <time>2020-10-21T14:12:10Z</time>
      </trkpt>
      <trkpt lat="49.84927" lon="2.47314">
        <ele>105.9</ele>
        <time>2020-10-21T14:12:11Z</time>
      </trkpt>
      <trkpt lat="49.84928" lon="2.47317">
        <ele>105.9</ele>
        <time>2020-10-21T14:12:12Z</time>
      </trkpt>
      <trkpt lat="49.84928" lon="2.47318">
        <ele>105.9</ele>
        <time>2020-10-21T14:12:14Z</time>
      </trkpt>
      <trkpt lat="49.84928" lon="2.4732">
        <ele>105.9</ele>
        <time>2020-10-21T14:12:15Z</time>
      </trkpt>
      <trkpt lat="49.84929" lon="2.47322">
        <ele>105.9</ele>
        <time>2020-10-21T14:12:16Z</time>
      </trkpt>
      <trkpt lat="49.8493" lon="2.47325">
        <ele>105.8</ele>
        <time>2020-10-21T14:12:18Z</time>
      </trkpt>
      <trkpt lat="49.8493" lon="2.47326">
        <ele>105.8</ele>
        <time>2020-10-21T14:12:19Z</time>
      </trkpt>
      <trkpt lat="49.84931" lon="2.47327">
        <ele>105.8</ele>
        <time>2020-10-21T14:12:20Z</time>
      </trkpt>
      <trkpt lat="49.84931" lon="2.47329">
        <ele>105.8</ele>
        <time>2020-10-21T14:12:21Z</time>
      </trkpt>
      <trkpt lat="49.84931" lon="2.47331">
        <ele>105.8</ele>
        <time>2020-10-21T14:12:22Z</time>
      </trkpt>
      <trkpt lat="49.84932" lon="2.47333">
        <ele>105.7</ele>
        <time>2020-10-21T14:12:24Z</time>
      </trkpt>
      <trkpt lat="49.84933" lon="2.47334">
        <ele>105.7</ele>
        <time>2020-10-21T14:12:25Z</time>
      </trkpt>
      <trkpt lat="49.84934" lon="2.47337">
        <ele>105.7</ele>
        <time>2020-10-21T14:12:26Z</time>
      </trkpt>
      <trkpt lat="49.84935" lon="2.47339">
        <ele>105.6</ele>
        <time>2020-10-21T14:12:27Z</time>
      </trkpt>
      <trkpt lat="49.84935" lon="2.47341">
        <ele>105.6</ele>
        <time>2020-10-21T14:12:28Z</time>
      </trkpt>
      <trkpt lat="49.84936" lon="2.47342">
        <ele>105.6</ele>
        <time>2020-10-21T14:12:29Z</time>
      </trkpt>
      <trkpt lat="49.84937" lon="2.47344">
        <ele>105.5</ele>
        <time>2020-10-21T14:12:30Z</time>
      </trkpt>
      <trkpt lat="49.84937" lon="2.47345">
        <ele>105.5</ele>
        <time>2020-10-21T14:12:32Z</time>
      </trkpt>
      <trkpt lat="49.84937" lon="2.47345">
        <ele>105.5</ele>
        <time>2020-10-21T14:12:33Z</time>
      </trkpt>
      <trkpt lat="49.84938" lon="2.47346">
        <ele>105.5</ele>
        <time>2020-10-21T14:12:34Z</time>
      </trkpt>
      <trkpt lat="49.84938" lon="2.47346">
        <ele>105.5</ele>
        <time>2020-10-21T14:12:35Z</time>
      </trkpt>
      <trkpt lat="49.84938" lon="2.47347">
        <ele>105.5</ele>
        <time>2020-10-21T14:12:37Z</time>
      </trkpt>
      <trkpt lat="49.84939" lon="2.47347">
        <ele>105.5</ele>
        <time>2020-10-21T14:12:38Z</time>
      </trkpt>
      <trkpt lat="49.84939" lon="2.47348">
        <ele>105.4</ele>
        <time>2020-10-21T14:12:40Z</time>
      </trkpt>
      <trkpt lat="49.84939" lon="2.47348">
        <ele>105.4</ele>
        <time>2020-10-21T14:12:41Z</time>
      </trkpt>
      <trkpt lat="49.8494" lon="2.47349">
        <ele>105.4</ele>
        <time>2020-10-21T14:12:43Z</time>
      </trkpt>
      <trkpt lat="49.8494" lon="2.47349">
        <ele>105.4</ele>
        <time>2020-10-21T14:12:44Z</time>
      </trkpt>
      <trkpt lat="49.84941" lon="2.4735">
        <ele>105.4</ele>
        <time>2020-10-21T14:12:45Z</time>
      </trkpt>
      <trkpt lat="49.84941" lon="2.47351">
        <ele>105.4</ele>
        <time>2020-10-21T14:12:46Z</time>
      </trkpt>
      <trkpt lat="49.84941" lon="2.47351">
        <ele>105.4</ele>
        <time>2020-10-21T14:12:47Z</time>
      </trkpt>
      <trkpt lat="49.84942" lon="2.47352">
        <ele>105.4</ele>
        <time>2020-10-21T14:12:49Z</time>
      </trkpt>
      <trkpt lat="49.84942" lon="2.47352">
        <ele>105.3</ele>
        <time>2020-10-21T14:12:50Z</time>
      </trkpt>
      <trkpt lat="49.84942" lon="2.47354">
        <ele>105.3</ele>
        <time>2020-10-21T14:12:51Z</time>
      </trkpt>
      <trkpt lat="49.84942" lon="2.47357">
        <ele>105.3</ele>
        <time>2020-10-21T14:12:52Z</time>
      </trkpt>
      <trkpt lat="49.84942" lon="2.47359">
        <ele>105.3</ele>
        <time>2020-10-21T14:12:53Z</time>
      </trkpt>
      <trkpt lat="49.84942" lon="2.47362">
        <ele>105.2</ele>
        <time>2020-10-21T14:12:55Z</time>
      </trkpt>
      <trkpt lat="49.84942" lon="2.47365">
        <ele>105.2</ele>
        <time>2020-10-21T14:12:56Z</time>
      </trkpt>
      <trkpt lat="49.84942" lon="2.47367">
        <ele>105.2</ele>
        <time>2020-10-21T14:12:57Z</time>
      </trkpt>
      <trkpt lat="49.84942" lon="2.47369">
        <ele>105.1</ele>
        <time>2020-10-21T14:12:59Z</time>
      </trkpt>
      <trkpt lat="49.84942" lon="2.47371">
        <ele>105.1</ele>
        <time>2020-10-21T14:13:00Z</time>
      </trkpt>
      <trkpt lat="49.84943" lon="2.47373">
        <ele>105.1</ele>
        <time>2020-10-21T14:13:01Z</time>
      </trkpt>
      <trkpt lat="49.84943" lon="2.47375">
        <ele>105.1</ele>
        <time>2020-10-21T14:13:02Z</time>
      </trkpt>
      <trkpt lat="49.84943" lon="2.47378">
        <ele>105</ele>
        <time>2020-10-21T14:13:03Z</time>
      </trkpt>
      <trkpt lat="49.84943" lon="2.4738">
        <ele>105</ele>
        <time>2020-10-21T14:13:04Z</time>
      </trkpt>
      <trkpt lat="49.84944" lon="2.47381">
        <ele>105</ele>
        <time>2020-10-21T14:13:05Z</time>
      </trkpt>
      <trkpt lat="49.84944" lon="2.47382">
        <ele>105</ele>
        <time>2020-10-21T14:13:07Z</time>
      </trkpt>
      <trkpt lat="49.84944" lon="2.47384">
        <ele>105</ele>
        <time>2020-10-21T14:13:08Z</time>
      </trkpt>
      <trkpt lat="49.84945" lon="2.47385">
        <ele>105</ele>
        <time>2020-10-21T14:13:09Z</time>
      </trkpt>
      <trkpt lat="49.84945" lon="2.47387">
        <ele>105</ele>
        <time>2020-10-21T14:13:10Z</time>
      </trkpt>
      <trkpt lat="49.84946" lon="2.47389">
        <ele>105</ele>
        <time>2020-10-21T14:13:11Z</time>
      </trkpt>
      <trkpt lat="49.84946" lon="2.4739">
        <ele>105</ele>
        <time>2020-10-21T14:13:12Z</time>
      </trkpt>
      <trkpt lat="49.84946" lon="2.47392">
        <ele>105</ele>
        <time>2020-10-21T14:13:13Z</time>
      </trkpt>
      <trkpt lat="49.84946" lon="2.47393">
        <ele>105</ele>
        <time>2020-10-21T14:13:14Z</time>
      </trkpt>
      <trkpt lat="49.84947" lon="2.47395">
        <ele>104.9</ele>
        <time>2020-10-21T14:13:16Z</time>
      </trkpt>
      <trkpt lat="49.84947" lon="2.47397">
        <ele>104.9</ele>
        <time>2020-10-21T14:13:17Z</time>
      </trkpt>
      <trkpt lat="49.84947" lon="2.47398">
        <ele>104.9</ele>
        <time>2020-10-21T14:13:18Z</time>
      </trkpt>
      <trkpt lat="49.84948" lon="2.474">
        <ele>104.9</ele>
        <time>2020-10-21T14:13:19Z</time>
      </trkpt>
      <trkpt lat="49.84948" lon="2.47404">
        <ele>104.9</ele>
        <time>2020-10-21T14:13:20Z</time>
      </trkpt>
      <trkpt lat="49.84948" lon="2.47405">
        <ele>104.9</ele>
        <time>2020-10-21T14:13:21Z</time>
      </trkpt>
      <trkpt lat="49.84948" lon="2.47406">
        <ele>104.9</ele>
        <time>2020-10-21T14:13:22Z</time>
      </trkpt>
      <trkpt lat="49.84949" lon="2.47407">
        <ele>104.9</ele>
        <time>2020-10-21T14:13:23Z</time>
      </trkpt>
      <trkpt lat="49.84949" lon="2.47409">
        <ele>104.9</ele>
        <time>2020-10-21T14:13:25Z</time>
      </trkpt>
      <trkpt lat="49.8495" lon="2.47411">
        <ele>104.9</ele>
        <time>2020-10-21T14:13:26Z</time>
      </trkpt>
      <trkpt lat="49.8495" lon="2.47413">
        <ele>104.9</ele>
        <time>2020-10-21T14:13:27Z</time>
      </trkpt>
      <trkpt lat="49.84951" lon="2.47415">
        <ele>104.9</ele>
        <time>2020-10-21T14:13:28Z</time>
      </trkpt>
      <trkpt lat="49.84951" lon="2.47416">
        <ele>104.9</ele>
        <time>2020-10-21T14:13:29Z</time>
      </trkpt>
      <trkpt lat="49.84951" lon="2.47418">
        <ele>104.9</ele>
        <time>2020-10-21T14:13:30Z</time>
      </trkpt>
      <trkpt lat="49.84952" lon="2.4742">
        <ele>104.9</ele>
        <time>2020-10-21T14:13:31Z</time>
      </trkpt>
      <trkpt lat="49.84952" lon="2.47421">
        <ele>104.8</ele>
        <time>2020-10-21T14:13:33Z</time>
      </trkpt>
      <trkpt lat="49.84953" lon="2.47423">
        <ele>104.8</ele>
        <time>2020-10-21T14:13:34Z</time>
      </trkpt>
      <trkpt lat="49.84953" lon="2.47425">
        <ele>104.8</ele>
        <time>2020-10-21T14:13:35Z</time>
      </trkpt>
      <trkpt lat="49.84953" lon="2.47426">
        <ele>104.8</ele>
        <time>2020-10-21T14:13:36Z</time>
      </trkpt>
      <trkpt lat="49.84954" lon="2.47428">
        <ele>104.8</ele>
        <time>2020-10-21T14:13:38Z</time>
      </trkpt>
      <trkpt lat="49.84954" lon="2.47429">
        <ele>104.8</ele>
        <time>2020-10-21T14:13:39Z</time>
      </trkpt>
      <trkpt lat="49.84955" lon="2.47431">
        <ele>104.8</ele>
        <time>2020-10-21T14:13:40Z</time>
      </trkpt>
      <trkpt lat="49.84955" lon="2.47432">
        <ele>104.8</ele>
        <time>2020-10-21T14:13:41Z</time>
      </trkpt>
      <trkpt lat="49.84956" lon="2.47433">
        <ele>104.8</ele>
        <time>2020-10-21T14:13:42Z</time>
      </trkpt>
      <trkpt lat="49.84956" lon="2.47435">
        <ele>104.8</ele>
        <time>2020-10-21T14:13:43Z</time>
      </trkpt>
      <trkpt lat="49.84956" lon="2.47437">
        <ele>104.8</ele>
        <time>2020-10-21T14:13:44Z</time>
      </trkpt>
      <trkpt lat="49.84957" lon="2.47439">
        <ele>104.8</ele>
        <time>2020-10-21T14:13:45Z</time>
      </trkpt>
      <trkpt lat="49.84957" lon="2.4744">
        <ele>104.8</ele>
        <time>2020-10-21T14:13:46Z</time>
      </trkpt>
      <trkpt lat="49.84957" lon="2.47442">
        <ele>104.8</ele>
        <time>2020-10-21T14:13:48Z</time>
      </trkpt>
      <trkpt lat="49.84957" lon="2.47444">
        <ele>104.8</ele>
        <time>2020-10-21T14:13:49Z</time>
      </trkpt>
      <trkpt lat="49.84957" lon="2.47447">
        <ele>104.7</ele>
        <time>2020-10-21T14:13:50Z</time>
      </trkpt>
      <trkpt lat="49.84957" lon="2.47448">
        <ele>104.7</ele>
        <time>2020-10-21T14:13:51Z</time>
      </trkpt>
      <trkpt lat="49.84958" lon="2.4745">
        <ele>104.7</ele>
        <time>2020-10-21T14:13:52Z</time>
      </trkpt>
      <trkpt lat="49.84958" lon="2.47452">
        <ele>104.7</ele>
        <time>2020-10-21T14:13:53Z</time>
      </trkpt>
      <trkpt lat="49.84959" lon="2.47454">
        <ele>104.7</ele>
        <time>2020-10-21T14:13:54Z</time>
      </trkpt>
      <trkpt lat="49.84959" lon="2.47457">
        <ele>104.7</ele>
        <time>2020-10-21T14:13:55Z</time>
      </trkpt>
      <trkpt lat="49.84959" lon="2.47458">
        <ele>104.7</ele>
        <time>2020-10-21T14:13:56Z</time>
      </trkpt>
      <trkpt lat="49.84959" lon="2.4746">
        <ele>104.7</ele>
        <time>2020-10-21T14:13:57Z</time>
      </trkpt>
      <trkpt lat="49.84959" lon="2.47462">
        <ele>104.7</ele>
        <time>2020-10-21T14:13:58Z</time>
      </trkpt>
      <trkpt lat="49.8496" lon="2.47464">
        <ele>104.7</ele>
        <time>2020-10-21T14:13:59Z</time>
      </trkpt>
      <trkpt lat="49.8496" lon="2.47465">
        <ele>104.7</ele>
        <time>2020-10-21T14:14:01Z</time>
      </trkpt>
      <trkpt lat="49.8496" lon="2.47469">
        <ele>104.7</ele>
        <time>2020-10-21T14:14:02Z</time>
      </trkpt>
      <trkpt lat="49.8496" lon="2.4747">
        <ele>104.6</ele>
        <time>2020-10-21T14:14:03Z</time>
      </trkpt>
      <trkpt lat="49.84961" lon="2.47471">
        <ele>104.6</ele>
        <time>2020-10-21T14:14:04Z</time>
      </trkpt>
      <trkpt lat="49.84961" lon="2.47473">
        <ele>104.6</ele>
        <time>2020-10-21T14:14:05Z</time>
      </trkpt>
      <trkpt lat="49.84961" lon="2.47474">
        <ele>104.6</ele>
        <time>2020-10-21T14:14:06Z</time>
      </trkpt>
      <trkpt lat="49.84962" lon="2.47476">
        <ele>104.6</ele>
        <time>2020-10-21T14:14:07Z</time>
      </trkpt>
      <trkpt lat="49.84962" lon="2.47479">
        <ele>104.6</ele>
        <time>2020-10-21T14:14:08Z</time>
      </trkpt>
      <trkpt lat="49.84962" lon="2.4748">
        <ele>104.6</ele>
        <time>2020-10-21T14:14:09Z</time>
      </trkpt>
      <trkpt lat="49.84962" lon="2.47482">
        <ele>104.6</ele>
        <time>2020-10-21T14:14:10Z</time>
      </trkpt>
      <trkpt lat="49.84963" lon="2.47484">
        <ele>104.6</ele>
        <time>2020-10-21T14:14:11Z</time>
      </trkpt>
      <trkpt lat="49.84963" lon="2.47485">
        <ele>104.5</ele>
        <time>2020-10-21T14:14:12Z</time>
      </trkpt>
      <trkpt lat="49.84964" lon="2.47489">
        <ele>104.5</ele>
        <time>2020-10-21T14:14:14Z</time>
      </trkpt>
      <trkpt lat="49.84964" lon="2.4749">
        <ele>104.5</ele>
        <time>2020-10-21T14:14:15Z</time>
      </trkpt>
      <trkpt lat="49.84964" lon="2.47491">
        <ele>104.5</ele>
        <time>2020-10-21T14:14:16Z</time>
      </trkpt>
      <trkpt lat="49.84964" lon="2.47493">
        <ele>104.5</ele>
        <time>2020-10-21T14:14:17Z</time>
      </trkpt>
      <trkpt lat="49.84965" lon="2.47495">
        <ele>104.5</ele>
        <time>2020-10-21T14:14:18Z</time>
      </trkpt>
      <trkpt lat="49.84965" lon="2.47496">
        <ele>104.5</ele>
        <time>2020-10-21T14:14:19Z</time>
      </trkpt>
      <trkpt lat="49.84966" lon="2.475">
        <ele>104.5</ele>
        <time>2020-10-21T14:14:21Z</time>
      </trkpt>
      <trkpt lat="49.84966" lon="2.47501">
        <ele>104.4</ele>
        <time>2020-10-21T14:14:22Z</time>
      </trkpt>
      <trkpt lat="49.84966" lon="2.47503">
        <ele>104.4</ele>
        <time>2020-10-21T14:14:23Z</time>
      </trkpt>
      <trkpt lat="49.84966" lon="2.47506">
        <ele>104.4</ele>
        <time>2020-10-21T14:14:24Z</time>
      </trkpt>
      <trkpt lat="49.84966" lon="2.47507">
        <ele>104.4</ele>
        <time>2020-10-21T14:14:25Z</time>
      </trkpt>
      <trkpt lat="49.84966" lon="2.47509">
        <ele>104.4</ele>
        <time>2020-10-21T14:14:26Z</time>
      </trkpt>
      <trkpt lat="49.84966" lon="2.47513">
        <ele>104.4</ele>
        <time>2020-10-21T14:14:27Z</time>
      </trkpt>
      <trkpt lat="49.84967" lon="2.47515">
        <ele>104.4</ele>
        <time>2020-10-21T14:14:29Z</time>
      </trkpt>
      <trkpt lat="49.84967" lon="2.47516">
        <ele>104.4</ele>
        <time>2020-10-21T14:14:30Z</time>
      </trkpt>
      <trkpt lat="49.84967" lon="2.47518">
        <ele>104.4</ele>
        <time>2020-10-21T14:14:31Z</time>
      </trkpt>
      <trkpt lat="49.84967" lon="2.4752">
        <ele>104.4</ele>
        <time>2020-10-21T14:14:32Z</time>
      </trkpt>
      <trkpt lat="49.84968" lon="2.47523">
        <ele>104.4</ele>
        <time>2020-10-21T14:14:33Z</time>
      </trkpt>
      <trkpt lat="49.84968" lon="2.47524">
        <ele>104.4</ele>
        <time>2020-10-21T14:14:34Z</time>
      </trkpt>
      <trkpt lat="49.84968" lon="2.47526">
        <ele>104.4</ele>
        <time>2020-10-21T14:14:35Z</time>
      </trkpt>
      <trkpt lat="49.84968" lon="2.47528">
        <ele>104.4</ele>
        <time>2020-10-21T14:14:36Z</time>
      </trkpt>
      <trkpt lat="49.84968" lon="2.4753">
        <ele>104.4</ele>
        <time>2020-10-21T14:14:38Z</time>
      </trkpt>
      <trkpt lat="49.84968" lon="2.47533">
        <ele>104.4</ele>
        <time>2020-10-21T14:14:39Z</time>
      </trkpt>
      <trkpt lat="49.84969" lon="2.47534">
        <ele>104.4</ele>
        <time>2020-10-21T14:14:40Z</time>
      </trkpt>
      <trkpt lat="49.84969" lon="2.47536">
        <ele>104.3</ele>
        <time>2020-10-21T14:14:41Z</time>
      </trkpt>
      <trkpt lat="49.84969" lon="2.47539">
        <ele>104.3</ele>
        <time>2020-10-21T14:14:42Z</time>
      </trkpt>
      <trkpt lat="49.84969" lon="2.4754">
        <ele>104.3</ele>
        <time>2020-10-21T14:14:43Z</time>
      </trkpt>
      <trkpt lat="49.8497" lon="2.47541">
        <ele>104.3</ele>
        <time>2020-10-21T14:14:44Z</time>
      </trkpt>
      <trkpt lat="49.8497" lon="2.47545">
        <ele>104.3</ele>
        <time>2020-10-21T14:14:45Z</time>
      </trkpt>
      <trkpt lat="49.8497" lon="2.47546">
        <ele>104.3</ele>
        <time>2020-10-21T14:14:46Z</time>
      </trkpt>
      <trkpt lat="49.84971" lon="2.47547">
        <ele>104.3</ele>
        <time>2020-10-21T14:14:47Z</time>
      </trkpt>
      <trkpt lat="49.84971" lon="2.4755">
        <ele>104.3</ele>
        <time>2020-10-21T14:14:49Z</time>
      </trkpt>
      <trkpt lat="49.84971" lon="2.47552">
        <ele>104.3</ele>
        <time>2020-10-21T14:14:50Z</time>
      </trkpt>
      <trkpt lat="49.84971" lon="2.47554">
        <ele>104.3</ele>
        <time>2020-10-21T14:14:51Z</time>
      </trkpt>
      <trkpt lat="49.84972" lon="2.47556">
        <ele>104.3</ele>
        <time>2020-10-21T14:14:52Z</time>
      </trkpt>
      <trkpt lat="49.84973" lon="2.47559">
        <ele>104.3</ele>
        <time>2020-10-21T14:14:54Z</time>
      </trkpt>
      <trkpt lat="49.84973" lon="2.47561">
        <ele>104.3</ele>
        <time>2020-10-21T14:14:55Z</time>
      </trkpt>
      <trkpt lat="49.84974" lon="2.47563">
        <ele>104.3</ele>
        <time>2020-10-21T14:14:56Z</time>
      </trkpt>
      <trkpt lat="49.84974" lon="2.47565">
        <ele>104.2</ele>
        <time>2020-10-21T14:14:57Z</time>
      </trkpt>
      <trkpt lat="49.84975" lon="2.47568">
        <ele>104.2</ele>
        <time>2020-10-21T14:14:58Z</time>
      </trkpt>
      <trkpt lat="49.84975" lon="2.47569">
        <ele>104.2</ele>
        <time>2020-10-21T14:14:59Z</time>
      </trkpt>
      <trkpt lat="49.84975" lon="2.4757">
        <ele>104.2</ele>
        <time>2020-10-21T14:15:00Z</time>
      </trkpt>
      <trkpt lat="49.84976" lon="2.47573">
        <ele>104.2</ele>
        <time>2020-10-21T14:15:02Z</time>
      </trkpt>
      <trkpt lat="49.84976" lon="2.47575">
        <ele>104.2</ele>
        <time>2020-10-21T14:15:03Z</time>
      </trkpt>
      <trkpt lat="49.84977" lon="2.47576">
        <ele>104.2</ele>
        <time>2020-10-21T14:15:04Z</time>
      </trkpt>
      <trkpt lat="49.84977" lon="2.47577">
        <ele>104.2</ele>
        <time>2020-10-21T14:15:05Z</time>
      </trkpt>
      <trkpt lat="49.84977" lon="2.47578">
        <ele>104.1</ele>
        <time>2020-10-21T14:15:06Z</time>
      </trkpt>
      <trkpt lat="49.84978" lon="2.47579">
        <ele>104.1</ele>
        <time>2020-10-21T14:15:07Z</time>
      </trkpt>
      <trkpt lat="49.84978" lon="2.47581">
        <ele>104.1</ele>
        <time>2020-10-21T14:15:08Z</time>
      </trkpt>
      <trkpt lat="49.84979" lon="2.47584">
        <ele>104.1</ele>
        <time>2020-10-21T14:15:09Z</time>
      </trkpt>
      <trkpt lat="49.8498" lon="2.47585">
        <ele>104.1</ele>
        <time>2020-10-21T14:15:10Z</time>
      </trkpt>
      <trkpt lat="49.8498" lon="2.47586">
        <ele>104.1</ele>
        <time>2020-10-21T14:15:11Z</time>
      </trkpt>
      <trkpt lat="49.8498" lon="2.47587">
        <ele>104</ele>
        <time>2020-10-21T14:15:12Z</time>
      </trkpt>
      <trkpt lat="49.84981" lon="2.47589">
        <ele>104</ele>
        <time>2020-10-21T14:15:13Z</time>
      </trkpt>
      <trkpt lat="49.84981" lon="2.47594">
        <ele>104</ele>
        <time>2020-10-21T14:15:15Z</time>
      </trkpt>
      <trkpt lat="49.84981" lon="2.47597">
        <ele>104</ele>
        <time>2020-10-21T14:15:16Z</time>
      </trkpt>
      <trkpt lat="49.84981" lon="2.47598">
        <ele>104</ele>
        <time>2020-10-21T14:15:17Z</time>
      </trkpt>
      <trkpt lat="49.84981" lon="2.476">
        <ele>103.9</ele>
        <time>2020-10-21T14:15:18Z</time>
      </trkpt>
      <trkpt lat="49.8498" lon="2.47602">
        <ele>103.9</ele>
        <time>2020-10-21T14:15:19Z</time>
      </trkpt>
      <trkpt lat="49.8498" lon="2.47604">
        <ele>103.9</ele>
        <time>2020-10-21T14:15:20Z</time>
      </trkpt>
      <trkpt lat="49.8498" lon="2.47606">
        <ele>103.9</ele>
        <time>2020-10-21T14:15:21Z</time>
      </trkpt>
      <trkpt lat="49.8498" lon="2.47609">
        <ele>103.9</ele>
        <time>2020-10-21T14:15:22Z</time>
      </trkpt>
      <trkpt lat="49.8498" lon="2.47611">
        <ele>103.9</ele>
        <time>2020-10-21T14:15:23Z</time>
      </trkpt>
      <trkpt lat="49.8498" lon="2.47613">
        <ele>103.9</ele>
        <time>2020-10-21T14:15:25Z</time>
      </trkpt>
      <trkpt lat="49.8498" lon="2.47615">
        <ele>103.9</ele>
        <time>2020-10-21T14:15:26Z</time>
      </trkpt>
      <trkpt lat="49.84982" lon="2.47618">
        <ele>103.9</ele>
        <time>2020-10-21T14:15:27Z</time>
      </trkpt>
      <trkpt lat="49.84983" lon="2.47621">
        <ele>103.9</ele>
        <time>2020-10-21T14:15:29Z</time>
      </trkpt>
      <trkpt lat="49.84984" lon="2.47622">
        <ele>103.8</ele>
        <time>2020-10-21T14:15:31Z</time>
      </trkpt>
      <trkpt lat="49.84984" lon="2.47624">
        <ele>103.8</ele>
        <time>2020-10-21T14:15:32Z</time>
      </trkpt>
      <trkpt lat="49.84985" lon="2.47626">
        <ele>103.8</ele>
        <time>2020-10-21T14:15:33Z</time>
      </trkpt>
      <trkpt lat="49.84985" lon="2.47628">
        <ele>103.8</ele>
        <time>2020-10-21T14:15:35Z</time>
      </trkpt>
      <trkpt lat="49.84985" lon="2.47631">
        <ele>103.8</ele>
        <time>2020-10-21T14:15:36Z</time>
      </trkpt>
      <trkpt lat="49.84986" lon="2.47633">
        <ele>103.8</ele>
        <time>2020-10-21T14:15:37Z</time>
      </trkpt>
      <trkpt lat="49.84985" lon="2.47634">
        <ele>103.8</ele>
        <time>2020-10-21T14:15:38Z</time>
      </trkpt>
      <trkpt lat="49.84985" lon="2.47635">
        <ele>103.8</ele>
        <time>2020-10-21T14:15:39Z</time>
      </trkpt>
      <trkpt lat="49.84985" lon="2.47636">
        <ele>103.8</ele>
        <time>2020-10-21T14:15:41Z</time>
      </trkpt>
      <trkpt lat="49.84985" lon="2.47637">
        <ele>103.8</ele>
        <time>2020-10-21T14:15:42Z</time>
      </trkpt>
      <trkpt lat="49.84984" lon="2.47638">
        <ele>103.8</ele>
        <time>2020-10-21T14:15:43Z</time>
      </trkpt>
      <trkpt lat="49.84984" lon="2.47638">
        <ele>103.7</ele>
        <time>2020-10-21T14:15:44Z</time>
      </trkpt>
      <trkpt lat="49.84984" lon="2.4764">
        <ele>103.7</ele>
        <time>2020-10-21T14:15:45Z</time>
      </trkpt>
      <trkpt lat="49.84985" lon="2.47641">
        <ele>103.7</ele>
        <time>2020-10-21T14:15:46Z</time>
      </trkpt>
      <trkpt lat="49.84985" lon="2.47641">
        <ele>103.7</ele>
        <time>2020-10-21T14:15:47Z</time>
      </trkpt>
      <trkpt lat="49.84986" lon="2.47643">
        <ele>103.7</ele>
        <time>2020-10-21T14:15:49Z</time>
      </trkpt>
      <trkpt lat="49.84987" lon="2.47646">
        <ele>103.7</ele>
        <time>2020-10-21T14:15:50Z</time>
      </trkpt>
      <trkpt lat="49.84988" lon="2.47647">
        <ele>103.6</ele>
        <time>2020-10-21T14:15:51Z</time>
      </trkpt>
      <trkpt lat="49.84988" lon="2.47649">
        <ele>103.6</ele>
        <time>2020-10-21T14:15:52Z</time>
      </trkpt>
      <trkpt lat="49.84989" lon="2.4765">
        <ele>103.6</ele>
        <time>2020-10-21T14:15:53Z</time>
      </trkpt>
      <trkpt lat="49.84989" lon="2.47651">
        <ele>103.6</ele>
        <time>2020-10-21T14:15:54Z</time>
      </trkpt>
      <trkpt lat="49.84989" lon="2.47654">
        <ele>103.6</ele>
        <time>2020-10-21T14:15:56Z</time>
      </trkpt>
      <trkpt lat="49.8499" lon="2.47655">
        <ele>103.6</ele>
        <time>2020-10-21T14:15:57Z</time>
      </trkpt>
      <trkpt lat="49.8499" lon="2.47657">
        <ele>103.5</ele>
        <time>2020-10-21T14:15:58Z</time>
      </trkpt>
      <trkpt lat="49.8499" lon="2.47658">
        <ele>103.5</ele>
        <time>2020-10-21T14:15:59Z</time>
      </trkpt>
      <trkpt lat="49.8499" lon="2.4766">
        <ele>103.5</ele>
        <time>2020-10-21T14:16:00Z</time>
      </trkpt>
      <trkpt lat="49.8499" lon="2.47662">
        <ele>103.5</ele>
        <time>2020-10-21T14:16:01Z</time>
      </trkpt>
      <trkpt lat="49.8499" lon="2.47665">
        <ele>103.5</ele>
        <time>2020-10-21T14:16:02Z</time>
      </trkpt>
      <trkpt lat="49.8499" lon="2.47667">
        <ele>103.5</ele>
        <time>2020-10-21T14:16:04Z</time>
      </trkpt>
      <trkpt lat="49.84991" lon="2.47669">
        <ele>103.5</ele>
        <time>2020-10-21T14:16:05Z</time>
      </trkpt>
      <trkpt lat="49.84991" lon="2.47671">
        <ele>103.5</ele>
        <time>2020-10-21T14:16:06Z</time>
      </trkpt>
      <trkpt lat="49.84991" lon="2.47672">
        <ele>103.5</ele>
        <time>2020-10-21T14:16:07Z</time>
      </trkpt>
      <trkpt lat="49.84991" lon="2.47674">
        <ele>103.5</ele>
        <time>2020-10-21T14:16:08Z</time>
      </trkpt>
      <trkpt lat="49.84992" lon="2.47676">
        <ele>103.5</ele>
        <time>2020-10-21T14:16:09Z</time>
      </trkpt>
      <trkpt lat="49.84993" lon="2.4768">
        <ele>103.5</ele>
        <time>2020-10-21T14:16:11Z</time>
      </trkpt>
      <trkpt lat="49.84994" lon="2.47682">
        <ele>103.5</ele>
        <time>2020-10-21T14:16:12Z</time>
      </trkpt>
      <trkpt lat="49.84994" lon="2.47685">
        <ele>103.4</ele>
        <time>2020-10-21T14:16:13Z</time>
      </trkpt>
      <trkpt lat="49.84994" lon="2.47687">
        <ele>103.4</ele>
        <time>2020-10-21T14:16:14Z</time>
      </trkpt>
      <trkpt lat="49.84994" lon="2.4769">
        <ele>103.4</ele>
        <time>2020-10-21T14:16:15Z</time>
      </trkpt>
      <trkpt lat="49.84995" lon="2.47692">
        <ele>103.4</ele>
        <time>2020-10-21T14:16:16Z</time>
      </trkpt>
      <trkpt lat="49.84995" lon="2.47694">
        <ele>103.4</ele>
        <time>2020-10-21T14:16:17Z</time>
      </trkpt>
      <trkpt lat="49.84995" lon="2.47697">
        <ele>103.4</ele>
        <time>2020-10-21T14:16:19Z</time>
      </trkpt>
      <trkpt lat="49.84995" lon="2.47699">
        <ele>103.4</ele>
        <time>2020-10-21T14:16:20Z</time>
      </trkpt>
      <trkpt lat="49.84995" lon="2.47702">
        <ele>103.4</ele>
        <time>2020-10-21T14:16:21Z</time>
      </trkpt>
      <trkpt lat="49.84996" lon="2.47704">
        <ele>103.4</ele>
        <time>2020-10-21T14:16:22Z</time>
      </trkpt>
      <trkpt lat="49.84997" lon="2.47706">
        <ele>103.4</ele>
        <time>2020-10-21T14:16:23Z</time>
      </trkpt>
      <trkpt lat="49.84997" lon="2.47708">
        <ele>103.4</ele>
        <time>2020-10-21T14:16:24Z</time>
      </trkpt>
      <trkpt lat="49.84998" lon="2.47709">
        <ele>103.3</ele>
        <time>2020-10-21T14:16:25Z</time>
      </trkpt>
      <trkpt lat="49.84999" lon="2.47712">
        <ele>103.3</ele>
        <time>2020-10-21T14:16:26Z</time>
      </trkpt>
      <trkpt lat="49.85" lon="2.47715">
        <ele>103.3</ele>
        <time>2020-10-21T14:16:28Z</time>
      </trkpt>
      <trkpt lat="49.85" lon="2.47716">
        <ele>103.3</ele>
        <time>2020-10-21T14:16:29Z</time>
      </trkpt>
      <trkpt lat="49.85001" lon="2.47717">
        <ele>103.3</ele>
        <time>2020-10-21T14:16:30Z</time>
      </trkpt>
      <trkpt lat="49.85001" lon="2.47719">
        <ele>103.3</ele>
        <time>2020-10-21T14:16:31Z</time>
      </trkpt>
      <trkpt lat="49.85001" lon="2.4772">
        <ele>103.3</ele>
        <time>2020-10-21T14:16:32Z</time>
      </trkpt>
      <trkpt lat="49.85002" lon="2.47723">
        <ele>103.2</ele>
        <time>2020-10-21T14:16:34Z</time>
      </trkpt>
      <trkpt lat="49.85002" lon="2.47725">
        <ele>103.2</ele>
        <time>2020-10-21T14:16:35Z</time>
      </trkpt>
      <trkpt lat="49.85002" lon="2.47727">
        <ele>103.2</ele>
        <time>2020-10-21T14:16:36Z</time>
      </trkpt>
      <trkpt lat="49.85002" lon="2.47729">
        <ele>103.2</ele>
        <time>2020-10-21T14:16:37Z</time>
      </trkpt>
      <trkpt lat="49.85002" lon="2.47732">
        <ele>103.2</ele>
        <time>2020-10-21T14:16:38Z</time>
      </trkpt>
      <trkpt lat="49.85002" lon="2.47735">
        <ele>103.1</ele>
        <time>2020-10-21T14:16:39Z</time>
      </trkpt>
      <trkpt lat="49.85001" lon="2.47737">
        <ele>103.1</ele>
        <time>2020-10-21T14:16:41Z</time>
      </trkpt>
      <trkpt lat="49.85001" lon="2.47739">
        <ele>103.1</ele>
        <time>2020-10-21T14:16:42Z</time>
      </trkpt>
      <trkpt lat="49.85" lon="2.47741">
        <ele>103.1</ele>
        <time>2020-10-21T14:16:43Z</time>
      </trkpt>
      <trkpt lat="49.84999" lon="2.47745">
        <ele>103.1</ele>
        <time>2020-10-21T14:16:44Z</time>
      </trkpt>
      <trkpt lat="49.84999" lon="2.47746">
        <ele>103.1</ele>
        <time>2020-10-21T14:16:45Z</time>
      </trkpt>
      <trkpt lat="49.84999" lon="2.47747">
        <ele>103.1</ele>
        <time>2020-10-21T14:16:46Z</time>
      </trkpt>
      <trkpt lat="49.84998" lon="2.47749">
        <ele>103.1</ele>
        <time>2020-10-21T14:16:47Z</time>
      </trkpt>
      <trkpt lat="49.84998" lon="2.47752">
        <ele>103.1</ele>
        <time>2020-10-21T14:16:49Z</time>
      </trkpt>
      <trkpt lat="49.84998" lon="2.47754">
        <ele>103.1</ele>
        <time>2020-10-21T14:16:50Z</time>
      </trkpt>
      <trkpt lat="49.84998" lon="2.47756">
        <ele>103</ele>
        <time>2020-10-21T14:16:51Z</time>
      </trkpt>
      <trkpt lat="49.84998" lon="2.4776">
        <ele>103</ele>
        <time>2020-10-21T14:16:52Z</time>
      </trkpt>
      <trkpt lat="49.84999" lon="2.47761">
        <ele>103</ele>
        <time>2020-10-21T14:16:53Z</time>
      </trkpt>
      <trkpt lat="49.84999" lon="2.47762">
        <ele>103</ele>
        <time>2020-10-21T14:16:54Z</time>
      </trkpt>
      <trkpt lat="49.84999" lon="2.47765">
        <ele>103</ele>
        <time>2020-10-21T14:16:55Z</time>
      </trkpt>
      <trkpt lat="49.84999" lon="2.47767">
        <ele>103</ele>
        <time>2020-10-21T14:16:56Z</time>
      </trkpt>
      <trkpt lat="49.84999" lon="2.47769">
        <ele>103</ele>
        <time>2020-10-21T14:16:57Z</time>
      </trkpt>
      <trkpt lat="49.85" lon="2.47771">
        <ele>103</ele>
        <time>2020-10-21T14:16:58Z</time>
      </trkpt>
      <trkpt lat="49.85" lon="2.47774">
        <ele>103</ele>
        <time>2020-10-21T14:17:00Z</time>
      </trkpt>
      <trkpt lat="49.85001" lon="2.47776">
        <ele>103</ele>
        <time>2020-10-21T14:17:01Z</time>
      </trkpt>
      <trkpt lat="49.85001" lon="2.47779">
        <ele>103</ele>
        <time>2020-10-21T14:17:02Z</time>
      </trkpt>
      <trkpt lat="49.85001" lon="2.47781">
        <ele>103</ele>
        <time>2020-10-21T14:17:03Z</time>
      </trkpt>
      <trkpt lat="49.85002" lon="2.47784">
        <ele>102.9</ele>
        <time>2020-10-21T14:17:04Z</time>
      </trkpt>
      <trkpt lat="49.85002" lon="2.47786">
        <ele>102.9</ele>
        <time>2020-10-21T14:17:06Z</time>
      </trkpt>
      <trkpt lat="49.85003" lon="2.47788">
        <ele>102.9</ele>
        <time>2020-10-21T14:17:07Z</time>
      </trkpt>
      <trkpt lat="49.85003" lon="2.47791">
        <ele>102.9</ele>
        <time>2020-10-21T14:17:08Z</time>
      </trkpt>
      <trkpt lat="49.85003" lon="2.47793">
        <ele>102.9</ele>
        <time>2020-10-21T14:17:09Z</time>
      </trkpt>
      <trkpt lat="49.85003" lon="2.47798">
        <ele>102.9</ele>
        <time>2020-10-21T14:17:11Z</time>
      </trkpt>
      <trkpt lat="49.85003" lon="2.47799">
        <ele>102.9</ele>
        <time>2020-10-21T14:17:12Z</time>
      </trkpt>
      <trkpt lat="49.85003" lon="2.47803">
        <ele>102.9</ele>
        <time>2020-10-21T14:17:14Z</time>
      </trkpt>
      <trkpt lat="49.85003" lon="2.47805">
        <ele>102.9</ele>
        <time>2020-10-21T14:17:15Z</time>
      </trkpt>
      <trkpt lat="49.85003" lon="2.47807">
        <ele>102.9</ele>
        <time>2020-10-21T14:17:16Z</time>
      </trkpt>
      <trkpt lat="49.85003" lon="2.47809">
        <ele>102.9</ele>
        <time>2020-10-21T14:17:17Z</time>
      </trkpt>
      <trkpt lat="49.85004" lon="2.47814">
        <ele>102.9</ele>
        <time>2020-10-21T14:17:20Z</time>
      </trkpt>
      <trkpt lat="49.85004" lon="2.47816">
        <ele>102.9</ele>
        <time>2020-10-21T14:17:21Z</time>
      </trkpt>
      <trkpt lat="49.85005" lon="2.47818">
        <ele>102.8</ele>
        <time>2020-10-21T14:17:22Z</time>
      </trkpt>
      <trkpt lat="49.85005" lon="2.47822">
        <ele>102.8</ele>
        <time>2020-10-21T14:17:23Z</time>
      </trkpt>
      <trkpt lat="49.85005" lon="2.47823">
        <ele>102.8</ele>
        <time>2020-10-21T14:17:24Z</time>
      </trkpt>
      <trkpt lat="49.85005" lon="2.47824">
        <ele>102.8</ele>
        <time>2020-10-21T14:17:25Z</time>
      </trkpt>
      <trkpt lat="49.85006" lon="2.47827">
        <ele>102.8</ele>
        <time>2020-10-21T14:17:26Z</time>
      </trkpt>
      <trkpt lat="49.85006" lon="2.47829">
        <ele>102.8</ele>
        <time>2020-10-21T14:17:27Z</time>
      </trkpt>
      <trkpt lat="49.85007" lon="2.4783">
        <ele>102.8</ele>
        <time>2020-10-21T14:17:28Z</time>
      </trkpt>
      <trkpt lat="49.85007" lon="2.47832">
        <ele>102.8</ele>
        <time>2020-10-21T14:17:29Z</time>
      </trkpt>
      <trkpt lat="49.85007" lon="2.47834">
        <ele>102.8</ele>
        <time>2020-10-21T14:17:30Z</time>
      </trkpt>
      <trkpt lat="49.85007" lon="2.47837">
        <ele>102.8</ele>
        <time>2020-10-21T14:17:32Z</time>
      </trkpt>
      <trkpt lat="49.85007" lon="2.47839">
        <ele>102.8</ele>
        <time>2020-10-21T14:17:33Z</time>
      </trkpt>
      <trkpt lat="49.85007" lon="2.47841">
        <ele>102.8</ele>
        <time>2020-10-21T14:17:34Z</time>
      </trkpt>
      <trkpt lat="49.85007" lon="2.47844">
        <ele>102.7</ele>
        <time>2020-10-21T14:17:35Z</time>
      </trkpt>
      <trkpt lat="49.85007" lon="2.47846">
        <ele>102.7</ele>
        <time>2020-10-21T14:17:36Z</time>
      </trkpt>
      <trkpt lat="49.85007" lon="2.4785">
        <ele>102.7</ele>
        <time>2020-10-21T14:17:38Z</time>
      </trkpt>
      <trkpt lat="49.85007" lon="2.47853">
        <ele>102.7</ele>
        <time>2020-10-21T14:17:40Z</time>
      </trkpt>
      <trkpt lat="49.85006" lon="2.47855">
        <ele>102.7</ele>
        <time>2020-10-21T14:17:41Z</time>
      </trkpt>
      <trkpt lat="49.85006" lon="2.47856">
        <ele>102.7</ele>
        <time>2020-10-21T14:17:42Z</time>
      </trkpt>
      <trkpt lat="49.85007" lon="2.47858">
        <ele>102.7</ele>
        <time>2020-10-21T14:17:43Z</time>
      </trkpt>
      <trkpt lat="49.85007" lon="2.47859">
        <ele>102.7</ele>
        <time>2020-10-21T14:17:44Z</time>
      </trkpt>
      <trkpt lat="49.85007" lon="2.47861">
        <ele>102.7</ele>
        <time>2020-10-21T14:17:45Z</time>
      </trkpt>
      <trkpt lat="49.85007" lon="2.47863">
        <ele>102.7</ele>
        <time>2020-10-21T14:17:46Z</time>
      </trkpt>
      <trkpt lat="49.85007" lon="2.47865">
        <ele>102.7</ele>
        <time>2020-10-21T14:17:47Z</time>
      </trkpt>
      <trkpt lat="49.85007" lon="2.47867">
        <ele>102.7</ele>
        <time>2020-10-21T14:17:48Z</time>
      </trkpt>
      <trkpt lat="49.85007" lon="2.4787">
        <ele>102.7</ele>
        <time>2020-10-21T14:17:49Z</time>
      </trkpt>
      <trkpt lat="49.85008" lon="2.47872">
        <ele>102.7</ele>
        <time>2020-10-21T14:17:50Z</time>
      </trkpt>
      <trkpt lat="49.85009" lon="2.47875">
        <ele>102.7</ele>
        <time>2020-10-21T14:17:51Z</time>
      </trkpt>
      <trkpt lat="49.85009" lon="2.47876">
        <ele>102.7</ele>
        <time>2020-10-21T14:17:52Z</time>
      </trkpt>
      <trkpt lat="49.85009" lon="2.47877">
        <ele>102.7</ele>
        <time>2020-10-21T14:17:53Z</time>
      </trkpt>
      <trkpt lat="49.8501" lon="2.4788">
        <ele>102.7</ele>
        <time>2020-10-21T14:17:55Z</time>
      </trkpt>
      <trkpt lat="49.8501" lon="2.47882">
        <ele>102.7</ele>
        <time>2020-10-21T14:17:56Z</time>
      </trkpt>
      <trkpt lat="49.85011" lon="2.47883">
        <ele>102.7</ele>
        <time>2020-10-21T14:17:57Z</time>
      </trkpt>
      <trkpt lat="49.85011" lon="2.47885">
        <ele>102.6</ele>
        <time>2020-10-21T14:17:58Z</time>
      </trkpt>
      <trkpt lat="49.85011" lon="2.47887">
        <ele>102.6</ele>
        <time>2020-10-21T14:17:59Z</time>
      </trkpt>
      <trkpt lat="49.85012" lon="2.47888">
        <ele>102.6</ele>
        <time>2020-10-21T14:18:00Z</time>
      </trkpt>
      <trkpt lat="49.85012" lon="2.4789">
        <ele>102.6</ele>
        <time>2020-10-21T14:18:01Z</time>
      </trkpt>
      <trkpt lat="49.85012" lon="2.47892">
        <ele>102.6</ele>
        <time>2020-10-21T14:18:02Z</time>
      </trkpt>
      <trkpt lat="49.85013" lon="2.47894">
        <ele>102.6</ele>
        <time>2020-10-21T14:18:03Z</time>
      </trkpt>
      <trkpt lat="49.85014" lon="2.47897">
        <ele>102.6</ele>
        <time>2020-10-21T14:18:05Z</time>
      </trkpt>
      <trkpt lat="49.85014" lon="2.47899">
        <ele>102.6</ele>
        <time>2020-10-21T14:18:06Z</time>
      </trkpt>
      <trkpt lat="49.85014" lon="2.47901">
        <ele>102.5</ele>
        <time>2020-10-21T14:18:07Z</time>
      </trkpt>
      <trkpt lat="49.85015" lon="2.47902">
        <ele>102.5</ele>
        <time>2020-10-21T14:18:08Z</time>
      </trkpt>
      <trkpt lat="49.85015" lon="2.47904">
        <ele>102.5</ele>
        <time>2020-10-21T14:18:09Z</time>
      </trkpt>
      <trkpt lat="49.85016" lon="2.47907">
        <ele>102.5</ele>
        <time>2020-10-21T14:18:10Z</time>
      </trkpt>
      <trkpt lat="49.85016" lon="2.4791">
        <ele>102.5</ele>
        <time>2020-10-21T14:18:11Z</time>
      </trkpt>
      <trkpt lat="49.85016" lon="2.47911">
        <ele>102.5</ele>
        <time>2020-10-21T14:18:12Z</time>
      </trkpt>
      <trkpt lat="49.85017" lon="2.47912">
        <ele>102.5</ele>
        <time>2020-10-21T14:18:13Z</time>
      </trkpt>
      <trkpt lat="49.85017" lon="2.47914">
        <ele>102.4</ele>
        <time>2020-10-21T14:18:14Z</time>
      </trkpt>
      <trkpt lat="49.85017" lon="2.47916">
        <ele>102.4</ele>
        <time>2020-10-21T14:18:15Z</time>
      </trkpt>
      <trkpt lat="49.85017" lon="2.47918">
        <ele>102.4</ele>
        <time>2020-10-21T14:18:16Z</time>
      </trkpt>
      <trkpt lat="49.85018" lon="2.47921">
        <ele>102.4</ele>
        <time>2020-10-21T14:18:18Z</time>
      </trkpt>
      <trkpt lat="49.85018" lon="2.47923">
        <ele>102.4</ele>
        <time>2020-10-21T14:18:19Z</time>
      </trkpt>
      <trkpt lat="49.85019" lon="2.47925">
        <ele>102.4</ele>
        <time>2020-10-21T14:18:20Z</time>
      </trkpt>
      <trkpt lat="49.8502" lon="2.47927">
        <ele>102.4</ele>
        <time>2020-10-21T14:18:21Z</time>
      </trkpt>
      <trkpt lat="49.8502" lon="2.4793">
        <ele>102.4</ele>
        <time>2020-10-21T14:18:22Z</time>
      </trkpt>
      <trkpt lat="49.8502" lon="2.47931">
        <ele>102.3</ele>
        <time>2020-10-21T14:18:23Z</time>
      </trkpt>
      <trkpt lat="49.85021" lon="2.47933">
        <ele>102.3</ele>
        <time>2020-10-21T14:18:24Z</time>
      </trkpt>
      <trkpt lat="49.85021" lon="2.47934">
        <ele>102.3</ele>
        <time>2020-10-21T14:18:25Z</time>
      </trkpt>
      <trkpt lat="49.85022" lon="2.47936">
        <ele>102.3</ele>
        <time>2020-10-21T14:18:27Z</time>
      </trkpt>
      <trkpt lat="49.85022" lon="2.47938">
        <ele>102.3</ele>
        <time>2020-10-21T14:18:28Z</time>
      </trkpt>
      <trkpt lat="49.85023" lon="2.47939">
        <ele>102.3</ele>
        <time>2020-10-21T14:18:29Z</time>
      </trkpt>
      <trkpt lat="49.85024" lon="2.4794">
        <ele>102.3</ele>
        <time>2020-10-21T14:18:30Z</time>
      </trkpt>
      <trkpt lat="49.85024" lon="2.47942">
        <ele>102.3</ele>
        <time>2020-10-21T14:18:31Z</time>
      </trkpt>
      <trkpt lat="49.85025" lon="2.47944">
        <ele>102.3</ele>
        <time>2020-10-21T14:18:32Z</time>
      </trkpt>
      <trkpt lat="49.85025" lon="2.47946">
        <ele>102.3</ele>
        <time>2020-10-21T14:18:34Z</time>
      </trkpt>
      <trkpt lat="49.85026" lon="2.47948">
        <ele>102.3</ele>
        <time>2020-10-21T14:18:35Z</time>
      </trkpt>
      <trkpt lat="49.85026" lon="2.47951">
        <ele>102.3</ele>
        <time>2020-10-21T14:18:36Z</time>
      </trkpt>
      <trkpt lat="49.85027" lon="2.47953">
        <ele>102.3</ele>
        <time>2020-10-21T14:18:37Z</time>
      </trkpt>
      <trkpt lat="49.85027" lon="2.47954">
        <ele>102.3</ele>
        <time>2020-10-21T14:18:38Z</time>
      </trkpt>
      <trkpt lat="49.85027" lon="2.47956">
        <ele>102.3</ele>
        <time>2020-10-21T14:18:39Z</time>
      </trkpt>
      <trkpt lat="49.85027" lon="2.47957">
        <ele>102.3</ele>
        <time>2020-10-21T14:18:40Z</time>
      </trkpt>
      <trkpt lat="49.85027" lon="2.47959">
        <ele>102.3</ele>
        <time>2020-10-21T14:18:41Z</time>
      </trkpt>
      <trkpt lat="49.85027" lon="2.47963">
        <ele>102.3</ele>
        <time>2020-10-21T14:18:42Z</time>
      </trkpt>
      <trkpt lat="49.85027" lon="2.47964">
        <ele>102.3</ele>
        <time>2020-10-21T14:18:44Z</time>
      </trkpt>
      <trkpt lat="49.85027" lon="2.47966">
        <ele>102.3</ele>
        <time>2020-10-21T14:18:45Z</time>
      </trkpt>
      <trkpt lat="49.85027" lon="2.47968">
        <ele>102.3</ele>
        <time>2020-10-21T14:18:46Z</time>
      </trkpt>
      <trkpt lat="49.85027" lon="2.4797">
        <ele>102.3</ele>
        <time>2020-10-21T14:18:47Z</time>
      </trkpt>
      <trkpt lat="49.85028" lon="2.47972">
        <ele>102.3</ele>
        <time>2020-10-21T14:18:48Z</time>
      </trkpt>
      <trkpt lat="49.85028" lon="2.47974">
        <ele>102.3</ele>
        <time>2020-10-21T14:18:49Z</time>
      </trkpt>
      <trkpt lat="49.85028" lon="2.47977">
        <ele>102.3</ele>
        <time>2020-10-21T14:18:50Z</time>
      </trkpt>
      <trkpt lat="49.85028" lon="2.47979">
        <ele>102.3</ele>
        <time>2020-10-21T14:18:52Z</time>
      </trkpt>
      <trkpt lat="49.85028" lon="2.4798">
        <ele>102.3</ele>
        <time>2020-10-21T14:18:53Z</time>
      </trkpt>
      <trkpt lat="49.85029" lon="2.47983">
        <ele>102.3</ele>
        <time>2020-10-21T14:18:54Z</time>
      </trkpt>
      <trkpt lat="49.85029" lon="2.47984">
        <ele>102.3</ele>
        <time>2020-10-21T14:18:55Z</time>
      </trkpt>
      <trkpt lat="49.85029" lon="2.47986">
        <ele>102.3</ele>
        <time>2020-10-21T14:18:56Z</time>
      </trkpt>
      <trkpt lat="49.85029" lon="2.47988">
        <ele>102.3</ele>
        <time>2020-10-21T14:18:58Z</time>
      </trkpt>
      <trkpt lat="49.85029" lon="2.4799">
        <ele>102.3</ele>
        <time>2020-10-21T14:18:59Z</time>
      </trkpt>
      <trkpt lat="49.8503" lon="2.47994">
        <ele>102.2</ele>
        <time>2020-10-21T14:19:00Z</time>
      </trkpt>
      <trkpt lat="49.8503" lon="2.47995">
        <ele>102.2</ele>
        <time>2020-10-21T14:19:01Z</time>
      </trkpt>
      <trkpt lat="49.8503" lon="2.47997">
        <ele>102.2</ele>
        <time>2020-10-21T14:19:02Z</time>
      </trkpt>
      <trkpt lat="49.8503" lon="2.47999">
        <ele>102.2</ele>
        <time>2020-10-21T14:19:03Z</time>
      </trkpt>
      <trkpt lat="49.8503" lon="2.48001">
        <ele>102.2</ele>
        <time>2020-10-21T14:19:04Z</time>
      </trkpt>
      <trkpt lat="49.8503" lon="2.48003">
        <ele>102.2</ele>
        <time>2020-10-21T14:19:06Z</time>
      </trkpt>
      <trkpt lat="49.8503" lon="2.48005">
        <ele>102.2</ele>
        <time>2020-10-21T14:19:07Z</time>
      </trkpt>
      <trkpt lat="49.85029" lon="2.48006">
        <ele>102.2</ele>
        <time>2020-10-21T14:19:08Z</time>
      </trkpt>
      <trkpt lat="49.85028" lon="2.48007">
        <ele>102.2</ele>
        <time>2020-10-21T14:19:09Z</time>
      </trkpt>
      <trkpt lat="49.85028" lon="2.48009">
        <ele>102.2</ele>
        <time>2020-10-21T14:19:10Z</time>
      </trkpt>
      <trkpt lat="49.85028" lon="2.4801">
        <ele>102.2</ele>
        <time>2020-10-21T14:19:11Z</time>
      </trkpt>
      <trkpt lat="49.85029" lon="2.48014">
        <ele>102.2</ele>
        <time>2020-10-21T14:19:12Z</time>
      </trkpt>
      <trkpt lat="49.85029" lon="2.48015">
        <ele>102.1</ele>
        <time>2020-10-21T14:19:13Z</time>
      </trkpt>
      <trkpt lat="49.85029" lon="2.48016">
        <ele>102.1</ele>
        <time>2020-10-21T14:19:14Z</time>
      </trkpt>
      <trkpt lat="49.85029" lon="2.48018">
        <ele>102.1</ele>
        <time>2020-10-21T14:19:15Z</time>
      </trkpt>
      <trkpt lat="49.8503" lon="2.48021">
        <ele>102.1</ele>
        <time>2020-10-21T14:19:16Z</time>
      </trkpt>
      <trkpt lat="49.8503" lon="2.48023">
        <ele>102.1</ele>
        <time>2020-10-21T14:19:17Z</time>
      </trkpt>
      <trkpt lat="49.85031" lon="2.48025">
        <ele>102.1</ele>
        <time>2020-10-21T14:19:18Z</time>
      </trkpt>
      <trkpt lat="49.85031" lon="2.48028">
        <ele>102.1</ele>
        <time>2020-10-21T14:19:20Z</time>
      </trkpt>
      <trkpt lat="49.85031" lon="2.4803">
        <ele>102.1</ele>
        <time>2020-10-21T14:19:21Z</time>
      </trkpt>
      <trkpt lat="49.85031" lon="2.48032">
        <ele>102.1</ele>
        <time>2020-10-21T14:19:22Z</time>
      </trkpt>
      <trkpt lat="49.85031" lon="2.48034">
        <ele>102.1</ele>
        <time>2020-10-21T14:19:24Z</time>
      </trkpt>
      <trkpt lat="49.85032" lon="2.48037">
        <ele>102.1</ele>
        <time>2020-10-21T14:19:25Z</time>
      </trkpt>
      <trkpt lat="49.85032" lon="2.48039">
        <ele>102</ele>
        <time>2020-10-21T14:19:26Z</time>
      </trkpt>
      <trkpt lat="49.85033" lon="2.48041">
        <ele>102</ele>
        <time>2020-10-21T14:19:27Z</time>
      </trkpt>
      <trkpt lat="49.85033" lon="2.48043">
        <ele>102</ele>
        <time>2020-10-21T14:19:28Z</time>
      </trkpt>
      <trkpt lat="49.85034" lon="2.48045">
        <ele>102</ele>
        <time>2020-10-21T14:19:29Z</time>
      </trkpt>
      <trkpt lat="49.85035" lon="2.48048">
        <ele>102</ele>
        <time>2020-10-21T14:19:30Z</time>
      </trkpt>
      <trkpt lat="49.85034" lon="2.48053">
        <ele>102</ele>
        <time>2020-10-21T14:19:32Z</time>
      </trkpt>
      <trkpt lat="49.85034" lon="2.48053">
        <ele>102</ele>
        <time>2020-10-21T14:19:33Z</time>
      </trkpt>
      <trkpt lat="49.85035" lon="2.48056">
        <ele>102</ele>
        <time>2020-10-21T14:19:35Z</time>
      </trkpt>
      <trkpt lat="49.85035" lon="2.48058">
        <ele>102</ele>
        <time>2020-10-21T14:19:36Z</time>
      </trkpt>
      <trkpt lat="49.85035" lon="2.48059">
        <ele>102</ele>
        <time>2020-10-21T14:19:37Z</time>
      </trkpt>
      <trkpt lat="49.85035" lon="2.48061">
        <ele>102</ele>
        <time>2020-10-21T14:19:38Z</time>
      </trkpt>
      <trkpt lat="49.85036" lon="2.48063">
        <ele>102</ele>
        <time>2020-10-21T14:19:39Z</time>
      </trkpt>
      <trkpt lat="49.85036" lon="2.48064">
        <ele>102</ele>
        <time>2020-10-21T14:19:40Z</time>
      </trkpt>
      <trkpt lat="49.85036" lon="2.48065">
        <ele>101.9</ele>
        <time>2020-10-21T14:19:41Z</time>
      </trkpt>
      <trkpt lat="49.85037" lon="2.48067">
        <ele>101.9</ele>
        <time>2020-10-21T14:19:43Z</time>
      </trkpt>
      <trkpt lat="49.85037" lon="2.48069">
        <ele>101.9</ele>
        <time>2020-10-21T14:19:44Z</time>
      </trkpt>
      <trkpt lat="49.85037" lon="2.48071">
        <ele>101.9</ele>
        <time>2020-10-21T14:19:45Z</time>
      </trkpt>
      <trkpt lat="49.85037" lon="2.48073">
        <ele>101.9</ele>
        <time>2020-10-21T14:19:46Z</time>
      </trkpt>
      <trkpt lat="49.85037" lon="2.48075">
        <ele>101.9</ele>
        <time>2020-10-21T14:19:47Z</time>
      </trkpt>
      <trkpt lat="49.85038" lon="2.48078">
        <ele>101.9</ele>
        <time>2020-10-21T14:19:49Z</time>
      </trkpt>
      <trkpt lat="49.85038" lon="2.48079">
        <ele>101.9</ele>
        <time>2020-10-21T14:19:50Z</time>
      </trkpt>
      <trkpt lat="49.85039" lon="2.4808">
        <ele>101.9</ele>
        <time>2020-10-21T14:19:51Z</time>
      </trkpt>
      <trkpt lat="49.85039" lon="2.48082">
        <ele>101.9</ele>
        <time>2020-10-21T14:19:52Z</time>
      </trkpt>
      <trkpt lat="49.85039" lon="2.48084">
        <ele>101.9</ele>
        <time>2020-10-21T14:19:53Z</time>
      </trkpt>
      <trkpt lat="49.8504" lon="2.48085">
        <ele>101.9</ele>
        <time>2020-10-21T14:19:54Z</time>
      </trkpt>
      <trkpt lat="49.8504" lon="2.48086">
        <ele>101.9</ele>
        <time>2020-10-21T14:19:55Z</time>
      </trkpt>
      <trkpt lat="49.8504" lon="2.48088">
        <ele>101.9</ele>
        <time>2020-10-21T14:19:56Z</time>
      </trkpt>
      <trkpt lat="49.85041" lon="2.4809">
        <ele>101.9</ele>
        <time>2020-10-21T14:19:57Z</time>
      </trkpt>
      <trkpt lat="49.85042" lon="2.48092">
        <ele>101.9</ele>
        <time>2020-10-21T14:19:58Z</time>
      </trkpt>
      <trkpt lat="49.85042" lon="2.48093">
        <ele>101.9</ele>
        <time>2020-10-21T14:20:00Z</time>
      </trkpt>
      <trkpt lat="49.85043" lon="2.48095">
        <ele>101.8</ele>
        <time>2020-10-21T14:20:01Z</time>
      </trkpt>
      <trkpt lat="49.85043" lon="2.48097">
        <ele>101.8</ele>
        <time>2020-10-21T14:20:02Z</time>
      </trkpt>
      <trkpt lat="49.85043" lon="2.48098">
        <ele>101.8</ele>
        <time>2020-10-21T14:20:03Z</time>
      </trkpt>
      <trkpt lat="49.85043" lon="2.481">
        <ele>101.8</ele>
        <time>2020-10-21T14:20:04Z</time>
      </trkpt>
      <trkpt lat="49.85044" lon="2.48101">
        <ele>101.8</ele>
        <time>2020-10-21T14:20:05Z</time>
      </trkpt>
      <trkpt lat="49.85044" lon="2.48103">
        <ele>101.8</ele>
        <time>2020-10-21T14:20:06Z</time>
      </trkpt>
      <trkpt lat="49.85044" lon="2.48105">
        <ele>101.8</ele>
        <time>2020-10-21T14:20:07Z</time>
      </trkpt>
      <trkpt lat="49.85045" lon="2.48107">
        <ele>101.8</ele>
        <time>2020-10-21T14:20:08Z</time>
      </trkpt>
      <trkpt lat="49.85045" lon="2.48108">
        <ele>101.8</ele>
        <time>2020-10-21T14:20:09Z</time>
      </trkpt>
      <trkpt lat="49.85046" lon="2.4811">
        <ele>101.8</ele>
        <time>2020-10-21T14:20:10Z</time>
      </trkpt>
      <trkpt lat="49.85046" lon="2.48112">
        <ele>101.7</ele>
        <time>2020-10-21T14:20:12Z</time>
      </trkpt>
      <trkpt lat="49.85046" lon="2.48115">
        <ele>101.7</ele>
        <time>2020-10-21T14:20:13Z</time>
      </trkpt>
      <trkpt lat="49.85047" lon="2.48116">
        <ele>101.7</ele>
        <time>2020-10-21T14:20:14Z</time>
      </trkpt>
      <trkpt lat="49.85047" lon="2.48118">
        <ele>101.7</ele>
        <time>2020-10-21T14:20:15Z</time>
      </trkpt>
      <trkpt lat="49.85047" lon="2.4812">
        <ele>101.7</ele>
        <time>2020-10-21T14:20:16Z</time>
      </trkpt>
      <trkpt lat="49.85047" lon="2.48123">
        <ele>101.7</ele>
        <time>2020-10-21T14:20:17Z</time>
      </trkpt>
      <trkpt lat="49.85047" lon="2.48124">
        <ele>101.6</ele>
        <time>2020-10-21T14:20:19Z</time>
      </trkpt>
      <trkpt lat="49.85047" lon="2.48125">
        <ele>101.6</ele>
        <time>2020-10-21T14:20:20Z</time>
      </trkpt>
      <trkpt lat="49.85048" lon="2.48129">
        <ele>101.6</ele>
        <time>2020-10-21T14:20:21Z</time>
      </trkpt>
      <trkpt lat="49.85048" lon="2.4813">
        <ele>101.6</ele>
        <time>2020-10-21T14:20:22Z</time>
      </trkpt>
      <trkpt lat="49.85048" lon="2.48131">
        <ele>101.6</ele>
        <time>2020-10-21T14:20:23Z</time>
      </trkpt>
      <trkpt lat="49.85049" lon="2.48135">
        <ele>101.5</ele>
        <time>2020-10-21T14:20:24Z</time>
      </trkpt>
      <trkpt lat="49.85049" lon="2.48136">
        <ele>101.5</ele>
        <time>2020-10-21T14:20:25Z</time>
      </trkpt>
      <trkpt lat="49.85049" lon="2.48138">
        <ele>101.5</ele>
        <time>2020-10-21T14:20:26Z</time>
      </trkpt>
      <trkpt lat="49.85049" lon="2.48141">
        <ele>101.5</ele>
        <time>2020-10-21T14:20:27Z</time>
      </trkpt>
      <trkpt lat="49.85049" lon="2.48142">
        <ele>101.5</ele>
        <time>2020-10-21T14:20:28Z</time>
      </trkpt>
      <trkpt lat="49.85049" lon="2.48144">
        <ele>101.5</ele>
        <time>2020-10-21T14:20:29Z</time>
      </trkpt>
      <trkpt lat="49.85049" lon="2.48146">
        <ele>101.4</ele>
        <time>2020-10-21T14:20:31Z</time>
      </trkpt>
      <trkpt lat="49.8505" lon="2.48148">
        <ele>101.4</ele>
        <time>2020-10-21T14:20:32Z</time>
      </trkpt>
      <trkpt lat="49.8505" lon="2.48149">
        <ele>101.4</ele>
        <time>2020-10-21T14:20:33Z</time>
      </trkpt>
      <trkpt lat="49.85051" lon="2.4815">
        <ele>101.4</ele>
        <time>2020-10-21T14:20:34Z</time>
      </trkpt>
      <trkpt lat="49.85051" lon="2.48152">
        <ele>101.4</ele>
        <time>2020-10-21T14:20:36Z</time>
      </trkpt>
      <trkpt lat="49.85052" lon="2.48153">
        <ele>101.4</ele>
        <time>2020-10-21T14:20:37Z</time>
      </trkpt>
      <trkpt lat="49.85052" lon="2.48155">
        <ele>101.4</ele>
        <time>2020-10-21T14:20:38Z</time>
      </trkpt>
      <trkpt lat="49.85053" lon="2.48156">
        <ele>101.3</ele>
        <time>2020-10-21T14:20:39Z</time>
      </trkpt>
      <trkpt lat="49.85053" lon="2.48158">
        <ele>101.3</ele>
        <time>2020-10-21T14:20:41Z</time>
      </trkpt>
      <trkpt lat="49.85053" lon="2.48159">
        <ele>101.3</ele>
        <time>2020-10-21T14:20:42Z</time>
      </trkpt>
      <trkpt lat="49.85054" lon="2.48161">
        <ele>101.3</ele>
        <time>2020-10-21T14:20:43Z</time>
      </trkpt>
      <trkpt lat="49.85054" lon="2.48162">
        <ele>101.3</ele>
        <time>2020-10-21T14:20:44Z</time>
      </trkpt>
      <trkpt lat="49.85054" lon="2.48164">
        <ele>101.3</ele>
        <time>2020-10-21T14:20:45Z</time>
      </trkpt>
      <trkpt lat="49.85054" lon="2.48167">
        <ele>101.2</ele>
        <time>2020-10-21T14:20:46Z</time>
      </trkpt>
      <trkpt lat="49.85054" lon="2.48168">
        <ele>101.2</ele>
        <time>2020-10-21T14:20:47Z</time>
      </trkpt>
      <trkpt lat="49.85053" lon="2.48171">
        <ele>101.2</ele>
        <time>2020-10-21T14:20:49Z</time>
      </trkpt>
      <trkpt lat="49.85053" lon="2.48173">
        <ele>101.1</ele>
        <time>2020-10-21T14:20:51Z</time>
      </trkpt>
      <trkpt lat="49.85052" lon="2.48175">
        <ele>101.1</ele>
        <time>2020-10-21T14:20:52Z</time>
      </trkpt>
      <trkpt lat="49.85053" lon="2.48178">
        <ele>101.1</ele>
        <time>2020-10-21T14:20:53Z</time>
      </trkpt>
      <trkpt lat="49.85053" lon="2.48178">
        <ele>101.1</ele>
        <time>2020-10-21T14:20:55Z</time>
      </trkpt>
      <trkpt lat="49.85053" lon="2.48179">
        <ele>101.1</ele>
        <time>2020-10-21T14:20:56Z</time>
      </trkpt>
      <trkpt lat="49.85053" lon="2.4818">
        <ele>101.1</ele>
        <time>2020-10-21T14:20:58Z</time>
      </trkpt>
      <trkpt lat="49.85053" lon="2.48181">
        <ele>101.1</ele>
        <time>2020-10-21T14:21:00Z</time>
      </trkpt>
      <trkpt lat="49.85053" lon="2.48181">
        <ele>101</ele>
        <time>2020-10-21T14:21:01Z</time>
      </trkpt>
      <trkpt lat="49.85052" lon="2.48182">
        <ele>101</ele>
        <time>2020-10-21T14:21:02Z</time>
      </trkpt>
      <trkpt lat="49.85052" lon="2.48183">
        <ele>101</ele>
        <time>2020-10-21T14:21:03Z</time>
      </trkpt>
      <trkpt lat="49.85052" lon="2.48184">
        <ele>101</ele>
        <time>2020-10-21T14:21:05Z</time>
      </trkpt>
      <trkpt lat="49.85052" lon="2.48184">
        <ele>101</ele>
        <time>2020-10-21T14:21:06Z</time>
      </trkpt>
      <trkpt lat="49.85051" lon="2.48186">
        <ele>101</ele>
        <time>2020-10-21T14:21:07Z</time>
      </trkpt>
      <trkpt lat="49.8505" lon="2.48187">
        <ele>101</ele>
        <time>2020-10-21T14:21:08Z</time>
      </trkpt>
      <trkpt lat="49.85049" lon="2.48189">
        <ele>100.9</ele>
        <time>2020-10-21T14:21:09Z</time>
      </trkpt>
      <trkpt lat="49.85048" lon="2.4819">
        <ele>100.9</ele>
        <time>2020-10-21T14:21:10Z</time>
      </trkpt>
      <trkpt lat="49.85047" lon="2.48192">
        <ele>100.9</ele>
        <time>2020-10-21T14:21:12Z</time>
      </trkpt>
      <trkpt lat="49.85046" lon="2.48194">
        <ele>100.9</ele>
        <time>2020-10-21T14:21:13Z</time>
      </trkpt>
      <trkpt lat="49.85045" lon="2.48197">
        <ele>100.8</ele>
        <time>2020-10-21T14:21:14Z</time>
      </trkpt>
      <trkpt lat="49.85045" lon="2.48198">
        <ele>100.8</ele>
        <time>2020-10-21T14:21:15Z</time>
      </trkpt>
      <trkpt lat="49.85045" lon="2.48199">
        <ele>100.8</ele>
        <time>2020-10-21T14:21:16Z</time>
      </trkpt>
      <trkpt lat="49.85044" lon="2.48201">
        <ele>100.8</ele>
        <time>2020-10-21T14:21:17Z</time>
      </trkpt>
      <trkpt lat="49.85044" lon="2.48203">
        <ele>100.8</ele>
        <time>2020-10-21T14:21:18Z</time>
      </trkpt>
      <trkpt lat="49.85044" lon="2.48205">
        <ele>100.7</ele>
        <time>2020-10-21T14:21:20Z</time>
      </trkpt>
      <trkpt lat="49.85044" lon="2.48207">
        <ele>100.7</ele>
        <time>2020-10-21T14:21:21Z</time>
      </trkpt>
      <trkpt lat="49.85044" lon="2.48209">
        <ele>100.7</ele>
        <time>2020-10-21T14:21:22Z</time>
      </trkpt>
      <trkpt lat="49.85043" lon="2.48211">
        <ele>100.7</ele>
        <time>2020-10-21T14:21:23Z</time>
      </trkpt>
      <trkpt lat="49.85043" lon="2.48212">
        <ele>100.6</ele>
        <time>2020-10-21T14:21:24Z</time>
      </trkpt>
      <trkpt lat="49.85042" lon="2.48214">
        <ele>100.6</ele>
        <time>2020-10-21T14:21:25Z</time>
      </trkpt>
      <trkpt lat="49.85042" lon="2.48216">
        <ele>100.6</ele>
        <time>2020-10-21T14:21:27Z</time>
      </trkpt>
      <trkpt lat="49.85042" lon="2.48218">
        <ele>100.6</ele>
        <time>2020-10-21T14:21:28Z</time>
      </trkpt>
      <trkpt lat="49.85043" lon="2.48219">
        <ele>100.5</ele>
        <time>2020-10-21T14:21:29Z</time>
      </trkpt>
      <trkpt lat="49.85043" lon="2.48221">
        <ele>100.5</ele>
        <time>2020-10-21T14:21:30Z</time>
      </trkpt>
      <trkpt lat="49.85044" lon="2.48224">
        <ele>100.5</ele>
        <time>2020-10-21T14:21:32Z</time>
      </trkpt>
      <trkpt lat="49.85044" lon="2.48226">
        <ele>100.5</ele>
        <time>2020-10-21T14:21:33Z</time>
      </trkpt>
      <trkpt lat="49.85044" lon="2.48228">
        <ele>100.4</ele>
        <time>2020-10-21T14:21:34Z</time>
      </trkpt>
      <trkpt lat="49.85043" lon="2.4823">
        <ele>100.4</ele>
        <time>2020-10-21T14:21:35Z</time>
      </trkpt>
      <trkpt lat="49.85043" lon="2.48231">
        <ele>100.4</ele>
        <time>2020-10-21T14:21:36Z</time>
      </trkpt>
      <trkpt lat="49.85043" lon="2.48233">
        <ele>100.4</ele>
        <time>2020-10-21T14:21:37Z</time>
      </trkpt>
      <trkpt lat="49.85043" lon="2.48235">
        <ele>100.4</ele>
        <time>2020-10-21T14:21:38Z</time>
      </trkpt>
      <trkpt lat="49.85043" lon="2.48236">
        <ele>100.4</ele>
        <time>2020-10-21T14:21:39Z</time>
      </trkpt>
      <trkpt lat="49.85042" lon="2.48238">
        <ele>100.4</ele>
        <time>2020-10-21T14:21:41Z</time>
      </trkpt>
      <trkpt lat="49.85042" lon="2.4824">
        <ele>100.4</ele>
        <time>2020-10-21T14:21:42Z</time>
      </trkpt>
      <trkpt lat="49.85042" lon="2.48242">
        <ele>100.4</ele>
        <time>2020-10-21T14:21:43Z</time>
      </trkpt>
      <trkpt lat="49.85042" lon="2.48246">
        <ele>100.3</ele>
        <time>2020-10-21T14:21:44Z</time>
      </trkpt>
      <trkpt lat="49.85042" lon="2.48247">
        <ele>100.3</ele>
        <time>2020-10-21T14:21:45Z</time>
      </trkpt>
      <trkpt lat="49.85042" lon="2.48249">
        <ele>100.3</ele>
        <time>2020-10-21T14:21:46Z</time>
      </trkpt>
      <trkpt lat="49.85043" lon="2.4825">
        <ele>100.3</ele>
        <time>2020-10-21T14:21:47Z</time>
      </trkpt>
      <trkpt lat="49.85045" lon="2.48253">
        <ele>100.2</ele>
        <time>2020-10-21T14:21:49Z</time>
      </trkpt>
      <trkpt lat="49.85045" lon="2.48255">
        <ele>100.2</ele>
        <time>2020-10-21T14:21:50Z</time>
      </trkpt>
      <trkpt lat="49.85045" lon="2.48257">
        <ele>100.2</ele>
        <time>2020-10-21T14:21:51Z</time>
      </trkpt>
      <trkpt lat="49.85046" lon="2.4826">
        <ele>100.2</ele>
        <time>2020-10-21T14:21:53Z</time>
      </trkpt>
      <trkpt lat="49.85046" lon="2.48261">
        <ele>100.2</ele>
        <time>2020-10-21T14:21:54Z</time>
      </trkpt>
      <trkpt lat="49.85046" lon="2.48263">
        <ele>100.1</ele>
        <time>2020-10-21T14:21:55Z</time>
      </trkpt>
      <trkpt lat="49.85047" lon="2.48265">
        <ele>100.1</ele>
        <time>2020-10-21T14:21:56Z</time>
      </trkpt>
      <trkpt lat="49.85047" lon="2.48267">
        <ele>100.1</ele>
        <time>2020-10-21T14:21:57Z</time>
      </trkpt>
      <trkpt lat="49.85048" lon="2.48269">
        <ele>100.1</ele>
        <time>2020-10-21T14:21:59Z</time>
      </trkpt>
      <trkpt lat="49.85048" lon="2.48272">
        <ele>100</ele>
        <time>2020-10-21T14:22:00Z</time>
      </trkpt>
      <trkpt lat="49.85048" lon="2.48275">
        <ele>100</ele>
        <time>2020-10-21T14:22:01Z</time>
      </trkpt>
      <trkpt lat="49.85047" lon="2.48276">
        <ele>99.9</ele>
        <time>2020-10-21T14:22:02Z</time>
      </trkpt>
      <trkpt lat="49.85047" lon="2.48277">
        <ele>99.9</ele>
        <time>2020-10-21T14:22:03Z</time>
      </trkpt>
      <trkpt lat="49.85047" lon="2.48279">
        <ele>99.9</ele>
        <time>2020-10-21T14:22:04Z</time>
      </trkpt>
      <trkpt lat="49.85047" lon="2.48281">
        <ele>99.9</ele>
        <time>2020-10-21T14:22:05Z</time>
      </trkpt>
      <trkpt lat="49.85047" lon="2.48283">
        <ele>99.8</ele>
        <time>2020-10-21T14:22:06Z</time>
      </trkpt>
      <trkpt lat="49.85047" lon="2.48286">
        <ele>99.8</ele>
        <time>2020-10-21T14:22:07Z</time>
      </trkpt>
      <trkpt lat="49.85047" lon="2.48287">
        <ele>99.8</ele>
        <time>2020-10-21T14:22:08Z</time>
      </trkpt>
      <trkpt lat="49.85047" lon="2.48289">
        <ele>99.7</ele>
        <time>2020-10-21T14:22:09Z</time>
      </trkpt>
      <trkpt lat="49.85047" lon="2.48292">
        <ele>99.7</ele>
        <time>2020-10-21T14:22:10Z</time>
      </trkpt>
      <trkpt lat="49.85047" lon="2.48293">
        <ele>99.7</ele>
        <time>2020-10-21T14:22:12Z</time>
      </trkpt>
      <trkpt lat="49.85047" lon="2.48295">
        <ele>99.6</ele>
        <time>2020-10-21T14:22:13Z</time>
      </trkpt>
      <trkpt lat="49.85046" lon="2.48298">
        <ele>99.6</ele>
        <time>2020-10-21T14:22:14Z</time>
      </trkpt>
      <trkpt lat="49.85046" lon="2.48299">
        <ele>99.6</ele>
        <time>2020-10-21T14:22:15Z</time>
      </trkpt>
      <trkpt lat="49.85046" lon="2.483">
        <ele>99.6</ele>
        <time>2020-10-21T14:22:16Z</time>
      </trkpt>
      <trkpt lat="49.85046" lon="2.48302">
        <ele>99.6</ele>
        <time>2020-10-21T14:22:17Z</time>
      </trkpt>
      <trkpt lat="49.85046" lon="2.48304">
        <ele>99.5</ele>
        <time>2020-10-21T14:22:18Z</time>
      </trkpt>
      <trkpt lat="49.85045" lon="2.48306">
        <ele>99.5</ele>
        <time>2020-10-21T14:22:19Z</time>
      </trkpt>
      <trkpt lat="49.85045" lon="2.48308">
        <ele>99.5</ele>
        <time>2020-10-21T14:22:20Z</time>
      </trkpt>
      <trkpt lat="49.85045" lon="2.4831">
        <ele>99.5</ele>
        <time>2020-10-21T14:22:21Z</time>
      </trkpt>
      <trkpt lat="49.85045" lon="2.48312">
        <ele>99.4</ele>
        <time>2020-10-21T14:22:22Z</time>
      </trkpt>
      <trkpt lat="49.85045" lon="2.48314">
        <ele>99.4</ele>
        <time>2020-10-21T14:22:24Z</time>
      </trkpt>
      <trkpt lat="49.85045" lon="2.48316">
        <ele>99.4</ele>
        <time>2020-10-21T14:22:25Z</time>
      </trkpt>
      <trkpt lat="49.85044" lon="2.48319">
        <ele>99.4</ele>
        <time>2020-10-21T14:22:26Z</time>
      </trkpt>
      <trkpt lat="49.85044" lon="2.4832">
        <ele>99.3</ele>
        <time>2020-10-21T14:22:27Z</time>
      </trkpt>
      <trkpt lat="49.85044" lon="2.48322">
        <ele>99.3</ele>
        <time>2020-10-21T14:22:28Z</time>
      </trkpt>
      <trkpt lat="49.85044" lon="2.48324">
        <ele>99.3</ele>
        <time>2020-10-21T14:22:29Z</time>
      </trkpt>
      <trkpt lat="49.85044" lon="2.48326">
        <ele>99.3</ele>
        <time>2020-10-21T14:22:31Z</time>
      </trkpt>
      <trkpt lat="49.85044" lon="2.48328">
        <ele>99.2</ele>
        <time>2020-10-21T14:22:32Z</time>
      </trkpt>
      <trkpt lat="49.85043" lon="2.4833">
        <ele>99.2</ele>
        <time>2020-10-21T14:22:33Z</time>
      </trkpt>
      <trkpt lat="49.85043" lon="2.48333">
        <ele>99.2</ele>
        <time>2020-10-21T14:22:34Z</time>
      </trkpt>
      <trkpt lat="49.85043" lon="2.48336">
        <ele>99.1</ele>
        <time>2020-10-21T14:22:35Z</time>
      </trkpt>
      <trkpt lat="49.85043" lon="2.48337">
        <ele>99.1</ele>
        <time>2020-10-21T14:22:36Z</time>
      </trkpt>
      <trkpt lat="49.85043" lon="2.48339">
        <ele>99.1</ele>
        <time>2020-10-21T14:22:37Z</time>
      </trkpt>
      <trkpt lat="49.85043" lon="2.48341">
        <ele>99.1</ele>
        <time>2020-10-21T14:22:38Z</time>
      </trkpt>
      <trkpt lat="49.85043" lon="2.48343">
        <ele>99.1</ele>
        <time>2020-10-21T14:22:39Z</time>
      </trkpt>
      <trkpt lat="49.85043" lon="2.48344">
        <ele>99.1</ele>
        <time>2020-10-21T14:22:40Z</time>
      </trkpt>
      <trkpt lat="49.85043" lon="2.48348">
        <ele>99.1</ele>
        <time>2020-10-21T14:22:42Z</time>
      </trkpt>
      <trkpt lat="49.85043" lon="2.48349">
        <ele>99.1</ele>
        <time>2020-10-21T14:22:43Z</time>
      </trkpt>
      <trkpt lat="49.85043" lon="2.48351">
        <ele>99.1</ele>
        <time>2020-10-21T14:22:44Z</time>
      </trkpt>
      <trkpt lat="49.85043" lon="2.48353">
        <ele>99.1</ele>
        <time>2020-10-21T14:22:45Z</time>
      </trkpt>
      <trkpt lat="49.85043" lon="2.48355">
        <ele>99.1</ele>
        <time>2020-10-21T14:22:46Z</time>
      </trkpt>
      <trkpt lat="49.85043" lon="2.48357">
        <ele>99.1</ele>
        <time>2020-10-21T14:22:47Z</time>
      </trkpt>
      <trkpt lat="49.85043" lon="2.48359">
        <ele>99.2</ele>
        <time>2020-10-21T14:22:48Z</time>
      </trkpt>
      <trkpt lat="49.85043" lon="2.4836">
        <ele>99.2</ele>
        <time>2020-10-21T14:22:49Z</time>
      </trkpt>
      <trkpt lat="49.85044" lon="2.48362">
        <ele>99.2</ele>
        <time>2020-10-21T14:22:51Z</time>
      </trkpt>
      <trkpt lat="49.85044" lon="2.48364">
        <ele>99.3</ele>
        <time>2020-10-21T14:22:52Z</time>
      </trkpt>
      <trkpt lat="49.85044" lon="2.48366">
        <ele>99.3</ele>
        <time>2020-10-21T14:22:53Z</time>
      </trkpt>
      <trkpt lat="49.85045" lon="2.48367">
        <ele>99.3</ele>
        <time>2020-10-21T14:22:54Z</time>
      </trkpt>
      <trkpt lat="49.85045" lon="2.48369">
        <ele>99.4</ele>
        <time>2020-10-21T14:22:55Z</time>
      </trkpt>
      <trkpt lat="49.85045" lon="2.4837">
        <ele>99.4</ele>
        <time>2020-10-21T14:22:56Z</time>
      </trkpt>
      <trkpt lat="49.85046" lon="2.48371">
        <ele>99.4</ele>
        <time>2020-10-21T14:22:58Z</time>
      </trkpt>
      <trkpt lat="49.85046" lon="2.48373">
        <ele>99.5</ele>
        <time>2020-10-21T14:22:59Z</time>
      </trkpt>
      <trkpt lat="49.85046" lon="2.48374">
        <ele>99.5</ele>
        <time>2020-10-21T14:23:00Z</time>
      </trkpt>
      <trkpt lat="49.85046" lon="2.48376">
        <ele>99.5</ele>
        <time>2020-10-21T14:23:01Z</time>
      </trkpt>
      <trkpt lat="49.85046" lon="2.48378">
        <ele>99.6</ele>
        <time>2020-10-21T14:23:02Z</time>
      </trkpt>
      <trkpt lat="49.85046" lon="2.48379">
        <ele>99.6</ele>
        <time>2020-10-21T14:23:03Z</time>
      </trkpt>
      <trkpt lat="49.85046" lon="2.48381">
        <ele>99.7</ele>
        <time>2020-10-21T14:23:05Z</time>
      </trkpt>
      <trkpt lat="49.85046" lon="2.48384">
        <ele>99.7</ele>
        <time>2020-10-21T14:23:06Z</time>
      </trkpt>
      <trkpt lat="49.85046" lon="2.48386">
        <ele>99.6</ele>
        <time>2020-10-21T14:23:07Z</time>
      </trkpt>
      <trkpt lat="49.85046" lon="2.48387">
        <ele>99.6</ele>
        <time>2020-10-21T14:23:08Z</time>
      </trkpt>
      <trkpt lat="49.85046" lon="2.48389">
        <ele>99.5</ele>
        <time>2020-10-21T14:23:09Z</time>
      </trkpt>
      <trkpt lat="49.85046" lon="2.4839">
        <ele>99.5</ele>
        <time>2020-10-21T14:23:10Z</time>
      </trkpt>
      <trkpt lat="49.85047" lon="2.48392">
        <ele>99.4</ele>
        <time>2020-10-21T14:23:11Z</time>
      </trkpt>
      <trkpt lat="49.85048" lon="2.48392">
        <ele>99.4</ele>
        <time>2020-10-21T14:23:13Z</time>
      </trkpt>
      <trkpt lat="49.85049" lon="2.48392">
        <ele>99.3</ele>
        <time>2020-10-21T14:23:14Z</time>
      </trkpt>
      <trkpt lat="49.85051" lon="2.4839">
        <ele>99.2</ele>
        <time>2020-10-21T14:23:15Z</time>
      </trkpt>
      <trkpt lat="49.85053" lon="2.4839">
        <ele>99.1</ele>
        <time>2020-10-21T14:23:16Z</time>
      </trkpt>
      <trkpt lat="49.85054" lon="2.48389">
        <ele>99</ele>
        <time>2020-10-21T14:23:17Z</time>
      </trkpt>
      <trkpt lat="49.85055" lon="2.48389">
        <ele>99</ele>
        <time>2020-10-21T14:23:19Z</time>
      </trkpt>
      <trkpt lat="49.85057" lon="2.48389">
        <ele>98.9</ele>
        <time>2020-10-21T14:23:20Z</time>
      </trkpt>
      <trkpt lat="49.85058" lon="2.48389">
        <ele>98.8</ele>
        <time>2020-10-21T14:23:21Z</time>
      </trkpt>
      <trkpt lat="49.85059" lon="2.48388">
        <ele>98.8</ele>
        <time>2020-10-21T14:23:22Z</time>
      </trkpt>
      <trkpt lat="49.8506" lon="2.48388">
        <ele>98.8</ele>
        <time>2020-10-21T14:23:23Z</time>
      </trkpt>
      <trkpt lat="49.85061" lon="2.48388">
        <ele>98.7</ele>
        <time>2020-10-21T14:23:24Z</time>
      </trkpt>
      <trkpt lat="49.85062" lon="2.48388">
        <ele>98.7</ele>
        <time>2020-10-21T14:23:26Z</time>
      </trkpt>
      <trkpt lat="49.85063" lon="2.48387">
        <ele>98.6</ele>
        <time>2020-10-21T14:23:27Z</time>
      </trkpt>
      <trkpt lat="49.85065" lon="2.48387">
        <ele>98.5</ele>
        <time>2020-10-21T14:23:28Z</time>
      </trkpt>
      <trkpt lat="49.85066" lon="2.48387">
        <ele>98.5</ele>
        <time>2020-10-21T14:23:29Z</time>
      </trkpt>
      <trkpt lat="49.85067" lon="2.48386">
        <ele>98.4</ele>
        <time>2020-10-21T14:23:30Z</time>
      </trkpt>
      <trkpt lat="49.85068" lon="2.48386">
        <ele>98.4</ele>
        <time>2020-10-21T14:23:31Z</time>
      </trkpt>
      <trkpt lat="49.8507" lon="2.48385">
        <ele>98.3</ele>
        <time>2020-10-21T14:23:32Z</time>
      </trkpt>
      <trkpt lat="49.85071" lon="2.48384">
        <ele>98.2</ele>
        <time>2020-10-21T14:23:33Z</time>
      </trkpt>
      <trkpt lat="49.85073" lon="2.48383">
        <ele>98.2</ele>
        <time>2020-10-21T14:23:35Z</time>
      </trkpt>
      <trkpt lat="49.85075" lon="2.48382">
        <ele>98.1</ele>
        <time>2020-10-21T14:23:36Z</time>
      </trkpt>
      <trkpt lat="49.85076" lon="2.48381">
        <ele>98</ele>
        <time>2020-10-21T14:23:37Z</time>
      </trkpt>
      <trkpt lat="49.85078" lon="2.4838">
        <ele>98</ele>
        <time>2020-10-21T14:23:38Z</time>
      </trkpt>
      <trkpt lat="49.85079" lon="2.4838">
        <ele>98</ele>
        <time>2020-10-21T14:23:39Z</time>
      </trkpt>
      <trkpt lat="49.85081" lon="2.48379">
        <ele>97.9</ele>
        <time>2020-10-21T14:23:40Z</time>
      </trkpt>
      <trkpt lat="49.85083" lon="2.48379">
        <ele>97.9</ele>
        <time>2020-10-21T14:23:41Z</time>
      </trkpt>
      <trkpt lat="49.85085" lon="2.48378">
        <ele>97.9</ele>
        <time>2020-10-21T14:23:43Z</time>
      </trkpt>
      <trkpt lat="49.85086" lon="2.48378">
        <ele>97.8</ele>
        <time>2020-10-21T14:23:44Z</time>
      </trkpt>
      <trkpt lat="49.85088" lon="2.48378">
        <ele>97.8</ele>
        <time>2020-10-21T14:23:45Z</time>
      </trkpt>
      <trkpt lat="49.85089" lon="2.48377">
        <ele>97.8</ele>
        <time>2020-10-21T14:23:46Z</time>
      </trkpt>
      <trkpt lat="49.8509" lon="2.48376">
        <ele>97.8</ele>
        <time>2020-10-21T14:23:48Z</time>
      </trkpt>
      <trkpt lat="49.85092" lon="2.48376">
        <ele>97.8</ele>
        <time>2020-10-21T14:23:49Z</time>
      </trkpt>
      <trkpt lat="49.85093" lon="2.48375">
        <ele>97.8</ele>
        <time>2020-10-21T14:23:50Z</time>
      </trkpt>
      <trkpt lat="49.85094" lon="2.48375">
        <ele>97.8</ele>
        <time>2020-10-21T14:23:51Z</time>
      </trkpt>
      <trkpt lat="49.85095" lon="2.48374">
        <ele>97.8</ele>
        <time>2020-10-21T14:23:52Z</time>
      </trkpt>
      <trkpt lat="49.85096" lon="2.48374">
        <ele>97.8</ele>
        <time>2020-10-21T14:23:53Z</time>
      </trkpt>
      <trkpt lat="49.85098" lon="2.48373">
        <ele>97.8</ele>
        <time>2020-10-21T14:23:54Z</time>
      </trkpt>
      <trkpt lat="49.85099" lon="2.48373">
        <ele>97.8</ele>
        <time>2020-10-21T14:23:55Z</time>
      </trkpt>
      <trkpt lat="49.851" lon="2.48372">
        <ele>97.8</ele>
        <time>2020-10-21T14:23:57Z</time>
      </trkpt>
      <trkpt lat="49.85101" lon="2.48372">
        <ele>97.7</ele>
        <time>2020-10-21T14:23:58Z</time>
      </trkpt>
      <trkpt lat="49.85102" lon="2.48371">
        <ele>97.7</ele>
        <time>2020-10-21T14:23:59Z</time>
      </trkpt>
      <trkpt lat="49.85103" lon="2.4837">
        <ele>97.7</ele>
        <time>2020-10-21T14:24:00Z</time>
      </trkpt>
      <trkpt lat="49.85104" lon="2.48369">
        <ele>97.7</ele>
        <time>2020-10-21T14:24:01Z</time>
      </trkpt>
      <trkpt lat="49.85104" lon="2.48368">
        <ele>97.7</ele>
        <time>2020-10-21T14:24:02Z</time>
      </trkpt>
      <trkpt lat="49.85105" lon="2.48368">
        <ele>97.7</ele>
        <time>2020-10-21T14:24:03Z</time>
      </trkpt>
      <trkpt lat="49.85106" lon="2.48367">
        <ele>97.7</ele>
        <time>2020-10-21T14:24:04Z</time>
      </trkpt>
      <trkpt lat="49.85107" lon="2.48366">
        <ele>97.6</ele>
        <time>2020-10-21T14:24:05Z</time>
      </trkpt>
      <trkpt lat="49.85108" lon="2.48366">
        <ele>97.6</ele>
        <time>2020-10-21T14:24:07Z</time>
      </trkpt>
      <trkpt lat="49.8511" lon="2.48365">
        <ele>97.6</ele>
        <time>2020-10-21T14:24:08Z</time>
      </trkpt>
      <trkpt lat="49.85111" lon="2.48365">
        <ele>97.6</ele>
        <time>2020-10-21T14:24:09Z</time>
      </trkpt>
      <trkpt lat="49.85112" lon="2.48365">
        <ele>97.6</ele>
        <time>2020-10-21T14:24:10Z</time>
      </trkpt>
      <trkpt lat="49.85113" lon="2.48365">
        <ele>97.6</ele>
        <time>2020-10-21T14:24:11Z</time>
      </trkpt>
      <trkpt lat="49.85114" lon="2.48364">
        <ele>97.6</ele>
        <time>2020-10-21T14:24:12Z</time>
      </trkpt>
      <trkpt lat="49.85116" lon="2.48364">
        <ele>97.5</ele>
        <time>2020-10-21T14:24:13Z</time>
      </trkpt>
      <trkpt lat="49.85117" lon="2.48364">
        <ele>97.5</ele>
        <time>2020-10-21T14:24:14Z</time>
      </trkpt>
      <trkpt lat="49.85119" lon="2.48363">
        <ele>97.5</ele>
        <time>2020-10-21T14:24:15Z</time>
      </trkpt>
      <trkpt lat="49.8512" lon="2.48362">
        <ele>97.5</ele>
        <time>2020-10-21T14:24:16Z</time>
      </trkpt>
      <trkpt lat="49.85121" lon="2.48362">
        <ele>97.5</ele>
        <time>2020-10-21T14:24:17Z</time>
      </trkpt>
      <trkpt lat="49.85123" lon="2.48362">
        <ele>97.5</ele>
        <time>2020-10-21T14:24:19Z</time>
      </trkpt>
      <trkpt lat="49.85124" lon="2.48361">
        <ele>97.5</ele>
        <time>2020-10-21T14:24:20Z</time>
      </trkpt>
      <trkpt lat="49.85125" lon="2.48361">
        <ele>97.5</ele>
        <time>2020-10-21T14:24:21Z</time>
      </trkpt>
      <trkpt lat="49.85127" lon="2.48361">
        <ele>97.5</ele>
        <time>2020-10-21T14:24:22Z</time>
      </trkpt>
      <trkpt lat="49.85128" lon="2.48361">
        <ele>97.5</ele>
        <time>2020-10-21T14:24:23Z</time>
      </trkpt>
      <trkpt lat="49.85129" lon="2.48361">
        <ele>97.5</ele>
        <time>2020-10-21T14:24:24Z</time>
      </trkpt>
      <trkpt lat="49.8513" lon="2.48361">
        <ele>97.5</ele>
        <time>2020-10-21T14:24:25Z</time>
      </trkpt>
      <trkpt lat="49.85132" lon="2.48362">
        <ele>97.5</ele>
        <time>2020-10-21T14:24:26Z</time>
      </trkpt>
      <trkpt lat="49.85133" lon="2.48362">
        <ele>97.5</ele>
        <time>2020-10-21T14:24:27Z</time>
      </trkpt>
      <trkpt lat="49.85134" lon="2.48361">
        <ele>97.5</ele>
        <time>2020-10-21T14:24:29Z</time>
      </trkpt>
      <trkpt lat="49.85135" lon="2.48361">
        <ele>97.5</ele>
        <time>2020-10-21T14:24:30Z</time>
      </trkpt>
      <trkpt lat="49.85136" lon="2.48361">
        <ele>97.5</ele>
        <time>2020-10-21T14:24:31Z</time>
      </trkpt>
      <trkpt lat="49.85137" lon="2.48361">
        <ele>97.5</ele>
        <time>2020-10-21T14:24:32Z</time>
      </trkpt>
      <trkpt lat="49.85139" lon="2.4836">
        <ele>97.5</ele>
        <time>2020-10-21T14:24:33Z</time>
      </trkpt>
      <trkpt lat="49.8514" lon="2.4836">
        <ele>97.5</ele>
        <time>2020-10-21T14:24:34Z</time>
      </trkpt>
      <trkpt lat="49.85141" lon="2.4836">
        <ele>97.5</ele>
        <time>2020-10-21T14:24:35Z</time>
      </trkpt>
      <trkpt lat="49.85142" lon="2.4836">
        <ele>97.5</ele>
        <time>2020-10-21T14:24:36Z</time>
      </trkpt>
      <trkpt lat="49.85144" lon="2.48359">
        <ele>97.5</ele>
        <time>2020-10-21T14:24:37Z</time>
      </trkpt>
      <trkpt lat="49.85146" lon="2.48359">
        <ele>97.5</ele>
        <time>2020-10-21T14:24:38Z</time>
      </trkpt>
      <trkpt lat="49.85147" lon="2.48358">
        <ele>97.5</ele>
        <time>2020-10-21T14:24:40Z</time>
      </trkpt>
      <trkpt lat="49.85148" lon="2.48358">
        <ele>97.5</ele>
        <time>2020-10-21T14:24:41Z</time>
      </trkpt>
      <trkpt lat="49.8515" lon="2.48357">
        <ele>97.5</ele>
        <time>2020-10-21T14:24:42Z</time>
      </trkpt>
      <trkpt lat="49.85151" lon="2.48357">
        <ele>97.5</ele>
        <time>2020-10-21T14:24:43Z</time>
      </trkpt>
      <trkpt lat="49.85151" lon="2.48357">
        <ele>97.5</ele>
        <time>2020-10-21T14:24:44Z</time>
      </trkpt>
      <trkpt lat="49.85153" lon="2.48356">
        <ele>97.5</ele>
        <time>2020-10-21T14:24:45Z</time>
      </trkpt>
      <trkpt lat="49.85154" lon="2.48355">
        <ele>97.5</ele>
        <time>2020-10-21T14:24:46Z</time>
      </trkpt>
      <trkpt lat="49.85155" lon="2.48355">
        <ele>97.5</ele>
        <time>2020-10-21T14:24:47Z</time>
      </trkpt>
      <trkpt lat="49.85156" lon="2.48354">
        <ele>97.5</ele>
        <time>2020-10-21T14:24:48Z</time>
      </trkpt>
      <trkpt lat="49.85157" lon="2.48353">
        <ele>97.5</ele>
        <time>2020-10-21T14:24:49Z</time>
      </trkpt>
      <trkpt lat="49.85159" lon="2.48353">
        <ele>97.5</ele>
        <time>2020-10-21T14:24:51Z</time>
      </trkpt>
      <trkpt lat="49.8516" lon="2.48352">
        <ele>97.4</ele>
        <time>2020-10-21T14:24:52Z</time>
      </trkpt>
      <trkpt lat="49.85163" lon="2.48352">
        <ele>97.4</ele>
        <time>2020-10-21T14:24:53Z</time>
      </trkpt>
      <trkpt lat="49.85164" lon="2.48352">
        <ele>97.4</ele>
        <time>2020-10-21T14:24:54Z</time>
      </trkpt>
      <trkpt lat="49.85165" lon="2.48351">
        <ele>97.4</ele>
        <time>2020-10-21T14:24:55Z</time>
      </trkpt>
      <trkpt lat="49.85166" lon="2.48351">
        <ele>97.4</ele>
        <time>2020-10-21T14:24:56Z</time>
      </trkpt>
      <trkpt lat="49.85167" lon="2.4835">
        <ele>97.4</ele>
        <time>2020-10-21T14:24:57Z</time>
      </trkpt>
      <trkpt lat="49.85168" lon="2.4835">
        <ele>97.4</ele>
        <time>2020-10-21T14:24:58Z</time>
      </trkpt>
      <trkpt lat="49.8517" lon="2.4835">
        <ele>97.4</ele>
        <time>2020-10-21T14:24:59Z</time>
      </trkpt>
      <trkpt lat="49.85172" lon="2.48349">
        <ele>97.4</ele>
        <time>2020-10-21T14:25:01Z</time>
      </trkpt>
      <trkpt lat="49.85173" lon="2.48349">
        <ele>97.4</ele>
        <time>2020-10-21T14:25:02Z</time>
      </trkpt>
      <trkpt lat="49.85173" lon="2.48348">
        <ele>97.4</ele>
        <time>2020-10-21T14:25:03Z</time>
      </trkpt>
      <trkpt lat="49.85174" lon="2.48348">
        <ele>97.4</ele>
        <time>2020-10-21T14:25:04Z</time>
      </trkpt>
      <trkpt lat="49.85175" lon="2.48348">
        <ele>97.4</ele>
        <time>2020-10-21T14:25:05Z</time>
      </trkpt>
      <trkpt lat="49.85176" lon="2.48348">
        <ele>97.4</ele>
        <time>2020-10-21T14:25:06Z</time>
      </trkpt>
      <trkpt lat="49.85178" lon="2.48348">
        <ele>97.5</ele>
        <time>2020-10-21T14:25:07Z</time>
      </trkpt>
      <trkpt lat="49.85179" lon="2.48347">
        <ele>97.5</ele>
        <time>2020-10-21T14:25:08Z</time>
      </trkpt>
      <trkpt lat="49.85181" lon="2.48347">
        <ele>97.6</ele>
        <time>2020-10-21T14:25:09Z</time>
      </trkpt>
      <trkpt lat="49.85183" lon="2.48346">
        <ele>97.6</ele>
        <time>2020-10-21T14:25:11Z</time>
      </trkpt>
      <trkpt lat="49.85184" lon="2.48346">
        <ele>97.7</ele>
        <time>2020-10-21T14:25:12Z</time>
      </trkpt>
      <trkpt lat="49.85186" lon="2.48345">
        <ele>97.7</ele>
        <time>2020-10-21T14:25:13Z</time>
      </trkpt>
      <trkpt lat="49.85188" lon="2.48344">
        <ele>97.8</ele>
        <time>2020-10-21T14:25:14Z</time>
      </trkpt>
      <trkpt lat="49.85189" lon="2.48344">
        <ele>97.8</ele>
        <time>2020-10-21T14:25:15Z</time>
      </trkpt>
      <trkpt lat="49.8519" lon="2.48344">
        <ele>97.8</ele>
        <time>2020-10-21T14:25:16Z</time>
      </trkpt>
      <trkpt lat="49.8519" lon="2.48344">
        <ele>97.8</ele>
        <time>2020-10-21T14:25:17Z</time>
      </trkpt>
      <trkpt lat="49.85192" lon="2.48343">
        <ele>97.9</ele>
        <time>2020-10-21T14:25:18Z</time>
      </trkpt>
      <trkpt lat="49.85193" lon="2.48343">
        <ele>97.9</ele>
        <time>2020-10-21T14:25:20Z</time>
      </trkpt>
      <trkpt lat="49.85194" lon="2.48342">
        <ele>97.9</ele>
        <time>2020-10-21T14:25:21Z</time>
      </trkpt>
      <trkpt lat="49.85195" lon="2.48342">
        <ele>97.9</ele>
        <time>2020-10-21T14:25:22Z</time>
      </trkpt>
      <trkpt lat="49.85196" lon="2.48342">
        <ele>97.9</ele>
        <time>2020-10-21T14:25:23Z</time>
      </trkpt>
      <trkpt lat="49.85197" lon="2.48341">
        <ele>97.9</ele>
        <time>2020-10-21T14:25:24Z</time>
      </trkpt>
      <trkpt lat="49.85198" lon="2.48341">
        <ele>98</ele>
        <time>2020-10-21T14:25:25Z</time>
      </trkpt>
      <trkpt lat="49.85199" lon="2.48341">
        <ele>98</ele>
        <time>2020-10-21T14:25:27Z</time>
      </trkpt>
      <trkpt lat="49.852" lon="2.4834">
        <ele>98</ele>
        <time>2020-10-21T14:25:28Z</time>
      </trkpt>
      <trkpt lat="49.85202" lon="2.4834">
        <ele>98</ele>
        <time>2020-10-21T14:25:29Z</time>
      </trkpt>
      <trkpt lat="49.85203" lon="2.4834">
        <ele>98</ele>
        <time>2020-10-21T14:25:30Z</time>
      </trkpt>
      <trkpt lat="49.85204" lon="2.48339">
        <ele>98</ele>
        <time>2020-10-21T14:25:31Z</time>
      </trkpt>
      <trkpt lat="49.85205" lon="2.48339">
        <ele>98</ele>
        <time>2020-10-21T14:25:32Z</time>
      </trkpt>
      <trkpt lat="49.85207" lon="2.48338">
        <ele>98</ele>
        <time>2020-10-21T14:25:33Z</time>
      </trkpt>
      <trkpt lat="49.85207" lon="2.48337">
        <ele>98</ele>
        <time>2020-10-21T14:25:34Z</time>
      </trkpt>
      <trkpt lat="49.85208" lon="2.48337">
        <ele>98</ele>
        <time>2020-10-21T14:25:35Z</time>
      </trkpt>
      <trkpt lat="49.85209" lon="2.48336">
        <ele>98.1</ele>
        <time>2020-10-21T14:25:36Z</time>
      </trkpt>
      <trkpt lat="49.85212" lon="2.48335">
        <ele>98.1</ele>
        <time>2020-10-21T14:25:38Z</time>
      </trkpt>
      <trkpt lat="49.85213" lon="2.48335">
        <ele>98.1</ele>
        <time>2020-10-21T14:25:39Z</time>
      </trkpt>
      <trkpt lat="49.85214" lon="2.48334">
        <ele>98.1</ele>
        <time>2020-10-21T14:25:40Z</time>
      </trkpt>
      <trkpt lat="49.85215" lon="2.48333">
        <ele>98.1</ele>
        <time>2020-10-21T14:25:41Z</time>
      </trkpt>
      <trkpt lat="49.85216" lon="2.48333">
        <ele>98.1</ele>
        <time>2020-10-21T14:25:42Z</time>
      </trkpt>
      <trkpt lat="49.85218" lon="2.48332">
        <ele>98.2</ele>
        <time>2020-10-21T14:25:44Z</time>
      </trkpt>
      <trkpt lat="49.85218" lon="2.48331">
        <ele>98.2</ele>
        <time>2020-10-21T14:25:45Z</time>
      </trkpt>
      <trkpt lat="49.8522" lon="2.48331">
        <ele>98.2</ele>
        <time>2020-10-21T14:25:46Z</time>
      </trkpt>
      <trkpt lat="49.85221" lon="2.4833">
        <ele>98.2</ele>
        <time>2020-10-21T14:25:47Z</time>
      </trkpt>
      <trkpt lat="49.85223" lon="2.48329">
        <ele>98.3</ele>
        <time>2020-10-21T14:25:49Z</time>
      </trkpt>
      <trkpt lat="49.85223" lon="2.48328">
        <ele>98.3</ele>
        <time>2020-10-21T14:25:50Z</time>
      </trkpt>
      <trkpt lat="49.85224" lon="2.48327">
        <ele>98.3</ele>
        <time>2020-10-21T14:25:51Z</time>
      </trkpt>
      <trkpt lat="49.85225" lon="2.48327">
        <ele>98.3</ele>
        <time>2020-10-21T14:25:52Z</time>
      </trkpt>
      <trkpt lat="49.85227" lon="2.48326">
        <ele>98.3</ele>
        <time>2020-10-21T14:25:53Z</time>
      </trkpt>
      <trkpt lat="49.85229" lon="2.48326">
        <ele>98.3</ele>
        <time>2020-10-21T14:25:54Z</time>
      </trkpt>
      <trkpt lat="49.8523" lon="2.48326">
        <ele>98.4</ele>
        <time>2020-10-21T14:25:55Z</time>
      </trkpt>
      <trkpt lat="49.85231" lon="2.48326">
        <ele>98.4</ele>
        <time>2020-10-21T14:25:56Z</time>
      </trkpt>
      <trkpt lat="49.85233" lon="2.48325">
        <ele>98.4</ele>
        <time>2020-10-21T14:25:57Z</time>
      </trkpt>
      <trkpt lat="49.85234" lon="2.48325">
        <ele>98.4</ele>
        <time>2020-10-21T14:25:59Z</time>
      </trkpt>
      <trkpt lat="49.85235" lon="2.48324">
        <ele>98.4</ele>
        <time>2020-10-21T14:26:00Z</time>
      </trkpt>
      <trkpt lat="49.85237" lon="2.48323">
        <ele>98.4</ele>
        <time>2020-10-21T14:26:01Z</time>
      </trkpt>
      <trkpt lat="49.85238" lon="2.48322">
        <ele>98.4</ele>
        <time>2020-10-21T14:26:02Z</time>
      </trkpt>
      <trkpt lat="49.85239" lon="2.48321">
        <ele>98.4</ele>
        <time>2020-10-21T14:26:03Z</time>
      </trkpt>
      <trkpt lat="49.85239" lon="2.48319">
        <ele>98.4</ele>
        <time>2020-10-21T14:26:05Z</time>
      </trkpt>
      <trkpt lat="49.8524" lon="2.48318">
        <ele>98.4</ele>
        <time>2020-10-21T14:26:07Z</time>
      </trkpt>
      <trkpt lat="49.8524" lon="2.48318">
        <ele>98.4</ele>
        <time>2020-10-21T14:26:08Z</time>
      </trkpt>
      <trkpt lat="49.85242" lon="2.48318">
        <ele>98.4</ele>
        <time>2020-10-21T14:26:09Z</time>
      </trkpt>
      <trkpt lat="49.85243" lon="2.48318">
        <ele>98.4</ele>
        <time>2020-10-21T14:26:10Z</time>
      </trkpt>
      <trkpt lat="49.85244" lon="2.48318">
        <ele>98.4</ele>
        <time>2020-10-21T14:26:11Z</time>
      </trkpt>
      <trkpt lat="49.85245" lon="2.48319">
        <ele>98.4</ele>
        <time>2020-10-21T14:26:13Z</time>
      </trkpt>
      <trkpt lat="49.85245" lon="2.48319">
        <ele>98.4</ele>
        <time>2020-10-21T14:26:14Z</time>
      </trkpt>
      <trkpt lat="49.85246" lon="2.4832">
        <ele>98.4</ele>
        <time>2020-10-21T14:26:15Z</time>
      </trkpt>
      <trkpt lat="49.85247" lon="2.4832">
        <ele>98.4</ele>
        <time>2020-10-21T14:26:16Z</time>
      </trkpt>
      <trkpt lat="49.8525" lon="2.48321">
        <ele>98.4</ele>
        <time>2020-10-21T14:26:18Z</time>
      </trkpt>
      <trkpt lat="49.85251" lon="2.48322">
        <ele>98.4</ele>
        <time>2020-10-21T14:26:19Z</time>
      </trkpt>
      <trkpt lat="49.85252" lon="2.48323">
        <ele>98.4</ele>
        <time>2020-10-21T14:26:20Z</time>
      </trkpt>
      <trkpt lat="49.85253" lon="2.48324">
        <ele>98.4</ele>
        <time>2020-10-21T14:26:21Z</time>
      </trkpt>
      <trkpt lat="49.85254" lon="2.48324">
        <ele>98.4</ele>
        <time>2020-10-21T14:26:22Z</time>
      </trkpt>
      <trkpt lat="49.85255" lon="2.48324">
        <ele>98.4</ele>
        <time>2020-10-21T14:26:23Z</time>
      </trkpt>
      <trkpt lat="49.85257" lon="2.48325">
        <ele>98.4</ele>
        <time>2020-10-21T14:26:25Z</time>
      </trkpt>
      <trkpt lat="49.85258" lon="2.48325">
        <ele>98.4</ele>
        <time>2020-10-21T14:26:26Z</time>
      </trkpt>
      <trkpt lat="49.85261" lon="2.48325">
        <ele>98.4</ele>
        <time>2020-10-21T14:26:27Z</time>
      </trkpt>
      <trkpt lat="49.85261" lon="2.48325">
        <ele>98.4</ele>
        <time>2020-10-21T14:26:28Z</time>
      </trkpt>
      <trkpt lat="49.85262" lon="2.48325">
        <ele>98.4</ele>
        <time>2020-10-21T14:26:29Z</time>
      </trkpt>
      <trkpt lat="49.85263" lon="2.48325">
        <ele>98.5</ele>
        <time>2020-10-21T14:26:30Z</time>
      </trkpt>
      <trkpt lat="49.85265" lon="2.48324">
        <ele>98.5</ele>
        <time>2020-10-21T14:26:31Z</time>
      </trkpt>
      <trkpt lat="49.85266" lon="2.48324">
        <ele>98.5</ele>
        <time>2020-10-21T14:26:32Z</time>
      </trkpt>
      <trkpt lat="49.85267" lon="2.48324">
        <ele>98.5</ele>
        <time>2020-10-21T14:26:34Z</time>
      </trkpt>
      <trkpt lat="49.85268" lon="2.48324">
        <ele>98.5</ele>
        <time>2020-10-21T14:26:35Z</time>
      </trkpt>
      <trkpt lat="49.85269" lon="2.48324">
        <ele>98.5</ele>
        <time>2020-10-21T14:26:36Z</time>
      </trkpt>
      <trkpt lat="49.8527" lon="2.48324">
        <ele>98.5</ele>
        <time>2020-10-21T14:26:37Z</time>
      </trkpt>
      <trkpt lat="49.85271" lon="2.48323">
        <ele>98.5</ele>
        <time>2020-10-21T14:26:38Z</time>
      </trkpt>
      <trkpt lat="49.85272" lon="2.48323">
        <ele>98.5</ele>
        <time>2020-10-21T14:26:39Z</time>
      </trkpt>
      <trkpt lat="49.85273" lon="2.48323">
        <ele>98.6</ele>
        <time>2020-10-21T14:26:40Z</time>
      </trkpt>
      <trkpt lat="49.85274" lon="2.48323">
        <ele>98.6</ele>
        <time>2020-10-21T14:26:41Z</time>
      </trkpt>
      <trkpt lat="49.85276" lon="2.48322">
        <ele>98.6</ele>
        <time>2020-10-21T14:26:43Z</time>
      </trkpt>
      <trkpt lat="49.85277" lon="2.48322">
        <ele>98.6</ele>
        <time>2020-10-21T14:26:44Z</time>
      </trkpt>
      <trkpt lat="49.85278" lon="2.48321">
        <ele>98.6</ele>
        <time>2020-10-21T14:26:45Z</time>
      </trkpt>
      <trkpt lat="49.85279" lon="2.48321">
        <ele>98.6</ele>
        <time>2020-10-21T14:26:46Z</time>
      </trkpt>
      <trkpt lat="49.8528" lon="2.48321">
        <ele>98.7</ele>
        <time>2020-10-21T14:26:47Z</time>
      </trkpt>
      <trkpt lat="49.85282" lon="2.4832">
        <ele>98.7</ele>
        <time>2020-10-21T14:26:48Z</time>
      </trkpt>
      <trkpt lat="49.85283" lon="2.4832">
        <ele>98.7</ele>
        <time>2020-10-21T14:26:49Z</time>
      </trkpt>
      <trkpt lat="49.85284" lon="2.48319">
        <ele>98.7</ele>
        <time>2020-10-21T14:26:50Z</time>
      </trkpt>
      <trkpt lat="49.85285" lon="2.48318">
        <ele>98.7</ele>
        <time>2020-10-21T14:26:52Z</time>
      </trkpt>
      <trkpt lat="49.85286" lon="2.48318">
        <ele>98.7</ele>
        <time>2020-10-21T14:26:53Z</time>
      </trkpt>
      <trkpt lat="49.85288" lon="2.48317">
        <ele>98.7</ele>
        <time>2020-10-21T14:26:54Z</time>
      </trkpt>
      <trkpt lat="49.85289" lon="2.48317">
        <ele>98.7</ele>
        <time>2020-10-21T14:26:55Z</time>
      </trkpt>
      <trkpt lat="49.85291" lon="2.48317">
        <ele>98.6</ele>
        <time>2020-10-21T14:26:56Z</time>
      </trkpt>
      <trkpt lat="49.85293" lon="2.48316">
        <ele>98.6</ele>
        <time>2020-10-21T14:26:57Z</time>
      </trkpt>
      <trkpt lat="49.85294" lon="2.48315">
        <ele>98.6</ele>
        <time>2020-10-21T14:26:58Z</time>
      </trkpt>
      <trkpt lat="49.85297" lon="2.48314">
        <ele>98.5</ele>
        <time>2020-10-21T14:26:59Z</time>
      </trkpt>
      <trkpt lat="49.85298" lon="2.48314">
        <ele>98.5</ele>
        <time>2020-10-21T14:27:01Z</time>
      </trkpt>
      <trkpt lat="49.85299" lon="2.48314">
        <ele>98.5</ele>
        <time>2020-10-21T14:27:02Z</time>
      </trkpt>
      <trkpt lat="49.853" lon="2.48314">
        <ele>98.4</ele>
        <time>2020-10-21T14:27:03Z</time>
      </trkpt>
      <trkpt lat="49.85302" lon="2.48313">
        <ele>98.4</ele>
        <time>2020-10-21T14:27:04Z</time>
      </trkpt>
      <trkpt lat="49.85303" lon="2.48313">
        <ele>98.4</ele>
        <time>2020-10-21T14:27:05Z</time>
      </trkpt>
      <trkpt lat="49.85304" lon="2.48313">
        <ele>98.3</ele>
        <time>2020-10-21T14:27:06Z</time>
      </trkpt>
      <trkpt lat="49.85305" lon="2.48312">
        <ele>98.3</ele>
        <time>2020-10-21T14:27:07Z</time>
      </trkpt>
      <trkpt lat="49.85306" lon="2.48312">
        <ele>98.3</ele>
        <time>2020-10-21T14:27:08Z</time>
      </trkpt>
      <trkpt lat="49.85308" lon="2.48312">
        <ele>98.3</ele>
        <time>2020-10-21T14:27:10Z</time>
      </trkpt>
      <trkpt lat="49.8531" lon="2.48312">
        <ele>98.2</ele>
        <time>2020-10-21T14:27:11Z</time>
      </trkpt>
      <trkpt lat="49.85311" lon="2.48312">
        <ele>98.2</ele>
        <time>2020-10-21T14:27:12Z</time>
      </trkpt>
      <trkpt lat="49.85313" lon="2.48312">
        <ele>98.2</ele>
        <time>2020-10-21T14:27:14Z</time>
      </trkpt>
      <trkpt lat="49.85314" lon="2.48311">
        <ele>98.2</ele>
        <time>2020-10-21T14:27:15Z</time>
      </trkpt>
      <trkpt lat="49.85316" lon="2.48311">
        <ele>98.2</ele>
        <time>2020-10-21T14:27:16Z</time>
      </trkpt>
      <trkpt lat="49.85317" lon="2.48311">
        <ele>98.2</ele>
        <time>2020-10-21T14:27:17Z</time>
      </trkpt>
      <trkpt lat="49.85318" lon="2.4831">
        <ele>98.2</ele>
        <time>2020-10-21T14:27:18Z</time>
      </trkpt>
      <trkpt lat="49.85319" lon="2.4831">
        <ele>98.1</ele>
        <time>2020-10-21T14:27:19Z</time>
      </trkpt>
      <trkpt lat="49.8532" lon="2.4831">
        <ele>98.1</ele>
        <time>2020-10-21T14:27:20Z</time>
      </trkpt>
      <trkpt lat="49.85321" lon="2.4831">
        <ele>98.1</ele>
        <time>2020-10-21T14:27:21Z</time>
      </trkpt>
      <trkpt lat="49.85322" lon="2.48309">
        <ele>98.1</ele>
        <time>2020-10-21T14:27:22Z</time>
      </trkpt>
      <trkpt lat="49.85323" lon="2.48309">
        <ele>98.1</ele>
        <time>2020-10-21T14:27:24Z</time>
      </trkpt>
      <trkpt lat="49.85324" lon="2.48309">
        <ele>98.1</ele>
        <time>2020-10-21T14:27:25Z</time>
      </trkpt>
      <trkpt lat="49.85326" lon="2.48308">
        <ele>98.1</ele>
        <time>2020-10-21T14:27:26Z</time>
      </trkpt>
      <trkpt lat="49.85327" lon="2.48308">
        <ele>98.1</ele>
        <time>2020-10-21T14:27:27Z</time>
      </trkpt>
      <trkpt lat="49.85329" lon="2.48308">
        <ele>98</ele>
        <time>2020-10-21T14:27:28Z</time>
      </trkpt>
      <trkpt lat="49.8533" lon="2.48307">
        <ele>98</ele>
        <time>2020-10-21T14:27:29Z</time>
      </trkpt>
      <trkpt lat="49.85331" lon="2.48307">
        <ele>98</ele>
        <time>2020-10-21T14:27:30Z</time>
      </trkpt>
      <trkpt lat="49.85333" lon="2.48306">
        <ele>98</ele>
        <time>2020-10-21T14:27:31Z</time>
      </trkpt>
      <trkpt lat="49.85333" lon="2.48308">
        <ele>97.9</ele>
        <time>2020-10-21T14:27:32Z</time>
      </trkpt>
      <trkpt lat="49.85334" lon="2.4831">
        <ele>97.9</ele>
        <time>2020-10-21T14:27:34Z</time>
      </trkpt>
      <trkpt lat="49.85336" lon="2.4831">
        <ele>97.9</ele>
        <time>2020-10-21T14:27:35Z</time>
      </trkpt>
      <trkpt lat="49.85338" lon="2.48311">
        <ele>97.9</ele>
        <time>2020-10-21T14:27:36Z</time>
      </trkpt>
      <trkpt lat="49.85339" lon="2.4831">
        <ele>97.8</ele>
        <time>2020-10-21T14:27:37Z</time>
      </trkpt>
      <trkpt lat="49.85341" lon="2.48309">
        <ele>97.8</ele>
        <time>2020-10-21T14:27:38Z</time>
      </trkpt>
      <trkpt lat="49.85343" lon="2.48308">
        <ele>97.8</ele>
        <time>2020-10-21T14:27:39Z</time>
      </trkpt>
      <trkpt lat="49.85343" lon="2.48307">
        <ele>97.8</ele>
        <time>2020-10-21T14:27:40Z</time>
      </trkpt>
      <trkpt lat="49.85344" lon="2.48306">
        <ele>97.8</ele>
        <time>2020-10-21T14:27:41Z</time>
      </trkpt>
      <trkpt lat="49.85345" lon="2.48305">
        <ele>97.8</ele>
        <time>2020-10-21T14:27:43Z</time>
      </trkpt>
      <trkpt lat="49.85346" lon="2.48305">
        <ele>97.7</ele>
        <time>2020-10-21T14:27:44Z</time>
      </trkpt>
      <trkpt lat="49.85348" lon="2.48305">
        <ele>97.7</ele>
        <time>2020-10-21T14:27:45Z</time>
      </trkpt>
      <trkpt lat="49.85349" lon="2.48304">
        <ele>97.7</ele>
        <time>2020-10-21T14:27:46Z</time>
      </trkpt>
      <trkpt lat="49.8535" lon="2.48303">
        <ele>97.7</ele>
        <time>2020-10-21T14:27:47Z</time>
      </trkpt>
      <trkpt lat="49.85352" lon="2.48303">
        <ele>97.7</ele>
        <time>2020-10-21T14:27:48Z</time>
      </trkpt>
      <trkpt lat="49.85353" lon="2.48303">
        <ele>97.8</ele>
        <time>2020-10-21T14:27:49Z</time>
      </trkpt>
      <trkpt lat="49.85355" lon="2.48302">
        <ele>97.8</ele>
        <time>2020-10-21T14:27:50Z</time>
      </trkpt>
      <trkpt lat="49.85357" lon="2.48302">
        <ele>97.8</ele>
        <time>2020-10-21T14:27:51Z</time>
      </trkpt>
      <trkpt lat="49.85358" lon="2.48301">
        <ele>97.8</ele>
        <time>2020-10-21T14:27:53Z</time>
      </trkpt>
      <trkpt lat="49.85359" lon="2.48301">
        <ele>97.8</ele>
        <time>2020-10-21T14:27:54Z</time>
      </trkpt>
      <trkpt lat="49.85361" lon="2.483">
        <ele>97.8</ele>
        <time>2020-10-21T14:27:55Z</time>
      </trkpt>
      <trkpt lat="49.85362" lon="2.483">
        <ele>97.8</ele>
        <time>2020-10-21T14:27:56Z</time>
      </trkpt>
      <trkpt lat="49.85364" lon="2.48299">
        <ele>97.8</ele>
        <time>2020-10-21T14:27:57Z</time>
      </trkpt>
      <trkpt lat="49.85365" lon="2.48298">
        <ele>97.8</ele>
        <time>2020-10-21T14:27:58Z</time>
      </trkpt>
      <trkpt lat="49.85367" lon="2.48298">
        <ele>97.8</ele>
        <time>2020-10-21T14:27:59Z</time>
      </trkpt>
      <trkpt lat="49.85366" lon="2.48299">
        <ele>97.8</ele>
        <time>2020-10-21T14:28:00Z</time>
      </trkpt>
      <trkpt lat="49.85367" lon="2.48299">
        <ele>97.9</ele>
        <time>2020-10-21T14:28:02Z</time>
      </trkpt>
      <trkpt lat="49.85368" lon="2.48299">
        <ele>97.9</ele>
        <time>2020-10-21T14:28:03Z</time>
      </trkpt>
      <trkpt lat="49.85369" lon="2.48299">
        <ele>97.9</ele>
        <time>2020-10-21T14:28:04Z</time>
      </trkpt>
      <trkpt lat="49.85371" lon="2.48299">
        <ele>97.9</ele>
        <time>2020-10-21T14:28:05Z</time>
      </trkpt>
      <trkpt lat="49.85372" lon="2.48298">
        <ele>97.9</ele>
        <time>2020-10-21T14:28:06Z</time>
      </trkpt>
      <trkpt lat="49.85373" lon="2.48298">
        <ele>97.9</ele>
        <time>2020-10-21T14:28:07Z</time>
      </trkpt>
      <trkpt lat="49.85374" lon="2.48299">
        <ele>97.9</ele>
        <time>2020-10-21T14:28:08Z</time>
      </trkpt>
      <trkpt lat="49.85375" lon="2.48299">
        <ele>97.9</ele>
        <time>2020-10-21T14:28:09Z</time>
      </trkpt>
      <trkpt lat="49.85375" lon="2.48299">
        <ele>97.9</ele>
        <time>2020-10-21T14:28:10Z</time>
      </trkpt>
      <trkpt lat="49.85377" lon="2.48299">
        <ele>97.9</ele>
        <time>2020-10-21T14:28:12Z</time>
      </trkpt>
      <trkpt lat="49.85378" lon="2.483">
        <ele>98</ele>
        <time>2020-10-21T14:28:13Z</time>
      </trkpt>
      <trkpt lat="49.85379" lon="2.483">
        <ele>98</ele>
        <time>2020-10-21T14:28:14Z</time>
      </trkpt>
      <trkpt lat="49.85382" lon="2.483">
        <ele>98</ele>
        <time>2020-10-21T14:28:15Z</time>
      </trkpt>
      <trkpt lat="49.85383" lon="2.483">
        <ele>98</ele>
        <time>2020-10-21T14:28:16Z</time>
      </trkpt>
      <trkpt lat="49.85384" lon="2.483">
        <ele>98</ele>
        <time>2020-10-21T14:28:17Z</time>
      </trkpt>
      <trkpt lat="49.85385" lon="2.483">
        <ele>98</ele>
        <time>2020-10-21T14:28:18Z</time>
      </trkpt>
      <trkpt lat="49.85387" lon="2.48301">
        <ele>98</ele>
        <time>2020-10-21T14:28:19Z</time>
      </trkpt>
      <trkpt lat="49.85389" lon="2.483">
        <ele>98</ele>
        <time>2020-10-21T14:28:21Z</time>
      </trkpt>
      <trkpt lat="49.85389" lon="2.483">
        <ele>98</ele>
        <time>2020-10-21T14:28:22Z</time>
      </trkpt>
      <trkpt lat="49.8539" lon="2.48299">
        <ele>98</ele>
        <time>2020-10-21T14:28:23Z</time>
      </trkpt>
      <trkpt lat="49.85391" lon="2.48298">
        <ele>98</ele>
        <time>2020-10-21T14:28:24Z</time>
      </trkpt>
      <trkpt lat="49.85392" lon="2.48297">
        <ele>98</ele>
        <time>2020-10-21T14:28:25Z</time>
      </trkpt>
      <trkpt lat="49.85393" lon="2.48297">
        <ele>98</ele>
        <time>2020-10-21T14:28:26Z</time>
      </trkpt>
      <trkpt lat="49.85394" lon="2.48297">
        <ele>98</ele>
        <time>2020-10-21T14:28:27Z</time>
      </trkpt>
      <trkpt lat="49.85394" lon="2.48297">
        <ele>98</ele>
        <time>2020-10-21T14:28:28Z</time>
      </trkpt>
      <trkpt lat="49.85395" lon="2.48297">
        <ele>98</ele>
        <time>2020-10-21T14:28:29Z</time>
      </trkpt>
      <trkpt lat="49.85397" lon="2.48297">
        <ele>98</ele>
        <time>2020-10-21T14:28:31Z</time>
      </trkpt>
      <trkpt lat="49.85399" lon="2.48296">
        <ele>98</ele>
        <time>2020-10-21T14:28:32Z</time>
      </trkpt>
      <trkpt lat="49.854" lon="2.48296">
        <ele>98</ele>
        <time>2020-10-21T14:28:33Z</time>
      </trkpt>
      <trkpt lat="49.85401" lon="2.48296">
        <ele>98</ele>
        <time>2020-10-21T14:28:34Z</time>
      </trkpt>
      <trkpt lat="49.85402" lon="2.48296">
        <ele>98</ele>
        <time>2020-10-21T14:28:35Z</time>
      </trkpt>
      <trkpt lat="49.85403" lon="2.48296">
        <ele>98</ele>
        <time>2020-10-21T14:28:36Z</time>
      </trkpt>
      <trkpt lat="49.85405" lon="2.48296">
        <ele>98</ele>
        <time>2020-10-21T14:28:37Z</time>
      </trkpt>
      <trkpt lat="49.85406" lon="2.48297">
        <ele>98</ele>
        <time>2020-10-21T14:28:38Z</time>
      </trkpt>
      <trkpt lat="49.85408" lon="2.48297">
        <ele>97.9</ele>
        <time>2020-10-21T14:28:39Z</time>
      </trkpt>
      <trkpt lat="49.85409" lon="2.48297">
        <ele>97.9</ele>
        <time>2020-10-21T14:28:40Z</time>
      </trkpt>
      <trkpt lat="49.85412" lon="2.48297">
        <ele>97.9</ele>
        <time>2020-10-21T14:28:42Z</time>
      </trkpt>
      <trkpt lat="49.85413" lon="2.48298">
        <ele>97.9</ele>
        <time>2020-10-21T14:28:43Z</time>
      </trkpt>
      <trkpt lat="49.85416" lon="2.48298">
        <ele>97.9</ele>
        <time>2020-10-21T14:28:44Z</time>
      </trkpt>
      <trkpt lat="49.85416" lon="2.48298">
        <ele>97.9</ele>
        <time>2020-10-21T14:28:45Z</time>
      </trkpt>
      <trkpt lat="49.85417" lon="2.48298">
        <ele>97.9</ele>
        <time>2020-10-21T14:28:46Z</time>
      </trkpt>
      <trkpt lat="49.85419" lon="2.48297">
        <ele>97.9</ele>
        <time>2020-10-21T14:28:47Z</time>
      </trkpt>
      <trkpt lat="49.8542" lon="2.48296">
        <ele>97.9</ele>
        <time>2020-10-21T14:28:48Z</time>
      </trkpt>
      <trkpt lat="49.85422" lon="2.48296">
        <ele>97.9</ele>
        <time>2020-10-21T14:28:49Z</time>
      </trkpt>
      <trkpt lat="49.85423" lon="2.48296">
        <ele>97.9</ele>
        <time>2020-10-21T14:28:50Z</time>
      </trkpt>
      <trkpt lat="49.85425" lon="2.48295">
        <ele>98</ele>
        <time>2020-10-21T14:28:52Z</time>
      </trkpt>
      <trkpt lat="49.85426" lon="2.48295">
        <ele>98</ele>
        <time>2020-10-21T14:28:53Z</time>
      </trkpt>
      <trkpt lat="49.85428" lon="2.48293">
        <ele>98</ele>
        <time>2020-10-21T14:28:54Z</time>
      </trkpt>
      <trkpt lat="49.85429" lon="2.48293">
        <ele>98</ele>
        <time>2020-10-21T14:28:55Z</time>
      </trkpt>
      <trkpt lat="49.8543" lon="2.48292">
        <ele>98.1</ele>
        <time>2020-10-21T14:28:57Z</time>
      </trkpt>
      <trkpt lat="49.85431" lon="2.48292">
        <ele>98.1</ele>
        <time>2020-10-21T14:28:58Z</time>
      </trkpt>
      <trkpt lat="49.85432" lon="2.48291">
        <ele>98.1</ele>
        <time>2020-10-21T14:28:59Z</time>
      </trkpt>
      <trkpt lat="49.85433" lon="2.48291">
        <ele>98.1</ele>
        <time>2020-10-21T14:29:00Z</time>
      </trkpt>
      <trkpt lat="49.85436" lon="2.4829">
        <ele>98.2</ele>
        <time>2020-10-21T14:29:01Z</time>
      </trkpt>
      <trkpt lat="49.85437" lon="2.48289">
        <ele>98.2</ele>
        <time>2020-10-21T14:29:03Z</time>
      </trkpt>
      <trkpt lat="49.85438" lon="2.48289">
        <ele>98.2</ele>
        <time>2020-10-21T14:29:04Z</time>
      </trkpt>
      <trkpt lat="49.85439" lon="2.48288">
        <ele>98.3</ele>
        <time>2020-10-21T14:29:05Z</time>
      </trkpt>
      <trkpt lat="49.85441" lon="2.48288">
        <ele>98.3</ele>
        <time>2020-10-21T14:29:06Z</time>
      </trkpt>
      <trkpt lat="49.85443" lon="2.48288">
        <ele>98.3</ele>
        <time>2020-10-21T14:29:08Z</time>
      </trkpt>
      <trkpt lat="49.85444" lon="2.48287">
        <ele>98.3</ele>
        <time>2020-10-21T14:29:09Z</time>
      </trkpt>
      <trkpt lat="49.85444" lon="2.48287">
        <ele>98.4</ele>
        <time>2020-10-21T14:29:10Z</time>
      </trkpt>
      <trkpt lat="49.85446" lon="2.48287">
        <ele>98.4</ele>
        <time>2020-10-21T14:29:11Z</time>
      </trkpt>
      <trkpt lat="49.85448" lon="2.48286">
        <ele>98.4</ele>
        <time>2020-10-21T14:29:13Z</time>
      </trkpt>
      <trkpt lat="49.85449" lon="2.48285">
        <ele>98.4</ele>
        <time>2020-10-21T14:29:14Z</time>
      </trkpt>
      <trkpt lat="49.8545" lon="2.48284">
        <ele>98.5</ele>
        <time>2020-10-21T14:29:15Z</time>
      </trkpt>
      <trkpt lat="49.85451" lon="2.48283">
        <ele>98.5</ele>
        <time>2020-10-21T14:29:16Z</time>
      </trkpt>
      <trkpt lat="49.85453" lon="2.48282">
        <ele>98.5</ele>
        <time>2020-10-21T14:29:17Z</time>
      </trkpt>
      <trkpt lat="49.85454" lon="2.48281">
        <ele>98.5</ele>
        <time>2020-10-21T14:29:18Z</time>
      </trkpt>
      <trkpt lat="49.85454" lon="2.48279">
        <ele>98.6</ele>
        <time>2020-10-21T14:29:19Z</time>
      </trkpt>
      <trkpt lat="49.85453" lon="2.48277">
        <ele>98.7</ele>
        <time>2020-10-21T14:29:20Z</time>
      </trkpt>
      <trkpt lat="49.85453" lon="2.48275">
        <ele>98.7</ele>
        <time>2020-10-21T14:29:22Z</time>
      </trkpt>
      <trkpt lat="49.85451" lon="2.48271">
        <ele>98.8</ele>
        <time>2020-10-21T14:29:23Z</time>
      </trkpt>
      <trkpt lat="49.8545" lon="2.4827">
        <ele>98.8</ele>
        <time>2020-10-21T14:29:24Z</time>
      </trkpt>
      <trkpt lat="49.8545" lon="2.48268">
        <ele>98.8</ele>
        <time>2020-10-21T14:29:25Z</time>
      </trkpt>
      <trkpt lat="49.85449" lon="2.48266">
        <ele>98.8</ele>
        <time>2020-10-21T14:29:26Z</time>
      </trkpt>
      <trkpt lat="49.85449" lon="2.48265">
        <ele>98.9</ele>
        <time>2020-10-21T14:29:27Z</time>
      </trkpt>
      <trkpt lat="49.85448" lon="2.48262">
        <ele>98.9</ele>
        <time>2020-10-21T14:29:29Z</time>
      </trkpt>
      <trkpt lat="49.85447" lon="2.48261">
        <ele>98.9</ele>
        <time>2020-10-21T14:29:30Z</time>
      </trkpt>
      <trkpt lat="49.85447" lon="2.4826">
        <ele>98.9</ele>
        <time>2020-10-21T14:29:31Z</time>
      </trkpt>
      <trkpt lat="49.85446" lon="2.48257">
        <ele>98.9</ele>
        <time>2020-10-21T14:29:32Z</time>
      </trkpt>
      <trkpt lat="49.85445" lon="2.48256">
        <ele>99</ele>
        <time>2020-10-21T14:29:33Z</time>
      </trkpt>
      <trkpt lat="49.85445" lon="2.48255">
        <ele>99</ele>
        <time>2020-10-21T14:29:34Z</time>
      </trkpt>
      <trkpt lat="49.85444" lon="2.48252">
        <ele>99</ele>
        <time>2020-10-21T14:29:35Z</time>
      </trkpt>
      <trkpt lat="49.85444" lon="2.4825">
        <ele>99</ele>
        <time>2020-10-21T14:29:36Z</time>
      </trkpt>
      <trkpt lat="49.85443" lon="2.48245">
        <ele>99</ele>
        <time>2020-10-21T14:29:38Z</time>
      </trkpt>
      <trkpt lat="49.85443" lon="2.48244">
        <ele>99.1</ele>
        <time>2020-10-21T14:29:39Z</time>
      </trkpt>
      <trkpt lat="49.85443" lon="2.48241">
        <ele>99.1</ele>
        <time>2020-10-21T14:29:40Z</time>
      </trkpt>
      <trkpt lat="49.85443" lon="2.48239">
        <ele>99.1</ele>
        <time>2020-10-21T14:29:41Z</time>
      </trkpt>
      <trkpt lat="49.85442" lon="2.48235">
        <ele>99.1</ele>
        <time>2020-10-21T14:29:43Z</time>
      </trkpt>
      <trkpt lat="49.85442" lon="2.48233">
        <ele>99.1</ele>
        <time>2020-10-21T14:29:44Z</time>
      </trkpt>
      <trkpt lat="49.85442" lon="2.48231">
        <ele>99.2</ele>
        <time>2020-10-21T14:29:45Z</time>
      </trkpt>
      <trkpt lat="49.85441" lon="2.48228">
        <ele>99.2</ele>
        <time>2020-10-21T14:29:47Z</time>
      </trkpt>
      <trkpt lat="49.8544" lon="2.48226">
        <ele>99.2</ele>
        <time>2020-10-21T14:29:48Z</time>
      </trkpt>
      <trkpt lat="49.85439" lon="2.48224">
        <ele>99.2</ele>
        <time>2020-10-21T14:29:49Z</time>
      </trkpt>
      <trkpt lat="49.85439" lon="2.48224">
        <ele>99.2</ele>
        <time>2020-10-21T14:29:50Z</time>
      </trkpt>
      <trkpt lat="49.85438" lon="2.48224">
        <ele>99.2</ele>
        <time>2020-10-21T14:29:51Z</time>
      </trkpt>
      <trkpt lat="49.85437" lon="2.48223">
        <ele>99.2</ele>
        <time>2020-10-21T14:29:53Z</time>
      </trkpt>
      <trkpt lat="49.85436" lon="2.48221">
        <ele>99.3</ele>
        <time>2020-10-21T14:29:54Z</time>
      </trkpt>
      <trkpt lat="49.85436" lon="2.48219">
        <ele>99.3</ele>
        <time>2020-10-21T14:29:55Z</time>
      </trkpt>
      <trkpt lat="49.85435" lon="2.48217">
        <ele>99.3</ele>
        <time>2020-10-21T14:29:56Z</time>
      </trkpt>
      <trkpt lat="49.85434" lon="2.48215">
        <ele>99.3</ele>
        <time>2020-10-21T14:29:57Z</time>
      </trkpt>
      <trkpt lat="49.85434" lon="2.48213">
        <ele>99.3</ele>
        <time>2020-10-21T14:29:58Z</time>
      </trkpt>
      <trkpt lat="49.85434" lon="2.48209">
        <ele>99.4</ele>
        <time>2020-10-21T14:29:59Z</time>
      </trkpt>
      <trkpt lat="49.85433" lon="2.48207">
        <ele>99.4</ele>
        <time>2020-10-21T14:30:01Z</time>
      </trkpt>
      <trkpt lat="49.85433" lon="2.48206">
        <ele>99.4</ele>
        <time>2020-10-21T14:30:02Z</time>
      </trkpt>
      <trkpt lat="49.85432" lon="2.48204">
        <ele>99.4</ele>
        <time>2020-10-21T14:30:03Z</time>
      </trkpt>
      <trkpt lat="49.85432" lon="2.48203">
        <ele>99.4</ele>
        <time>2020-10-21T14:30:04Z</time>
      </trkpt>
      <trkpt lat="49.8543" lon="2.482">
        <ele>99.5</ele>
        <time>2020-10-21T14:30:05Z</time>
      </trkpt>
      <trkpt lat="49.8543" lon="2.48199">
        <ele>99.5</ele>
        <time>2020-10-21T14:30:06Z</time>
      </trkpt>
      <trkpt lat="49.85429" lon="2.48197">
        <ele>99.5</ele>
        <time>2020-10-21T14:30:07Z</time>
      </trkpt>
      <trkpt lat="49.85432" lon="2.48191">
        <ele>99.6</ele>
        <time>2020-10-21T14:30:09Z</time>
      </trkpt>
      <trkpt lat="49.8543" lon="2.48188">
        <ele>99.6</ele>
        <time>2020-10-21T14:30:10Z</time>
      </trkpt>
      <trkpt lat="49.8543" lon="2.48187">
        <ele>99.6</ele>
        <time>2020-10-21T14:30:11Z</time>
      </trkpt>
      <trkpt lat="49.85429" lon="2.48186">
        <ele>99.6</ele>
        <time>2020-10-21T14:30:12Z</time>
      </trkpt>
      <trkpt lat="49.85428" lon="2.48184">
        <ele>99.6</ele>
        <time>2020-10-21T14:30:13Z</time>
      </trkpt>
      <trkpt lat="49.85429" lon="2.48181">
        <ele>99.7</ele>
        <time>2020-10-21T14:30:14Z</time>
      </trkpt>
      <trkpt lat="49.85428" lon="2.48178">
        <ele>99.7</ele>
        <time>2020-10-21T14:30:16Z</time>
      </trkpt>
      <trkpt lat="49.85429" lon="2.48177">
        <ele>99.7</ele>
        <time>2020-10-21T14:30:17Z</time>
      </trkpt>
      <trkpt lat="49.85429" lon="2.48177">
        <ele>99.7</ele>
        <time>2020-10-21T14:30:18Z</time>
      </trkpt>
      <trkpt lat="49.85428" lon="2.4818">
        <ele>99.7</ele>
        <time>2020-10-21T14:30:20Z</time>
      </trkpt>
      <trkpt lat="49.85428" lon="2.48181">
        <ele>99.8</ele>
        <time>2020-10-21T14:30:21Z</time>
      </trkpt>
      <trkpt lat="49.85427" lon="2.48183">
        <ele>99.8</ele>
        <time>2020-10-21T14:30:22Z</time>
      </trkpt>
      <trkpt lat="49.85427" lon="2.48183">
        <ele>99.8</ele>
        <time>2020-10-21T14:30:23Z</time>
      </trkpt>
      <trkpt lat="49.85426" lon="2.48181">
        <ele>99.8</ele>
        <time>2020-10-21T14:30:25Z</time>
      </trkpt>
      <trkpt lat="49.85426" lon="2.48179">
        <ele>99.8</ele>
        <time>2020-10-21T14:30:26Z</time>
      </trkpt>
      <trkpt lat="49.85425" lon="2.48176">
        <ele>99.8</ele>
        <time>2020-10-21T14:30:28Z</time>
      </trkpt>
      <trkpt lat="49.85426" lon="2.48173">
        <ele>99.9</ele>
        <time>2020-10-21T14:30:29Z</time>
      </trkpt>
      <trkpt lat="49.85425" lon="2.48171">
        <ele>99.9</ele>
        <time>2020-10-21T14:30:30Z</time>
      </trkpt>
      <trkpt lat="49.85423" lon="2.4817">
        <ele>99.9</ele>
        <time>2020-10-21T14:30:31Z</time>
      </trkpt>
      <trkpt lat="49.85422" lon="2.48168">
        <ele>99.9</ele>
        <time>2020-10-21T14:30:33Z</time>
      </trkpt>
      <trkpt lat="49.85424" lon="2.48165">
        <ele>100</ele>
        <time>2020-10-21T14:30:34Z</time>
      </trkpt>
      <trkpt lat="49.85424" lon="2.48167">
        <ele>100</ele>
        <time>2020-10-21T14:30:35Z</time>
      </trkpt>
      <trkpt lat="49.85425" lon="2.48168">
        <ele>100</ele>
        <time>2020-10-21T14:30:36Z</time>
      </trkpt>
      <trkpt lat="49.85425" lon="2.48169">
        <ele>100</ele>
        <time>2020-10-21T14:30:37Z</time>
      </trkpt>
      <trkpt lat="49.85425" lon="2.48172">
        <ele>100</ele>
        <time>2020-10-21T14:30:39Z</time>
      </trkpt>
      <trkpt lat="49.85426" lon="2.48174">
        <ele>100</ele>
        <time>2020-10-21T14:30:41Z</time>
      </trkpt>
      <trkpt lat="49.85426" lon="2.48174">
        <ele>100</ele>
        <time>2020-10-21T14:30:42Z</time>
      </trkpt>
      <trkpt lat="49.85426" lon="2.48175">
        <ele>100</ele>
        <time>2020-10-21T14:30:43Z</time>
      </trkpt>
      <trkpt lat="49.85426" lon="2.48176">
        <ele>100.1</ele>
        <time>2020-10-21T14:30:44Z</time>
      </trkpt>
      <trkpt lat="49.85425" lon="2.48175">
        <ele>100.1</ele>
        <time>2020-10-21T14:30:46Z</time>
      </trkpt>
      <trkpt lat="49.85424" lon="2.48174">
        <ele>100.1</ele>
        <time>2020-10-21T14:30:47Z</time>
      </trkpt>
      <trkpt lat="49.85423" lon="2.48173">
        <ele>100.1</ele>
        <time>2020-10-21T14:30:48Z</time>
      </trkpt>
      <trkpt lat="49.85422" lon="2.48172">
        <ele>100.1</ele>
        <time>2020-10-21T14:30:49Z</time>
      </trkpt>
      <trkpt lat="49.85422" lon="2.48168">
        <ele>100.1</ele>
        <time>2020-10-21T14:30:50Z</time>
      </trkpt>
      <trkpt lat="49.85422" lon="2.48167">
        <ele>100.1</ele>
        <time>2020-10-21T14:30:52Z</time>
      </trkpt>
      <trkpt lat="49.85422" lon="2.48166">
        <ele>100.1</ele>
        <time>2020-10-21T14:30:53Z</time>
      </trkpt>
      <trkpt lat="49.85422" lon="2.48163">
        <ele>100.2</ele>
        <time>2020-10-21T14:30:54Z</time>
      </trkpt>
      <trkpt lat="49.85421" lon="2.48161">
        <ele>100.2</ele>
        <time>2020-10-21T14:30:55Z</time>
      </trkpt>
      <trkpt lat="49.85419" lon="2.48157">
        <ele>100.2</ele>
        <time>2020-10-21T14:30:57Z</time>
      </trkpt>
      <trkpt lat="49.85418" lon="2.48156">
        <ele>100.2</ele>
        <time>2020-10-21T14:30:58Z</time>
      </trkpt>
      <trkpt lat="49.85417" lon="2.48152">
        <ele>100.3</ele>
        <time>2020-10-21T14:31:00Z</time>
      </trkpt>
      <trkpt lat="49.85417" lon="2.48151">
        <ele>100.3</ele>
        <time>2020-10-21T14:31:01Z</time>
      </trkpt>
      <trkpt lat="49.85416" lon="2.48149">
        <ele>100.3</ele>
        <time>2020-10-21T14:31:02Z</time>
      </trkpt>
      <trkpt lat="49.85415" lon="2.48147">
        <ele>100.3</ele>
        <time>2020-10-21T14:31:03Z</time>
      </trkpt>
      <trkpt lat="49.85414" lon="2.48145">
        <ele>100.3</ele>
        <time>2020-10-21T14:31:04Z</time>
      </trkpt>
      <trkpt lat="49.85413" lon="2.48143">
        <ele>100.4</ele>
        <time>2020-10-21T14:31:05Z</time>
      </trkpt>
      <trkpt lat="49.85411" lon="2.4814">
        <ele>100.4</ele>
        <time>2020-10-21T14:31:07Z</time>
      </trkpt>
      <trkpt lat="49.8541" lon="2.48139">
        <ele>100.4</ele>
        <time>2020-10-21T14:31:08Z</time>
      </trkpt>
      <trkpt lat="49.85409" lon="2.48136">
        <ele>100.4</ele>
        <time>2020-10-21T14:31:09Z</time>
      </trkpt>
      <trkpt lat="49.85409" lon="2.48134">
        <ele>100.4</ele>
        <time>2020-10-21T14:31:10Z</time>
      </trkpt>
      <trkpt lat="49.85408" lon="2.48131">
        <ele>100.5</ele>
        <time>2020-10-21T14:31:11Z</time>
      </trkpt>
      <trkpt lat="49.85407" lon="2.48129">
        <ele>100.5</ele>
        <time>2020-10-21T14:31:12Z</time>
      </trkpt>
      <trkpt lat="49.85407" lon="2.48127">
        <ele>100.5</ele>
        <time>2020-10-21T14:31:13Z</time>
      </trkpt>
      <trkpt lat="49.85406" lon="2.48125">
        <ele>100.5</ele>
        <time>2020-10-21T14:31:15Z</time>
      </trkpt>
      <trkpt lat="49.85406" lon="2.48122">
        <ele>100.5</ele>
        <time>2020-10-21T14:31:16Z</time>
      </trkpt>
      <trkpt lat="49.85405" lon="2.4812">
        <ele>100.5</ele>
        <time>2020-10-21T14:31:17Z</time>
      </trkpt>
      <trkpt lat="49.85404" lon="2.48118">
        <ele>100.5</ele>
        <time>2020-10-21T14:31:18Z</time>
      </trkpt>
      <trkpt lat="49.85404" lon="2.48116">
        <ele>100.6</ele>
        <time>2020-10-21T14:31:19Z</time>
      </trkpt>
      <trkpt lat="49.85403" lon="2.48113">
        <ele>100.6</ele>
        <time>2020-10-21T14:31:20Z</time>
      </trkpt>
      <trkpt lat="49.85402" lon="2.48111">
        <ele>100.6</ele>
        <time>2020-10-21T14:31:21Z</time>
      </trkpt>
      <trkpt lat="49.85401" lon="2.4811">
        <ele>100.6</ele>
        <time>2020-10-21T14:31:23Z</time>
      </trkpt>
      <trkpt lat="49.854" lon="2.48108">
        <ele>100.6</ele>
        <time>2020-10-21T14:31:24Z</time>
      </trkpt>
      <trkpt lat="49.85399" lon="2.48107">
        <ele>100.6</ele>
        <time>2020-10-21T14:31:25Z</time>
      </trkpt>
      <trkpt lat="49.85398" lon="2.48106">
        <ele>100.6</ele>
        <time>2020-10-21T14:31:26Z</time>
      </trkpt>
      <trkpt lat="49.85396" lon="2.48103">
        <ele>100.7</ele>
        <time>2020-10-21T14:31:27Z</time>
      </trkpt>
      <trkpt lat="49.85394" lon="2.48101">
        <ele>100.6</ele>
        <time>2020-10-21T14:31:30Z</time>
      </trkpt>
      <trkpt lat="49.85393" lon="2.48099">
        <ele>100.6</ele>
        <time>2020-10-21T14:31:31Z</time>
      </trkpt>
      <trkpt lat="49.85392" lon="2.48097">
        <ele>100.6</ele>
        <time>2020-10-21T14:31:32Z</time>
      </trkpt>
      <trkpt lat="49.85391" lon="2.48096">
        <ele>100.6</ele>
        <time>2020-10-21T14:31:33Z</time>
      </trkpt>
      <trkpt lat="49.85389" lon="2.48094">
        <ele>100.6</ele>
        <time>2020-10-21T14:31:35Z</time>
      </trkpt>
      <trkpt lat="49.85387" lon="2.48091">
        <ele>100.6</ele>
        <time>2020-10-21T14:31:36Z</time>
      </trkpt>
      <trkpt lat="49.85386" lon="2.48091">
        <ele>100.6</ele>
        <time>2020-10-21T14:31:37Z</time>
      </trkpt>
      <trkpt lat="49.85386" lon="2.48091">
        <ele>100.6</ele>
        <time>2020-10-21T14:31:38Z</time>
      </trkpt>
      <trkpt lat="49.85385" lon="2.48088">
        <ele>100.6</ele>
        <time>2020-10-21T14:31:39Z</time>
      </trkpt>
      <trkpt lat="49.85383" lon="2.48087">
        <ele>100.6</ele>
        <time>2020-10-21T14:31:40Z</time>
      </trkpt>
      <trkpt lat="49.85381" lon="2.48088">
        <ele>100.5</ele>
        <time>2020-10-21T14:31:42Z</time>
      </trkpt>
      <trkpt lat="49.8538" lon="2.48088">
        <ele>100.5</ele>
        <time>2020-10-21T14:31:43Z</time>
      </trkpt>
      <trkpt lat="49.85378" lon="2.48089">
        <ele>100.5</ele>
        <time>2020-10-21T14:31:44Z</time>
      </trkpt>
      <trkpt lat="49.85377" lon="2.48088">
        <ele>100.5</ele>
        <time>2020-10-21T14:31:45Z</time>
      </trkpt>
      <trkpt lat="49.85375" lon="2.48088">
        <ele>100.5</ele>
        <time>2020-10-21T14:31:47Z</time>
      </trkpt>
      <trkpt lat="49.85374" lon="2.48084">
        <ele>100.5</ele>
        <time>2020-10-21T14:31:48Z</time>
      </trkpt>
      <trkpt lat="49.85374" lon="2.48081">
        <ele>100.5</ele>
        <time>2020-10-21T14:31:49Z</time>
      </trkpt>
      <trkpt lat="49.85372" lon="2.48081">
        <ele>100.4</ele>
        <time>2020-10-21T14:31:51Z</time>
      </trkpt>
      <trkpt lat="49.85371" lon="2.48081">
        <ele>100.4</ele>
        <time>2020-10-21T14:31:52Z</time>
      </trkpt>
      <trkpt lat="49.8537" lon="2.48081">
        <ele>100.4</ele>
        <time>2020-10-21T14:31:53Z</time>
      </trkpt>
      <trkpt lat="49.8537" lon="2.48078">
        <ele>100.4</ele>
        <time>2020-10-21T14:31:54Z</time>
      </trkpt>
      <trkpt lat="49.85369" lon="2.48075">
        <ele>100.4</ele>
        <time>2020-10-21T14:31:56Z</time>
      </trkpt>
      <trkpt lat="49.85368" lon="2.48076">
        <ele>100.4</ele>
        <time>2020-10-21T14:31:57Z</time>
      </trkpt>
      <trkpt lat="49.85366" lon="2.48076">
        <ele>100.4</ele>
        <time>2020-10-21T14:31:58Z</time>
      </trkpt>
      <trkpt lat="49.85365" lon="2.48079">
        <ele>100.4</ele>
        <time>2020-10-21T14:31:59Z</time>
      </trkpt>
      <trkpt lat="49.85364" lon="2.4808">
        <ele>100.3</ele>
        <time>2020-10-21T14:32:01Z</time>
      </trkpt>
      <trkpt lat="49.85363" lon="2.48081">
        <ele>100.3</ele>
        <time>2020-10-21T14:32:02Z</time>
      </trkpt>
      <trkpt lat="49.85362" lon="2.48082">
        <ele>100.3</ele>
        <time>2020-10-21T14:32:03Z</time>
      </trkpt>
      <trkpt lat="49.8536" lon="2.48084">
        <ele>100.3</ele>
        <time>2020-10-21T14:32:04Z</time>
      </trkpt>
      <trkpt lat="49.85359" lon="2.48084">
        <ele>100.3</ele>
        <time>2020-10-21T14:32:05Z</time>
      </trkpt>
      <trkpt lat="49.85358" lon="2.48085">
        <ele>100.3</ele>
        <time>2020-10-21T14:32:06Z</time>
      </trkpt>
      <trkpt lat="49.85357" lon="2.48086">
        <ele>100.3</ele>
        <time>2020-10-21T14:32:07Z</time>
      </trkpt>
      <trkpt lat="49.85356" lon="2.48086">
        <ele>100.3</ele>
        <time>2020-10-21T14:32:08Z</time>
      </trkpt>
      <trkpt lat="49.85354" lon="2.48086">
        <ele>100.3</ele>
        <time>2020-10-21T14:32:10Z</time>
      </trkpt>
      <trkpt lat="49.85353" lon="2.48086">
        <ele>100.3</ele>
        <time>2020-10-21T14:32:11Z</time>
      </trkpt>
      <trkpt lat="49.85352" lon="2.48087">
        <ele>100.3</ele>
        <time>2020-10-21T14:32:12Z</time>
      </trkpt>
      <trkpt lat="49.8535" lon="2.48087">
        <ele>100.3</ele>
        <time>2020-10-21T14:32:13Z</time>
      </trkpt>
      <trkpt lat="49.85349" lon="2.48086">
        <ele>100.3</ele>
        <time>2020-10-21T14:32:14Z</time>
      </trkpt>
      <trkpt lat="49.85348" lon="2.48086">
        <ele>100.3</ele>
        <time>2020-10-21T14:32:15Z</time>
      </trkpt>
      <trkpt lat="49.85346" lon="2.48086">
        <ele>100.3</ele>
        <time>2020-10-21T14:32:16Z</time>
      </trkpt>
      <trkpt lat="49.85345" lon="2.48086">
        <ele>100.3</ele>
        <time>2020-10-21T14:32:17Z</time>
      </trkpt>
      <trkpt lat="49.85343" lon="2.48084">
        <ele>100.3</ele>
        <time>2020-10-21T14:32:18Z</time>
      </trkpt>
      <trkpt lat="49.85342" lon="2.48083">
        <ele>100.3</ele>
        <time>2020-10-21T14:32:20Z</time>
      </trkpt>
      <trkpt lat="49.85341" lon="2.48082">
        <ele>100.3</ele>
        <time>2020-10-21T14:32:21Z</time>
      </trkpt>
      <trkpt lat="49.8534" lon="2.48081">
        <ele>100.3</ele>
        <time>2020-10-21T14:32:22Z</time>
      </trkpt>
      <trkpt lat="49.85339" lon="2.4808">
        <ele>100.3</ele>
        <time>2020-10-21T14:32:23Z</time>
      </trkpt>
      <trkpt lat="49.85338" lon="2.4808">
        <ele>100.3</ele>
        <time>2020-10-21T14:32:24Z</time>
      </trkpt>
      <trkpt lat="49.85338" lon="2.48078">
        <ele>100.3</ele>
        <time>2020-10-21T14:32:25Z</time>
      </trkpt>
      <trkpt lat="49.85336" lon="2.48078">
        <ele>100.3</ele>
        <time>2020-10-21T14:32:26Z</time>
      </trkpt>
      <trkpt lat="49.85335" lon="2.48078">
        <ele>100.3</ele>
        <time>2020-10-21T14:32:28Z</time>
      </trkpt>
      <trkpt lat="49.85334" lon="2.48078">
        <ele>100.3</ele>
        <time>2020-10-21T14:32:29Z</time>
      </trkpt>
      <trkpt lat="49.85333" lon="2.48079">
        <ele>100.3</ele>
        <time>2020-10-21T14:32:30Z</time>
      </trkpt>
      <trkpt lat="49.85331" lon="2.48078">
        <ele>100.3</ele>
        <time>2020-10-21T14:32:31Z</time>
      </trkpt>
      <trkpt lat="49.8533" lon="2.48078">
        <ele>100.3</ele>
        <time>2020-10-21T14:32:32Z</time>
      </trkpt>
      <trkpt lat="49.85329" lon="2.48078">
        <ele>100.3</ele>
        <time>2020-10-21T14:32:33Z</time>
      </trkpt>
      <trkpt lat="49.85327" lon="2.48079">
        <ele>100.3</ele>
        <time>2020-10-21T14:32:34Z</time>
      </trkpt>
      <trkpt lat="49.85326" lon="2.48078">
        <ele>100.3</ele>
        <time>2020-10-21T14:32:35Z</time>
      </trkpt>
      <trkpt lat="49.85325" lon="2.48079">
        <ele>100.3</ele>
        <time>2020-10-21T14:32:36Z</time>
      </trkpt>
      <trkpt lat="49.85323" lon="2.48079">
        <ele>100.3</ele>
        <time>2020-10-21T14:32:38Z</time>
      </trkpt>
      <trkpt lat="49.85322" lon="2.4808">
        <ele>100.3</ele>
        <time>2020-10-21T14:32:39Z</time>
      </trkpt>
      <trkpt lat="49.85321" lon="2.48081">
        <ele>100.3</ele>
        <time>2020-10-21T14:32:40Z</time>
      </trkpt>
      <trkpt lat="49.85319" lon="2.48081">
        <ele>100.3</ele>
        <time>2020-10-21T14:32:41Z</time>
      </trkpt>
      <trkpt lat="49.85318" lon="2.48082">
        <ele>100.3</ele>
        <time>2020-10-21T14:32:42Z</time>
      </trkpt>
      <trkpt lat="49.85317" lon="2.48082">
        <ele>100.3</ele>
        <time>2020-10-21T14:32:43Z</time>
      </trkpt>
      <trkpt lat="49.85316" lon="2.48083">
        <ele>100.4</ele>
        <time>2020-10-21T14:32:44Z</time>
      </trkpt>
      <trkpt lat="49.85314" lon="2.48082">
        <ele>100.4</ele>
        <time>2020-10-21T14:32:45Z</time>
      </trkpt>
      <trkpt lat="49.85313" lon="2.48083">
        <ele>100.4</ele>
        <time>2020-10-21T14:32:47Z</time>
      </trkpt>
      <trkpt lat="49.85311" lon="2.48083">
        <ele>100.4</ele>
        <time>2020-10-21T14:32:48Z</time>
      </trkpt>
      <trkpt lat="49.8531" lon="2.48083">
        <ele>100.4</ele>
        <time>2020-10-21T14:32:49Z</time>
      </trkpt>
      <trkpt lat="49.85309" lon="2.48083">
        <ele>100.4</ele>
        <time>2020-10-21T14:32:50Z</time>
      </trkpt>
      <trkpt lat="49.85308" lon="2.48084">
        <ele>100.4</ele>
        <time>2020-10-21T14:32:51Z</time>
      </trkpt>
      <trkpt lat="49.85306" lon="2.48084">
        <ele>100.4</ele>
        <time>2020-10-21T14:32:52Z</time>
      </trkpt>
      <trkpt lat="49.85305" lon="2.48084">
        <ele>100.4</ele>
        <time>2020-10-21T14:32:53Z</time>
      </trkpt>
      <trkpt lat="49.85304" lon="2.48084">
        <ele>100.4</ele>
        <time>2020-10-21T14:32:54Z</time>
      </trkpt>
      <trkpt lat="49.85302" lon="2.48082">
        <ele>100.4</ele>
        <time>2020-10-21T14:32:56Z</time>
      </trkpt>
      <trkpt lat="49.85301" lon="2.48081">
        <ele>100.4</ele>
        <time>2020-10-21T14:32:57Z</time>
      </trkpt>
      <trkpt lat="49.853" lon="2.4808">
        <ele>100.4</ele>
        <time>2020-10-21T14:32:58Z</time>
      </trkpt>
      <trkpt lat="49.85299" lon="2.48079">
        <ele>100.4</ele>
        <time>2020-10-21T14:32:59Z</time>
      </trkpt>
      <trkpt lat="49.85297" lon="2.48077">
        <ele>100.5</ele>
        <time>2020-10-21T14:33:00Z</time>
      </trkpt>
      <trkpt lat="49.85296" lon="2.48077">
        <ele>100.5</ele>
        <time>2020-10-21T14:33:01Z</time>
      </trkpt>
      <trkpt lat="49.85294" lon="2.48076">
        <ele>100.5</ele>
        <time>2020-10-21T14:33:02Z</time>
      </trkpt>
      <trkpt lat="49.85293" lon="2.48076">
        <ele>100.5</ele>
        <time>2020-10-21T14:33:04Z</time>
      </trkpt>
      <trkpt lat="49.85292" lon="2.48076">
        <ele>100.5</ele>
        <time>2020-10-21T14:33:05Z</time>
      </trkpt>
      <trkpt lat="49.8529" lon="2.48075">
        <ele>100.5</ele>
        <time>2020-10-21T14:33:06Z</time>
      </trkpt>
      <trkpt lat="49.85289" lon="2.48075">
        <ele>100.5</ele>
        <time>2020-10-21T14:33:07Z</time>
      </trkpt>
      <trkpt lat="49.85288" lon="2.48075">
        <ele>100.5</ele>
        <time>2020-10-21T14:33:08Z</time>
      </trkpt>
      <trkpt lat="49.85287" lon="2.48075">
        <ele>100.5</ele>
        <time>2020-10-21T14:33:09Z</time>
      </trkpt>
      <trkpt lat="49.85285" lon="2.48075">
        <ele>100.5</ele>
        <time>2020-10-21T14:33:11Z</time>
      </trkpt>
      <trkpt lat="49.85283" lon="2.48075">
        <ele>100.5</ele>
        <time>2020-10-21T14:33:12Z</time>
      </trkpt>
      <trkpt lat="49.85282" lon="2.48075">
        <ele>100.5</ele>
        <time>2020-10-21T14:33:13Z</time>
      </trkpt>
      <trkpt lat="49.85281" lon="2.48075">
        <ele>100.5</ele>
        <time>2020-10-21T14:33:14Z</time>
      </trkpt>
      <trkpt lat="49.85279" lon="2.48073">
        <ele>100.5</ele>
        <time>2020-10-21T14:33:15Z</time>
      </trkpt>
      <trkpt lat="49.85278" lon="2.48073">
        <ele>100.5</ele>
        <time>2020-10-21T14:33:16Z</time>
      </trkpt>
      <trkpt lat="49.85277" lon="2.48073">
        <ele>100.6</ele>
        <time>2020-10-21T14:33:17Z</time>
      </trkpt>
      <trkpt lat="49.85275" lon="2.48073">
        <ele>100.6</ele>
        <time>2020-10-21T14:33:19Z</time>
      </trkpt>
      <trkpt lat="49.85274" lon="2.48071">
        <ele>100.6</ele>
        <time>2020-10-21T14:33:20Z</time>
      </trkpt>
      <trkpt lat="49.85273" lon="2.48072">
        <ele>100.6</ele>
        <time>2020-10-21T14:33:21Z</time>
      </trkpt>
      <trkpt lat="49.85271" lon="2.48073">
        <ele>100.6</ele>
        <time>2020-10-21T14:33:23Z</time>
      </trkpt>
      <trkpt lat="49.8527" lon="2.48075">
        <ele>100.6</ele>
        <time>2020-10-21T14:33:24Z</time>
      </trkpt>
      <trkpt lat="49.85269" lon="2.48069">
        <ele>100.6</ele>
        <time>2020-10-21T14:33:25Z</time>
      </trkpt>
      <trkpt lat="49.8527" lon="2.48067">
        <ele>100.6</ele>
        <time>2020-10-21T14:33:27Z</time>
      </trkpt>
      <trkpt lat="49.85271" lon="2.48066">
        <ele>100.6</ele>
        <time>2020-10-21T14:33:28Z</time>
      </trkpt>
      <trkpt lat="49.85271" lon="2.48066">
        <ele>100.6</ele>
        <time>2020-10-21T14:33:30Z</time>
      </trkpt>
      <trkpt lat="49.85272" lon="2.48069">
        <ele>100.6</ele>
        <time>2020-10-21T14:33:32Z</time>
      </trkpt>
      <trkpt lat="49.85273" lon="2.4807">
        <ele>100.6</ele>
        <time>2020-10-21T14:33:33Z</time>
      </trkpt>
      <trkpt lat="49.85274" lon="2.4807">
        <ele>100.6</ele>
        <time>2020-10-21T14:33:35Z</time>
      </trkpt>
      <trkpt lat="49.85274" lon="2.48069">
        <ele>100.6</ele>
        <time>2020-10-21T14:33:36Z</time>
      </trkpt>
      <trkpt lat="49.85274" lon="2.48069">
        <ele>100.6</ele>
        <time>2020-10-21T14:33:37Z</time>
      </trkpt>
      <trkpt lat="49.85274" lon="2.48068">
        <ele>100.6</ele>
        <time>2020-10-21T14:33:39Z</time>
      </trkpt>
      <trkpt lat="49.85274" lon="2.48068">
        <ele>100.6</ele>
        <time>2020-10-21T14:33:40Z</time>
      </trkpt>
      <trkpt lat="49.85275" lon="2.48068">
        <ele>100.6</ele>
        <time>2020-10-21T14:33:41Z</time>
      </trkpt>
      <trkpt lat="49.85275" lon="2.48068">
        <ele>100.6</ele>
        <time>2020-10-21T14:33:44Z</time>
      </trkpt>
      <trkpt lat="49.85275" lon="2.48068">
        <ele>100.6</ele>
        <time>2020-10-21T14:33:45Z</time>
      </trkpt>
      <trkpt lat="49.85275" lon="2.48068">
        <ele>100.6</ele>
        <time>2020-10-21T14:33:47Z</time>
      </trkpt>
      <trkpt lat="49.85276" lon="2.48069">
        <ele>100.6</ele>
        <time>2020-10-21T14:33:49Z</time>
      </trkpt>
      <trkpt lat="49.85276" lon="2.48069">
        <ele>100.6</ele>
        <time>2020-10-21T14:33:50Z</time>
      </trkpt>
      <trkpt lat="49.85276" lon="2.48069">
        <ele>100.6</ele>
        <time>2020-10-21T14:33:52Z</time>
      </trkpt>
      <trkpt lat="49.85276" lon="2.48069">
        <ele>100.6</ele>
        <time>2020-10-21T14:33:54Z</time>
      </trkpt>
      <trkpt lat="49.85276" lon="2.48069">
        <ele>100.6</ele>
        <time>2020-10-21T14:33:55Z</time>
      </trkpt>
      <trkpt lat="49.85276" lon="2.48069">
        <ele>100.6</ele>
        <time>2020-10-21T14:33:56Z</time>
      </trkpt>
      <trkpt lat="49.85276" lon="2.48069">
        <ele>100.6</ele>
        <time>2020-10-21T14:33:57Z</time>
      </trkpt>
      <trkpt lat="49.85276" lon="2.48069">
        <ele>100.6</ele>
        <time>2020-10-21T14:33:58Z</time>
      </trkpt>
      <trkpt lat="49.85276" lon="2.48069">
        <ele>100.6</ele>
        <time>2020-10-21T14:34:00Z</time>
      </trkpt>
      <trkpt lat="49.85276" lon="2.48069">
        <ele>100.6</ele>
        <time>2020-10-21T14:34:02Z</time>
      </trkpt>
      <trkpt lat="49.85276" lon="2.48069">
        <ele>100.6</ele>
        <time>2020-10-21T14:34:03Z</time>
      </trkpt>
      <trkpt lat="49.85276" lon="2.48069">
        <ele>100.6</ele>
        <time>2020-10-21T14:34:05Z</time>
      </trkpt>
      <trkpt lat="49.85276" lon="2.48069">
        <ele>100.6</ele>
        <time>2020-10-21T14:34:06Z</time>
      </trkpt>
      <trkpt lat="49.85276" lon="2.48069">
        <ele>100.6</ele>
        <time>2020-10-21T14:34:07Z</time>
      </trkpt>
      <trkpt lat="49.85276" lon="2.48069">
        <ele>100.6</ele>
        <time>2020-10-21T14:34:09Z</time>
      </trkpt>
      <trkpt lat="49.85276" lon="2.48069">
        <ele>100.6</ele>
        <time>2020-10-21T14:34:10Z</time>
      </trkpt>
      <trkpt lat="49.85276" lon="2.48069">
        <ele>100.6</ele>
        <time>2020-10-21T14:34:11Z</time>
      </trkpt>
      <trkpt lat="49.85276" lon="2.48069">
        <ele>100.6</ele>
        <time>2020-10-21T14:34:13Z</time>
      </trkpt>
      <trkpt lat="49.85276" lon="2.48069">
        <ele>100.6</ele>
        <time>2020-10-21T14:34:14Z</time>
      </trkpt>
      <trkpt lat="49.85276" lon="2.48069">
        <ele>100.6</ele>
        <time>2020-10-21T14:34:16Z</time>
      </trkpt>
    </trkseg>
  </trk>
</gpx>